<?xml version="1.0" encoding="UTF-8" standalone="no" ?>
<gpx xmlns="http://www.topografix.com/GPX/1/1" xmlns:xsi="http://www.w3.org/2001/XMLSchema-instance" xsi:schemaLocation="http://www.topografix.com/GPX/1/1 http://www.topografix.com/GPX/1/1/gpx.xsd" version="1.1" creator="VisuGPX - https://www.visugpx.com">
  <metadata>
    <name>Montrond-Notre Dame du Chêne - Trepot Chateau de Cery</name>
  </metadata>
  <trk>
    <name><![CDATA[Montrond-Notre Dame du Chêne - Trepot Chateau de Cery_1]]></name>
    <trkseg>
      <trkpt lat="47.14309" lon="6.0453">
        <ele>459.6</ele>
        <time>2026-05-24T06:47:22Z</time>
      </trkpt>
      <trkpt lat="47.14309" lon="6.0453">
        <ele>456.2</ele>
        <time>2026-05-24T06:47:23Z</time>
      </trkpt>
      <trkpt lat="47.14277" lon="6.04516">
        <ele>455.4</ele>
        <time>2026-05-24T06:49:04Z</time>
      </trkpt>
      <trkpt lat="47.14276" lon="6.04519">
        <ele>455.4</ele>
        <time>2026-05-24T06:49:05Z</time>
      </trkpt>
      <trkpt lat="47.14275" lon="6.04522">
        <ele>455.4</ele>
        <time>2026-05-24T06:49:06Z</time>
      </trkpt>
      <trkpt lat="47.14274" lon="6.04525">
        <ele>455.4</ele>
        <time>2026-05-24T06:49:07Z</time>
      </trkpt>
      <trkpt lat="47.14274" lon="6.04528">
        <ele>455.4</ele>
        <time>2026-05-24T06:49:08Z</time>
      </trkpt>
      <trkpt lat="47.14273" lon="6.04532">
        <ele>455.4</ele>
        <time>2026-05-24T06:49:09Z</time>
      </trkpt>
      <trkpt lat="47.14272" lon="6.04535">
        <ele>455.4</ele>
        <time>2026-05-24T06:49:10Z</time>
      </trkpt>
      <trkpt lat="47.1427" lon="6.04538">
        <ele>455.2</ele>
        <time>2026-05-24T06:49:11Z</time>
      </trkpt>
      <trkpt lat="47.14269" lon="6.04541">
        <ele>455.2</ele>
        <time>2026-05-24T06:49:12Z</time>
      </trkpt>
      <trkpt lat="47.14269" lon="6.04545">
        <ele>455.2</ele>
        <time>2026-05-24T06:49:13Z</time>
      </trkpt>
      <trkpt lat="47.14268" lon="6.04548">
        <ele>455</ele>
        <time>2026-05-24T06:49:14Z</time>
      </trkpt>
      <trkpt lat="47.14267" lon="6.0455">
        <ele>455</ele>
        <time>2026-05-24T06:49:15Z</time>
      </trkpt>
      <trkpt lat="47.14266" lon="6.04553">
        <ele>455</ele>
        <time>2026-05-24T06:49:16Z</time>
      </trkpt>
      <trkpt lat="47.14265" lon="6.04555">
        <ele>454.8</ele>
        <time>2026-05-24T06:49:17Z</time>
      </trkpt>
      <trkpt lat="47.14265" lon="6.04557">
        <ele>454.8</ele>
        <time>2026-05-24T06:49:18Z</time>
      </trkpt>
      <trkpt lat="47.14264" lon="6.0456">
        <ele>454.8</ele>
        <time>2026-05-24T06:49:19Z</time>
      </trkpt>
      <trkpt lat="47.14264" lon="6.04562">
        <ele>454.6</ele>
        <time>2026-05-24T06:49:20Z</time>
      </trkpt>
      <trkpt lat="47.14263" lon="6.04565">
        <ele>454.6</ele>
        <time>2026-05-24T06:49:21Z</time>
      </trkpt>
      <trkpt lat="47.14262" lon="6.04567">
        <ele>454.6</ele>
        <time>2026-05-24T06:49:22Z</time>
      </trkpt>
      <trkpt lat="47.14261" lon="6.0457">
        <ele>454.4</ele>
        <time>2026-05-24T06:49:23Z</time>
      </trkpt>
      <trkpt lat="47.1426" lon="6.04573">
        <ele>454.4</ele>
        <time>2026-05-24T06:49:24Z</time>
      </trkpt>
      <trkpt lat="47.14259" lon="6.04575">
        <ele>454.2</ele>
        <time>2026-05-24T06:49:25Z</time>
      </trkpt>
      <trkpt lat="47.14258" lon="6.04579">
        <ele>454.2</ele>
        <time>2026-05-24T06:49:26Z</time>
      </trkpt>
      <trkpt lat="47.14257" lon="6.04582">
        <ele>454</ele>
        <time>2026-05-24T06:49:27Z</time>
      </trkpt>
      <trkpt lat="47.14256" lon="6.04586">
        <ele>454</ele>
        <time>2026-05-24T06:49:28Z</time>
      </trkpt>
      <trkpt lat="47.14254" lon="6.0459">
        <ele>454</ele>
        <time>2026-05-24T06:49:29Z</time>
      </trkpt>
      <trkpt lat="47.14253" lon="6.04594">
        <ele>454</ele>
        <time>2026-05-24T06:49:30Z</time>
      </trkpt>
      <trkpt lat="47.14252" lon="6.04598">
        <ele>454</ele>
        <time>2026-05-24T06:49:31Z</time>
      </trkpt>
      <trkpt lat="47.1425" lon="6.04602">
        <ele>453.8</ele>
        <time>2026-05-24T06:49:32Z</time>
      </trkpt>
      <trkpt lat="47.14249" lon="6.04606">
        <ele>453.8</ele>
        <time>2026-05-24T06:49:33Z</time>
      </trkpt>
      <trkpt lat="47.14248" lon="6.04609">
        <ele>453.8</ele>
        <time>2026-05-24T06:49:34Z</time>
      </trkpt>
      <trkpt lat="47.14247" lon="6.04612">
        <ele>453.8</ele>
        <time>2026-05-24T06:49:35Z</time>
      </trkpt>
      <trkpt lat="47.14246" lon="6.04615">
        <ele>453.8</ele>
        <time>2026-05-24T06:49:36Z</time>
      </trkpt>
      <trkpt lat="47.14245" lon="6.04618">
        <ele>453.8</ele>
        <time>2026-05-24T06:49:37Z</time>
      </trkpt>
      <trkpt lat="47.14245" lon="6.04621">
        <ele>453.8</ele>
        <time>2026-05-24T06:49:38Z</time>
      </trkpt>
      <trkpt lat="47.14244" lon="6.04624">
        <ele>453.6</ele>
        <time>2026-05-24T06:49:39Z</time>
      </trkpt>
      <trkpt lat="47.14243" lon="6.04627">
        <ele>453.6</ele>
        <time>2026-05-24T06:49:40Z</time>
      </trkpt>
      <trkpt lat="47.14242" lon="6.0463">
        <ele>453.8</ele>
        <time>2026-05-24T06:49:41Z</time>
      </trkpt>
      <trkpt lat="47.14242" lon="6.04633">
        <ele>453.6</ele>
        <time>2026-05-24T06:49:42Z</time>
      </trkpt>
      <trkpt lat="47.14241" lon="6.04636">
        <ele>453.8</ele>
        <time>2026-05-24T06:49:43Z</time>
      </trkpt>
      <trkpt lat="47.1424" lon="6.04639">
        <ele>453.8</ele>
        <time>2026-05-24T06:49:44Z</time>
      </trkpt>
      <trkpt lat="47.14239" lon="6.04641">
        <ele>453.8</ele>
        <time>2026-05-24T06:49:45Z</time>
      </trkpt>
      <trkpt lat="47.14238" lon="6.04644">
        <ele>453.8</ele>
        <time>2026-05-24T06:49:46Z</time>
      </trkpt>
      <trkpt lat="47.14237" lon="6.04646">
        <ele>453.8</ele>
        <time>2026-05-24T06:49:47Z</time>
      </trkpt>
      <trkpt lat="47.14235" lon="6.04648">
        <ele>453.8</ele>
        <time>2026-05-24T06:49:48Z</time>
      </trkpt>
      <trkpt lat="47.14234" lon="6.04651">
        <ele>453.8</ele>
        <time>2026-05-24T06:49:49Z</time>
      </trkpt>
      <trkpt lat="47.14233" lon="6.04653">
        <ele>453.8</ele>
        <time>2026-05-24T06:49:50Z</time>
      </trkpt>
      <trkpt lat="47.14232" lon="6.04656">
        <ele>453.8</ele>
        <time>2026-05-24T06:49:51Z</time>
      </trkpt>
      <trkpt lat="47.14231" lon="6.04659">
        <ele>453.8</ele>
        <time>2026-05-24T06:49:52Z</time>
      </trkpt>
      <trkpt lat="47.1423" lon="6.04661">
        <ele>453.8</ele>
        <time>2026-05-24T06:49:53Z</time>
      </trkpt>
      <trkpt lat="47.14229" lon="6.04664">
        <ele>454</ele>
        <time>2026-05-24T06:49:54Z</time>
      </trkpt>
      <trkpt lat="47.14227" lon="6.04665">
        <ele>453.8</ele>
        <time>2026-05-24T06:49:55Z</time>
      </trkpt>
      <trkpt lat="47.14226" lon="6.04666">
        <ele>453.8</ele>
        <time>2026-05-24T06:49:56Z</time>
      </trkpt>
      <trkpt lat="47.14224" lon="6.04667">
        <ele>454</ele>
        <time>2026-05-24T06:49:57Z</time>
      </trkpt>
      <trkpt lat="47.14222" lon="6.04667">
        <ele>453.8</ele>
        <time>2026-05-24T06:49:58Z</time>
      </trkpt>
      <trkpt lat="47.1422" lon="6.04667">
        <ele>453.8</ele>
        <time>2026-05-24T06:49:59Z</time>
      </trkpt>
      <trkpt lat="47.14218" lon="6.04668">
        <ele>453.8</ele>
        <time>2026-05-24T06:50:00Z</time>
      </trkpt>
      <trkpt lat="47.14216" lon="6.04669">
        <ele>453.8</ele>
        <time>2026-05-24T06:50:01Z</time>
      </trkpt>
      <trkpt lat="47.14214" lon="6.0467">
        <ele>454</ele>
        <time>2026-05-24T06:50:02Z</time>
      </trkpt>
      <trkpt lat="47.14211" lon="6.04673">
        <ele>453.8</ele>
        <time>2026-05-24T06:50:03Z</time>
      </trkpt>
      <trkpt lat="47.14208" lon="6.04675">
        <ele>453.8</ele>
        <time>2026-05-24T06:50:04Z</time>
      </trkpt>
      <trkpt lat="47.14205" lon="6.04677">
        <ele>453.8</ele>
        <time>2026-05-24T06:50:05Z</time>
      </trkpt>
      <trkpt lat="47.14203" lon="6.04679">
        <ele>453.8</ele>
        <time>2026-05-24T06:50:06Z</time>
      </trkpt>
      <trkpt lat="47.14199" lon="6.0468">
        <ele>454</ele>
        <time>2026-05-24T06:50:07Z</time>
      </trkpt>
      <trkpt lat="47.14196" lon="6.04682">
        <ele>453.8</ele>
        <time>2026-05-24T06:50:08Z</time>
      </trkpt>
      <trkpt lat="47.14192" lon="6.04684">
        <ele>453.8</ele>
        <time>2026-05-24T06:50:09Z</time>
      </trkpt>
      <trkpt lat="47.14189" lon="6.04685">
        <ele>453.6</ele>
        <time>2026-05-24T06:50:10Z</time>
      </trkpt>
      <trkpt lat="47.14184" lon="6.04687">
        <ele>453.6</ele>
        <time>2026-05-24T06:50:11Z</time>
      </trkpt>
      <trkpt lat="47.1418" lon="6.04691">
        <ele>453.4</ele>
        <time>2026-05-24T06:50:12Z</time>
      </trkpt>
      <trkpt lat="47.14176" lon="6.04695">
        <ele>453.4</ele>
        <time>2026-05-24T06:50:13Z</time>
      </trkpt>
      <trkpt lat="47.14171" lon="6.04698">
        <ele>453.2</ele>
        <time>2026-05-24T06:50:14Z</time>
      </trkpt>
      <trkpt lat="47.14167" lon="6.04701">
        <ele>453.2</ele>
        <time>2026-05-24T06:50:15Z</time>
      </trkpt>
      <trkpt lat="47.14164" lon="6.04704">
        <ele>453</ele>
        <time>2026-05-24T06:50:16Z</time>
      </trkpt>
      <trkpt lat="47.14161" lon="6.04708">
        <ele>453</ele>
        <time>2026-05-24T06:50:17Z</time>
      </trkpt>
      <trkpt lat="47.14156" lon="6.0471">
        <ele>453</ele>
        <time>2026-05-24T06:50:18Z</time>
      </trkpt>
      <trkpt lat="47.14152" lon="6.04713">
        <ele>452.8</ele>
        <time>2026-05-24T06:50:19Z</time>
      </trkpt>
      <trkpt lat="47.14147" lon="6.04716">
        <ele>452.6</ele>
        <time>2026-05-24T06:50:20Z</time>
      </trkpt>
      <trkpt lat="47.14143" lon="6.0472">
        <ele>452.4</ele>
        <time>2026-05-24T06:50:21Z</time>
      </trkpt>
      <trkpt lat="47.14139" lon="6.04723">
        <ele>452.4</ele>
        <time>2026-05-24T06:50:22Z</time>
      </trkpt>
      <trkpt lat="47.14136" lon="6.04727">
        <ele>452.4</ele>
        <time>2026-05-24T06:50:23Z</time>
      </trkpt>
      <trkpt lat="47.14133" lon="6.04731">
        <ele>452.2</ele>
        <time>2026-05-24T06:50:24Z</time>
      </trkpt>
      <trkpt lat="47.1413" lon="6.04735">
        <ele>452.2</ele>
        <time>2026-05-24T06:50:25Z</time>
      </trkpt>
      <trkpt lat="47.14127" lon="6.04739">
        <ele>452.2</ele>
        <time>2026-05-24T06:50:26Z</time>
      </trkpt>
      <trkpt lat="47.14124" lon="6.04742">
        <ele>452.2</ele>
        <time>2026-05-24T06:50:27Z</time>
      </trkpt>
      <trkpt lat="47.14121" lon="6.04747">
        <ele>452.2</ele>
        <time>2026-05-24T06:50:28Z</time>
      </trkpt>
      <trkpt lat="47.14118" lon="6.04752">
        <ele>452</ele>
        <time>2026-05-24T06:50:29Z</time>
      </trkpt>
      <trkpt lat="47.14115" lon="6.04757">
        <ele>452</ele>
        <time>2026-05-24T06:50:30Z</time>
      </trkpt>
      <trkpt lat="47.14112" lon="6.04761">
        <ele>451.8</ele>
        <time>2026-05-24T06:50:31Z</time>
      </trkpt>
      <trkpt lat="47.14108" lon="6.04766">
        <ele>452</ele>
        <time>2026-05-24T06:50:32Z</time>
      </trkpt>
      <trkpt lat="47.14104" lon="6.04771">
        <ele>452</ele>
        <time>2026-05-24T06:50:33Z</time>
      </trkpt>
      <trkpt lat="47.14101" lon="6.04775">
        <ele>451.8</ele>
        <time>2026-05-24T06:50:34Z</time>
      </trkpt>
      <trkpt lat="47.14097" lon="6.0478">
        <ele>451.8</ele>
        <time>2026-05-24T06:50:35Z</time>
      </trkpt>
      <trkpt lat="47.14093" lon="6.04784">
        <ele>451.6</ele>
        <time>2026-05-24T06:50:36Z</time>
      </trkpt>
      <trkpt lat="47.14089" lon="6.04787">
        <ele>451.6</ele>
        <time>2026-05-24T06:50:37Z</time>
      </trkpt>
      <trkpt lat="47.14084" lon="6.04791">
        <ele>451.6</ele>
        <time>2026-05-24T06:50:38Z</time>
      </trkpt>
      <trkpt lat="47.1408" lon="6.04793">
        <ele>451.4</ele>
        <time>2026-05-24T06:50:39Z</time>
      </trkpt>
      <trkpt lat="47.14075" lon="6.04797">
        <ele>451.2</ele>
        <time>2026-05-24T06:50:40Z</time>
      </trkpt>
      <trkpt lat="47.14071" lon="6.04801">
        <ele>451</ele>
        <time>2026-05-24T06:50:41Z</time>
      </trkpt>
      <trkpt lat="47.14066" lon="6.04805">
        <ele>451</ele>
        <time>2026-05-24T06:50:42Z</time>
      </trkpt>
      <trkpt lat="47.14062" lon="6.04808">
        <ele>450.8</ele>
        <time>2026-05-24T06:50:43Z</time>
      </trkpt>
      <trkpt lat="47.14058" lon="6.04812">
        <ele>450.6</ele>
        <time>2026-05-24T06:50:44Z</time>
      </trkpt>
      <trkpt lat="47.14053" lon="6.04815">
        <ele>450.4</ele>
        <time>2026-05-24T06:50:45Z</time>
      </trkpt>
      <trkpt lat="47.14049" lon="6.04819">
        <ele>450.4</ele>
        <time>2026-05-24T06:50:46Z</time>
      </trkpt>
      <trkpt lat="47.14045" lon="6.04822">
        <ele>450.2</ele>
        <time>2026-05-24T06:50:47Z</time>
      </trkpt>
      <trkpt lat="47.14041" lon="6.04825">
        <ele>450.2</ele>
        <time>2026-05-24T06:50:48Z</time>
      </trkpt>
      <trkpt lat="47.14036" lon="6.04828">
        <ele>450.2</ele>
        <time>2026-05-24T06:50:49Z</time>
      </trkpt>
      <trkpt lat="47.14032" lon="6.04831">
        <ele>450</ele>
        <time>2026-05-24T06:50:50Z</time>
      </trkpt>
      <trkpt lat="47.14028" lon="6.04834">
        <ele>450</ele>
        <time>2026-05-24T06:50:51Z</time>
      </trkpt>
      <trkpt lat="47.14024" lon="6.04838">
        <ele>449.8</ele>
        <time>2026-05-24T06:50:52Z</time>
      </trkpt>
      <trkpt lat="47.14019" lon="6.04841">
        <ele>450</ele>
        <time>2026-05-24T06:50:53Z</time>
      </trkpt>
      <trkpt lat="47.14015" lon="6.04845">
        <ele>449.8</ele>
        <time>2026-05-24T06:50:54Z</time>
      </trkpt>
      <trkpt lat="47.14011" lon="6.04848">
        <ele>450</ele>
        <time>2026-05-24T06:50:55Z</time>
      </trkpt>
      <trkpt lat="47.14007" lon="6.04851">
        <ele>450</ele>
        <time>2026-05-24T06:50:56Z</time>
      </trkpt>
      <trkpt lat="47.14003" lon="6.04854">
        <ele>450</ele>
        <time>2026-05-24T06:50:57Z</time>
      </trkpt>
      <trkpt lat="47.13999" lon="6.04858">
        <ele>450</ele>
        <time>2026-05-24T06:50:58Z</time>
      </trkpt>
      <trkpt lat="47.13995" lon="6.04861">
        <ele>449.8</ele>
        <time>2026-05-24T06:50:59Z</time>
      </trkpt>
      <trkpt lat="47.13991" lon="6.04864">
        <ele>449.8</ele>
        <time>2026-05-24T06:51:00Z</time>
      </trkpt>
      <trkpt lat="47.13988" lon="6.04867">
        <ele>450</ele>
        <time>2026-05-24T06:51:01Z</time>
      </trkpt>
      <trkpt lat="47.13984" lon="6.0487">
        <ele>449.8</ele>
        <time>2026-05-24T06:51:02Z</time>
      </trkpt>
      <trkpt lat="47.13981" lon="6.04873">
        <ele>449.8</ele>
        <time>2026-05-24T06:51:03Z</time>
      </trkpt>
      <trkpt lat="47.13977" lon="6.04876">
        <ele>449.8</ele>
        <time>2026-05-24T06:51:04Z</time>
      </trkpt>
      <trkpt lat="47.13973" lon="6.0488">
        <ele>449.6</ele>
        <time>2026-05-24T06:51:05Z</time>
      </trkpt>
      <trkpt lat="47.13969" lon="6.04883">
        <ele>449.6</ele>
        <time>2026-05-24T06:51:06Z</time>
      </trkpt>
      <trkpt lat="47.13965" lon="6.04886">
        <ele>449.6</ele>
        <time>2026-05-24T06:51:07Z</time>
      </trkpt>
      <trkpt lat="47.13961" lon="6.04889">
        <ele>449.4</ele>
        <time>2026-05-24T06:51:08Z</time>
      </trkpt>
      <trkpt lat="47.13958" lon="6.04892">
        <ele>449.4</ele>
        <time>2026-05-24T06:51:09Z</time>
      </trkpt>
      <trkpt lat="47.13954" lon="6.04896">
        <ele>449.6</ele>
        <time>2026-05-24T06:51:10Z</time>
      </trkpt>
      <trkpt lat="47.13951" lon="6.04899">
        <ele>449.6</ele>
        <time>2026-05-24T06:51:11Z</time>
      </trkpt>
      <trkpt lat="47.13947" lon="6.04903">
        <ele>449.6</ele>
        <time>2026-05-24T06:51:12Z</time>
      </trkpt>
      <trkpt lat="47.13944" lon="6.04906">
        <ele>449.4</ele>
        <time>2026-05-24T06:51:13Z</time>
      </trkpt>
      <trkpt lat="47.1394" lon="6.04908">
        <ele>449.2</ele>
        <time>2026-05-24T06:51:14Z</time>
      </trkpt>
      <trkpt lat="47.13936" lon="6.04911">
        <ele>449.2</ele>
        <time>2026-05-24T06:51:15Z</time>
      </trkpt>
      <trkpt lat="47.13932" lon="6.04914">
        <ele>449</ele>
        <time>2026-05-24T06:51:16Z</time>
      </trkpt>
      <trkpt lat="47.13928" lon="6.04918">
        <ele>449</ele>
        <time>2026-05-24T06:51:17Z</time>
      </trkpt>
      <trkpt lat="47.13924" lon="6.04921">
        <ele>449</ele>
        <time>2026-05-24T06:51:18Z</time>
      </trkpt>
      <trkpt lat="47.1392" lon="6.04924">
        <ele>449</ele>
        <time>2026-05-24T06:51:19Z</time>
      </trkpt>
      <trkpt lat="47.13916" lon="6.04928">
        <ele>448.8</ele>
        <time>2026-05-24T06:51:20Z</time>
      </trkpt>
      <trkpt lat="47.13912" lon="6.04931">
        <ele>448.8</ele>
        <time>2026-05-24T06:51:21Z</time>
      </trkpt>
      <trkpt lat="47.13908" lon="6.04935">
        <ele>449</ele>
        <time>2026-05-24T06:51:22Z</time>
      </trkpt>
      <trkpt lat="47.13904" lon="6.04938">
        <ele>449</ele>
        <time>2026-05-24T06:51:23Z</time>
      </trkpt>
      <trkpt lat="47.139" lon="6.04942">
        <ele>449</ele>
        <time>2026-05-24T06:51:24Z</time>
      </trkpt>
      <trkpt lat="47.13896" lon="6.04946">
        <ele>448.8</ele>
        <time>2026-05-24T06:51:25Z</time>
      </trkpt>
      <trkpt lat="47.13891" lon="6.04949">
        <ele>448.6</ele>
        <time>2026-05-24T06:51:26Z</time>
      </trkpt>
      <trkpt lat="47.13887" lon="6.04952">
        <ele>448.6</ele>
        <time>2026-05-24T06:51:27Z</time>
      </trkpt>
      <trkpt lat="47.13882" lon="6.04955">
        <ele>448.4</ele>
        <time>2026-05-24T06:51:28Z</time>
      </trkpt>
      <trkpt lat="47.13878" lon="6.04958">
        <ele>448.4</ele>
        <time>2026-05-24T06:51:29Z</time>
      </trkpt>
      <trkpt lat="47.13874" lon="6.04961">
        <ele>448.4</ele>
        <time>2026-05-24T06:51:30Z</time>
      </trkpt>
      <trkpt lat="47.13869" lon="6.04964">
        <ele>448.2</ele>
        <time>2026-05-24T06:51:31Z</time>
      </trkpt>
      <trkpt lat="47.13865" lon="6.04968">
        <ele>448.2</ele>
        <time>2026-05-24T06:51:32Z</time>
      </trkpt>
      <trkpt lat="47.1386" lon="6.04971">
        <ele>448.2</ele>
        <time>2026-05-24T06:51:33Z</time>
      </trkpt>
      <trkpt lat="47.13856" lon="6.04975">
        <ele>448.2</ele>
        <time>2026-05-24T06:51:34Z</time>
      </trkpt>
      <trkpt lat="47.13851" lon="6.04978">
        <ele>448</ele>
        <time>2026-05-24T06:51:35Z</time>
      </trkpt>
      <trkpt lat="47.13847" lon="6.04981">
        <ele>448.2</ele>
        <time>2026-05-24T06:51:36Z</time>
      </trkpt>
      <trkpt lat="47.13843" lon="6.04984">
        <ele>448</ele>
        <time>2026-05-24T06:51:37Z</time>
      </trkpt>
      <trkpt lat="47.13838" lon="6.04988">
        <ele>448</ele>
        <time>2026-05-24T06:51:38Z</time>
      </trkpt>
      <trkpt lat="47.13834" lon="6.04992">
        <ele>448</ele>
        <time>2026-05-24T06:51:39Z</time>
      </trkpt>
      <trkpt lat="47.1383" lon="6.04996">
        <ele>448</ele>
        <time>2026-05-24T06:51:40Z</time>
      </trkpt>
      <trkpt lat="47.13825" lon="6.04999">
        <ele>448</ele>
        <time>2026-05-24T06:51:41Z</time>
      </trkpt>
      <trkpt lat="47.13821" lon="6.05003">
        <ele>448</ele>
        <time>2026-05-24T06:51:42Z</time>
      </trkpt>
      <trkpt lat="47.13817" lon="6.05006">
        <ele>447.8</ele>
        <time>2026-05-24T06:51:43Z</time>
      </trkpt>
      <trkpt lat="47.13813" lon="6.05009">
        <ele>448</ele>
        <time>2026-05-24T06:51:44Z</time>
      </trkpt>
      <trkpt lat="47.13809" lon="6.05013">
        <ele>448</ele>
        <time>2026-05-24T06:51:45Z</time>
      </trkpt>
      <trkpt lat="47.13805" lon="6.05016">
        <ele>447.8</ele>
        <time>2026-05-24T06:51:46Z</time>
      </trkpt>
      <trkpt lat="47.138" lon="6.05019">
        <ele>448</ele>
        <time>2026-05-24T06:51:47Z</time>
      </trkpt>
      <trkpt lat="47.13796" lon="6.05022">
        <ele>447.8</ele>
        <time>2026-05-24T06:51:48Z</time>
      </trkpt>
      <trkpt lat="47.13792" lon="6.05026">
        <ele>448</ele>
        <time>2026-05-24T06:51:49Z</time>
      </trkpt>
      <trkpt lat="47.13787" lon="6.05029">
        <ele>448</ele>
        <time>2026-05-24T06:51:50Z</time>
      </trkpt>
      <trkpt lat="47.13783" lon="6.05032">
        <ele>448</ele>
        <time>2026-05-24T06:51:51Z</time>
      </trkpt>
      <trkpt lat="47.13778" lon="6.05036">
        <ele>448</ele>
        <time>2026-05-24T06:51:52Z</time>
      </trkpt>
      <trkpt lat="47.13774" lon="6.0504">
        <ele>448</ele>
        <time>2026-05-24T06:51:53Z</time>
      </trkpt>
      <trkpt lat="47.1377" lon="6.05043">
        <ele>447.8</ele>
        <time>2026-05-24T06:51:54Z</time>
      </trkpt>
      <trkpt lat="47.13765" lon="6.05046">
        <ele>448</ele>
        <time>2026-05-24T06:51:55Z</time>
      </trkpt>
      <trkpt lat="47.1376" lon="6.0505">
        <ele>447.8</ele>
        <time>2026-05-24T06:51:56Z</time>
      </trkpt>
      <trkpt lat="47.13756" lon="6.05053">
        <ele>448</ele>
        <time>2026-05-24T06:51:57Z</time>
      </trkpt>
      <trkpt lat="47.13752" lon="6.05057">
        <ele>448</ele>
        <time>2026-05-24T06:51:58Z</time>
      </trkpt>
      <trkpt lat="47.13747" lon="6.05061">
        <ele>447.8</ele>
        <time>2026-05-24T06:51:59Z</time>
      </trkpt>
      <trkpt lat="47.13743" lon="6.05064">
        <ele>447.8</ele>
        <time>2026-05-24T06:52:00Z</time>
      </trkpt>
      <trkpt lat="47.13739" lon="6.05068">
        <ele>447.8</ele>
        <time>2026-05-24T06:52:01Z</time>
      </trkpt>
      <trkpt lat="47.13735" lon="6.05071">
        <ele>447.8</ele>
        <time>2026-05-24T06:52:02Z</time>
      </trkpt>
      <trkpt lat="47.1373" lon="6.05075">
        <ele>447.8</ele>
        <time>2026-05-24T06:52:03Z</time>
      </trkpt>
      <trkpt lat="47.13726" lon="6.05079">
        <ele>447.8</ele>
        <time>2026-05-24T06:52:04Z</time>
      </trkpt>
      <trkpt lat="47.13722" lon="6.05082">
        <ele>447.8</ele>
        <time>2026-05-24T06:52:05Z</time>
      </trkpt>
      <trkpt lat="47.13718" lon="6.05086">
        <ele>447.6</ele>
        <time>2026-05-24T06:52:06Z</time>
      </trkpt>
      <trkpt lat="47.13714" lon="6.0509">
        <ele>447.8</ele>
        <time>2026-05-24T06:52:07Z</time>
      </trkpt>
      <trkpt lat="47.1371" lon="6.05093">
        <ele>447.6</ele>
        <time>2026-05-24T06:52:08Z</time>
      </trkpt>
      <trkpt lat="47.13706" lon="6.05096">
        <ele>447.8</ele>
        <time>2026-05-24T06:52:09Z</time>
      </trkpt>
      <trkpt lat="47.13702" lon="6.05099">
        <ele>447.6</ele>
        <time>2026-05-24T06:52:10Z</time>
      </trkpt>
      <trkpt lat="47.13698" lon="6.05103">
        <ele>447.6</ele>
        <time>2026-05-24T06:52:11Z</time>
      </trkpt>
      <trkpt lat="47.13694" lon="6.05106">
        <ele>447.8</ele>
        <time>2026-05-24T06:52:12Z</time>
      </trkpt>
      <trkpt lat="47.13691" lon="6.05109">
        <ele>447.8</ele>
        <time>2026-05-24T06:52:13Z</time>
      </trkpt>
      <trkpt lat="47.13687" lon="6.05111">
        <ele>447.6</ele>
        <time>2026-05-24T06:52:14Z</time>
      </trkpt>
      <trkpt lat="47.13684" lon="6.05114">
        <ele>447.6</ele>
        <time>2026-05-24T06:52:15Z</time>
      </trkpt>
      <trkpt lat="47.1368" lon="6.05117">
        <ele>447.8</ele>
        <time>2026-05-24T06:52:16Z</time>
      </trkpt>
      <trkpt lat="47.13677" lon="6.0512">
        <ele>447.8</ele>
        <time>2026-05-24T06:52:17Z</time>
      </trkpt>
      <trkpt lat="47.13674" lon="6.05123">
        <ele>447.8</ele>
        <time>2026-05-24T06:52:18Z</time>
      </trkpt>
      <trkpt lat="47.1367" lon="6.05126">
        <ele>448</ele>
        <time>2026-05-24T06:52:19Z</time>
      </trkpt>
      <trkpt lat="47.13667" lon="6.05129">
        <ele>448.2</ele>
        <time>2026-05-24T06:52:20Z</time>
      </trkpt>
      <trkpt lat="47.13663" lon="6.05133">
        <ele>448.4</ele>
        <time>2026-05-24T06:52:21Z</time>
      </trkpt>
      <trkpt lat="47.1366" lon="6.05136">
        <ele>448.6</ele>
        <time>2026-05-24T06:52:22Z</time>
      </trkpt>
      <trkpt lat="47.13657" lon="6.05138">
        <ele>448.6</ele>
        <time>2026-05-24T06:52:23Z</time>
      </trkpt>
      <trkpt lat="47.13654" lon="6.05141">
        <ele>448.8</ele>
        <time>2026-05-24T06:52:24Z</time>
      </trkpt>
      <trkpt lat="47.13651" lon="6.05143">
        <ele>448.8</ele>
        <time>2026-05-24T06:52:25Z</time>
      </trkpt>
      <trkpt lat="47.13647" lon="6.05145">
        <ele>448.8</ele>
        <time>2026-05-24T06:52:26Z</time>
      </trkpt>
      <trkpt lat="47.13643" lon="6.05147">
        <ele>448.8</ele>
        <time>2026-05-24T06:52:27Z</time>
      </trkpt>
      <trkpt lat="47.13639" lon="6.05151">
        <ele>448.8</ele>
        <time>2026-05-24T06:52:28Z</time>
      </trkpt>
      <trkpt lat="47.13635" lon="6.05154">
        <ele>449</ele>
        <time>2026-05-24T06:52:29Z</time>
      </trkpt>
      <trkpt lat="47.13631" lon="6.05158">
        <ele>449.4</ele>
        <time>2026-05-24T06:52:30Z</time>
      </trkpt>
      <trkpt lat="47.13626" lon="6.05161">
        <ele>449.4</ele>
        <time>2026-05-24T06:52:31Z</time>
      </trkpt>
      <trkpt lat="47.13622" lon="6.05164">
        <ele>449.8</ele>
        <time>2026-05-24T06:52:32Z</time>
      </trkpt>
      <trkpt lat="47.13618" lon="6.05166">
        <ele>449.8</ele>
        <time>2026-05-24T06:52:33Z</time>
      </trkpt>
      <trkpt lat="47.13614" lon="6.05169">
        <ele>450.2</ele>
        <time>2026-05-24T06:52:34Z</time>
      </trkpt>
      <trkpt lat="47.1361" lon="6.05172">
        <ele>450.2</ele>
        <time>2026-05-24T06:52:35Z</time>
      </trkpt>
      <trkpt lat="47.13606" lon="6.05175">
        <ele>450.4</ele>
        <time>2026-05-24T06:52:36Z</time>
      </trkpt>
      <trkpt lat="47.13602" lon="6.05178">
        <ele>450.4</ele>
        <time>2026-05-24T06:52:37Z</time>
      </trkpt>
      <trkpt lat="47.13598" lon="6.05181">
        <ele>450.4</ele>
        <time>2026-05-24T06:52:38Z</time>
      </trkpt>
      <trkpt lat="47.13595" lon="6.05184">
        <ele>450.4</ele>
        <time>2026-05-24T06:52:39Z</time>
      </trkpt>
      <trkpt lat="47.13591" lon="6.05186">
        <ele>450.4</ele>
        <time>2026-05-24T06:52:40Z</time>
      </trkpt>
      <trkpt lat="47.13588" lon="6.05188">
        <ele>450.4</ele>
        <time>2026-05-24T06:52:41Z</time>
      </trkpt>
      <trkpt lat="47.13585" lon="6.05191">
        <ele>450.6</ele>
        <time>2026-05-24T06:52:42Z</time>
      </trkpt>
      <trkpt lat="47.13581" lon="6.05193">
        <ele>450.6</ele>
        <time>2026-05-24T06:52:43Z</time>
      </trkpt>
      <trkpt lat="47.13578" lon="6.05196">
        <ele>450.6</ele>
        <time>2026-05-24T06:52:44Z</time>
      </trkpt>
      <trkpt lat="47.13575" lon="6.05199">
        <ele>450.6</ele>
        <time>2026-05-24T06:52:45Z</time>
      </trkpt>
      <trkpt lat="47.13571" lon="6.05202">
        <ele>450.8</ele>
        <time>2026-05-24T06:52:46Z</time>
      </trkpt>
      <trkpt lat="47.13568" lon="6.05204">
        <ele>450.6</ele>
        <time>2026-05-24T06:52:47Z</time>
      </trkpt>
      <trkpt lat="47.13565" lon="6.05207">
        <ele>450.6</ele>
        <time>2026-05-24T06:52:48Z</time>
      </trkpt>
      <trkpt lat="47.13561" lon="6.0521">
        <ele>450.8</ele>
        <time>2026-05-24T06:52:49Z</time>
      </trkpt>
      <trkpt lat="47.13557" lon="6.05213">
        <ele>450.6</ele>
        <time>2026-05-24T06:52:50Z</time>
      </trkpt>
      <trkpt lat="47.13553" lon="6.05216">
        <ele>450.8</ele>
        <time>2026-05-24T06:52:51Z</time>
      </trkpt>
      <trkpt lat="47.13549" lon="6.05219">
        <ele>451</ele>
        <time>2026-05-24T06:52:52Z</time>
      </trkpt>
      <trkpt lat="47.13545" lon="6.05223">
        <ele>451</ele>
        <time>2026-05-24T06:52:53Z</time>
      </trkpt>
      <trkpt lat="47.13541" lon="6.05226">
        <ele>451</ele>
        <time>2026-05-24T06:52:54Z</time>
      </trkpt>
      <trkpt lat="47.13537" lon="6.05229">
        <ele>451</ele>
        <time>2026-05-24T06:52:55Z</time>
      </trkpt>
      <trkpt lat="47.13533" lon="6.05233">
        <ele>451.2</ele>
        <time>2026-05-24T06:52:56Z</time>
      </trkpt>
      <trkpt lat="47.13529" lon="6.05236">
        <ele>451.2</ele>
        <time>2026-05-24T06:52:57Z</time>
      </trkpt>
      <trkpt lat="47.13525" lon="6.05239">
        <ele>451.2</ele>
        <time>2026-05-24T06:52:58Z</time>
      </trkpt>
      <trkpt lat="47.1352" lon="6.05243">
        <ele>451.2</ele>
        <time>2026-05-24T06:52:59Z</time>
      </trkpt>
      <trkpt lat="47.13516" lon="6.05246">
        <ele>451.4</ele>
        <time>2026-05-24T06:53:00Z</time>
      </trkpt>
      <trkpt lat="47.13512" lon="6.05249">
        <ele>451.2</ele>
        <time>2026-05-24T06:53:01Z</time>
      </trkpt>
      <trkpt lat="47.13508" lon="6.05253">
        <ele>451.2</ele>
        <time>2026-05-24T06:53:02Z</time>
      </trkpt>
      <trkpt lat="47.13504" lon="6.05256">
        <ele>451.2</ele>
        <time>2026-05-24T06:53:03Z</time>
      </trkpt>
      <trkpt lat="47.135" lon="6.0526">
        <ele>451.4</ele>
        <time>2026-05-24T06:53:04Z</time>
      </trkpt>
      <trkpt lat="47.13495" lon="6.05263">
        <ele>451.2</ele>
        <time>2026-05-24T06:53:05Z</time>
      </trkpt>
      <trkpt lat="47.13491" lon="6.05267">
        <ele>451.2</ele>
        <time>2026-05-24T06:53:06Z</time>
      </trkpt>
      <trkpt lat="47.13486" lon="6.05271">
        <ele>451.2</ele>
        <time>2026-05-24T06:53:07Z</time>
      </trkpt>
      <trkpt lat="47.13482" lon="6.05274">
        <ele>451.2</ele>
        <time>2026-05-24T06:53:08Z</time>
      </trkpt>
      <trkpt lat="47.13477" lon="6.05278">
        <ele>451.4</ele>
        <time>2026-05-24T06:53:09Z</time>
      </trkpt>
      <trkpt lat="47.13473" lon="6.05281">
        <ele>451.4</ele>
        <time>2026-05-24T06:53:10Z</time>
      </trkpt>
      <trkpt lat="47.13469" lon="6.05285">
        <ele>451.4</ele>
        <time>2026-05-24T06:53:11Z</time>
      </trkpt>
      <trkpt lat="47.13464" lon="6.05288">
        <ele>451.4</ele>
        <time>2026-05-24T06:53:12Z</time>
      </trkpt>
      <trkpt lat="47.1346" lon="6.05292">
        <ele>451.2</ele>
        <time>2026-05-24T06:53:13Z</time>
      </trkpt>
      <trkpt lat="47.13455" lon="6.05295">
        <ele>451.2</ele>
        <time>2026-05-24T06:53:14Z</time>
      </trkpt>
      <trkpt lat="47.13451" lon="6.05299">
        <ele>451.4</ele>
        <time>2026-05-24T06:53:15Z</time>
      </trkpt>
      <trkpt lat="47.13447" lon="6.05302">
        <ele>451.2</ele>
        <time>2026-05-24T06:53:16Z</time>
      </trkpt>
      <trkpt lat="47.13442" lon="6.05305">
        <ele>451.2</ele>
        <time>2026-05-24T06:53:17Z</time>
      </trkpt>
      <trkpt lat="47.13438" lon="6.05309">
        <ele>451.2</ele>
        <time>2026-05-24T06:53:18Z</time>
      </trkpt>
      <trkpt lat="47.13434" lon="6.05313">
        <ele>451.2</ele>
        <time>2026-05-24T06:53:19Z</time>
      </trkpt>
      <trkpt lat="47.13429" lon="6.05317">
        <ele>451.4</ele>
        <time>2026-05-24T06:53:20Z</time>
      </trkpt>
      <trkpt lat="47.13425" lon="6.0532">
        <ele>451.2</ele>
        <time>2026-05-24T06:53:21Z</time>
      </trkpt>
      <trkpt lat="47.13422" lon="6.05323">
        <ele>451.2</ele>
        <time>2026-05-24T06:53:22Z</time>
      </trkpt>
      <trkpt lat="47.13418" lon="6.05326">
        <ele>451.2</ele>
        <time>2026-05-24T06:53:23Z</time>
      </trkpt>
      <trkpt lat="47.13414" lon="6.05329">
        <ele>451.4</ele>
        <time>2026-05-24T06:53:24Z</time>
      </trkpt>
      <trkpt lat="47.13411" lon="6.05332">
        <ele>451.4</ele>
        <time>2026-05-24T06:53:25Z</time>
      </trkpt>
      <trkpt lat="47.13408" lon="6.05336">
        <ele>451.6</ele>
        <time>2026-05-24T06:53:26Z</time>
      </trkpt>
      <trkpt lat="47.13404" lon="6.05339">
        <ele>451.8</ele>
        <time>2026-05-24T06:53:27Z</time>
      </trkpt>
      <trkpt lat="47.13401" lon="6.05342">
        <ele>452</ele>
        <time>2026-05-24T06:53:28Z</time>
      </trkpt>
      <trkpt lat="47.13398" lon="6.05344">
        <ele>452</ele>
        <time>2026-05-24T06:53:29Z</time>
      </trkpt>
      <trkpt lat="47.13395" lon="6.05346">
        <ele>452.2</ele>
        <time>2026-05-24T06:53:30Z</time>
      </trkpt>
      <trkpt lat="47.13392" lon="6.05348">
        <ele>452.6</ele>
        <time>2026-05-24T06:53:31Z</time>
      </trkpt>
      <trkpt lat="47.13389" lon="6.0535">
        <ele>452.6</ele>
        <time>2026-05-24T06:53:32Z</time>
      </trkpt>
      <trkpt lat="47.13386" lon="6.05352">
        <ele>452.8</ele>
        <time>2026-05-24T06:53:33Z</time>
      </trkpt>
      <trkpt lat="47.13383" lon="6.05353">
        <ele>453</ele>
        <time>2026-05-24T06:53:34Z</time>
      </trkpt>
      <trkpt lat="47.13381" lon="6.05355">
        <ele>453.2</ele>
        <time>2026-05-24T06:53:35Z</time>
      </trkpt>
      <trkpt lat="47.13378" lon="6.05357">
        <ele>453.4</ele>
        <time>2026-05-24T06:53:36Z</time>
      </trkpt>
      <trkpt lat="47.13375" lon="6.05359">
        <ele>453.4</ele>
        <time>2026-05-24T06:53:37Z</time>
      </trkpt>
      <trkpt lat="47.13372" lon="6.05361">
        <ele>453.6</ele>
        <time>2026-05-24T06:53:38Z</time>
      </trkpt>
      <trkpt lat="47.13368" lon="6.05363">
        <ele>453.8</ele>
        <time>2026-05-24T06:53:39Z</time>
      </trkpt>
      <trkpt lat="47.13365" lon="6.05366">
        <ele>454.2</ele>
        <time>2026-05-24T06:53:40Z</time>
      </trkpt>
      <trkpt lat="47.13362" lon="6.05367">
        <ele>454.2</ele>
        <time>2026-05-24T06:53:41Z</time>
      </trkpt>
      <trkpt lat="47.13359" lon="6.05369">
        <ele>454.2</ele>
        <time>2026-05-24T06:53:42Z</time>
      </trkpt>
      <trkpt lat="47.13356" lon="6.05371">
        <ele>454.6</ele>
        <time>2026-05-24T06:53:43Z</time>
      </trkpt>
      <trkpt lat="47.13353" lon="6.05373">
        <ele>454.6</ele>
        <time>2026-05-24T06:53:44Z</time>
      </trkpt>
      <trkpt lat="47.1335" lon="6.05376">
        <ele>454.8</ele>
        <time>2026-05-24T06:53:45Z</time>
      </trkpt>
      <trkpt lat="47.13347" lon="6.05378">
        <ele>455</ele>
        <time>2026-05-24T06:53:46Z</time>
      </trkpt>
      <trkpt lat="47.13344" lon="6.05382">
        <ele>455.4</ele>
        <time>2026-05-24T06:53:47Z</time>
      </trkpt>
      <trkpt lat="47.1334" lon="6.05385">
        <ele>455.4</ele>
        <time>2026-05-24T06:53:48Z</time>
      </trkpt>
      <trkpt lat="47.13337" lon="6.05388">
        <ele>455.6</ele>
        <time>2026-05-24T06:53:49Z</time>
      </trkpt>
      <trkpt lat="47.13334" lon="6.05391">
        <ele>455.8</ele>
        <time>2026-05-24T06:53:50Z</time>
      </trkpt>
      <trkpt lat="47.13331" lon="6.05394">
        <ele>456.2</ele>
        <time>2026-05-24T06:53:51Z</time>
      </trkpt>
      <trkpt lat="47.13327" lon="6.05397">
        <ele>456.4</ele>
        <time>2026-05-24T06:53:52Z</time>
      </trkpt>
      <trkpt lat="47.13324" lon="6.054">
        <ele>456.6</ele>
        <time>2026-05-24T06:53:53Z</time>
      </trkpt>
      <trkpt lat="47.13321" lon="6.05403">
        <ele>456.6</ele>
        <time>2026-05-24T06:53:54Z</time>
      </trkpt>
      <trkpt lat="47.13318" lon="6.05406">
        <ele>457</ele>
        <time>2026-05-24T06:53:55Z</time>
      </trkpt>
      <trkpt lat="47.13315" lon="6.05409">
        <ele>457</ele>
        <time>2026-05-24T06:53:56Z</time>
      </trkpt>
      <trkpt lat="47.13312" lon="6.05412">
        <ele>457.4</ele>
        <time>2026-05-24T06:53:57Z</time>
      </trkpt>
      <trkpt lat="47.13309" lon="6.05416">
        <ele>457.6</ele>
        <time>2026-05-24T06:53:58Z</time>
      </trkpt>
      <trkpt lat="47.13306" lon="6.0542">
        <ele>457.6</ele>
        <time>2026-05-24T06:53:59Z</time>
      </trkpt>
      <trkpt lat="47.13302" lon="6.05424">
        <ele>458</ele>
        <time>2026-05-24T06:54:00Z</time>
      </trkpt>
      <trkpt lat="47.13299" lon="6.05428">
        <ele>458</ele>
        <time>2026-05-24T06:54:01Z</time>
      </trkpt>
      <trkpt lat="47.13296" lon="6.05432">
        <ele>458</ele>
        <time>2026-05-24T06:54:02Z</time>
      </trkpt>
      <trkpt lat="47.13293" lon="6.05436">
        <ele>458.4</ele>
        <time>2026-05-24T06:54:03Z</time>
      </trkpt>
      <trkpt lat="47.13289" lon="6.0544">
        <ele>458.2</ele>
        <time>2026-05-24T06:54:04Z</time>
      </trkpt>
      <trkpt lat="47.13286" lon="6.05444">
        <ele>458.4</ele>
        <time>2026-05-24T06:54:05Z</time>
      </trkpt>
      <trkpt lat="47.13283" lon="6.05448">
        <ele>458.4</ele>
        <time>2026-05-24T06:54:06Z</time>
      </trkpt>
      <trkpt lat="47.13279" lon="6.05453">
        <ele>458.2</ele>
        <time>2026-05-24T06:54:07Z</time>
      </trkpt>
      <trkpt lat="47.13275" lon="6.05458">
        <ele>458.2</ele>
        <time>2026-05-24T06:54:08Z</time>
      </trkpt>
      <trkpt lat="47.1327" lon="6.05463">
        <ele>458.2</ele>
        <time>2026-05-24T06:54:09Z</time>
      </trkpt>
      <trkpt lat="47.13266" lon="6.05469">
        <ele>458.2</ele>
        <time>2026-05-24T06:54:10Z</time>
      </trkpt>
      <trkpt lat="47.13261" lon="6.05475">
        <ele>458</ele>
        <time>2026-05-24T06:54:11Z</time>
      </trkpt>
      <trkpt lat="47.13255" lon="6.05481">
        <ele>458.2</ele>
        <time>2026-05-24T06:54:12Z</time>
      </trkpt>
      <trkpt lat="47.1325" lon="6.05488">
        <ele>458.2</ele>
        <time>2026-05-24T06:54:13Z</time>
      </trkpt>
      <trkpt lat="47.13244" lon="6.05495">
        <ele>457.8</ele>
        <time>2026-05-24T06:54:14Z</time>
      </trkpt>
      <trkpt lat="47.13238" lon="6.05503">
        <ele>457.4</ele>
        <time>2026-05-24T06:54:15Z</time>
      </trkpt>
      <trkpt lat="47.13231" lon="6.0551">
        <ele>457.4</ele>
        <time>2026-05-24T06:54:16Z</time>
      </trkpt>
      <trkpt lat="47.13225" lon="6.05518">
        <ele>457.4</ele>
        <time>2026-05-24T06:54:17Z</time>
      </trkpt>
      <trkpt lat="47.13219" lon="6.05526">
        <ele>457</ele>
        <time>2026-05-24T06:54:18Z</time>
      </trkpt>
      <trkpt lat="47.13213" lon="6.05534">
        <ele>456.6</ele>
        <time>2026-05-24T06:54:19Z</time>
      </trkpt>
      <trkpt lat="47.13207" lon="6.05541">
        <ele>456.2</ele>
        <time>2026-05-24T06:54:20Z</time>
      </trkpt>
      <trkpt lat="47.13201" lon="6.05548">
        <ele>455.8</ele>
        <time>2026-05-24T06:54:21Z</time>
      </trkpt>
      <trkpt lat="47.13195" lon="6.05555">
        <ele>455.6</ele>
        <time>2026-05-24T06:54:22Z</time>
      </trkpt>
      <trkpt lat="47.13189" lon="6.05562">
        <ele>455</ele>
        <time>2026-05-24T06:54:23Z</time>
      </trkpt>
      <trkpt lat="47.13184" lon="6.05569">
        <ele>454.6</ele>
        <time>2026-05-24T06:54:24Z</time>
      </trkpt>
      <trkpt lat="47.13179" lon="6.05576">
        <ele>454.2</ele>
        <time>2026-05-24T06:54:25Z</time>
      </trkpt>
      <trkpt lat="47.13174" lon="6.05582">
        <ele>454</ele>
        <time>2026-05-24T06:54:26Z</time>
      </trkpt>
      <trkpt lat="47.13169" lon="6.05589">
        <ele>453.6</ele>
        <time>2026-05-24T06:54:27Z</time>
      </trkpt>
      <trkpt lat="47.13166" lon="6.05595">
        <ele>453</ele>
        <time>2026-05-24T06:54:28Z</time>
      </trkpt>
      <trkpt lat="47.13162" lon="6.05602">
        <ele>453</ele>
        <time>2026-05-24T06:54:29Z</time>
      </trkpt>
      <trkpt lat="47.1316" lon="6.05609">
        <ele>452.8</ele>
        <time>2026-05-24T06:54:30Z</time>
      </trkpt>
      <trkpt lat="47.13158" lon="6.05617">
        <ele>452.8</ele>
        <time>2026-05-24T06:54:31Z</time>
      </trkpt>
      <trkpt lat="47.13156" lon="6.05624">
        <ele>452.6</ele>
        <time>2026-05-24T06:54:32Z</time>
      </trkpt>
      <trkpt lat="47.13156" lon="6.05632">
        <ele>452.6</ele>
        <time>2026-05-24T06:54:33Z</time>
      </trkpt>
      <trkpt lat="47.13155" lon="6.0564">
        <ele>452.6</ele>
        <time>2026-05-24T06:54:34Z</time>
      </trkpt>
      <trkpt lat="47.13155" lon="6.05647">
        <ele>452.8</ele>
        <time>2026-05-24T06:54:35Z</time>
      </trkpt>
      <trkpt lat="47.13155" lon="6.05655">
        <ele>452.6</ele>
        <time>2026-05-24T06:54:36Z</time>
      </trkpt>
      <trkpt lat="47.13156" lon="6.05662">
        <ele>452.6</ele>
        <time>2026-05-24T06:54:37Z</time>
      </trkpt>
      <trkpt lat="47.13157" lon="6.05669">
        <ele>452.6</ele>
        <time>2026-05-24T06:54:38Z</time>
      </trkpt>
      <trkpt lat="47.13158" lon="6.05676">
        <ele>452.6</ele>
        <time>2026-05-24T06:54:39Z</time>
      </trkpt>
      <trkpt lat="47.13159" lon="6.05682">
        <ele>452.8</ele>
        <time>2026-05-24T06:54:40Z</time>
      </trkpt>
      <trkpt lat="47.1316" lon="6.05689">
        <ele>452.8</ele>
        <time>2026-05-24T06:54:41Z</time>
      </trkpt>
      <trkpt lat="47.13161" lon="6.05696">
        <ele>452.8</ele>
        <time>2026-05-24T06:54:42Z</time>
      </trkpt>
      <trkpt lat="47.13162" lon="6.05703">
        <ele>453</ele>
        <time>2026-05-24T06:54:43Z</time>
      </trkpt>
      <trkpt lat="47.13163" lon="6.0571">
        <ele>453</ele>
        <time>2026-05-24T06:54:44Z</time>
      </trkpt>
      <trkpt lat="47.13165" lon="6.05717">
        <ele>452.8</ele>
        <time>2026-05-24T06:54:45Z</time>
      </trkpt>
      <trkpt lat="47.13166" lon="6.05723">
        <ele>453</ele>
        <time>2026-05-24T06:54:46Z</time>
      </trkpt>
      <trkpt lat="47.13167" lon="6.0573">
        <ele>453.2</ele>
        <time>2026-05-24T06:54:47Z</time>
      </trkpt>
      <trkpt lat="47.13169" lon="6.05735">
        <ele>453.2</ele>
        <time>2026-05-24T06:54:48Z</time>
      </trkpt>
      <trkpt lat="47.1317" lon="6.05741">
        <ele>453</ele>
        <time>2026-05-24T06:54:49Z</time>
      </trkpt>
      <trkpt lat="47.13171" lon="6.05748">
        <ele>453.2</ele>
        <time>2026-05-24T06:54:50Z</time>
      </trkpt>
      <trkpt lat="47.13172" lon="6.05754">
        <ele>453.2</ele>
        <time>2026-05-24T06:54:51Z</time>
      </trkpt>
      <trkpt lat="47.13173" lon="6.05761">
        <ele>453.2</ele>
        <time>2026-05-24T06:54:52Z</time>
      </trkpt>
      <trkpt lat="47.13173" lon="6.05767">
        <ele>453.4</ele>
        <time>2026-05-24T06:54:53Z</time>
      </trkpt>
      <trkpt lat="47.13174" lon="6.05773">
        <ele>453.2</ele>
        <time>2026-05-24T06:54:54Z</time>
      </trkpt>
      <trkpt lat="47.13175" lon="6.05779">
        <ele>453.2</ele>
        <time>2026-05-24T06:54:55Z</time>
      </trkpt>
      <trkpt lat="47.13175" lon="6.05786">
        <ele>453.4</ele>
        <time>2026-05-24T06:54:56Z</time>
      </trkpt>
      <trkpt lat="47.13176" lon="6.05791">
        <ele>453.4</ele>
        <time>2026-05-24T06:54:57Z</time>
      </trkpt>
      <trkpt lat="47.13177" lon="6.05797">
        <ele>453.6</ele>
        <time>2026-05-24T06:54:58Z</time>
      </trkpt>
      <trkpt lat="47.13178" lon="6.05802">
        <ele>453.8</ele>
        <time>2026-05-24T06:54:59Z</time>
      </trkpt>
      <trkpt lat="47.13179" lon="6.05807">
        <ele>453.8</ele>
        <time>2026-05-24T06:55:00Z</time>
      </trkpt>
      <trkpt lat="47.1318" lon="6.05813">
        <ele>454</ele>
        <time>2026-05-24T06:55:01Z</time>
      </trkpt>
      <trkpt lat="47.13181" lon="6.05818">
        <ele>454</ele>
        <time>2026-05-24T06:55:02Z</time>
      </trkpt>
      <trkpt lat="47.13182" lon="6.05824">
        <ele>454.2</ele>
        <time>2026-05-24T06:55:03Z</time>
      </trkpt>
      <trkpt lat="47.13183" lon="6.05829">
        <ele>454.2</ele>
        <time>2026-05-24T06:55:04Z</time>
      </trkpt>
      <trkpt lat="47.13184" lon="6.05835">
        <ele>454.4</ele>
        <time>2026-05-24T06:55:05Z</time>
      </trkpt>
      <trkpt lat="47.13185" lon="6.05841">
        <ele>454.4</ele>
        <time>2026-05-24T06:55:06Z</time>
      </trkpt>
      <trkpt lat="47.13186" lon="6.05846">
        <ele>454.6</ele>
        <time>2026-05-24T06:55:07Z</time>
      </trkpt>
      <trkpt lat="47.13186" lon="6.05853">
        <ele>454.6</ele>
        <time>2026-05-24T06:55:08Z</time>
      </trkpt>
      <trkpt lat="47.13187" lon="6.05858">
        <ele>454.6</ele>
        <time>2026-05-24T06:55:09Z</time>
      </trkpt>
      <trkpt lat="47.13188" lon="6.05864">
        <ele>454.6</ele>
        <time>2026-05-24T06:55:10Z</time>
      </trkpt>
      <trkpt lat="47.13189" lon="6.0587">
        <ele>455</ele>
        <time>2026-05-24T06:55:11Z</time>
      </trkpt>
      <trkpt lat="47.1319" lon="6.05875">
        <ele>455.2</ele>
        <time>2026-05-24T06:55:12Z</time>
      </trkpt>
      <trkpt lat="47.13191" lon="6.05881">
        <ele>455.2</ele>
        <time>2026-05-24T06:55:13Z</time>
      </trkpt>
      <trkpt lat="47.13192" lon="6.05887">
        <ele>455.4</ele>
        <time>2026-05-24T06:55:14Z</time>
      </trkpt>
      <trkpt lat="47.13193" lon="6.05892">
        <ele>455.6</ele>
        <time>2026-05-24T06:55:15Z</time>
      </trkpt>
      <trkpt lat="47.13193" lon="6.05898">
        <ele>455.8</ele>
        <time>2026-05-24T06:55:16Z</time>
      </trkpt>
      <trkpt lat="47.13194" lon="6.05903">
        <ele>455.8</ele>
        <time>2026-05-24T06:55:17Z</time>
      </trkpt>
      <trkpt lat="47.13195" lon="6.05908">
        <ele>455.8</ele>
        <time>2026-05-24T06:55:18Z</time>
      </trkpt>
      <trkpt lat="47.13196" lon="6.05913">
        <ele>456</ele>
        <time>2026-05-24T06:55:19Z</time>
      </trkpt>
      <trkpt lat="47.13197" lon="6.05918">
        <ele>456.2</ele>
        <time>2026-05-24T06:55:20Z</time>
      </trkpt>
      <trkpt lat="47.13197" lon="6.05923">
        <ele>456.4</ele>
        <time>2026-05-24T06:55:21Z</time>
      </trkpt>
      <trkpt lat="47.13198" lon="6.05927">
        <ele>456.4</ele>
        <time>2026-05-24T06:55:22Z</time>
      </trkpt>
      <trkpt lat="47.13199" lon="6.05931">
        <ele>456.6</ele>
        <time>2026-05-24T06:55:23Z</time>
      </trkpt>
      <trkpt lat="47.132" lon="6.05936">
        <ele>456.6</ele>
        <time>2026-05-24T06:55:24Z</time>
      </trkpt>
      <trkpt lat="47.13202" lon="6.0594">
        <ele>456.8</ele>
        <time>2026-05-24T06:55:25Z</time>
      </trkpt>
      <trkpt lat="47.13203" lon="6.05944">
        <ele>456.8</ele>
        <time>2026-05-24T06:55:26Z</time>
      </trkpt>
      <trkpt lat="47.13205" lon="6.05948">
        <ele>457.2</ele>
        <time>2026-05-24T06:55:27Z</time>
      </trkpt>
      <trkpt lat="47.13206" lon="6.05952">
        <ele>457.2</ele>
        <time>2026-05-24T06:55:28Z</time>
      </trkpt>
      <trkpt lat="47.13208" lon="6.05955">
        <ele>457.4</ele>
        <time>2026-05-24T06:55:29Z</time>
      </trkpt>
      <trkpt lat="47.13209" lon="6.05958">
        <ele>457.6</ele>
        <time>2026-05-24T06:55:30Z</time>
      </trkpt>
      <trkpt lat="47.13211" lon="6.05962">
        <ele>457.8</ele>
        <time>2026-05-24T06:55:31Z</time>
      </trkpt>
      <trkpt lat="47.13212" lon="6.05966">
        <ele>457.8</ele>
        <time>2026-05-24T06:55:32Z</time>
      </trkpt>
      <trkpt lat="47.13215" lon="6.05969">
        <ele>458</ele>
        <time>2026-05-24T06:55:33Z</time>
      </trkpt>
      <trkpt lat="47.13217" lon="6.05973">
        <ele>458.2</ele>
        <time>2026-05-24T06:55:34Z</time>
      </trkpt>
      <trkpt lat="47.13219" lon="6.05975">
        <ele>458.2</ele>
        <time>2026-05-24T06:55:35Z</time>
      </trkpt>
      <trkpt lat="47.13222" lon="6.05977">
        <ele>458.4</ele>
        <time>2026-05-24T06:55:36Z</time>
      </trkpt>
      <trkpt lat="47.13224" lon="6.0598">
        <ele>458.6</ele>
        <time>2026-05-24T06:55:37Z</time>
      </trkpt>
      <trkpt lat="47.13225" lon="6.05984">
        <ele>458.8</ele>
        <time>2026-05-24T06:55:38Z</time>
      </trkpt>
      <trkpt lat="47.13227" lon="6.05988">
        <ele>458.8</ele>
        <time>2026-05-24T06:55:39Z</time>
      </trkpt>
      <trkpt lat="47.13229" lon="6.05993">
        <ele>459</ele>
        <time>2026-05-24T06:55:40Z</time>
      </trkpt>
      <trkpt lat="47.1323" lon="6.05998">
        <ele>459</ele>
        <time>2026-05-24T06:55:41Z</time>
      </trkpt>
      <trkpt lat="47.13232" lon="6.06003">
        <ele>459.2</ele>
        <time>2026-05-24T06:55:42Z</time>
      </trkpt>
      <trkpt lat="47.13233" lon="6.06008">
        <ele>459.6</ele>
        <time>2026-05-24T06:55:43Z</time>
      </trkpt>
      <trkpt lat="47.13235" lon="6.06014">
        <ele>459.6</ele>
        <time>2026-05-24T06:55:44Z</time>
      </trkpt>
      <trkpt lat="47.13236" lon="6.06019">
        <ele>459.6</ele>
        <time>2026-05-24T06:55:45Z</time>
      </trkpt>
      <trkpt lat="47.13238" lon="6.06024">
        <ele>459.8</ele>
        <time>2026-05-24T06:55:46Z</time>
      </trkpt>
      <trkpt lat="47.13239" lon="6.0603">
        <ele>459.8</ele>
        <time>2026-05-24T06:55:47Z</time>
      </trkpt>
      <trkpt lat="47.1324" lon="6.06036">
        <ele>460</ele>
        <time>2026-05-24T06:55:48Z</time>
      </trkpt>
      <trkpt lat="47.13241" lon="6.06041">
        <ele>460</ele>
        <time>2026-05-24T06:55:49Z</time>
      </trkpt>
      <trkpt lat="47.13242" lon="6.06048">
        <ele>460.2</ele>
        <time>2026-05-24T06:55:50Z</time>
      </trkpt>
      <trkpt lat="47.13243" lon="6.06053">
        <ele>460.2</ele>
        <time>2026-05-24T06:55:51Z</time>
      </trkpt>
      <trkpt lat="47.13245" lon="6.06059">
        <ele>460.2</ele>
        <time>2026-05-24T06:55:52Z</time>
      </trkpt>
      <trkpt lat="47.13246" lon="6.06064">
        <ele>460.2</ele>
        <time>2026-05-24T06:55:53Z</time>
      </trkpt>
      <trkpt lat="47.13247" lon="6.06068">
        <ele>460.2</ele>
        <time>2026-05-24T06:55:54Z</time>
      </trkpt>
      <trkpt lat="47.13247" lon="6.06073">
        <ele>460.2</ele>
        <time>2026-05-24T06:55:55Z</time>
      </trkpt>
      <trkpt lat="47.13249" lon="6.06078">
        <ele>460.2</ele>
        <time>2026-05-24T06:55:56Z</time>
      </trkpt>
      <trkpt lat="47.1325" lon="6.06083">
        <ele>460.2</ele>
        <time>2026-05-24T06:55:57Z</time>
      </trkpt>
      <trkpt lat="47.13252" lon="6.06088">
        <ele>460.4</ele>
        <time>2026-05-24T06:55:58Z</time>
      </trkpt>
      <trkpt lat="47.13254" lon="6.06093">
        <ele>460.2</ele>
        <time>2026-05-24T06:55:59Z</time>
      </trkpt>
      <trkpt lat="47.13257" lon="6.06098">
        <ele>460.4</ele>
        <time>2026-05-24T06:56:00Z</time>
      </trkpt>
      <trkpt lat="47.1326" lon="6.06105">
        <ele>460.4</ele>
        <time>2026-05-24T06:56:01Z</time>
      </trkpt>
      <trkpt lat="47.13263" lon="6.06112">
        <ele>460.2</ele>
        <time>2026-05-24T06:56:02Z</time>
      </trkpt>
      <trkpt lat="47.13265" lon="6.06118">
        <ele>460.2</ele>
        <time>2026-05-24T06:56:03Z</time>
      </trkpt>
      <trkpt lat="47.13269" lon="6.06125">
        <ele>460.2</ele>
        <time>2026-05-24T06:56:04Z</time>
      </trkpt>
      <trkpt lat="47.13272" lon="6.06132">
        <ele>460</ele>
        <time>2026-05-24T06:56:05Z</time>
      </trkpt>
      <trkpt lat="47.13275" lon="6.06138">
        <ele>460</ele>
        <time>2026-05-24T06:56:06Z</time>
      </trkpt>
      <trkpt lat="47.13278" lon="6.06144">
        <ele>459.8</ele>
        <time>2026-05-24T06:56:07Z</time>
      </trkpt>
      <trkpt lat="47.13282" lon="6.0615">
        <ele>459.6</ele>
        <time>2026-05-24T06:56:08Z</time>
      </trkpt>
      <trkpt lat="47.13286" lon="6.06156">
        <ele>459.2</ele>
        <time>2026-05-24T06:56:09Z</time>
      </trkpt>
      <trkpt lat="47.13289" lon="6.06161">
        <ele>459.4</ele>
        <time>2026-05-24T06:56:10Z</time>
      </trkpt>
      <trkpt lat="47.13293" lon="6.06166">
        <ele>459.2</ele>
        <time>2026-05-24T06:56:11Z</time>
      </trkpt>
      <trkpt lat="47.13297" lon="6.0617">
        <ele>459</ele>
        <time>2026-05-24T06:56:12Z</time>
      </trkpt>
      <trkpt lat="47.133" lon="6.06174">
        <ele>459.2</ele>
        <time>2026-05-24T06:56:13Z</time>
      </trkpt>
      <trkpt lat="47.13304" lon="6.06178">
        <ele>459.2</ele>
        <time>2026-05-24T06:56:14Z</time>
      </trkpt>
      <trkpt lat="47.13308" lon="6.06181">
        <ele>459.2</ele>
        <time>2026-05-24T06:56:15Z</time>
      </trkpt>
      <trkpt lat="47.13312" lon="6.06185">
        <ele>459.2</ele>
        <time>2026-05-24T06:56:16Z</time>
      </trkpt>
      <trkpt lat="47.13316" lon="6.06188">
        <ele>459.2</ele>
        <time>2026-05-24T06:56:17Z</time>
      </trkpt>
      <trkpt lat="47.1332" lon="6.06192">
        <ele>459.2</ele>
        <time>2026-05-24T06:56:18Z</time>
      </trkpt>
      <trkpt lat="47.13324" lon="6.06195">
        <ele>458.8</ele>
        <time>2026-05-24T06:56:19Z</time>
      </trkpt>
      <trkpt lat="47.13328" lon="6.06198">
        <ele>459</ele>
        <time>2026-05-24T06:56:20Z</time>
      </trkpt>
      <trkpt lat="47.13332" lon="6.06202">
        <ele>459</ele>
        <time>2026-05-24T06:56:21Z</time>
      </trkpt>
      <trkpt lat="47.13336" lon="6.06206">
        <ele>459</ele>
        <time>2026-05-24T06:56:22Z</time>
      </trkpt>
      <trkpt lat="47.13341" lon="6.06209">
        <ele>459</ele>
        <time>2026-05-24T06:56:23Z</time>
      </trkpt>
      <trkpt lat="47.13346" lon="6.06211">
        <ele>458.8</ele>
        <time>2026-05-24T06:56:24Z</time>
      </trkpt>
      <trkpt lat="47.13351" lon="6.06214">
        <ele>459</ele>
        <time>2026-05-24T06:56:25Z</time>
      </trkpt>
      <trkpt lat="47.13356" lon="6.06217">
        <ele>459</ele>
        <time>2026-05-24T06:56:26Z</time>
      </trkpt>
      <trkpt lat="47.13361" lon="6.06219">
        <ele>458.8</ele>
        <time>2026-05-24T06:56:27Z</time>
      </trkpt>
      <trkpt lat="47.13366" lon="6.06223">
        <ele>458.8</ele>
        <time>2026-05-24T06:56:28Z</time>
      </trkpt>
      <trkpt lat="47.13371" lon="6.06226">
        <ele>458.8</ele>
        <time>2026-05-24T06:56:29Z</time>
      </trkpt>
      <trkpt lat="47.13376" lon="6.06229">
        <ele>458.6</ele>
        <time>2026-05-24T06:56:30Z</time>
      </trkpt>
      <trkpt lat="47.13381" lon="6.06233">
        <ele>458.6</ele>
        <time>2026-05-24T06:56:31Z</time>
      </trkpt>
      <trkpt lat="47.13385" lon="6.06237">
        <ele>458.6</ele>
        <time>2026-05-24T06:56:32Z</time>
      </trkpt>
      <trkpt lat="47.13389" lon="6.06241">
        <ele>458.4</ele>
        <time>2026-05-24T06:56:33Z</time>
      </trkpt>
      <trkpt lat="47.13392" lon="6.06246">
        <ele>458.4</ele>
        <time>2026-05-24T06:56:34Z</time>
      </trkpt>
      <trkpt lat="47.13395" lon="6.0625">
        <ele>458.2</ele>
        <time>2026-05-24T06:56:35Z</time>
      </trkpt>
      <trkpt lat="47.13398" lon="6.06255">
        <ele>458.2</ele>
        <time>2026-05-24T06:56:36Z</time>
      </trkpt>
      <trkpt lat="47.134" lon="6.06259">
        <ele>458.2</ele>
        <time>2026-05-24T06:56:37Z</time>
      </trkpt>
      <trkpt lat="47.13403" lon="6.06264">
        <ele>458.2</ele>
        <time>2026-05-24T06:56:38Z</time>
      </trkpt>
      <trkpt lat="47.13404" lon="6.06269">
        <ele>458</ele>
        <time>2026-05-24T06:56:39Z</time>
      </trkpt>
      <trkpt lat="47.13404" lon="6.06274">
        <ele>457.8</ele>
        <time>2026-05-24T06:56:40Z</time>
      </trkpt>
      <trkpt lat="47.13405" lon="6.06279">
        <ele>457.6</ele>
        <time>2026-05-24T06:56:41Z</time>
      </trkpt>
      <trkpt lat="47.13406" lon="6.06284">
        <ele>457.6</ele>
        <time>2026-05-24T06:56:42Z</time>
      </trkpt>
      <trkpt lat="47.13406" lon="6.06289">
        <ele>457.6</ele>
        <time>2026-05-24T06:56:43Z</time>
      </trkpt>
      <trkpt lat="47.13406" lon="6.06294">
        <ele>457.4</ele>
        <time>2026-05-24T06:56:44Z</time>
      </trkpt>
      <trkpt lat="47.13405" lon="6.06301">
        <ele>457.4</ele>
        <time>2026-05-24T06:56:45Z</time>
      </trkpt>
      <trkpt lat="47.13404" lon="6.06307">
        <ele>457.4</ele>
        <time>2026-05-24T06:56:46Z</time>
      </trkpt>
      <trkpt lat="47.13402" lon="6.06313">
        <ele>457.4</ele>
        <time>2026-05-24T06:56:47Z</time>
      </trkpt>
      <trkpt lat="47.13401" lon="6.06318">
        <ele>457.4</ele>
        <time>2026-05-24T06:56:48Z</time>
      </trkpt>
      <trkpt lat="47.13399" lon="6.06324">
        <ele>457.4</ele>
        <time>2026-05-24T06:56:49Z</time>
      </trkpt>
      <trkpt lat="47.13398" lon="6.0633">
        <ele>457.4</ele>
        <time>2026-05-24T06:56:50Z</time>
      </trkpt>
      <trkpt lat="47.13397" lon="6.06335">
        <ele>457.4</ele>
        <time>2026-05-24T06:56:51Z</time>
      </trkpt>
      <trkpt lat="47.13396" lon="6.06341">
        <ele>457.4</ele>
        <time>2026-05-24T06:56:52Z</time>
      </trkpt>
      <trkpt lat="47.13395" lon="6.06346">
        <ele>457.4</ele>
        <time>2026-05-24T06:56:53Z</time>
      </trkpt>
      <trkpt lat="47.13395" lon="6.06352">
        <ele>457.6</ele>
        <time>2026-05-24T06:56:54Z</time>
      </trkpt>
      <trkpt lat="47.13394" lon="6.06357">
        <ele>457.6</ele>
        <time>2026-05-24T06:56:55Z</time>
      </trkpt>
      <trkpt lat="47.13394" lon="6.06362">
        <ele>457.8</ele>
        <time>2026-05-24T06:56:56Z</time>
      </trkpt>
      <trkpt lat="47.13393" lon="6.06368">
        <ele>458.2</ele>
        <time>2026-05-24T06:56:57Z</time>
      </trkpt>
      <trkpt lat="47.13392" lon="6.06374">
        <ele>458.2</ele>
        <time>2026-05-24T06:56:58Z</time>
      </trkpt>
      <trkpt lat="47.13392" lon="6.0638">
        <ele>458.4</ele>
        <time>2026-05-24T06:56:59Z</time>
      </trkpt>
      <trkpt lat="47.13391" lon="6.06385">
        <ele>458.4</ele>
        <time>2026-05-24T06:57:00Z</time>
      </trkpt>
      <trkpt lat="47.13391" lon="6.0639">
        <ele>458.8</ele>
        <time>2026-05-24T06:57:01Z</time>
      </trkpt>
      <trkpt lat="47.13391" lon="6.06394">
        <ele>459</ele>
        <time>2026-05-24T06:57:02Z</time>
      </trkpt>
      <trkpt lat="47.1339" lon="6.06399">
        <ele>459.2</ele>
        <time>2026-05-24T06:57:03Z</time>
      </trkpt>
      <trkpt lat="47.1339" lon="6.06403">
        <ele>459.4</ele>
        <time>2026-05-24T06:57:04Z</time>
      </trkpt>
      <trkpt lat="47.1339" lon="6.06409">
        <ele>459.6</ele>
        <time>2026-05-24T06:57:05Z</time>
      </trkpt>
      <trkpt lat="47.1339" lon="6.06414">
        <ele>459.6</ele>
        <time>2026-05-24T06:57:06Z</time>
      </trkpt>
      <trkpt lat="47.1339" lon="6.0642">
        <ele>459.6</ele>
        <time>2026-05-24T06:57:07Z</time>
      </trkpt>
      <trkpt lat="47.13391" lon="6.06425">
        <ele>459.8</ele>
        <time>2026-05-24T06:57:08Z</time>
      </trkpt>
      <trkpt lat="47.13391" lon="6.0643">
        <ele>459.8</ele>
        <time>2026-05-24T06:57:09Z</time>
      </trkpt>
      <trkpt lat="47.13392" lon="6.06435">
        <ele>459.8</ele>
        <time>2026-05-24T06:57:10Z</time>
      </trkpt>
      <trkpt lat="47.13393" lon="6.06441">
        <ele>459.8</ele>
        <time>2026-05-24T06:57:11Z</time>
      </trkpt>
      <trkpt lat="47.13393" lon="6.06446">
        <ele>459.8</ele>
        <time>2026-05-24T06:57:12Z</time>
      </trkpt>
      <trkpt lat="47.13393" lon="6.06452">
        <ele>460</ele>
        <time>2026-05-24T06:57:13Z</time>
      </trkpt>
      <trkpt lat="47.13393" lon="6.06457">
        <ele>460.2</ele>
        <time>2026-05-24T06:57:14Z</time>
      </trkpt>
      <trkpt lat="47.13394" lon="6.06463">
        <ele>460.2</ele>
        <time>2026-05-24T06:57:15Z</time>
      </trkpt>
      <trkpt lat="47.13394" lon="6.06469">
        <ele>460.2</ele>
        <time>2026-05-24T06:57:16Z</time>
      </trkpt>
      <trkpt lat="47.13395" lon="6.06476">
        <ele>460.4</ele>
        <time>2026-05-24T06:57:17Z</time>
      </trkpt>
      <trkpt lat="47.13395" lon="6.06482">
        <ele>460.6</ele>
        <time>2026-05-24T06:57:18Z</time>
      </trkpt>
      <trkpt lat="47.13396" lon="6.06489">
        <ele>460.6</ele>
        <time>2026-05-24T06:57:19Z</time>
      </trkpt>
      <trkpt lat="47.13398" lon="6.06496">
        <ele>460.6</ele>
        <time>2026-05-24T06:57:20Z</time>
      </trkpt>
      <trkpt lat="47.134" lon="6.06501">
        <ele>460.8</ele>
        <time>2026-05-24T06:57:21Z</time>
      </trkpt>
      <trkpt lat="47.13402" lon="6.06506">
        <ele>460.8</ele>
        <time>2026-05-24T06:57:22Z</time>
      </trkpt>
      <trkpt lat="47.13404" lon="6.06512">
        <ele>461</ele>
        <time>2026-05-24T06:57:23Z</time>
      </trkpt>
      <trkpt lat="47.13406" lon="6.06517">
        <ele>461</ele>
        <time>2026-05-24T06:57:24Z</time>
      </trkpt>
      <trkpt lat="47.13408" lon="6.06522">
        <ele>461</ele>
        <time>2026-05-24T06:57:25Z</time>
      </trkpt>
      <trkpt lat="47.1341" lon="6.06527">
        <ele>461</ele>
        <time>2026-05-24T06:57:26Z</time>
      </trkpt>
      <trkpt lat="47.13412" lon="6.06532">
        <ele>461</ele>
        <time>2026-05-24T06:57:27Z</time>
      </trkpt>
      <trkpt lat="47.13413" lon="6.06536">
        <ele>461</ele>
        <time>2026-05-24T06:57:28Z</time>
      </trkpt>
      <trkpt lat="47.13415" lon="6.06541">
        <ele>461</ele>
        <time>2026-05-24T06:57:29Z</time>
      </trkpt>
      <trkpt lat="47.13417" lon="6.06546">
        <ele>461</ele>
        <time>2026-05-24T06:57:30Z</time>
      </trkpt>
      <trkpt lat="47.13418" lon="6.06551">
        <ele>461.2</ele>
        <time>2026-05-24T06:57:31Z</time>
      </trkpt>
      <trkpt lat="47.13418" lon="6.06555">
        <ele>461.4</ele>
        <time>2026-05-24T06:57:32Z</time>
      </trkpt>
      <trkpt lat="47.1342" lon="6.06559">
        <ele>461.4</ele>
        <time>2026-05-24T06:57:33Z</time>
      </trkpt>
      <trkpt lat="47.13421" lon="6.06563">
        <ele>461.4</ele>
        <time>2026-05-24T06:57:34Z</time>
      </trkpt>
      <trkpt lat="47.13423" lon="6.06568">
        <ele>461.6</ele>
        <time>2026-05-24T06:57:35Z</time>
      </trkpt>
      <trkpt lat="47.13424" lon="6.06574">
        <ele>462</ele>
        <time>2026-05-24T06:57:36Z</time>
      </trkpt>
      <trkpt lat="47.13425" lon="6.06579">
        <ele>462.2</ele>
        <time>2026-05-24T06:57:37Z</time>
      </trkpt>
      <trkpt lat="47.13427" lon="6.06584">
        <ele>462.2</ele>
        <time>2026-05-24T06:57:38Z</time>
      </trkpt>
      <trkpt lat="47.13429" lon="6.06588">
        <ele>462</ele>
        <time>2026-05-24T06:57:39Z</time>
      </trkpt>
      <trkpt lat="47.13433" lon="6.06591">
        <ele>462.2</ele>
        <time>2026-05-24T06:57:40Z</time>
      </trkpt>
      <trkpt lat="47.13435" lon="6.06595">
        <ele>462.2</ele>
        <time>2026-05-24T06:57:41Z</time>
      </trkpt>
      <trkpt lat="47.13438" lon="6.06599">
        <ele>462.4</ele>
        <time>2026-05-24T06:57:42Z</time>
      </trkpt>
      <trkpt lat="47.13441" lon="6.06602">
        <ele>462.2</ele>
        <time>2026-05-24T06:57:43Z</time>
      </trkpt>
      <trkpt lat="47.13444" lon="6.06607">
        <ele>462.2</ele>
        <time>2026-05-24T06:57:44Z</time>
      </trkpt>
      <trkpt lat="47.13447" lon="6.06611">
        <ele>462.2</ele>
        <time>2026-05-24T06:57:45Z</time>
      </trkpt>
      <trkpt lat="47.1345" lon="6.06616">
        <ele>462.2</ele>
        <time>2026-05-24T06:57:46Z</time>
      </trkpt>
      <trkpt lat="47.13454" lon="6.06621">
        <ele>462.2</ele>
        <time>2026-05-24T06:57:47Z</time>
      </trkpt>
      <trkpt lat="47.13458" lon="6.06628">
        <ele>462.2</ele>
        <time>2026-05-24T06:57:48Z</time>
      </trkpt>
      <trkpt lat="47.13461" lon="6.06634">
        <ele>462.2</ele>
        <time>2026-05-24T06:57:49Z</time>
      </trkpt>
      <trkpt lat="47.13464" lon="6.06639">
        <ele>462.2</ele>
        <time>2026-05-24T06:57:50Z</time>
      </trkpt>
      <trkpt lat="47.13467" lon="6.06645">
        <ele>462</ele>
        <time>2026-05-24T06:57:51Z</time>
      </trkpt>
      <trkpt lat="47.13469" lon="6.0665">
        <ele>461.8</ele>
        <time>2026-05-24T06:57:52Z</time>
      </trkpt>
      <trkpt lat="47.13472" lon="6.06655">
        <ele>461.6</ele>
        <time>2026-05-24T06:57:53Z</time>
      </trkpt>
      <trkpt lat="47.13475" lon="6.0666">
        <ele>461.6</ele>
        <time>2026-05-24T06:57:54Z</time>
      </trkpt>
      <trkpt lat="47.13478" lon="6.06666">
        <ele>461.4</ele>
        <time>2026-05-24T06:57:55Z</time>
      </trkpt>
      <trkpt lat="47.13481" lon="6.06672">
        <ele>461.4</ele>
        <time>2026-05-24T06:57:56Z</time>
      </trkpt>
      <trkpt lat="47.13483" lon="6.0668">
        <ele>461.2</ele>
        <time>2026-05-24T06:57:57Z</time>
      </trkpt>
      <trkpt lat="47.13485" lon="6.06687">
        <ele>461.2</ele>
        <time>2026-05-24T06:57:58Z</time>
      </trkpt>
      <trkpt lat="47.13487" lon="6.06695">
        <ele>461.2</ele>
        <time>2026-05-24T06:57:59Z</time>
      </trkpt>
      <trkpt lat="47.13488" lon="6.06702">
        <ele>460.8</ele>
        <time>2026-05-24T06:58:00Z</time>
      </trkpt>
      <trkpt lat="47.1349" lon="6.06711">
        <ele>460.6</ele>
        <time>2026-05-24T06:58:01Z</time>
      </trkpt>
      <trkpt lat="47.13491" lon="6.06719">
        <ele>460.2</ele>
        <time>2026-05-24T06:58:02Z</time>
      </trkpt>
      <trkpt lat="47.13491" lon="6.06726">
        <ele>459.6</ele>
        <time>2026-05-24T06:58:03Z</time>
      </trkpt>
      <trkpt lat="47.1349" lon="6.06734">
        <ele>459.4</ele>
        <time>2026-05-24T06:58:04Z</time>
      </trkpt>
      <trkpt lat="47.13489" lon="6.06742">
        <ele>459.2</ele>
        <time>2026-05-24T06:58:05Z</time>
      </trkpt>
      <trkpt lat="47.13488" lon="6.06749">
        <ele>459</ele>
        <time>2026-05-24T06:58:06Z</time>
      </trkpt>
      <trkpt lat="47.13486" lon="6.06757">
        <ele>458.8</ele>
        <time>2026-05-24T06:58:07Z</time>
      </trkpt>
      <trkpt lat="47.13484" lon="6.06764">
        <ele>458.6</ele>
        <time>2026-05-24T06:58:08Z</time>
      </trkpt>
      <trkpt lat="47.13482" lon="6.06771">
        <ele>458.4</ele>
        <time>2026-05-24T06:58:09Z</time>
      </trkpt>
      <trkpt lat="47.13479" lon="6.06778">
        <ele>458.4</ele>
        <time>2026-05-24T06:58:10Z</time>
      </trkpt>
      <trkpt lat="47.13476" lon="6.06784">
        <ele>458.2</ele>
        <time>2026-05-24T06:58:11Z</time>
      </trkpt>
      <trkpt lat="47.13474" lon="6.0679">
        <ele>458.2</ele>
        <time>2026-05-24T06:58:12Z</time>
      </trkpt>
      <trkpt lat="47.13472" lon="6.06795">
        <ele>458.4</ele>
        <time>2026-05-24T06:58:13Z</time>
      </trkpt>
      <trkpt lat="47.13471" lon="6.06801">
        <ele>458.2</ele>
        <time>2026-05-24T06:58:14Z</time>
      </trkpt>
      <trkpt lat="47.1347" lon="6.06807">
        <ele>458.2</ele>
        <time>2026-05-24T06:58:15Z</time>
      </trkpt>
      <trkpt lat="47.13469" lon="6.06813">
        <ele>458.4</ele>
        <time>2026-05-24T06:58:16Z</time>
      </trkpt>
      <trkpt lat="47.13469" lon="6.06818">
        <ele>458.4</ele>
        <time>2026-05-24T06:58:17Z</time>
      </trkpt>
      <trkpt lat="47.13469" lon="6.06823">
        <ele>458.4</ele>
        <time>2026-05-24T06:58:18Z</time>
      </trkpt>
      <trkpt lat="47.1347" lon="6.06827">
        <ele>458.4</ele>
        <time>2026-05-24T06:58:19Z</time>
      </trkpt>
      <trkpt lat="47.1347" lon="6.06831">
        <ele>458.4</ele>
        <time>2026-05-24T06:58:20Z</time>
      </trkpt>
      <trkpt lat="47.1347" lon="6.06833">
        <ele>458.6</ele>
        <time>2026-05-24T06:58:21Z</time>
      </trkpt>
      <trkpt lat="47.1347" lon="6.06835">
        <ele>458.8</ele>
        <time>2026-05-24T06:58:22Z</time>
      </trkpt>
      <trkpt lat="47.13469" lon="6.06837">
        <ele>458.8</ele>
        <time>2026-05-24T06:58:23Z</time>
      </trkpt>
      <trkpt lat="47.13469" lon="6.06839">
        <ele>459</ele>
        <time>2026-05-24T06:58:24Z</time>
      </trkpt>
      <trkpt lat="47.13468" lon="6.06842">
        <ele>459</ele>
        <time>2026-05-24T06:58:25Z</time>
      </trkpt>
      <trkpt lat="47.13467" lon="6.06843">
        <ele>459.2</ele>
        <time>2026-05-24T06:58:26Z</time>
      </trkpt>
      <trkpt lat="47.13467" lon="6.06844">
        <ele>459.6</ele>
        <time>2026-05-24T06:58:27Z</time>
      </trkpt>
      <trkpt lat="47.13467" lon="6.06845">
        <ele>459.8</ele>
        <time>2026-05-24T06:58:28Z</time>
      </trkpt>
      <trkpt lat="47.13466" lon="6.06846">
        <ele>460</ele>
        <time>2026-05-24T06:58:29Z</time>
      </trkpt>
      <trkpt lat="47.13466" lon="6.06847">
        <ele>460</ele>
        <time>2026-05-24T06:58:30Z</time>
      </trkpt>
      <trkpt lat="47.13466" lon="6.06849">
        <ele>460.4</ele>
        <time>2026-05-24T06:58:31Z</time>
      </trkpt>
      <trkpt lat="47.13465" lon="6.0685">
        <ele>460.4</ele>
        <time>2026-05-24T06:58:32Z</time>
      </trkpt>
      <trkpt lat="47.13464" lon="6.06852">
        <ele>460.6</ele>
        <time>2026-05-24T06:58:33Z</time>
      </trkpt>
      <trkpt lat="47.13464" lon="6.06853">
        <ele>460.8</ele>
        <time>2026-05-24T06:58:34Z</time>
      </trkpt>
      <trkpt lat="47.13464" lon="6.06855">
        <ele>461.2</ele>
        <time>2026-05-24T06:58:35Z</time>
      </trkpt>
      <trkpt lat="47.13463" lon="6.06857">
        <ele>461.4</ele>
        <time>2026-05-24T06:58:36Z</time>
      </trkpt>
      <trkpt lat="47.13462" lon="6.06859">
        <ele>461.6</ele>
        <time>2026-05-24T06:58:37Z</time>
      </trkpt>
      <trkpt lat="47.13461" lon="6.06861">
        <ele>461.8</ele>
        <time>2026-05-24T06:58:38Z</time>
      </trkpt>
      <trkpt lat="47.1346" lon="6.06863">
        <ele>461.8</ele>
        <time>2026-05-24T06:58:39Z</time>
      </trkpt>
      <trkpt lat="47.13459" lon="6.06866">
        <ele>462</ele>
        <time>2026-05-24T06:58:40Z</time>
      </trkpt>
      <trkpt lat="47.13458" lon="6.06868">
        <ele>462</ele>
        <time>2026-05-24T06:58:41Z</time>
      </trkpt>
      <trkpt lat="47.13457" lon="6.0687">
        <ele>462.2</ele>
        <time>2026-05-24T06:58:42Z</time>
      </trkpt>
      <trkpt lat="47.13456" lon="6.06873">
        <ele>462.4</ele>
        <time>2026-05-24T06:58:43Z</time>
      </trkpt>
      <trkpt lat="47.13455" lon="6.06875">
        <ele>462.6</ele>
        <time>2026-05-24T06:58:44Z</time>
      </trkpt>
      <trkpt lat="47.13454" lon="6.06877">
        <ele>463</ele>
        <time>2026-05-24T06:58:45Z</time>
      </trkpt>
      <trkpt lat="47.13453" lon="6.06879">
        <ele>463.2</ele>
        <time>2026-05-24T06:58:46Z</time>
      </trkpt>
      <trkpt lat="47.13453" lon="6.0688">
        <ele>463.4</ele>
        <time>2026-05-24T06:58:47Z</time>
      </trkpt>
      <trkpt lat="47.13452" lon="6.06882">
        <ele>463.8</ele>
        <time>2026-05-24T06:58:48Z</time>
      </trkpt>
      <trkpt lat="47.13452" lon="6.06884">
        <ele>464</ele>
        <time>2026-05-24T06:58:49Z</time>
      </trkpt>
      <trkpt lat="47.13451" lon="6.06886">
        <ele>464.4</ele>
        <time>2026-05-24T06:58:50Z</time>
      </trkpt>
      <trkpt lat="47.1345" lon="6.06889">
        <ele>464.6</ele>
        <time>2026-05-24T06:58:51Z</time>
      </trkpt>
      <trkpt lat="47.13449" lon="6.06891">
        <ele>464.8</ele>
        <time>2026-05-24T06:58:52Z</time>
      </trkpt>
      <trkpt lat="47.13448" lon="6.06893">
        <ele>465</ele>
        <time>2026-05-24T06:58:53Z</time>
      </trkpt>
      <trkpt lat="47.13447" lon="6.06896">
        <ele>465.2</ele>
        <time>2026-05-24T06:58:54Z</time>
      </trkpt>
      <trkpt lat="47.13446" lon="6.06898">
        <ele>465.2</ele>
        <time>2026-05-24T06:58:55Z</time>
      </trkpt>
      <trkpt lat="47.13446" lon="6.069">
        <ele>465.4</ele>
        <time>2026-05-24T06:58:56Z</time>
      </trkpt>
      <trkpt lat="47.13445" lon="6.06902">
        <ele>465.6</ele>
        <time>2026-05-24T06:58:57Z</time>
      </trkpt>
      <trkpt lat="47.13444" lon="6.06904">
        <ele>466.2</ele>
        <time>2026-05-24T06:58:58Z</time>
      </trkpt>
      <trkpt lat="47.13444" lon="6.06907">
        <ele>466.4</ele>
        <time>2026-05-24T06:58:59Z</time>
      </trkpt>
      <trkpt lat="47.13443" lon="6.06909">
        <ele>466.6</ele>
        <time>2026-05-24T06:59:00Z</time>
      </trkpt>
      <trkpt lat="47.13443" lon="6.06912">
        <ele>466.8</ele>
        <time>2026-05-24T06:59:01Z</time>
      </trkpt>
      <trkpt lat="47.13443" lon="6.06914">
        <ele>467.2</ele>
        <time>2026-05-24T06:59:02Z</time>
      </trkpt>
      <trkpt lat="47.13442" lon="6.06916">
        <ele>467.2</ele>
        <time>2026-05-24T06:59:03Z</time>
      </trkpt>
      <trkpt lat="47.13442" lon="6.06918">
        <ele>467.4</ele>
        <time>2026-05-24T06:59:04Z</time>
      </trkpt>
      <trkpt lat="47.13442" lon="6.06921">
        <ele>467.6</ele>
        <time>2026-05-24T06:59:05Z</time>
      </trkpt>
      <trkpt lat="47.13441" lon="6.06924">
        <ele>468.2</ele>
        <time>2026-05-24T06:59:06Z</time>
      </trkpt>
      <trkpt lat="47.1344" lon="6.06926">
        <ele>468.4</ele>
        <time>2026-05-24T06:59:07Z</time>
      </trkpt>
      <trkpt lat="47.1344" lon="6.06929">
        <ele>468.4</ele>
        <time>2026-05-24T06:59:08Z</time>
      </trkpt>
      <trkpt lat="47.13439" lon="6.06932">
        <ele>468.8</ele>
        <time>2026-05-24T06:59:09Z</time>
      </trkpt>
      <trkpt lat="47.13439" lon="6.06934">
        <ele>469</ele>
        <time>2026-05-24T06:59:10Z</time>
      </trkpt>
      <trkpt lat="47.13439" lon="6.06937">
        <ele>469.2</ele>
        <time>2026-05-24T06:59:11Z</time>
      </trkpt>
      <trkpt lat="47.13439" lon="6.06939">
        <ele>469.2</ele>
        <time>2026-05-24T06:59:12Z</time>
      </trkpt>
      <trkpt lat="47.13438" lon="6.06942">
        <ele>469.6</ele>
        <time>2026-05-24T06:59:13Z</time>
      </trkpt>
      <trkpt lat="47.13438" lon="6.06944">
        <ele>469.8</ele>
        <time>2026-05-24T06:59:14Z</time>
      </trkpt>
      <trkpt lat="47.13437" lon="6.06946">
        <ele>470</ele>
        <time>2026-05-24T06:59:15Z</time>
      </trkpt>
      <trkpt lat="47.13437" lon="6.06948">
        <ele>470.2</ele>
        <time>2026-05-24T06:59:16Z</time>
      </trkpt>
      <trkpt lat="47.13436" lon="6.0695">
        <ele>470.4</ele>
        <time>2026-05-24T06:59:17Z</time>
      </trkpt>
      <trkpt lat="47.13435" lon="6.06953">
        <ele>470.4</ele>
        <time>2026-05-24T06:59:18Z</time>
      </trkpt>
      <trkpt lat="47.13435" lon="6.06955">
        <ele>470.8</ele>
        <time>2026-05-24T06:59:19Z</time>
      </trkpt>
      <trkpt lat="47.13435" lon="6.06957">
        <ele>471.2</ele>
        <time>2026-05-24T06:59:20Z</time>
      </trkpt>
      <trkpt lat="47.13434" lon="6.06959">
        <ele>471.4</ele>
        <time>2026-05-24T06:59:21Z</time>
      </trkpt>
      <trkpt lat="47.13434" lon="6.0696">
        <ele>471.6</ele>
        <time>2026-05-24T06:59:22Z</time>
      </trkpt>
      <trkpt lat="47.13434" lon="6.06963">
        <ele>471.8</ele>
        <time>2026-05-24T06:59:23Z</time>
      </trkpt>
      <trkpt lat="47.13434" lon="6.06965">
        <ele>472</ele>
        <time>2026-05-24T06:59:24Z</time>
      </trkpt>
      <trkpt lat="47.13433" lon="6.06967">
        <ele>472</ele>
        <time>2026-05-24T06:59:25Z</time>
      </trkpt>
      <trkpt lat="47.13432" lon="6.06971">
        <ele>472.2</ele>
        <time>2026-05-24T06:59:26Z</time>
      </trkpt>
      <trkpt lat="47.13431" lon="6.06973">
        <ele>472.4</ele>
        <time>2026-05-24T06:59:27Z</time>
      </trkpt>
      <trkpt lat="47.13431" lon="6.06976">
        <ele>472.4</ele>
        <time>2026-05-24T06:59:28Z</time>
      </trkpt>
      <trkpt lat="47.1343" lon="6.06979">
        <ele>472.6</ele>
        <time>2026-05-24T06:59:29Z</time>
      </trkpt>
      <trkpt lat="47.1343" lon="6.06981">
        <ele>472.6</ele>
        <time>2026-05-24T06:59:30Z</time>
      </trkpt>
      <trkpt lat="47.13429" lon="6.06984">
        <ele>472.8</ele>
        <time>2026-05-24T06:59:31Z</time>
      </trkpt>
      <trkpt lat="47.13428" lon="6.06987">
        <ele>472.8</ele>
        <time>2026-05-24T06:59:32Z</time>
      </trkpt>
      <trkpt lat="47.13428" lon="6.06989">
        <ele>473.2</ele>
        <time>2026-05-24T06:59:33Z</time>
      </trkpt>
      <trkpt lat="47.13428" lon="6.06992">
        <ele>473.4</ele>
        <time>2026-05-24T06:59:34Z</time>
      </trkpt>
      <trkpt lat="47.13428" lon="6.06994">
        <ele>473.6</ele>
        <time>2026-05-24T06:59:35Z</time>
      </trkpt>
      <trkpt lat="47.13428" lon="6.06996">
        <ele>473.6</ele>
        <time>2026-05-24T06:59:36Z</time>
      </trkpt>
      <trkpt lat="47.13427" lon="6.06999">
        <ele>473.8</ele>
        <time>2026-05-24T06:59:37Z</time>
      </trkpt>
      <trkpt lat="47.13427" lon="6.07001">
        <ele>474</ele>
        <time>2026-05-24T06:59:38Z</time>
      </trkpt>
      <trkpt lat="47.13427" lon="6.07004">
        <ele>474.2</ele>
        <time>2026-05-24T06:59:39Z</time>
      </trkpt>
      <trkpt lat="47.13427" lon="6.07006">
        <ele>474.2</ele>
        <time>2026-05-24T06:59:40Z</time>
      </trkpt>
      <trkpt lat="47.13427" lon="6.07008">
        <ele>474.6</ele>
        <time>2026-05-24T06:59:41Z</time>
      </trkpt>
      <trkpt lat="47.13427" lon="6.0701">
        <ele>474.6</ele>
        <time>2026-05-24T06:59:42Z</time>
      </trkpt>
      <trkpt lat="47.13427" lon="6.07012">
        <ele>474.8</ele>
        <time>2026-05-24T06:59:43Z</time>
      </trkpt>
      <trkpt lat="47.13427" lon="6.07014">
        <ele>474.8</ele>
        <time>2026-05-24T06:59:44Z</time>
      </trkpt>
      <trkpt lat="47.13427" lon="6.07017">
        <ele>475</ele>
        <time>2026-05-24T06:59:45Z</time>
      </trkpt>
      <trkpt lat="47.13427" lon="6.07019">
        <ele>475</ele>
        <time>2026-05-24T06:59:46Z</time>
      </trkpt>
      <trkpt lat="47.13428" lon="6.07022">
        <ele>475</ele>
        <time>2026-05-24T06:59:47Z</time>
      </trkpt>
      <trkpt lat="47.13428" lon="6.07024">
        <ele>475.4</ele>
        <time>2026-05-24T06:59:48Z</time>
      </trkpt>
      <trkpt lat="47.13427" lon="6.07026">
        <ele>475.4</ele>
        <time>2026-05-24T06:59:49Z</time>
      </trkpt>
      <trkpt lat="47.13426" lon="6.0703">
        <ele>475.6</ele>
        <time>2026-05-24T06:59:50Z</time>
      </trkpt>
      <trkpt lat="47.13426" lon="6.07033">
        <ele>475.6</ele>
        <time>2026-05-24T06:59:51Z</time>
      </trkpt>
      <trkpt lat="47.13425" lon="6.07036">
        <ele>475.6</ele>
        <time>2026-05-24T06:59:52Z</time>
      </trkpt>
      <trkpt lat="47.13424" lon="6.07039">
        <ele>475.8</ele>
        <time>2026-05-24T06:59:53Z</time>
      </trkpt>
      <trkpt lat="47.13423" lon="6.07043">
        <ele>475.8</ele>
        <time>2026-05-24T06:59:54Z</time>
      </trkpt>
      <trkpt lat="47.13422" lon="6.07047">
        <ele>475.8</ele>
        <time>2026-05-24T06:59:55Z</time>
      </trkpt>
      <trkpt lat="47.13421" lon="6.07051">
        <ele>476.4</ele>
        <time>2026-05-24T06:59:56Z</time>
      </trkpt>
      <trkpt lat="47.1342" lon="6.07054">
        <ele>476.4</ele>
        <time>2026-05-24T06:59:57Z</time>
      </trkpt>
      <trkpt lat="47.13419" lon="6.07058">
        <ele>476.6</ele>
        <time>2026-05-24T06:59:58Z</time>
      </trkpt>
      <trkpt lat="47.13419" lon="6.07061">
        <ele>476.8</ele>
        <time>2026-05-24T06:59:59Z</time>
      </trkpt>
      <trkpt lat="47.13418" lon="6.07064">
        <ele>477</ele>
        <time>2026-05-24T07:00:00Z</time>
      </trkpt>
      <trkpt lat="47.13417" lon="6.07068">
        <ele>477.2</ele>
        <time>2026-05-24T07:00:01Z</time>
      </trkpt>
      <trkpt lat="47.13416" lon="6.07073">
        <ele>477.2</ele>
        <time>2026-05-24T07:00:02Z</time>
      </trkpt>
      <trkpt lat="47.13415" lon="6.07076">
        <ele>477.4</ele>
        <time>2026-05-24T07:00:03Z</time>
      </trkpt>
      <trkpt lat="47.13414" lon="6.0708">
        <ele>477.6</ele>
        <time>2026-05-24T07:00:04Z</time>
      </trkpt>
      <trkpt lat="47.13414" lon="6.07085">
        <ele>477.8</ele>
        <time>2026-05-24T07:00:05Z</time>
      </trkpt>
      <trkpt lat="47.13413" lon="6.0709">
        <ele>477.8</ele>
        <time>2026-05-24T07:00:06Z</time>
      </trkpt>
      <trkpt lat="47.13412" lon="6.07095">
        <ele>477.8</ele>
        <time>2026-05-24T07:00:07Z</time>
      </trkpt>
      <trkpt lat="47.13412" lon="6.071">
        <ele>478</ele>
        <time>2026-05-24T07:00:08Z</time>
      </trkpt>
      <trkpt lat="47.13411" lon="6.07104">
        <ele>478</ele>
        <time>2026-05-24T07:00:09Z</time>
      </trkpt>
      <trkpt lat="47.1341" lon="6.07107">
        <ele>478.2</ele>
        <time>2026-05-24T07:00:10Z</time>
      </trkpt>
      <trkpt lat="47.1341" lon="6.07111">
        <ele>478.2</ele>
        <time>2026-05-24T07:00:11Z</time>
      </trkpt>
      <trkpt lat="47.13409" lon="6.07115">
        <ele>478.4</ele>
        <time>2026-05-24T07:00:12Z</time>
      </trkpt>
      <trkpt lat="47.13409" lon="6.07119">
        <ele>478.4</ele>
        <time>2026-05-24T07:00:13Z</time>
      </trkpt>
      <trkpt lat="47.1341" lon="6.07121">
        <ele>478.4</ele>
        <time>2026-05-24T07:00:14Z</time>
      </trkpt>
      <trkpt lat="47.1341" lon="6.07122">
        <ele>478.4</ele>
        <time>2026-05-24T07:00:15Z</time>
      </trkpt>
      <trkpt lat="47.13412" lon="6.07122">
        <ele>478.4</ele>
        <time>2026-05-24T07:00:16Z</time>
      </trkpt>
      <trkpt lat="47.13414" lon="6.07123">
        <ele>478.6</ele>
        <time>2026-05-24T07:00:17Z</time>
      </trkpt>
      <trkpt lat="47.13416" lon="6.07123">
        <ele>478.6</ele>
        <time>2026-05-24T07:00:18Z</time>
      </trkpt>
      <trkpt lat="47.13416" lon="6.07124">
        <ele>478.6</ele>
        <time>2026-05-24T07:00:19Z</time>
      </trkpt>
      <trkpt lat="47.13417" lon="6.07125">
        <ele>478.8</ele>
        <time>2026-05-24T07:00:20Z</time>
      </trkpt>
      <trkpt lat="47.13418" lon="6.07126">
        <ele>479</ele>
        <time>2026-05-24T07:00:21Z</time>
      </trkpt>
      <trkpt lat="47.13419" lon="6.07126">
        <ele>479</ele>
        <time>2026-05-24T07:00:22Z</time>
      </trkpt>
      <trkpt lat="47.1342" lon="6.07127">
        <ele>479.2</ele>
        <time>2026-05-24T07:00:23Z</time>
      </trkpt>
      <trkpt lat="47.13421" lon="6.07128">
        <ele>479.2</ele>
        <time>2026-05-24T07:00:24Z</time>
      </trkpt>
      <trkpt lat="47.13422" lon="6.0713">
        <ele>479.4</ele>
        <time>2026-05-24T07:00:25Z</time>
      </trkpt>
      <trkpt lat="47.13422" lon="6.07132">
        <ele>479.6</ele>
        <time>2026-05-24T07:00:26Z</time>
      </trkpt>
      <trkpt lat="47.13422" lon="6.07135">
        <ele>479.8</ele>
        <time>2026-05-24T07:00:27Z</time>
      </trkpt>
      <trkpt lat="47.13422" lon="6.07138">
        <ele>479.8</ele>
        <time>2026-05-24T07:00:28Z</time>
      </trkpt>
      <trkpt lat="47.13421" lon="6.07141">
        <ele>479.8</ele>
        <time>2026-05-24T07:00:29Z</time>
      </trkpt>
      <trkpt lat="47.1342" lon="6.07143">
        <ele>480.2</ele>
        <time>2026-05-24T07:00:30Z</time>
      </trkpt>
      <trkpt lat="47.1342" lon="6.07145">
        <ele>480.2</ele>
        <time>2026-05-24T07:00:31Z</time>
      </trkpt>
      <trkpt lat="47.1342" lon="6.07146">
        <ele>480.6</ele>
        <time>2026-05-24T07:00:32Z</time>
      </trkpt>
      <trkpt lat="47.13421" lon="6.07148">
        <ele>480.8</ele>
        <time>2026-05-24T07:00:33Z</time>
      </trkpt>
      <trkpt lat="47.13423" lon="6.0715">
        <ele>480.8</ele>
        <time>2026-05-24T07:00:34Z</time>
      </trkpt>
      <trkpt lat="47.13423" lon="6.07151">
        <ele>481.2</ele>
        <time>2026-05-24T07:00:35Z</time>
      </trkpt>
      <trkpt lat="47.13424" lon="6.07153">
        <ele>481.6</ele>
        <time>2026-05-24T07:00:36Z</time>
      </trkpt>
      <trkpt lat="47.13424" lon="6.07154">
        <ele>481.8</ele>
        <time>2026-05-24T07:00:37Z</time>
      </trkpt>
      <trkpt lat="47.13424" lon="6.07155">
        <ele>481.8</ele>
        <time>2026-05-24T07:00:38Z</time>
      </trkpt>
      <trkpt lat="47.13422" lon="6.07157">
        <ele>482.2</ele>
        <time>2026-05-24T07:00:39Z</time>
      </trkpt>
      <trkpt lat="47.13421" lon="6.07158">
        <ele>482.4</ele>
        <time>2026-05-24T07:00:40Z</time>
      </trkpt>
      <trkpt lat="47.13421" lon="6.0716">
        <ele>482.6</ele>
        <time>2026-05-24T07:00:41Z</time>
      </trkpt>
      <trkpt lat="47.13422" lon="6.0716">
        <ele>482.6</ele>
        <time>2026-05-24T07:00:42Z</time>
      </trkpt>
      <trkpt lat="47.13422" lon="6.07162">
        <ele>482.8</ele>
        <time>2026-05-24T07:00:43Z</time>
      </trkpt>
      <trkpt lat="47.13422" lon="6.07161">
        <ele>482.8</ele>
        <time>2026-05-24T07:00:44Z</time>
      </trkpt>
      <trkpt lat="47.13423" lon="6.07161">
        <ele>483</ele>
        <time>2026-05-24T07:00:45Z</time>
      </trkpt>
      <trkpt lat="47.13421" lon="6.072">
        <ele>489.2</ele>
        <time>2026-05-24T07:01:27Z</time>
      </trkpt>
      <trkpt lat="47.13421" lon="6.07203">
        <ele>489.2</ele>
        <time>2026-05-24T07:01:28Z</time>
      </trkpt>
      <trkpt lat="47.13421" lon="6.07205">
        <ele>489.6</ele>
        <time>2026-05-24T07:01:29Z</time>
      </trkpt>
      <trkpt lat="47.13422" lon="6.07208">
        <ele>489.8</ele>
        <time>2026-05-24T07:01:30Z</time>
      </trkpt>
      <trkpt lat="47.13422" lon="6.0721">
        <ele>490</ele>
        <time>2026-05-24T07:01:31Z</time>
      </trkpt>
      <trkpt lat="47.13423" lon="6.07212">
        <ele>490.4</ele>
        <time>2026-05-24T07:01:32Z</time>
      </trkpt>
      <trkpt lat="47.13424" lon="6.07214">
        <ele>490.8</ele>
        <time>2026-05-24T07:01:33Z</time>
      </trkpt>
      <trkpt lat="47.13424" lon="6.07216">
        <ele>490.8</ele>
        <time>2026-05-24T07:01:34Z</time>
      </trkpt>
      <trkpt lat="47.13425" lon="6.07218">
        <ele>491.2</ele>
        <time>2026-05-24T07:01:35Z</time>
      </trkpt>
      <trkpt lat="47.13427" lon="6.0722">
        <ele>491.4</ele>
        <time>2026-05-24T07:01:36Z</time>
      </trkpt>
      <trkpt lat="47.13429" lon="6.07222">
        <ele>491.6</ele>
        <time>2026-05-24T07:01:37Z</time>
      </trkpt>
      <trkpt lat="47.1343" lon="6.07224">
        <ele>492</ele>
        <time>2026-05-24T07:01:38Z</time>
      </trkpt>
      <trkpt lat="47.13431" lon="6.07227">
        <ele>492.2</ele>
        <time>2026-05-24T07:01:39Z</time>
      </trkpt>
      <trkpt lat="47.13433" lon="6.07229">
        <ele>492.4</ele>
        <time>2026-05-24T07:01:40Z</time>
      </trkpt>
      <trkpt lat="47.13434" lon="6.07231">
        <ele>492.6</ele>
        <time>2026-05-24T07:01:41Z</time>
      </trkpt>
      <trkpt lat="47.13436" lon="6.07233">
        <ele>493</ele>
        <time>2026-05-24T07:01:42Z</time>
      </trkpt>
      <trkpt lat="47.13437" lon="6.07236">
        <ele>493.4</ele>
        <time>2026-05-24T07:01:43Z</time>
      </trkpt>
      <trkpt lat="47.13438" lon="6.07239">
        <ele>493.6</ele>
        <time>2026-05-24T07:01:44Z</time>
      </trkpt>
      <trkpt lat="47.13438" lon="6.07241">
        <ele>493.8</ele>
        <time>2026-05-24T07:01:45Z</time>
      </trkpt>
      <trkpt lat="47.13439" lon="6.07244">
        <ele>494.2</ele>
        <time>2026-05-24T07:01:46Z</time>
      </trkpt>
      <trkpt lat="47.1344" lon="6.07247">
        <ele>494.4</ele>
        <time>2026-05-24T07:01:47Z</time>
      </trkpt>
      <trkpt lat="47.1344" lon="6.0725">
        <ele>494.8</ele>
        <time>2026-05-24T07:01:48Z</time>
      </trkpt>
      <trkpt lat="47.13441" lon="6.07252">
        <ele>494.8</ele>
        <time>2026-05-24T07:01:49Z</time>
      </trkpt>
      <trkpt lat="47.1344" lon="6.07256">
        <ele>495.2</ele>
        <time>2026-05-24T07:01:50Z</time>
      </trkpt>
      <trkpt lat="47.1344" lon="6.07259">
        <ele>495.2</ele>
        <time>2026-05-24T07:01:51Z</time>
      </trkpt>
      <trkpt lat="47.1344" lon="6.07261">
        <ele>495.2</ele>
        <time>2026-05-24T07:01:52Z</time>
      </trkpt>
      <trkpt lat="47.13439" lon="6.07264">
        <ele>495.6</ele>
        <time>2026-05-24T07:01:53Z</time>
      </trkpt>
      <trkpt lat="47.1344" lon="6.07267">
        <ele>495.8</ele>
        <time>2026-05-24T07:01:54Z</time>
      </trkpt>
      <trkpt lat="47.1344" lon="6.07269">
        <ele>496</ele>
        <time>2026-05-24T07:01:55Z</time>
      </trkpt>
      <trkpt lat="47.13442" lon="6.07272">
        <ele>496.2</ele>
        <time>2026-05-24T07:01:56Z</time>
      </trkpt>
      <trkpt lat="47.13443" lon="6.07275">
        <ele>496.6</ele>
        <time>2026-05-24T07:01:57Z</time>
      </trkpt>
      <trkpt lat="47.13443" lon="6.07278">
        <ele>496.6</ele>
        <time>2026-05-24T07:01:58Z</time>
      </trkpt>
      <trkpt lat="47.13443" lon="6.07281">
        <ele>496.8</ele>
        <time>2026-05-24T07:01:59Z</time>
      </trkpt>
      <trkpt lat="47.13444" lon="6.07283">
        <ele>497</ele>
        <time>2026-05-24T07:02:00Z</time>
      </trkpt>
      <trkpt lat="47.13444" lon="6.07286">
        <ele>497.2</ele>
        <time>2026-05-24T07:02:01Z</time>
      </trkpt>
      <trkpt lat="47.13445" lon="6.07288">
        <ele>497.4</ele>
        <time>2026-05-24T07:02:02Z</time>
      </trkpt>
      <trkpt lat="47.13445" lon="6.07291">
        <ele>497.6</ele>
        <time>2026-05-24T07:02:03Z</time>
      </trkpt>
      <trkpt lat="47.13445" lon="6.07294">
        <ele>498</ele>
        <time>2026-05-24T07:02:04Z</time>
      </trkpt>
      <trkpt lat="47.13445" lon="6.07297">
        <ele>498.4</ele>
        <time>2026-05-24T07:02:05Z</time>
      </trkpt>
      <trkpt lat="47.13445" lon="6.073">
        <ele>498.6</ele>
        <time>2026-05-24T07:02:06Z</time>
      </trkpt>
      <trkpt lat="47.13444" lon="6.07303">
        <ele>498.6</ele>
        <time>2026-05-24T07:02:07Z</time>
      </trkpt>
      <trkpt lat="47.13442" lon="6.07307">
        <ele>498.8</ele>
        <time>2026-05-24T07:02:08Z</time>
      </trkpt>
      <trkpt lat="47.13441" lon="6.07311">
        <ele>499</ele>
        <time>2026-05-24T07:02:09Z</time>
      </trkpt>
      <trkpt lat="47.13441" lon="6.07314">
        <ele>499</ele>
        <time>2026-05-24T07:02:10Z</time>
      </trkpt>
      <trkpt lat="47.13439" lon="6.07317">
        <ele>499.4</ele>
        <time>2026-05-24T07:02:11Z</time>
      </trkpt>
      <trkpt lat="47.13438" lon="6.0732">
        <ele>499.6</ele>
        <time>2026-05-24T07:02:12Z</time>
      </trkpt>
      <trkpt lat="47.13436" lon="6.07324">
        <ele>499.6</ele>
        <time>2026-05-24T07:02:13Z</time>
      </trkpt>
      <trkpt lat="47.13434" lon="6.07328">
        <ele>499.6</ele>
        <time>2026-05-24T07:02:14Z</time>
      </trkpt>
      <trkpt lat="47.13432" lon="6.07332">
        <ele>499.8</ele>
        <time>2026-05-24T07:02:15Z</time>
      </trkpt>
      <trkpt lat="47.13431" lon="6.07334">
        <ele>500</ele>
        <time>2026-05-24T07:02:16Z</time>
      </trkpt>
      <trkpt lat="47.13429" lon="6.07337">
        <ele>500.2</ele>
        <time>2026-05-24T07:02:17Z</time>
      </trkpt>
      <trkpt lat="47.13428" lon="6.0734">
        <ele>500.4</ele>
        <time>2026-05-24T07:02:18Z</time>
      </trkpt>
      <trkpt lat="47.13426" lon="6.07343">
        <ele>500.4</ele>
        <time>2026-05-24T07:02:19Z</time>
      </trkpt>
      <trkpt lat="47.13425" lon="6.07345">
        <ele>500.4</ele>
        <time>2026-05-24T07:02:20Z</time>
      </trkpt>
      <trkpt lat="47.13425" lon="6.07348">
        <ele>500.4</ele>
        <time>2026-05-24T07:02:21Z</time>
      </trkpt>
      <trkpt lat="47.13424" lon="6.07351">
        <ele>500.6</ele>
        <time>2026-05-24T07:02:22Z</time>
      </trkpt>
      <trkpt lat="47.13423" lon="6.07353">
        <ele>500.8</ele>
        <time>2026-05-24T07:02:23Z</time>
      </trkpt>
      <trkpt lat="47.13423" lon="6.07357">
        <ele>501</ele>
        <time>2026-05-24T07:02:24Z</time>
      </trkpt>
      <trkpt lat="47.13422" lon="6.07359">
        <ele>501</ele>
        <time>2026-05-24T07:02:25Z</time>
      </trkpt>
      <trkpt lat="47.13421" lon="6.07363">
        <ele>501</ele>
        <time>2026-05-24T07:02:26Z</time>
      </trkpt>
      <trkpt lat="47.1342" lon="6.07366">
        <ele>501</ele>
        <time>2026-05-24T07:02:27Z</time>
      </trkpt>
      <trkpt lat="47.13419" lon="6.07368">
        <ele>501.2</ele>
        <time>2026-05-24T07:02:28Z</time>
      </trkpt>
      <trkpt lat="47.13417" lon="6.07371">
        <ele>501.4</ele>
        <time>2026-05-24T07:02:29Z</time>
      </trkpt>
      <trkpt lat="47.13416" lon="6.07373">
        <ele>501.4</ele>
        <time>2026-05-24T07:02:30Z</time>
      </trkpt>
      <trkpt lat="47.13415" lon="6.07376">
        <ele>501.6</ele>
        <time>2026-05-24T07:02:31Z</time>
      </trkpt>
      <trkpt lat="47.13414" lon="6.07379">
        <ele>501.6</ele>
        <time>2026-05-24T07:02:32Z</time>
      </trkpt>
      <trkpt lat="47.13412" lon="6.07382">
        <ele>501.6</ele>
        <time>2026-05-24T07:02:33Z</time>
      </trkpt>
      <trkpt lat="47.1341" lon="6.07387">
        <ele>501.8</ele>
        <time>2026-05-24T07:02:34Z</time>
      </trkpt>
      <trkpt lat="47.13409" lon="6.07392">
        <ele>501.8</ele>
        <time>2026-05-24T07:02:35Z</time>
      </trkpt>
      <trkpt lat="47.13407" lon="6.07395">
        <ele>501.6</ele>
        <time>2026-05-24T07:02:36Z</time>
      </trkpt>
      <trkpt lat="47.13406" lon="6.07399">
        <ele>501.8</ele>
        <time>2026-05-24T07:02:37Z</time>
      </trkpt>
      <trkpt lat="47.13405" lon="6.07403">
        <ele>501.8</ele>
        <time>2026-05-24T07:02:38Z</time>
      </trkpt>
      <trkpt lat="47.13403" lon="6.07406">
        <ele>502</ele>
        <time>2026-05-24T07:02:39Z</time>
      </trkpt>
      <trkpt lat="47.13402" lon="6.07409">
        <ele>502</ele>
        <time>2026-05-24T07:02:40Z</time>
      </trkpt>
      <trkpt lat="47.13398" lon="6.07413">
        <ele>502.2</ele>
        <time>2026-05-24T07:02:41Z</time>
      </trkpt>
      <trkpt lat="47.13395" lon="6.07417">
        <ele>502.2</ele>
        <time>2026-05-24T07:02:42Z</time>
      </trkpt>
      <trkpt lat="47.13392" lon="6.0742">
        <ele>502.2</ele>
        <time>2026-05-24T07:02:43Z</time>
      </trkpt>
      <trkpt lat="47.1339" lon="6.07423">
        <ele>502.2</ele>
        <time>2026-05-24T07:02:44Z</time>
      </trkpt>
      <trkpt lat="47.13387" lon="6.07427">
        <ele>502.4</ele>
        <time>2026-05-24T07:02:45Z</time>
      </trkpt>
      <trkpt lat="47.13385" lon="6.07431">
        <ele>502.6</ele>
        <time>2026-05-24T07:02:46Z</time>
      </trkpt>
      <trkpt lat="47.13383" lon="6.07435">
        <ele>502.8</ele>
        <time>2026-05-24T07:02:47Z</time>
      </trkpt>
      <trkpt lat="47.13381" lon="6.07439">
        <ele>502.8</ele>
        <time>2026-05-24T07:02:48Z</time>
      </trkpt>
      <trkpt lat="47.13379" lon="6.07444">
        <ele>503.2</ele>
        <time>2026-05-24T07:02:49Z</time>
      </trkpt>
      <trkpt lat="47.13377" lon="6.07447">
        <ele>503.2</ele>
        <time>2026-05-24T07:02:50Z</time>
      </trkpt>
      <trkpt lat="47.13376" lon="6.07451">
        <ele>503.2</ele>
        <time>2026-05-24T07:02:51Z</time>
      </trkpt>
      <trkpt lat="47.13374" lon="6.07454">
        <ele>503.4</ele>
        <time>2026-05-24T07:02:52Z</time>
      </trkpt>
      <trkpt lat="47.13374" lon="6.07456">
        <ele>503.6</ele>
        <time>2026-05-24T07:02:53Z</time>
      </trkpt>
      <trkpt lat="47.13373" lon="6.07457">
        <ele>503.6</ele>
        <time>2026-05-24T07:02:54Z</time>
      </trkpt>
      <trkpt lat="47.13372" lon="6.07459">
        <ele>503.8</ele>
        <time>2026-05-24T07:02:55Z</time>
      </trkpt>
      <trkpt lat="47.13371" lon="6.07462">
        <ele>504</ele>
        <time>2026-05-24T07:02:56Z</time>
      </trkpt>
      <trkpt lat="47.1337" lon="6.07464">
        <ele>504</ele>
        <time>2026-05-24T07:02:57Z</time>
      </trkpt>
      <trkpt lat="47.13369" lon="6.07467">
        <ele>504.2</ele>
        <time>2026-05-24T07:02:58Z</time>
      </trkpt>
      <trkpt lat="47.13367" lon="6.0747">
        <ele>504.4</ele>
        <time>2026-05-24T07:02:59Z</time>
      </trkpt>
      <trkpt lat="47.13366" lon="6.07472">
        <ele>504.6</ele>
        <time>2026-05-24T07:03:00Z</time>
      </trkpt>
      <trkpt lat="47.13365" lon="6.07475">
        <ele>504.8</ele>
        <time>2026-05-24T07:03:01Z</time>
      </trkpt>
      <trkpt lat="47.13364" lon="6.07477">
        <ele>505.2</ele>
        <time>2026-05-24T07:03:02Z</time>
      </trkpt>
      <trkpt lat="47.13362" lon="6.07479">
        <ele>505.2</ele>
        <time>2026-05-24T07:03:03Z</time>
      </trkpt>
      <trkpt lat="47.13361" lon="6.07481">
        <ele>505.6</ele>
        <time>2026-05-24T07:03:04Z</time>
      </trkpt>
      <trkpt lat="47.13358" lon="6.07483">
        <ele>505.6</ele>
        <time>2026-05-24T07:03:05Z</time>
      </trkpt>
      <trkpt lat="47.13355" lon="6.07486">
        <ele>505.8</ele>
        <time>2026-05-24T07:03:06Z</time>
      </trkpt>
      <trkpt lat="47.13352" lon="6.07491">
        <ele>506</ele>
        <time>2026-05-24T07:03:07Z</time>
      </trkpt>
      <trkpt lat="47.13348" lon="6.07493">
        <ele>506.2</ele>
        <time>2026-05-24T07:03:08Z</time>
      </trkpt>
      <trkpt lat="47.13345" lon="6.07496">
        <ele>506.4</ele>
        <time>2026-05-24T07:03:09Z</time>
      </trkpt>
      <trkpt lat="47.13343" lon="6.07499">
        <ele>506.4</ele>
        <time>2026-05-24T07:03:10Z</time>
      </trkpt>
      <trkpt lat="47.1334" lon="6.075">
        <ele>506.6</ele>
        <time>2026-05-24T07:03:11Z</time>
      </trkpt>
      <trkpt lat="47.13338" lon="6.07502">
        <ele>506.6</ele>
        <time>2026-05-24T07:03:12Z</time>
      </trkpt>
      <trkpt lat="47.13337" lon="6.07503">
        <ele>506.8</ele>
        <time>2026-05-24T07:03:13Z</time>
      </trkpt>
      <trkpt lat="47.13335" lon="6.07505">
        <ele>506.8</ele>
        <time>2026-05-24T07:03:14Z</time>
      </trkpt>
      <trkpt lat="47.13334" lon="6.07506">
        <ele>506.8</ele>
        <time>2026-05-24T07:03:15Z</time>
      </trkpt>
      <trkpt lat="47.13332" lon="6.07507">
        <ele>506.8</ele>
        <time>2026-05-24T07:03:16Z</time>
      </trkpt>
      <trkpt lat="47.13332" lon="6.07507">
        <ele>506.8</ele>
        <time>2026-05-24T07:03:17Z</time>
      </trkpt>
      <trkpt lat="47.13332" lon="6.07506">
        <ele>506.8</ele>
        <time>2026-05-24T07:03:18Z</time>
      </trkpt>
      <trkpt lat="47.13332" lon="6.07506">
        <ele>507</ele>
        <time>2026-05-24T07:03:19Z</time>
      </trkpt>
      <trkpt lat="47.13326" lon="6.07507">
        <ele>507</ele>
        <time>2026-05-24T07:04:42Z</time>
      </trkpt>
      <trkpt lat="47.13324" lon="6.07506">
        <ele>507</ele>
        <time>2026-05-24T07:04:43Z</time>
      </trkpt>
      <trkpt lat="47.13323" lon="6.07505">
        <ele>506.8</ele>
        <time>2026-05-24T07:04:44Z</time>
      </trkpt>
      <trkpt lat="47.13321" lon="6.07504">
        <ele>506.8</ele>
        <time>2026-05-24T07:04:45Z</time>
      </trkpt>
      <trkpt lat="47.13318" lon="6.07502">
        <ele>506.8</ele>
        <time>2026-05-24T07:04:46Z</time>
      </trkpt>
      <trkpt lat="47.13316" lon="6.07501">
        <ele>507</ele>
        <time>2026-05-24T07:04:47Z</time>
      </trkpt>
      <trkpt lat="47.13314" lon="6.07499">
        <ele>506.8</ele>
        <time>2026-05-24T07:04:48Z</time>
      </trkpt>
      <trkpt lat="47.13313" lon="6.07498">
        <ele>506.8</ele>
        <time>2026-05-24T07:04:49Z</time>
      </trkpt>
      <trkpt lat="47.13311" lon="6.07497">
        <ele>506.8</ele>
        <time>2026-05-24T07:04:50Z</time>
      </trkpt>
      <trkpt lat="47.13309" lon="6.07495">
        <ele>506.8</ele>
        <time>2026-05-24T07:04:51Z</time>
      </trkpt>
      <trkpt lat="47.13307" lon="6.07493">
        <ele>506.8</ele>
        <time>2026-05-24T07:04:52Z</time>
      </trkpt>
      <trkpt lat="47.13305" lon="6.07492">
        <ele>506.6</ele>
        <time>2026-05-24T07:04:53Z</time>
      </trkpt>
      <trkpt lat="47.13303" lon="6.0749">
        <ele>506.6</ele>
        <time>2026-05-24T07:04:54Z</time>
      </trkpt>
      <trkpt lat="47.133" lon="6.07488">
        <ele>506.6</ele>
        <time>2026-05-24T07:04:55Z</time>
      </trkpt>
      <trkpt lat="47.13298" lon="6.07487">
        <ele>506.4</ele>
        <time>2026-05-24T07:04:56Z</time>
      </trkpt>
      <trkpt lat="47.13296" lon="6.07485">
        <ele>506.2</ele>
        <time>2026-05-24T07:04:57Z</time>
      </trkpt>
      <trkpt lat="47.13295" lon="6.07484">
        <ele>506</ele>
        <time>2026-05-24T07:04:58Z</time>
      </trkpt>
      <trkpt lat="47.13293" lon="6.07482">
        <ele>506</ele>
        <time>2026-05-24T07:04:59Z</time>
      </trkpt>
      <trkpt lat="47.13291" lon="6.07481">
        <ele>506</ele>
        <time>2026-05-24T07:05:00Z</time>
      </trkpt>
      <trkpt lat="47.1329" lon="6.07479">
        <ele>506</ele>
        <time>2026-05-24T07:05:01Z</time>
      </trkpt>
      <trkpt lat="47.13288" lon="6.07477">
        <ele>506</ele>
        <time>2026-05-24T07:05:02Z</time>
      </trkpt>
      <trkpt lat="47.13286" lon="6.07476">
        <ele>506</ele>
        <time>2026-05-24T07:05:03Z</time>
      </trkpt>
      <trkpt lat="47.13284" lon="6.07474">
        <ele>506</ele>
        <time>2026-05-24T07:05:04Z</time>
      </trkpt>
      <trkpt lat="47.13282" lon="6.07472">
        <ele>505.8</ele>
        <time>2026-05-24T07:05:05Z</time>
      </trkpt>
      <trkpt lat="47.1328" lon="6.0747">
        <ele>505.8</ele>
        <time>2026-05-24T07:05:06Z</time>
      </trkpt>
      <trkpt lat="47.13278" lon="6.07469">
        <ele>506</ele>
        <time>2026-05-24T07:05:07Z</time>
      </trkpt>
      <trkpt lat="47.13276" lon="6.07467">
        <ele>506</ele>
        <time>2026-05-24T07:05:08Z</time>
      </trkpt>
      <trkpt lat="47.13274" lon="6.07465">
        <ele>506</ele>
        <time>2026-05-24T07:05:09Z</time>
      </trkpt>
      <trkpt lat="47.13272" lon="6.07464">
        <ele>506</ele>
        <time>2026-05-24T07:05:10Z</time>
      </trkpt>
      <trkpt lat="47.1327" lon="6.07464">
        <ele>506</ele>
        <time>2026-05-24T07:05:11Z</time>
      </trkpt>
      <trkpt lat="47.13269" lon="6.07464">
        <ele>506.2</ele>
        <time>2026-05-24T07:05:12Z</time>
      </trkpt>
      <trkpt lat="47.13267" lon="6.07465">
        <ele>506.2</ele>
        <time>2026-05-24T07:05:13Z</time>
      </trkpt>
      <trkpt lat="47.13266" lon="6.07466">
        <ele>506.2</ele>
        <time>2026-05-24T07:05:14Z</time>
      </trkpt>
      <trkpt lat="47.13265" lon="6.07467">
        <ele>506.4</ele>
        <time>2026-05-24T07:05:15Z</time>
      </trkpt>
      <trkpt lat="47.13263" lon="6.07468">
        <ele>506.4</ele>
        <time>2026-05-24T07:05:16Z</time>
      </trkpt>
      <trkpt lat="47.13262" lon="6.07469">
        <ele>506.6</ele>
        <time>2026-05-24T07:05:17Z</time>
      </trkpt>
      <trkpt lat="47.13261" lon="6.07471">
        <ele>506.8</ele>
        <time>2026-05-24T07:05:18Z</time>
      </trkpt>
      <trkpt lat="47.1326" lon="6.07472">
        <ele>507</ele>
        <time>2026-05-24T07:05:19Z</time>
      </trkpt>
      <trkpt lat="47.13259" lon="6.07474">
        <ele>507.2</ele>
        <time>2026-05-24T07:05:20Z</time>
      </trkpt>
      <trkpt lat="47.13257" lon="6.07476">
        <ele>507.4</ele>
        <time>2026-05-24T07:05:21Z</time>
      </trkpt>
      <trkpt lat="47.13256" lon="6.07477">
        <ele>507.6</ele>
        <time>2026-05-24T07:05:22Z</time>
      </trkpt>
      <trkpt lat="47.13254" lon="6.07479">
        <ele>507.6</ele>
        <time>2026-05-24T07:05:23Z</time>
      </trkpt>
      <trkpt lat="47.13252" lon="6.0748">
        <ele>508</ele>
        <time>2026-05-24T07:05:24Z</time>
      </trkpt>
      <trkpt lat="47.13251" lon="6.07482">
        <ele>508</ele>
        <time>2026-05-24T07:05:25Z</time>
      </trkpt>
      <trkpt lat="47.13249" lon="6.07484">
        <ele>508.4</ele>
        <time>2026-05-24T07:05:26Z</time>
      </trkpt>
      <trkpt lat="47.13248" lon="6.07485">
        <ele>508.6</ele>
        <time>2026-05-24T07:05:27Z</time>
      </trkpt>
      <trkpt lat="47.13246" lon="6.07486">
        <ele>508.6</ele>
        <time>2026-05-24T07:05:28Z</time>
      </trkpt>
      <trkpt lat="47.13245" lon="6.07487">
        <ele>508.8</ele>
        <time>2026-05-24T07:05:29Z</time>
      </trkpt>
      <trkpt lat="47.13244" lon="6.07488">
        <ele>509.2</ele>
        <time>2026-05-24T07:05:30Z</time>
      </trkpt>
      <trkpt lat="47.13242" lon="6.07489">
        <ele>509.4</ele>
        <time>2026-05-24T07:05:31Z</time>
      </trkpt>
      <trkpt lat="47.13241" lon="6.0749">
        <ele>509.4</ele>
        <time>2026-05-24T07:05:32Z</time>
      </trkpt>
      <trkpt lat="47.13239" lon="6.07491">
        <ele>509.6</ele>
        <time>2026-05-24T07:05:33Z</time>
      </trkpt>
      <trkpt lat="47.13238" lon="6.07492">
        <ele>510</ele>
        <time>2026-05-24T07:05:34Z</time>
      </trkpt>
      <trkpt lat="47.13236" lon="6.07493">
        <ele>510.2</ele>
        <time>2026-05-24T07:05:35Z</time>
      </trkpt>
      <trkpt lat="47.13235" lon="6.07494">
        <ele>510.2</ele>
        <time>2026-05-24T07:05:36Z</time>
      </trkpt>
      <trkpt lat="47.13234" lon="6.07495">
        <ele>510.2</ele>
        <time>2026-05-24T07:05:37Z</time>
      </trkpt>
      <trkpt lat="47.13233" lon="6.07496">
        <ele>510.6</ele>
        <time>2026-05-24T07:05:38Z</time>
      </trkpt>
      <trkpt lat="47.13232" lon="6.07497">
        <ele>510.6</ele>
        <time>2026-05-24T07:05:39Z</time>
      </trkpt>
      <trkpt lat="47.13231" lon="6.07497">
        <ele>511</ele>
        <time>2026-05-24T07:05:40Z</time>
      </trkpt>
      <trkpt lat="47.1323" lon="6.07498">
        <ele>511</ele>
        <time>2026-05-24T07:05:41Z</time>
      </trkpt>
      <trkpt lat="47.13228" lon="6.07499">
        <ele>511.4</ele>
        <time>2026-05-24T07:05:42Z</time>
      </trkpt>
      <trkpt lat="47.13227" lon="6.075">
        <ele>511.6</ele>
        <time>2026-05-24T07:05:43Z</time>
      </trkpt>
      <trkpt lat="47.13226" lon="6.075">
        <ele>511.8</ele>
        <time>2026-05-24T07:05:44Z</time>
      </trkpt>
      <trkpt lat="47.13225" lon="6.07501">
        <ele>512</ele>
        <time>2026-05-24T07:05:45Z</time>
      </trkpt>
      <trkpt lat="47.13224" lon="6.07501">
        <ele>512.2</ele>
        <time>2026-05-24T07:05:46Z</time>
      </trkpt>
      <trkpt lat="47.13223" lon="6.07502">
        <ele>512.2</ele>
        <time>2026-05-24T07:05:47Z</time>
      </trkpt>
      <trkpt lat="47.13222" lon="6.07503">
        <ele>512.4</ele>
        <time>2026-05-24T07:05:48Z</time>
      </trkpt>
      <trkpt lat="47.13221" lon="6.07504">
        <ele>512.6</ele>
        <time>2026-05-24T07:05:49Z</time>
      </trkpt>
      <trkpt lat="47.1322" lon="6.07505">
        <ele>513</ele>
        <time>2026-05-24T07:05:50Z</time>
      </trkpt>
      <trkpt lat="47.13218" lon="6.07505">
        <ele>513</ele>
        <time>2026-05-24T07:05:51Z</time>
      </trkpt>
      <trkpt lat="47.13217" lon="6.07506">
        <ele>513.4</ele>
        <time>2026-05-24T07:05:52Z</time>
      </trkpt>
      <trkpt lat="47.13216" lon="6.07506">
        <ele>513.8</ele>
        <time>2026-05-24T07:05:53Z</time>
      </trkpt>
      <trkpt lat="47.13215" lon="6.07506">
        <ele>514</ele>
        <time>2026-05-24T07:05:54Z</time>
      </trkpt>
      <trkpt lat="47.13214" lon="6.07507">
        <ele>514.4</ele>
        <time>2026-05-24T07:05:55Z</time>
      </trkpt>
      <trkpt lat="47.13213" lon="6.07507">
        <ele>514.6</ele>
        <time>2026-05-24T07:05:56Z</time>
      </trkpt>
      <trkpt lat="47.13212" lon="6.07507">
        <ele>514.8</ele>
        <time>2026-05-24T07:05:57Z</time>
      </trkpt>
      <trkpt lat="47.13211" lon="6.07508">
        <ele>514.8</ele>
        <time>2026-05-24T07:05:58Z</time>
      </trkpt>
      <trkpt lat="47.13209" lon="6.07508">
        <ele>515.2</ele>
        <time>2026-05-24T07:05:59Z</time>
      </trkpt>
      <trkpt lat="47.13207" lon="6.07508">
        <ele>515.8</ele>
        <time>2026-05-24T07:06:00Z</time>
      </trkpt>
      <trkpt lat="47.13206" lon="6.07507">
        <ele>516</ele>
        <time>2026-05-24T07:06:01Z</time>
      </trkpt>
      <trkpt lat="47.13205" lon="6.07507">
        <ele>516.2</ele>
        <time>2026-05-24T07:06:02Z</time>
      </trkpt>
      <trkpt lat="47.13204" lon="6.07506">
        <ele>516.6</ele>
        <time>2026-05-24T07:06:03Z</time>
      </trkpt>
      <trkpt lat="47.13203" lon="6.07506">
        <ele>516.6</ele>
        <time>2026-05-24T07:06:04Z</time>
      </trkpt>
      <trkpt lat="47.13201" lon="6.07505">
        <ele>516.8</ele>
        <time>2026-05-24T07:06:05Z</time>
      </trkpt>
      <trkpt lat="47.132" lon="6.07505">
        <ele>516.8</ele>
        <time>2026-05-24T07:06:06Z</time>
      </trkpt>
      <trkpt lat="47.13199" lon="6.07505">
        <ele>517</ele>
        <time>2026-05-24T07:06:07Z</time>
      </trkpt>
      <trkpt lat="47.13198" lon="6.07504">
        <ele>517</ele>
        <time>2026-05-24T07:06:08Z</time>
      </trkpt>
      <trkpt lat="47.13197" lon="6.07504">
        <ele>517</ele>
        <time>2026-05-24T07:06:09Z</time>
      </trkpt>
      <trkpt lat="47.13196" lon="6.07503">
        <ele>517.2</ele>
        <time>2026-05-24T07:06:10Z</time>
      </trkpt>
      <trkpt lat="47.13195" lon="6.07503">
        <ele>517.2</ele>
        <time>2026-05-24T07:06:11Z</time>
      </trkpt>
      <trkpt lat="47.13193" lon="6.07502">
        <ele>517.6</ele>
        <time>2026-05-24T07:06:12Z</time>
      </trkpt>
      <trkpt lat="47.13193" lon="6.07502">
        <ele>517.6</ele>
        <time>2026-05-24T07:06:13Z</time>
      </trkpt>
      <trkpt lat="47.13192" lon="6.07501">
        <ele>517.8</ele>
        <time>2026-05-24T07:06:14Z</time>
      </trkpt>
      <trkpt lat="47.1319" lon="6.075">
        <ele>517.8</ele>
        <time>2026-05-24T07:06:15Z</time>
      </trkpt>
      <trkpt lat="47.13189" lon="6.075">
        <ele>518</ele>
        <time>2026-05-24T07:06:16Z</time>
      </trkpt>
      <trkpt lat="47.13188" lon="6.07499">
        <ele>518.2</ele>
        <time>2026-05-24T07:06:17Z</time>
      </trkpt>
      <trkpt lat="47.13187" lon="6.07499">
        <ele>518.4</ele>
        <time>2026-05-24T07:06:18Z</time>
      </trkpt>
      <trkpt lat="47.13187" lon="6.07498">
        <ele>518.6</ele>
        <time>2026-05-24T07:06:19Z</time>
      </trkpt>
      <trkpt lat="47.13186" lon="6.07497">
        <ele>518.6</ele>
        <time>2026-05-24T07:06:20Z</time>
      </trkpt>
      <trkpt lat="47.13186" lon="6.07496">
        <ele>518.8</ele>
        <time>2026-05-24T07:06:21Z</time>
      </trkpt>
      <trkpt lat="47.13185" lon="6.07496">
        <ele>519</ele>
        <time>2026-05-24T07:06:22Z</time>
      </trkpt>
      <trkpt lat="47.13184" lon="6.07495">
        <ele>519</ele>
        <time>2026-05-24T07:06:23Z</time>
      </trkpt>
      <trkpt lat="47.13184" lon="6.07495">
        <ele>519.4</ele>
        <time>2026-05-24T07:06:24Z</time>
      </trkpt>
      <trkpt lat="47.13183" lon="6.07494">
        <ele>519.6</ele>
        <time>2026-05-24T07:06:25Z</time>
      </trkpt>
      <trkpt lat="47.13182" lon="6.07493">
        <ele>519.8</ele>
        <time>2026-05-24T07:06:26Z</time>
      </trkpt>
      <trkpt lat="47.1318" lon="6.07493">
        <ele>520</ele>
        <time>2026-05-24T07:06:27Z</time>
      </trkpt>
      <trkpt lat="47.1318" lon="6.07492">
        <ele>520.2</ele>
        <time>2026-05-24T07:06:28Z</time>
      </trkpt>
      <trkpt lat="47.13178" lon="6.07491">
        <ele>520.4</ele>
        <time>2026-05-24T07:06:29Z</time>
      </trkpt>
      <trkpt lat="47.13177" lon="6.07491">
        <ele>520.6</ele>
        <time>2026-05-24T07:06:30Z</time>
      </trkpt>
      <trkpt lat="47.13176" lon="6.07491">
        <ele>520.6</ele>
        <time>2026-05-24T07:06:31Z</time>
      </trkpt>
      <trkpt lat="47.13175" lon="6.0749">
        <ele>520.8</ele>
        <time>2026-05-24T07:06:32Z</time>
      </trkpt>
      <trkpt lat="47.13173" lon="6.0749">
        <ele>521</ele>
        <time>2026-05-24T07:06:33Z</time>
      </trkpt>
      <trkpt lat="47.13172" lon="6.0749">
        <ele>521</ele>
        <time>2026-05-24T07:06:34Z</time>
      </trkpt>
      <trkpt lat="47.1317" lon="6.0749">
        <ele>521.2</ele>
        <time>2026-05-24T07:06:35Z</time>
      </trkpt>
      <trkpt lat="47.13169" lon="6.0749">
        <ele>521.4</ele>
        <time>2026-05-24T07:06:36Z</time>
      </trkpt>
      <trkpt lat="47.13167" lon="6.07488">
        <ele>521.6</ele>
        <time>2026-05-24T07:06:37Z</time>
      </trkpt>
      <trkpt lat="47.13165" lon="6.07487">
        <ele>521.6</ele>
        <time>2026-05-24T07:06:38Z</time>
      </trkpt>
      <trkpt lat="47.13163" lon="6.07486">
        <ele>522.2</ele>
        <time>2026-05-24T07:06:39Z</time>
      </trkpt>
      <trkpt lat="47.13162" lon="6.07486">
        <ele>522.4</ele>
        <time>2026-05-24T07:06:40Z</time>
      </trkpt>
      <trkpt lat="47.13161" lon="6.07485">
        <ele>523</ele>
        <time>2026-05-24T07:06:41Z</time>
      </trkpt>
      <trkpt lat="47.1316" lon="6.07485">
        <ele>523</ele>
        <time>2026-05-24T07:06:42Z</time>
      </trkpt>
      <trkpt lat="47.13158" lon="6.07484">
        <ele>523.2</ele>
        <time>2026-05-24T07:06:43Z</time>
      </trkpt>
      <trkpt lat="47.13157" lon="6.07484">
        <ele>523.6</ele>
        <time>2026-05-24T07:06:44Z</time>
      </trkpt>
      <trkpt lat="47.13156" lon="6.07484">
        <ele>524</ele>
        <time>2026-05-24T07:06:45Z</time>
      </trkpt>
      <trkpt lat="47.13154" lon="6.07483">
        <ele>524.2</ele>
        <time>2026-05-24T07:06:46Z</time>
      </trkpt>
      <trkpt lat="47.13153" lon="6.07483">
        <ele>524.2</ele>
        <time>2026-05-24T07:06:47Z</time>
      </trkpt>
      <trkpt lat="47.13151" lon="6.07483">
        <ele>524.4</ele>
        <time>2026-05-24T07:06:48Z</time>
      </trkpt>
      <trkpt lat="47.1315" lon="6.07482">
        <ele>524.4</ele>
        <time>2026-05-24T07:06:49Z</time>
      </trkpt>
      <trkpt lat="47.13149" lon="6.07483">
        <ele>524.4</ele>
        <time>2026-05-24T07:06:50Z</time>
      </trkpt>
      <trkpt lat="47.13147" lon="6.07483">
        <ele>524.8</ele>
        <time>2026-05-24T07:06:51Z</time>
      </trkpt>
      <trkpt lat="47.13145" lon="6.07484">
        <ele>525</ele>
        <time>2026-05-24T07:06:52Z</time>
      </trkpt>
      <trkpt lat="47.13144" lon="6.07485">
        <ele>525</ele>
        <time>2026-05-24T07:06:53Z</time>
      </trkpt>
      <trkpt lat="47.13142" lon="6.07485">
        <ele>525.2</ele>
        <time>2026-05-24T07:06:54Z</time>
      </trkpt>
      <trkpt lat="47.13141" lon="6.07486">
        <ele>525.4</ele>
        <time>2026-05-24T07:06:55Z</time>
      </trkpt>
      <trkpt lat="47.1314" lon="6.07487">
        <ele>525.6</ele>
        <time>2026-05-24T07:06:56Z</time>
      </trkpt>
      <trkpt lat="47.13139" lon="6.07488">
        <ele>525.8</ele>
        <time>2026-05-24T07:06:57Z</time>
      </trkpt>
      <trkpt lat="47.13138" lon="6.07489">
        <ele>526</ele>
        <time>2026-05-24T07:06:58Z</time>
      </trkpt>
      <trkpt lat="47.13138" lon="6.0749">
        <ele>526.2</ele>
        <time>2026-05-24T07:06:59Z</time>
      </trkpt>
      <trkpt lat="47.13137" lon="6.07492">
        <ele>526.4</ele>
        <time>2026-05-24T07:07:00Z</time>
      </trkpt>
      <trkpt lat="47.13136" lon="6.07493">
        <ele>526.4</ele>
        <time>2026-05-24T07:07:01Z</time>
      </trkpt>
      <trkpt lat="47.13135" lon="6.07495">
        <ele>526.6</ele>
        <time>2026-05-24T07:07:02Z</time>
      </trkpt>
      <trkpt lat="47.13134" lon="6.07497">
        <ele>526.6</ele>
        <time>2026-05-24T07:07:03Z</time>
      </trkpt>
      <trkpt lat="47.13133" lon="6.07497">
        <ele>526.6</ele>
        <time>2026-05-24T07:07:04Z</time>
      </trkpt>
      <trkpt lat="47.13133" lon="6.07499">
        <ele>526.8</ele>
        <time>2026-05-24T07:07:05Z</time>
      </trkpt>
      <trkpt lat="47.13132" lon="6.075">
        <ele>527</ele>
        <time>2026-05-24T07:07:06Z</time>
      </trkpt>
      <trkpt lat="47.13132" lon="6.07501">
        <ele>527</ele>
        <time>2026-05-24T07:07:07Z</time>
      </trkpt>
      <trkpt lat="47.13131" lon="6.07502">
        <ele>527</ele>
        <time>2026-05-24T07:07:08Z</time>
      </trkpt>
      <trkpt lat="47.13131" lon="6.07504">
        <ele>527.2</ele>
        <time>2026-05-24T07:07:09Z</time>
      </trkpt>
      <trkpt lat="47.1313" lon="6.07504">
        <ele>527.2</ele>
        <time>2026-05-24T07:07:10Z</time>
      </trkpt>
      <trkpt lat="47.1313" lon="6.07506">
        <ele>527.6</ele>
        <time>2026-05-24T07:07:11Z</time>
      </trkpt>
      <trkpt lat="47.13129" lon="6.07507">
        <ele>527.6</ele>
        <time>2026-05-24T07:07:12Z</time>
      </trkpt>
      <trkpt lat="47.13129" lon="6.07509">
        <ele>527.8</ele>
        <time>2026-05-24T07:07:13Z</time>
      </trkpt>
      <trkpt lat="47.13128" lon="6.07511">
        <ele>528</ele>
        <time>2026-05-24T07:07:14Z</time>
      </trkpt>
      <trkpt lat="47.13127" lon="6.07512">
        <ele>528.2</ele>
        <time>2026-05-24T07:07:15Z</time>
      </trkpt>
      <trkpt lat="47.13126" lon="6.07514">
        <ele>528.4</ele>
        <time>2026-05-24T07:07:16Z</time>
      </trkpt>
      <trkpt lat="47.13125" lon="6.07516">
        <ele>528.6</ele>
        <time>2026-05-24T07:07:17Z</time>
      </trkpt>
      <trkpt lat="47.13124" lon="6.07517">
        <ele>528.6</ele>
        <time>2026-05-24T07:07:18Z</time>
      </trkpt>
      <trkpt lat="47.13123" lon="6.07519">
        <ele>528.6</ele>
        <time>2026-05-24T07:07:19Z</time>
      </trkpt>
      <trkpt lat="47.13121" lon="6.0752">
        <ele>529</ele>
        <time>2026-05-24T07:07:20Z</time>
      </trkpt>
      <trkpt lat="47.1312" lon="6.07521">
        <ele>529</ele>
        <time>2026-05-24T07:07:21Z</time>
      </trkpt>
      <trkpt lat="47.13119" lon="6.07524">
        <ele>529</ele>
        <time>2026-05-24T07:07:22Z</time>
      </trkpt>
      <trkpt lat="47.13118" lon="6.07526">
        <ele>529.2</ele>
        <time>2026-05-24T07:07:23Z</time>
      </trkpt>
      <trkpt lat="47.13117" lon="6.07528">
        <ele>529.4</ele>
        <time>2026-05-24T07:07:24Z</time>
      </trkpt>
      <trkpt lat="47.13116" lon="6.07531">
        <ele>529.4</ele>
        <time>2026-05-24T07:07:25Z</time>
      </trkpt>
      <trkpt lat="47.13115" lon="6.07533">
        <ele>529.4</ele>
        <time>2026-05-24T07:07:26Z</time>
      </trkpt>
      <trkpt lat="47.13114" lon="6.07535">
        <ele>529.6</ele>
        <time>2026-05-24T07:07:27Z</time>
      </trkpt>
      <trkpt lat="47.13113" lon="6.07538">
        <ele>529.8</ele>
        <time>2026-05-24T07:07:28Z</time>
      </trkpt>
      <trkpt lat="47.13112" lon="6.07539">
        <ele>530.2</ele>
        <time>2026-05-24T07:07:29Z</time>
      </trkpt>
      <trkpt lat="47.13111" lon="6.07541">
        <ele>530.4</ele>
        <time>2026-05-24T07:07:30Z</time>
      </trkpt>
      <trkpt lat="47.13111" lon="6.07543">
        <ele>530.6</ele>
        <time>2026-05-24T07:07:31Z</time>
      </trkpt>
      <trkpt lat="47.1311" lon="6.07544">
        <ele>530.8</ele>
        <time>2026-05-24T07:07:32Z</time>
      </trkpt>
      <trkpt lat="47.13109" lon="6.07547">
        <ele>531</ele>
        <time>2026-05-24T07:07:33Z</time>
      </trkpt>
      <trkpt lat="47.13108" lon="6.0755">
        <ele>531.2</ele>
        <time>2026-05-24T07:07:34Z</time>
      </trkpt>
      <trkpt lat="47.13108" lon="6.07553">
        <ele>531.2</ele>
        <time>2026-05-24T07:07:35Z</time>
      </trkpt>
      <trkpt lat="47.13107" lon="6.07555">
        <ele>531.4</ele>
        <time>2026-05-24T07:07:36Z</time>
      </trkpt>
      <trkpt lat="47.13107" lon="6.07557">
        <ele>531.6</ele>
        <time>2026-05-24T07:07:37Z</time>
      </trkpt>
      <trkpt lat="47.13106" lon="6.0756">
        <ele>531.8</ele>
        <time>2026-05-24T07:07:38Z</time>
      </trkpt>
      <trkpt lat="47.13105" lon="6.07562">
        <ele>532</ele>
        <time>2026-05-24T07:07:39Z</time>
      </trkpt>
      <trkpt lat="47.13104" lon="6.07564">
        <ele>532.2</ele>
        <time>2026-05-24T07:07:40Z</time>
      </trkpt>
      <trkpt lat="47.13104" lon="6.07566">
        <ele>532.4</ele>
        <time>2026-05-24T07:07:41Z</time>
      </trkpt>
      <trkpt lat="47.13103" lon="6.07568">
        <ele>532.6</ele>
        <time>2026-05-24T07:07:42Z</time>
      </trkpt>
      <trkpt lat="47.13103" lon="6.0757">
        <ele>532.8</ele>
        <time>2026-05-24T07:07:43Z</time>
      </trkpt>
      <trkpt lat="47.13102" lon="6.07572">
        <ele>532.8</ele>
        <time>2026-05-24T07:07:44Z</time>
      </trkpt>
      <trkpt lat="47.13102" lon="6.07574">
        <ele>533</ele>
        <time>2026-05-24T07:07:45Z</time>
      </trkpt>
      <trkpt lat="47.13102" lon="6.07576">
        <ele>533.2</ele>
        <time>2026-05-24T07:07:46Z</time>
      </trkpt>
      <trkpt lat="47.13101" lon="6.07578">
        <ele>533.4</ele>
        <time>2026-05-24T07:07:47Z</time>
      </trkpt>
      <trkpt lat="47.13102" lon="6.07579">
        <ele>533.4</ele>
        <time>2026-05-24T07:07:48Z</time>
      </trkpt>
      <trkpt lat="47.13103" lon="6.07581">
        <ele>533.6</ele>
        <time>2026-05-24T07:07:49Z</time>
      </trkpt>
      <trkpt lat="47.13103" lon="6.07583">
        <ele>533.6</ele>
        <time>2026-05-24T07:07:50Z</time>
      </trkpt>
      <trkpt lat="47.13104" lon="6.07584">
        <ele>533.8</ele>
        <time>2026-05-24T07:07:51Z</time>
      </trkpt>
      <trkpt lat="47.13102" lon="6.07586">
        <ele>534</ele>
        <time>2026-05-24T07:07:52Z</time>
      </trkpt>
      <trkpt lat="47.13102" lon="6.07588">
        <ele>534</ele>
        <time>2026-05-24T07:07:53Z</time>
      </trkpt>
      <trkpt lat="47.13101" lon="6.07589">
        <ele>534.2</ele>
        <time>2026-05-24T07:07:54Z</time>
      </trkpt>
      <trkpt lat="47.131" lon="6.07591">
        <ele>534.2</ele>
        <time>2026-05-24T07:07:55Z</time>
      </trkpt>
      <trkpt lat="47.13074" lon="6.07665">
        <ele>539.8</ele>
        <time>2026-05-24T07:08:42Z</time>
      </trkpt>
      <trkpt lat="47.13072" lon="6.07668">
        <ele>539.8</ele>
        <time>2026-05-24T07:08:43Z</time>
      </trkpt>
      <trkpt lat="47.1307" lon="6.0767">
        <ele>540.2</ele>
        <time>2026-05-24T07:08:44Z</time>
      </trkpt>
      <trkpt lat="47.13069" lon="6.07673">
        <ele>540.4</ele>
        <time>2026-05-24T07:08:45Z</time>
      </trkpt>
      <trkpt lat="47.13067" lon="6.07675">
        <ele>540.6</ele>
        <time>2026-05-24T07:08:46Z</time>
      </trkpt>
      <trkpt lat="47.13066" lon="6.07677">
        <ele>540.8</ele>
        <time>2026-05-24T07:08:47Z</time>
      </trkpt>
      <trkpt lat="47.13065" lon="6.07679">
        <ele>540.8</ele>
        <time>2026-05-24T07:08:48Z</time>
      </trkpt>
      <trkpt lat="47.13064" lon="6.07681">
        <ele>541</ele>
        <time>2026-05-24T07:08:49Z</time>
      </trkpt>
      <trkpt lat="47.13062" lon="6.07683">
        <ele>541.4</ele>
        <time>2026-05-24T07:08:50Z</time>
      </trkpt>
      <trkpt lat="47.1306" lon="6.07686">
        <ele>541.8</ele>
        <time>2026-05-24T07:08:51Z</time>
      </trkpt>
      <trkpt lat="47.13059" lon="6.07688">
        <ele>542.2</ele>
        <time>2026-05-24T07:08:52Z</time>
      </trkpt>
      <trkpt lat="47.13058" lon="6.0769">
        <ele>542.8</ele>
        <time>2026-05-24T07:08:53Z</time>
      </trkpt>
      <trkpt lat="47.13057" lon="6.07691">
        <ele>543</ele>
        <time>2026-05-24T07:08:54Z</time>
      </trkpt>
      <trkpt lat="47.13056" lon="6.07693">
        <ele>543.2</ele>
        <time>2026-05-24T07:08:55Z</time>
      </trkpt>
      <trkpt lat="47.13056" lon="6.07694">
        <ele>543.6</ele>
        <time>2026-05-24T07:08:56Z</time>
      </trkpt>
      <trkpt lat="47.13055" lon="6.07695">
        <ele>543.8</ele>
        <time>2026-05-24T07:08:57Z</time>
      </trkpt>
      <trkpt lat="47.13054" lon="6.07697">
        <ele>544</ele>
        <time>2026-05-24T07:08:58Z</time>
      </trkpt>
      <trkpt lat="47.13052" lon="6.07699">
        <ele>544.2</ele>
        <time>2026-05-24T07:08:59Z</time>
      </trkpt>
      <trkpt lat="47.13051" lon="6.07701">
        <ele>544.6</ele>
        <time>2026-05-24T07:09:00Z</time>
      </trkpt>
      <trkpt lat="47.13049" lon="6.07703">
        <ele>545</ele>
        <time>2026-05-24T07:09:01Z</time>
      </trkpt>
      <trkpt lat="47.13048" lon="6.07705">
        <ele>545</ele>
        <time>2026-05-24T07:09:02Z</time>
      </trkpt>
      <trkpt lat="47.13047" lon="6.07707">
        <ele>545.2</ele>
        <time>2026-05-24T07:09:03Z</time>
      </trkpt>
      <trkpt lat="47.13046" lon="6.07709">
        <ele>545.4</ele>
        <time>2026-05-24T07:09:04Z</time>
      </trkpt>
      <trkpt lat="47.13046" lon="6.07711">
        <ele>545.8</ele>
        <time>2026-05-24T07:09:05Z</time>
      </trkpt>
      <trkpt lat="47.13044" lon="6.07712">
        <ele>546</ele>
        <time>2026-05-24T07:09:06Z</time>
      </trkpt>
      <trkpt lat="47.13042" lon="6.07714">
        <ele>546.2</ele>
        <time>2026-05-24T07:09:07Z</time>
      </trkpt>
      <trkpt lat="47.13041" lon="6.07717">
        <ele>546.4</ele>
        <time>2026-05-24T07:09:08Z</time>
      </trkpt>
      <trkpt lat="47.1304" lon="6.07719">
        <ele>546.6</ele>
        <time>2026-05-24T07:09:09Z</time>
      </trkpt>
      <trkpt lat="47.13039" lon="6.07722">
        <ele>546.6</ele>
        <time>2026-05-24T07:09:10Z</time>
      </trkpt>
      <trkpt lat="47.13038" lon="6.07724">
        <ele>546.8</ele>
        <time>2026-05-24T07:09:11Z</time>
      </trkpt>
      <trkpt lat="47.13037" lon="6.07726">
        <ele>547</ele>
        <time>2026-05-24T07:09:12Z</time>
      </trkpt>
      <trkpt lat="47.13037" lon="6.07728">
        <ele>547.2</ele>
        <time>2026-05-24T07:09:13Z</time>
      </trkpt>
      <trkpt lat="47.13037" lon="6.0773">
        <ele>547.2</ele>
        <time>2026-05-24T07:09:14Z</time>
      </trkpt>
      <trkpt lat="47.13037" lon="6.07732">
        <ele>547.8</ele>
        <time>2026-05-24T07:09:15Z</time>
      </trkpt>
      <trkpt lat="47.13037" lon="6.07733">
        <ele>548.2</ele>
        <time>2026-05-24T07:09:16Z</time>
      </trkpt>
      <trkpt lat="47.13036" lon="6.07735">
        <ele>548.4</ele>
        <time>2026-05-24T07:09:17Z</time>
      </trkpt>
      <trkpt lat="47.13035" lon="6.07738">
        <ele>548.6</ele>
        <time>2026-05-24T07:09:18Z</time>
      </trkpt>
      <trkpt lat="47.13034" lon="6.07739">
        <ele>548.8</ele>
        <time>2026-05-24T07:09:19Z</time>
      </trkpt>
      <trkpt lat="47.13033" lon="6.07742">
        <ele>549</ele>
        <time>2026-05-24T07:09:20Z</time>
      </trkpt>
      <trkpt lat="47.13032" lon="6.07744">
        <ele>549.4</ele>
        <time>2026-05-24T07:09:21Z</time>
      </trkpt>
      <trkpt lat="47.13031" lon="6.07747">
        <ele>549.4</ele>
        <time>2026-05-24T07:09:22Z</time>
      </trkpt>
      <trkpt lat="47.1303" lon="6.07749">
        <ele>549.6</ele>
        <time>2026-05-24T07:09:23Z</time>
      </trkpt>
      <trkpt lat="47.1303" lon="6.07751">
        <ele>549.8</ele>
        <time>2026-05-24T07:09:24Z</time>
      </trkpt>
      <trkpt lat="47.13029" lon="6.07753">
        <ele>549.8</ele>
        <time>2026-05-24T07:09:25Z</time>
      </trkpt>
      <trkpt lat="47.13029" lon="6.07755">
        <ele>550.2</ele>
        <time>2026-05-24T07:09:26Z</time>
      </trkpt>
      <trkpt lat="47.13028" lon="6.07757">
        <ele>550.2</ele>
        <time>2026-05-24T07:09:27Z</time>
      </trkpt>
      <trkpt lat="47.13027" lon="6.0776">
        <ele>550.6</ele>
        <time>2026-05-24T07:09:28Z</time>
      </trkpt>
      <trkpt lat="47.13026" lon="6.07762">
        <ele>550.8</ele>
        <time>2026-05-24T07:09:29Z</time>
      </trkpt>
      <trkpt lat="47.13026" lon="6.07764">
        <ele>551</ele>
        <time>2026-05-24T07:09:30Z</time>
      </trkpt>
      <trkpt lat="47.13026" lon="6.07766">
        <ele>551.2</ele>
        <time>2026-05-24T07:09:31Z</time>
      </trkpt>
      <trkpt lat="47.13026" lon="6.07767">
        <ele>551.2</ele>
        <time>2026-05-24T07:09:32Z</time>
      </trkpt>
      <trkpt lat="47.13025" lon="6.0777">
        <ele>551.2</ele>
        <time>2026-05-24T07:09:33Z</time>
      </trkpt>
      <trkpt lat="47.13025" lon="6.07773">
        <ele>551.4</ele>
        <time>2026-05-24T07:09:34Z</time>
      </trkpt>
      <trkpt lat="47.13026" lon="6.07775">
        <ele>551.4</ele>
        <time>2026-05-24T07:09:35Z</time>
      </trkpt>
      <trkpt lat="47.13026" lon="6.07777">
        <ele>551.6</ele>
        <time>2026-05-24T07:09:36Z</time>
      </trkpt>
      <trkpt lat="47.13026" lon="6.07778">
        <ele>551.8</ele>
        <time>2026-05-24T07:09:37Z</time>
      </trkpt>
      <trkpt lat="47.13026" lon="6.07779">
        <ele>552</ele>
        <time>2026-05-24T07:09:38Z</time>
      </trkpt>
      <trkpt lat="47.13026" lon="6.07781">
        <ele>552</ele>
        <time>2026-05-24T07:09:39Z</time>
      </trkpt>
      <trkpt lat="47.13027" lon="6.07783">
        <ele>552.2</ele>
        <time>2026-05-24T07:09:40Z</time>
      </trkpt>
      <trkpt lat="47.13027" lon="6.07785">
        <ele>552.4</ele>
        <time>2026-05-24T07:09:41Z</time>
      </trkpt>
      <trkpt lat="47.13027" lon="6.07786">
        <ele>552.6</ele>
        <time>2026-05-24T07:09:42Z</time>
      </trkpt>
      <trkpt lat="47.13027" lon="6.07788">
        <ele>552.6</ele>
        <time>2026-05-24T07:09:43Z</time>
      </trkpt>
      <trkpt lat="47.13028" lon="6.0779">
        <ele>552.8</ele>
        <time>2026-05-24T07:09:44Z</time>
      </trkpt>
      <trkpt lat="47.13028" lon="6.07793">
        <ele>552.8</ele>
        <time>2026-05-24T07:09:45Z</time>
      </trkpt>
      <trkpt lat="47.13028" lon="6.07796">
        <ele>553</ele>
        <time>2026-05-24T07:09:46Z</time>
      </trkpt>
      <trkpt lat="47.13029" lon="6.07799">
        <ele>553.2</ele>
        <time>2026-05-24T07:09:47Z</time>
      </trkpt>
      <trkpt lat="47.13029" lon="6.07801">
        <ele>553.2</ele>
        <time>2026-05-24T07:09:48Z</time>
      </trkpt>
      <trkpt lat="47.1303" lon="6.07803">
        <ele>553.2</ele>
        <time>2026-05-24T07:09:49Z</time>
      </trkpt>
      <trkpt lat="47.1303" lon="6.07806">
        <ele>553</ele>
        <time>2026-05-24T07:09:50Z</time>
      </trkpt>
      <trkpt lat="47.1303" lon="6.07808">
        <ele>553.2</ele>
        <time>2026-05-24T07:09:51Z</time>
      </trkpt>
      <trkpt lat="47.13031" lon="6.07809">
        <ele>553.2</ele>
        <time>2026-05-24T07:09:52Z</time>
      </trkpt>
      <trkpt lat="47.13031" lon="6.07811">
        <ele>553.2</ele>
        <time>2026-05-24T07:09:53Z</time>
      </trkpt>
      <trkpt lat="47.13032" lon="6.07812">
        <ele>553.2</ele>
        <time>2026-05-24T07:09:54Z</time>
      </trkpt>
      <trkpt lat="47.13033" lon="6.07814">
        <ele>553.2</ele>
        <time>2026-05-24T07:09:55Z</time>
      </trkpt>
      <trkpt lat="47.13033" lon="6.07815">
        <ele>553.2</ele>
        <time>2026-05-24T07:09:56Z</time>
      </trkpt>
      <trkpt lat="47.13034" lon="6.07818">
        <ele>553.2</ele>
        <time>2026-05-24T07:09:57Z</time>
      </trkpt>
      <trkpt lat="47.13034" lon="6.0782">
        <ele>553.4</ele>
        <time>2026-05-24T07:09:58Z</time>
      </trkpt>
      <trkpt lat="47.13035" lon="6.07823">
        <ele>553.2</ele>
        <time>2026-05-24T07:09:59Z</time>
      </trkpt>
      <trkpt lat="47.13035" lon="6.07824">
        <ele>553.2</ele>
        <time>2026-05-24T07:10:00Z</time>
      </trkpt>
      <trkpt lat="47.13035" lon="6.07826">
        <ele>553.2</ele>
        <time>2026-05-24T07:10:01Z</time>
      </trkpt>
      <trkpt lat="47.13036" lon="6.07828">
        <ele>553.2</ele>
        <time>2026-05-24T07:10:02Z</time>
      </trkpt>
      <trkpt lat="47.13036" lon="6.0783">
        <ele>553.2</ele>
        <time>2026-05-24T07:10:03Z</time>
      </trkpt>
      <trkpt lat="47.13036" lon="6.07832">
        <ele>553</ele>
        <time>2026-05-24T07:10:04Z</time>
      </trkpt>
      <trkpt lat="47.13037" lon="6.07835">
        <ele>553</ele>
        <time>2026-05-24T07:10:05Z</time>
      </trkpt>
      <trkpt lat="47.13038" lon="6.07839">
        <ele>553.2</ele>
        <time>2026-05-24T07:10:06Z</time>
      </trkpt>
      <trkpt lat="47.13039" lon="6.07842">
        <ele>553</ele>
        <time>2026-05-24T07:10:07Z</time>
      </trkpt>
      <trkpt lat="47.1304" lon="6.07846">
        <ele>553</ele>
        <time>2026-05-24T07:10:08Z</time>
      </trkpt>
      <trkpt lat="47.13041" lon="6.0785">
        <ele>553</ele>
        <time>2026-05-24T07:10:09Z</time>
      </trkpt>
      <trkpt lat="47.13043" lon="6.07855">
        <ele>553</ele>
        <time>2026-05-24T07:10:10Z</time>
      </trkpt>
      <trkpt lat="47.13044" lon="6.0786">
        <ele>553</ele>
        <time>2026-05-24T07:10:11Z</time>
      </trkpt>
      <trkpt lat="47.13045" lon="6.07863">
        <ele>553</ele>
        <time>2026-05-24T07:10:12Z</time>
      </trkpt>
      <trkpt lat="47.13045" lon="6.07865">
        <ele>552.8</ele>
        <time>2026-05-24T07:10:13Z</time>
      </trkpt>
      <trkpt lat="47.13046" lon="6.07868">
        <ele>552.4</ele>
        <time>2026-05-24T07:10:14Z</time>
      </trkpt>
      <trkpt lat="47.13048" lon="6.07869">
        <ele>552.4</ele>
        <time>2026-05-24T07:10:15Z</time>
      </trkpt>
      <trkpt lat="47.13048" lon="6.07871">
        <ele>552.2</ele>
        <time>2026-05-24T07:10:16Z</time>
      </trkpt>
      <trkpt lat="47.13048" lon="6.07872">
        <ele>552</ele>
        <time>2026-05-24T07:10:17Z</time>
      </trkpt>
      <trkpt lat="47.13048" lon="6.07874">
        <ele>551.4</ele>
        <time>2026-05-24T07:10:18Z</time>
      </trkpt>
      <trkpt lat="47.13059" lon="6.07927">
        <ele>551</ele>
        <time>2026-05-24T07:11:16Z</time>
      </trkpt>
      <trkpt lat="47.13059" lon="6.07931">
        <ele>551</ele>
        <time>2026-05-24T07:11:17Z</time>
      </trkpt>
      <trkpt lat="47.13059" lon="6.07935">
        <ele>551</ele>
        <time>2026-05-24T07:11:18Z</time>
      </trkpt>
      <trkpt lat="47.1306" lon="6.07939">
        <ele>551</ele>
        <time>2026-05-24T07:11:19Z</time>
      </trkpt>
      <trkpt lat="47.13062" lon="6.07943">
        <ele>551.2</ele>
        <time>2026-05-24T07:11:20Z</time>
      </trkpt>
      <trkpt lat="47.13063" lon="6.07947">
        <ele>551.2</ele>
        <time>2026-05-24T07:11:21Z</time>
      </trkpt>
      <trkpt lat="47.13064" lon="6.07952">
        <ele>551.2</ele>
        <time>2026-05-24T07:11:22Z</time>
      </trkpt>
      <trkpt lat="47.13064" lon="6.07957">
        <ele>551.4</ele>
        <time>2026-05-24T07:11:23Z</time>
      </trkpt>
      <trkpt lat="47.13065" lon="6.07961">
        <ele>551.2</ele>
        <time>2026-05-24T07:11:24Z</time>
      </trkpt>
      <trkpt lat="47.13065" lon="6.07965">
        <ele>551.4</ele>
        <time>2026-05-24T07:11:25Z</time>
      </trkpt>
      <trkpt lat="47.13065" lon="6.07968">
        <ele>551.4</ele>
        <time>2026-05-24T07:11:26Z</time>
      </trkpt>
      <trkpt lat="47.13066" lon="6.07972">
        <ele>551.4</ele>
        <time>2026-05-24T07:11:27Z</time>
      </trkpt>
      <trkpt lat="47.13067" lon="6.07975">
        <ele>551.4</ele>
        <time>2026-05-24T07:11:28Z</time>
      </trkpt>
      <trkpt lat="47.13067" lon="6.07979">
        <ele>551.4</ele>
        <time>2026-05-24T07:11:29Z</time>
      </trkpt>
      <trkpt lat="47.13068" lon="6.07982">
        <ele>551.6</ele>
        <time>2026-05-24T07:11:30Z</time>
      </trkpt>
      <trkpt lat="47.13068" lon="6.07986">
        <ele>551.8</ele>
        <time>2026-05-24T07:11:31Z</time>
      </trkpt>
      <trkpt lat="47.13069" lon="6.07989">
        <ele>551.8</ele>
        <time>2026-05-24T07:11:32Z</time>
      </trkpt>
      <trkpt lat="47.13071" lon="6.07992">
        <ele>552.2</ele>
        <time>2026-05-24T07:11:33Z</time>
      </trkpt>
      <trkpt lat="47.13071" lon="6.07995">
        <ele>552.4</ele>
        <time>2026-05-24T07:11:34Z</time>
      </trkpt>
      <trkpt lat="47.13072" lon="6.07998">
        <ele>552.4</ele>
        <time>2026-05-24T07:11:35Z</time>
      </trkpt>
      <trkpt lat="47.13073" lon="6.08001">
        <ele>552.6</ele>
        <time>2026-05-24T07:11:36Z</time>
      </trkpt>
      <trkpt lat="47.13074" lon="6.08004">
        <ele>552.6</ele>
        <time>2026-05-24T07:11:37Z</time>
      </trkpt>
      <trkpt lat="47.13075" lon="6.08009">
        <ele>553</ele>
        <time>2026-05-24T07:11:38Z</time>
      </trkpt>
      <trkpt lat="47.13075" lon="6.08014">
        <ele>553</ele>
        <time>2026-05-24T07:11:39Z</time>
      </trkpt>
      <trkpt lat="47.13076" lon="6.08018">
        <ele>553.2</ele>
        <time>2026-05-24T07:11:40Z</time>
      </trkpt>
      <trkpt lat="47.13077" lon="6.08023">
        <ele>553.4</ele>
        <time>2026-05-24T07:11:41Z</time>
      </trkpt>
      <trkpt lat="47.13078" lon="6.08028">
        <ele>553.4</ele>
        <time>2026-05-24T07:11:42Z</time>
      </trkpt>
      <trkpt lat="47.13079" lon="6.08033">
        <ele>553.4</ele>
        <time>2026-05-24T07:11:43Z</time>
      </trkpt>
      <trkpt lat="47.13079" lon="6.08037">
        <ele>553.6</ele>
        <time>2026-05-24T07:11:44Z</time>
      </trkpt>
      <trkpt lat="47.13079" lon="6.08042">
        <ele>553.6</ele>
        <time>2026-05-24T07:11:45Z</time>
      </trkpt>
      <trkpt lat="47.1308" lon="6.08046">
        <ele>553.6</ele>
        <time>2026-05-24T07:11:46Z</time>
      </trkpt>
      <trkpt lat="47.13081" lon="6.0805">
        <ele>553.6</ele>
        <time>2026-05-24T07:11:47Z</time>
      </trkpt>
      <trkpt lat="47.13082" lon="6.08055">
        <ele>553.6</ele>
        <time>2026-05-24T07:11:48Z</time>
      </trkpt>
      <trkpt lat="47.13083" lon="6.08061">
        <ele>553.8</ele>
        <time>2026-05-24T07:11:49Z</time>
      </trkpt>
      <trkpt lat="47.13083" lon="6.08066">
        <ele>554</ele>
        <time>2026-05-24T07:11:50Z</time>
      </trkpt>
      <trkpt lat="47.13083" lon="6.08073">
        <ele>554</ele>
        <time>2026-05-24T07:11:51Z</time>
      </trkpt>
      <trkpt lat="47.13084" lon="6.08079">
        <ele>554</ele>
        <time>2026-05-24T07:11:52Z</time>
      </trkpt>
      <trkpt lat="47.13085" lon="6.08085">
        <ele>554.2</ele>
        <time>2026-05-24T07:11:53Z</time>
      </trkpt>
      <trkpt lat="47.13085" lon="6.0809">
        <ele>554.4</ele>
        <time>2026-05-24T07:11:54Z</time>
      </trkpt>
      <trkpt lat="47.13086" lon="6.08095">
        <ele>554.4</ele>
        <time>2026-05-24T07:11:55Z</time>
      </trkpt>
      <trkpt lat="47.13086" lon="6.081">
        <ele>554.6</ele>
        <time>2026-05-24T07:11:56Z</time>
      </trkpt>
      <trkpt lat="47.13086" lon="6.08105">
        <ele>554.8</ele>
        <time>2026-05-24T07:11:57Z</time>
      </trkpt>
      <trkpt lat="47.13085" lon="6.08109">
        <ele>554.8</ele>
        <time>2026-05-24T07:11:58Z</time>
      </trkpt>
      <trkpt lat="47.13085" lon="6.08113">
        <ele>554.8</ele>
        <time>2026-05-24T07:11:59Z</time>
      </trkpt>
      <trkpt lat="47.13084" lon="6.08117">
        <ele>554.8</ele>
        <time>2026-05-24T07:12:00Z</time>
      </trkpt>
      <trkpt lat="47.13084" lon="6.0812">
        <ele>555</ele>
        <time>2026-05-24T07:12:01Z</time>
      </trkpt>
      <trkpt lat="47.13083" lon="6.08123">
        <ele>555.2</ele>
        <time>2026-05-24T07:12:02Z</time>
      </trkpt>
      <trkpt lat="47.13083" lon="6.08126">
        <ele>555.2</ele>
        <time>2026-05-24T07:12:03Z</time>
      </trkpt>
      <trkpt lat="47.13083" lon="6.08128">
        <ele>555.6</ele>
        <time>2026-05-24T07:12:04Z</time>
      </trkpt>
      <trkpt lat="47.13084" lon="6.0813">
        <ele>556</ele>
        <time>2026-05-24T07:12:05Z</time>
      </trkpt>
      <trkpt lat="47.13085" lon="6.08132">
        <ele>556.4</ele>
        <time>2026-05-24T07:12:06Z</time>
      </trkpt>
      <trkpt lat="47.13085" lon="6.08134">
        <ele>556.6</ele>
        <time>2026-05-24T07:12:07Z</time>
      </trkpt>
      <trkpt lat="47.13085" lon="6.08136">
        <ele>557</ele>
        <time>2026-05-24T07:12:08Z</time>
      </trkpt>
      <trkpt lat="47.13085" lon="6.08139">
        <ele>557.2</ele>
        <time>2026-05-24T07:12:09Z</time>
      </trkpt>
      <trkpt lat="47.13085" lon="6.08142">
        <ele>557.2</ele>
        <time>2026-05-24T07:12:10Z</time>
      </trkpt>
      <trkpt lat="47.13086" lon="6.08144">
        <ele>557.4</ele>
        <time>2026-05-24T07:12:11Z</time>
      </trkpt>
      <trkpt lat="47.13085" lon="6.08147">
        <ele>557.4</ele>
        <time>2026-05-24T07:12:12Z</time>
      </trkpt>
      <trkpt lat="47.13086" lon="6.0815">
        <ele>557.6</ele>
        <time>2026-05-24T07:12:13Z</time>
      </trkpt>
      <trkpt lat="47.13087" lon="6.08153">
        <ele>557.8</ele>
        <time>2026-05-24T07:12:14Z</time>
      </trkpt>
      <trkpt lat="47.13087" lon="6.08157">
        <ele>557.8</ele>
        <time>2026-05-24T07:12:15Z</time>
      </trkpt>
      <trkpt lat="47.13087" lon="6.08159">
        <ele>557.8</ele>
        <time>2026-05-24T07:12:16Z</time>
      </trkpt>
      <trkpt lat="47.13087" lon="6.08161">
        <ele>558</ele>
        <time>2026-05-24T07:12:17Z</time>
      </trkpt>
      <trkpt lat="47.13087" lon="6.08164">
        <ele>558.2</ele>
        <time>2026-05-24T07:12:18Z</time>
      </trkpt>
      <trkpt lat="47.13088" lon="6.08166">
        <ele>558.2</ele>
        <time>2026-05-24T07:12:19Z</time>
      </trkpt>
      <trkpt lat="47.13089" lon="6.08168">
        <ele>558.4</ele>
        <time>2026-05-24T07:12:20Z</time>
      </trkpt>
      <trkpt lat="47.13089" lon="6.08171">
        <ele>558.6</ele>
        <time>2026-05-24T07:12:21Z</time>
      </trkpt>
      <trkpt lat="47.13089" lon="6.08175">
        <ele>558.8</ele>
        <time>2026-05-24T07:12:22Z</time>
      </trkpt>
      <trkpt lat="47.1309" lon="6.08177">
        <ele>559</ele>
        <time>2026-05-24T07:12:23Z</time>
      </trkpt>
      <trkpt lat="47.1309" lon="6.08181">
        <ele>559.2</ele>
        <time>2026-05-24T07:12:24Z</time>
      </trkpt>
      <trkpt lat="47.1309" lon="6.08184">
        <ele>559.2</ele>
        <time>2026-05-24T07:12:25Z</time>
      </trkpt>
      <trkpt lat="47.13091" lon="6.08186">
        <ele>559.2</ele>
        <time>2026-05-24T07:12:26Z</time>
      </trkpt>
      <trkpt lat="47.13091" lon="6.08188">
        <ele>559.2</ele>
        <time>2026-05-24T07:12:27Z</time>
      </trkpt>
      <trkpt lat="47.13091" lon="6.0819">
        <ele>559.4</ele>
        <time>2026-05-24T07:12:28Z</time>
      </trkpt>
      <trkpt lat="47.13092" lon="6.08192">
        <ele>559.6</ele>
        <time>2026-05-24T07:12:29Z</time>
      </trkpt>
      <trkpt lat="47.13092" lon="6.08194">
        <ele>559.8</ele>
        <time>2026-05-24T07:12:30Z</time>
      </trkpt>
      <trkpt lat="47.13093" lon="6.08196">
        <ele>559.8</ele>
        <time>2026-05-24T07:12:31Z</time>
      </trkpt>
      <trkpt lat="47.13094" lon="6.082">
        <ele>559.8</ele>
        <time>2026-05-24T07:12:32Z</time>
      </trkpt>
      <trkpt lat="47.13094" lon="6.08204">
        <ele>560</ele>
        <time>2026-05-24T07:12:33Z</time>
      </trkpt>
      <trkpt lat="47.13094" lon="6.08206">
        <ele>560</ele>
        <time>2026-05-24T07:12:34Z</time>
      </trkpt>
      <trkpt lat="47.13094" lon="6.08208">
        <ele>560.2</ele>
        <time>2026-05-24T07:12:35Z</time>
      </trkpt>
      <trkpt lat="47.13094" lon="6.08213">
        <ele>560.4</ele>
        <time>2026-05-24T07:12:36Z</time>
      </trkpt>
      <trkpt lat="47.13094" lon="6.08217">
        <ele>560.4</ele>
        <time>2026-05-24T07:12:37Z</time>
      </trkpt>
      <trkpt lat="47.13095" lon="6.0822">
        <ele>560.4</ele>
        <time>2026-05-24T07:12:38Z</time>
      </trkpt>
      <trkpt lat="47.13095" lon="6.08225">
        <ele>560.6</ele>
        <time>2026-05-24T07:12:39Z</time>
      </trkpt>
      <trkpt lat="47.13097" lon="6.08229">
        <ele>560.6</ele>
        <time>2026-05-24T07:12:40Z</time>
      </trkpt>
      <trkpt lat="47.13099" lon="6.08233">
        <ele>560.8</ele>
        <time>2026-05-24T07:12:41Z</time>
      </trkpt>
      <trkpt lat="47.13101" lon="6.08238">
        <ele>560.8</ele>
        <time>2026-05-24T07:12:42Z</time>
      </trkpt>
      <trkpt lat="47.13102" lon="6.08241">
        <ele>561</ele>
        <time>2026-05-24T07:12:43Z</time>
      </trkpt>
      <trkpt lat="47.13102" lon="6.08245">
        <ele>561</ele>
        <time>2026-05-24T07:12:44Z</time>
      </trkpt>
      <trkpt lat="47.13103" lon="6.0825">
        <ele>561.2</ele>
        <time>2026-05-24T07:12:45Z</time>
      </trkpt>
      <trkpt lat="47.13105" lon="6.08253">
        <ele>561.4</ele>
        <time>2026-05-24T07:12:46Z</time>
      </trkpt>
      <trkpt lat="47.13106" lon="6.08258">
        <ele>561.4</ele>
        <time>2026-05-24T07:12:47Z</time>
      </trkpt>
      <trkpt lat="47.13107" lon="6.08262">
        <ele>561.4</ele>
        <time>2026-05-24T07:12:48Z</time>
      </trkpt>
      <trkpt lat="47.13107" lon="6.08266">
        <ele>561.4</ele>
        <time>2026-05-24T07:12:49Z</time>
      </trkpt>
      <trkpt lat="47.13108" lon="6.0827">
        <ele>561.6</ele>
        <time>2026-05-24T07:12:50Z</time>
      </trkpt>
      <trkpt lat="47.13109" lon="6.08274">
        <ele>561.6</ele>
        <time>2026-05-24T07:12:51Z</time>
      </trkpt>
      <trkpt lat="47.1311" lon="6.08278">
        <ele>561.6</ele>
        <time>2026-05-24T07:12:52Z</time>
      </trkpt>
      <trkpt lat="47.13111" lon="6.08282">
        <ele>561.8</ele>
        <time>2026-05-24T07:12:53Z</time>
      </trkpt>
      <trkpt lat="47.13111" lon="6.08286">
        <ele>561.8</ele>
        <time>2026-05-24T07:12:54Z</time>
      </trkpt>
      <trkpt lat="47.13111" lon="6.0829">
        <ele>561.8</ele>
        <time>2026-05-24T07:12:55Z</time>
      </trkpt>
      <trkpt lat="47.13112" lon="6.08294">
        <ele>561.8</ele>
        <time>2026-05-24T07:12:56Z</time>
      </trkpt>
      <trkpt lat="47.13112" lon="6.08298">
        <ele>562</ele>
        <time>2026-05-24T07:12:57Z</time>
      </trkpt>
      <trkpt lat="47.13112" lon="6.08301">
        <ele>562</ele>
        <time>2026-05-24T07:12:58Z</time>
      </trkpt>
      <trkpt lat="47.13112" lon="6.08305">
        <ele>562</ele>
        <time>2026-05-24T07:12:59Z</time>
      </trkpt>
      <trkpt lat="47.13113" lon="6.08308">
        <ele>562.2</ele>
        <time>2026-05-24T07:13:00Z</time>
      </trkpt>
      <trkpt lat="47.13113" lon="6.0831">
        <ele>562.2</ele>
        <time>2026-05-24T07:13:01Z</time>
      </trkpt>
      <trkpt lat="47.13113" lon="6.08313">
        <ele>562.2</ele>
        <time>2026-05-24T07:13:02Z</time>
      </trkpt>
      <trkpt lat="47.13114" lon="6.08317">
        <ele>562.2</ele>
        <time>2026-05-24T07:13:03Z</time>
      </trkpt>
      <trkpt lat="47.13114" lon="6.0832">
        <ele>562.2</ele>
        <time>2026-05-24T07:13:04Z</time>
      </trkpt>
      <trkpt lat="47.13114" lon="6.08323">
        <ele>562.4</ele>
        <time>2026-05-24T07:13:05Z</time>
      </trkpt>
      <trkpt lat="47.13113" lon="6.08326">
        <ele>562.2</ele>
        <time>2026-05-24T07:13:06Z</time>
      </trkpt>
      <trkpt lat="47.13115" lon="6.08329">
        <ele>562.4</ele>
        <time>2026-05-24T07:13:07Z</time>
      </trkpt>
      <trkpt lat="47.13118" lon="6.08331">
        <ele>562.4</ele>
        <time>2026-05-24T07:13:08Z</time>
      </trkpt>
      <trkpt lat="47.13119" lon="6.08333">
        <ele>562.4</ele>
        <time>2026-05-24T07:13:09Z</time>
      </trkpt>
      <trkpt lat="47.1312" lon="6.08335">
        <ele>562.4</ele>
        <time>2026-05-24T07:13:10Z</time>
      </trkpt>
      <trkpt lat="47.13119" lon="6.08338">
        <ele>562.4</ele>
        <time>2026-05-24T07:13:11Z</time>
      </trkpt>
      <trkpt lat="47.13119" lon="6.08341">
        <ele>562.6</ele>
        <time>2026-05-24T07:13:12Z</time>
      </trkpt>
      <trkpt lat="47.13119" lon="6.08344">
        <ele>562.4</ele>
        <time>2026-05-24T07:13:13Z</time>
      </trkpt>
      <trkpt lat="47.13119" lon="6.08348">
        <ele>562.4</ele>
        <time>2026-05-24T07:13:14Z</time>
      </trkpt>
      <trkpt lat="47.13122" lon="6.08352">
        <ele>562.4</ele>
        <time>2026-05-24T07:13:15Z</time>
      </trkpt>
      <trkpt lat="47.13125" lon="6.08355">
        <ele>562.6</ele>
        <time>2026-05-24T07:13:16Z</time>
      </trkpt>
      <trkpt lat="47.13126" lon="6.08358">
        <ele>562.4</ele>
        <time>2026-05-24T07:13:17Z</time>
      </trkpt>
      <trkpt lat="47.13125" lon="6.08361">
        <ele>562.6</ele>
        <time>2026-05-24T07:13:18Z</time>
      </trkpt>
      <trkpt lat="47.13127" lon="6.08365">
        <ele>562.6</ele>
        <time>2026-05-24T07:13:19Z</time>
      </trkpt>
      <trkpt lat="47.13127" lon="6.08368">
        <ele>562.6</ele>
        <time>2026-05-24T07:13:20Z</time>
      </trkpt>
      <trkpt lat="47.13126" lon="6.08372">
        <ele>562.6</ele>
        <time>2026-05-24T07:13:21Z</time>
      </trkpt>
      <trkpt lat="47.13127" lon="6.08374">
        <ele>562.6</ele>
        <time>2026-05-24T07:13:22Z</time>
      </trkpt>
      <trkpt lat="47.13128" lon="6.08377">
        <ele>562.6</ele>
        <time>2026-05-24T07:13:23Z</time>
      </trkpt>
      <trkpt lat="47.13128" lon="6.08378">
        <ele>562.6</ele>
        <time>2026-05-24T07:13:24Z</time>
      </trkpt>
      <trkpt lat="47.13127" lon="6.08379">
        <ele>562.6</ele>
        <time>2026-05-24T07:13:25Z</time>
      </trkpt>
      <trkpt lat="47.13126" lon="6.08381">
        <ele>562.4</ele>
        <time>2026-05-24T07:13:26Z</time>
      </trkpt>
      <trkpt lat="47.13124" lon="6.08383">
        <ele>562.6</ele>
        <time>2026-05-24T07:13:27Z</time>
      </trkpt>
      <trkpt lat="47.13122" lon="6.08386">
        <ele>562.6</ele>
        <time>2026-05-24T07:13:28Z</time>
      </trkpt>
      <trkpt lat="47.1312" lon="6.08389">
        <ele>562.6</ele>
        <time>2026-05-24T07:13:29Z</time>
      </trkpt>
      <trkpt lat="47.13117" lon="6.08391">
        <ele>562.6</ele>
        <time>2026-05-24T07:13:30Z</time>
      </trkpt>
      <trkpt lat="47.13115" lon="6.08394">
        <ele>562.6</ele>
        <time>2026-05-24T07:13:31Z</time>
      </trkpt>
      <trkpt lat="47.13114" lon="6.08395">
        <ele>562.6</ele>
        <time>2026-05-24T07:13:32Z</time>
      </trkpt>
      <trkpt lat="47.13112" lon="6.08397">
        <ele>562.4</ele>
        <time>2026-05-24T07:13:33Z</time>
      </trkpt>
      <trkpt lat="47.13111" lon="6.08398">
        <ele>562.4</ele>
        <time>2026-05-24T07:13:34Z</time>
      </trkpt>
      <trkpt lat="47.13109" lon="6.084">
        <ele>562.2</ele>
        <time>2026-05-24T07:13:35Z</time>
      </trkpt>
      <trkpt lat="47.13107" lon="6.08403">
        <ele>562</ele>
        <time>2026-05-24T07:13:36Z</time>
      </trkpt>
      <trkpt lat="47.13105" lon="6.08405">
        <ele>562</ele>
        <time>2026-05-24T07:13:37Z</time>
      </trkpt>
      <trkpt lat="47.13104" lon="6.08406">
        <ele>562</ele>
        <time>2026-05-24T07:13:38Z</time>
      </trkpt>
      <trkpt lat="47.13102" lon="6.08408">
        <ele>561.6</ele>
        <time>2026-05-24T07:13:39Z</time>
      </trkpt>
      <trkpt lat="47.13101" lon="6.08409">
        <ele>561.4</ele>
        <time>2026-05-24T07:13:40Z</time>
      </trkpt>
      <trkpt lat="47.13099" lon="6.08409">
        <ele>561</ele>
        <time>2026-05-24T07:13:41Z</time>
      </trkpt>
      <trkpt lat="47.13097" lon="6.08409">
        <ele>560.8</ele>
        <time>2026-05-24T07:13:42Z</time>
      </trkpt>
      <trkpt lat="47.13094" lon="6.08409">
        <ele>560.4</ele>
        <time>2026-05-24T07:13:43Z</time>
      </trkpt>
      <trkpt lat="47.13092" lon="6.08407">
        <ele>560</ele>
        <time>2026-05-24T07:13:44Z</time>
      </trkpt>
      <trkpt lat="47.13089" lon="6.08405">
        <ele>559.6</ele>
        <time>2026-05-24T07:13:45Z</time>
      </trkpt>
      <trkpt lat="47.13085" lon="6.08402">
        <ele>559.2</ele>
        <time>2026-05-24T07:13:46Z</time>
      </trkpt>
      <trkpt lat="47.13082" lon="6.08399">
        <ele>558.8</ele>
        <time>2026-05-24T07:13:47Z</time>
      </trkpt>
      <trkpt lat="47.1308" lon="6.08397">
        <ele>558.4</ele>
        <time>2026-05-24T07:13:48Z</time>
      </trkpt>
      <trkpt lat="47.13077" lon="6.08396">
        <ele>558.4</ele>
        <time>2026-05-24T07:13:49Z</time>
      </trkpt>
      <trkpt lat="47.13074" lon="6.08394">
        <ele>557.8</ele>
        <time>2026-05-24T07:13:50Z</time>
      </trkpt>
      <trkpt lat="47.13072" lon="6.08393">
        <ele>557.2</ele>
        <time>2026-05-24T07:13:51Z</time>
      </trkpt>
      <trkpt lat="47.1307" lon="6.08392">
        <ele>556.8</ele>
        <time>2026-05-24T07:13:52Z</time>
      </trkpt>
      <trkpt lat="47.13068" lon="6.08391">
        <ele>556.4</ele>
        <time>2026-05-24T07:13:53Z</time>
      </trkpt>
      <trkpt lat="47.13066" lon="6.08389">
        <ele>556</ele>
        <time>2026-05-24T07:13:54Z</time>
      </trkpt>
      <trkpt lat="47.13066" lon="6.08386">
        <ele>555.6</ele>
        <time>2026-05-24T07:13:55Z</time>
      </trkpt>
      <trkpt lat="47.13065" lon="6.08382">
        <ele>555.4</ele>
        <time>2026-05-24T07:13:56Z</time>
      </trkpt>
      <trkpt lat="47.13065" lon="6.08377">
        <ele>555.2</ele>
        <time>2026-05-24T07:13:57Z</time>
      </trkpt>
      <trkpt lat="47.13065" lon="6.08373">
        <ele>554.8</ele>
        <time>2026-05-24T07:13:58Z</time>
      </trkpt>
      <trkpt lat="47.13063" lon="6.08369">
        <ele>554.8</ele>
        <time>2026-05-24T07:13:59Z</time>
      </trkpt>
      <trkpt lat="47.13061" lon="6.08365">
        <ele>554.6</ele>
        <time>2026-05-24T07:14:00Z</time>
      </trkpt>
      <trkpt lat="47.13059" lon="6.08361">
        <ele>554.6</ele>
        <time>2026-05-24T07:14:01Z</time>
      </trkpt>
      <trkpt lat="47.13057" lon="6.08356">
        <ele>554.6</ele>
        <time>2026-05-24T07:14:02Z</time>
      </trkpt>
      <trkpt lat="47.13056" lon="6.0835">
        <ele>554.6</ele>
        <time>2026-05-24T07:14:03Z</time>
      </trkpt>
      <trkpt lat="47.13056" lon="6.08345">
        <ele>554.4</ele>
        <time>2026-05-24T07:14:04Z</time>
      </trkpt>
      <trkpt lat="47.13056" lon="6.0834">
        <ele>554.6</ele>
        <time>2026-05-24T07:14:05Z</time>
      </trkpt>
      <trkpt lat="47.13056" lon="6.08334">
        <ele>554.4</ele>
        <time>2026-05-24T07:14:06Z</time>
      </trkpt>
      <trkpt lat="47.13057" lon="6.08329">
        <ele>554.6</ele>
        <time>2026-05-24T07:14:07Z</time>
      </trkpt>
      <trkpt lat="47.13058" lon="6.08324">
        <ele>554.6</ele>
        <time>2026-05-24T07:14:08Z</time>
      </trkpt>
      <trkpt lat="47.13056" lon="6.08319">
        <ele>555</ele>
        <time>2026-05-24T07:14:09Z</time>
      </trkpt>
      <trkpt lat="47.13056" lon="6.08315">
        <ele>555.4</ele>
        <time>2026-05-24T07:14:10Z</time>
      </trkpt>
      <trkpt lat="47.13054" lon="6.0831">
        <ele>555.4</ele>
        <time>2026-05-24T07:14:11Z</time>
      </trkpt>
      <trkpt lat="47.13053" lon="6.08306">
        <ele>555.6</ele>
        <time>2026-05-24T07:14:12Z</time>
      </trkpt>
      <trkpt lat="47.13052" lon="6.08302">
        <ele>555.8</ele>
        <time>2026-05-24T07:14:13Z</time>
      </trkpt>
      <trkpt lat="47.13052" lon="6.08299">
        <ele>556</ele>
        <time>2026-05-24T07:14:14Z</time>
      </trkpt>
      <trkpt lat="47.13052" lon="6.08295">
        <ele>556</ele>
        <time>2026-05-24T07:14:15Z</time>
      </trkpt>
      <trkpt lat="47.13049" lon="6.08291">
        <ele>556.2</ele>
        <time>2026-05-24T07:14:16Z</time>
      </trkpt>
      <trkpt lat="47.13046" lon="6.08287">
        <ele>556.2</ele>
        <time>2026-05-24T07:14:17Z</time>
      </trkpt>
      <trkpt lat="47.13042" lon="6.08284">
        <ele>556.2</ele>
        <time>2026-05-24T07:14:18Z</time>
      </trkpt>
      <trkpt lat="47.13038" lon="6.0828">
        <ele>556.4</ele>
        <time>2026-05-24T07:14:19Z</time>
      </trkpt>
      <trkpt lat="47.13035" lon="6.08278">
        <ele>556.4</ele>
        <time>2026-05-24T07:14:20Z</time>
      </trkpt>
      <trkpt lat="47.13032" lon="6.08276">
        <ele>556.4</ele>
        <time>2026-05-24T07:14:21Z</time>
      </trkpt>
      <trkpt lat="47.13027" lon="6.08276">
        <ele>556.2</ele>
        <time>2026-05-24T07:14:22Z</time>
      </trkpt>
      <trkpt lat="47.13022" lon="6.08275">
        <ele>556.4</ele>
        <time>2026-05-24T07:14:23Z</time>
      </trkpt>
      <trkpt lat="47.13019" lon="6.08275">
        <ele>556.2</ele>
        <time>2026-05-24T07:14:24Z</time>
      </trkpt>
      <trkpt lat="47.13015" lon="6.08275">
        <ele>556.4</ele>
        <time>2026-05-24T07:14:25Z</time>
      </trkpt>
      <trkpt lat="47.13012" lon="6.08275">
        <ele>556.4</ele>
        <time>2026-05-24T07:14:26Z</time>
      </trkpt>
      <trkpt lat="47.13008" lon="6.08276">
        <ele>556.2</ele>
        <time>2026-05-24T07:14:27Z</time>
      </trkpt>
      <trkpt lat="47.13004" lon="6.08276">
        <ele>556.4</ele>
        <time>2026-05-24T07:14:28Z</time>
      </trkpt>
      <trkpt lat="47.13" lon="6.08277">
        <ele>556.4</ele>
        <time>2026-05-24T07:14:29Z</time>
      </trkpt>
      <trkpt lat="47.12996" lon="6.08277">
        <ele>556.4</ele>
        <time>2026-05-24T07:14:30Z</time>
      </trkpt>
      <trkpt lat="47.12993" lon="6.08277">
        <ele>556.4</ele>
        <time>2026-05-24T07:14:31Z</time>
      </trkpt>
      <trkpt lat="47.1299" lon="6.08277">
        <ele>556.4</ele>
        <time>2026-05-24T07:14:32Z</time>
      </trkpt>
      <trkpt lat="47.12987" lon="6.08277">
        <ele>556.4</ele>
        <time>2026-05-24T07:14:33Z</time>
      </trkpt>
      <trkpt lat="47.12985" lon="6.08278">
        <ele>556.4</ele>
        <time>2026-05-24T07:14:34Z</time>
      </trkpt>
      <trkpt lat="47.12982" lon="6.08278">
        <ele>556.4</ele>
        <time>2026-05-24T07:14:35Z</time>
      </trkpt>
      <trkpt lat="47.1298" lon="6.08278">
        <ele>556.4</ele>
        <time>2026-05-24T07:14:36Z</time>
      </trkpt>
      <trkpt lat="47.12978" lon="6.08278">
        <ele>556.4</ele>
        <time>2026-05-24T07:14:37Z</time>
      </trkpt>
      <trkpt lat="47.12975" lon="6.08279">
        <ele>556.6</ele>
        <time>2026-05-24T07:14:38Z</time>
      </trkpt>
      <trkpt lat="47.12973" lon="6.0828">
        <ele>557</ele>
        <time>2026-05-24T07:14:39Z</time>
      </trkpt>
      <trkpt lat="47.1297" lon="6.08281">
        <ele>557.4</ele>
        <time>2026-05-24T07:14:40Z</time>
      </trkpt>
      <trkpt lat="47.12967" lon="6.08281">
        <ele>557.8</ele>
        <time>2026-05-24T07:14:41Z</time>
      </trkpt>
      <trkpt lat="47.12964" lon="6.08282">
        <ele>558.2</ele>
        <time>2026-05-24T07:14:42Z</time>
      </trkpt>
      <trkpt lat="47.12961" lon="6.08282">
        <ele>558.6</ele>
        <time>2026-05-24T07:14:43Z</time>
      </trkpt>
      <trkpt lat="47.12958" lon="6.08283">
        <ele>558.6</ele>
        <time>2026-05-24T07:14:44Z</time>
      </trkpt>
      <trkpt lat="47.12954" lon="6.08281">
        <ele>559.2</ele>
        <time>2026-05-24T07:14:45Z</time>
      </trkpt>
      <trkpt lat="47.12951" lon="6.0828">
        <ele>559.6</ele>
        <time>2026-05-24T07:14:46Z</time>
      </trkpt>
      <trkpt lat="47.12948" lon="6.08279">
        <ele>560</ele>
        <time>2026-05-24T07:14:47Z</time>
      </trkpt>
      <trkpt lat="47.12942" lon="6.08277">
        <ele>560</ele>
        <time>2026-05-24T07:14:48Z</time>
      </trkpt>
      <trkpt lat="47.1294" lon="6.08275">
        <ele>560.4</ele>
        <time>2026-05-24T07:14:49Z</time>
      </trkpt>
      <trkpt lat="47.12935" lon="6.08274">
        <ele>560.4</ele>
        <time>2026-05-24T07:14:50Z</time>
      </trkpt>
      <trkpt lat="47.12929" lon="6.08272">
        <ele>560.4</ele>
        <time>2026-05-24T07:14:51Z</time>
      </trkpt>
      <trkpt lat="47.12923" lon="6.08268">
        <ele>560.4</ele>
        <time>2026-05-24T07:14:52Z</time>
      </trkpt>
      <trkpt lat="47.1292" lon="6.08267">
        <ele>560.4</ele>
        <time>2026-05-24T07:14:53Z</time>
      </trkpt>
      <trkpt lat="47.12917" lon="6.08265">
        <ele>560.4</ele>
        <time>2026-05-24T07:14:54Z</time>
      </trkpt>
      <trkpt lat="47.12914" lon="6.08263">
        <ele>560.4</ele>
        <time>2026-05-24T07:14:55Z</time>
      </trkpt>
      <trkpt lat="47.12911" lon="6.08261">
        <ele>560.4</ele>
        <time>2026-05-24T07:14:56Z</time>
      </trkpt>
      <trkpt lat="47.12908" lon="6.0826">
        <ele>560.6</ele>
        <time>2026-05-24T07:14:57Z</time>
      </trkpt>
      <trkpt lat="47.12906" lon="6.0826">
        <ele>560.6</ele>
        <time>2026-05-24T07:14:58Z</time>
      </trkpt>
      <trkpt lat="47.12904" lon="6.08259">
        <ele>560.4</ele>
        <time>2026-05-24T07:14:59Z</time>
      </trkpt>
      <trkpt lat="47.12902" lon="6.08259">
        <ele>560.6</ele>
        <time>2026-05-24T07:15:00Z</time>
      </trkpt>
      <trkpt lat="47.129" lon="6.08258">
        <ele>560.8</ele>
        <time>2026-05-24T07:15:01Z</time>
      </trkpt>
      <trkpt lat="47.12898" lon="6.08257">
        <ele>560.8</ele>
        <time>2026-05-24T07:15:02Z</time>
      </trkpt>
      <trkpt lat="47.12897" lon="6.08256">
        <ele>561.2</ele>
        <time>2026-05-24T07:15:03Z</time>
      </trkpt>
      <trkpt lat="47.12895" lon="6.08255">
        <ele>561</ele>
        <time>2026-05-24T07:15:04Z</time>
      </trkpt>
      <trkpt lat="47.12893" lon="6.08253">
        <ele>561</ele>
        <time>2026-05-24T07:15:05Z</time>
      </trkpt>
      <trkpt lat="47.12891" lon="6.08252">
        <ele>561.2</ele>
        <time>2026-05-24T07:15:06Z</time>
      </trkpt>
      <trkpt lat="47.12889" lon="6.0825">
        <ele>561.4</ele>
        <time>2026-05-24T07:15:07Z</time>
      </trkpt>
      <trkpt lat="47.12888" lon="6.08249">
        <ele>561.6</ele>
        <time>2026-05-24T07:15:08Z</time>
      </trkpt>
      <trkpt lat="47.12887" lon="6.08248">
        <ele>561.8</ele>
        <time>2026-05-24T07:15:09Z</time>
      </trkpt>
      <trkpt lat="47.12885" lon="6.08248">
        <ele>562</ele>
        <time>2026-05-24T07:15:10Z</time>
      </trkpt>
      <trkpt lat="47.12884" lon="6.08248">
        <ele>562.2</ele>
        <time>2026-05-24T07:15:11Z</time>
      </trkpt>
      <trkpt lat="47.12882" lon="6.08249">
        <ele>562.4</ele>
        <time>2026-05-24T07:15:12Z</time>
      </trkpt>
      <trkpt lat="47.1288" lon="6.08249">
        <ele>562.8</ele>
        <time>2026-05-24T07:15:13Z</time>
      </trkpt>
      <trkpt lat="47.12878" lon="6.08249">
        <ele>563.2</ele>
        <time>2026-05-24T07:15:14Z</time>
      </trkpt>
      <trkpt lat="47.12877" lon="6.08249">
        <ele>563.4</ele>
        <time>2026-05-24T07:15:15Z</time>
      </trkpt>
      <trkpt lat="47.12875" lon="6.0825">
        <ele>563.6</ele>
        <time>2026-05-24T07:15:16Z</time>
      </trkpt>
      <trkpt lat="47.12873" lon="6.0825">
        <ele>564</ele>
        <time>2026-05-24T07:15:17Z</time>
      </trkpt>
      <trkpt lat="47.12871" lon="6.0825">
        <ele>564.2</ele>
        <time>2026-05-24T07:15:18Z</time>
      </trkpt>
      <trkpt lat="47.12869" lon="6.0825">
        <ele>564.4</ele>
        <time>2026-05-24T07:15:19Z</time>
      </trkpt>
      <trkpt lat="47.12867" lon="6.0825">
        <ele>565</ele>
        <time>2026-05-24T07:15:20Z</time>
      </trkpt>
      <trkpt lat="47.12866" lon="6.0825">
        <ele>565.2</ele>
        <time>2026-05-24T07:15:21Z</time>
      </trkpt>
      <trkpt lat="47.12864" lon="6.0825">
        <ele>565.4</ele>
        <time>2026-05-24T07:15:22Z</time>
      </trkpt>
      <trkpt lat="47.12862" lon="6.0825">
        <ele>565.6</ele>
        <time>2026-05-24T07:15:23Z</time>
      </trkpt>
      <trkpt lat="47.1286" lon="6.08251">
        <ele>566</ele>
        <time>2026-05-24T07:15:24Z</time>
      </trkpt>
      <trkpt lat="47.12858" lon="6.08251">
        <ele>566.2</ele>
        <time>2026-05-24T07:15:25Z</time>
      </trkpt>
      <trkpt lat="47.12856" lon="6.08251">
        <ele>566.4</ele>
        <time>2026-05-24T07:15:26Z</time>
      </trkpt>
      <trkpt lat="47.12852" lon="6.0825">
        <ele>566.4</ele>
        <time>2026-05-24T07:15:27Z</time>
      </trkpt>
      <trkpt lat="47.12848" lon="6.0825">
        <ele>566.6</ele>
        <time>2026-05-24T07:15:28Z</time>
      </trkpt>
      <trkpt lat="47.12843" lon="6.08249">
        <ele>567</ele>
        <time>2026-05-24T07:15:29Z</time>
      </trkpt>
      <trkpt lat="47.1284" lon="6.08248">
        <ele>567.2</ele>
        <time>2026-05-24T07:15:30Z</time>
      </trkpt>
      <trkpt lat="47.12837" lon="6.08247">
        <ele>567.4</ele>
        <time>2026-05-24T07:15:31Z</time>
      </trkpt>
      <trkpt lat="47.12833" lon="6.08246">
        <ele>567.6</ele>
        <time>2026-05-24T07:15:32Z</time>
      </trkpt>
      <trkpt lat="47.1283" lon="6.08245">
        <ele>567.6</ele>
        <time>2026-05-24T07:15:33Z</time>
      </trkpt>
      <trkpt lat="47.12827" lon="6.08244">
        <ele>567.6</ele>
        <time>2026-05-24T07:15:34Z</time>
      </trkpt>
      <trkpt lat="47.12825" lon="6.08244">
        <ele>567.6</ele>
        <time>2026-05-24T07:15:35Z</time>
      </trkpt>
      <trkpt lat="47.12822" lon="6.08244">
        <ele>567.8</ele>
        <time>2026-05-24T07:15:36Z</time>
      </trkpt>
      <trkpt lat="47.1282" lon="6.08244">
        <ele>567.8</ele>
        <time>2026-05-24T07:15:37Z</time>
      </trkpt>
      <trkpt lat="47.12818" lon="6.08244">
        <ele>567.8</ele>
        <time>2026-05-24T07:15:38Z</time>
      </trkpt>
      <trkpt lat="47.12815" lon="6.08244">
        <ele>567.8</ele>
        <time>2026-05-24T07:15:39Z</time>
      </trkpt>
      <trkpt lat="47.12812" lon="6.08244">
        <ele>567.8</ele>
        <time>2026-05-24T07:15:40Z</time>
      </trkpt>
      <trkpt lat="47.12809" lon="6.08244">
        <ele>568</ele>
        <time>2026-05-24T07:15:41Z</time>
      </trkpt>
      <trkpt lat="47.12807" lon="6.08245">
        <ele>568.2</ele>
        <time>2026-05-24T07:15:42Z</time>
      </trkpt>
      <trkpt lat="47.12805" lon="6.08246">
        <ele>568.2</ele>
        <time>2026-05-24T07:15:43Z</time>
      </trkpt>
      <trkpt lat="47.12803" lon="6.08246">
        <ele>568.4</ele>
        <time>2026-05-24T07:15:44Z</time>
      </trkpt>
      <trkpt lat="47.128" lon="6.08246">
        <ele>568.4</ele>
        <time>2026-05-24T07:15:45Z</time>
      </trkpt>
      <trkpt lat="47.12798" lon="6.08247">
        <ele>568.4</ele>
        <time>2026-05-24T07:15:46Z</time>
      </trkpt>
      <trkpt lat="47.12795" lon="6.08248">
        <ele>568.4</ele>
        <time>2026-05-24T07:15:47Z</time>
      </trkpt>
      <trkpt lat="47.12792" lon="6.08249">
        <ele>568.6</ele>
        <time>2026-05-24T07:15:48Z</time>
      </trkpt>
      <trkpt lat="47.12789" lon="6.08249">
        <ele>568.6</ele>
        <time>2026-05-24T07:15:49Z</time>
      </trkpt>
      <trkpt lat="47.12786" lon="6.0825">
        <ele>568.6</ele>
        <time>2026-05-24T07:15:50Z</time>
      </trkpt>
      <trkpt lat="47.12783" lon="6.08251">
        <ele>568.8</ele>
        <time>2026-05-24T07:15:51Z</time>
      </trkpt>
      <trkpt lat="47.1278" lon="6.08252">
        <ele>568.8</ele>
        <time>2026-05-24T07:15:52Z</time>
      </trkpt>
      <trkpt lat="47.12778" lon="6.08252">
        <ele>569</ele>
        <time>2026-05-24T07:15:53Z</time>
      </trkpt>
      <trkpt lat="47.12776" lon="6.08254">
        <ele>569</ele>
        <time>2026-05-24T07:15:54Z</time>
      </trkpt>
      <trkpt lat="47.12774" lon="6.08255">
        <ele>569.4</ele>
        <time>2026-05-24T07:15:55Z</time>
      </trkpt>
      <trkpt lat="47.12772" lon="6.08256">
        <ele>569.2</ele>
        <time>2026-05-24T07:15:56Z</time>
      </trkpt>
      <trkpt lat="47.1277" lon="6.08256">
        <ele>569.2</ele>
        <time>2026-05-24T07:15:57Z</time>
      </trkpt>
      <trkpt lat="47.12769" lon="6.08255">
        <ele>569.4</ele>
        <time>2026-05-24T07:15:58Z</time>
      </trkpt>
      <trkpt lat="47.12766" lon="6.08255">
        <ele>569.6</ele>
        <time>2026-05-24T07:15:59Z</time>
      </trkpt>
      <trkpt lat="47.12763" lon="6.08254">
        <ele>569.8</ele>
        <time>2026-05-24T07:16:00Z</time>
      </trkpt>
      <trkpt lat="47.12762" lon="6.08252">
        <ele>570</ele>
        <time>2026-05-24T07:16:01Z</time>
      </trkpt>
      <trkpt lat="47.1276" lon="6.08252">
        <ele>570.2</ele>
        <time>2026-05-24T07:16:02Z</time>
      </trkpt>
      <trkpt lat="47.12759" lon="6.08251">
        <ele>570.4</ele>
        <time>2026-05-24T07:16:03Z</time>
      </trkpt>
      <trkpt lat="47.12756" lon="6.08249">
        <ele>570.8</ele>
        <time>2026-05-24T07:16:04Z</time>
      </trkpt>
      <trkpt lat="47.12754" lon="6.08248">
        <ele>571</ele>
        <time>2026-05-24T07:16:05Z</time>
      </trkpt>
      <trkpt lat="47.12753" lon="6.08247">
        <ele>571.2</ele>
        <time>2026-05-24T07:16:06Z</time>
      </trkpt>
      <trkpt lat="47.12752" lon="6.08246">
        <ele>571.6</ele>
        <time>2026-05-24T07:16:07Z</time>
      </trkpt>
      <trkpt lat="47.1275" lon="6.08245">
        <ele>572</ele>
        <time>2026-05-24T07:16:08Z</time>
      </trkpt>
      <trkpt lat="47.12748" lon="6.08244">
        <ele>572</ele>
        <time>2026-05-24T07:16:09Z</time>
      </trkpt>
      <trkpt lat="47.12746" lon="6.08243">
        <ele>572.2</ele>
        <time>2026-05-24T07:16:10Z</time>
      </trkpt>
      <trkpt lat="47.12744" lon="6.08243">
        <ele>572.2</ele>
        <time>2026-05-24T07:16:11Z</time>
      </trkpt>
      <trkpt lat="47.12739" lon="6.08242">
        <ele>572.4</ele>
        <time>2026-05-24T07:16:12Z</time>
      </trkpt>
      <trkpt lat="47.12736" lon="6.08241">
        <ele>572.6</ele>
        <time>2026-05-24T07:16:13Z</time>
      </trkpt>
      <trkpt lat="47.12733" lon="6.0824">
        <ele>573</ele>
        <time>2026-05-24T07:16:14Z</time>
      </trkpt>
      <trkpt lat="47.12732" lon="6.08239">
        <ele>573.4</ele>
        <time>2026-05-24T07:16:15Z</time>
      </trkpt>
      <trkpt lat="47.1273" lon="6.08237">
        <ele>573.6</ele>
        <time>2026-05-24T07:16:16Z</time>
      </trkpt>
      <trkpt lat="47.12728" lon="6.08236">
        <ele>573.8</ele>
        <time>2026-05-24T07:16:17Z</time>
      </trkpt>
      <trkpt lat="47.12726" lon="6.08235">
        <ele>574.2</ele>
        <time>2026-05-24T07:16:18Z</time>
      </trkpt>
      <trkpt lat="47.12724" lon="6.08233">
        <ele>574.2</ele>
        <time>2026-05-24T07:16:19Z</time>
      </trkpt>
      <trkpt lat="47.12722" lon="6.08232">
        <ele>574.6</ele>
        <time>2026-05-24T07:16:20Z</time>
      </trkpt>
      <trkpt lat="47.12718" lon="6.08231">
        <ele>574.6</ele>
        <time>2026-05-24T07:16:21Z</time>
      </trkpt>
      <trkpt lat="47.12714" lon="6.08227">
        <ele>574.8</ele>
        <time>2026-05-24T07:16:22Z</time>
      </trkpt>
      <trkpt lat="47.12708" lon="6.08225">
        <ele>575</ele>
        <time>2026-05-24T07:16:23Z</time>
      </trkpt>
      <trkpt lat="47.12705" lon="6.08222">
        <ele>575.2</ele>
        <time>2026-05-24T07:16:24Z</time>
      </trkpt>
      <trkpt lat="47.12701" lon="6.0822">
        <ele>575.4</ele>
        <time>2026-05-24T07:16:25Z</time>
      </trkpt>
      <trkpt lat="47.12698" lon="6.08218">
        <ele>575.6</ele>
        <time>2026-05-24T07:16:26Z</time>
      </trkpt>
      <trkpt lat="47.12694" lon="6.08216">
        <ele>575.8</ele>
        <time>2026-05-24T07:16:27Z</time>
      </trkpt>
      <trkpt lat="47.12692" lon="6.08214">
        <ele>576</ele>
        <time>2026-05-24T07:16:28Z</time>
      </trkpt>
      <trkpt lat="47.12689" lon="6.08212">
        <ele>576</ele>
        <time>2026-05-24T07:16:29Z</time>
      </trkpt>
      <trkpt lat="47.12687" lon="6.08211">
        <ele>576.2</ele>
        <time>2026-05-24T07:16:30Z</time>
      </trkpt>
      <trkpt lat="47.12685" lon="6.0821">
        <ele>576.2</ele>
        <time>2026-05-24T07:16:31Z</time>
      </trkpt>
      <trkpt lat="47.12682" lon="6.08209">
        <ele>576.6</ele>
        <time>2026-05-24T07:16:32Z</time>
      </trkpt>
      <trkpt lat="47.1268" lon="6.08209">
        <ele>576.6</ele>
        <time>2026-05-24T07:16:33Z</time>
      </trkpt>
      <trkpt lat="47.12678" lon="6.08208">
        <ele>577</ele>
        <time>2026-05-24T07:16:34Z</time>
      </trkpt>
      <trkpt lat="47.12676" lon="6.08207">
        <ele>577</ele>
        <time>2026-05-24T07:16:35Z</time>
      </trkpt>
      <trkpt lat="47.12673" lon="6.08206">
        <ele>577.2</ele>
        <time>2026-05-24T07:16:36Z</time>
      </trkpt>
      <trkpt lat="47.12671" lon="6.08205">
        <ele>577.2</ele>
        <time>2026-05-24T07:16:37Z</time>
      </trkpt>
      <trkpt lat="47.12669" lon="6.08205">
        <ele>577.6</ele>
        <time>2026-05-24T07:16:38Z</time>
      </trkpt>
      <trkpt lat="47.12667" lon="6.08204">
        <ele>577.8</ele>
        <time>2026-05-24T07:16:39Z</time>
      </trkpt>
      <trkpt lat="47.12664" lon="6.08204">
        <ele>577.8</ele>
        <time>2026-05-24T07:16:40Z</time>
      </trkpt>
      <trkpt lat="47.12662" lon="6.08203">
        <ele>577.8</ele>
        <time>2026-05-24T07:16:41Z</time>
      </trkpt>
      <trkpt lat="47.1266" lon="6.08203">
        <ele>578</ele>
        <time>2026-05-24T07:16:42Z</time>
      </trkpt>
      <trkpt lat="47.12658" lon="6.08202">
        <ele>578</ele>
        <time>2026-05-24T07:16:43Z</time>
      </trkpt>
      <trkpt lat="47.12654" lon="6.08197">
        <ele>578.2</ele>
        <time>2026-05-24T07:16:44Z</time>
      </trkpt>
      <trkpt lat="47.12652" lon="6.08192">
        <ele>578.4</ele>
        <time>2026-05-24T07:16:45Z</time>
      </trkpt>
      <trkpt lat="47.1265" lon="6.08191">
        <ele>578.4</ele>
        <time>2026-05-24T07:16:46Z</time>
      </trkpt>
      <trkpt lat="47.12648" lon="6.0819">
        <ele>578.6</ele>
        <time>2026-05-24T07:16:47Z</time>
      </trkpt>
      <trkpt lat="47.12646" lon="6.08189">
        <ele>578.8</ele>
        <time>2026-05-24T07:16:48Z</time>
      </trkpt>
      <trkpt lat="47.12644" lon="6.08188">
        <ele>578.8</ele>
        <time>2026-05-24T07:16:49Z</time>
      </trkpt>
      <trkpt lat="47.12642" lon="6.08187">
        <ele>579</ele>
        <time>2026-05-24T07:16:50Z</time>
      </trkpt>
      <trkpt lat="47.1264" lon="6.08186">
        <ele>579.2</ele>
        <time>2026-05-24T07:16:51Z</time>
      </trkpt>
      <trkpt lat="47.12638" lon="6.08184">
        <ele>579.2</ele>
        <time>2026-05-24T07:16:52Z</time>
      </trkpt>
      <trkpt lat="47.12636" lon="6.08184">
        <ele>579.2</ele>
        <time>2026-05-24T07:16:53Z</time>
      </trkpt>
      <trkpt lat="47.12634" lon="6.08182">
        <ele>579.4</ele>
        <time>2026-05-24T07:16:54Z</time>
      </trkpt>
      <trkpt lat="47.12632" lon="6.08181">
        <ele>579.4</ele>
        <time>2026-05-24T07:16:55Z</time>
      </trkpt>
      <trkpt lat="47.1263" lon="6.0818">
        <ele>579.4</ele>
        <time>2026-05-24T07:16:56Z</time>
      </trkpt>
      <trkpt lat="47.12628" lon="6.08179">
        <ele>579.8</ele>
        <time>2026-05-24T07:16:57Z</time>
      </trkpt>
      <trkpt lat="47.12627" lon="6.08178">
        <ele>580</ele>
        <time>2026-05-24T07:16:58Z</time>
      </trkpt>
      <trkpt lat="47.12625" lon="6.08177">
        <ele>580.2</ele>
        <time>2026-05-24T07:16:59Z</time>
      </trkpt>
      <trkpt lat="47.12623" lon="6.08176">
        <ele>580.2</ele>
        <time>2026-05-24T07:17:00Z</time>
      </trkpt>
      <trkpt lat="47.12621" lon="6.08175">
        <ele>580.4</ele>
        <time>2026-05-24T07:17:01Z</time>
      </trkpt>
      <trkpt lat="47.12619" lon="6.08174">
        <ele>580.6</ele>
        <time>2026-05-24T07:17:02Z</time>
      </trkpt>
      <trkpt lat="47.12616" lon="6.08173">
        <ele>580.8</ele>
        <time>2026-05-24T07:17:03Z</time>
      </trkpt>
      <trkpt lat="47.12614" lon="6.08171">
        <ele>581</ele>
        <time>2026-05-24T07:17:04Z</time>
      </trkpt>
      <trkpt lat="47.12612" lon="6.0817">
        <ele>581.2</ele>
        <time>2026-05-24T07:17:05Z</time>
      </trkpt>
      <trkpt lat="47.1261" lon="6.08168">
        <ele>581.2</ele>
        <time>2026-05-24T07:17:06Z</time>
      </trkpt>
      <trkpt lat="47.12607" lon="6.08162">
        <ele>581.2</ele>
        <time>2026-05-24T07:17:07Z</time>
      </trkpt>
      <trkpt lat="47.12605" lon="6.0816">
        <ele>581.6</ele>
        <time>2026-05-24T07:17:08Z</time>
      </trkpt>
      <trkpt lat="47.12602" lon="6.08157">
        <ele>581.8</ele>
        <time>2026-05-24T07:17:09Z</time>
      </trkpt>
      <trkpt lat="47.126" lon="6.08155">
        <ele>582</ele>
        <time>2026-05-24T07:17:10Z</time>
      </trkpt>
      <trkpt lat="47.12598" lon="6.08153">
        <ele>582.2</ele>
        <time>2026-05-24T07:17:11Z</time>
      </trkpt>
      <trkpt lat="47.12597" lon="6.08151">
        <ele>582.2</ele>
        <time>2026-05-24T07:17:12Z</time>
      </trkpt>
      <trkpt lat="47.12595" lon="6.0815">
        <ele>582.6</ele>
        <time>2026-05-24T07:17:13Z</time>
      </trkpt>
      <trkpt lat="47.12593" lon="6.08148">
        <ele>582.4</ele>
        <time>2026-05-24T07:17:14Z</time>
      </trkpt>
      <trkpt lat="47.12592" lon="6.08147">
        <ele>582.6</ele>
        <time>2026-05-24T07:17:15Z</time>
      </trkpt>
      <trkpt lat="47.1259" lon="6.08145">
        <ele>582.8</ele>
        <time>2026-05-24T07:17:16Z</time>
      </trkpt>
      <trkpt lat="47.12588" lon="6.08144">
        <ele>582.8</ele>
        <time>2026-05-24T07:17:17Z</time>
      </trkpt>
      <trkpt lat="47.12587" lon="6.08144">
        <ele>582.8</ele>
        <time>2026-05-24T07:17:18Z</time>
      </trkpt>
      <trkpt lat="47.12585" lon="6.08143">
        <ele>583</ele>
        <time>2026-05-24T07:17:19Z</time>
      </trkpt>
      <trkpt lat="47.12584" lon="6.08143">
        <ele>583</ele>
        <time>2026-05-24T07:17:20Z</time>
      </trkpt>
      <trkpt lat="47.12583" lon="6.08142">
        <ele>583</ele>
        <time>2026-05-24T07:17:21Z</time>
      </trkpt>
      <trkpt lat="47.12582" lon="6.08142">
        <ele>583.4</ele>
        <time>2026-05-24T07:17:22Z</time>
      </trkpt>
      <trkpt lat="47.12581" lon="6.08142">
        <ele>583.4</ele>
        <time>2026-05-24T07:17:23Z</time>
      </trkpt>
      <trkpt lat="47.12579" lon="6.08141">
        <ele>583.4</ele>
        <time>2026-05-24T07:17:24Z</time>
      </trkpt>
      <trkpt lat="47.12579" lon="6.08141">
        <ele>583.4</ele>
        <time>2026-05-24T07:17:25Z</time>
      </trkpt>
      <trkpt lat="47.12579" lon="6.08141">
        <ele>583.6</ele>
        <time>2026-05-24T07:17:26Z</time>
      </trkpt>
      <trkpt lat="47.12579" lon="6.08141">
        <ele>583.6</ele>
        <time>2026-05-24T07:17:27Z</time>
      </trkpt>
      <trkpt lat="47.1258" lon="6.08141">
        <ele>583.8</ele>
        <time>2026-05-24T07:17:28Z</time>
      </trkpt>
      <trkpt lat="47.12581" lon="6.08141">
        <ele>583.8</ele>
        <time>2026-05-24T07:17:29Z</time>
      </trkpt>
      <trkpt lat="47.12581" lon="6.08141">
        <ele>584</ele>
        <time>2026-05-24T07:17:30Z</time>
      </trkpt>
      <trkpt lat="47.12587" lon="6.08152">
        <ele>584.4</ele>
        <time>2026-05-24T07:19:05Z</time>
      </trkpt>
      <trkpt lat="47.12588" lon="6.08154">
        <ele>584.2</ele>
        <time>2026-05-24T07:19:06Z</time>
      </trkpt>
      <trkpt lat="47.12589" lon="6.08156">
        <ele>584.4</ele>
        <time>2026-05-24T07:19:07Z</time>
      </trkpt>
      <trkpt lat="47.1259" lon="6.08158">
        <ele>584.4</ele>
        <time>2026-05-24T07:19:08Z</time>
      </trkpt>
      <trkpt lat="47.12591" lon="6.0816">
        <ele>584.4</ele>
        <time>2026-05-24T07:19:09Z</time>
      </trkpt>
      <trkpt lat="47.12592" lon="6.08163">
        <ele>584.4</ele>
        <time>2026-05-24T07:19:10Z</time>
      </trkpt>
      <trkpt lat="47.12594" lon="6.08165">
        <ele>584.4</ele>
        <time>2026-05-24T07:19:11Z</time>
      </trkpt>
      <trkpt lat="47.12595" lon="6.08168">
        <ele>584.4</ele>
        <time>2026-05-24T07:19:12Z</time>
      </trkpt>
      <trkpt lat="47.12596" lon="6.0817">
        <ele>584.4</ele>
        <time>2026-05-24T07:19:13Z</time>
      </trkpt>
      <trkpt lat="47.12597" lon="6.08172">
        <ele>584.4</ele>
        <time>2026-05-24T07:19:14Z</time>
      </trkpt>
      <trkpt lat="47.12598" lon="6.08174">
        <ele>584.4</ele>
        <time>2026-05-24T07:19:15Z</time>
      </trkpt>
      <trkpt lat="47.12599" lon="6.08177">
        <ele>584.4</ele>
        <time>2026-05-24T07:19:16Z</time>
      </trkpt>
      <trkpt lat="47.126" lon="6.0818">
        <ele>584.6</ele>
        <time>2026-05-24T07:19:17Z</time>
      </trkpt>
      <trkpt lat="47.12601" lon="6.08183">
        <ele>584.8</ele>
        <time>2026-05-24T07:19:18Z</time>
      </trkpt>
      <trkpt lat="47.12602" lon="6.08186">
        <ele>584.8</ele>
        <time>2026-05-24T07:19:19Z</time>
      </trkpt>
      <trkpt lat="47.12603" lon="6.0819">
        <ele>584.8</ele>
        <time>2026-05-24T07:19:20Z</time>
      </trkpt>
      <trkpt lat="47.12604" lon="6.08193">
        <ele>585</ele>
        <time>2026-05-24T07:19:21Z</time>
      </trkpt>
      <trkpt lat="47.12605" lon="6.08196">
        <ele>585</ele>
        <time>2026-05-24T07:19:22Z</time>
      </trkpt>
      <trkpt lat="47.12606" lon="6.08199">
        <ele>585</ele>
        <time>2026-05-24T07:19:23Z</time>
      </trkpt>
      <trkpt lat="47.12607" lon="6.08202">
        <ele>585</ele>
        <time>2026-05-24T07:19:24Z</time>
      </trkpt>
      <trkpt lat="47.12608" lon="6.08205">
        <ele>585.2</ele>
        <time>2026-05-24T07:19:25Z</time>
      </trkpt>
      <trkpt lat="47.12609" lon="6.08208">
        <ele>585.2</ele>
        <time>2026-05-24T07:19:26Z</time>
      </trkpt>
      <trkpt lat="47.1261" lon="6.08211">
        <ele>585.4</ele>
        <time>2026-05-24T07:19:27Z</time>
      </trkpt>
      <trkpt lat="47.12612" lon="6.08214">
        <ele>585.4</ele>
        <time>2026-05-24T07:19:28Z</time>
      </trkpt>
      <trkpt lat="47.12614" lon="6.08217">
        <ele>585.4</ele>
        <time>2026-05-24T07:19:29Z</time>
      </trkpt>
      <trkpt lat="47.12615" lon="6.08219">
        <ele>585.6</ele>
        <time>2026-05-24T07:19:30Z</time>
      </trkpt>
      <trkpt lat="47.12616" lon="6.08222">
        <ele>585.4</ele>
        <time>2026-05-24T07:19:31Z</time>
      </trkpt>
      <trkpt lat="47.12618" lon="6.08225">
        <ele>585.6</ele>
        <time>2026-05-24T07:19:32Z</time>
      </trkpt>
      <trkpt lat="47.12619" lon="6.08229">
        <ele>585.6</ele>
        <time>2026-05-24T07:19:33Z</time>
      </trkpt>
      <trkpt lat="47.12621" lon="6.08232">
        <ele>585.6</ele>
        <time>2026-05-24T07:19:34Z</time>
      </trkpt>
      <trkpt lat="47.12623" lon="6.08236">
        <ele>585.6</ele>
        <time>2026-05-24T07:19:35Z</time>
      </trkpt>
      <trkpt lat="47.12624" lon="6.0824">
        <ele>585.8</ele>
        <time>2026-05-24T07:19:36Z</time>
      </trkpt>
      <trkpt lat="47.12626" lon="6.08243">
        <ele>586</ele>
        <time>2026-05-24T07:19:37Z</time>
      </trkpt>
      <trkpt lat="47.12628" lon="6.08247">
        <ele>585.8</ele>
        <time>2026-05-24T07:19:38Z</time>
      </trkpt>
      <trkpt lat="47.1263" lon="6.0825">
        <ele>586</ele>
        <time>2026-05-24T07:19:39Z</time>
      </trkpt>
      <trkpt lat="47.12632" lon="6.08253">
        <ele>586</ele>
        <time>2026-05-24T07:19:40Z</time>
      </trkpt>
      <trkpt lat="47.12634" lon="6.08257">
        <ele>586.2</ele>
        <time>2026-05-24T07:19:41Z</time>
      </trkpt>
      <trkpt lat="47.12636" lon="6.0826">
        <ele>586.2</ele>
        <time>2026-05-24T07:19:42Z</time>
      </trkpt>
      <trkpt lat="47.12637" lon="6.08264">
        <ele>586.2</ele>
        <time>2026-05-24T07:19:43Z</time>
      </trkpt>
      <trkpt lat="47.12639" lon="6.08267">
        <ele>586.4</ele>
        <time>2026-05-24T07:19:44Z</time>
      </trkpt>
      <trkpt lat="47.12641" lon="6.0827">
        <ele>586.4</ele>
        <time>2026-05-24T07:19:45Z</time>
      </trkpt>
      <trkpt lat="47.12643" lon="6.08273">
        <ele>586.4</ele>
        <time>2026-05-24T07:19:46Z</time>
      </trkpt>
      <trkpt lat="47.12645" lon="6.08276">
        <ele>586.4</ele>
        <time>2026-05-24T07:19:47Z</time>
      </trkpt>
      <trkpt lat="47.12647" lon="6.08279">
        <ele>586.4</ele>
        <time>2026-05-24T07:19:48Z</time>
      </trkpt>
      <trkpt lat="47.12649" lon="6.08283">
        <ele>586.4</ele>
        <time>2026-05-24T07:19:49Z</time>
      </trkpt>
      <trkpt lat="47.12651" lon="6.08287">
        <ele>586.4</ele>
        <time>2026-05-24T07:19:50Z</time>
      </trkpt>
      <trkpt lat="47.12653" lon="6.0829">
        <ele>586.2</ele>
        <time>2026-05-24T07:19:51Z</time>
      </trkpt>
      <trkpt lat="47.12655" lon="6.08295">
        <ele>586.4</ele>
        <time>2026-05-24T07:19:52Z</time>
      </trkpt>
      <trkpt lat="47.12656" lon="6.083">
        <ele>586.2</ele>
        <time>2026-05-24T07:19:53Z</time>
      </trkpt>
      <trkpt lat="47.12658" lon="6.08305">
        <ele>586.2</ele>
        <time>2026-05-24T07:19:54Z</time>
      </trkpt>
      <trkpt lat="47.12659" lon="6.08308">
        <ele>586.4</ele>
        <time>2026-05-24T07:19:55Z</time>
      </trkpt>
      <trkpt lat="47.12661" lon="6.08313">
        <ele>586.4</ele>
        <time>2026-05-24T07:19:56Z</time>
      </trkpt>
      <trkpt lat="47.12663" lon="6.08317">
        <ele>586.4</ele>
        <time>2026-05-24T07:19:57Z</time>
      </trkpt>
      <trkpt lat="47.12664" lon="6.08321">
        <ele>586.2</ele>
        <time>2026-05-24T07:19:58Z</time>
      </trkpt>
      <trkpt lat="47.12666" lon="6.08326">
        <ele>585.8</ele>
        <time>2026-05-24T07:19:59Z</time>
      </trkpt>
      <trkpt lat="47.12668" lon="6.0833">
        <ele>585.8</ele>
        <time>2026-05-24T07:20:00Z</time>
      </trkpt>
      <trkpt lat="47.1267" lon="6.08335">
        <ele>585.4</ele>
        <time>2026-05-24T07:20:01Z</time>
      </trkpt>
      <trkpt lat="47.12672" lon="6.0834">
        <ele>585</ele>
        <time>2026-05-24T07:20:02Z</time>
      </trkpt>
      <trkpt lat="47.12674" lon="6.08344">
        <ele>584.8</ele>
        <time>2026-05-24T07:20:03Z</time>
      </trkpt>
      <trkpt lat="47.12676" lon="6.08347">
        <ele>584.6</ele>
        <time>2026-05-24T07:20:04Z</time>
      </trkpt>
      <trkpt lat="47.12679" lon="6.08351">
        <ele>584.2</ele>
        <time>2026-05-24T07:20:05Z</time>
      </trkpt>
      <trkpt lat="47.12681" lon="6.08355">
        <ele>584</ele>
        <time>2026-05-24T07:20:06Z</time>
      </trkpt>
      <trkpt lat="47.12683" lon="6.0836">
        <ele>583.6</ele>
        <time>2026-05-24T07:20:07Z</time>
      </trkpt>
      <trkpt lat="47.12685" lon="6.08364">
        <ele>583.6</ele>
        <time>2026-05-24T07:20:08Z</time>
      </trkpt>
      <trkpt lat="47.12688" lon="6.08368">
        <ele>583.4</ele>
        <time>2026-05-24T07:20:09Z</time>
      </trkpt>
      <trkpt lat="47.12692" lon="6.08373">
        <ele>583.2</ele>
        <time>2026-05-24T07:20:10Z</time>
      </trkpt>
      <trkpt lat="47.12695" lon="6.08377">
        <ele>583</ele>
        <time>2026-05-24T07:20:11Z</time>
      </trkpt>
      <trkpt lat="47.12697" lon="6.08382">
        <ele>583</ele>
        <time>2026-05-24T07:20:12Z</time>
      </trkpt>
      <trkpt lat="47.12699" lon="6.08386">
        <ele>582.8</ele>
        <time>2026-05-24T07:20:13Z</time>
      </trkpt>
      <trkpt lat="47.12702" lon="6.0839">
        <ele>582.6</ele>
        <time>2026-05-24T07:20:14Z</time>
      </trkpt>
      <trkpt lat="47.12705" lon="6.08395">
        <ele>582.4</ele>
        <time>2026-05-24T07:20:15Z</time>
      </trkpt>
      <trkpt lat="47.12707" lon="6.084">
        <ele>582.2</ele>
        <time>2026-05-24T07:20:16Z</time>
      </trkpt>
      <trkpt lat="47.1271" lon="6.08403">
        <ele>582</ele>
        <time>2026-05-24T07:20:17Z</time>
      </trkpt>
      <trkpt lat="47.12712" lon="6.08407">
        <ele>582</ele>
        <time>2026-05-24T07:20:18Z</time>
      </trkpt>
      <trkpt lat="47.12714" lon="6.08411">
        <ele>582</ele>
        <time>2026-05-24T07:20:19Z</time>
      </trkpt>
      <trkpt lat="47.12717" lon="6.08415">
        <ele>582</ele>
        <time>2026-05-24T07:20:20Z</time>
      </trkpt>
      <trkpt lat="47.12719" lon="6.08419">
        <ele>582</ele>
        <time>2026-05-24T07:20:21Z</time>
      </trkpt>
      <trkpt lat="47.1272" lon="6.08423">
        <ele>582</ele>
        <time>2026-05-24T07:20:22Z</time>
      </trkpt>
      <trkpt lat="47.12721" lon="6.08428">
        <ele>582</ele>
        <time>2026-05-24T07:20:23Z</time>
      </trkpt>
      <trkpt lat="47.12722" lon="6.08432">
        <ele>582</ele>
        <time>2026-05-24T07:20:24Z</time>
      </trkpt>
      <trkpt lat="47.12723" lon="6.08437">
        <ele>581.8</ele>
        <time>2026-05-24T07:20:25Z</time>
      </trkpt>
      <trkpt lat="47.12724" lon="6.08442">
        <ele>582</ele>
        <time>2026-05-24T07:20:26Z</time>
      </trkpt>
      <trkpt lat="47.12725" lon="6.08448">
        <ele>582</ele>
        <time>2026-05-24T07:20:27Z</time>
      </trkpt>
      <trkpt lat="47.12726" lon="6.08455">
        <ele>582.2</ele>
        <time>2026-05-24T07:20:28Z</time>
      </trkpt>
      <trkpt lat="47.12727" lon="6.08462">
        <ele>582</ele>
        <time>2026-05-24T07:20:29Z</time>
      </trkpt>
      <trkpt lat="47.12728" lon="6.08468">
        <ele>582</ele>
        <time>2026-05-24T07:20:30Z</time>
      </trkpt>
      <trkpt lat="47.12729" lon="6.08473">
        <ele>582.2</ele>
        <time>2026-05-24T07:20:31Z</time>
      </trkpt>
      <trkpt lat="47.1273" lon="6.08478">
        <ele>582</ele>
        <time>2026-05-24T07:20:32Z</time>
      </trkpt>
      <trkpt lat="47.12731" lon="6.08481">
        <ele>582.2</ele>
        <time>2026-05-24T07:20:33Z</time>
      </trkpt>
      <trkpt lat="47.12732" lon="6.08485">
        <ele>582.4</ele>
        <time>2026-05-24T07:20:34Z</time>
      </trkpt>
      <trkpt lat="47.12734" lon="6.0849">
        <ele>582.6</ele>
        <time>2026-05-24T07:20:35Z</time>
      </trkpt>
      <trkpt lat="47.12735" lon="6.08495">
        <ele>582.8</ele>
        <time>2026-05-24T07:20:36Z</time>
      </trkpt>
      <trkpt lat="47.12737" lon="6.08499">
        <ele>583.2</ele>
        <time>2026-05-24T07:20:37Z</time>
      </trkpt>
      <trkpt lat="47.12739" lon="6.08504">
        <ele>583.4</ele>
        <time>2026-05-24T07:20:38Z</time>
      </trkpt>
      <trkpt lat="47.1274" lon="6.0851">
        <ele>583.4</ele>
        <time>2026-05-24T07:20:39Z</time>
      </trkpt>
      <trkpt lat="47.12744" lon="6.08515">
        <ele>583.6</ele>
        <time>2026-05-24T07:20:40Z</time>
      </trkpt>
      <trkpt lat="47.12748" lon="6.08522">
        <ele>583.8</ele>
        <time>2026-05-24T07:20:41Z</time>
      </trkpt>
      <trkpt lat="47.12751" lon="6.08527">
        <ele>583.8</ele>
        <time>2026-05-24T07:20:42Z</time>
      </trkpt>
      <trkpt lat="47.12755" lon="6.08532">
        <ele>584</ele>
        <time>2026-05-24T07:20:43Z</time>
      </trkpt>
      <trkpt lat="47.12759" lon="6.08538">
        <ele>584</ele>
        <time>2026-05-24T07:20:44Z</time>
      </trkpt>
      <trkpt lat="47.12761" lon="6.08543">
        <ele>584</ele>
        <time>2026-05-24T07:20:45Z</time>
      </trkpt>
      <trkpt lat="47.12764" lon="6.08547">
        <ele>584.6</ele>
        <time>2026-05-24T07:20:46Z</time>
      </trkpt>
      <trkpt lat="47.12767" lon="6.08553">
        <ele>584.6</ele>
        <time>2026-05-24T07:20:47Z</time>
      </trkpt>
      <trkpt lat="47.12771" lon="6.08558">
        <ele>584.8</ele>
        <time>2026-05-24T07:20:48Z</time>
      </trkpt>
      <trkpt lat="47.12775" lon="6.08563">
        <ele>584.8</ele>
        <time>2026-05-24T07:20:49Z</time>
      </trkpt>
      <trkpt lat="47.12778" lon="6.08567">
        <ele>584.8</ele>
        <time>2026-05-24T07:20:50Z</time>
      </trkpt>
      <trkpt lat="47.12781" lon="6.08571">
        <ele>585</ele>
        <time>2026-05-24T07:20:51Z</time>
      </trkpt>
      <trkpt lat="47.12785" lon="6.08577">
        <ele>585</ele>
        <time>2026-05-24T07:20:52Z</time>
      </trkpt>
      <trkpt lat="47.12789" lon="6.08581">
        <ele>585</ele>
        <time>2026-05-24T07:20:53Z</time>
      </trkpt>
      <trkpt lat="47.12792" lon="6.08585">
        <ele>585</ele>
        <time>2026-05-24T07:20:54Z</time>
      </trkpt>
      <trkpt lat="47.12795" lon="6.0859">
        <ele>585.2</ele>
        <time>2026-05-24T07:20:55Z</time>
      </trkpt>
      <trkpt lat="47.12799" lon="6.08594">
        <ele>585.2</ele>
        <time>2026-05-24T07:20:56Z</time>
      </trkpt>
      <trkpt lat="47.12803" lon="6.08596">
        <ele>585.2</ele>
        <time>2026-05-24T07:20:57Z</time>
      </trkpt>
      <trkpt lat="47.12806" lon="6.08597">
        <ele>585.2</ele>
        <time>2026-05-24T07:20:58Z</time>
      </trkpt>
      <trkpt lat="47.1281" lon="6.08598">
        <ele>585.2</ele>
        <time>2026-05-24T07:20:59Z</time>
      </trkpt>
      <trkpt lat="47.12814" lon="6.08599">
        <ele>585.2</ele>
        <time>2026-05-24T07:21:00Z</time>
      </trkpt>
      <trkpt lat="47.12818" lon="6.086">
        <ele>585.4</ele>
        <time>2026-05-24T07:21:01Z</time>
      </trkpt>
      <trkpt lat="47.12822" lon="6.08603">
        <ele>585.2</ele>
        <time>2026-05-24T07:21:02Z</time>
      </trkpt>
      <trkpt lat="47.12826" lon="6.08606">
        <ele>585.2</ele>
        <time>2026-05-24T07:21:03Z</time>
      </trkpt>
      <trkpt lat="47.1283" lon="6.0861">
        <ele>585.2</ele>
        <time>2026-05-24T07:21:04Z</time>
      </trkpt>
      <trkpt lat="47.12833" lon="6.08614">
        <ele>585.2</ele>
        <time>2026-05-24T07:21:05Z</time>
      </trkpt>
      <trkpt lat="47.12837" lon="6.08618">
        <ele>585</ele>
        <time>2026-05-24T07:21:06Z</time>
      </trkpt>
      <trkpt lat="47.1284" lon="6.08622">
        <ele>584.6</ele>
        <time>2026-05-24T07:21:07Z</time>
      </trkpt>
      <trkpt lat="47.12842" lon="6.08626">
        <ele>584.6</ele>
        <time>2026-05-24T07:21:08Z</time>
      </trkpt>
      <trkpt lat="47.12846" lon="6.0863">
        <ele>584.2</ele>
        <time>2026-05-24T07:21:09Z</time>
      </trkpt>
      <trkpt lat="47.12848" lon="6.08635">
        <ele>584.2</ele>
        <time>2026-05-24T07:21:10Z</time>
      </trkpt>
      <trkpt lat="47.1285" lon="6.08639">
        <ele>584.2</ele>
        <time>2026-05-24T07:21:11Z</time>
      </trkpt>
      <trkpt lat="47.12852" lon="6.08644">
        <ele>584</ele>
        <time>2026-05-24T07:21:12Z</time>
      </trkpt>
      <trkpt lat="47.12854" lon="6.08649">
        <ele>584.2</ele>
        <time>2026-05-24T07:21:13Z</time>
      </trkpt>
      <trkpt lat="47.12855" lon="6.08655">
        <ele>584.2</ele>
        <time>2026-05-24T07:21:14Z</time>
      </trkpt>
      <trkpt lat="47.12855" lon="6.08661">
        <ele>584.2</ele>
        <time>2026-05-24T07:21:15Z</time>
      </trkpt>
      <trkpt lat="47.12855" lon="6.08667">
        <ele>584.2</ele>
        <time>2026-05-24T07:21:16Z</time>
      </trkpt>
      <trkpt lat="47.12855" lon="6.08672">
        <ele>584.2</ele>
        <time>2026-05-24T07:21:17Z</time>
      </trkpt>
      <trkpt lat="47.12856" lon="6.08677">
        <ele>584.2</ele>
        <time>2026-05-24T07:21:18Z</time>
      </trkpt>
      <trkpt lat="47.12857" lon="6.08681">
        <ele>584.2</ele>
        <time>2026-05-24T07:21:19Z</time>
      </trkpt>
      <trkpt lat="47.12859" lon="6.08684">
        <ele>584.2</ele>
        <time>2026-05-24T07:21:20Z</time>
      </trkpt>
      <trkpt lat="47.12861" lon="6.08687">
        <ele>584.4</ele>
        <time>2026-05-24T07:21:21Z</time>
      </trkpt>
      <trkpt lat="47.12863" lon="6.0869">
        <ele>584.4</ele>
        <time>2026-05-24T07:21:22Z</time>
      </trkpt>
      <trkpt lat="47.12864" lon="6.08693">
        <ele>584.6</ele>
        <time>2026-05-24T07:21:23Z</time>
      </trkpt>
      <trkpt lat="47.12867" lon="6.08695">
        <ele>584.8</ele>
        <time>2026-05-24T07:21:24Z</time>
      </trkpt>
      <trkpt lat="47.1287" lon="6.08698">
        <ele>585</ele>
        <time>2026-05-24T07:21:25Z</time>
      </trkpt>
      <trkpt lat="47.12872" lon="6.08701">
        <ele>585.4</ele>
        <time>2026-05-24T07:21:26Z</time>
      </trkpt>
      <trkpt lat="47.12875" lon="6.08705">
        <ele>585.2</ele>
        <time>2026-05-24T07:21:27Z</time>
      </trkpt>
      <trkpt lat="47.12879" lon="6.08709">
        <ele>585.4</ele>
        <time>2026-05-24T07:21:28Z</time>
      </trkpt>
      <trkpt lat="47.12883" lon="6.08712">
        <ele>585.4</ele>
        <time>2026-05-24T07:21:29Z</time>
      </trkpt>
      <trkpt lat="47.12888" lon="6.08716">
        <ele>585.4</ele>
        <time>2026-05-24T07:21:30Z</time>
      </trkpt>
      <trkpt lat="47.12893" lon="6.08721">
        <ele>585.4</ele>
        <time>2026-05-24T07:21:31Z</time>
      </trkpt>
      <trkpt lat="47.12898" lon="6.08725">
        <ele>585.4</ele>
        <time>2026-05-24T07:21:32Z</time>
      </trkpt>
      <trkpt lat="47.12903" lon="6.0873">
        <ele>585.4</ele>
        <time>2026-05-24T07:21:33Z</time>
      </trkpt>
      <trkpt lat="47.12908" lon="6.08735">
        <ele>585.4</ele>
        <time>2026-05-24T07:21:34Z</time>
      </trkpt>
      <trkpt lat="47.12913" lon="6.0874">
        <ele>585.4</ele>
        <time>2026-05-24T07:21:35Z</time>
      </trkpt>
      <trkpt lat="47.12917" lon="6.08744">
        <ele>585.4</ele>
        <time>2026-05-24T07:21:36Z</time>
      </trkpt>
      <trkpt lat="47.12921" lon="6.08748">
        <ele>585.4</ele>
        <time>2026-05-24T07:21:37Z</time>
      </trkpt>
      <trkpt lat="47.12924" lon="6.08751">
        <ele>584.8</ele>
        <time>2026-05-24T07:21:38Z</time>
      </trkpt>
      <trkpt lat="47.12928" lon="6.08754">
        <ele>584</ele>
        <time>2026-05-24T07:21:39Z</time>
      </trkpt>
      <trkpt lat="47.12931" lon="6.08757">
        <ele>583.4</ele>
        <time>2026-05-24T07:21:40Z</time>
      </trkpt>
      <trkpt lat="47.12934" lon="6.08761">
        <ele>583.2</ele>
        <time>2026-05-24T07:21:41Z</time>
      </trkpt>
      <trkpt lat="47.12938" lon="6.08765">
        <ele>583</ele>
        <time>2026-05-24T07:21:42Z</time>
      </trkpt>
      <trkpt lat="47.12941" lon="6.08769">
        <ele>582.8</ele>
        <time>2026-05-24T07:21:43Z</time>
      </trkpt>
      <trkpt lat="47.12944" lon="6.08773">
        <ele>582.8</ele>
        <time>2026-05-24T07:21:44Z</time>
      </trkpt>
      <trkpt lat="47.12947" lon="6.08778">
        <ele>582.8</ele>
        <time>2026-05-24T07:21:45Z</time>
      </trkpt>
      <trkpt lat="47.12949" lon="6.08782">
        <ele>583</ele>
        <time>2026-05-24T07:21:46Z</time>
      </trkpt>
      <trkpt lat="47.12952" lon="6.08786">
        <ele>582.8</ele>
        <time>2026-05-24T07:21:47Z</time>
      </trkpt>
      <trkpt lat="47.12954" lon="6.0879">
        <ele>582.8</ele>
        <time>2026-05-24T07:21:48Z</time>
      </trkpt>
      <trkpt lat="47.12955" lon="6.08794">
        <ele>582.8</ele>
        <time>2026-05-24T07:21:49Z</time>
      </trkpt>
      <trkpt lat="47.12956" lon="6.088">
        <ele>583</ele>
        <time>2026-05-24T07:21:50Z</time>
      </trkpt>
      <trkpt lat="47.12958" lon="6.08804">
        <ele>583.2</ele>
        <time>2026-05-24T07:21:51Z</time>
      </trkpt>
      <trkpt lat="47.1296" lon="6.08808">
        <ele>583.2</ele>
        <time>2026-05-24T07:21:52Z</time>
      </trkpt>
      <trkpt lat="47.12961" lon="6.08812">
        <ele>583.6</ele>
        <time>2026-05-24T07:21:53Z</time>
      </trkpt>
      <trkpt lat="47.12962" lon="6.08816">
        <ele>583.6</ele>
        <time>2026-05-24T07:21:54Z</time>
      </trkpt>
      <trkpt lat="47.12963" lon="6.0882">
        <ele>583.8</ele>
        <time>2026-05-24T07:21:55Z</time>
      </trkpt>
      <trkpt lat="47.12965" lon="6.08824">
        <ele>584</ele>
        <time>2026-05-24T07:21:56Z</time>
      </trkpt>
      <trkpt lat="47.12966" lon="6.08828">
        <ele>584.4</ele>
        <time>2026-05-24T07:21:57Z</time>
      </trkpt>
      <trkpt lat="47.12967" lon="6.08832">
        <ele>584.4</ele>
        <time>2026-05-24T07:21:58Z</time>
      </trkpt>
      <trkpt lat="47.12969" lon="6.08835">
        <ele>584.6</ele>
        <time>2026-05-24T07:21:59Z</time>
      </trkpt>
      <trkpt lat="47.1297" lon="6.08839">
        <ele>585</ele>
        <time>2026-05-24T07:22:00Z</time>
      </trkpt>
      <trkpt lat="47.12971" lon="6.08842">
        <ele>585</ele>
        <time>2026-05-24T07:22:01Z</time>
      </trkpt>
      <trkpt lat="47.12972" lon="6.08846">
        <ele>585.2</ele>
        <time>2026-05-24T07:22:02Z</time>
      </trkpt>
      <trkpt lat="47.12973" lon="6.0885">
        <ele>585.4</ele>
        <time>2026-05-24T07:22:03Z</time>
      </trkpt>
      <trkpt lat="47.12974" lon="6.08853">
        <ele>585.8</ele>
        <time>2026-05-24T07:22:04Z</time>
      </trkpt>
      <trkpt lat="47.12975" lon="6.08857">
        <ele>586</ele>
        <time>2026-05-24T07:22:05Z</time>
      </trkpt>
      <trkpt lat="47.12976" lon="6.08861">
        <ele>586.2</ele>
        <time>2026-05-24T07:22:06Z</time>
      </trkpt>
      <trkpt lat="47.12977" lon="6.08865">
        <ele>586.2</ele>
        <time>2026-05-24T07:22:07Z</time>
      </trkpt>
      <trkpt lat="47.12977" lon="6.08869">
        <ele>586.4</ele>
        <time>2026-05-24T07:22:08Z</time>
      </trkpt>
      <trkpt lat="47.12978" lon="6.08873">
        <ele>586.6</ele>
        <time>2026-05-24T07:22:09Z</time>
      </trkpt>
      <trkpt lat="47.12978" lon="6.08878">
        <ele>586.6</ele>
        <time>2026-05-24T07:22:10Z</time>
      </trkpt>
      <trkpt lat="47.12979" lon="6.08883">
        <ele>587</ele>
        <time>2026-05-24T07:22:11Z</time>
      </trkpt>
      <trkpt lat="47.12979" lon="6.08887">
        <ele>587</ele>
        <time>2026-05-24T07:22:12Z</time>
      </trkpt>
      <trkpt lat="47.12979" lon="6.08892">
        <ele>587.2</ele>
        <time>2026-05-24T07:22:13Z</time>
      </trkpt>
      <trkpt lat="47.12979" lon="6.08897">
        <ele>587.4</ele>
        <time>2026-05-24T07:22:14Z</time>
      </trkpt>
      <trkpt lat="47.1298" lon="6.089">
        <ele>587.6</ele>
        <time>2026-05-24T07:22:15Z</time>
      </trkpt>
      <trkpt lat="47.1298" lon="6.08905">
        <ele>587.8</ele>
        <time>2026-05-24T07:22:16Z</time>
      </trkpt>
      <trkpt lat="47.12981" lon="6.08909">
        <ele>588</ele>
        <time>2026-05-24T07:22:17Z</time>
      </trkpt>
      <trkpt lat="47.12983" lon="6.08913">
        <ele>588.2</ele>
        <time>2026-05-24T07:22:18Z</time>
      </trkpt>
      <trkpt lat="47.12984" lon="6.08916">
        <ele>588.4</ele>
        <time>2026-05-24T07:22:19Z</time>
      </trkpt>
      <trkpt lat="47.12985" lon="6.0892">
        <ele>588.4</ele>
        <time>2026-05-24T07:22:20Z</time>
      </trkpt>
      <trkpt lat="47.12986" lon="6.08923">
        <ele>588.4</ele>
        <time>2026-05-24T07:22:21Z</time>
      </trkpt>
      <trkpt lat="47.12987" lon="6.08926">
        <ele>588.6</ele>
        <time>2026-05-24T07:22:22Z</time>
      </trkpt>
      <trkpt lat="47.12988" lon="6.08929">
        <ele>588.8</ele>
        <time>2026-05-24T07:22:23Z</time>
      </trkpt>
      <trkpt lat="47.12989" lon="6.08932">
        <ele>588.8</ele>
        <time>2026-05-24T07:22:24Z</time>
      </trkpt>
      <trkpt lat="47.1299" lon="6.08936">
        <ele>589.2</ele>
        <time>2026-05-24T07:22:25Z</time>
      </trkpt>
      <trkpt lat="47.12992" lon="6.0894">
        <ele>589.2</ele>
        <time>2026-05-24T07:22:26Z</time>
      </trkpt>
      <trkpt lat="47.12993" lon="6.08943">
        <ele>589.6</ele>
        <time>2026-05-24T07:22:27Z</time>
      </trkpt>
      <trkpt lat="47.12994" lon="6.08947">
        <ele>589.6</ele>
        <time>2026-05-24T07:22:28Z</time>
      </trkpt>
      <trkpt lat="47.12995" lon="6.0895">
        <ele>589.6</ele>
        <time>2026-05-24T07:22:29Z</time>
      </trkpt>
      <trkpt lat="47.12996" lon="6.08953">
        <ele>589.6</ele>
        <time>2026-05-24T07:22:30Z</time>
      </trkpt>
      <trkpt lat="47.12997" lon="6.08955">
        <ele>589.8</ele>
        <time>2026-05-24T07:22:31Z</time>
      </trkpt>
      <trkpt lat="47.12998" lon="6.08957">
        <ele>590</ele>
        <time>2026-05-24T07:22:32Z</time>
      </trkpt>
      <trkpt lat="47.12998" lon="6.08959">
        <ele>590</ele>
        <time>2026-05-24T07:22:33Z</time>
      </trkpt>
      <trkpt lat="47.12998" lon="6.08961">
        <ele>590</ele>
        <time>2026-05-24T07:22:34Z</time>
      </trkpt>
      <trkpt lat="47.12998" lon="6.08963">
        <ele>590</ele>
        <time>2026-05-24T07:22:35Z</time>
      </trkpt>
      <trkpt lat="47.12998" lon="6.08966">
        <ele>590</ele>
        <time>2026-05-24T07:22:36Z</time>
      </trkpt>
      <trkpt lat="47.12999" lon="6.08967">
        <ele>590</ele>
        <time>2026-05-24T07:22:37Z</time>
      </trkpt>
      <trkpt lat="47.13002" lon="6.0897">
        <ele>589.8</ele>
        <time>2026-05-24T07:22:38Z</time>
      </trkpt>
      <trkpt lat="47.13002" lon="6.08972">
        <ele>590</ele>
        <time>2026-05-24T07:22:39Z</time>
      </trkpt>
      <trkpt lat="47.13002" lon="6.08974">
        <ele>589.8</ele>
        <time>2026-05-24T07:22:40Z</time>
      </trkpt>
      <trkpt lat="47.13002" lon="6.08975">
        <ele>590</ele>
        <time>2026-05-24T07:22:41Z</time>
      </trkpt>
      <trkpt lat="47.13003" lon="6.08976">
        <ele>590</ele>
        <time>2026-05-24T07:22:42Z</time>
      </trkpt>
      <trkpt lat="47.13003" lon="6.08978">
        <ele>589.8</ele>
        <time>2026-05-24T07:22:43Z</time>
      </trkpt>
      <trkpt lat="47.13004" lon="6.0898">
        <ele>590</ele>
        <time>2026-05-24T07:22:44Z</time>
      </trkpt>
      <trkpt lat="47.13004" lon="6.08981">
        <ele>589.8</ele>
        <time>2026-05-24T07:22:45Z</time>
      </trkpt>
      <trkpt lat="47.13005" lon="6.08984">
        <ele>589.8</ele>
        <time>2026-05-24T07:22:46Z</time>
      </trkpt>
      <trkpt lat="47.13005" lon="6.08987">
        <ele>589.8</ele>
        <time>2026-05-24T07:22:47Z</time>
      </trkpt>
      <trkpt lat="47.13005" lon="6.0899">
        <ele>589.4</ele>
        <time>2026-05-24T07:22:48Z</time>
      </trkpt>
      <trkpt lat="47.13005" lon="6.08995">
        <ele>589.4</ele>
        <time>2026-05-24T07:22:49Z</time>
      </trkpt>
      <trkpt lat="47.13006" lon="6.08999">
        <ele>589.2</ele>
        <time>2026-05-24T07:22:50Z</time>
      </trkpt>
      <trkpt lat="47.13008" lon="6.09005">
        <ele>589.2</ele>
        <time>2026-05-24T07:22:51Z</time>
      </trkpt>
      <trkpt lat="47.13009" lon="6.0901">
        <ele>589</ele>
        <time>2026-05-24T07:22:52Z</time>
      </trkpt>
      <trkpt lat="47.1301" lon="6.09014">
        <ele>588.8</ele>
        <time>2026-05-24T07:22:53Z</time>
      </trkpt>
      <trkpt lat="47.13011" lon="6.09018">
        <ele>588.6</ele>
        <time>2026-05-24T07:22:54Z</time>
      </trkpt>
      <trkpt lat="47.13011" lon="6.09022">
        <ele>588.2</ele>
        <time>2026-05-24T07:22:55Z</time>
      </trkpt>
      <trkpt lat="47.13011" lon="6.09025">
        <ele>587.8</ele>
        <time>2026-05-24T07:22:56Z</time>
      </trkpt>
      <trkpt lat="47.13011" lon="6.09029">
        <ele>587.4</ele>
        <time>2026-05-24T07:22:57Z</time>
      </trkpt>
      <trkpt lat="47.1301" lon="6.09033">
        <ele>586.6</ele>
        <time>2026-05-24T07:22:58Z</time>
      </trkpt>
      <trkpt lat="47.13008" lon="6.09036">
        <ele>585.8</ele>
        <time>2026-05-24T07:22:59Z</time>
      </trkpt>
      <trkpt lat="47.13004" lon="6.0904">
        <ele>584.6</ele>
        <time>2026-05-24T07:23:00Z</time>
      </trkpt>
      <trkpt lat="47.13001" lon="6.09044">
        <ele>583.8</ele>
        <time>2026-05-24T07:23:01Z</time>
      </trkpt>
      <trkpt lat="47.12998" lon="6.09045">
        <ele>583</ele>
        <time>2026-05-24T07:23:02Z</time>
      </trkpt>
      <trkpt lat="47.12995" lon="6.09046">
        <ele>582</ele>
        <time>2026-05-24T07:23:03Z</time>
      </trkpt>
      <trkpt lat="47.12991" lon="6.09047">
        <ele>581.2</ele>
        <time>2026-05-24T07:23:04Z</time>
      </trkpt>
      <trkpt lat="47.12988" lon="6.09047">
        <ele>581.2</ele>
        <time>2026-05-24T07:23:05Z</time>
      </trkpt>
      <trkpt lat="47.12985" lon="6.09047">
        <ele>580.2</ele>
        <time>2026-05-24T07:23:06Z</time>
      </trkpt>
      <trkpt lat="47.12982" lon="6.09047">
        <ele>579.4</ele>
        <time>2026-05-24T07:23:07Z</time>
      </trkpt>
      <trkpt lat="47.12978" lon="6.09047">
        <ele>578.8</ele>
        <time>2026-05-24T07:23:08Z</time>
      </trkpt>
      <trkpt lat="47.12975" lon="6.09047">
        <ele>578.6</ele>
        <time>2026-05-24T07:23:09Z</time>
      </trkpt>
      <trkpt lat="47.12971" lon="6.09048">
        <ele>578.4</ele>
        <time>2026-05-24T07:23:10Z</time>
      </trkpt>
      <trkpt lat="47.12967" lon="6.09049">
        <ele>578.2</ele>
        <time>2026-05-24T07:23:11Z</time>
      </trkpt>
      <trkpt lat="47.12964" lon="6.09049">
        <ele>578.2</ele>
        <time>2026-05-24T07:23:12Z</time>
      </trkpt>
      <trkpt lat="47.1296" lon="6.09049">
        <ele>578.2</ele>
        <time>2026-05-24T07:23:13Z</time>
      </trkpt>
      <trkpt lat="47.12956" lon="6.0905">
        <ele>578.2</ele>
        <time>2026-05-24T07:23:14Z</time>
      </trkpt>
      <trkpt lat="47.12953" lon="6.09051">
        <ele>578</ele>
        <time>2026-05-24T07:23:15Z</time>
      </trkpt>
      <trkpt lat="47.12949" lon="6.09051">
        <ele>578</ele>
        <time>2026-05-24T07:23:16Z</time>
      </trkpt>
      <trkpt lat="47.12945" lon="6.09053">
        <ele>578</ele>
        <time>2026-05-24T07:23:17Z</time>
      </trkpt>
      <trkpt lat="47.1294" lon="6.09056">
        <ele>578</ele>
        <time>2026-05-24T07:23:18Z</time>
      </trkpt>
      <trkpt lat="47.12934" lon="6.09059">
        <ele>578</ele>
        <time>2026-05-24T07:23:19Z</time>
      </trkpt>
      <trkpt lat="47.12928" lon="6.09062">
        <ele>577.8</ele>
        <time>2026-05-24T07:23:20Z</time>
      </trkpt>
      <trkpt lat="47.12923" lon="6.09065">
        <ele>577.8</ele>
        <time>2026-05-24T07:23:21Z</time>
      </trkpt>
      <trkpt lat="47.12916" lon="6.0907">
        <ele>577.8</ele>
        <time>2026-05-24T07:23:22Z</time>
      </trkpt>
      <trkpt lat="47.12911" lon="6.09075">
        <ele>577.6</ele>
        <time>2026-05-24T07:23:23Z</time>
      </trkpt>
      <trkpt lat="47.12905" lon="6.0908">
        <ele>577.4</ele>
        <time>2026-05-24T07:23:24Z</time>
      </trkpt>
      <trkpt lat="47.12899" lon="6.09084">
        <ele>577.4</ele>
        <time>2026-05-24T07:23:25Z</time>
      </trkpt>
      <trkpt lat="47.12894" lon="6.09089">
        <ele>577.2</ele>
        <time>2026-05-24T07:23:26Z</time>
      </trkpt>
      <trkpt lat="47.12888" lon="6.09093">
        <ele>577.2</ele>
        <time>2026-05-24T07:23:27Z</time>
      </trkpt>
      <trkpt lat="47.12883" lon="6.09096">
        <ele>577</ele>
        <time>2026-05-24T07:23:28Z</time>
      </trkpt>
      <trkpt lat="47.12877" lon="6.09098">
        <ele>577</ele>
        <time>2026-05-24T07:23:29Z</time>
      </trkpt>
      <trkpt lat="47.12872" lon="6.091">
        <ele>576.6</ele>
        <time>2026-05-24T07:23:30Z</time>
      </trkpt>
      <trkpt lat="47.12866" lon="6.09101">
        <ele>576.4</ele>
        <time>2026-05-24T07:23:31Z</time>
      </trkpt>
      <trkpt lat="47.12859" lon="6.09102">
        <ele>576.4</ele>
        <time>2026-05-24T07:23:32Z</time>
      </trkpt>
      <trkpt lat="47.12852" lon="6.09104">
        <ele>576.2</ele>
        <time>2026-05-24T07:23:33Z</time>
      </trkpt>
      <trkpt lat="47.12844" lon="6.09106">
        <ele>576.4</ele>
        <time>2026-05-24T07:23:34Z</time>
      </trkpt>
      <trkpt lat="47.12836" lon="6.09108">
        <ele>576.2</ele>
        <time>2026-05-24T07:23:35Z</time>
      </trkpt>
      <trkpt lat="47.12828" lon="6.0911">
        <ele>576.2</ele>
        <time>2026-05-24T07:23:36Z</time>
      </trkpt>
      <trkpt lat="47.1282" lon="6.09112">
        <ele>576</ele>
        <time>2026-05-24T07:23:37Z</time>
      </trkpt>
      <trkpt lat="47.12812" lon="6.09114">
        <ele>575.8</ele>
        <time>2026-05-24T07:23:38Z</time>
      </trkpt>
      <trkpt lat="47.12803" lon="6.09114">
        <ele>575.6</ele>
        <time>2026-05-24T07:23:39Z</time>
      </trkpt>
      <trkpt lat="47.12794" lon="6.09115">
        <ele>575.4</ele>
        <time>2026-05-24T07:23:40Z</time>
      </trkpt>
      <trkpt lat="47.12784" lon="6.09116">
        <ele>574.8</ele>
        <time>2026-05-24T07:23:41Z</time>
      </trkpt>
      <trkpt lat="47.12774" lon="6.09117">
        <ele>574.6</ele>
        <time>2026-05-24T07:23:42Z</time>
      </trkpt>
      <trkpt lat="47.12763" lon="6.09117">
        <ele>574.2</ele>
        <time>2026-05-24T07:23:43Z</time>
      </trkpt>
      <trkpt lat="47.12753" lon="6.09116">
        <ele>574</ele>
        <time>2026-05-24T07:23:44Z</time>
      </trkpt>
      <trkpt lat="47.12743" lon="6.09115">
        <ele>573.6</ele>
        <time>2026-05-24T07:23:45Z</time>
      </trkpt>
      <trkpt lat="47.12733" lon="6.09113">
        <ele>573</ele>
        <time>2026-05-24T07:23:46Z</time>
      </trkpt>
      <trkpt lat="47.12723" lon="6.09113">
        <ele>572.6</ele>
        <time>2026-05-24T07:23:47Z</time>
      </trkpt>
      <trkpt lat="47.12714" lon="6.09116">
        <ele>572.4</ele>
        <time>2026-05-24T07:23:48Z</time>
      </trkpt>
      <trkpt lat="47.12705" lon="6.0912">
        <ele>572.4</ele>
        <time>2026-05-24T07:23:49Z</time>
      </trkpt>
      <trkpt lat="47.12696" lon="6.09126">
        <ele>571.8</ele>
        <time>2026-05-24T07:23:50Z</time>
      </trkpt>
      <trkpt lat="47.12686" lon="6.0913">
        <ele>571.4</ele>
        <time>2026-05-24T07:23:51Z</time>
      </trkpt>
      <trkpt lat="47.12677" lon="6.09133">
        <ele>571</ele>
        <time>2026-05-24T07:23:52Z</time>
      </trkpt>
      <trkpt lat="47.12668" lon="6.09135">
        <ele>570.6</ele>
        <time>2026-05-24T07:23:53Z</time>
      </trkpt>
      <trkpt lat="47.12661" lon="6.09138">
        <ele>570.2</ele>
        <time>2026-05-24T07:23:54Z</time>
      </trkpt>
      <trkpt lat="47.12656" lon="6.09141">
        <ele>569.6</ele>
        <time>2026-05-24T07:23:55Z</time>
      </trkpt>
      <trkpt lat="47.12651" lon="6.09144">
        <ele>569.4</ele>
        <time>2026-05-24T07:23:56Z</time>
      </trkpt>
      <trkpt lat="47.12649" lon="6.09149">
        <ele>569.2</ele>
        <time>2026-05-24T07:23:57Z</time>
      </trkpt>
      <trkpt lat="47.12648" lon="6.09153">
        <ele>568.4</ele>
        <time>2026-05-24T07:23:58Z</time>
      </trkpt>
      <trkpt lat="47.12648" lon="6.09157">
        <ele>567.6</ele>
        <time>2026-05-24T07:23:59Z</time>
      </trkpt>
      <trkpt lat="47.12647" lon="6.09162">
        <ele>566.8</ele>
        <time>2026-05-24T07:24:00Z</time>
      </trkpt>
      <trkpt lat="47.12647" lon="6.09165">
        <ele>566.2</ele>
        <time>2026-05-24T07:24:01Z</time>
      </trkpt>
      <trkpt lat="47.12647" lon="6.09167">
        <ele>566</ele>
        <time>2026-05-24T07:24:02Z</time>
      </trkpt>
      <trkpt lat="47.12646" lon="6.09169">
        <ele>565.8</ele>
        <time>2026-05-24T07:24:03Z</time>
      </trkpt>
      <trkpt lat="47.12645" lon="6.09171">
        <ele>565.8</ele>
        <time>2026-05-24T07:24:04Z</time>
      </trkpt>
      <trkpt lat="47.12645" lon="6.09171">
        <ele>565.8</ele>
        <time>2026-05-24T07:24:05Z</time>
      </trkpt>
      <trkpt lat="47.12646" lon="6.09171">
        <ele>565.8</ele>
        <time>2026-05-24T07:24:06Z</time>
      </trkpt>
      <trkpt lat="47.12646" lon="6.09171">
        <ele>565.8</ele>
        <time>2026-05-24T07:24:07Z</time>
      </trkpt>
      <trkpt lat="47.12641" lon="6.09176">
        <ele>566.2</ele>
        <time>2026-05-24T07:24:36Z</time>
      </trkpt>
      <trkpt lat="47.12639" lon="6.09178">
        <ele>566.2</ele>
        <time>2026-05-24T07:24:37Z</time>
      </trkpt>
      <trkpt lat="47.12636" lon="6.09179">
        <ele>566.2</ele>
        <time>2026-05-24T07:24:38Z</time>
      </trkpt>
      <trkpt lat="47.12634" lon="6.0918">
        <ele>566.4</ele>
        <time>2026-05-24T07:24:39Z</time>
      </trkpt>
      <trkpt lat="47.12632" lon="6.09181">
        <ele>566.2</ele>
        <time>2026-05-24T07:24:40Z</time>
      </trkpt>
      <trkpt lat="47.1263" lon="6.09182">
        <ele>566.6</ele>
        <time>2026-05-24T07:24:41Z</time>
      </trkpt>
      <trkpt lat="47.12629" lon="6.09184">
        <ele>566.8</ele>
        <time>2026-05-24T07:24:42Z</time>
      </trkpt>
      <trkpt lat="47.12627" lon="6.09185">
        <ele>567</ele>
        <time>2026-05-24T07:24:43Z</time>
      </trkpt>
      <trkpt lat="47.12624" lon="6.09186">
        <ele>567</ele>
        <time>2026-05-24T07:24:44Z</time>
      </trkpt>
      <trkpt lat="47.12622" lon="6.09187">
        <ele>567.6</ele>
        <time>2026-05-24T07:24:45Z</time>
      </trkpt>
      <trkpt lat="47.12619" lon="6.09188">
        <ele>567.8</ele>
        <time>2026-05-24T07:24:46Z</time>
      </trkpt>
      <trkpt lat="47.12616" lon="6.09189">
        <ele>567.6</ele>
        <time>2026-05-24T07:24:47Z</time>
      </trkpt>
      <trkpt lat="47.12614" lon="6.09191">
        <ele>568.2</ele>
        <time>2026-05-24T07:24:48Z</time>
      </trkpt>
      <trkpt lat="47.12612" lon="6.09192">
        <ele>568.8</ele>
        <time>2026-05-24T07:24:49Z</time>
      </trkpt>
      <trkpt lat="47.1261" lon="6.09193">
        <ele>569</ele>
        <time>2026-05-24T07:24:50Z</time>
      </trkpt>
      <trkpt lat="47.12607" lon="6.09194">
        <ele>569.6</ele>
        <time>2026-05-24T07:24:51Z</time>
      </trkpt>
      <trkpt lat="47.12604" lon="6.09195">
        <ele>570</ele>
        <time>2026-05-24T07:24:52Z</time>
      </trkpt>
      <trkpt lat="47.12601" lon="6.09196">
        <ele>570.4</ele>
        <time>2026-05-24T07:24:53Z</time>
      </trkpt>
      <trkpt lat="47.12599" lon="6.09197">
        <ele>570.6</ele>
        <time>2026-05-24T07:24:54Z</time>
      </trkpt>
      <trkpt lat="47.12597" lon="6.09198">
        <ele>570.8</ele>
        <time>2026-05-24T07:24:55Z</time>
      </trkpt>
      <trkpt lat="47.12594" lon="6.09199">
        <ele>571.2</ele>
        <time>2026-05-24T07:24:56Z</time>
      </trkpt>
      <trkpt lat="47.12592" lon="6.092">
        <ele>571.6</ele>
        <time>2026-05-24T07:24:57Z</time>
      </trkpt>
      <trkpt lat="47.1259" lon="6.09201">
        <ele>571.6</ele>
        <time>2026-05-24T07:24:58Z</time>
      </trkpt>
      <trkpt lat="47.12587" lon="6.09202">
        <ele>571.6</ele>
        <time>2026-05-24T07:24:59Z</time>
      </trkpt>
      <trkpt lat="47.12585" lon="6.09203">
        <ele>572.2</ele>
        <time>2026-05-24T07:25:00Z</time>
      </trkpt>
      <trkpt lat="47.12582" lon="6.09204">
        <ele>572.4</ele>
        <time>2026-05-24T07:25:01Z</time>
      </trkpt>
      <trkpt lat="47.1258" lon="6.09206">
        <ele>572.6</ele>
        <time>2026-05-24T07:25:02Z</time>
      </trkpt>
      <trkpt lat="47.12577" lon="6.09207">
        <ele>572.6</ele>
        <time>2026-05-24T07:25:03Z</time>
      </trkpt>
      <trkpt lat="47.12575" lon="6.09208">
        <ele>572.8</ele>
        <time>2026-05-24T07:25:04Z</time>
      </trkpt>
      <trkpt lat="47.12573" lon="6.09209">
        <ele>573</ele>
        <time>2026-05-24T07:25:05Z</time>
      </trkpt>
      <trkpt lat="47.12571" lon="6.0921">
        <ele>573</ele>
        <time>2026-05-24T07:25:06Z</time>
      </trkpt>
      <trkpt lat="47.12569" lon="6.09211">
        <ele>573.2</ele>
        <time>2026-05-24T07:25:07Z</time>
      </trkpt>
      <trkpt lat="47.12567" lon="6.09212">
        <ele>573.4</ele>
        <time>2026-05-24T07:25:08Z</time>
      </trkpt>
      <trkpt lat="47.12566" lon="6.09214">
        <ele>573.4</ele>
        <time>2026-05-24T07:25:09Z</time>
      </trkpt>
      <trkpt lat="47.12565" lon="6.09216">
        <ele>573.6</ele>
        <time>2026-05-24T07:25:10Z</time>
      </trkpt>
      <trkpt lat="47.12565" lon="6.09219">
        <ele>573.6</ele>
        <time>2026-05-24T07:25:11Z</time>
      </trkpt>
      <trkpt lat="47.12565" lon="6.09222">
        <ele>573.6</ele>
        <time>2026-05-24T07:25:12Z</time>
      </trkpt>
      <trkpt lat="47.12565" lon="6.09225">
        <ele>573.6</ele>
        <time>2026-05-24T07:25:13Z</time>
      </trkpt>
      <trkpt lat="47.12564" lon="6.09228">
        <ele>573.6</ele>
        <time>2026-05-24T07:25:14Z</time>
      </trkpt>
      <trkpt lat="47.12565" lon="6.09231">
        <ele>573.6</ele>
        <time>2026-05-24T07:25:15Z</time>
      </trkpt>
      <trkpt lat="47.12565" lon="6.09234">
        <ele>573.8</ele>
        <time>2026-05-24T07:25:16Z</time>
      </trkpt>
      <trkpt lat="47.12565" lon="6.09237">
        <ele>573.6</ele>
        <time>2026-05-24T07:25:17Z</time>
      </trkpt>
      <trkpt lat="47.12566" lon="6.09241">
        <ele>573.8</ele>
        <time>2026-05-24T07:25:18Z</time>
      </trkpt>
      <trkpt lat="47.12566" lon="6.09244">
        <ele>573.8</ele>
        <time>2026-05-24T07:25:19Z</time>
      </trkpt>
      <trkpt lat="47.12567" lon="6.09247">
        <ele>573.8</ele>
        <time>2026-05-24T07:25:20Z</time>
      </trkpt>
      <trkpt lat="47.12568" lon="6.0925">
        <ele>573.8</ele>
        <time>2026-05-24T07:25:21Z</time>
      </trkpt>
      <trkpt lat="47.12569" lon="6.09253">
        <ele>573.8</ele>
        <time>2026-05-24T07:25:22Z</time>
      </trkpt>
      <trkpt lat="47.1257" lon="6.09256">
        <ele>573.8</ele>
        <time>2026-05-24T07:25:23Z</time>
      </trkpt>
      <trkpt lat="47.1257" lon="6.09259">
        <ele>573.8</ele>
        <time>2026-05-24T07:25:24Z</time>
      </trkpt>
      <trkpt lat="47.12571" lon="6.09262">
        <ele>574</ele>
        <time>2026-05-24T07:25:25Z</time>
      </trkpt>
      <trkpt lat="47.12573" lon="6.09265">
        <ele>574</ele>
        <time>2026-05-24T07:25:26Z</time>
      </trkpt>
      <trkpt lat="47.12574" lon="6.09267">
        <ele>574.2</ele>
        <time>2026-05-24T07:25:27Z</time>
      </trkpt>
      <trkpt lat="47.12575" lon="6.0927">
        <ele>574.4</ele>
        <time>2026-05-24T07:25:28Z</time>
      </trkpt>
      <trkpt lat="47.12576" lon="6.09272">
        <ele>574.4</ele>
        <time>2026-05-24T07:25:29Z</time>
      </trkpt>
      <trkpt lat="47.12577" lon="6.09274">
        <ele>574.6</ele>
        <time>2026-05-24T07:25:30Z</time>
      </trkpt>
      <trkpt lat="47.12578" lon="6.09276">
        <ele>574.6</ele>
        <time>2026-05-24T07:25:31Z</time>
      </trkpt>
      <trkpt lat="47.1258" lon="6.09279">
        <ele>574.8</ele>
        <time>2026-05-24T07:25:32Z</time>
      </trkpt>
      <trkpt lat="47.1258" lon="6.09281">
        <ele>575</ele>
        <time>2026-05-24T07:25:33Z</time>
      </trkpt>
      <trkpt lat="47.12582" lon="6.09285">
        <ele>575.2</ele>
        <time>2026-05-24T07:25:34Z</time>
      </trkpt>
      <trkpt lat="47.12583" lon="6.09287">
        <ele>575.6</ele>
        <time>2026-05-24T07:25:35Z</time>
      </trkpt>
      <trkpt lat="47.12584" lon="6.0929">
        <ele>576</ele>
        <time>2026-05-24T07:25:36Z</time>
      </trkpt>
      <trkpt lat="47.12586" lon="6.09293">
        <ele>576</ele>
        <time>2026-05-24T07:25:37Z</time>
      </trkpt>
      <trkpt lat="47.12587" lon="6.09297">
        <ele>576.4</ele>
        <time>2026-05-24T07:25:38Z</time>
      </trkpt>
      <trkpt lat="47.12588" lon="6.093">
        <ele>576.4</ele>
        <time>2026-05-24T07:25:39Z</time>
      </trkpt>
      <trkpt lat="47.12589" lon="6.09303">
        <ele>576.6</ele>
        <time>2026-05-24T07:25:40Z</time>
      </trkpt>
      <trkpt lat="47.12591" lon="6.09306">
        <ele>577</ele>
        <time>2026-05-24T07:25:41Z</time>
      </trkpt>
      <trkpt lat="47.12592" lon="6.09309">
        <ele>577</ele>
        <time>2026-05-24T07:25:42Z</time>
      </trkpt>
      <trkpt lat="47.12593" lon="6.09312">
        <ele>577</ele>
        <time>2026-05-24T07:25:43Z</time>
      </trkpt>
      <trkpt lat="47.12594" lon="6.09314">
        <ele>577.4</ele>
        <time>2026-05-24T07:25:44Z</time>
      </trkpt>
      <trkpt lat="47.12595" lon="6.09317">
        <ele>577.4</ele>
        <time>2026-05-24T07:25:45Z</time>
      </trkpt>
      <trkpt lat="47.12597" lon="6.09319">
        <ele>577.8</ele>
        <time>2026-05-24T07:25:46Z</time>
      </trkpt>
      <trkpt lat="47.12598" lon="6.09321">
        <ele>577.8</ele>
        <time>2026-05-24T07:25:47Z</time>
      </trkpt>
      <trkpt lat="47.12599" lon="6.09324">
        <ele>578</ele>
        <time>2026-05-24T07:25:48Z</time>
      </trkpt>
      <trkpt lat="47.126" lon="6.09328">
        <ele>578</ele>
        <time>2026-05-24T07:25:49Z</time>
      </trkpt>
      <trkpt lat="47.12601" lon="6.0933">
        <ele>578.4</ele>
        <time>2026-05-24T07:25:50Z</time>
      </trkpt>
      <trkpt lat="47.12602" lon="6.09333">
        <ele>578.4</ele>
        <time>2026-05-24T07:25:51Z</time>
      </trkpt>
      <trkpt lat="47.12603" lon="6.09335">
        <ele>578.6</ele>
        <time>2026-05-24T07:25:52Z</time>
      </trkpt>
      <trkpt lat="47.12605" lon="6.09337">
        <ele>579</ele>
        <time>2026-05-24T07:25:53Z</time>
      </trkpt>
      <trkpt lat="47.12606" lon="6.09339">
        <ele>579.2</ele>
        <time>2026-05-24T07:25:54Z</time>
      </trkpt>
      <trkpt lat="47.12607" lon="6.09342">
        <ele>579.4</ele>
        <time>2026-05-24T07:25:55Z</time>
      </trkpt>
      <trkpt lat="47.12608" lon="6.09345">
        <ele>579.8</ele>
        <time>2026-05-24T07:25:56Z</time>
      </trkpt>
      <trkpt lat="47.12609" lon="6.09348">
        <ele>580</ele>
        <time>2026-05-24T07:25:57Z</time>
      </trkpt>
      <trkpt lat="47.1261" lon="6.09352">
        <ele>580.2</ele>
        <time>2026-05-24T07:25:58Z</time>
      </trkpt>
      <trkpt lat="47.12611" lon="6.09355">
        <ele>580.4</ele>
        <time>2026-05-24T07:25:59Z</time>
      </trkpt>
      <trkpt lat="47.12613" lon="6.09359">
        <ele>580.8</ele>
        <time>2026-05-24T07:26:00Z</time>
      </trkpt>
      <trkpt lat="47.12614" lon="6.09362">
        <ele>581</ele>
        <time>2026-05-24T07:26:01Z</time>
      </trkpt>
      <trkpt lat="47.12615" lon="6.09365">
        <ele>581.2</ele>
        <time>2026-05-24T07:26:02Z</time>
      </trkpt>
      <trkpt lat="47.12615" lon="6.09368">
        <ele>581.4</ele>
        <time>2026-05-24T07:26:03Z</time>
      </trkpt>
      <trkpt lat="47.12616" lon="6.09372">
        <ele>581.4</ele>
        <time>2026-05-24T07:26:04Z</time>
      </trkpt>
      <trkpt lat="47.12617" lon="6.09374">
        <ele>581.6</ele>
        <time>2026-05-24T07:26:05Z</time>
      </trkpt>
      <trkpt lat="47.12618" lon="6.09376">
        <ele>581.8</ele>
        <time>2026-05-24T07:26:06Z</time>
      </trkpt>
      <trkpt lat="47.1262" lon="6.09378">
        <ele>582</ele>
        <time>2026-05-24T07:26:07Z</time>
      </trkpt>
      <trkpt lat="47.12621" lon="6.0938">
        <ele>582</ele>
        <time>2026-05-24T07:26:08Z</time>
      </trkpt>
      <trkpt lat="47.12622" lon="6.09383">
        <ele>582.2</ele>
        <time>2026-05-24T07:26:09Z</time>
      </trkpt>
      <trkpt lat="47.12623" lon="6.09385">
        <ele>582.4</ele>
        <time>2026-05-24T07:26:10Z</time>
      </trkpt>
      <trkpt lat="47.12625" lon="6.09388">
        <ele>582.6</ele>
        <time>2026-05-24T07:26:11Z</time>
      </trkpt>
      <trkpt lat="47.12626" lon="6.0939">
        <ele>582.8</ele>
        <time>2026-05-24T07:26:12Z</time>
      </trkpt>
      <trkpt lat="47.12627" lon="6.09393">
        <ele>583</ele>
        <time>2026-05-24T07:26:13Z</time>
      </trkpt>
      <trkpt lat="47.12628" lon="6.09396">
        <ele>583.4</ele>
        <time>2026-05-24T07:26:14Z</time>
      </trkpt>
      <trkpt lat="47.12629" lon="6.09399">
        <ele>583.6</ele>
        <time>2026-05-24T07:26:15Z</time>
      </trkpt>
      <trkpt lat="47.1263" lon="6.09402">
        <ele>583.8</ele>
        <time>2026-05-24T07:26:16Z</time>
      </trkpt>
      <trkpt lat="47.12632" lon="6.09404">
        <ele>583.8</ele>
        <time>2026-05-24T07:26:17Z</time>
      </trkpt>
      <trkpt lat="47.12632" lon="6.09406">
        <ele>584</ele>
        <time>2026-05-24T07:26:18Z</time>
      </trkpt>
      <trkpt lat="47.12634" lon="6.09408">
        <ele>584.2</ele>
        <time>2026-05-24T07:26:19Z</time>
      </trkpt>
      <trkpt lat="47.12635" lon="6.0941">
        <ele>584.4</ele>
        <time>2026-05-24T07:26:20Z</time>
      </trkpt>
      <trkpt lat="47.12637" lon="6.09412">
        <ele>584.6</ele>
        <time>2026-05-24T07:26:21Z</time>
      </trkpt>
      <trkpt lat="47.12638" lon="6.09414">
        <ele>585</ele>
        <time>2026-05-24T07:26:22Z</time>
      </trkpt>
      <trkpt lat="47.12639" lon="6.09415">
        <ele>584.8</ele>
        <time>2026-05-24T07:26:23Z</time>
      </trkpt>
      <trkpt lat="47.12641" lon="6.09416">
        <ele>585</ele>
        <time>2026-05-24T07:26:24Z</time>
      </trkpt>
      <trkpt lat="47.12643" lon="6.09418">
        <ele>585.2</ele>
        <time>2026-05-24T07:26:25Z</time>
      </trkpt>
      <trkpt lat="47.12644" lon="6.09419">
        <ele>585.2</ele>
        <time>2026-05-24T07:26:26Z</time>
      </trkpt>
      <trkpt lat="47.12646" lon="6.09421">
        <ele>585.6</ele>
        <time>2026-05-24T07:26:27Z</time>
      </trkpt>
      <trkpt lat="47.12648" lon="6.09423">
        <ele>585.8</ele>
        <time>2026-05-24T07:26:28Z</time>
      </trkpt>
      <trkpt lat="47.12649" lon="6.09425">
        <ele>586</ele>
        <time>2026-05-24T07:26:29Z</time>
      </trkpt>
      <trkpt lat="47.12651" lon="6.09428">
        <ele>586.2</ele>
        <time>2026-05-24T07:26:30Z</time>
      </trkpt>
      <trkpt lat="47.12653" lon="6.0943">
        <ele>586.6</ele>
        <time>2026-05-24T07:26:31Z</time>
      </trkpt>
      <trkpt lat="47.12655" lon="6.09433">
        <ele>586.8</ele>
        <time>2026-05-24T07:26:32Z</time>
      </trkpt>
      <trkpt lat="47.12656" lon="6.09435">
        <ele>587</ele>
        <time>2026-05-24T07:26:33Z</time>
      </trkpt>
      <trkpt lat="47.12657" lon="6.09437">
        <ele>587.2</ele>
        <time>2026-05-24T07:26:34Z</time>
      </trkpt>
      <trkpt lat="47.12659" lon="6.0944">
        <ele>587.4</ele>
        <time>2026-05-24T07:26:35Z</time>
      </trkpt>
      <trkpt lat="47.12661" lon="6.09442">
        <ele>587.6</ele>
        <time>2026-05-24T07:26:36Z</time>
      </trkpt>
      <trkpt lat="47.12662" lon="6.09446">
        <ele>587.8</ele>
        <time>2026-05-24T07:26:37Z</time>
      </trkpt>
      <trkpt lat="47.12663" lon="6.09449">
        <ele>588.4</ele>
        <time>2026-05-24T07:26:38Z</time>
      </trkpt>
      <trkpt lat="47.12664" lon="6.09453">
        <ele>588.4</ele>
        <time>2026-05-24T07:26:39Z</time>
      </trkpt>
      <trkpt lat="47.12665" lon="6.09457">
        <ele>589</ele>
        <time>2026-05-24T07:26:40Z</time>
      </trkpt>
      <trkpt lat="47.12667" lon="6.0946">
        <ele>589.2</ele>
        <time>2026-05-24T07:26:41Z</time>
      </trkpt>
      <trkpt lat="47.12668" lon="6.09464">
        <ele>589.2</ele>
        <time>2026-05-24T07:26:42Z</time>
      </trkpt>
      <trkpt lat="47.1267" lon="6.09468">
        <ele>589.6</ele>
        <time>2026-05-24T07:26:43Z</time>
      </trkpt>
      <trkpt lat="47.12671" lon="6.09471">
        <ele>589.6</ele>
        <time>2026-05-24T07:26:44Z</time>
      </trkpt>
      <trkpt lat="47.12673" lon="6.09475">
        <ele>589.8</ele>
        <time>2026-05-24T07:26:45Z</time>
      </trkpt>
      <trkpt lat="47.12674" lon="6.09479">
        <ele>590</ele>
        <time>2026-05-24T07:26:46Z</time>
      </trkpt>
      <trkpt lat="47.12675" lon="6.09483">
        <ele>590.2</ele>
        <time>2026-05-24T07:26:47Z</time>
      </trkpt>
      <trkpt lat="47.12677" lon="6.09487">
        <ele>590.2</ele>
        <time>2026-05-24T07:26:48Z</time>
      </trkpt>
      <trkpt lat="47.12679" lon="6.09491">
        <ele>590.4</ele>
        <time>2026-05-24T07:26:49Z</time>
      </trkpt>
      <trkpt lat="47.1268" lon="6.09496">
        <ele>590.4</ele>
        <time>2026-05-24T07:26:50Z</time>
      </trkpt>
      <trkpt lat="47.12682" lon="6.095">
        <ele>590.4</ele>
        <time>2026-05-24T07:26:51Z</time>
      </trkpt>
      <trkpt lat="47.12684" lon="6.09504">
        <ele>590.6</ele>
        <time>2026-05-24T07:26:52Z</time>
      </trkpt>
      <trkpt lat="47.12686" lon="6.09509">
        <ele>590.6</ele>
        <time>2026-05-24T07:26:53Z</time>
      </trkpt>
      <trkpt lat="47.12689" lon="6.09513">
        <ele>590.8</ele>
        <time>2026-05-24T07:26:54Z</time>
      </trkpt>
      <trkpt lat="47.1269" lon="6.09518">
        <ele>591</ele>
        <time>2026-05-24T07:26:55Z</time>
      </trkpt>
      <trkpt lat="47.12691" lon="6.09523">
        <ele>591</ele>
        <time>2026-05-24T07:26:56Z</time>
      </trkpt>
      <trkpt lat="47.12693" lon="6.09528">
        <ele>591.2</ele>
        <time>2026-05-24T07:26:57Z</time>
      </trkpt>
      <trkpt lat="47.12694" lon="6.09534">
        <ele>591.2</ele>
        <time>2026-05-24T07:26:58Z</time>
      </trkpt>
      <trkpt lat="47.12696" lon="6.0954">
        <ele>591.2</ele>
        <time>2026-05-24T07:26:59Z</time>
      </trkpt>
      <trkpt lat="47.12697" lon="6.09546">
        <ele>591.4</ele>
        <time>2026-05-24T07:27:00Z</time>
      </trkpt>
      <trkpt lat="47.12699" lon="6.09553">
        <ele>591.4</ele>
        <time>2026-05-24T07:27:01Z</time>
      </trkpt>
      <trkpt lat="47.12701" lon="6.09558">
        <ele>591.6</ele>
        <time>2026-05-24T07:27:02Z</time>
      </trkpt>
      <trkpt lat="47.12702" lon="6.09563">
        <ele>591.8</ele>
        <time>2026-05-24T07:27:03Z</time>
      </trkpt>
      <trkpt lat="47.12704" lon="6.09568">
        <ele>591.8</ele>
        <time>2026-05-24T07:27:04Z</time>
      </trkpt>
      <trkpt lat="47.12705" lon="6.09573">
        <ele>591.8</ele>
        <time>2026-05-24T07:27:05Z</time>
      </trkpt>
      <trkpt lat="47.12707" lon="6.09577">
        <ele>591.8</ele>
        <time>2026-05-24T07:27:06Z</time>
      </trkpt>
      <trkpt lat="47.12709" lon="6.09581">
        <ele>592</ele>
        <time>2026-05-24T07:27:07Z</time>
      </trkpt>
      <trkpt lat="47.1271" lon="6.09586">
        <ele>592</ele>
        <time>2026-05-24T07:27:08Z</time>
      </trkpt>
      <trkpt lat="47.12712" lon="6.0959">
        <ele>592</ele>
        <time>2026-05-24T07:27:09Z</time>
      </trkpt>
      <trkpt lat="47.12714" lon="6.09595">
        <ele>592</ele>
        <time>2026-05-24T07:27:10Z</time>
      </trkpt>
      <trkpt lat="47.12716" lon="6.096">
        <ele>592</ele>
        <time>2026-05-24T07:27:11Z</time>
      </trkpt>
      <trkpt lat="47.12717" lon="6.09605">
        <ele>592</ele>
        <time>2026-05-24T07:27:12Z</time>
      </trkpt>
      <trkpt lat="47.12719" lon="6.0961">
        <ele>592.2</ele>
        <time>2026-05-24T07:27:13Z</time>
      </trkpt>
      <trkpt lat="47.1272" lon="6.09616">
        <ele>592</ele>
        <time>2026-05-24T07:27:14Z</time>
      </trkpt>
      <trkpt lat="47.12721" lon="6.09623">
        <ele>592</ele>
        <time>2026-05-24T07:27:15Z</time>
      </trkpt>
      <trkpt lat="47.12722" lon="6.09629">
        <ele>592</ele>
        <time>2026-05-24T07:27:16Z</time>
      </trkpt>
      <trkpt lat="47.12723" lon="6.09635">
        <ele>592.2</ele>
        <time>2026-05-24T07:27:17Z</time>
      </trkpt>
      <trkpt lat="47.12724" lon="6.09641">
        <ele>592</ele>
        <time>2026-05-24T07:27:18Z</time>
      </trkpt>
      <trkpt lat="47.12725" lon="6.09647">
        <ele>592</ele>
        <time>2026-05-24T07:27:19Z</time>
      </trkpt>
      <trkpt lat="47.12728" lon="6.09652">
        <ele>592.2</ele>
        <time>2026-05-24T07:27:20Z</time>
      </trkpt>
      <trkpt lat="47.1273" lon="6.09658">
        <ele>592</ele>
        <time>2026-05-24T07:27:21Z</time>
      </trkpt>
      <trkpt lat="47.12732" lon="6.09664">
        <ele>591.8</ele>
        <time>2026-05-24T07:27:22Z</time>
      </trkpt>
      <trkpt lat="47.12733" lon="6.0967">
        <ele>592</ele>
        <time>2026-05-24T07:27:23Z</time>
      </trkpt>
      <trkpt lat="47.12735" lon="6.09677">
        <ele>592</ele>
        <time>2026-05-24T07:27:24Z</time>
      </trkpt>
      <trkpt lat="47.12737" lon="6.09684">
        <ele>591.8</ele>
        <time>2026-05-24T07:27:25Z</time>
      </trkpt>
      <trkpt lat="47.12738" lon="6.09691">
        <ele>591.4</ele>
        <time>2026-05-24T07:27:26Z</time>
      </trkpt>
      <trkpt lat="47.12739" lon="6.09698">
        <ele>591.4</ele>
        <time>2026-05-24T07:27:27Z</time>
      </trkpt>
      <trkpt lat="47.12739" lon="6.09706">
        <ele>591</ele>
        <time>2026-05-24T07:27:28Z</time>
      </trkpt>
      <trkpt lat="47.12741" lon="6.09714">
        <ele>590.6</ele>
        <time>2026-05-24T07:27:29Z</time>
      </trkpt>
      <trkpt lat="47.12741" lon="6.09722">
        <ele>590.4</ele>
        <time>2026-05-24T07:27:30Z</time>
      </trkpt>
      <trkpt lat="47.12741" lon="6.09729">
        <ele>590</ele>
        <time>2026-05-24T07:27:31Z</time>
      </trkpt>
      <trkpt lat="47.1274" lon="6.09736">
        <ele>590</ele>
        <time>2026-05-24T07:27:32Z</time>
      </trkpt>
      <trkpt lat="47.12741" lon="6.09743">
        <ele>589.6</ele>
        <time>2026-05-24T07:27:33Z</time>
      </trkpt>
      <trkpt lat="47.12741" lon="6.09751">
        <ele>589.2</ele>
        <time>2026-05-24T07:27:34Z</time>
      </trkpt>
      <trkpt lat="47.12742" lon="6.09759">
        <ele>589.2</ele>
        <time>2026-05-24T07:27:35Z</time>
      </trkpt>
      <trkpt lat="47.12742" lon="6.09767">
        <ele>588.8</ele>
        <time>2026-05-24T07:27:36Z</time>
      </trkpt>
      <trkpt lat="47.12743" lon="6.09774">
        <ele>588.4</ele>
        <time>2026-05-24T07:27:37Z</time>
      </trkpt>
      <trkpt lat="47.12743" lon="6.09783">
        <ele>588</ele>
        <time>2026-05-24T07:27:38Z</time>
      </trkpt>
      <trkpt lat="47.12744" lon="6.09791">
        <ele>587.8</ele>
        <time>2026-05-24T07:27:39Z</time>
      </trkpt>
      <trkpt lat="47.12746" lon="6.098">
        <ele>587</ele>
        <time>2026-05-24T07:27:40Z</time>
      </trkpt>
      <trkpt lat="47.12747" lon="6.09809">
        <ele>586.8</ele>
        <time>2026-05-24T07:27:41Z</time>
      </trkpt>
      <trkpt lat="47.12749" lon="6.09816">
        <ele>586</ele>
        <time>2026-05-24T07:27:42Z</time>
      </trkpt>
      <trkpt lat="47.12751" lon="6.09824">
        <ele>585.8</ele>
        <time>2026-05-24T07:27:43Z</time>
      </trkpt>
      <trkpt lat="47.12753" lon="6.09832">
        <ele>585.4</ele>
        <time>2026-05-24T07:27:44Z</time>
      </trkpt>
      <trkpt lat="47.12756" lon="6.09841">
        <ele>585.2</ele>
        <time>2026-05-24T07:27:45Z</time>
      </trkpt>
      <trkpt lat="47.12758" lon="6.0985">
        <ele>584.6</ele>
        <time>2026-05-24T07:27:46Z</time>
      </trkpt>
      <trkpt lat="47.12761" lon="6.09858">
        <ele>584.2</ele>
        <time>2026-05-24T07:27:47Z</time>
      </trkpt>
      <trkpt lat="47.12763" lon="6.09865">
        <ele>583.6</ele>
        <time>2026-05-24T07:27:48Z</time>
      </trkpt>
      <trkpt lat="47.12765" lon="6.09872">
        <ele>582.8</ele>
        <time>2026-05-24T07:27:49Z</time>
      </trkpt>
      <trkpt lat="47.12768" lon="6.09878">
        <ele>582</ele>
        <time>2026-05-24T07:27:50Z</time>
      </trkpt>
      <trkpt lat="47.1277" lon="6.09884">
        <ele>581.6</ele>
        <time>2026-05-24T07:27:51Z</time>
      </trkpt>
      <trkpt lat="47.12772" lon="6.09889">
        <ele>581.2</ele>
        <time>2026-05-24T07:27:52Z</time>
      </trkpt>
      <trkpt lat="47.12773" lon="6.09893">
        <ele>580.4</ele>
        <time>2026-05-24T07:27:53Z</time>
      </trkpt>
      <trkpt lat="47.12774" lon="6.09896">
        <ele>580.4</ele>
        <time>2026-05-24T07:27:54Z</time>
      </trkpt>
      <trkpt lat="47.12775" lon="6.09899">
        <ele>579.8</ele>
        <time>2026-05-24T07:27:55Z</time>
      </trkpt>
      <trkpt lat="47.12776" lon="6.09901">
        <ele>579.2</ele>
        <time>2026-05-24T07:27:56Z</time>
      </trkpt>
      <trkpt lat="47.12777" lon="6.09903">
        <ele>578.6</ele>
        <time>2026-05-24T07:27:57Z</time>
      </trkpt>
      <trkpt lat="47.12778" lon="6.09904">
        <ele>578</ele>
        <time>2026-05-24T07:27:58Z</time>
      </trkpt>
      <trkpt lat="47.12778" lon="6.09905">
        <ele>577.2</ele>
        <time>2026-05-24T07:27:59Z</time>
      </trkpt>
      <trkpt lat="47.12779" lon="6.09905">
        <ele>576.6</ele>
        <time>2026-05-24T07:28:00Z</time>
      </trkpt>
      <trkpt lat="47.12779" lon="6.09919">
        <ele>574.6</ele>
        <time>2026-05-24T07:28:11Z</time>
      </trkpt>
      <trkpt lat="47.12779" lon="6.09921">
        <ele>574.4</ele>
        <time>2026-05-24T07:28:12Z</time>
      </trkpt>
      <trkpt lat="47.12779" lon="6.09923">
        <ele>574.4</ele>
        <time>2026-05-24T07:28:13Z</time>
      </trkpt>
      <trkpt lat="47.1278" lon="6.09925">
        <ele>574.2</ele>
        <time>2026-05-24T07:28:14Z</time>
      </trkpt>
      <trkpt lat="47.1278" lon="6.09927">
        <ele>574</ele>
        <time>2026-05-24T07:28:15Z</time>
      </trkpt>
      <trkpt lat="47.1278" lon="6.09929">
        <ele>574</ele>
        <time>2026-05-24T07:28:16Z</time>
      </trkpt>
      <trkpt lat="47.12781" lon="6.09931">
        <ele>573.8</ele>
        <time>2026-05-24T07:28:17Z</time>
      </trkpt>
      <trkpt lat="47.12781" lon="6.09932">
        <ele>573.6</ele>
        <time>2026-05-24T07:28:18Z</time>
      </trkpt>
      <trkpt lat="47.12782" lon="6.09934">
        <ele>573.4</ele>
        <time>2026-05-24T07:28:19Z</time>
      </trkpt>
      <trkpt lat="47.12783" lon="6.09937">
        <ele>573.2</ele>
        <time>2026-05-24T07:28:20Z</time>
      </trkpt>
      <trkpt lat="47.12784" lon="6.09939">
        <ele>573</ele>
        <time>2026-05-24T07:28:21Z</time>
      </trkpt>
      <trkpt lat="47.12785" lon="6.09943">
        <ele>572.8</ele>
        <time>2026-05-24T07:28:22Z</time>
      </trkpt>
      <trkpt lat="47.12786" lon="6.09947">
        <ele>572.8</ele>
        <time>2026-05-24T07:28:23Z</time>
      </trkpt>
      <trkpt lat="47.12787" lon="6.09951">
        <ele>572.8</ele>
        <time>2026-05-24T07:28:24Z</time>
      </trkpt>
      <trkpt lat="47.12788" lon="6.09957">
        <ele>572.8</ele>
        <time>2026-05-24T07:28:25Z</time>
      </trkpt>
      <trkpt lat="47.1279" lon="6.09962">
        <ele>572.6</ele>
        <time>2026-05-24T07:28:26Z</time>
      </trkpt>
      <trkpt lat="47.12792" lon="6.09969">
        <ele>572.2</ele>
        <time>2026-05-24T07:28:27Z</time>
      </trkpt>
      <trkpt lat="47.12794" lon="6.09975">
        <ele>572</ele>
        <time>2026-05-24T07:28:28Z</time>
      </trkpt>
      <trkpt lat="47.12795" lon="6.09984">
        <ele>571.6</ele>
        <time>2026-05-24T07:28:29Z</time>
      </trkpt>
      <trkpt lat="47.12795" lon="6.09992">
        <ele>571.4</ele>
        <time>2026-05-24T07:28:30Z</time>
      </trkpt>
      <trkpt lat="47.12796" lon="6.10001">
        <ele>570.8</ele>
        <time>2026-05-24T07:28:31Z</time>
      </trkpt>
      <trkpt lat="47.12797" lon="6.1001">
        <ele>570.6</ele>
        <time>2026-05-24T07:28:32Z</time>
      </trkpt>
      <trkpt lat="47.12799" lon="6.10019">
        <ele>570.4</ele>
        <time>2026-05-24T07:28:33Z</time>
      </trkpt>
      <trkpt lat="47.128" lon="6.10028">
        <ele>569.6</ele>
        <time>2026-05-24T07:28:34Z</time>
      </trkpt>
      <trkpt lat="47.12801" lon="6.10036">
        <ele>569</ele>
        <time>2026-05-24T07:28:35Z</time>
      </trkpt>
      <trkpt lat="47.12802" lon="6.10043">
        <ele>568.2</ele>
        <time>2026-05-24T07:28:36Z</time>
      </trkpt>
      <trkpt lat="47.12803" lon="6.10051">
        <ele>567.6</ele>
        <time>2026-05-24T07:28:37Z</time>
      </trkpt>
      <trkpt lat="47.12804" lon="6.10058">
        <ele>567.2</ele>
        <time>2026-05-24T07:28:38Z</time>
      </trkpt>
      <trkpt lat="47.12806" lon="6.10064">
        <ele>566.4</ele>
        <time>2026-05-24T07:28:39Z</time>
      </trkpt>
      <trkpt lat="47.12807" lon="6.10071">
        <ele>565.8</ele>
        <time>2026-05-24T07:28:40Z</time>
      </trkpt>
      <trkpt lat="47.12808" lon="6.10077">
        <ele>565.4</ele>
        <time>2026-05-24T07:28:41Z</time>
      </trkpt>
      <trkpt lat="47.1281" lon="6.10083">
        <ele>564.6</ele>
        <time>2026-05-24T07:28:42Z</time>
      </trkpt>
      <trkpt lat="47.12812" lon="6.10089">
        <ele>563.8</ele>
        <time>2026-05-24T07:28:43Z</time>
      </trkpt>
      <trkpt lat="47.12815" lon="6.10095">
        <ele>563.2</ele>
        <time>2026-05-24T07:28:44Z</time>
      </trkpt>
      <trkpt lat="47.12817" lon="6.101">
        <ele>562.8</ele>
        <time>2026-05-24T07:28:45Z</time>
      </trkpt>
      <trkpt lat="47.12818" lon="6.10106">
        <ele>562.2</ele>
        <time>2026-05-24T07:28:46Z</time>
      </trkpt>
      <trkpt lat="47.12819" lon="6.10111">
        <ele>562.2</ele>
        <time>2026-05-24T07:28:47Z</time>
      </trkpt>
      <trkpt lat="47.1282" lon="6.10116">
        <ele>561.8</ele>
        <time>2026-05-24T07:28:48Z</time>
      </trkpt>
      <trkpt lat="47.12821" lon="6.10121">
        <ele>561.6</ele>
        <time>2026-05-24T07:28:49Z</time>
      </trkpt>
      <trkpt lat="47.12822" lon="6.10126">
        <ele>561</ele>
        <time>2026-05-24T07:28:50Z</time>
      </trkpt>
      <trkpt lat="47.12822" lon="6.10132">
        <ele>560.8</ele>
        <time>2026-05-24T07:28:51Z</time>
      </trkpt>
      <trkpt lat="47.12823" lon="6.10138">
        <ele>560.8</ele>
        <time>2026-05-24T07:28:52Z</time>
      </trkpt>
      <trkpt lat="47.12822" lon="6.10143">
        <ele>560.6</ele>
        <time>2026-05-24T07:28:53Z</time>
      </trkpt>
      <trkpt lat="47.12822" lon="6.10149">
        <ele>560.4</ele>
        <time>2026-05-24T07:28:54Z</time>
      </trkpt>
      <trkpt lat="47.12822" lon="6.10154">
        <ele>560.2</ele>
        <time>2026-05-24T07:28:55Z</time>
      </trkpt>
      <trkpt lat="47.1282" lon="6.10158">
        <ele>560.2</ele>
        <time>2026-05-24T07:28:56Z</time>
      </trkpt>
      <trkpt lat="47.12818" lon="6.10163">
        <ele>560</ele>
        <time>2026-05-24T07:28:57Z</time>
      </trkpt>
      <trkpt lat="47.12815" lon="6.10166">
        <ele>559.8</ele>
        <time>2026-05-24T07:28:58Z</time>
      </trkpt>
      <trkpt lat="47.12812" lon="6.1017">
        <ele>559.6</ele>
        <time>2026-05-24T07:28:59Z</time>
      </trkpt>
      <trkpt lat="47.12808" lon="6.10172">
        <ele>559.4</ele>
        <time>2026-05-24T07:29:00Z</time>
      </trkpt>
      <trkpt lat="47.12803" lon="6.10175">
        <ele>559.2</ele>
        <time>2026-05-24T07:29:01Z</time>
      </trkpt>
      <trkpt lat="47.12798" lon="6.10178">
        <ele>558.8</ele>
        <time>2026-05-24T07:29:02Z</time>
      </trkpt>
      <trkpt lat="47.12793" lon="6.10181">
        <ele>559</ele>
        <time>2026-05-24T07:29:03Z</time>
      </trkpt>
      <trkpt lat="47.12787" lon="6.10184">
        <ele>558.8</ele>
        <time>2026-05-24T07:29:04Z</time>
      </trkpt>
      <trkpt lat="47.1278" lon="6.10187">
        <ele>558.6</ele>
        <time>2026-05-24T07:29:05Z</time>
      </trkpt>
      <trkpt lat="47.12773" lon="6.10191">
        <ele>558.2</ele>
        <time>2026-05-24T07:29:06Z</time>
      </trkpt>
      <trkpt lat="47.12765" lon="6.10194">
        <ele>558.2</ele>
        <time>2026-05-24T07:29:07Z</time>
      </trkpt>
      <trkpt lat="47.12758" lon="6.10196">
        <ele>558</ele>
        <time>2026-05-24T07:29:08Z</time>
      </trkpt>
      <trkpt lat="47.12752" lon="6.10198">
        <ele>558</ele>
        <time>2026-05-24T07:29:09Z</time>
      </trkpt>
      <trkpt lat="47.12745" lon="6.102">
        <ele>557.6</ele>
        <time>2026-05-24T07:29:10Z</time>
      </trkpt>
      <trkpt lat="47.1274" lon="6.10202">
        <ele>557.2</ele>
        <time>2026-05-24T07:29:11Z</time>
      </trkpt>
      <trkpt lat="47.12734" lon="6.10204">
        <ele>557</ele>
        <time>2026-05-24T07:29:12Z</time>
      </trkpt>
      <trkpt lat="47.12729" lon="6.10206">
        <ele>556.2</ele>
        <time>2026-05-24T07:29:13Z</time>
      </trkpt>
      <trkpt lat="47.12725" lon="6.10208">
        <ele>555.8</ele>
        <time>2026-05-24T07:29:14Z</time>
      </trkpt>
      <trkpt lat="47.1272" lon="6.1021">
        <ele>554.4</ele>
        <time>2026-05-24T07:29:15Z</time>
      </trkpt>
      <trkpt lat="47.12715" lon="6.10212">
        <ele>553.4</ele>
        <time>2026-05-24T07:29:16Z</time>
      </trkpt>
      <trkpt lat="47.1271" lon="6.10214">
        <ele>552.6</ele>
        <time>2026-05-24T07:29:17Z</time>
      </trkpt>
      <trkpt lat="47.12706" lon="6.10216">
        <ele>551.8</ele>
        <time>2026-05-24T07:29:18Z</time>
      </trkpt>
      <trkpt lat="47.12699" lon="6.10217">
        <ele>550.8</ele>
        <time>2026-05-24T07:29:19Z</time>
      </trkpt>
      <trkpt lat="47.12693" lon="6.10218">
        <ele>549.8</ele>
        <time>2026-05-24T07:29:20Z</time>
      </trkpt>
      <trkpt lat="47.12687" lon="6.10219">
        <ele>549.4</ele>
        <time>2026-05-24T07:29:21Z</time>
      </trkpt>
      <trkpt lat="47.1268" lon="6.10219">
        <ele>548.4</ele>
        <time>2026-05-24T07:29:22Z</time>
      </trkpt>
      <trkpt lat="47.12674" lon="6.10218">
        <ele>547.8</ele>
        <time>2026-05-24T07:29:23Z</time>
      </trkpt>
      <trkpt lat="47.12667" lon="6.10216">
        <ele>547.2</ele>
        <time>2026-05-24T07:29:24Z</time>
      </trkpt>
      <trkpt lat="47.12661" lon="6.10213">
        <ele>546.6</ele>
        <time>2026-05-24T07:29:25Z</time>
      </trkpt>
      <trkpt lat="47.12655" lon="6.1021">
        <ele>545.8</ele>
        <time>2026-05-24T07:29:26Z</time>
      </trkpt>
      <trkpt lat="47.1265" lon="6.10205">
        <ele>545</ele>
        <time>2026-05-24T07:29:27Z</time>
      </trkpt>
      <trkpt lat="47.12644" lon="6.10201">
        <ele>544.4</ele>
        <time>2026-05-24T07:29:28Z</time>
      </trkpt>
      <trkpt lat="47.12639" lon="6.10196">
        <ele>543.6</ele>
        <time>2026-05-24T07:29:29Z</time>
      </trkpt>
      <trkpt lat="47.12634" lon="6.10191">
        <ele>543</ele>
        <time>2026-05-24T07:29:30Z</time>
      </trkpt>
      <trkpt lat="47.1263" lon="6.10188">
        <ele>543</ele>
        <time>2026-05-24T07:29:31Z</time>
      </trkpt>
      <trkpt lat="47.12625" lon="6.10187">
        <ele>542.2</ele>
        <time>2026-05-24T07:29:32Z</time>
      </trkpt>
      <trkpt lat="47.1262" lon="6.10188">
        <ele>541.4</ele>
        <time>2026-05-24T07:29:33Z</time>
      </trkpt>
      <trkpt lat="47.12614" lon="6.10192">
        <ele>540.6</ele>
        <time>2026-05-24T07:29:34Z</time>
      </trkpt>
      <trkpt lat="47.12608" lon="6.10196">
        <ele>540.2</ele>
        <time>2026-05-24T07:29:35Z</time>
      </trkpt>
      <trkpt lat="47.12601" lon="6.10199">
        <ele>540</ele>
        <time>2026-05-24T07:29:36Z</time>
      </trkpt>
      <trkpt lat="47.12593" lon="6.10203">
        <ele>539.2</ele>
        <time>2026-05-24T07:29:37Z</time>
      </trkpt>
      <trkpt lat="47.12585" lon="6.10207">
        <ele>538.8</ele>
        <time>2026-05-24T07:29:38Z</time>
      </trkpt>
      <trkpt lat="47.12577" lon="6.10211">
        <ele>538</ele>
        <time>2026-05-24T07:29:39Z</time>
      </trkpt>
      <trkpt lat="47.12568" lon="6.10216">
        <ele>537.8</ele>
        <time>2026-05-24T07:29:40Z</time>
      </trkpt>
      <trkpt lat="47.1256" lon="6.1022">
        <ele>537.2</ele>
        <time>2026-05-24T07:29:41Z</time>
      </trkpt>
      <trkpt lat="47.12552" lon="6.10225">
        <ele>536.4</ele>
        <time>2026-05-24T07:29:42Z</time>
      </trkpt>
      <trkpt lat="47.12543" lon="6.10229">
        <ele>535.6</ele>
        <time>2026-05-24T07:29:43Z</time>
      </trkpt>
      <trkpt lat="47.12536" lon="6.10233">
        <ele>535.4</ele>
        <time>2026-05-24T07:29:44Z</time>
      </trkpt>
      <trkpt lat="47.12528" lon="6.10237">
        <ele>534.4</ele>
        <time>2026-05-24T07:29:45Z</time>
      </trkpt>
      <trkpt lat="47.12521" lon="6.1024">
        <ele>533.6</ele>
        <time>2026-05-24T07:29:46Z</time>
      </trkpt>
      <trkpt lat="47.12515" lon="6.10244">
        <ele>533</ele>
        <time>2026-05-24T07:29:47Z</time>
      </trkpt>
      <trkpt lat="47.12509" lon="6.10247">
        <ele>532.4</ele>
        <time>2026-05-24T07:29:48Z</time>
      </trkpt>
      <trkpt lat="47.12504" lon="6.10249">
        <ele>531.8</ele>
        <time>2026-05-24T07:29:49Z</time>
      </trkpt>
      <trkpt lat="47.12498" lon="6.10252">
        <ele>531.4</ele>
        <time>2026-05-24T07:29:50Z</time>
      </trkpt>
      <trkpt lat="47.12493" lon="6.10254">
        <ele>531.4</ele>
        <time>2026-05-24T07:29:51Z</time>
      </trkpt>
      <trkpt lat="47.12488" lon="6.10257">
        <ele>531.2</ele>
        <time>2026-05-24T07:29:52Z</time>
      </trkpt>
      <trkpt lat="47.12484" lon="6.10259">
        <ele>531.2</ele>
        <time>2026-05-24T07:29:53Z</time>
      </trkpt>
      <trkpt lat="47.12479" lon="6.10261">
        <ele>531.2</ele>
        <time>2026-05-24T07:29:54Z</time>
      </trkpt>
      <trkpt lat="47.12475" lon="6.10263">
        <ele>531.2</ele>
        <time>2026-05-24T07:29:55Z</time>
      </trkpt>
      <trkpt lat="47.1247" lon="6.10265">
        <ele>531.2</ele>
        <time>2026-05-24T07:29:56Z</time>
      </trkpt>
      <trkpt lat="47.12466" lon="6.10268">
        <ele>531.2</ele>
        <time>2026-05-24T07:29:57Z</time>
      </trkpt>
      <trkpt lat="47.12461" lon="6.1027">
        <ele>531.2</ele>
        <time>2026-05-24T07:29:58Z</time>
      </trkpt>
      <trkpt lat="47.12457" lon="6.10272">
        <ele>531.2</ele>
        <time>2026-05-24T07:29:59Z</time>
      </trkpt>
      <trkpt lat="47.12453" lon="6.10274">
        <ele>531.2</ele>
        <time>2026-05-24T07:30:00Z</time>
      </trkpt>
      <trkpt lat="47.12449" lon="6.10276">
        <ele>531.4</ele>
        <time>2026-05-24T07:30:01Z</time>
      </trkpt>
      <trkpt lat="47.12446" lon="6.10278">
        <ele>531.6</ele>
        <time>2026-05-24T07:30:02Z</time>
      </trkpt>
      <trkpt lat="47.12442" lon="6.10279">
        <ele>531.6</ele>
        <time>2026-05-24T07:30:03Z</time>
      </trkpt>
      <trkpt lat="47.1244" lon="6.10281">
        <ele>531.6</ele>
        <time>2026-05-24T07:30:04Z</time>
      </trkpt>
      <trkpt lat="47.12437" lon="6.10283">
        <ele>531.8</ele>
        <time>2026-05-24T07:30:05Z</time>
      </trkpt>
      <trkpt lat="47.12436" lon="6.10285">
        <ele>531.8</ele>
        <time>2026-05-24T07:30:06Z</time>
      </trkpt>
      <trkpt lat="47.12434" lon="6.10288">
        <ele>532</ele>
        <time>2026-05-24T07:30:07Z</time>
      </trkpt>
      <trkpt lat="47.12433" lon="6.1029">
        <ele>532.2</ele>
        <time>2026-05-24T07:30:08Z</time>
      </trkpt>
      <trkpt lat="47.12432" lon="6.10292">
        <ele>532.6</ele>
        <time>2026-05-24T07:30:09Z</time>
      </trkpt>
      <trkpt lat="47.12431" lon="6.10294">
        <ele>533</ele>
        <time>2026-05-24T07:30:10Z</time>
      </trkpt>
      <trkpt lat="47.12431" lon="6.10296">
        <ele>533.4</ele>
        <time>2026-05-24T07:30:11Z</time>
      </trkpt>
      <trkpt lat="47.12431" lon="6.10297">
        <ele>533.6</ele>
        <time>2026-05-24T07:30:12Z</time>
      </trkpt>
      <trkpt lat="47.12432" lon="6.10297">
        <ele>533.6</ele>
        <time>2026-05-24T07:30:13Z</time>
      </trkpt>
      <trkpt lat="47.12432" lon="6.10298">
        <ele>533.8</ele>
        <time>2026-05-24T07:30:14Z</time>
      </trkpt>
      <trkpt lat="47.12433" lon="6.10298">
        <ele>533.8</ele>
        <time>2026-05-24T07:30:15Z</time>
      </trkpt>
      <trkpt lat="47.12433" lon="6.10298">
        <ele>534</ele>
        <time>2026-05-24T07:30:16Z</time>
      </trkpt>
      <trkpt lat="47.12435" lon="6.10304">
        <ele>533.8</ele>
        <time>2026-05-24T07:30:50Z</time>
      </trkpt>
      <trkpt lat="47.12436" lon="6.10306">
        <ele>534</ele>
        <time>2026-05-24T07:30:51Z</time>
      </trkpt>
      <trkpt lat="47.12438" lon="6.10309">
        <ele>534</ele>
        <time>2026-05-24T07:30:52Z</time>
      </trkpt>
      <trkpt lat="47.12439" lon="6.10312">
        <ele>533.8</ele>
        <time>2026-05-24T07:30:53Z</time>
      </trkpt>
      <trkpt lat="47.1244" lon="6.10316">
        <ele>534</ele>
        <time>2026-05-24T07:30:54Z</time>
      </trkpt>
      <trkpt lat="47.12442" lon="6.1032">
        <ele>534</ele>
        <time>2026-05-24T07:30:55Z</time>
      </trkpt>
      <trkpt lat="47.12444" lon="6.10324">
        <ele>534</ele>
        <time>2026-05-24T07:30:56Z</time>
      </trkpt>
      <trkpt lat="47.12445" lon="6.10329">
        <ele>534</ele>
        <time>2026-05-24T07:30:57Z</time>
      </trkpt>
      <trkpt lat="47.12447" lon="6.10333">
        <ele>534</ele>
        <time>2026-05-24T07:30:58Z</time>
      </trkpt>
      <trkpt lat="47.12449" lon="6.10338">
        <ele>534</ele>
        <time>2026-05-24T07:30:59Z</time>
      </trkpt>
      <trkpt lat="47.12451" lon="6.10343">
        <ele>534</ele>
        <time>2026-05-24T07:31:00Z</time>
      </trkpt>
      <trkpt lat="47.12453" lon="6.10348">
        <ele>534</ele>
        <time>2026-05-24T07:31:01Z</time>
      </trkpt>
      <trkpt lat="47.12456" lon="6.10353">
        <ele>534</ele>
        <time>2026-05-24T07:31:02Z</time>
      </trkpt>
      <trkpt lat="47.12458" lon="6.10359">
        <ele>533.8</ele>
        <time>2026-05-24T07:31:03Z</time>
      </trkpt>
      <trkpt lat="47.1246" lon="6.10364">
        <ele>534</ele>
        <time>2026-05-24T07:31:04Z</time>
      </trkpt>
      <trkpt lat="47.12462" lon="6.10368">
        <ele>534</ele>
        <time>2026-05-24T07:31:05Z</time>
      </trkpt>
      <trkpt lat="47.12463" lon="6.10372">
        <ele>534</ele>
        <time>2026-05-24T07:31:06Z</time>
      </trkpt>
      <trkpt lat="47.12465" lon="6.10376">
        <ele>534.2</ele>
        <time>2026-05-24T07:31:07Z</time>
      </trkpt>
      <trkpt lat="47.12467" lon="6.1038">
        <ele>534.2</ele>
        <time>2026-05-24T07:31:08Z</time>
      </trkpt>
      <trkpt lat="47.12468" lon="6.10384">
        <ele>534.2</ele>
        <time>2026-05-24T07:31:09Z</time>
      </trkpt>
      <trkpt lat="47.1247" lon="6.10388">
        <ele>534.2</ele>
        <time>2026-05-24T07:31:10Z</time>
      </trkpt>
      <trkpt lat="47.12472" lon="6.10393">
        <ele>534</ele>
        <time>2026-05-24T07:31:11Z</time>
      </trkpt>
      <trkpt lat="47.12474" lon="6.10397">
        <ele>534</ele>
        <time>2026-05-24T07:31:12Z</time>
      </trkpt>
      <trkpt lat="47.12476" lon="6.10402">
        <ele>534.2</ele>
        <time>2026-05-24T07:31:13Z</time>
      </trkpt>
      <trkpt lat="47.12477" lon="6.10406">
        <ele>534.2</ele>
        <time>2026-05-24T07:31:14Z</time>
      </trkpt>
      <trkpt lat="47.12479" lon="6.10411">
        <ele>534</ele>
        <time>2026-05-24T07:31:15Z</time>
      </trkpt>
      <trkpt lat="47.12481" lon="6.10415">
        <ele>534.2</ele>
        <time>2026-05-24T07:31:16Z</time>
      </trkpt>
      <trkpt lat="47.12483" lon="6.1042">
        <ele>534.4</ele>
        <time>2026-05-24T07:31:17Z</time>
      </trkpt>
      <trkpt lat="47.12484" lon="6.10424">
        <ele>534.2</ele>
        <time>2026-05-24T07:31:18Z</time>
      </trkpt>
      <trkpt lat="47.12486" lon="6.10429">
        <ele>534.4</ele>
        <time>2026-05-24T07:31:19Z</time>
      </trkpt>
      <trkpt lat="47.12488" lon="6.10434">
        <ele>534.2</ele>
        <time>2026-05-24T07:31:20Z</time>
      </trkpt>
      <trkpt lat="47.12489" lon="6.10438">
        <ele>534.2</ele>
        <time>2026-05-24T07:31:21Z</time>
      </trkpt>
      <trkpt lat="47.12491" lon="6.10443">
        <ele>534.4</ele>
        <time>2026-05-24T07:31:22Z</time>
      </trkpt>
      <trkpt lat="47.12493" lon="6.10448">
        <ele>534.4</ele>
        <time>2026-05-24T07:31:23Z</time>
      </trkpt>
      <trkpt lat="47.12495" lon="6.10453">
        <ele>534.4</ele>
        <time>2026-05-24T07:31:24Z</time>
      </trkpt>
      <trkpt lat="47.12496" lon="6.10458">
        <ele>534.6</ele>
        <time>2026-05-24T07:31:25Z</time>
      </trkpt>
      <trkpt lat="47.12498" lon="6.10463">
        <ele>534.6</ele>
        <time>2026-05-24T07:31:26Z</time>
      </trkpt>
      <trkpt lat="47.125" lon="6.10467">
        <ele>534.6</ele>
        <time>2026-05-24T07:31:27Z</time>
      </trkpt>
      <trkpt lat="47.12502" lon="6.10472">
        <ele>534.8</ele>
        <time>2026-05-24T07:31:28Z</time>
      </trkpt>
      <trkpt lat="47.12504" lon="6.10477">
        <ele>535</ele>
        <time>2026-05-24T07:31:29Z</time>
      </trkpt>
      <trkpt lat="47.12506" lon="6.10482">
        <ele>535</ele>
        <time>2026-05-24T07:31:30Z</time>
      </trkpt>
      <trkpt lat="47.12508" lon="6.10487">
        <ele>535</ele>
        <time>2026-05-24T07:31:31Z</time>
      </trkpt>
      <trkpt lat="47.12509" lon="6.10492">
        <ele>535.2</ele>
        <time>2026-05-24T07:31:32Z</time>
      </trkpt>
      <trkpt lat="47.1251" lon="6.10498">
        <ele>535.2</ele>
        <time>2026-05-24T07:31:33Z</time>
      </trkpt>
      <trkpt lat="47.12511" lon="6.10503">
        <ele>535.2</ele>
        <time>2026-05-24T07:31:34Z</time>
      </trkpt>
      <trkpt lat="47.12512" lon="6.10509">
        <ele>535.4</ele>
        <time>2026-05-24T07:31:35Z</time>
      </trkpt>
      <trkpt lat="47.12513" lon="6.10514">
        <ele>535.4</ele>
        <time>2026-05-24T07:31:36Z</time>
      </trkpt>
      <trkpt lat="47.12514" lon="6.1052">
        <ele>535.4</ele>
        <time>2026-05-24T07:31:37Z</time>
      </trkpt>
      <trkpt lat="47.12515" lon="6.10526">
        <ele>535.4</ele>
        <time>2026-05-24T07:31:38Z</time>
      </trkpt>
      <trkpt lat="47.12516" lon="6.10533">
        <ele>535.6</ele>
        <time>2026-05-24T07:31:39Z</time>
      </trkpt>
      <trkpt lat="47.12517" lon="6.1054">
        <ele>535.6</ele>
        <time>2026-05-24T07:31:40Z</time>
      </trkpt>
      <trkpt lat="47.12518" lon="6.10546">
        <ele>535.6</ele>
        <time>2026-05-24T07:31:41Z</time>
      </trkpt>
      <trkpt lat="47.12519" lon="6.10552">
        <ele>535.6</ele>
        <time>2026-05-24T07:31:42Z</time>
      </trkpt>
      <trkpt lat="47.1252" lon="6.10559">
        <ele>535.6</ele>
        <time>2026-05-24T07:31:43Z</time>
      </trkpt>
      <trkpt lat="47.12521" lon="6.10565">
        <ele>535.6</ele>
        <time>2026-05-24T07:31:44Z</time>
      </trkpt>
      <trkpt lat="47.12522" lon="6.10572">
        <ele>535.6</ele>
        <time>2026-05-24T07:31:45Z</time>
      </trkpt>
      <trkpt lat="47.12524" lon="6.10579">
        <ele>535.6</ele>
        <time>2026-05-24T07:31:46Z</time>
      </trkpt>
      <trkpt lat="47.12525" lon="6.10586">
        <ele>535.6</ele>
        <time>2026-05-24T07:31:47Z</time>
      </trkpt>
      <trkpt lat="47.12526" lon="6.10593">
        <ele>535.8</ele>
        <time>2026-05-24T07:31:48Z</time>
      </trkpt>
      <trkpt lat="47.12528" lon="6.106">
        <ele>535.6</ele>
        <time>2026-05-24T07:31:49Z</time>
      </trkpt>
      <trkpt lat="47.12529" lon="6.10607">
        <ele>535.6</ele>
        <time>2026-05-24T07:31:50Z</time>
      </trkpt>
      <trkpt lat="47.1253" lon="6.10614">
        <ele>535.6</ele>
        <time>2026-05-24T07:31:51Z</time>
      </trkpt>
      <trkpt lat="47.12531" lon="6.10621">
        <ele>535.6</ele>
        <time>2026-05-24T07:31:52Z</time>
      </trkpt>
      <trkpt lat="47.12532" lon="6.10628">
        <ele>535.6</ele>
        <time>2026-05-24T07:31:53Z</time>
      </trkpt>
      <trkpt lat="47.12533" lon="6.10634">
        <ele>535.6</ele>
        <time>2026-05-24T07:31:54Z</time>
      </trkpt>
      <trkpt lat="47.12534" lon="6.10641">
        <ele>535.6</ele>
        <time>2026-05-24T07:31:55Z</time>
      </trkpt>
      <trkpt lat="47.12535" lon="6.10648">
        <ele>535.6</ele>
        <time>2026-05-24T07:31:56Z</time>
      </trkpt>
      <trkpt lat="47.12536" lon="6.10655">
        <ele>535.6</ele>
        <time>2026-05-24T07:31:57Z</time>
      </trkpt>
      <trkpt lat="47.12536" lon="6.10662">
        <ele>535.4</ele>
        <time>2026-05-24T07:31:58Z</time>
      </trkpt>
      <trkpt lat="47.12537" lon="6.10668">
        <ele>535.4</ele>
        <time>2026-05-24T07:31:59Z</time>
      </trkpt>
      <trkpt lat="47.12537" lon="6.10674">
        <ele>535.2</ele>
        <time>2026-05-24T07:32:00Z</time>
      </trkpt>
      <trkpt lat="47.12537" lon="6.1068">
        <ele>535.2</ele>
        <time>2026-05-24T07:32:01Z</time>
      </trkpt>
      <trkpt lat="47.12537" lon="6.10685">
        <ele>535</ele>
        <time>2026-05-24T07:32:02Z</time>
      </trkpt>
      <trkpt lat="47.12537" lon="6.1069">
        <ele>535</ele>
        <time>2026-05-24T07:32:03Z</time>
      </trkpt>
      <trkpt lat="47.12534" lon="6.10695">
        <ele>535</ele>
        <time>2026-05-24T07:32:04Z</time>
      </trkpt>
      <trkpt lat="47.12533" lon="6.10698">
        <ele>535</ele>
        <time>2026-05-24T07:32:05Z</time>
      </trkpt>
      <trkpt lat="47.1253" lon="6.10701">
        <ele>534.6</ele>
        <time>2026-05-24T07:32:06Z</time>
      </trkpt>
      <trkpt lat="47.12527" lon="6.10703">
        <ele>534.6</ele>
        <time>2026-05-24T07:32:07Z</time>
      </trkpt>
      <trkpt lat="47.12524" lon="6.10704">
        <ele>534.4</ele>
        <time>2026-05-24T07:32:08Z</time>
      </trkpt>
      <trkpt lat="47.12521" lon="6.10704">
        <ele>534.2</ele>
        <time>2026-05-24T07:32:09Z</time>
      </trkpt>
      <trkpt lat="47.12517" lon="6.10704">
        <ele>533.8</ele>
        <time>2026-05-24T07:32:10Z</time>
      </trkpt>
      <trkpt lat="47.12513" lon="6.10704">
        <ele>533.8</ele>
        <time>2026-05-24T07:32:11Z</time>
      </trkpt>
      <trkpt lat="47.12509" lon="6.10702">
        <ele>533.6</ele>
        <time>2026-05-24T07:32:12Z</time>
      </trkpt>
      <trkpt lat="47.12506" lon="6.107">
        <ele>533.4</ele>
        <time>2026-05-24T07:32:13Z</time>
      </trkpt>
      <trkpt lat="47.12502" lon="6.10699">
        <ele>533.4</ele>
        <time>2026-05-24T07:32:14Z</time>
      </trkpt>
      <trkpt lat="47.12498" lon="6.10698">
        <ele>533.2</ele>
        <time>2026-05-24T07:32:15Z</time>
      </trkpt>
      <trkpt lat="47.12494" lon="6.10697">
        <ele>533</ele>
        <time>2026-05-24T07:32:16Z</time>
      </trkpt>
      <trkpt lat="47.1249" lon="6.10696">
        <ele>533</ele>
        <time>2026-05-24T07:32:17Z</time>
      </trkpt>
      <trkpt lat="47.12485" lon="6.10695">
        <ele>532.8</ele>
        <time>2026-05-24T07:32:18Z</time>
      </trkpt>
      <trkpt lat="47.12479" lon="6.10695">
        <ele>532.4</ele>
        <time>2026-05-24T07:32:19Z</time>
      </trkpt>
      <trkpt lat="47.12473" lon="6.10695">
        <ele>532.4</ele>
        <time>2026-05-24T07:32:20Z</time>
      </trkpt>
      <trkpt lat="47.12467" lon="6.10695">
        <ele>531.8</ele>
        <time>2026-05-24T07:32:21Z</time>
      </trkpt>
      <trkpt lat="47.1246" lon="6.10695">
        <ele>531.8</ele>
        <time>2026-05-24T07:32:22Z</time>
      </trkpt>
      <trkpt lat="47.12454" lon="6.10694">
        <ele>531.6</ele>
        <time>2026-05-24T07:32:23Z</time>
      </trkpt>
      <trkpt lat="47.12447" lon="6.10694">
        <ele>531.4</ele>
        <time>2026-05-24T07:32:24Z</time>
      </trkpt>
      <trkpt lat="47.1244" lon="6.10694">
        <ele>531</ele>
        <time>2026-05-24T07:32:25Z</time>
      </trkpt>
      <trkpt lat="47.12432" lon="6.10694">
        <ele>530.4</ele>
        <time>2026-05-24T07:32:26Z</time>
      </trkpt>
      <trkpt lat="47.12425" lon="6.10694">
        <ele>530</ele>
        <time>2026-05-24T07:32:27Z</time>
      </trkpt>
      <trkpt lat="47.12418" lon="6.10696">
        <ele>529.8</ele>
        <time>2026-05-24T07:32:28Z</time>
      </trkpt>
      <trkpt lat="47.12411" lon="6.10698">
        <ele>529.4</ele>
        <time>2026-05-24T07:32:29Z</time>
      </trkpt>
      <trkpt lat="47.12404" lon="6.107">
        <ele>528.6</ele>
        <time>2026-05-24T07:32:30Z</time>
      </trkpt>
      <trkpt lat="47.12398" lon="6.10701">
        <ele>527.8</ele>
        <time>2026-05-24T07:32:31Z</time>
      </trkpt>
      <trkpt lat="47.12391" lon="6.10701">
        <ele>527</ele>
        <time>2026-05-24T07:32:32Z</time>
      </trkpt>
      <trkpt lat="47.12384" lon="6.107">
        <ele>526.4</ele>
        <time>2026-05-24T07:32:33Z</time>
      </trkpt>
      <trkpt lat="47.12377" lon="6.10698">
        <ele>525.4</ele>
        <time>2026-05-24T07:32:34Z</time>
      </trkpt>
      <trkpt lat="47.1237" lon="6.10697">
        <ele>524.6</ele>
        <time>2026-05-24T07:32:35Z</time>
      </trkpt>
      <trkpt lat="47.12365" lon="6.10695">
        <ele>524.6</ele>
        <time>2026-05-24T07:32:36Z</time>
      </trkpt>
      <trkpt lat="47.1236" lon="6.10692">
        <ele>523.8</ele>
        <time>2026-05-24T07:32:37Z</time>
      </trkpt>
      <trkpt lat="47.12356" lon="6.1069">
        <ele>522.6</ele>
        <time>2026-05-24T07:32:38Z</time>
      </trkpt>
      <trkpt lat="47.12353" lon="6.10688">
        <ele>521.6</ele>
        <time>2026-05-24T07:32:39Z</time>
      </trkpt>
      <trkpt lat="47.12351" lon="6.10687">
        <ele>520.8</ele>
        <time>2026-05-24T07:32:40Z</time>
      </trkpt>
      <trkpt lat="47.12349" lon="6.10685">
        <ele>520</ele>
        <time>2026-05-24T07:32:41Z</time>
      </trkpt>
      <trkpt lat="47.12348" lon="6.10683">
        <ele>519.4</ele>
        <time>2026-05-24T07:32:42Z</time>
      </trkpt>
      <trkpt lat="47.12347" lon="6.1068">
        <ele>518.6</ele>
        <time>2026-05-24T07:32:43Z</time>
      </trkpt>
      <trkpt lat="47.12347" lon="6.10675">
        <ele>518</ele>
        <time>2026-05-24T07:32:44Z</time>
      </trkpt>
      <trkpt lat="47.12346" lon="6.1067">
        <ele>517.8</ele>
        <time>2026-05-24T07:32:45Z</time>
      </trkpt>
      <trkpt lat="47.12343" lon="6.10665">
        <ele>517.6</ele>
        <time>2026-05-24T07:32:46Z</time>
      </trkpt>
      <trkpt lat="47.1234" lon="6.1066">
        <ele>517.2</ele>
        <time>2026-05-24T07:32:47Z</time>
      </trkpt>
      <trkpt lat="47.12336" lon="6.10654">
        <ele>517</ele>
        <time>2026-05-24T07:32:48Z</time>
      </trkpt>
      <trkpt lat="47.12331" lon="6.10649">
        <ele>516.8</ele>
        <time>2026-05-24T07:32:49Z</time>
      </trkpt>
      <trkpt lat="47.12327" lon="6.10644">
        <ele>516.8</ele>
        <time>2026-05-24T07:32:50Z</time>
      </trkpt>
      <trkpt lat="47.12324" lon="6.10639">
        <ele>516.4</ele>
        <time>2026-05-24T07:32:51Z</time>
      </trkpt>
      <trkpt lat="47.1232" lon="6.10634">
        <ele>515.8</ele>
        <time>2026-05-24T07:32:52Z</time>
      </trkpt>
      <trkpt lat="47.12316" lon="6.10628">
        <ele>515.2</ele>
        <time>2026-05-24T07:32:53Z</time>
      </trkpt>
      <trkpt lat="47.12312" lon="6.10622">
        <ele>515</ele>
        <time>2026-05-24T07:32:54Z</time>
      </trkpt>
      <trkpt lat="47.12309" lon="6.10616">
        <ele>514</ele>
        <time>2026-05-24T07:32:55Z</time>
      </trkpt>
      <trkpt lat="47.12305" lon="6.10609">
        <ele>513.6</ele>
        <time>2026-05-24T07:32:56Z</time>
      </trkpt>
      <trkpt lat="47.12302" lon="6.10602">
        <ele>513</ele>
        <time>2026-05-24T07:32:57Z</time>
      </trkpt>
      <trkpt lat="47.12298" lon="6.10596">
        <ele>513</ele>
        <time>2026-05-24T07:32:58Z</time>
      </trkpt>
      <trkpt lat="47.12294" lon="6.10589">
        <ele>512.4</ele>
        <time>2026-05-24T07:32:59Z</time>
      </trkpt>
      <trkpt lat="47.1229" lon="6.10583">
        <ele>511.6</ele>
        <time>2026-05-24T07:33:00Z</time>
      </trkpt>
      <trkpt lat="47.12286" lon="6.10576">
        <ele>511</ele>
        <time>2026-05-24T07:33:01Z</time>
      </trkpt>
      <trkpt lat="47.12282" lon="6.1057">
        <ele>510.2</ele>
        <time>2026-05-24T07:33:02Z</time>
      </trkpt>
      <trkpt lat="47.12279" lon="6.10564">
        <ele>509.4</ele>
        <time>2026-05-24T07:33:03Z</time>
      </trkpt>
      <trkpt lat="47.12275" lon="6.10558">
        <ele>508.6</ele>
        <time>2026-05-24T07:33:04Z</time>
      </trkpt>
      <trkpt lat="47.12272" lon="6.10552">
        <ele>507.4</ele>
        <time>2026-05-24T07:33:05Z</time>
      </trkpt>
      <trkpt lat="47.12268" lon="6.10547">
        <ele>506.4</ele>
        <time>2026-05-24T07:33:06Z</time>
      </trkpt>
      <trkpt lat="47.12264" lon="6.10541">
        <ele>505.2</ele>
        <time>2026-05-24T07:33:07Z</time>
      </trkpt>
      <trkpt lat="47.12259" lon="6.10536">
        <ele>504.2</ele>
        <time>2026-05-24T07:33:08Z</time>
      </trkpt>
      <trkpt lat="47.12254" lon="6.10532">
        <ele>503.2</ele>
        <time>2026-05-24T07:33:09Z</time>
      </trkpt>
      <trkpt lat="47.1225" lon="6.10527">
        <ele>502.2</ele>
        <time>2026-05-24T07:33:10Z</time>
      </trkpt>
      <trkpt lat="47.12246" lon="6.10524">
        <ele>501.4</ele>
        <time>2026-05-24T07:33:11Z</time>
      </trkpt>
      <trkpt lat="47.12242" lon="6.10521">
        <ele>500.4</ele>
        <time>2026-05-24T07:33:12Z</time>
      </trkpt>
      <trkpt lat="47.12238" lon="6.10519">
        <ele>499.4</ele>
        <time>2026-05-24T07:33:13Z</time>
      </trkpt>
      <trkpt lat="47.12235" lon="6.10516">
        <ele>498</ele>
        <time>2026-05-24T07:33:14Z</time>
      </trkpt>
      <trkpt lat="47.12233" lon="6.10514">
        <ele>497</ele>
        <time>2026-05-24T07:33:15Z</time>
      </trkpt>
      <trkpt lat="47.1223" lon="6.10512">
        <ele>496</ele>
        <time>2026-05-24T07:33:16Z</time>
      </trkpt>
      <trkpt lat="47.12227" lon="6.10511">
        <ele>494.8</ele>
        <time>2026-05-24T07:33:17Z</time>
      </trkpt>
      <trkpt lat="47.12223" lon="6.10509">
        <ele>494</ele>
        <time>2026-05-24T07:33:18Z</time>
      </trkpt>
      <trkpt lat="47.1222" lon="6.10508">
        <ele>493</ele>
        <time>2026-05-24T07:33:19Z</time>
      </trkpt>
      <trkpt lat="47.12216" lon="6.10507">
        <ele>493</ele>
        <time>2026-05-24T07:33:20Z</time>
      </trkpt>
      <trkpt lat="47.12212" lon="6.10506">
        <ele>492.2</ele>
        <time>2026-05-24T07:33:21Z</time>
      </trkpt>
      <trkpt lat="47.12208" lon="6.10505">
        <ele>491.2</ele>
        <time>2026-05-24T07:33:22Z</time>
      </trkpt>
      <trkpt lat="47.12203" lon="6.10504">
        <ele>490.8</ele>
        <time>2026-05-24T07:33:23Z</time>
      </trkpt>
      <trkpt lat="47.12198" lon="6.10503">
        <ele>490</ele>
        <time>2026-05-24T07:33:24Z</time>
      </trkpt>
      <trkpt lat="47.12194" lon="6.10503">
        <ele>489.2</ele>
        <time>2026-05-24T07:33:25Z</time>
      </trkpt>
      <trkpt lat="47.1219" lon="6.10502">
        <ele>487.6</ele>
        <time>2026-05-24T07:33:26Z</time>
      </trkpt>
      <trkpt lat="47.12185" lon="6.10501">
        <ele>486.4</ele>
        <time>2026-05-24T07:33:27Z</time>
      </trkpt>
      <trkpt lat="47.12181" lon="6.10501">
        <ele>485.2</ele>
        <time>2026-05-24T07:33:28Z</time>
      </trkpt>
      <trkpt lat="47.12176" lon="6.10499">
        <ele>483.8</ele>
        <time>2026-05-24T07:33:29Z</time>
      </trkpt>
      <trkpt lat="47.12171" lon="6.10499">
        <ele>482.4</ele>
        <time>2026-05-24T07:33:30Z</time>
      </trkpt>
      <trkpt lat="47.12166" lon="6.10498">
        <ele>481.4</ele>
        <time>2026-05-24T07:33:31Z</time>
      </trkpt>
      <trkpt lat="47.12163" lon="6.10498">
        <ele>480</ele>
        <time>2026-05-24T07:33:32Z</time>
      </trkpt>
      <trkpt lat="47.12158" lon="6.10497">
        <ele>479.2</ele>
        <time>2026-05-24T07:33:33Z</time>
      </trkpt>
      <trkpt lat="47.12154" lon="6.10496">
        <ele>478.2</ele>
        <time>2026-05-24T07:33:34Z</time>
      </trkpt>
      <trkpt lat="47.1215" lon="6.10496">
        <ele>477</ele>
        <time>2026-05-24T07:33:35Z</time>
      </trkpt>
      <trkpt lat="47.12146" lon="6.10495">
        <ele>475.8</ele>
        <time>2026-05-24T07:33:36Z</time>
      </trkpt>
      <trkpt lat="47.12142" lon="6.10495">
        <ele>474.6</ele>
        <time>2026-05-24T07:33:37Z</time>
      </trkpt>
      <trkpt lat="47.12139" lon="6.10494">
        <ele>473.2</ele>
        <time>2026-05-24T07:33:38Z</time>
      </trkpt>
      <trkpt lat="47.12135" lon="6.10494">
        <ele>472.2</ele>
        <time>2026-05-24T07:33:39Z</time>
      </trkpt>
      <trkpt lat="47.12132" lon="6.10494">
        <ele>471</ele>
        <time>2026-05-24T07:33:40Z</time>
      </trkpt>
      <trkpt lat="47.12127" lon="6.10493">
        <ele>469.8</ele>
        <time>2026-05-24T07:33:41Z</time>
      </trkpt>
      <trkpt lat="47.12124" lon="6.10492">
        <ele>469.8</ele>
        <time>2026-05-24T07:33:42Z</time>
      </trkpt>
      <trkpt lat="47.1212" lon="6.10492">
        <ele>468.6</ele>
        <time>2026-05-24T07:33:43Z</time>
      </trkpt>
      <trkpt lat="47.12117" lon="6.10491">
        <ele>467.4</ele>
        <time>2026-05-24T07:33:44Z</time>
      </trkpt>
      <trkpt lat="47.12114" lon="6.1049">
        <ele>466.4</ele>
        <time>2026-05-24T07:33:45Z</time>
      </trkpt>
      <trkpt lat="47.12111" lon="6.1049">
        <ele>465.4</ele>
        <time>2026-05-24T07:33:46Z</time>
      </trkpt>
      <trkpt lat="47.12107" lon="6.10489">
        <ele>464.2</ele>
        <time>2026-05-24T07:33:47Z</time>
      </trkpt>
      <trkpt lat="47.12103" lon="6.10488">
        <ele>463.4</ele>
        <time>2026-05-24T07:33:48Z</time>
      </trkpt>
      <trkpt lat="47.12098" lon="6.10489">
        <ele>462</ele>
        <time>2026-05-24T07:33:49Z</time>
      </trkpt>
      <trkpt lat="47.12093" lon="6.10489">
        <ele>461</ele>
        <time>2026-05-24T07:33:50Z</time>
      </trkpt>
      <trkpt lat="47.12088" lon="6.10489">
        <ele>460</ele>
        <time>2026-05-24T07:33:51Z</time>
      </trkpt>
      <trkpt lat="47.12083" lon="6.10489">
        <ele>459.2</ele>
        <time>2026-05-24T07:33:52Z</time>
      </trkpt>
      <trkpt lat="47.12078" lon="6.10489">
        <ele>458.6</ele>
        <time>2026-05-24T07:33:53Z</time>
      </trkpt>
      <trkpt lat="47.12073" lon="6.10488">
        <ele>458</ele>
        <time>2026-05-24T07:33:54Z</time>
      </trkpt>
      <trkpt lat="47.12067" lon="6.10488">
        <ele>457.2</ele>
        <time>2026-05-24T07:33:55Z</time>
      </trkpt>
      <trkpt lat="47.12062" lon="6.10487">
        <ele>456</ele>
        <time>2026-05-24T07:33:56Z</time>
      </trkpt>
      <trkpt lat="47.12057" lon="6.10487">
        <ele>455</ele>
        <time>2026-05-24T07:33:57Z</time>
      </trkpt>
      <trkpt lat="47.12053" lon="6.10486">
        <ele>454</ele>
        <time>2026-05-24T07:33:58Z</time>
      </trkpt>
      <trkpt lat="47.12049" lon="6.10486">
        <ele>452.8</ele>
        <time>2026-05-24T07:33:59Z</time>
      </trkpt>
      <trkpt lat="47.12045" lon="6.10486">
        <ele>451.8</ele>
        <time>2026-05-24T07:34:00Z</time>
      </trkpt>
      <trkpt lat="47.12041" lon="6.10485">
        <ele>450.8</ele>
        <time>2026-05-24T07:34:01Z</time>
      </trkpt>
      <trkpt lat="47.12037" lon="6.10485">
        <ele>449.4</ele>
        <time>2026-05-24T07:34:02Z</time>
      </trkpt>
      <trkpt lat="47.12032" lon="6.10484">
        <ele>448.2</ele>
        <time>2026-05-24T07:34:03Z</time>
      </trkpt>
      <trkpt lat="47.12027" lon="6.10483">
        <ele>447.2</ele>
        <time>2026-05-24T07:34:04Z</time>
      </trkpt>
      <trkpt lat="47.12022" lon="6.10482">
        <ele>447.2</ele>
        <time>2026-05-24T07:34:05Z</time>
      </trkpt>
      <trkpt lat="47.12017" lon="6.10482">
        <ele>446</ele>
        <time>2026-05-24T07:34:06Z</time>
      </trkpt>
      <trkpt lat="47.12011" lon="6.10481">
        <ele>445</ele>
        <time>2026-05-24T07:34:07Z</time>
      </trkpt>
      <trkpt lat="47.12005" lon="6.10482">
        <ele>444</ele>
        <time>2026-05-24T07:34:08Z</time>
      </trkpt>
      <trkpt lat="47.11999" lon="6.10483">
        <ele>443.2</ele>
        <time>2026-05-24T07:34:09Z</time>
      </trkpt>
      <trkpt lat="47.11994" lon="6.10484">
        <ele>442.2</ele>
        <time>2026-05-24T07:34:10Z</time>
      </trkpt>
      <trkpt lat="47.11988" lon="6.10485">
        <ele>441.2</ele>
        <time>2026-05-24T07:34:11Z</time>
      </trkpt>
      <trkpt lat="47.11982" lon="6.10486">
        <ele>439.8</ele>
        <time>2026-05-24T07:34:12Z</time>
      </trkpt>
      <trkpt lat="47.11977" lon="6.10486">
        <ele>438.6</ele>
        <time>2026-05-24T07:34:13Z</time>
      </trkpt>
      <trkpt lat="47.11971" lon="6.10486">
        <ele>437.8</ele>
        <time>2026-05-24T07:34:14Z</time>
      </trkpt>
      <trkpt lat="47.11963" lon="6.10485">
        <ele>436.4</ele>
        <time>2026-05-24T07:34:15Z</time>
      </trkpt>
      <trkpt lat="47.11957" lon="6.10485">
        <ele>435.4</ele>
        <time>2026-05-24T07:34:16Z</time>
      </trkpt>
      <trkpt lat="47.1195" lon="6.10484">
        <ele>434.6</ele>
        <time>2026-05-24T07:34:17Z</time>
      </trkpt>
      <trkpt lat="47.11943" lon="6.10484">
        <ele>433.8</ele>
        <time>2026-05-24T07:34:18Z</time>
      </trkpt>
      <trkpt lat="47.11938" lon="6.10484">
        <ele>432.8</ele>
        <time>2026-05-24T07:34:19Z</time>
      </trkpt>
      <trkpt lat="47.11932" lon="6.10483">
        <ele>431.8</ele>
        <time>2026-05-24T07:34:20Z</time>
      </trkpt>
      <trkpt lat="47.11927" lon="6.10483">
        <ele>431</ele>
        <time>2026-05-24T07:34:21Z</time>
      </trkpt>
      <trkpt lat="47.11922" lon="6.10482">
        <ele>430</ele>
        <time>2026-05-24T07:34:22Z</time>
      </trkpt>
      <trkpt lat="47.11917" lon="6.10481">
        <ele>428.6</ele>
        <time>2026-05-24T07:34:23Z</time>
      </trkpt>
      <trkpt lat="47.11912" lon="6.10479">
        <ele>427.2</ele>
        <time>2026-05-24T07:34:24Z</time>
      </trkpt>
      <trkpt lat="47.11906" lon="6.10477">
        <ele>426</ele>
        <time>2026-05-24T07:34:25Z</time>
      </trkpt>
      <trkpt lat="47.11901" lon="6.10474">
        <ele>426</ele>
        <time>2026-05-24T07:34:26Z</time>
      </trkpt>
      <trkpt lat="47.11896" lon="6.10473">
        <ele>424.8</ele>
        <time>2026-05-24T07:34:27Z</time>
      </trkpt>
      <trkpt lat="47.11891" lon="6.10472">
        <ele>423.4</ele>
        <time>2026-05-24T07:34:28Z</time>
      </trkpt>
      <trkpt lat="47.11886" lon="6.10472">
        <ele>422.2</ele>
        <time>2026-05-24T07:34:29Z</time>
      </trkpt>
      <trkpt lat="47.11881" lon="6.10472">
        <ele>420.8</ele>
        <time>2026-05-24T07:34:30Z</time>
      </trkpt>
      <trkpt lat="47.11874" lon="6.10471">
        <ele>420</ele>
        <time>2026-05-24T07:34:31Z</time>
      </trkpt>
      <trkpt lat="47.1187" lon="6.1047">
        <ele>418.6</ele>
        <time>2026-05-24T07:34:32Z</time>
      </trkpt>
      <trkpt lat="47.11864" lon="6.10469">
        <ele>417.4</ele>
        <time>2026-05-24T07:34:33Z</time>
      </trkpt>
      <trkpt lat="47.11859" lon="6.10468">
        <ele>416.6</ele>
        <time>2026-05-24T07:34:34Z</time>
      </trkpt>
      <trkpt lat="47.11854" lon="6.10466">
        <ele>415.6</ele>
        <time>2026-05-24T07:34:35Z</time>
      </trkpt>
      <trkpt lat="47.11849" lon="6.10465">
        <ele>414.6</ele>
        <time>2026-05-24T07:34:36Z</time>
      </trkpt>
      <trkpt lat="47.11844" lon="6.10465">
        <ele>413.8</ele>
        <time>2026-05-24T07:34:37Z</time>
      </trkpt>
      <trkpt lat="47.1184" lon="6.10465">
        <ele>413.2</ele>
        <time>2026-05-24T07:34:38Z</time>
      </trkpt>
      <trkpt lat="47.11837" lon="6.10464">
        <ele>412.2</ele>
        <time>2026-05-24T07:34:39Z</time>
      </trkpt>
      <trkpt lat="47.11835" lon="6.10463">
        <ele>411.8</ele>
        <time>2026-05-24T07:34:40Z</time>
      </trkpt>
      <trkpt lat="47.11833" lon="6.10462">
        <ele>410.8</ele>
        <time>2026-05-24T07:34:41Z</time>
      </trkpt>
      <trkpt lat="47.11831" lon="6.10461">
        <ele>409.8</ele>
        <time>2026-05-24T07:34:42Z</time>
      </trkpt>
      <trkpt lat="47.1183" lon="6.10461">
        <ele>408.8</ele>
        <time>2026-05-24T07:34:43Z</time>
      </trkpt>
      <trkpt lat="47.11829" lon="6.10462">
        <ele>408.2</ele>
        <time>2026-05-24T07:34:44Z</time>
      </trkpt>
      <trkpt lat="47.11828" lon="6.10462">
        <ele>407.2</ele>
        <time>2026-05-24T07:34:45Z</time>
      </trkpt>
      <trkpt lat="47.11826" lon="6.10463">
        <ele>406.6</ele>
        <time>2026-05-24T07:34:46Z</time>
      </trkpt>
      <trkpt lat="47.11824" lon="6.10463">
        <ele>406</ele>
        <time>2026-05-24T07:34:47Z</time>
      </trkpt>
      <trkpt lat="47.11821" lon="6.10462">
        <ele>405.4</ele>
        <time>2026-05-24T07:34:48Z</time>
      </trkpt>
      <trkpt lat="47.11819" lon="6.10462">
        <ele>405.4</ele>
        <time>2026-05-24T07:34:49Z</time>
      </trkpt>
      <trkpt lat="47.11816" lon="6.10461">
        <ele>404.8</ele>
        <time>2026-05-24T07:34:50Z</time>
      </trkpt>
      <trkpt lat="47.11812" lon="6.10461">
        <ele>404.4</ele>
        <time>2026-05-24T07:34:51Z</time>
      </trkpt>
      <trkpt lat="47.11808" lon="6.1046">
        <ele>404.2</ele>
        <time>2026-05-24T07:34:52Z</time>
      </trkpt>
      <trkpt lat="47.11804" lon="6.10459">
        <ele>404</ele>
        <time>2026-05-24T07:34:53Z</time>
      </trkpt>
      <trkpt lat="47.11799" lon="6.10458">
        <ele>403.8</ele>
        <time>2026-05-24T07:34:54Z</time>
      </trkpt>
      <trkpt lat="47.11794" lon="6.10457">
        <ele>403.4</ele>
        <time>2026-05-24T07:34:55Z</time>
      </trkpt>
      <trkpt lat="47.1179" lon="6.10455">
        <ele>403.2</ele>
        <time>2026-05-24T07:34:56Z</time>
      </trkpt>
      <trkpt lat="47.11786" lon="6.10454">
        <ele>402.6</ele>
        <time>2026-05-24T07:34:57Z</time>
      </trkpt>
      <trkpt lat="47.11782" lon="6.10453">
        <ele>402</ele>
        <time>2026-05-24T07:34:58Z</time>
      </trkpt>
      <trkpt lat="47.1178" lon="6.10452">
        <ele>401.2</ele>
        <time>2026-05-24T07:34:59Z</time>
      </trkpt>
      <trkpt lat="47.11776" lon="6.10451">
        <ele>400.6</ele>
        <time>2026-05-24T07:35:00Z</time>
      </trkpt>
      <trkpt lat="47.11773" lon="6.1045">
        <ele>400</ele>
        <time>2026-05-24T07:35:01Z</time>
      </trkpt>
      <trkpt lat="47.1177" lon="6.1045">
        <ele>399.4</ele>
        <time>2026-05-24T07:35:02Z</time>
      </trkpt>
      <trkpt lat="47.11768" lon="6.10449">
        <ele>398.4</ele>
        <time>2026-05-24T07:35:03Z</time>
      </trkpt>
      <trkpt lat="47.11765" lon="6.10449">
        <ele>397.2</ele>
        <time>2026-05-24T07:35:04Z</time>
      </trkpt>
      <trkpt lat="47.11763" lon="6.10448">
        <ele>396.4</ele>
        <time>2026-05-24T07:35:05Z</time>
      </trkpt>
      <trkpt lat="47.11761" lon="6.10447">
        <ele>395.4</ele>
        <time>2026-05-24T07:35:06Z</time>
      </trkpt>
      <trkpt lat="47.11758" lon="6.10447">
        <ele>394.8</ele>
        <time>2026-05-24T07:35:07Z</time>
      </trkpt>
      <trkpt lat="47.11756" lon="6.10446">
        <ele>394.4</ele>
        <time>2026-05-24T07:35:08Z</time>
      </trkpt>
      <trkpt lat="47.11753" lon="6.10445">
        <ele>394.4</ele>
        <time>2026-05-24T07:35:09Z</time>
      </trkpt>
      <trkpt lat="47.11751" lon="6.10445">
        <ele>393.8</ele>
        <time>2026-05-24T07:35:10Z</time>
      </trkpt>
      <trkpt lat="47.11749" lon="6.10444">
        <ele>393.2</ele>
        <time>2026-05-24T07:35:11Z</time>
      </trkpt>
      <trkpt lat="47.11745" lon="6.10443">
        <ele>392.6</ele>
        <time>2026-05-24T07:35:12Z</time>
      </trkpt>
      <trkpt lat="47.11743" lon="6.10441">
        <ele>392.4</ele>
        <time>2026-05-24T07:35:13Z</time>
      </trkpt>
      <trkpt lat="47.1174" lon="6.1044">
        <ele>391.8</ele>
        <time>2026-05-24T07:35:14Z</time>
      </trkpt>
      <trkpt lat="47.11737" lon="6.10438">
        <ele>391.8</ele>
        <time>2026-05-24T07:35:15Z</time>
      </trkpt>
      <trkpt lat="47.11734" lon="6.10436">
        <ele>391.4</ele>
        <time>2026-05-24T07:35:16Z</time>
      </trkpt>
      <trkpt lat="47.1173" lon="6.10434">
        <ele>391</ele>
        <time>2026-05-24T07:35:17Z</time>
      </trkpt>
      <trkpt lat="47.11727" lon="6.10433">
        <ele>390.6</ele>
        <time>2026-05-24T07:35:18Z</time>
      </trkpt>
      <trkpt lat="47.11723" lon="6.10432">
        <ele>390</ele>
        <time>2026-05-24T07:35:19Z</time>
      </trkpt>
      <trkpt lat="47.1172" lon="6.1043">
        <ele>389.4</ele>
        <time>2026-05-24T07:35:20Z</time>
      </trkpt>
      <trkpt lat="47.11716" lon="6.10428">
        <ele>389.2</ele>
        <time>2026-05-24T07:35:21Z</time>
      </trkpt>
      <trkpt lat="47.11713" lon="6.10427">
        <ele>388.8</ele>
        <time>2026-05-24T07:35:22Z</time>
      </trkpt>
      <trkpt lat="47.11709" lon="6.10426">
        <ele>388.6</ele>
        <time>2026-05-24T07:35:23Z</time>
      </trkpt>
      <trkpt lat="47.11705" lon="6.10426">
        <ele>388.4</ele>
        <time>2026-05-24T07:35:24Z</time>
      </trkpt>
      <trkpt lat="47.11701" lon="6.10425">
        <ele>388</ele>
        <time>2026-05-24T07:35:25Z</time>
      </trkpt>
      <trkpt lat="47.11697" lon="6.10425">
        <ele>387.6</ele>
        <time>2026-05-24T07:35:26Z</time>
      </trkpt>
      <trkpt lat="47.11692" lon="6.10425">
        <ele>387</ele>
        <time>2026-05-24T07:35:27Z</time>
      </trkpt>
      <trkpt lat="47.11689" lon="6.10425">
        <ele>386.4</ele>
        <time>2026-05-24T07:35:28Z</time>
      </trkpt>
      <trkpt lat="47.11684" lon="6.10424">
        <ele>385.6</ele>
        <time>2026-05-24T07:35:29Z</time>
      </trkpt>
      <trkpt lat="47.1168" lon="6.10425">
        <ele>385</ele>
        <time>2026-05-24T07:35:30Z</time>
      </trkpt>
      <trkpt lat="47.11677" lon="6.10425">
        <ele>385</ele>
        <time>2026-05-24T07:35:31Z</time>
      </trkpt>
      <trkpt lat="47.11674" lon="6.10425">
        <ele>384.6</ele>
        <time>2026-05-24T07:35:32Z</time>
      </trkpt>
      <trkpt lat="47.11671" lon="6.10425">
        <ele>383.6</ele>
        <time>2026-05-24T07:35:33Z</time>
      </trkpt>
      <trkpt lat="47.11668" lon="6.10425">
        <ele>383.2</ele>
        <time>2026-05-24T07:35:34Z</time>
      </trkpt>
      <trkpt lat="47.11664" lon="6.10425">
        <ele>382.8</ele>
        <time>2026-05-24T07:35:35Z</time>
      </trkpt>
      <trkpt lat="47.11662" lon="6.10425">
        <ele>382.4</ele>
        <time>2026-05-24T07:35:36Z</time>
      </trkpt>
      <trkpt lat="47.11659" lon="6.10424">
        <ele>381.8</ele>
        <time>2026-05-24T07:35:37Z</time>
      </trkpt>
      <trkpt lat="47.11657" lon="6.10424">
        <ele>381.4</ele>
        <time>2026-05-24T07:35:38Z</time>
      </trkpt>
      <trkpt lat="47.11655" lon="6.10424">
        <ele>380.8</ele>
        <time>2026-05-24T07:35:39Z</time>
      </trkpt>
      <trkpt lat="47.11654" lon="6.10424">
        <ele>380.4</ele>
        <time>2026-05-24T07:35:40Z</time>
      </trkpt>
      <trkpt lat="47.11652" lon="6.10424">
        <ele>380</ele>
        <time>2026-05-24T07:35:41Z</time>
      </trkpt>
      <trkpt lat="47.11651" lon="6.10424">
        <ele>379.6</ele>
        <time>2026-05-24T07:35:42Z</time>
      </trkpt>
      <trkpt lat="47.11649" lon="6.10424">
        <ele>379</ele>
        <time>2026-05-24T07:35:43Z</time>
      </trkpt>
      <trkpt lat="47.11648" lon="6.10424">
        <ele>378.6</ele>
        <time>2026-05-24T07:35:44Z</time>
      </trkpt>
      <trkpt lat="47.11646" lon="6.10424">
        <ele>378.2</ele>
        <time>2026-05-24T07:35:45Z</time>
      </trkpt>
      <trkpt lat="47.11645" lon="6.10424">
        <ele>378.2</ele>
        <time>2026-05-24T07:35:46Z</time>
      </trkpt>
      <trkpt lat="47.11643" lon="6.10424">
        <ele>378</ele>
        <time>2026-05-24T07:35:47Z</time>
      </trkpt>
      <trkpt lat="47.11643" lon="6.10424">
        <ele>377.8</ele>
        <time>2026-05-24T07:35:48Z</time>
      </trkpt>
      <trkpt lat="47.11642" lon="6.10425">
        <ele>377.6</ele>
        <time>2026-05-24T07:35:49Z</time>
      </trkpt>
      <trkpt lat="47.11642" lon="6.10425">
        <ele>377.2</ele>
        <time>2026-05-24T07:35:50Z</time>
      </trkpt>
      <trkpt lat="47.11632" lon="6.1042">
        <ele>376.4</ele>
        <time>2026-05-24T07:35:55Z</time>
      </trkpt>
      <trkpt lat="47.11629" lon="6.10417">
        <ele>376.4</ele>
        <time>2026-05-24T07:35:56Z</time>
      </trkpt>
      <trkpt lat="47.11625" lon="6.10414">
        <ele>376.4</ele>
        <time>2026-05-24T07:35:57Z</time>
      </trkpt>
      <trkpt lat="47.11619" lon="6.10409">
        <ele>376.4</ele>
        <time>2026-05-24T07:35:58Z</time>
      </trkpt>
      <trkpt lat="47.11613" lon="6.10406">
        <ele>376</ele>
        <time>2026-05-24T07:35:59Z</time>
      </trkpt>
      <trkpt lat="47.11608" lon="6.10401">
        <ele>376</ele>
        <time>2026-05-24T07:36:00Z</time>
      </trkpt>
      <trkpt lat="47.11601" lon="6.10399">
        <ele>375.8</ele>
        <time>2026-05-24T07:36:01Z</time>
      </trkpt>
      <trkpt lat="47.11595" lon="6.10396">
        <ele>375.4</ele>
        <time>2026-05-24T07:36:02Z</time>
      </trkpt>
      <trkpt lat="47.11589" lon="6.10394">
        <ele>375.4</ele>
        <time>2026-05-24T07:36:03Z</time>
      </trkpt>
      <trkpt lat="47.11583" lon="6.10391">
        <ele>375</ele>
        <time>2026-05-24T07:36:04Z</time>
      </trkpt>
      <trkpt lat="47.11575" lon="6.10388">
        <ele>374.4</ele>
        <time>2026-05-24T07:36:05Z</time>
      </trkpt>
      <trkpt lat="47.11568" lon="6.10386">
        <ele>374</ele>
        <time>2026-05-24T07:36:06Z</time>
      </trkpt>
      <trkpt lat="47.11562" lon="6.10385">
        <ele>373.4</ele>
        <time>2026-05-24T07:36:07Z</time>
      </trkpt>
      <trkpt lat="47.11553" lon="6.10385">
        <ele>372.8</ele>
        <time>2026-05-24T07:36:08Z</time>
      </trkpt>
      <trkpt lat="47.11545" lon="6.10384">
        <ele>372.4</ele>
        <time>2026-05-24T07:36:09Z</time>
      </trkpt>
      <trkpt lat="47.11539" lon="6.10383">
        <ele>371.8</ele>
        <time>2026-05-24T07:36:10Z</time>
      </trkpt>
      <trkpt lat="47.11533" lon="6.10381">
        <ele>371.2</ele>
        <time>2026-05-24T07:36:11Z</time>
      </trkpt>
      <trkpt lat="47.11527" lon="6.1038">
        <ele>370.6</ele>
        <time>2026-05-24T07:36:12Z</time>
      </trkpt>
      <trkpt lat="47.11523" lon="6.10377">
        <ele>370.2</ele>
        <time>2026-05-24T07:36:13Z</time>
      </trkpt>
      <trkpt lat="47.11519" lon="6.10374">
        <ele>369</ele>
        <time>2026-05-24T07:36:14Z</time>
      </trkpt>
      <trkpt lat="47.11516" lon="6.10372">
        <ele>368.2</ele>
        <time>2026-05-24T07:36:15Z</time>
      </trkpt>
      <trkpt lat="47.11513" lon="6.1037">
        <ele>367.6</ele>
        <time>2026-05-24T07:36:16Z</time>
      </trkpt>
      <trkpt lat="47.11509" lon="6.1037">
        <ele>367.2</ele>
        <time>2026-05-24T07:36:17Z</time>
      </trkpt>
      <trkpt lat="47.11504" lon="6.10371">
        <ele>367.2</ele>
        <time>2026-05-24T07:36:18Z</time>
      </trkpt>
      <trkpt lat="47.11501" lon="6.10372">
        <ele>366.8</ele>
        <time>2026-05-24T07:36:19Z</time>
      </trkpt>
      <trkpt lat="47.11498" lon="6.10374">
        <ele>366.2</ele>
        <time>2026-05-24T07:36:20Z</time>
      </trkpt>
      <trkpt lat="47.11494" lon="6.10374">
        <ele>365.4</ele>
        <time>2026-05-24T07:36:21Z</time>
      </trkpt>
      <trkpt lat="47.11489" lon="6.10372">
        <ele>364.6</ele>
        <time>2026-05-24T07:36:22Z</time>
      </trkpt>
      <trkpt lat="47.11484" lon="6.10371">
        <ele>363.8</ele>
        <time>2026-05-24T07:36:23Z</time>
      </trkpt>
      <trkpt lat="47.1148" lon="6.10369">
        <ele>363.2</ele>
        <time>2026-05-24T07:36:24Z</time>
      </trkpt>
      <trkpt lat="47.11477" lon="6.10366">
        <ele>362.8</ele>
        <time>2026-05-24T07:36:25Z</time>
      </trkpt>
      <trkpt lat="47.11474" lon="6.10363">
        <ele>362.4</ele>
        <time>2026-05-24T07:36:26Z</time>
      </trkpt>
      <trkpt lat="47.11472" lon="6.1036">
        <ele>362.2</ele>
        <time>2026-05-24T07:36:27Z</time>
      </trkpt>
      <trkpt lat="47.11469" lon="6.10356">
        <ele>361.6</ele>
        <time>2026-05-24T07:36:28Z</time>
      </trkpt>
      <trkpt lat="47.11467" lon="6.10353">
        <ele>361</ele>
        <time>2026-05-24T07:36:29Z</time>
      </trkpt>
      <trkpt lat="47.11464" lon="6.10349">
        <ele>360.8</ele>
        <time>2026-05-24T07:36:30Z</time>
      </trkpt>
      <trkpt lat="47.11461" lon="6.10346">
        <ele>360.4</ele>
        <time>2026-05-24T07:36:31Z</time>
      </trkpt>
      <trkpt lat="47.11456" lon="6.1034">
        <ele>360.2</ele>
        <time>2026-05-24T07:36:32Z</time>
      </trkpt>
      <trkpt lat="47.11452" lon="6.10335">
        <ele>359.8</ele>
        <time>2026-05-24T07:36:33Z</time>
      </trkpt>
      <trkpt lat="47.11449" lon="6.10331">
        <ele>359</ele>
        <time>2026-05-24T07:36:34Z</time>
      </trkpt>
      <trkpt lat="47.11445" lon="6.10328">
        <ele>358.4</ele>
        <time>2026-05-24T07:36:35Z</time>
      </trkpt>
      <trkpt lat="47.11441" lon="6.10327">
        <ele>357.6</ele>
        <time>2026-05-24T07:36:36Z</time>
      </trkpt>
      <trkpt lat="47.11437" lon="6.10326">
        <ele>357.2</ele>
        <time>2026-05-24T07:36:37Z</time>
      </trkpt>
      <trkpt lat="47.11434" lon="6.10325">
        <ele>356.8</ele>
        <time>2026-05-24T07:36:38Z</time>
      </trkpt>
      <trkpt lat="47.11431" lon="6.10325">
        <ele>356</ele>
        <time>2026-05-24T07:36:39Z</time>
      </trkpt>
      <trkpt lat="47.11428" lon="6.10326">
        <ele>355.4</ele>
        <time>2026-05-24T07:36:40Z</time>
      </trkpt>
      <trkpt lat="47.11425" lon="6.10326">
        <ele>355.4</ele>
        <time>2026-05-24T07:36:41Z</time>
      </trkpt>
      <trkpt lat="47.11422" lon="6.10327">
        <ele>355.2</ele>
        <time>2026-05-24T07:36:42Z</time>
      </trkpt>
      <trkpt lat="47.11419" lon="6.10327">
        <ele>354.8</ele>
        <time>2026-05-24T07:36:43Z</time>
      </trkpt>
      <trkpt lat="47.11416" lon="6.10327">
        <ele>354.6</ele>
        <time>2026-05-24T07:36:44Z</time>
      </trkpt>
      <trkpt lat="47.11413" lon="6.10328">
        <ele>354.4</ele>
        <time>2026-05-24T07:36:45Z</time>
      </trkpt>
      <trkpt lat="47.11411" lon="6.1033">
        <ele>354.4</ele>
        <time>2026-05-24T07:36:46Z</time>
      </trkpt>
      <trkpt lat="47.11408" lon="6.10332">
        <ele>354.2</ele>
        <time>2026-05-24T07:36:47Z</time>
      </trkpt>
      <trkpt lat="47.11406" lon="6.10334">
        <ele>353.8</ele>
        <time>2026-05-24T07:36:48Z</time>
      </trkpt>
      <trkpt lat="47.11405" lon="6.10337">
        <ele>353.8</ele>
        <time>2026-05-24T07:36:49Z</time>
      </trkpt>
      <trkpt lat="47.11403" lon="6.10339">
        <ele>353.6</ele>
        <time>2026-05-24T07:36:50Z</time>
      </trkpt>
      <trkpt lat="47.11401" lon="6.10342">
        <ele>353.6</ele>
        <time>2026-05-24T07:36:51Z</time>
      </trkpt>
      <trkpt lat="47.11399" lon="6.10344">
        <ele>353.4</ele>
        <time>2026-05-24T07:36:52Z</time>
      </trkpt>
      <trkpt lat="47.11398" lon="6.10347">
        <ele>353.4</ele>
        <time>2026-05-24T07:36:53Z</time>
      </trkpt>
      <trkpt lat="47.11397" lon="6.1035">
        <ele>353.4</ele>
        <time>2026-05-24T07:36:54Z</time>
      </trkpt>
      <trkpt lat="47.11396" lon="6.10352">
        <ele>353.2</ele>
        <time>2026-05-24T07:36:55Z</time>
      </trkpt>
      <trkpt lat="47.11395" lon="6.10354">
        <ele>353.4</ele>
        <time>2026-05-24T07:36:56Z</time>
      </trkpt>
      <trkpt lat="47.11394" lon="6.10356">
        <ele>353.4</ele>
        <time>2026-05-24T07:36:57Z</time>
      </trkpt>
      <trkpt lat="47.11394" lon="6.10357">
        <ele>353.2</ele>
        <time>2026-05-24T07:36:58Z</time>
      </trkpt>
      <trkpt lat="47.11394" lon="6.10359">
        <ele>353.4</ele>
        <time>2026-05-24T07:36:59Z</time>
      </trkpt>
      <trkpt lat="47.11393" lon="6.10361">
        <ele>353.6</ele>
        <time>2026-05-24T07:37:00Z</time>
      </trkpt>
      <trkpt lat="47.11393" lon="6.10363">
        <ele>353.6</ele>
        <time>2026-05-24T07:37:01Z</time>
      </trkpt>
      <trkpt lat="47.11393" lon="6.10365">
        <ele>353.6</ele>
        <time>2026-05-24T07:37:02Z</time>
      </trkpt>
      <trkpt lat="47.11391" lon="6.10366">
        <ele>353.6</ele>
        <time>2026-05-24T07:37:03Z</time>
      </trkpt>
      <trkpt lat="47.1139" lon="6.10368">
        <ele>353.8</ele>
        <time>2026-05-24T07:37:04Z</time>
      </trkpt>
      <trkpt lat="47.11389" lon="6.10369">
        <ele>354</ele>
        <time>2026-05-24T07:37:05Z</time>
      </trkpt>
      <trkpt lat="47.11387" lon="6.1037">
        <ele>354</ele>
        <time>2026-05-24T07:37:06Z</time>
      </trkpt>
      <trkpt lat="47.11386" lon="6.10371">
        <ele>354.2</ele>
        <time>2026-05-24T07:37:07Z</time>
      </trkpt>
      <trkpt lat="47.11384" lon="6.10371">
        <ele>354.2</ele>
        <time>2026-05-24T07:37:08Z</time>
      </trkpt>
      <trkpt lat="47.11382" lon="6.10373">
        <ele>354.2</ele>
        <time>2026-05-24T07:37:09Z</time>
      </trkpt>
      <trkpt lat="47.11381" lon="6.10374">
        <ele>354.2</ele>
        <time>2026-05-24T07:37:10Z</time>
      </trkpt>
      <trkpt lat="47.11379" lon="6.10376">
        <ele>354.2</ele>
        <time>2026-05-24T07:37:11Z</time>
      </trkpt>
      <trkpt lat="47.11377" lon="6.10376">
        <ele>354.2</ele>
        <time>2026-05-24T07:37:12Z</time>
      </trkpt>
      <trkpt lat="47.11375" lon="6.10377">
        <ele>354.4</ele>
        <time>2026-05-24T07:37:13Z</time>
      </trkpt>
      <trkpt lat="47.11373" lon="6.10377">
        <ele>354.2</ele>
        <time>2026-05-24T07:37:14Z</time>
      </trkpt>
      <trkpt lat="47.1137" lon="6.10378">
        <ele>354.4</ele>
        <time>2026-05-24T07:37:15Z</time>
      </trkpt>
      <trkpt lat="47.11368" lon="6.10378">
        <ele>354.2</ele>
        <time>2026-05-24T07:37:16Z</time>
      </trkpt>
      <trkpt lat="47.11365" lon="6.10379">
        <ele>354.2</ele>
        <time>2026-05-24T07:37:17Z</time>
      </trkpt>
      <trkpt lat="47.11361" lon="6.1038">
        <ele>354.2</ele>
        <time>2026-05-24T07:37:18Z</time>
      </trkpt>
      <trkpt lat="47.11359" lon="6.10381">
        <ele>354</ele>
        <time>2026-05-24T07:37:19Z</time>
      </trkpt>
      <trkpt lat="47.11356" lon="6.10381">
        <ele>354</ele>
        <time>2026-05-24T07:37:20Z</time>
      </trkpt>
      <trkpt lat="47.11353" lon="6.10382">
        <ele>353.8</ele>
        <time>2026-05-24T07:37:21Z</time>
      </trkpt>
      <trkpt lat="47.1135" lon="6.10383">
        <ele>354</ele>
        <time>2026-05-24T07:37:22Z</time>
      </trkpt>
      <trkpt lat="47.11347" lon="6.10385">
        <ele>353.8</ele>
        <time>2026-05-24T07:37:23Z</time>
      </trkpt>
      <trkpt lat="47.11344" lon="6.10386">
        <ele>353.4</ele>
        <time>2026-05-24T07:37:24Z</time>
      </trkpt>
      <trkpt lat="47.1134" lon="6.10389">
        <ele>353.4</ele>
        <time>2026-05-24T07:37:25Z</time>
      </trkpt>
      <trkpt lat="47.11336" lon="6.10392">
        <ele>353.2</ele>
        <time>2026-05-24T07:37:26Z</time>
      </trkpt>
      <trkpt lat="47.11333" lon="6.10395">
        <ele>353</ele>
        <time>2026-05-24T07:37:27Z</time>
      </trkpt>
      <trkpt lat="47.1133" lon="6.10398">
        <ele>352.6</ele>
        <time>2026-05-24T07:37:28Z</time>
      </trkpt>
      <trkpt lat="47.11327" lon="6.10401">
        <ele>352.6</ele>
        <time>2026-05-24T07:37:29Z</time>
      </trkpt>
      <trkpt lat="47.11325" lon="6.10404">
        <ele>352.2</ele>
        <time>2026-05-24T07:37:30Z</time>
      </trkpt>
      <trkpt lat="47.11325" lon="6.10408">
        <ele>352</ele>
        <time>2026-05-24T07:37:31Z</time>
      </trkpt>
      <trkpt lat="47.11325" lon="6.10412">
        <ele>351.4</ele>
        <time>2026-05-24T07:37:32Z</time>
      </trkpt>
      <trkpt lat="47.11325" lon="6.10416">
        <ele>351.2</ele>
        <time>2026-05-24T07:37:33Z</time>
      </trkpt>
      <trkpt lat="47.11325" lon="6.1042">
        <ele>350.6</ele>
        <time>2026-05-24T07:37:34Z</time>
      </trkpt>
      <trkpt lat="47.11325" lon="6.10424">
        <ele>350</ele>
        <time>2026-05-24T07:37:35Z</time>
      </trkpt>
      <trkpt lat="47.11325" lon="6.10428">
        <ele>349.4</ele>
        <time>2026-05-24T07:37:36Z</time>
      </trkpt>
      <trkpt lat="47.11325" lon="6.10433">
        <ele>349</ele>
        <time>2026-05-24T07:37:37Z</time>
      </trkpt>
      <trkpt lat="47.11325" lon="6.10437">
        <ele>348.8</ele>
        <time>2026-05-24T07:37:38Z</time>
      </trkpt>
      <trkpt lat="47.11325" lon="6.10441">
        <ele>348.6</ele>
        <time>2026-05-24T07:37:39Z</time>
      </trkpt>
      <trkpt lat="47.11325" lon="6.10445">
        <ele>348.4</ele>
        <time>2026-05-24T07:37:40Z</time>
      </trkpt>
      <trkpt lat="47.11325" lon="6.10449">
        <ele>348.4</ele>
        <time>2026-05-24T07:37:41Z</time>
      </trkpt>
      <trkpt lat="47.11326" lon="6.10452">
        <ele>348.4</ele>
        <time>2026-05-24T07:37:42Z</time>
      </trkpt>
      <trkpt lat="47.11326" lon="6.10457">
        <ele>348.2</ele>
        <time>2026-05-24T07:37:43Z</time>
      </trkpt>
      <trkpt lat="47.11327" lon="6.10461">
        <ele>348.4</ele>
        <time>2026-05-24T07:37:44Z</time>
      </trkpt>
      <trkpt lat="47.11328" lon="6.10464">
        <ele>348.2</ele>
        <time>2026-05-24T07:37:45Z</time>
      </trkpt>
      <trkpt lat="47.11329" lon="6.10468">
        <ele>348.2</ele>
        <time>2026-05-24T07:37:46Z</time>
      </trkpt>
      <trkpt lat="47.1133" lon="6.10471">
        <ele>348.2</ele>
        <time>2026-05-24T07:37:47Z</time>
      </trkpt>
      <trkpt lat="47.11331" lon="6.10474">
        <ele>348.2</ele>
        <time>2026-05-24T07:37:48Z</time>
      </trkpt>
      <trkpt lat="47.11332" lon="6.10477">
        <ele>348.2</ele>
        <time>2026-05-24T07:37:49Z</time>
      </trkpt>
      <trkpt lat="47.11333" lon="6.10481">
        <ele>348.4</ele>
        <time>2026-05-24T07:37:50Z</time>
      </trkpt>
      <trkpt lat="47.11334" lon="6.10484">
        <ele>348.2</ele>
        <time>2026-05-24T07:37:51Z</time>
      </trkpt>
      <trkpt lat="47.11336" lon="6.10488">
        <ele>348.2</ele>
        <time>2026-05-24T07:37:52Z</time>
      </trkpt>
      <trkpt lat="47.11337" lon="6.10492">
        <ele>348.2</ele>
        <time>2026-05-24T07:37:53Z</time>
      </trkpt>
      <trkpt lat="47.11337" lon="6.10497">
        <ele>348.4</ele>
        <time>2026-05-24T07:37:54Z</time>
      </trkpt>
      <trkpt lat="47.11338" lon="6.10501">
        <ele>348.4</ele>
        <time>2026-05-24T07:37:55Z</time>
      </trkpt>
      <trkpt lat="47.11338" lon="6.10504">
        <ele>348.4</ele>
        <time>2026-05-24T07:37:56Z</time>
      </trkpt>
      <trkpt lat="47.11338" lon="6.10509">
        <ele>348.6</ele>
        <time>2026-05-24T07:37:57Z</time>
      </trkpt>
      <trkpt lat="47.11338" lon="6.10513">
        <ele>348.6</ele>
        <time>2026-05-24T07:37:58Z</time>
      </trkpt>
      <trkpt lat="47.11339" lon="6.10518">
        <ele>348.8</ele>
        <time>2026-05-24T07:37:59Z</time>
      </trkpt>
      <trkpt lat="47.11339" lon="6.10522">
        <ele>348.8</ele>
        <time>2026-05-24T07:38:00Z</time>
      </trkpt>
      <trkpt lat="47.11339" lon="6.10528">
        <ele>348.8</ele>
        <time>2026-05-24T07:38:01Z</time>
      </trkpt>
      <trkpt lat="47.1134" lon="6.10531">
        <ele>348.8</ele>
        <time>2026-05-24T07:38:02Z</time>
      </trkpt>
      <trkpt lat="47.1134" lon="6.10536">
        <ele>349</ele>
        <time>2026-05-24T07:38:03Z</time>
      </trkpt>
      <trkpt lat="47.11341" lon="6.1054">
        <ele>349</ele>
        <time>2026-05-24T07:38:04Z</time>
      </trkpt>
      <trkpt lat="47.11342" lon="6.10544">
        <ele>349</ele>
        <time>2026-05-24T07:38:05Z</time>
      </trkpt>
      <trkpt lat="47.11343" lon="6.10549">
        <ele>349</ele>
        <time>2026-05-24T07:38:06Z</time>
      </trkpt>
      <trkpt lat="47.11344" lon="6.10553">
        <ele>349</ele>
        <time>2026-05-24T07:38:07Z</time>
      </trkpt>
      <trkpt lat="47.11344" lon="6.10557">
        <ele>349.2</ele>
        <time>2026-05-24T07:38:08Z</time>
      </trkpt>
      <trkpt lat="47.11344" lon="6.10562">
        <ele>349.2</ele>
        <time>2026-05-24T07:38:09Z</time>
      </trkpt>
      <trkpt lat="47.11343" lon="6.10568">
        <ele>349.2</ele>
        <time>2026-05-24T07:38:10Z</time>
      </trkpt>
      <trkpt lat="47.11342" lon="6.10573">
        <ele>349.6</ele>
        <time>2026-05-24T07:38:11Z</time>
      </trkpt>
      <trkpt lat="47.11341" lon="6.10578">
        <ele>349.8</ele>
        <time>2026-05-24T07:38:12Z</time>
      </trkpt>
      <trkpt lat="47.11341" lon="6.10583">
        <ele>349.8</ele>
        <time>2026-05-24T07:38:13Z</time>
      </trkpt>
      <trkpt lat="47.1134" lon="6.10589">
        <ele>350</ele>
        <time>2026-05-24T07:38:14Z</time>
      </trkpt>
      <trkpt lat="47.11339" lon="6.10595">
        <ele>350.2</ele>
        <time>2026-05-24T07:38:15Z</time>
      </trkpt>
      <trkpt lat="47.1134" lon="6.106">
        <ele>350.2</ele>
        <time>2026-05-24T07:38:16Z</time>
      </trkpt>
      <trkpt lat="47.11339" lon="6.10605">
        <ele>350.2</ele>
        <time>2026-05-24T07:38:17Z</time>
      </trkpt>
      <trkpt lat="47.1134" lon="6.1061">
        <ele>350.2</ele>
        <time>2026-05-24T07:38:18Z</time>
      </trkpt>
      <trkpt lat="47.1134" lon="6.10615">
        <ele>350.2</ele>
        <time>2026-05-24T07:38:19Z</time>
      </trkpt>
      <trkpt lat="47.1134" lon="6.10621">
        <ele>350.2</ele>
        <time>2026-05-24T07:38:20Z</time>
      </trkpt>
      <trkpt lat="47.11341" lon="6.10626">
        <ele>350.2</ele>
        <time>2026-05-24T07:38:21Z</time>
      </trkpt>
      <trkpt lat="47.11342" lon="6.10631">
        <ele>350</ele>
        <time>2026-05-24T07:38:22Z</time>
      </trkpt>
      <trkpt lat="47.11342" lon="6.10635">
        <ele>350.2</ele>
        <time>2026-05-24T07:38:23Z</time>
      </trkpt>
      <trkpt lat="47.11342" lon="6.1064">
        <ele>350.2</ele>
        <time>2026-05-24T07:38:24Z</time>
      </trkpt>
      <trkpt lat="47.11342" lon="6.10644">
        <ele>350.2</ele>
        <time>2026-05-24T07:38:25Z</time>
      </trkpt>
      <trkpt lat="47.11342" lon="6.10648">
        <ele>350.2</ele>
        <time>2026-05-24T07:38:26Z</time>
      </trkpt>
      <trkpt lat="47.11342" lon="6.10652">
        <ele>350.2</ele>
        <time>2026-05-24T07:38:27Z</time>
      </trkpt>
      <trkpt lat="47.11343" lon="6.10656">
        <ele>350.2</ele>
        <time>2026-05-24T07:38:28Z</time>
      </trkpt>
      <trkpt lat="47.11344" lon="6.1066">
        <ele>350</ele>
        <time>2026-05-24T07:38:29Z</time>
      </trkpt>
      <trkpt lat="47.11345" lon="6.10663">
        <ele>350.2</ele>
        <time>2026-05-24T07:38:30Z</time>
      </trkpt>
      <trkpt lat="47.11345" lon="6.10667">
        <ele>350.2</ele>
        <time>2026-05-24T07:38:31Z</time>
      </trkpt>
      <trkpt lat="47.11347" lon="6.1067">
        <ele>350.2</ele>
        <time>2026-05-24T07:38:32Z</time>
      </trkpt>
      <trkpt lat="47.11348" lon="6.10673">
        <ele>350.2</ele>
        <time>2026-05-24T07:38:33Z</time>
      </trkpt>
      <trkpt lat="47.11349" lon="6.10676">
        <ele>350</ele>
        <time>2026-05-24T07:38:34Z</time>
      </trkpt>
      <trkpt lat="47.1135" lon="6.1068">
        <ele>350.2</ele>
        <time>2026-05-24T07:38:35Z</time>
      </trkpt>
      <trkpt lat="47.11351" lon="6.10684">
        <ele>350.2</ele>
        <time>2026-05-24T07:38:36Z</time>
      </trkpt>
      <trkpt lat="47.11352" lon="6.10687">
        <ele>350.4</ele>
        <time>2026-05-24T07:38:37Z</time>
      </trkpt>
      <trkpt lat="47.11353" lon="6.10689">
        <ele>350.6</ele>
        <time>2026-05-24T07:38:38Z</time>
      </trkpt>
      <trkpt lat="47.11352" lon="6.10691">
        <ele>351</ele>
        <time>2026-05-24T07:38:39Z</time>
      </trkpt>
      <trkpt lat="47.11351" lon="6.10694">
        <ele>351.2</ele>
        <time>2026-05-24T07:38:40Z</time>
      </trkpt>
      <trkpt lat="47.11351" lon="6.10696">
        <ele>351.6</ele>
        <time>2026-05-24T07:38:41Z</time>
      </trkpt>
      <trkpt lat="47.11349" lon="6.107">
        <ele>351.8</ele>
        <time>2026-05-24T07:38:42Z</time>
      </trkpt>
      <trkpt lat="47.11347" lon="6.10704">
        <ele>352</ele>
        <time>2026-05-24T07:38:43Z</time>
      </trkpt>
      <trkpt lat="47.11345" lon="6.10709">
        <ele>352.2</ele>
        <time>2026-05-24T07:38:44Z</time>
      </trkpt>
      <trkpt lat="47.11344" lon="6.10714">
        <ele>352.2</ele>
        <time>2026-05-24T07:38:45Z</time>
      </trkpt>
      <trkpt lat="47.11342" lon="6.1072">
        <ele>352.4</ele>
        <time>2026-05-24T07:38:46Z</time>
      </trkpt>
      <trkpt lat="47.11341" lon="6.10725">
        <ele>352.4</ele>
        <time>2026-05-24T07:38:47Z</time>
      </trkpt>
      <trkpt lat="47.1134" lon="6.1073">
        <ele>352.4</ele>
        <time>2026-05-24T07:38:48Z</time>
      </trkpt>
      <trkpt lat="47.11339" lon="6.10734">
        <ele>352.4</ele>
        <time>2026-05-24T07:38:49Z</time>
      </trkpt>
      <trkpt lat="47.11338" lon="6.10739">
        <ele>352.4</ele>
        <time>2026-05-24T07:38:50Z</time>
      </trkpt>
      <trkpt lat="47.11337" lon="6.10744">
        <ele>352.4</ele>
        <time>2026-05-24T07:38:51Z</time>
      </trkpt>
      <trkpt lat="47.11335" lon="6.10749">
        <ele>352.4</ele>
        <time>2026-05-24T07:38:52Z</time>
      </trkpt>
      <trkpt lat="47.11334" lon="6.10754">
        <ele>352.4</ele>
        <time>2026-05-24T07:38:53Z</time>
      </trkpt>
      <trkpt lat="47.11334" lon="6.10759">
        <ele>352.4</ele>
        <time>2026-05-24T07:38:54Z</time>
      </trkpt>
      <trkpt lat="47.11334" lon="6.10763">
        <ele>352.4</ele>
        <time>2026-05-24T07:38:55Z</time>
      </trkpt>
      <trkpt lat="47.11333" lon="6.10766">
        <ele>352.2</ele>
        <time>2026-05-24T07:38:56Z</time>
      </trkpt>
      <trkpt lat="47.11333" lon="6.10769">
        <ele>352.4</ele>
        <time>2026-05-24T07:38:57Z</time>
      </trkpt>
      <trkpt lat="47.11332" lon="6.10773">
        <ele>352.4</ele>
        <time>2026-05-24T07:38:58Z</time>
      </trkpt>
      <trkpt lat="47.11331" lon="6.10777">
        <ele>352.2</ele>
        <time>2026-05-24T07:38:59Z</time>
      </trkpt>
      <trkpt lat="47.11331" lon="6.10782">
        <ele>352.2</ele>
        <time>2026-05-24T07:39:00Z</time>
      </trkpt>
      <trkpt lat="47.1133" lon="6.10787">
        <ele>352.2</ele>
        <time>2026-05-24T07:39:01Z</time>
      </trkpt>
      <trkpt lat="47.11329" lon="6.10791">
        <ele>352</ele>
        <time>2026-05-24T07:39:02Z</time>
      </trkpt>
      <trkpt lat="47.11329" lon="6.10797">
        <ele>352</ele>
        <time>2026-05-24T07:39:03Z</time>
      </trkpt>
      <trkpt lat="47.11328" lon="6.10802">
        <ele>352</ele>
        <time>2026-05-24T07:39:04Z</time>
      </trkpt>
      <trkpt lat="47.11325" lon="6.10808">
        <ele>351.8</ele>
        <time>2026-05-24T07:39:05Z</time>
      </trkpt>
      <trkpt lat="47.11323" lon="6.10813">
        <ele>351.8</ele>
        <time>2026-05-24T07:39:06Z</time>
      </trkpt>
      <trkpt lat="47.1132" lon="6.10819">
        <ele>351.6</ele>
        <time>2026-05-24T07:39:07Z</time>
      </trkpt>
      <trkpt lat="47.11317" lon="6.10825">
        <ele>351.4</ele>
        <time>2026-05-24T07:39:08Z</time>
      </trkpt>
      <trkpt lat="47.11314" lon="6.1083">
        <ele>351.2</ele>
        <time>2026-05-24T07:39:09Z</time>
      </trkpt>
      <trkpt lat="47.11311" lon="6.10837">
        <ele>351.2</ele>
        <time>2026-05-24T07:39:10Z</time>
      </trkpt>
      <trkpt lat="47.11308" lon="6.10844">
        <ele>350.6</ele>
        <time>2026-05-24T07:39:11Z</time>
      </trkpt>
      <trkpt lat="47.11305" lon="6.10851">
        <ele>350.2</ele>
        <time>2026-05-24T07:39:12Z</time>
      </trkpt>
      <trkpt lat="47.11302" lon="6.10858">
        <ele>350.2</ele>
        <time>2026-05-24T07:39:13Z</time>
      </trkpt>
      <trkpt lat="47.11299" lon="6.10865">
        <ele>349.8</ele>
        <time>2026-05-24T07:39:14Z</time>
      </trkpt>
      <trkpt lat="47.11297" lon="6.10873">
        <ele>349.8</ele>
        <time>2026-05-24T07:39:15Z</time>
      </trkpt>
      <trkpt lat="47.11295" lon="6.1088">
        <ele>349.4</ele>
        <time>2026-05-24T07:39:16Z</time>
      </trkpt>
      <trkpt lat="47.11293" lon="6.10887">
        <ele>348.6</ele>
        <time>2026-05-24T07:39:17Z</time>
      </trkpt>
      <trkpt lat="47.1129" lon="6.10895">
        <ele>348.2</ele>
        <time>2026-05-24T07:39:18Z</time>
      </trkpt>
      <trkpt lat="47.11287" lon="6.10901">
        <ele>347.4</ele>
        <time>2026-05-24T07:39:19Z</time>
      </trkpt>
      <trkpt lat="47.11285" lon="6.10908">
        <ele>347.2</ele>
        <time>2026-05-24T07:39:20Z</time>
      </trkpt>
      <trkpt lat="47.11283" lon="6.10915">
        <ele>346.8</ele>
        <time>2026-05-24T07:39:21Z</time>
      </trkpt>
      <trkpt lat="47.11281" lon="6.10921">
        <ele>346.2</ele>
        <time>2026-05-24T07:39:22Z</time>
      </trkpt>
      <trkpt lat="47.1128" lon="6.10926">
        <ele>345.8</ele>
        <time>2026-05-24T07:39:23Z</time>
      </trkpt>
      <trkpt lat="47.11279" lon="6.1093">
        <ele>345.4</ele>
        <time>2026-05-24T07:39:24Z</time>
      </trkpt>
      <trkpt lat="47.11279" lon="6.10934">
        <ele>344.6</ele>
        <time>2026-05-24T07:39:25Z</time>
      </trkpt>
      <trkpt lat="47.1128" lon="6.10936">
        <ele>343.4</ele>
        <time>2026-05-24T07:39:26Z</time>
      </trkpt>
      <trkpt lat="47.1128" lon="6.10938">
        <ele>342.4</ele>
        <time>2026-05-24T07:39:27Z</time>
      </trkpt>
      <trkpt lat="47.11281" lon="6.1094">
        <ele>341.2</ele>
        <time>2026-05-24T07:39:28Z</time>
      </trkpt>
      <trkpt lat="47.11282" lon="6.10941">
        <ele>340.4</ele>
        <time>2026-05-24T07:39:29Z</time>
      </trkpt>
      <trkpt lat="47.11282" lon="6.10943">
        <ele>339.8</ele>
        <time>2026-05-24T07:39:30Z</time>
      </trkpt>
      <trkpt lat="47.11282" lon="6.10944">
        <ele>339.6</ele>
        <time>2026-05-24T07:39:31Z</time>
      </trkpt>
      <trkpt lat="47.11282" lon="6.10945">
        <ele>339.4</ele>
        <time>2026-05-24T07:39:32Z</time>
      </trkpt>
      <trkpt lat="47.11282" lon="6.10945">
        <ele>339.4</ele>
        <time>2026-05-24T07:39:33Z</time>
      </trkpt>
      <trkpt lat="47.11288" lon="6.10982">
        <ele>339.4</ele>
        <time>2026-05-24T07:41:20Z</time>
      </trkpt>
      <trkpt lat="47.11289" lon="6.10983">
        <ele>339.4</ele>
        <time>2026-05-24T07:41:21Z</time>
      </trkpt>
      <trkpt lat="47.1129" lon="6.10984">
        <ele>339.4</ele>
        <time>2026-05-24T07:41:22Z</time>
      </trkpt>
      <trkpt lat="47.11291" lon="6.10985">
        <ele>339.4</ele>
        <time>2026-05-24T07:41:23Z</time>
      </trkpt>
      <trkpt lat="47.11291" lon="6.10987">
        <ele>339.6</ele>
        <time>2026-05-24T07:41:24Z</time>
      </trkpt>
      <trkpt lat="47.11291" lon="6.10988">
        <ele>339.8</ele>
        <time>2026-05-24T07:41:25Z</time>
      </trkpt>
      <trkpt lat="47.11292" lon="6.10991">
        <ele>339.8</ele>
        <time>2026-05-24T07:41:26Z</time>
      </trkpt>
      <trkpt lat="47.11293" lon="6.10993">
        <ele>340</ele>
        <time>2026-05-24T07:41:27Z</time>
      </trkpt>
      <trkpt lat="47.11294" lon="6.10995">
        <ele>340.4</ele>
        <time>2026-05-24T07:41:28Z</time>
      </trkpt>
      <trkpt lat="47.11295" lon="6.10997">
        <ele>340.4</ele>
        <time>2026-05-24T07:41:29Z</time>
      </trkpt>
      <trkpt lat="47.11296" lon="6.10999">
        <ele>340.6</ele>
        <time>2026-05-24T07:41:30Z</time>
      </trkpt>
      <trkpt lat="47.11297" lon="6.11002">
        <ele>340.8</ele>
        <time>2026-05-24T07:41:31Z</time>
      </trkpt>
      <trkpt lat="47.11298" lon="6.11004">
        <ele>341</ele>
        <time>2026-05-24T07:41:32Z</time>
      </trkpt>
      <trkpt lat="47.11299" lon="6.11006">
        <ele>341</ele>
        <time>2026-05-24T07:41:33Z</time>
      </trkpt>
      <trkpt lat="47.113" lon="6.11008">
        <ele>341.2</ele>
        <time>2026-05-24T07:41:34Z</time>
      </trkpt>
      <trkpt lat="47.11301" lon="6.11011">
        <ele>341.4</ele>
        <time>2026-05-24T07:41:35Z</time>
      </trkpt>
      <trkpt lat="47.11301" lon="6.11013">
        <ele>341.8</ele>
        <time>2026-05-24T07:41:36Z</time>
      </trkpt>
      <trkpt lat="47.11302" lon="6.11014">
        <ele>342</ele>
        <time>2026-05-24T07:41:37Z</time>
      </trkpt>
      <trkpt lat="47.11303" lon="6.11016">
        <ele>342.2</ele>
        <time>2026-05-24T07:41:38Z</time>
      </trkpt>
      <trkpt lat="47.11305" lon="6.11018">
        <ele>342.6</ele>
        <time>2026-05-24T07:41:39Z</time>
      </trkpt>
      <trkpt lat="47.11307" lon="6.1102">
        <ele>342.8</ele>
        <time>2026-05-24T07:41:40Z</time>
      </trkpt>
      <trkpt lat="47.11308" lon="6.11022">
        <ele>343.2</ele>
        <time>2026-05-24T07:41:41Z</time>
      </trkpt>
      <trkpt lat="47.11309" lon="6.11024">
        <ele>343.2</ele>
        <time>2026-05-24T07:41:42Z</time>
      </trkpt>
      <trkpt lat="47.11311" lon="6.11026">
        <ele>343.4</ele>
        <time>2026-05-24T07:41:43Z</time>
      </trkpt>
      <trkpt lat="47.11313" lon="6.11028">
        <ele>343.6</ele>
        <time>2026-05-24T07:41:44Z</time>
      </trkpt>
      <trkpt lat="47.11314" lon="6.1103">
        <ele>344</ele>
        <time>2026-05-24T07:41:45Z</time>
      </trkpt>
      <trkpt lat="47.11315" lon="6.11033">
        <ele>344</ele>
        <time>2026-05-24T07:41:46Z</time>
      </trkpt>
      <trkpt lat="47.11316" lon="6.11036">
        <ele>344.6</ele>
        <time>2026-05-24T07:41:47Z</time>
      </trkpt>
      <trkpt lat="47.11317" lon="6.11038">
        <ele>344.8</ele>
        <time>2026-05-24T07:41:48Z</time>
      </trkpt>
      <trkpt lat="47.11317" lon="6.1104">
        <ele>345</ele>
        <time>2026-05-24T07:41:49Z</time>
      </trkpt>
      <trkpt lat="47.11317" lon="6.11042">
        <ele>345.2</ele>
        <time>2026-05-24T07:41:50Z</time>
      </trkpt>
      <trkpt lat="47.11317" lon="6.11044">
        <ele>345.6</ele>
        <time>2026-05-24T07:41:51Z</time>
      </trkpt>
      <trkpt lat="47.11317" lon="6.11045">
        <ele>345.8</ele>
        <time>2026-05-24T07:41:52Z</time>
      </trkpt>
      <trkpt lat="47.11318" lon="6.11047">
        <ele>346.2</ele>
        <time>2026-05-24T07:41:53Z</time>
      </trkpt>
      <trkpt lat="47.11318" lon="6.11048">
        <ele>346.6</ele>
        <time>2026-05-24T07:41:54Z</time>
      </trkpt>
      <trkpt lat="47.11319" lon="6.1105">
        <ele>346.6</ele>
        <time>2026-05-24T07:41:55Z</time>
      </trkpt>
      <trkpt lat="47.1132" lon="6.11051">
        <ele>346.8</ele>
        <time>2026-05-24T07:41:56Z</time>
      </trkpt>
      <trkpt lat="47.11321" lon="6.11052">
        <ele>347</ele>
        <time>2026-05-24T07:41:57Z</time>
      </trkpt>
      <trkpt lat="47.11322" lon="6.11052">
        <ele>347.4</ele>
        <time>2026-05-24T07:41:58Z</time>
      </trkpt>
      <trkpt lat="47.11323" lon="6.11053">
        <ele>347.6</ele>
        <time>2026-05-24T07:41:59Z</time>
      </trkpt>
      <trkpt lat="47.11324" lon="6.11054">
        <ele>348</ele>
        <time>2026-05-24T07:42:00Z</time>
      </trkpt>
      <trkpt lat="47.11326" lon="6.11056">
        <ele>348.2</ele>
        <time>2026-05-24T07:42:01Z</time>
      </trkpt>
      <trkpt lat="47.11326" lon="6.11057">
        <ele>348.6</ele>
        <time>2026-05-24T07:42:02Z</time>
      </trkpt>
      <trkpt lat="47.11327" lon="6.11059">
        <ele>349</ele>
        <time>2026-05-24T07:42:03Z</time>
      </trkpt>
      <trkpt lat="47.11328" lon="6.1106">
        <ele>349.2</ele>
        <time>2026-05-24T07:42:04Z</time>
      </trkpt>
      <trkpt lat="47.11329" lon="6.11062">
        <ele>349.6</ele>
        <time>2026-05-24T07:42:05Z</time>
      </trkpt>
      <trkpt lat="47.1133" lon="6.11063">
        <ele>349.8</ele>
        <time>2026-05-24T07:42:06Z</time>
      </trkpt>
      <trkpt lat="47.1133" lon="6.11065">
        <ele>350</ele>
        <time>2026-05-24T07:42:07Z</time>
      </trkpt>
      <trkpt lat="47.1133" lon="6.11067">
        <ele>350.2</ele>
        <time>2026-05-24T07:42:08Z</time>
      </trkpt>
      <trkpt lat="47.11329" lon="6.11068">
        <ele>350.4</ele>
        <time>2026-05-24T07:42:09Z</time>
      </trkpt>
      <trkpt lat="47.11328" lon="6.11072">
        <ele>350.4</ele>
        <time>2026-05-24T07:42:10Z</time>
      </trkpt>
      <trkpt lat="47.11327" lon="6.11074">
        <ele>350.8</ele>
        <time>2026-05-24T07:42:11Z</time>
      </trkpt>
      <trkpt lat="47.11325" lon="6.11078">
        <ele>351</ele>
        <time>2026-05-24T07:42:12Z</time>
      </trkpt>
      <trkpt lat="47.11324" lon="6.11081">
        <ele>351</ele>
        <time>2026-05-24T07:42:13Z</time>
      </trkpt>
      <trkpt lat="47.11323" lon="6.11084">
        <ele>351.2</ele>
        <time>2026-05-24T07:42:14Z</time>
      </trkpt>
      <trkpt lat="47.11322" lon="6.11087">
        <ele>351.6</ele>
        <time>2026-05-24T07:42:15Z</time>
      </trkpt>
      <trkpt lat="47.11322" lon="6.1109">
        <ele>351.6</ele>
        <time>2026-05-24T07:42:16Z</time>
      </trkpt>
      <trkpt lat="47.11323" lon="6.11093">
        <ele>351.6</ele>
        <time>2026-05-24T07:42:17Z</time>
      </trkpt>
      <trkpt lat="47.11324" lon="6.11095">
        <ele>351.6</ele>
        <time>2026-05-24T07:42:18Z</time>
      </trkpt>
      <trkpt lat="47.11325" lon="6.11096">
        <ele>351.8</ele>
        <time>2026-05-24T07:42:19Z</time>
      </trkpt>
      <trkpt lat="47.11327" lon="6.11097">
        <ele>351.8</ele>
        <time>2026-05-24T07:42:20Z</time>
      </trkpt>
      <trkpt lat="47.11327" lon="6.111">
        <ele>352</ele>
        <time>2026-05-24T07:42:21Z</time>
      </trkpt>
      <trkpt lat="47.11328" lon="6.11101">
        <ele>352</ele>
        <time>2026-05-24T07:42:22Z</time>
      </trkpt>
      <trkpt lat="47.11329" lon="6.11102">
        <ele>352.2</ele>
        <time>2026-05-24T07:42:23Z</time>
      </trkpt>
      <trkpt lat="47.1133" lon="6.11103">
        <ele>352.4</ele>
        <time>2026-05-24T07:42:24Z</time>
      </trkpt>
      <trkpt lat="47.11331" lon="6.11105">
        <ele>352.4</ele>
        <time>2026-05-24T07:42:25Z</time>
      </trkpt>
      <trkpt lat="47.11332" lon="6.11107">
        <ele>352.8</ele>
        <time>2026-05-24T07:42:26Z</time>
      </trkpt>
      <trkpt lat="47.11333" lon="6.11108">
        <ele>352.8</ele>
        <time>2026-05-24T07:42:27Z</time>
      </trkpt>
      <trkpt lat="47.11333" lon="6.11109">
        <ele>352.8</ele>
        <time>2026-05-24T07:42:28Z</time>
      </trkpt>
      <trkpt lat="47.11335" lon="6.1111">
        <ele>353.2</ele>
        <time>2026-05-24T07:42:29Z</time>
      </trkpt>
      <trkpt lat="47.11336" lon="6.11112">
        <ele>353.4</ele>
        <time>2026-05-24T07:42:30Z</time>
      </trkpt>
      <trkpt lat="47.11338" lon="6.11114">
        <ele>353.4</ele>
        <time>2026-05-24T07:42:31Z</time>
      </trkpt>
      <trkpt lat="47.11339" lon="6.11116">
        <ele>353.6</ele>
        <time>2026-05-24T07:42:32Z</time>
      </trkpt>
      <trkpt lat="47.11341" lon="6.11118">
        <ele>354</ele>
        <time>2026-05-24T07:42:33Z</time>
      </trkpt>
      <trkpt lat="47.11342" lon="6.11121">
        <ele>354.2</ele>
        <time>2026-05-24T07:42:34Z</time>
      </trkpt>
      <trkpt lat="47.11343" lon="6.11123">
        <ele>354.4</ele>
        <time>2026-05-24T07:42:35Z</time>
      </trkpt>
      <trkpt lat="47.11343" lon="6.11126">
        <ele>354.6</ele>
        <time>2026-05-24T07:42:36Z</time>
      </trkpt>
      <trkpt lat="47.11344" lon="6.1113">
        <ele>354.8</ele>
        <time>2026-05-24T07:42:37Z</time>
      </trkpt>
      <trkpt lat="47.11345" lon="6.11132">
        <ele>354.8</ele>
        <time>2026-05-24T07:42:38Z</time>
      </trkpt>
      <trkpt lat="47.11346" lon="6.11135">
        <ele>354.8</ele>
        <time>2026-05-24T07:42:39Z</time>
      </trkpt>
      <trkpt lat="47.11347" lon="6.11137">
        <ele>355.2</ele>
        <time>2026-05-24T07:42:40Z</time>
      </trkpt>
      <trkpt lat="47.11348" lon="6.1114">
        <ele>355.4</ele>
        <time>2026-05-24T07:42:41Z</time>
      </trkpt>
      <trkpt lat="47.11349" lon="6.11142">
        <ele>355.6</ele>
        <time>2026-05-24T07:42:42Z</time>
      </trkpt>
      <trkpt lat="47.11349" lon="6.11144">
        <ele>356</ele>
        <time>2026-05-24T07:42:43Z</time>
      </trkpt>
      <trkpt lat="47.1135" lon="6.11146">
        <ele>356.2</ele>
        <time>2026-05-24T07:42:44Z</time>
      </trkpt>
      <trkpt lat="47.1135" lon="6.11149">
        <ele>356.6</ele>
        <time>2026-05-24T07:42:45Z</time>
      </trkpt>
      <trkpt lat="47.1135" lon="6.11151">
        <ele>356.8</ele>
        <time>2026-05-24T07:42:46Z</time>
      </trkpt>
      <trkpt lat="47.11351" lon="6.11154">
        <ele>357.4</ele>
        <time>2026-05-24T07:42:47Z</time>
      </trkpt>
      <trkpt lat="47.11352" lon="6.11157">
        <ele>357.8</ele>
        <time>2026-05-24T07:42:48Z</time>
      </trkpt>
      <trkpt lat="47.11353" lon="6.11159">
        <ele>358</ele>
        <time>2026-05-24T07:42:49Z</time>
      </trkpt>
      <trkpt lat="47.11353" lon="6.11162">
        <ele>358.4</ele>
        <time>2026-05-24T07:42:50Z</time>
      </trkpt>
      <trkpt lat="47.11354" lon="6.11164">
        <ele>358.6</ele>
        <time>2026-05-24T07:42:51Z</time>
      </trkpt>
      <trkpt lat="47.11355" lon="6.11167">
        <ele>358.6</ele>
        <time>2026-05-24T07:42:52Z</time>
      </trkpt>
      <trkpt lat="47.11355" lon="6.11169">
        <ele>359</ele>
        <time>2026-05-24T07:42:53Z</time>
      </trkpt>
      <trkpt lat="47.11356" lon="6.11171">
        <ele>359.2</ele>
        <time>2026-05-24T07:42:54Z</time>
      </trkpt>
      <trkpt lat="47.11357" lon="6.11173">
        <ele>359.6</ele>
        <time>2026-05-24T07:42:55Z</time>
      </trkpt>
      <trkpt lat="47.11358" lon="6.11175">
        <ele>359.8</ele>
        <time>2026-05-24T07:42:56Z</time>
      </trkpt>
      <trkpt lat="47.11359" lon="6.11177">
        <ele>360</ele>
        <time>2026-05-24T07:42:57Z</time>
      </trkpt>
      <trkpt lat="47.1136" lon="6.11178">
        <ele>360.2</ele>
        <time>2026-05-24T07:42:58Z</time>
      </trkpt>
      <trkpt lat="47.11361" lon="6.1118">
        <ele>360.4</ele>
        <time>2026-05-24T07:42:59Z</time>
      </trkpt>
      <trkpt lat="47.11361" lon="6.11181">
        <ele>360.8</ele>
        <time>2026-05-24T07:43:00Z</time>
      </trkpt>
      <trkpt lat="47.11362" lon="6.11182">
        <ele>360.8</ele>
        <time>2026-05-24T07:43:01Z</time>
      </trkpt>
      <trkpt lat="47.11362" lon="6.11183">
        <ele>361</ele>
        <time>2026-05-24T07:43:02Z</time>
      </trkpt>
      <trkpt lat="47.11362" lon="6.11185">
        <ele>361.2</ele>
        <time>2026-05-24T07:43:03Z</time>
      </trkpt>
      <trkpt lat="47.11362" lon="6.11187">
        <ele>361.6</ele>
        <time>2026-05-24T07:43:04Z</time>
      </trkpt>
      <trkpt lat="47.11363" lon="6.1119">
        <ele>361.6</ele>
        <time>2026-05-24T07:43:05Z</time>
      </trkpt>
      <trkpt lat="47.11365" lon="6.11192">
        <ele>362</ele>
        <time>2026-05-24T07:43:06Z</time>
      </trkpt>
      <trkpt lat="47.11366" lon="6.11194">
        <ele>362.2</ele>
        <time>2026-05-24T07:43:07Z</time>
      </trkpt>
      <trkpt lat="47.11367" lon="6.11195">
        <ele>362.4</ele>
        <time>2026-05-24T07:43:08Z</time>
      </trkpt>
      <trkpt lat="47.11368" lon="6.11197">
        <ele>362.6</ele>
        <time>2026-05-24T07:43:09Z</time>
      </trkpt>
      <trkpt lat="47.11369" lon="6.11199">
        <ele>362.8</ele>
        <time>2026-05-24T07:43:10Z</time>
      </trkpt>
      <trkpt lat="47.1137" lon="6.11201">
        <ele>363</ele>
        <time>2026-05-24T07:43:11Z</time>
      </trkpt>
      <trkpt lat="47.11371" lon="6.11203">
        <ele>363.2</ele>
        <time>2026-05-24T07:43:12Z</time>
      </trkpt>
      <trkpt lat="47.11373" lon="6.11206">
        <ele>363.6</ele>
        <time>2026-05-24T07:43:13Z</time>
      </trkpt>
      <trkpt lat="47.11374" lon="6.11208">
        <ele>363.6</ele>
        <time>2026-05-24T07:43:14Z</time>
      </trkpt>
      <trkpt lat="47.11375" lon="6.1121">
        <ele>363.8</ele>
        <time>2026-05-24T07:43:15Z</time>
      </trkpt>
      <trkpt lat="47.11376" lon="6.11213">
        <ele>363.8</ele>
        <time>2026-05-24T07:43:16Z</time>
      </trkpt>
      <trkpt lat="47.11377" lon="6.11216">
        <ele>364</ele>
        <time>2026-05-24T07:43:17Z</time>
      </trkpt>
      <trkpt lat="47.11378" lon="6.11219">
        <ele>364</ele>
        <time>2026-05-24T07:43:18Z</time>
      </trkpt>
      <trkpt lat="47.11379" lon="6.11222">
        <ele>364.2</ele>
        <time>2026-05-24T07:43:19Z</time>
      </trkpt>
      <trkpt lat="47.11379" lon="6.11224">
        <ele>364.2</ele>
        <time>2026-05-24T07:43:20Z</time>
      </trkpt>
      <trkpt lat="47.11381" lon="6.11228">
        <ele>364.4</ele>
        <time>2026-05-24T07:43:21Z</time>
      </trkpt>
      <trkpt lat="47.11382" lon="6.11231">
        <ele>364.4</ele>
        <time>2026-05-24T07:43:22Z</time>
      </trkpt>
      <trkpt lat="47.11383" lon="6.11234">
        <ele>364.4</ele>
        <time>2026-05-24T07:43:23Z</time>
      </trkpt>
      <trkpt lat="47.11384" lon="6.11236">
        <ele>364.4</ele>
        <time>2026-05-24T07:43:24Z</time>
      </trkpt>
      <trkpt lat="47.11386" lon="6.1124">
        <ele>364.6</ele>
        <time>2026-05-24T07:43:25Z</time>
      </trkpt>
      <trkpt lat="47.11387" lon="6.11243">
        <ele>364.6</ele>
        <time>2026-05-24T07:43:26Z</time>
      </trkpt>
      <trkpt lat="47.11387" lon="6.11247">
        <ele>364.8</ele>
        <time>2026-05-24T07:43:27Z</time>
      </trkpt>
      <trkpt lat="47.11388" lon="6.11249">
        <ele>364.8</ele>
        <time>2026-05-24T07:43:28Z</time>
      </trkpt>
      <trkpt lat="47.11389" lon="6.11253">
        <ele>365</ele>
        <time>2026-05-24T07:43:29Z</time>
      </trkpt>
      <trkpt lat="47.1139" lon="6.11258">
        <ele>365.2</ele>
        <time>2026-05-24T07:43:30Z</time>
      </trkpt>
      <trkpt lat="47.1139" lon="6.11262">
        <ele>365.4</ele>
        <time>2026-05-24T07:43:31Z</time>
      </trkpt>
      <trkpt lat="47.1139" lon="6.11266">
        <ele>365.2</ele>
        <time>2026-05-24T07:43:32Z</time>
      </trkpt>
      <trkpt lat="47.1139" lon="6.11271">
        <ele>365.4</ele>
        <time>2026-05-24T07:43:33Z</time>
      </trkpt>
      <trkpt lat="47.1139" lon="6.11275">
        <ele>365.4</ele>
        <time>2026-05-24T07:43:34Z</time>
      </trkpt>
      <trkpt lat="47.11391" lon="6.1128">
        <ele>365.4</ele>
        <time>2026-05-24T07:43:35Z</time>
      </trkpt>
      <trkpt lat="47.11392" lon="6.11284">
        <ele>365.4</ele>
        <time>2026-05-24T07:43:36Z</time>
      </trkpt>
      <trkpt lat="47.11393" lon="6.11289">
        <ele>365.4</ele>
        <time>2026-05-24T07:43:37Z</time>
      </trkpt>
      <trkpt lat="47.11394" lon="6.11293">
        <ele>365.4</ele>
        <time>2026-05-24T07:43:38Z</time>
      </trkpt>
      <trkpt lat="47.11395" lon="6.11298">
        <ele>365.4</ele>
        <time>2026-05-24T07:43:39Z</time>
      </trkpt>
      <trkpt lat="47.11397" lon="6.11302">
        <ele>365.4</ele>
        <time>2026-05-24T07:43:40Z</time>
      </trkpt>
      <trkpt lat="47.11398" lon="6.11306">
        <ele>365.4</ele>
        <time>2026-05-24T07:43:41Z</time>
      </trkpt>
      <trkpt lat="47.114" lon="6.11311">
        <ele>365.4</ele>
        <time>2026-05-24T07:43:42Z</time>
      </trkpt>
      <trkpt lat="47.11403" lon="6.11317">
        <ele>365.4</ele>
        <time>2026-05-24T07:43:43Z</time>
      </trkpt>
      <trkpt lat="47.11406" lon="6.11322">
        <ele>365.4</ele>
        <time>2026-05-24T07:43:44Z</time>
      </trkpt>
      <trkpt lat="47.11408" lon="6.11327">
        <ele>365.4</ele>
        <time>2026-05-24T07:43:45Z</time>
      </trkpt>
      <trkpt lat="47.1141" lon="6.11332">
        <ele>365.4</ele>
        <time>2026-05-24T07:43:46Z</time>
      </trkpt>
      <trkpt lat="47.11412" lon="6.11337">
        <ele>365.4</ele>
        <time>2026-05-24T07:43:47Z</time>
      </trkpt>
      <trkpt lat="47.11414" lon="6.11342">
        <ele>365.4</ele>
        <time>2026-05-24T07:43:48Z</time>
      </trkpt>
      <trkpt lat="47.11416" lon="6.11347">
        <ele>365.4</ele>
        <time>2026-05-24T07:43:49Z</time>
      </trkpt>
      <trkpt lat="47.11418" lon="6.11351">
        <ele>365.4</ele>
        <time>2026-05-24T07:43:50Z</time>
      </trkpt>
      <trkpt lat="47.1142" lon="6.11356">
        <ele>365.2</ele>
        <time>2026-05-24T07:43:51Z</time>
      </trkpt>
      <trkpt lat="47.11421" lon="6.1136">
        <ele>365.4</ele>
        <time>2026-05-24T07:43:52Z</time>
      </trkpt>
      <trkpt lat="47.11423" lon="6.11365">
        <ele>365.2</ele>
        <time>2026-05-24T07:43:53Z</time>
      </trkpt>
      <trkpt lat="47.11425" lon="6.11369">
        <ele>365.4</ele>
        <time>2026-05-24T07:43:54Z</time>
      </trkpt>
      <trkpt lat="47.11427" lon="6.11373">
        <ele>365.4</ele>
        <time>2026-05-24T07:43:55Z</time>
      </trkpt>
      <trkpt lat="47.11429" lon="6.11377">
        <ele>365.4</ele>
        <time>2026-05-24T07:43:56Z</time>
      </trkpt>
      <trkpt lat="47.11431" lon="6.11381">
        <ele>365.4</ele>
        <time>2026-05-24T07:43:57Z</time>
      </trkpt>
      <trkpt lat="47.11433" lon="6.11385">
        <ele>365.4</ele>
        <time>2026-05-24T07:43:58Z</time>
      </trkpt>
      <trkpt lat="47.11434" lon="6.1139">
        <ele>365.2</ele>
        <time>2026-05-24T07:43:59Z</time>
      </trkpt>
      <trkpt lat="47.11436" lon="6.11394">
        <ele>365.4</ele>
        <time>2026-05-24T07:44:00Z</time>
      </trkpt>
      <trkpt lat="47.11437" lon="6.11398">
        <ele>365.4</ele>
        <time>2026-05-24T07:44:01Z</time>
      </trkpt>
      <trkpt lat="47.11439" lon="6.11402">
        <ele>365.4</ele>
        <time>2026-05-24T07:44:02Z</time>
      </trkpt>
      <trkpt lat="47.11441" lon="6.11405">
        <ele>365.2</ele>
        <time>2026-05-24T07:44:03Z</time>
      </trkpt>
      <trkpt lat="47.11442" lon="6.11409">
        <ele>365.4</ele>
        <time>2026-05-24T07:44:04Z</time>
      </trkpt>
      <trkpt lat="47.11444" lon="6.11412">
        <ele>365.4</ele>
        <time>2026-05-24T07:44:05Z</time>
      </trkpt>
      <trkpt lat="47.11445" lon="6.11416">
        <ele>365.4</ele>
        <time>2026-05-24T07:44:06Z</time>
      </trkpt>
      <trkpt lat="47.11447" lon="6.11419">
        <ele>365.4</ele>
        <time>2026-05-24T07:44:07Z</time>
      </trkpt>
      <trkpt lat="47.11448" lon="6.11423">
        <ele>365.4</ele>
        <time>2026-05-24T07:44:08Z</time>
      </trkpt>
      <trkpt lat="47.1145" lon="6.11426">
        <ele>365.8</ele>
        <time>2026-05-24T07:44:09Z</time>
      </trkpt>
      <trkpt lat="47.11453" lon="6.11429">
        <ele>365.6</ele>
        <time>2026-05-24T07:44:10Z</time>
      </trkpt>
      <trkpt lat="47.11455" lon="6.11433">
        <ele>366</ele>
        <time>2026-05-24T07:44:11Z</time>
      </trkpt>
      <trkpt lat="47.11458" lon="6.11437">
        <ele>365.8</ele>
        <time>2026-05-24T07:44:12Z</time>
      </trkpt>
      <trkpt lat="47.1146" lon="6.1144">
        <ele>366</ele>
        <time>2026-05-24T07:44:13Z</time>
      </trkpt>
      <trkpt lat="47.11462" lon="6.11443">
        <ele>365.8</ele>
        <time>2026-05-24T07:44:14Z</time>
      </trkpt>
      <trkpt lat="47.11464" lon="6.11446">
        <ele>365.8</ele>
        <time>2026-05-24T07:44:15Z</time>
      </trkpt>
      <trkpt lat="47.11466" lon="6.11449">
        <ele>365.8</ele>
        <time>2026-05-24T07:44:16Z</time>
      </trkpt>
      <trkpt lat="47.11468" lon="6.11453">
        <ele>365.8</ele>
        <time>2026-05-24T07:44:17Z</time>
      </trkpt>
      <trkpt lat="47.11471" lon="6.11456">
        <ele>365.8</ele>
        <time>2026-05-24T07:44:18Z</time>
      </trkpt>
      <trkpt lat="47.11473" lon="6.11458">
        <ele>365.8</ele>
        <time>2026-05-24T07:44:19Z</time>
      </trkpt>
      <trkpt lat="47.11475" lon="6.11461">
        <ele>365.8</ele>
        <time>2026-05-24T07:44:20Z</time>
      </trkpt>
      <trkpt lat="47.11478" lon="6.11465">
        <ele>365.8</ele>
        <time>2026-05-24T07:44:21Z</time>
      </trkpt>
      <trkpt lat="47.11481" lon="6.11468">
        <ele>365.8</ele>
        <time>2026-05-24T07:44:22Z</time>
      </trkpt>
      <trkpt lat="47.11483" lon="6.11472">
        <ele>365.8</ele>
        <time>2026-05-24T07:44:23Z</time>
      </trkpt>
      <trkpt lat="47.11486" lon="6.11476">
        <ele>365.6</ele>
        <time>2026-05-24T07:44:24Z</time>
      </trkpt>
      <trkpt lat="47.1149" lon="6.1148">
        <ele>365.6</ele>
        <time>2026-05-24T07:44:25Z</time>
      </trkpt>
      <trkpt lat="47.11494" lon="6.11485">
        <ele>365.6</ele>
        <time>2026-05-24T07:44:26Z</time>
      </trkpt>
      <trkpt lat="47.11497" lon="6.1149">
        <ele>365.4</ele>
        <time>2026-05-24T07:44:27Z</time>
      </trkpt>
      <trkpt lat="47.11501" lon="6.11494">
        <ele>365.4</ele>
        <time>2026-05-24T07:44:28Z</time>
      </trkpt>
      <trkpt lat="47.11503" lon="6.11497">
        <ele>365.4</ele>
        <time>2026-05-24T07:44:29Z</time>
      </trkpt>
      <trkpt lat="47.11506" lon="6.115">
        <ele>365.4</ele>
        <time>2026-05-24T07:44:30Z</time>
      </trkpt>
      <trkpt lat="47.11509" lon="6.11504">
        <ele>365.2</ele>
        <time>2026-05-24T07:44:31Z</time>
      </trkpt>
      <trkpt lat="47.11512" lon="6.11507">
        <ele>365.2</ele>
        <time>2026-05-24T07:44:32Z</time>
      </trkpt>
      <trkpt lat="47.11516" lon="6.11511">
        <ele>365</ele>
        <time>2026-05-24T07:44:33Z</time>
      </trkpt>
      <trkpt lat="47.1152" lon="6.11515">
        <ele>365</ele>
        <time>2026-05-24T07:44:34Z</time>
      </trkpt>
      <trkpt lat="47.11524" lon="6.11519">
        <ele>364.8</ele>
        <time>2026-05-24T07:44:35Z</time>
      </trkpt>
      <trkpt lat="47.11528" lon="6.11522">
        <ele>364.6</ele>
        <time>2026-05-24T07:44:36Z</time>
      </trkpt>
      <trkpt lat="47.11531" lon="6.11526">
        <ele>364.6</ele>
        <time>2026-05-24T07:44:37Z</time>
      </trkpt>
      <trkpt lat="47.11535" lon="6.11529">
        <ele>364.4</ele>
        <time>2026-05-24T07:44:38Z</time>
      </trkpt>
      <trkpt lat="47.11539" lon="6.11533">
        <ele>364.4</ele>
        <time>2026-05-24T07:44:39Z</time>
      </trkpt>
      <trkpt lat="47.11544" lon="6.11537">
        <ele>364.2</ele>
        <time>2026-05-24T07:44:40Z</time>
      </trkpt>
      <trkpt lat="47.11547" lon="6.1154">
        <ele>364.2</ele>
        <time>2026-05-24T07:44:41Z</time>
      </trkpt>
      <trkpt lat="47.11551" lon="6.11543">
        <ele>364</ele>
        <time>2026-05-24T07:44:42Z</time>
      </trkpt>
      <trkpt lat="47.11554" lon="6.11547">
        <ele>363.8</ele>
        <time>2026-05-24T07:44:43Z</time>
      </trkpt>
      <trkpt lat="47.11557" lon="6.1155">
        <ele>363.6</ele>
        <time>2026-05-24T07:44:44Z</time>
      </trkpt>
      <trkpt lat="47.1156" lon="6.11553">
        <ele>363.4</ele>
        <time>2026-05-24T07:44:45Z</time>
      </trkpt>
      <trkpt lat="47.11564" lon="6.11555">
        <ele>363.4</ele>
        <time>2026-05-24T07:44:46Z</time>
      </trkpt>
      <trkpt lat="47.11567" lon="6.11558">
        <ele>363.4</ele>
        <time>2026-05-24T07:44:47Z</time>
      </trkpt>
      <trkpt lat="47.1157" lon="6.11561">
        <ele>363.2</ele>
        <time>2026-05-24T07:44:48Z</time>
      </trkpt>
      <trkpt lat="47.11573" lon="6.11564">
        <ele>363.4</ele>
        <time>2026-05-24T07:44:49Z</time>
      </trkpt>
      <trkpt lat="47.11578" lon="6.11566">
        <ele>363.4</ele>
        <time>2026-05-24T07:44:50Z</time>
      </trkpt>
      <trkpt lat="47.11581" lon="6.11568">
        <ele>363.4</ele>
        <time>2026-05-24T07:44:51Z</time>
      </trkpt>
      <trkpt lat="47.11586" lon="6.11573">
        <ele>363.4</ele>
        <time>2026-05-24T07:44:52Z</time>
      </trkpt>
      <trkpt lat="47.1159" lon="6.11576">
        <ele>363.2</ele>
        <time>2026-05-24T07:44:53Z</time>
      </trkpt>
      <trkpt lat="47.11596" lon="6.11578">
        <ele>363</ele>
        <time>2026-05-24T07:44:54Z</time>
      </trkpt>
      <trkpt lat="47.11601" lon="6.11579">
        <ele>363</ele>
        <time>2026-05-24T07:44:55Z</time>
      </trkpt>
      <trkpt lat="47.11606" lon="6.11582">
        <ele>363</ele>
        <time>2026-05-24T07:44:56Z</time>
      </trkpt>
      <trkpt lat="47.11609" lon="6.11584">
        <ele>363</ele>
        <time>2026-05-24T07:44:57Z</time>
      </trkpt>
      <trkpt lat="47.11612" lon="6.11586">
        <ele>362.8</ele>
        <time>2026-05-24T07:44:58Z</time>
      </trkpt>
      <trkpt lat="47.11616" lon="6.11588">
        <ele>362.6</ele>
        <time>2026-05-24T07:44:59Z</time>
      </trkpt>
      <trkpt lat="47.1162" lon="6.11591">
        <ele>362.6</ele>
        <time>2026-05-24T07:45:00Z</time>
      </trkpt>
      <trkpt lat="47.11623" lon="6.11594">
        <ele>362.8</ele>
        <time>2026-05-24T07:45:01Z</time>
      </trkpt>
      <trkpt lat="47.11627" lon="6.11597">
        <ele>362.8</ele>
        <time>2026-05-24T07:45:02Z</time>
      </trkpt>
      <trkpt lat="47.11631" lon="6.116">
        <ele>362.8</ele>
        <time>2026-05-24T07:45:03Z</time>
      </trkpt>
      <trkpt lat="47.11635" lon="6.11603">
        <ele>362.6</ele>
        <time>2026-05-24T07:45:04Z</time>
      </trkpt>
      <trkpt lat="47.1164" lon="6.11606">
        <ele>362.6</ele>
        <time>2026-05-24T07:45:05Z</time>
      </trkpt>
      <trkpt lat="47.11645" lon="6.11607">
        <ele>362.6</ele>
        <time>2026-05-24T07:45:06Z</time>
      </trkpt>
      <trkpt lat="47.11649" lon="6.11609">
        <ele>362.6</ele>
        <time>2026-05-24T07:45:07Z</time>
      </trkpt>
      <trkpt lat="47.11653" lon="6.11611">
        <ele>362.6</ele>
        <time>2026-05-24T07:45:08Z</time>
      </trkpt>
      <trkpt lat="47.11657" lon="6.11614">
        <ele>362.8</ele>
        <time>2026-05-24T07:45:09Z</time>
      </trkpt>
      <trkpt lat="47.1166" lon="6.11615">
        <ele>362.8</ele>
        <time>2026-05-24T07:45:10Z</time>
      </trkpt>
      <trkpt lat="47.11663" lon="6.11617">
        <ele>362.8</ele>
        <time>2026-05-24T07:45:11Z</time>
      </trkpt>
      <trkpt lat="47.11667" lon="6.11619">
        <ele>362.8</ele>
        <time>2026-05-24T07:45:12Z</time>
      </trkpt>
      <trkpt lat="47.11669" lon="6.11622">
        <ele>362.8</ele>
        <time>2026-05-24T07:45:13Z</time>
      </trkpt>
      <trkpt lat="47.11672" lon="6.11626">
        <ele>362.8</ele>
        <time>2026-05-24T07:45:14Z</time>
      </trkpt>
      <trkpt lat="47.11674" lon="6.11628">
        <ele>363.2</ele>
        <time>2026-05-24T07:45:15Z</time>
      </trkpt>
      <trkpt lat="47.11676" lon="6.11631">
        <ele>363.4</ele>
        <time>2026-05-24T07:45:16Z</time>
      </trkpt>
      <trkpt lat="47.11678" lon="6.11635">
        <ele>363.6</ele>
        <time>2026-05-24T07:45:17Z</time>
      </trkpt>
      <trkpt lat="47.1168" lon="6.11639">
        <ele>363.6</ele>
        <time>2026-05-24T07:45:18Z</time>
      </trkpt>
      <trkpt lat="47.11684" lon="6.11644">
        <ele>363.6</ele>
        <time>2026-05-24T07:45:19Z</time>
      </trkpt>
      <trkpt lat="47.11685" lon="6.11648">
        <ele>363.6</ele>
        <time>2026-05-24T07:45:20Z</time>
      </trkpt>
      <trkpt lat="47.11688" lon="6.11652">
        <ele>363.6</ele>
        <time>2026-05-24T07:45:21Z</time>
      </trkpt>
      <trkpt lat="47.11691" lon="6.11657">
        <ele>363.6</ele>
        <time>2026-05-24T07:45:22Z</time>
      </trkpt>
      <trkpt lat="47.11694" lon="6.11663">
        <ele>363.6</ele>
        <time>2026-05-24T07:45:23Z</time>
      </trkpt>
      <trkpt lat="47.11698" lon="6.11668">
        <ele>363.6</ele>
        <time>2026-05-24T07:45:24Z</time>
      </trkpt>
      <trkpt lat="47.11704" lon="6.11674">
        <ele>363.6</ele>
        <time>2026-05-24T07:45:25Z</time>
      </trkpt>
      <trkpt lat="47.11709" lon="6.1168">
        <ele>363.6</ele>
        <time>2026-05-24T07:45:26Z</time>
      </trkpt>
      <trkpt lat="47.11714" lon="6.11686">
        <ele>363.4</ele>
        <time>2026-05-24T07:45:27Z</time>
      </trkpt>
      <trkpt lat="47.11718" lon="6.11691">
        <ele>363.2</ele>
        <time>2026-05-24T07:45:28Z</time>
      </trkpt>
      <trkpt lat="47.11723" lon="6.11697">
        <ele>363</ele>
        <time>2026-05-24T07:45:29Z</time>
      </trkpt>
      <trkpt lat="47.11728" lon="6.11704">
        <ele>362.4</ele>
        <time>2026-05-24T07:45:30Z</time>
      </trkpt>
      <trkpt lat="47.11733" lon="6.11711">
        <ele>362</ele>
        <time>2026-05-24T07:45:31Z</time>
      </trkpt>
      <trkpt lat="47.11738" lon="6.11718">
        <ele>361.4</ele>
        <time>2026-05-24T07:45:32Z</time>
      </trkpt>
      <trkpt lat="47.11743" lon="6.11725">
        <ele>360.8</ele>
        <time>2026-05-24T07:45:33Z</time>
      </trkpt>
      <trkpt lat="47.11749" lon="6.11734">
        <ele>360.2</ele>
        <time>2026-05-24T07:45:34Z</time>
      </trkpt>
      <trkpt lat="47.11754" lon="6.11741">
        <ele>359.8</ele>
        <time>2026-05-24T07:45:35Z</time>
      </trkpt>
      <trkpt lat="47.1176" lon="6.11749">
        <ele>359.8</ele>
        <time>2026-05-24T07:45:36Z</time>
      </trkpt>
      <trkpt lat="47.11764" lon="6.11757">
        <ele>359.4</ele>
        <time>2026-05-24T07:45:37Z</time>
      </trkpt>
      <trkpt lat="47.11766" lon="6.11764">
        <ele>359.4</ele>
        <time>2026-05-24T07:45:38Z</time>
      </trkpt>
      <trkpt lat="47.11769" lon="6.11771">
        <ele>359.2</ele>
        <time>2026-05-24T07:45:39Z</time>
      </trkpt>
      <trkpt lat="47.11771" lon="6.11776">
        <ele>359</ele>
        <time>2026-05-24T07:45:40Z</time>
      </trkpt>
      <trkpt lat="47.11773" lon="6.1178">
        <ele>359</ele>
        <time>2026-05-24T07:45:41Z</time>
      </trkpt>
      <trkpt lat="47.11776" lon="6.11783">
        <ele>359.2</ele>
        <time>2026-05-24T07:45:42Z</time>
      </trkpt>
      <trkpt lat="47.11779" lon="6.11785">
        <ele>359</ele>
        <time>2026-05-24T07:45:43Z</time>
      </trkpt>
      <trkpt lat="47.11781" lon="6.11787">
        <ele>359.2</ele>
        <time>2026-05-24T07:45:44Z</time>
      </trkpt>
      <trkpt lat="47.11784" lon="6.11788">
        <ele>359</ele>
        <time>2026-05-24T07:45:45Z</time>
      </trkpt>
      <trkpt lat="47.11786" lon="6.11789">
        <ele>359</ele>
        <time>2026-05-24T07:45:46Z</time>
      </trkpt>
      <trkpt lat="47.11789" lon="6.1179">
        <ele>359</ele>
        <time>2026-05-24T07:45:47Z</time>
      </trkpt>
      <trkpt lat="47.11791" lon="6.11791">
        <ele>359.2</ele>
        <time>2026-05-24T07:45:48Z</time>
      </trkpt>
      <trkpt lat="47.11793" lon="6.11792">
        <ele>359</ele>
        <time>2026-05-24T07:45:49Z</time>
      </trkpt>
      <trkpt lat="47.11796" lon="6.11794">
        <ele>359</ele>
        <time>2026-05-24T07:45:50Z</time>
      </trkpt>
      <trkpt lat="47.118" lon="6.11796">
        <ele>359.2</ele>
        <time>2026-05-24T07:45:51Z</time>
      </trkpt>
      <trkpt lat="47.11803" lon="6.11798">
        <ele>359</ele>
        <time>2026-05-24T07:45:52Z</time>
      </trkpt>
      <trkpt lat="47.11806" lon="6.11799">
        <ele>359.2</ele>
        <time>2026-05-24T07:45:53Z</time>
      </trkpt>
      <trkpt lat="47.1181" lon="6.11801">
        <ele>359.2</ele>
        <time>2026-05-24T07:45:54Z</time>
      </trkpt>
      <trkpt lat="47.11813" lon="6.11803">
        <ele>359.2</ele>
        <time>2026-05-24T07:45:55Z</time>
      </trkpt>
      <trkpt lat="47.11816" lon="6.11804">
        <ele>359.2</ele>
        <time>2026-05-24T07:45:56Z</time>
      </trkpt>
      <trkpt lat="47.11819" lon="6.11806">
        <ele>359.2</ele>
        <time>2026-05-24T07:45:57Z</time>
      </trkpt>
      <trkpt lat="47.11822" lon="6.11807">
        <ele>359.2</ele>
        <time>2026-05-24T07:45:58Z</time>
      </trkpt>
      <trkpt lat="47.11824" lon="6.11808">
        <ele>359.4</ele>
        <time>2026-05-24T07:45:59Z</time>
      </trkpt>
      <trkpt lat="47.11827" lon="6.1181">
        <ele>359.4</ele>
        <time>2026-05-24T07:46:00Z</time>
      </trkpt>
      <trkpt lat="47.1183" lon="6.11811">
        <ele>359.6</ele>
        <time>2026-05-24T07:46:01Z</time>
      </trkpt>
      <trkpt lat="47.11833" lon="6.11812">
        <ele>359.6</ele>
        <time>2026-05-24T07:46:02Z</time>
      </trkpt>
      <trkpt lat="47.11835" lon="6.11813">
        <ele>359.8</ele>
        <time>2026-05-24T07:46:03Z</time>
      </trkpt>
      <trkpt lat="47.11838" lon="6.11814">
        <ele>360</ele>
        <time>2026-05-24T07:46:04Z</time>
      </trkpt>
      <trkpt lat="47.11841" lon="6.11815">
        <ele>360</ele>
        <time>2026-05-24T07:46:05Z</time>
      </trkpt>
      <trkpt lat="47.11844" lon="6.11817">
        <ele>360.2</ele>
        <time>2026-05-24T07:46:06Z</time>
      </trkpt>
      <trkpt lat="47.11847" lon="6.11818">
        <ele>360.2</ele>
        <time>2026-05-24T07:46:07Z</time>
      </trkpt>
      <trkpt lat="47.1185" lon="6.11819">
        <ele>360.4</ele>
        <time>2026-05-24T07:46:08Z</time>
      </trkpt>
      <trkpt lat="47.11854" lon="6.11821">
        <ele>360.4</ele>
        <time>2026-05-24T07:46:09Z</time>
      </trkpt>
      <trkpt lat="47.11857" lon="6.11823">
        <ele>360.2</ele>
        <time>2026-05-24T07:46:10Z</time>
      </trkpt>
      <trkpt lat="47.1186" lon="6.11825">
        <ele>360.4</ele>
        <time>2026-05-24T07:46:11Z</time>
      </trkpt>
      <trkpt lat="47.11864" lon="6.11826">
        <ele>360.6</ele>
        <time>2026-05-24T07:46:12Z</time>
      </trkpt>
      <trkpt lat="47.11868" lon="6.11828">
        <ele>360.6</ele>
        <time>2026-05-24T07:46:13Z</time>
      </trkpt>
      <trkpt lat="47.11871" lon="6.11829">
        <ele>360.8</ele>
        <time>2026-05-24T07:46:14Z</time>
      </trkpt>
      <trkpt lat="47.11874" lon="6.1183">
        <ele>360.8</ele>
        <time>2026-05-24T07:46:15Z</time>
      </trkpt>
      <trkpt lat="47.11877" lon="6.11832">
        <ele>360.8</ele>
        <time>2026-05-24T07:46:16Z</time>
      </trkpt>
      <trkpt lat="47.11881" lon="6.11834">
        <ele>361</ele>
        <time>2026-05-24T07:46:17Z</time>
      </trkpt>
      <trkpt lat="47.11884" lon="6.11835">
        <ele>361</ele>
        <time>2026-05-24T07:46:18Z</time>
      </trkpt>
      <trkpt lat="47.11887" lon="6.11836">
        <ele>361</ele>
        <time>2026-05-24T07:46:19Z</time>
      </trkpt>
      <trkpt lat="47.11891" lon="6.11837">
        <ele>361</ele>
        <time>2026-05-24T07:46:20Z</time>
      </trkpt>
      <trkpt lat="47.11894" lon="6.11839">
        <ele>361.2</ele>
        <time>2026-05-24T07:46:21Z</time>
      </trkpt>
      <trkpt lat="47.11898" lon="6.1184">
        <ele>361.4</ele>
        <time>2026-05-24T07:46:22Z</time>
      </trkpt>
      <trkpt lat="47.119" lon="6.11842">
        <ele>361.4</ele>
        <time>2026-05-24T07:46:23Z</time>
      </trkpt>
      <trkpt lat="47.11903" lon="6.11843">
        <ele>361.6</ele>
        <time>2026-05-24T07:46:24Z</time>
      </trkpt>
      <trkpt lat="47.11906" lon="6.11845">
        <ele>361.6</ele>
        <time>2026-05-24T07:46:25Z</time>
      </trkpt>
      <trkpt lat="47.11909" lon="6.11846">
        <ele>361.8</ele>
        <time>2026-05-24T07:46:26Z</time>
      </trkpt>
      <trkpt lat="47.11912" lon="6.11848">
        <ele>362</ele>
        <time>2026-05-24T07:46:27Z</time>
      </trkpt>
      <trkpt lat="47.11915" lon="6.1185">
        <ele>362</ele>
        <time>2026-05-24T07:46:28Z</time>
      </trkpt>
      <trkpt lat="47.11917" lon="6.11851">
        <ele>362.2</ele>
        <time>2026-05-24T07:46:29Z</time>
      </trkpt>
      <trkpt lat="47.11918" lon="6.11854">
        <ele>362.2</ele>
        <time>2026-05-24T07:46:30Z</time>
      </trkpt>
      <trkpt lat="47.1192" lon="6.11856">
        <ele>362.4</ele>
        <time>2026-05-24T07:46:31Z</time>
      </trkpt>
      <trkpt lat="47.11921" lon="6.11859">
        <ele>362.4</ele>
        <time>2026-05-24T07:46:32Z</time>
      </trkpt>
      <trkpt lat="47.11923" lon="6.11862">
        <ele>362.4</ele>
        <time>2026-05-24T07:46:33Z</time>
      </trkpt>
      <trkpt lat="47.11925" lon="6.11865">
        <ele>362.6</ele>
        <time>2026-05-24T07:46:34Z</time>
      </trkpt>
      <trkpt lat="47.11928" lon="6.11868">
        <ele>362.6</ele>
        <time>2026-05-24T07:46:35Z</time>
      </trkpt>
      <trkpt lat="47.11931" lon="6.11871">
        <ele>362.6</ele>
        <time>2026-05-24T07:46:36Z</time>
      </trkpt>
      <trkpt lat="47.11934" lon="6.11873">
        <ele>362.8</ele>
        <time>2026-05-24T07:46:37Z</time>
      </trkpt>
      <trkpt lat="47.11937" lon="6.11875">
        <ele>362.8</ele>
        <time>2026-05-24T07:46:38Z</time>
      </trkpt>
      <trkpt lat="47.1194" lon="6.11878">
        <ele>362.8</ele>
        <time>2026-05-24T07:46:39Z</time>
      </trkpt>
      <trkpt lat="47.11943" lon="6.11881">
        <ele>363</ele>
        <time>2026-05-24T07:46:40Z</time>
      </trkpt>
      <trkpt lat="47.11946" lon="6.11884">
        <ele>363</ele>
        <time>2026-05-24T07:46:41Z</time>
      </trkpt>
      <trkpt lat="47.11949" lon="6.11886">
        <ele>363.2</ele>
        <time>2026-05-24T07:46:42Z</time>
      </trkpt>
      <trkpt lat="47.11952" lon="6.11889">
        <ele>363.2</ele>
        <time>2026-05-24T07:46:43Z</time>
      </trkpt>
      <trkpt lat="47.11954" lon="6.11892">
        <ele>363.4</ele>
        <time>2026-05-24T07:46:44Z</time>
      </trkpt>
      <trkpt lat="47.11957" lon="6.11894">
        <ele>363.4</ele>
        <time>2026-05-24T07:46:45Z</time>
      </trkpt>
      <trkpt lat="47.1196" lon="6.11897">
        <ele>363.4</ele>
        <time>2026-05-24T07:46:46Z</time>
      </trkpt>
      <trkpt lat="47.11963" lon="6.11902">
        <ele>363.4</ele>
        <time>2026-05-24T07:46:47Z</time>
      </trkpt>
      <trkpt lat="47.11966" lon="6.11906">
        <ele>363.6</ele>
        <time>2026-05-24T07:46:48Z</time>
      </trkpt>
      <trkpt lat="47.1197" lon="6.1191">
        <ele>363.6</ele>
        <time>2026-05-24T07:46:49Z</time>
      </trkpt>
      <trkpt lat="47.11973" lon="6.11914">
        <ele>363.6</ele>
        <time>2026-05-24T07:46:50Z</time>
      </trkpt>
      <trkpt lat="47.11976" lon="6.11917">
        <ele>363.6</ele>
        <time>2026-05-24T07:46:51Z</time>
      </trkpt>
      <trkpt lat="47.11978" lon="6.11921">
        <ele>363.8</ele>
        <time>2026-05-24T07:46:52Z</time>
      </trkpt>
      <trkpt lat="47.1198" lon="6.11924">
        <ele>363.6</ele>
        <time>2026-05-24T07:46:53Z</time>
      </trkpt>
      <trkpt lat="47.11983" lon="6.11927">
        <ele>363.8</ele>
        <time>2026-05-24T07:46:54Z</time>
      </trkpt>
      <trkpt lat="47.11985" lon="6.1193">
        <ele>363.8</ele>
        <time>2026-05-24T07:46:55Z</time>
      </trkpt>
      <trkpt lat="47.11987" lon="6.11933">
        <ele>363.8</ele>
        <time>2026-05-24T07:46:56Z</time>
      </trkpt>
      <trkpt lat="47.1199" lon="6.11936">
        <ele>363.8</ele>
        <time>2026-05-24T07:46:57Z</time>
      </trkpt>
      <trkpt lat="47.11993" lon="6.1194">
        <ele>363.8</ele>
        <time>2026-05-24T07:46:58Z</time>
      </trkpt>
      <trkpt lat="47.11995" lon="6.11945">
        <ele>364</ele>
        <time>2026-05-24T07:46:59Z</time>
      </trkpt>
      <trkpt lat="47.11998" lon="6.11948">
        <ele>364.2</ele>
        <time>2026-05-24T07:47:00Z</time>
      </trkpt>
      <trkpt lat="47.12001" lon="6.11952">
        <ele>364.2</ele>
        <time>2026-05-24T07:47:01Z</time>
      </trkpt>
      <trkpt lat="47.12003" lon="6.11956">
        <ele>364.4</ele>
        <time>2026-05-24T07:47:02Z</time>
      </trkpt>
      <trkpt lat="47.12004" lon="6.1196">
        <ele>364.4</ele>
        <time>2026-05-24T07:47:03Z</time>
      </trkpt>
      <trkpt lat="47.12007" lon="6.11964">
        <ele>364.6</ele>
        <time>2026-05-24T07:47:04Z</time>
      </trkpt>
      <trkpt lat="47.1201" lon="6.11968">
        <ele>364.6</ele>
        <time>2026-05-24T07:47:05Z</time>
      </trkpt>
      <trkpt lat="47.12012" lon="6.11972">
        <ele>364.8</ele>
        <time>2026-05-24T07:47:06Z</time>
      </trkpt>
      <trkpt lat="47.12015" lon="6.11976">
        <ele>364.8</ele>
        <time>2026-05-24T07:47:07Z</time>
      </trkpt>
      <trkpt lat="47.12018" lon="6.1198">
        <ele>365</ele>
        <time>2026-05-24T07:47:08Z</time>
      </trkpt>
      <trkpt lat="47.12021" lon="6.11984">
        <ele>365.2</ele>
        <time>2026-05-24T07:47:09Z</time>
      </trkpt>
      <trkpt lat="47.12023" lon="6.11987">
        <ele>365.2</ele>
        <time>2026-05-24T07:47:10Z</time>
      </trkpt>
      <trkpt lat="47.12025" lon="6.1199">
        <ele>365.4</ele>
        <time>2026-05-24T07:47:11Z</time>
      </trkpt>
      <trkpt lat="47.12028" lon="6.11993">
        <ele>365.6</ele>
        <time>2026-05-24T07:47:12Z</time>
      </trkpt>
      <trkpt lat="47.1203" lon="6.11996">
        <ele>365.8</ele>
        <time>2026-05-24T07:47:13Z</time>
      </trkpt>
      <trkpt lat="47.12033" lon="6.11999">
        <ele>366</ele>
        <time>2026-05-24T07:47:14Z</time>
      </trkpt>
      <trkpt lat="47.12036" lon="6.12002">
        <ele>366.2</ele>
        <time>2026-05-24T07:47:15Z</time>
      </trkpt>
      <trkpt lat="47.12039" lon="6.12005">
        <ele>366.4</ele>
        <time>2026-05-24T07:47:16Z</time>
      </trkpt>
      <trkpt lat="47.12043" lon="6.12007">
        <ele>366.4</ele>
        <time>2026-05-24T07:47:17Z</time>
      </trkpt>
      <trkpt lat="47.12045" lon="6.1201">
        <ele>366.6</ele>
        <time>2026-05-24T07:47:18Z</time>
      </trkpt>
      <trkpt lat="47.12048" lon="6.12013">
        <ele>366.8</ele>
        <time>2026-05-24T07:47:19Z</time>
      </trkpt>
      <trkpt lat="47.12051" lon="6.12016">
        <ele>366.8</ele>
        <time>2026-05-24T07:47:20Z</time>
      </trkpt>
      <trkpt lat="47.12054" lon="6.12019">
        <ele>366.8</ele>
        <time>2026-05-24T07:47:21Z</time>
      </trkpt>
      <trkpt lat="47.12057" lon="6.12022">
        <ele>367.2</ele>
        <time>2026-05-24T07:47:22Z</time>
      </trkpt>
      <trkpt lat="47.1206" lon="6.12025">
        <ele>367</ele>
        <time>2026-05-24T07:47:23Z</time>
      </trkpt>
      <trkpt lat="47.12063" lon="6.12028">
        <ele>367.2</ele>
        <time>2026-05-24T07:47:24Z</time>
      </trkpt>
      <trkpt lat="47.12067" lon="6.1203">
        <ele>367.2</ele>
        <time>2026-05-24T07:47:25Z</time>
      </trkpt>
      <trkpt lat="47.1207" lon="6.12033">
        <ele>367.2</ele>
        <time>2026-05-24T07:47:26Z</time>
      </trkpt>
      <trkpt lat="47.12073" lon="6.12036">
        <ele>367.4</ele>
        <time>2026-05-24T07:47:27Z</time>
      </trkpt>
      <trkpt lat="47.12077" lon="6.12038">
        <ele>367.4</ele>
        <time>2026-05-24T07:47:28Z</time>
      </trkpt>
      <trkpt lat="47.1208" lon="6.1204">
        <ele>367.4</ele>
        <time>2026-05-24T07:47:29Z</time>
      </trkpt>
      <trkpt lat="47.12082" lon="6.12042">
        <ele>367.6</ele>
        <time>2026-05-24T07:47:30Z</time>
      </trkpt>
      <trkpt lat="47.12085" lon="6.12044">
        <ele>367.8</ele>
        <time>2026-05-24T07:47:31Z</time>
      </trkpt>
      <trkpt lat="47.12088" lon="6.12045">
        <ele>367.8</ele>
        <time>2026-05-24T07:47:32Z</time>
      </trkpt>
      <trkpt lat="47.12091" lon="6.12046">
        <ele>368</ele>
        <time>2026-05-24T07:47:33Z</time>
      </trkpt>
      <trkpt lat="47.12094" lon="6.12048">
        <ele>368</ele>
        <time>2026-05-24T07:47:34Z</time>
      </trkpt>
      <trkpt lat="47.12097" lon="6.1205">
        <ele>368</ele>
        <time>2026-05-24T07:47:35Z</time>
      </trkpt>
      <trkpt lat="47.12101" lon="6.12053">
        <ele>368.2</ele>
        <time>2026-05-24T07:47:36Z</time>
      </trkpt>
      <trkpt lat="47.12105" lon="6.12057">
        <ele>368.2</ele>
        <time>2026-05-24T07:47:37Z</time>
      </trkpt>
      <trkpt lat="47.12108" lon="6.12059">
        <ele>368.2</ele>
        <time>2026-05-24T07:47:38Z</time>
      </trkpt>
      <trkpt lat="47.12111" lon="6.12062">
        <ele>368.4</ele>
        <time>2026-05-24T07:47:39Z</time>
      </trkpt>
      <trkpt lat="47.12114" lon="6.12064">
        <ele>368.6</ele>
        <time>2026-05-24T07:47:40Z</time>
      </trkpt>
      <trkpt lat="47.12118" lon="6.12065">
        <ele>368.8</ele>
        <time>2026-05-24T07:47:41Z</time>
      </trkpt>
      <trkpt lat="47.12121" lon="6.12067">
        <ele>368.8</ele>
        <time>2026-05-24T07:47:42Z</time>
      </trkpt>
      <trkpt lat="47.12124" lon="6.12069">
        <ele>369</ele>
        <time>2026-05-24T07:47:43Z</time>
      </trkpt>
      <trkpt lat="47.12128" lon="6.12071">
        <ele>369.2</ele>
        <time>2026-05-24T07:47:44Z</time>
      </trkpt>
      <trkpt lat="47.12132" lon="6.12075">
        <ele>369.2</ele>
        <time>2026-05-24T07:47:45Z</time>
      </trkpt>
      <trkpt lat="47.12135" lon="6.12077">
        <ele>369.4</ele>
        <time>2026-05-24T07:47:46Z</time>
      </trkpt>
      <trkpt lat="47.12139" lon="6.1208">
        <ele>369.4</ele>
        <time>2026-05-24T07:47:47Z</time>
      </trkpt>
      <trkpt lat="47.12142" lon="6.12082">
        <ele>369.4</ele>
        <time>2026-05-24T07:47:48Z</time>
      </trkpt>
      <trkpt lat="47.12146" lon="6.12084">
        <ele>369.6</ele>
        <time>2026-05-24T07:47:49Z</time>
      </trkpt>
      <trkpt lat="47.1215" lon="6.12085">
        <ele>369.8</ele>
        <time>2026-05-24T07:47:50Z</time>
      </trkpt>
      <trkpt lat="47.12154" lon="6.12087">
        <ele>369.8</ele>
        <time>2026-05-24T07:47:51Z</time>
      </trkpt>
      <trkpt lat="47.12158" lon="6.12089">
        <ele>369.8</ele>
        <time>2026-05-24T07:47:52Z</time>
      </trkpt>
      <trkpt lat="47.12161" lon="6.12091">
        <ele>369.8</ele>
        <time>2026-05-24T07:47:53Z</time>
      </trkpt>
      <trkpt lat="47.12166" lon="6.12093">
        <ele>369.8</ele>
        <time>2026-05-24T07:47:54Z</time>
      </trkpt>
      <trkpt lat="47.12169" lon="6.12095">
        <ele>370</ele>
        <time>2026-05-24T07:47:55Z</time>
      </trkpt>
      <trkpt lat="47.12173" lon="6.12098">
        <ele>370</ele>
        <time>2026-05-24T07:47:56Z</time>
      </trkpt>
      <trkpt lat="47.12177" lon="6.12101">
        <ele>370.2</ele>
        <time>2026-05-24T07:47:57Z</time>
      </trkpt>
      <trkpt lat="47.1218" lon="6.12103">
        <ele>370.4</ele>
        <time>2026-05-24T07:47:58Z</time>
      </trkpt>
      <trkpt lat="47.12185" lon="6.12105">
        <ele>370.4</ele>
        <time>2026-05-24T07:47:59Z</time>
      </trkpt>
      <trkpt lat="47.12188" lon="6.12107">
        <ele>370.6</ele>
        <time>2026-05-24T07:48:00Z</time>
      </trkpt>
      <trkpt lat="47.12192" lon="6.12108">
        <ele>370.6</ele>
        <time>2026-05-24T07:48:01Z</time>
      </trkpt>
      <trkpt lat="47.12196" lon="6.1211">
        <ele>370.6</ele>
        <time>2026-05-24T07:48:02Z</time>
      </trkpt>
      <trkpt lat="47.122" lon="6.12111">
        <ele>370.6</ele>
        <time>2026-05-24T07:48:03Z</time>
      </trkpt>
      <trkpt lat="47.12204" lon="6.12113">
        <ele>370.8</ele>
        <time>2026-05-24T07:48:04Z</time>
      </trkpt>
      <trkpt lat="47.12208" lon="6.12115">
        <ele>371</ele>
        <time>2026-05-24T07:48:05Z</time>
      </trkpt>
      <trkpt lat="47.12212" lon="6.12117">
        <ele>371</ele>
        <time>2026-05-24T07:48:06Z</time>
      </trkpt>
      <trkpt lat="47.12216" lon="6.12118">
        <ele>371.2</ele>
        <time>2026-05-24T07:48:07Z</time>
      </trkpt>
      <trkpt lat="47.1222" lon="6.1212">
        <ele>371.4</ele>
        <time>2026-05-24T07:48:08Z</time>
      </trkpt>
      <trkpt lat="47.12224" lon="6.12121">
        <ele>371.4</ele>
        <time>2026-05-24T07:48:09Z</time>
      </trkpt>
      <trkpt lat="47.12228" lon="6.12122">
        <ele>371.4</ele>
        <time>2026-05-24T07:48:10Z</time>
      </trkpt>
      <trkpt lat="47.12232" lon="6.12124">
        <ele>371.6</ele>
        <time>2026-05-24T07:48:11Z</time>
      </trkpt>
      <trkpt lat="47.12236" lon="6.12125">
        <ele>371.8</ele>
        <time>2026-05-24T07:48:12Z</time>
      </trkpt>
      <trkpt lat="47.1224" lon="6.12126">
        <ele>371.8</ele>
        <time>2026-05-24T07:48:13Z</time>
      </trkpt>
      <trkpt lat="47.12243" lon="6.12127">
        <ele>371.8</ele>
        <time>2026-05-24T07:48:14Z</time>
      </trkpt>
      <trkpt lat="47.12247" lon="6.12128">
        <ele>372</ele>
        <time>2026-05-24T07:48:15Z</time>
      </trkpt>
      <trkpt lat="47.1225" lon="6.12129">
        <ele>372.2</ele>
        <time>2026-05-24T07:48:16Z</time>
      </trkpt>
      <trkpt lat="47.12253" lon="6.1213">
        <ele>372.2</ele>
        <time>2026-05-24T07:48:17Z</time>
      </trkpt>
      <trkpt lat="47.12256" lon="6.1213">
        <ele>372.4</ele>
        <time>2026-05-24T07:48:18Z</time>
      </trkpt>
      <trkpt lat="47.12259" lon="6.1213">
        <ele>372.6</ele>
        <time>2026-05-24T07:48:19Z</time>
      </trkpt>
      <trkpt lat="47.12262" lon="6.12131">
        <ele>372.6</ele>
        <time>2026-05-24T07:48:20Z</time>
      </trkpt>
      <trkpt lat="47.12266" lon="6.12132">
        <ele>372.8</ele>
        <time>2026-05-24T07:48:21Z</time>
      </trkpt>
      <trkpt lat="47.12269" lon="6.12132">
        <ele>373</ele>
        <time>2026-05-24T07:48:22Z</time>
      </trkpt>
      <trkpt lat="47.12273" lon="6.12133">
        <ele>373</ele>
        <time>2026-05-24T07:48:23Z</time>
      </trkpt>
      <trkpt lat="47.12276" lon="6.12135">
        <ele>373</ele>
        <time>2026-05-24T07:48:24Z</time>
      </trkpt>
      <trkpt lat="47.1228" lon="6.12136">
        <ele>373.4</ele>
        <time>2026-05-24T07:48:25Z</time>
      </trkpt>
      <trkpt lat="47.12285" lon="6.12138">
        <ele>373.4</ele>
        <time>2026-05-24T07:48:26Z</time>
      </trkpt>
      <trkpt lat="47.12289" lon="6.1214">
        <ele>373.4</ele>
        <time>2026-05-24T07:48:27Z</time>
      </trkpt>
      <trkpt lat="47.12293" lon="6.12141">
        <ele>373.8</ele>
        <time>2026-05-24T07:48:28Z</time>
      </trkpt>
      <trkpt lat="47.12297" lon="6.12143">
        <ele>373.8</ele>
        <time>2026-05-24T07:48:29Z</time>
      </trkpt>
      <trkpt lat="47.123" lon="6.12144">
        <ele>373.8</ele>
        <time>2026-05-24T07:48:30Z</time>
      </trkpt>
      <trkpt lat="47.12304" lon="6.12145">
        <ele>373.8</ele>
        <time>2026-05-24T07:48:31Z</time>
      </trkpt>
      <trkpt lat="47.12308" lon="6.12146">
        <ele>373.8</ele>
        <time>2026-05-24T07:48:32Z</time>
      </trkpt>
      <trkpt lat="47.12312" lon="6.12147">
        <ele>374</ele>
        <time>2026-05-24T07:48:33Z</time>
      </trkpt>
      <trkpt lat="47.12316" lon="6.12149">
        <ele>374</ele>
        <time>2026-05-24T07:48:34Z</time>
      </trkpt>
      <trkpt lat="47.1232" lon="6.1215">
        <ele>374.4</ele>
        <time>2026-05-24T07:48:35Z</time>
      </trkpt>
      <trkpt lat="47.12324" lon="6.12151">
        <ele>374.4</ele>
        <time>2026-05-24T07:48:36Z</time>
      </trkpt>
      <trkpt lat="47.12328" lon="6.12153">
        <ele>374.6</ele>
        <time>2026-05-24T07:48:37Z</time>
      </trkpt>
      <trkpt lat="47.12332" lon="6.12154">
        <ele>374.8</ele>
        <time>2026-05-24T07:48:38Z</time>
      </trkpt>
      <trkpt lat="47.12335" lon="6.12156">
        <ele>375</ele>
        <time>2026-05-24T07:48:39Z</time>
      </trkpt>
      <trkpt lat="47.1234" lon="6.12159">
        <ele>374.8</ele>
        <time>2026-05-24T07:48:40Z</time>
      </trkpt>
      <trkpt lat="47.12344" lon="6.12161">
        <ele>374.8</ele>
        <time>2026-05-24T07:48:41Z</time>
      </trkpt>
      <trkpt lat="47.12349" lon="6.12164">
        <ele>375.2</ele>
        <time>2026-05-24T07:48:42Z</time>
      </trkpt>
      <trkpt lat="47.12353" lon="6.12166">
        <ele>375.2</ele>
        <time>2026-05-24T07:48:43Z</time>
      </trkpt>
      <trkpt lat="47.12356" lon="6.12168">
        <ele>375.2</ele>
        <time>2026-05-24T07:48:44Z</time>
      </trkpt>
      <trkpt lat="47.1236" lon="6.1217">
        <ele>375.4</ele>
        <time>2026-05-24T07:48:45Z</time>
      </trkpt>
      <trkpt lat="47.12363" lon="6.12171">
        <ele>375.6</ele>
        <time>2026-05-24T07:48:46Z</time>
      </trkpt>
      <trkpt lat="47.12366" lon="6.12172">
        <ele>375.6</ele>
        <time>2026-05-24T07:48:47Z</time>
      </trkpt>
      <trkpt lat="47.1237" lon="6.12174">
        <ele>375.6</ele>
        <time>2026-05-24T07:48:48Z</time>
      </trkpt>
      <trkpt lat="47.12373" lon="6.12177">
        <ele>375.8</ele>
        <time>2026-05-24T07:48:49Z</time>
      </trkpt>
      <trkpt lat="47.12377" lon="6.12179">
        <ele>376</ele>
        <time>2026-05-24T07:48:50Z</time>
      </trkpt>
      <trkpt lat="47.12381" lon="6.12182">
        <ele>376</ele>
        <time>2026-05-24T07:48:51Z</time>
      </trkpt>
      <trkpt lat="47.12385" lon="6.12184">
        <ele>376.2</ele>
        <time>2026-05-24T07:48:52Z</time>
      </trkpt>
      <trkpt lat="47.12389" lon="6.12187">
        <ele>376.2</ele>
        <time>2026-05-24T07:48:53Z</time>
      </trkpt>
      <trkpt lat="47.12392" lon="6.1219">
        <ele>376.4</ele>
        <time>2026-05-24T07:48:54Z</time>
      </trkpt>
      <trkpt lat="47.12395" lon="6.12192">
        <ele>376.4</ele>
        <time>2026-05-24T07:48:55Z</time>
      </trkpt>
      <trkpt lat="47.12399" lon="6.12195">
        <ele>376.4</ele>
        <time>2026-05-24T07:48:56Z</time>
      </trkpt>
      <trkpt lat="47.12402" lon="6.12198">
        <ele>376.6</ele>
        <time>2026-05-24T07:48:57Z</time>
      </trkpt>
      <trkpt lat="47.12406" lon="6.12201">
        <ele>376.8</ele>
        <time>2026-05-24T07:48:58Z</time>
      </trkpt>
      <trkpt lat="47.1241" lon="6.12205">
        <ele>376.8</ele>
        <time>2026-05-24T07:48:59Z</time>
      </trkpt>
      <trkpt lat="47.12413" lon="6.12207">
        <ele>377</ele>
        <time>2026-05-24T07:49:00Z</time>
      </trkpt>
      <trkpt lat="47.12416" lon="6.1221">
        <ele>377.2</ele>
        <time>2026-05-24T07:49:01Z</time>
      </trkpt>
      <trkpt lat="47.12419" lon="6.12213">
        <ele>377.4</ele>
        <time>2026-05-24T07:49:02Z</time>
      </trkpt>
      <trkpt lat="47.12423" lon="6.12216">
        <ele>377.6</ele>
        <time>2026-05-24T07:49:03Z</time>
      </trkpt>
      <trkpt lat="47.12426" lon="6.1222">
        <ele>377.6</ele>
        <time>2026-05-24T07:49:04Z</time>
      </trkpt>
      <trkpt lat="47.1243" lon="6.12223">
        <ele>377.6</ele>
        <time>2026-05-24T07:49:05Z</time>
      </trkpt>
      <trkpt lat="47.12434" lon="6.12227">
        <ele>377.6</ele>
        <time>2026-05-24T07:49:06Z</time>
      </trkpt>
      <trkpt lat="47.12438" lon="6.1223">
        <ele>377.8</ele>
        <time>2026-05-24T07:49:07Z</time>
      </trkpt>
      <trkpt lat="47.12441" lon="6.12234">
        <ele>377.8</ele>
        <time>2026-05-24T07:49:08Z</time>
      </trkpt>
      <trkpt lat="47.12444" lon="6.12238">
        <ele>378</ele>
        <time>2026-05-24T07:49:09Z</time>
      </trkpt>
      <trkpt lat="47.12447" lon="6.12241">
        <ele>378.2</ele>
        <time>2026-05-24T07:49:10Z</time>
      </trkpt>
      <trkpt lat="47.12451" lon="6.12244">
        <ele>378.4</ele>
        <time>2026-05-24T07:49:11Z</time>
      </trkpt>
      <trkpt lat="47.12454" lon="6.12248">
        <ele>378.6</ele>
        <time>2026-05-24T07:49:12Z</time>
      </trkpt>
      <trkpt lat="47.12458" lon="6.12251">
        <ele>378.6</ele>
        <time>2026-05-24T07:49:13Z</time>
      </trkpt>
      <trkpt lat="47.12461" lon="6.12255">
        <ele>378.8</ele>
        <time>2026-05-24T07:49:14Z</time>
      </trkpt>
      <trkpt lat="47.12464" lon="6.12258">
        <ele>378.8</ele>
        <time>2026-05-24T07:49:15Z</time>
      </trkpt>
      <trkpt lat="47.12468" lon="6.12261">
        <ele>379</ele>
        <time>2026-05-24T07:49:16Z</time>
      </trkpt>
      <trkpt lat="47.12471" lon="6.12263">
        <ele>379</ele>
        <time>2026-05-24T07:49:17Z</time>
      </trkpt>
      <trkpt lat="47.12475" lon="6.12266">
        <ele>379</ele>
        <time>2026-05-24T07:49:18Z</time>
      </trkpt>
      <trkpt lat="47.12479" lon="6.12269">
        <ele>379</ele>
        <time>2026-05-24T07:49:19Z</time>
      </trkpt>
      <trkpt lat="47.12482" lon="6.12272">
        <ele>379.2</ele>
        <time>2026-05-24T07:49:20Z</time>
      </trkpt>
      <trkpt lat="47.12486" lon="6.12275">
        <ele>379.4</ele>
        <time>2026-05-24T07:49:21Z</time>
      </trkpt>
      <trkpt lat="47.1249" lon="6.12278">
        <ele>379.6</ele>
        <time>2026-05-24T07:49:22Z</time>
      </trkpt>
      <trkpt lat="47.12494" lon="6.12281">
        <ele>379.6</ele>
        <time>2026-05-24T07:49:23Z</time>
      </trkpt>
      <trkpt lat="47.12497" lon="6.12284">
        <ele>379.6</ele>
        <time>2026-05-24T07:49:24Z</time>
      </trkpt>
      <trkpt lat="47.125" lon="6.12287">
        <ele>379.8</ele>
        <time>2026-05-24T07:49:25Z</time>
      </trkpt>
      <trkpt lat="47.12504" lon="6.12291">
        <ele>380</ele>
        <time>2026-05-24T07:49:26Z</time>
      </trkpt>
      <trkpt lat="47.12507" lon="6.12293">
        <ele>380</ele>
        <time>2026-05-24T07:49:27Z</time>
      </trkpt>
      <trkpt lat="47.12511" lon="6.12296">
        <ele>380.2</ele>
        <time>2026-05-24T07:49:28Z</time>
      </trkpt>
      <trkpt lat="47.12515" lon="6.12299">
        <ele>380.4</ele>
        <time>2026-05-24T07:49:29Z</time>
      </trkpt>
      <trkpt lat="47.12519" lon="6.12301">
        <ele>380.4</ele>
        <time>2026-05-24T07:49:30Z</time>
      </trkpt>
      <trkpt lat="47.12523" lon="6.12304">
        <ele>380.6</ele>
        <time>2026-05-24T07:49:31Z</time>
      </trkpt>
      <trkpt lat="47.12526" lon="6.12306">
        <ele>380.6</ele>
        <time>2026-05-24T07:49:32Z</time>
      </trkpt>
      <trkpt lat="47.1253" lon="6.12307">
        <ele>380.8</ele>
        <time>2026-05-24T07:49:33Z</time>
      </trkpt>
      <trkpt lat="47.12533" lon="6.12309">
        <ele>381</ele>
        <time>2026-05-24T07:49:34Z</time>
      </trkpt>
      <trkpt lat="47.12536" lon="6.12311">
        <ele>381</ele>
        <time>2026-05-24T07:49:35Z</time>
      </trkpt>
      <trkpt lat="47.1254" lon="6.12313">
        <ele>381.2</ele>
        <time>2026-05-24T07:49:36Z</time>
      </trkpt>
      <trkpt lat="47.12543" lon="6.12315">
        <ele>381.2</ele>
        <time>2026-05-24T07:49:37Z</time>
      </trkpt>
      <trkpt lat="47.12546" lon="6.12317">
        <ele>381.2</ele>
        <time>2026-05-24T07:49:38Z</time>
      </trkpt>
      <trkpt lat="47.12549" lon="6.12319">
        <ele>381.4</ele>
        <time>2026-05-24T07:49:39Z</time>
      </trkpt>
      <trkpt lat="47.12552" lon="6.1232">
        <ele>381.4</ele>
        <time>2026-05-24T07:49:40Z</time>
      </trkpt>
      <trkpt lat="47.12556" lon="6.12322">
        <ele>381.6</ele>
        <time>2026-05-24T07:49:41Z</time>
      </trkpt>
      <trkpt lat="47.12559" lon="6.12324">
        <ele>381.8</ele>
        <time>2026-05-24T07:49:42Z</time>
      </trkpt>
      <trkpt lat="47.12563" lon="6.12326">
        <ele>381.8</ele>
        <time>2026-05-24T07:49:43Z</time>
      </trkpt>
      <trkpt lat="47.12566" lon="6.12328">
        <ele>382</ele>
        <time>2026-05-24T07:49:44Z</time>
      </trkpt>
      <trkpt lat="47.1257" lon="6.1233">
        <ele>382.2</ele>
        <time>2026-05-24T07:49:45Z</time>
      </trkpt>
      <trkpt lat="47.12574" lon="6.12333">
        <ele>382.2</ele>
        <time>2026-05-24T07:49:46Z</time>
      </trkpt>
      <trkpt lat="47.12579" lon="6.12336">
        <ele>382.4</ele>
        <time>2026-05-24T07:49:47Z</time>
      </trkpt>
      <trkpt lat="47.12583" lon="6.12338">
        <ele>382.4</ele>
        <time>2026-05-24T07:49:48Z</time>
      </trkpt>
      <trkpt lat="47.12587" lon="6.1234">
        <ele>382.6</ele>
        <time>2026-05-24T07:49:49Z</time>
      </trkpt>
      <trkpt lat="47.12592" lon="6.12342">
        <ele>382.6</ele>
        <time>2026-05-24T07:49:50Z</time>
      </trkpt>
      <trkpt lat="47.12596" lon="6.12344">
        <ele>383</ele>
        <time>2026-05-24T07:49:51Z</time>
      </trkpt>
      <trkpt lat="47.126" lon="6.12347">
        <ele>383</ele>
        <time>2026-05-24T07:49:52Z</time>
      </trkpt>
      <trkpt lat="47.12604" lon="6.1235">
        <ele>383</ele>
        <time>2026-05-24T07:49:53Z</time>
      </trkpt>
      <trkpt lat="47.12608" lon="6.12352">
        <ele>383.2</ele>
        <time>2026-05-24T07:49:54Z</time>
      </trkpt>
      <trkpt lat="47.12612" lon="6.12353">
        <ele>383.6</ele>
        <time>2026-05-24T07:49:55Z</time>
      </trkpt>
      <trkpt lat="47.12615" lon="6.12355">
        <ele>383.6</ele>
        <time>2026-05-24T07:49:56Z</time>
      </trkpt>
      <trkpt lat="47.12619" lon="6.12356">
        <ele>383.6</ele>
        <time>2026-05-24T07:49:57Z</time>
      </trkpt>
      <trkpt lat="47.12623" lon="6.12359">
        <ele>383.8</ele>
        <time>2026-05-24T07:49:58Z</time>
      </trkpt>
      <trkpt lat="47.12627" lon="6.1236">
        <ele>383.8</ele>
        <time>2026-05-24T07:49:59Z</time>
      </trkpt>
      <trkpt lat="47.12631" lon="6.12363">
        <ele>384</ele>
        <time>2026-05-24T07:50:00Z</time>
      </trkpt>
      <trkpt lat="47.12635" lon="6.12365">
        <ele>384</ele>
        <time>2026-05-24T07:50:01Z</time>
      </trkpt>
      <trkpt lat="47.12639" lon="6.12368">
        <ele>384.2</ele>
        <time>2026-05-24T07:50:02Z</time>
      </trkpt>
      <trkpt lat="47.12644" lon="6.12369">
        <ele>384.4</ele>
        <time>2026-05-24T07:50:03Z</time>
      </trkpt>
      <trkpt lat="47.12648" lon="6.12371">
        <ele>384.6</ele>
        <time>2026-05-24T07:50:04Z</time>
      </trkpt>
      <trkpt lat="47.12652" lon="6.12373">
        <ele>384.6</ele>
        <time>2026-05-24T07:50:05Z</time>
      </trkpt>
      <trkpt lat="47.12656" lon="6.12375">
        <ele>384.6</ele>
        <time>2026-05-24T07:50:06Z</time>
      </trkpt>
      <trkpt lat="47.1266" lon="6.12376">
        <ele>384.6</ele>
        <time>2026-05-24T07:50:07Z</time>
      </trkpt>
      <trkpt lat="47.12664" lon="6.12377">
        <ele>384.8</ele>
        <time>2026-05-24T07:50:08Z</time>
      </trkpt>
      <trkpt lat="47.12668" lon="6.12378">
        <ele>384.8</ele>
        <time>2026-05-24T07:50:09Z</time>
      </trkpt>
      <trkpt lat="47.12671" lon="6.12379">
        <ele>384.8</ele>
        <time>2026-05-24T07:50:10Z</time>
      </trkpt>
      <trkpt lat="47.12675" lon="6.1238">
        <ele>385</ele>
        <time>2026-05-24T07:50:11Z</time>
      </trkpt>
      <trkpt lat="47.12679" lon="6.12381">
        <ele>385</ele>
        <time>2026-05-24T07:50:12Z</time>
      </trkpt>
      <trkpt lat="47.12684" lon="6.12382">
        <ele>385.4</ele>
        <time>2026-05-24T07:50:13Z</time>
      </trkpt>
      <trkpt lat="47.12688" lon="6.12384">
        <ele>385.4</ele>
        <time>2026-05-24T07:50:14Z</time>
      </trkpt>
      <trkpt lat="47.12692" lon="6.12386">
        <ele>385.4</ele>
        <time>2026-05-24T07:50:15Z</time>
      </trkpt>
      <trkpt lat="47.12696" lon="6.12387">
        <ele>385.4</ele>
        <time>2026-05-24T07:50:16Z</time>
      </trkpt>
      <trkpt lat="47.12701" lon="6.12389">
        <ele>385.4</ele>
        <time>2026-05-24T07:50:17Z</time>
      </trkpt>
      <trkpt lat="47.12704" lon="6.1239">
        <ele>385.6</ele>
        <time>2026-05-24T07:50:18Z</time>
      </trkpt>
      <trkpt lat="47.12708" lon="6.12392">
        <ele>385.8</ele>
        <time>2026-05-24T07:50:19Z</time>
      </trkpt>
      <trkpt lat="47.12712" lon="6.12394">
        <ele>385.8</ele>
        <time>2026-05-24T07:50:20Z</time>
      </trkpt>
      <trkpt lat="47.12715" lon="6.12396">
        <ele>385.8</ele>
        <time>2026-05-24T07:50:21Z</time>
      </trkpt>
      <trkpt lat="47.12718" lon="6.12399">
        <ele>385.8</ele>
        <time>2026-05-24T07:50:22Z</time>
      </trkpt>
      <trkpt lat="47.1272" lon="6.12401">
        <ele>386</ele>
        <time>2026-05-24T07:50:23Z</time>
      </trkpt>
      <trkpt lat="47.12722" lon="6.12402">
        <ele>386</ele>
        <time>2026-05-24T07:50:24Z</time>
      </trkpt>
      <trkpt lat="47.12724" lon="6.12404">
        <ele>386</ele>
        <time>2026-05-24T07:50:25Z</time>
      </trkpt>
      <trkpt lat="47.12726" lon="6.12406">
        <ele>386</ele>
        <time>2026-05-24T07:50:26Z</time>
      </trkpt>
      <trkpt lat="47.12728" lon="6.12409">
        <ele>386.2</ele>
        <time>2026-05-24T07:50:27Z</time>
      </trkpt>
      <trkpt lat="47.12729" lon="6.12412">
        <ele>386.2</ele>
        <time>2026-05-24T07:50:28Z</time>
      </trkpt>
      <trkpt lat="47.12731" lon="6.12415">
        <ele>386.4</ele>
        <time>2026-05-24T07:50:29Z</time>
      </trkpt>
      <trkpt lat="47.12733" lon="6.12419">
        <ele>386.4</ele>
        <time>2026-05-24T07:50:30Z</time>
      </trkpt>
      <trkpt lat="47.12735" lon="6.12422">
        <ele>386.4</ele>
        <time>2026-05-24T07:50:31Z</time>
      </trkpt>
      <trkpt lat="47.12736" lon="6.12425">
        <ele>386.6</ele>
        <time>2026-05-24T07:50:32Z</time>
      </trkpt>
      <trkpt lat="47.12738" lon="6.12427">
        <ele>386.8</ele>
        <time>2026-05-24T07:50:33Z</time>
      </trkpt>
      <trkpt lat="47.1274" lon="6.12429">
        <ele>386.8</ele>
        <time>2026-05-24T07:50:34Z</time>
      </trkpt>
      <trkpt lat="47.12743" lon="6.12429">
        <ele>386.8</ele>
        <time>2026-05-24T07:50:35Z</time>
      </trkpt>
      <trkpt lat="47.12745" lon="6.1243">
        <ele>386.8</ele>
        <time>2026-05-24T07:50:36Z</time>
      </trkpt>
      <trkpt lat="47.12748" lon="6.12429">
        <ele>387</ele>
        <time>2026-05-24T07:50:37Z</time>
      </trkpt>
      <trkpt lat="47.1275" lon="6.12428">
        <ele>387.2</ele>
        <time>2026-05-24T07:50:38Z</time>
      </trkpt>
      <trkpt lat="47.12753" lon="6.12427">
        <ele>387.4</ele>
        <time>2026-05-24T07:50:39Z</time>
      </trkpt>
      <trkpt lat="47.12756" lon="6.12425">
        <ele>387.4</ele>
        <time>2026-05-24T07:50:40Z</time>
      </trkpt>
      <trkpt lat="47.12758" lon="6.12423">
        <ele>387.4</ele>
        <time>2026-05-24T07:50:41Z</time>
      </trkpt>
      <trkpt lat="47.12761" lon="6.12421">
        <ele>387.6</ele>
        <time>2026-05-24T07:50:42Z</time>
      </trkpt>
      <trkpt lat="47.12765" lon="6.1242">
        <ele>387.6</ele>
        <time>2026-05-24T07:50:43Z</time>
      </trkpt>
      <trkpt lat="47.12771" lon="6.12418">
        <ele>387.4</ele>
        <time>2026-05-24T07:50:44Z</time>
      </trkpt>
      <trkpt lat="47.12771" lon="6.12418">
        <ele>387.8</ele>
        <time>2026-05-24T07:50:45Z</time>
      </trkpt>
      <trkpt lat="47.12778" lon="6.1242">
        <ele>387.6</ele>
        <time>2026-05-24T07:50:46Z</time>
      </trkpt>
      <trkpt lat="47.12778" lon="6.1242">
        <ele>387.8</ele>
        <time>2026-05-24T07:50:47Z</time>
      </trkpt>
      <trkpt lat="47.12781" lon="6.12421">
        <ele>387.6</ele>
        <time>2026-05-24T07:50:48Z</time>
      </trkpt>
      <trkpt lat="47.12784" lon="6.12422">
        <ele>387.8</ele>
        <time>2026-05-24T07:50:49Z</time>
      </trkpt>
      <trkpt lat="47.12787" lon="6.12423">
        <ele>387.8</ele>
        <time>2026-05-24T07:50:50Z</time>
      </trkpt>
      <trkpt lat="47.12791" lon="6.12424">
        <ele>387.8</ele>
        <time>2026-05-24T07:50:51Z</time>
      </trkpt>
      <trkpt lat="47.12794" lon="6.12426">
        <ele>388</ele>
        <time>2026-05-24T07:50:52Z</time>
      </trkpt>
      <trkpt lat="47.12798" lon="6.12427">
        <ele>388</ele>
        <time>2026-05-24T07:50:53Z</time>
      </trkpt>
      <trkpt lat="47.12801" lon="6.12428">
        <ele>388.2</ele>
        <time>2026-05-24T07:50:54Z</time>
      </trkpt>
      <trkpt lat="47.12804" lon="6.1243">
        <ele>388.4</ele>
        <time>2026-05-24T07:50:55Z</time>
      </trkpt>
      <trkpt lat="47.12807" lon="6.12431">
        <ele>388.6</ele>
        <time>2026-05-24T07:50:56Z</time>
      </trkpt>
      <trkpt lat="47.1281" lon="6.12431">
        <ele>388.6</ele>
        <time>2026-05-24T07:50:57Z</time>
      </trkpt>
      <trkpt lat="47.12813" lon="6.12432">
        <ele>388.6</ele>
        <time>2026-05-24T07:50:58Z</time>
      </trkpt>
      <trkpt lat="47.12817" lon="6.12432">
        <ele>388.8</ele>
        <time>2026-05-24T07:50:59Z</time>
      </trkpt>
      <trkpt lat="47.1282" lon="6.12433">
        <ele>388.8</ele>
        <time>2026-05-24T07:51:00Z</time>
      </trkpt>
      <trkpt lat="47.12823" lon="6.12434">
        <ele>388.8</ele>
        <time>2026-05-24T07:51:01Z</time>
      </trkpt>
      <trkpt lat="47.12826" lon="6.12435">
        <ele>389</ele>
        <time>2026-05-24T07:51:02Z</time>
      </trkpt>
      <trkpt lat="47.12829" lon="6.12436">
        <ele>389</ele>
        <time>2026-05-24T07:51:03Z</time>
      </trkpt>
      <trkpt lat="47.12832" lon="6.12437">
        <ele>389.2</ele>
        <time>2026-05-24T07:51:04Z</time>
      </trkpt>
      <trkpt lat="47.12836" lon="6.12439">
        <ele>389.2</ele>
        <time>2026-05-24T07:51:05Z</time>
      </trkpt>
      <trkpt lat="47.12839" lon="6.12441">
        <ele>389.2</ele>
        <time>2026-05-24T07:51:06Z</time>
      </trkpt>
      <trkpt lat="47.12843" lon="6.12443">
        <ele>389.4</ele>
        <time>2026-05-24T07:51:07Z</time>
      </trkpt>
      <trkpt lat="47.12847" lon="6.12444">
        <ele>389.6</ele>
        <time>2026-05-24T07:51:08Z</time>
      </trkpt>
      <trkpt lat="47.12851" lon="6.12445">
        <ele>389.6</ele>
        <time>2026-05-24T07:51:09Z</time>
      </trkpt>
      <trkpt lat="47.12854" lon="6.12447">
        <ele>390</ele>
        <time>2026-05-24T07:51:10Z</time>
      </trkpt>
      <trkpt lat="47.12858" lon="6.12447">
        <ele>390</ele>
        <time>2026-05-24T07:51:11Z</time>
      </trkpt>
      <trkpt lat="47.12862" lon="6.12448">
        <ele>390.2</ele>
        <time>2026-05-24T07:51:12Z</time>
      </trkpt>
      <trkpt lat="47.12865" lon="6.1245">
        <ele>390.4</ele>
        <time>2026-05-24T07:51:13Z</time>
      </trkpt>
      <trkpt lat="47.12868" lon="6.12453">
        <ele>390.2</ele>
        <time>2026-05-24T07:51:14Z</time>
      </trkpt>
      <trkpt lat="47.1287" lon="6.12457">
        <ele>390.4</ele>
        <time>2026-05-24T07:51:15Z</time>
      </trkpt>
      <trkpt lat="47.12872" lon="6.12461">
        <ele>390.4</ele>
        <time>2026-05-24T07:51:16Z</time>
      </trkpt>
      <trkpt lat="47.12874" lon="6.12465">
        <ele>390.6</ele>
        <time>2026-05-24T07:51:17Z</time>
      </trkpt>
      <trkpt lat="47.12877" lon="6.12469">
        <ele>390.8</ele>
        <time>2026-05-24T07:51:18Z</time>
      </trkpt>
      <trkpt lat="47.1288" lon="6.12472">
        <ele>390.6</ele>
        <time>2026-05-24T07:51:19Z</time>
      </trkpt>
      <trkpt lat="47.12883" lon="6.12477">
        <ele>390.8</ele>
        <time>2026-05-24T07:51:20Z</time>
      </trkpt>
      <trkpt lat="47.12886" lon="6.1248">
        <ele>390.8</ele>
        <time>2026-05-24T07:51:21Z</time>
      </trkpt>
      <trkpt lat="47.12889" lon="6.12483">
        <ele>390.8</ele>
        <time>2026-05-24T07:51:22Z</time>
      </trkpt>
      <trkpt lat="47.12892" lon="6.12485">
        <ele>391</ele>
        <time>2026-05-24T07:51:23Z</time>
      </trkpt>
      <trkpt lat="47.12895" lon="6.12487">
        <ele>391.2</ele>
        <time>2026-05-24T07:51:24Z</time>
      </trkpt>
      <trkpt lat="47.12897" lon="6.1249">
        <ele>391.4</ele>
        <time>2026-05-24T07:51:25Z</time>
      </trkpt>
      <trkpt lat="47.129" lon="6.12492">
        <ele>391.4</ele>
        <time>2026-05-24T07:51:26Z</time>
      </trkpt>
      <trkpt lat="47.12902" lon="6.12495">
        <ele>391.6</ele>
        <time>2026-05-24T07:51:27Z</time>
      </trkpt>
      <trkpt lat="47.12904" lon="6.12497">
        <ele>391.6</ele>
        <time>2026-05-24T07:51:28Z</time>
      </trkpt>
      <trkpt lat="47.12907" lon="6.125">
        <ele>391.6</ele>
        <time>2026-05-24T07:51:29Z</time>
      </trkpt>
      <trkpt lat="47.1291" lon="6.12502">
        <ele>391.6</ele>
        <time>2026-05-24T07:51:30Z</time>
      </trkpt>
      <trkpt lat="47.12913" lon="6.12504">
        <ele>391.6</ele>
        <time>2026-05-24T07:51:31Z</time>
      </trkpt>
      <trkpt lat="47.12916" lon="6.12505">
        <ele>391.6</ele>
        <time>2026-05-24T07:51:32Z</time>
      </trkpt>
      <trkpt lat="47.12919" lon="6.12507">
        <ele>391.8</ele>
        <time>2026-05-24T07:51:33Z</time>
      </trkpt>
      <trkpt lat="47.12922" lon="6.1251">
        <ele>391.8</ele>
        <time>2026-05-24T07:51:34Z</time>
      </trkpt>
      <trkpt lat="47.12925" lon="6.12514">
        <ele>392</ele>
        <time>2026-05-24T07:51:35Z</time>
      </trkpt>
      <trkpt lat="47.12928" lon="6.12518">
        <ele>392</ele>
        <time>2026-05-24T07:51:36Z</time>
      </trkpt>
      <trkpt lat="47.12931" lon="6.12522">
        <ele>392</ele>
        <time>2026-05-24T07:51:37Z</time>
      </trkpt>
      <trkpt lat="47.12935" lon="6.12525">
        <ele>392.2</ele>
        <time>2026-05-24T07:51:38Z</time>
      </trkpt>
      <trkpt lat="47.12937" lon="6.12529">
        <ele>392.2</ele>
        <time>2026-05-24T07:51:39Z</time>
      </trkpt>
      <trkpt lat="47.1294" lon="6.12532">
        <ele>392.4</ele>
        <time>2026-05-24T07:51:40Z</time>
      </trkpt>
      <trkpt lat="47.12943" lon="6.12535">
        <ele>392.6</ele>
        <time>2026-05-24T07:51:41Z</time>
      </trkpt>
      <trkpt lat="47.12947" lon="6.12538">
        <ele>392.8</ele>
        <time>2026-05-24T07:51:42Z</time>
      </trkpt>
      <trkpt lat="47.1295" lon="6.12541">
        <ele>393</ele>
        <time>2026-05-24T07:51:43Z</time>
      </trkpt>
      <trkpt lat="47.12953" lon="6.12544">
        <ele>393</ele>
        <time>2026-05-24T07:51:44Z</time>
      </trkpt>
      <trkpt lat="47.12956" lon="6.12548">
        <ele>393.2</ele>
        <time>2026-05-24T07:51:45Z</time>
      </trkpt>
      <trkpt lat="47.12959" lon="6.12552">
        <ele>393.4</ele>
        <time>2026-05-24T07:51:46Z</time>
      </trkpt>
      <trkpt lat="47.12962" lon="6.12555">
        <ele>393.4</ele>
        <time>2026-05-24T07:51:47Z</time>
      </trkpt>
      <trkpt lat="47.12964" lon="6.12559">
        <ele>393.8</ele>
        <time>2026-05-24T07:51:48Z</time>
      </trkpt>
      <trkpt lat="47.12966" lon="6.12563">
        <ele>393.8</ele>
        <time>2026-05-24T07:51:49Z</time>
      </trkpt>
      <trkpt lat="47.12969" lon="6.12568">
        <ele>393.8</ele>
        <time>2026-05-24T07:51:50Z</time>
      </trkpt>
      <trkpt lat="47.12971" lon="6.12572">
        <ele>393.8</ele>
        <time>2026-05-24T07:51:51Z</time>
      </trkpt>
      <trkpt lat="47.12974" lon="6.12576">
        <ele>393.8</ele>
        <time>2026-05-24T07:51:52Z</time>
      </trkpt>
      <trkpt lat="47.12977" lon="6.12579">
        <ele>393.8</ele>
        <time>2026-05-24T07:51:53Z</time>
      </trkpt>
      <trkpt lat="47.1298" lon="6.12583">
        <ele>394</ele>
        <time>2026-05-24T07:51:54Z</time>
      </trkpt>
      <trkpt lat="47.12983" lon="6.12589">
        <ele>394.2</ele>
        <time>2026-05-24T07:51:55Z</time>
      </trkpt>
      <trkpt lat="47.12986" lon="6.12593">
        <ele>394.4</ele>
        <time>2026-05-24T07:51:56Z</time>
      </trkpt>
      <trkpt lat="47.12989" lon="6.12597">
        <ele>394.4</ele>
        <time>2026-05-24T07:51:57Z</time>
      </trkpt>
      <trkpt lat="47.12992" lon="6.12602">
        <ele>394.4</ele>
        <time>2026-05-24T07:51:58Z</time>
      </trkpt>
      <trkpt lat="47.12994" lon="6.12605">
        <ele>394.6</ele>
        <time>2026-05-24T07:51:59Z</time>
      </trkpt>
      <trkpt lat="47.12997" lon="6.12609">
        <ele>394.6</ele>
        <time>2026-05-24T07:52:00Z</time>
      </trkpt>
      <trkpt lat="47.13" lon="6.12613">
        <ele>394.6</ele>
        <time>2026-05-24T07:52:01Z</time>
      </trkpt>
      <trkpt lat="47.13003" lon="6.12616">
        <ele>394.8</ele>
        <time>2026-05-24T07:52:02Z</time>
      </trkpt>
      <trkpt lat="47.13006" lon="6.1262">
        <ele>394.8</ele>
        <time>2026-05-24T07:52:03Z</time>
      </trkpt>
      <trkpt lat="47.1301" lon="6.12623">
        <ele>394.8</ele>
        <time>2026-05-24T07:52:04Z</time>
      </trkpt>
      <trkpt lat="47.13012" lon="6.12627">
        <ele>395.2</ele>
        <time>2026-05-24T07:52:05Z</time>
      </trkpt>
      <trkpt lat="47.13015" lon="6.12631">
        <ele>395.2</ele>
        <time>2026-05-24T07:52:06Z</time>
      </trkpt>
      <trkpt lat="47.13018" lon="6.12636">
        <ele>395.2</ele>
        <time>2026-05-24T07:52:07Z</time>
      </trkpt>
      <trkpt lat="47.13021" lon="6.1264">
        <ele>395.2</ele>
        <time>2026-05-24T07:52:08Z</time>
      </trkpt>
      <trkpt lat="47.13024" lon="6.12644">
        <ele>395.4</ele>
        <time>2026-05-24T07:52:09Z</time>
      </trkpt>
      <trkpt lat="47.13027" lon="6.12648">
        <ele>395.4</ele>
        <time>2026-05-24T07:52:10Z</time>
      </trkpt>
      <trkpt lat="47.1303" lon="6.12652">
        <ele>395.6</ele>
        <time>2026-05-24T07:52:11Z</time>
      </trkpt>
      <trkpt lat="47.13032" lon="6.12656">
        <ele>395.6</ele>
        <time>2026-05-24T07:52:12Z</time>
      </trkpt>
      <trkpt lat="47.13034" lon="6.1266">
        <ele>395.6</ele>
        <time>2026-05-24T07:52:13Z</time>
      </trkpt>
      <trkpt lat="47.13037" lon="6.12664">
        <ele>395.6</ele>
        <time>2026-05-24T07:52:14Z</time>
      </trkpt>
      <trkpt lat="47.1304" lon="6.12667">
        <ele>395.8</ele>
        <time>2026-05-24T07:52:15Z</time>
      </trkpt>
      <trkpt lat="47.13043" lon="6.1267">
        <ele>395.8</ele>
        <time>2026-05-24T07:52:16Z</time>
      </trkpt>
      <trkpt lat="47.13045" lon="6.12673">
        <ele>396</ele>
        <time>2026-05-24T07:52:17Z</time>
      </trkpt>
      <trkpt lat="47.13048" lon="6.12677">
        <ele>396</ele>
        <time>2026-05-24T07:52:18Z</time>
      </trkpt>
      <trkpt lat="47.1305" lon="6.12682">
        <ele>396.2</ele>
        <time>2026-05-24T07:52:19Z</time>
      </trkpt>
      <trkpt lat="47.13053" lon="6.12686">
        <ele>396.4</ele>
        <time>2026-05-24T07:52:20Z</time>
      </trkpt>
      <trkpt lat="47.13057" lon="6.12691">
        <ele>396.4</ele>
        <time>2026-05-24T07:52:21Z</time>
      </trkpt>
      <trkpt lat="47.1306" lon="6.12695">
        <ele>396.4</ele>
        <time>2026-05-24T07:52:22Z</time>
      </trkpt>
      <trkpt lat="47.13063" lon="6.12699">
        <ele>396.6</ele>
        <time>2026-05-24T07:52:23Z</time>
      </trkpt>
      <trkpt lat="47.13065" lon="6.12706">
        <ele>396.6</ele>
        <time>2026-05-24T07:52:24Z</time>
      </trkpt>
      <trkpt lat="47.13068" lon="6.12711">
        <ele>396.8</ele>
        <time>2026-05-24T07:52:25Z</time>
      </trkpt>
      <trkpt lat="47.1307" lon="6.12715">
        <ele>397</ele>
        <time>2026-05-24T07:52:26Z</time>
      </trkpt>
      <trkpt lat="47.13073" lon="6.1272">
        <ele>397.2</ele>
        <time>2026-05-24T07:52:27Z</time>
      </trkpt>
      <trkpt lat="47.13076" lon="6.12723">
        <ele>397.2</ele>
        <time>2026-05-24T07:52:28Z</time>
      </trkpt>
      <trkpt lat="47.13079" lon="6.12726">
        <ele>397.4</ele>
        <time>2026-05-24T07:52:29Z</time>
      </trkpt>
      <trkpt lat="47.13082" lon="6.1273">
        <ele>397.6</ele>
        <time>2026-05-24T07:52:30Z</time>
      </trkpt>
      <trkpt lat="47.13085" lon="6.12733">
        <ele>397.8</ele>
        <time>2026-05-24T07:52:31Z</time>
      </trkpt>
      <trkpt lat="47.13088" lon="6.12736">
        <ele>397.6</ele>
        <time>2026-05-24T07:52:32Z</time>
      </trkpt>
      <trkpt lat="47.13091" lon="6.12741">
        <ele>397.8</ele>
        <time>2026-05-24T07:52:33Z</time>
      </trkpt>
      <trkpt lat="47.13094" lon="6.12745">
        <ele>397.8</ele>
        <time>2026-05-24T07:52:34Z</time>
      </trkpt>
      <trkpt lat="47.13097" lon="6.12748">
        <ele>398</ele>
        <time>2026-05-24T07:52:35Z</time>
      </trkpt>
      <trkpt lat="47.131" lon="6.12752">
        <ele>398.2</ele>
        <time>2026-05-24T07:52:36Z</time>
      </trkpt>
      <trkpt lat="47.13102" lon="6.12757">
        <ele>398.4</ele>
        <time>2026-05-24T07:52:37Z</time>
      </trkpt>
      <trkpt lat="47.13104" lon="6.12764">
        <ele>398.4</ele>
        <time>2026-05-24T07:52:38Z</time>
      </trkpt>
      <trkpt lat="47.13107" lon="6.1277">
        <ele>398.6</ele>
        <time>2026-05-24T07:52:39Z</time>
      </trkpt>
      <trkpt lat="47.1311" lon="6.12774">
        <ele>398.8</ele>
        <time>2026-05-24T07:52:40Z</time>
      </trkpt>
      <trkpt lat="47.13113" lon="6.12778">
        <ele>398.8</ele>
        <time>2026-05-24T07:52:41Z</time>
      </trkpt>
      <trkpt lat="47.13116" lon="6.12784">
        <ele>398.8</ele>
        <time>2026-05-24T07:52:42Z</time>
      </trkpt>
      <trkpt lat="47.13119" lon="6.12789">
        <ele>399</ele>
        <time>2026-05-24T07:52:43Z</time>
      </trkpt>
      <trkpt lat="47.13122" lon="6.12793">
        <ele>399</ele>
        <time>2026-05-24T07:52:44Z</time>
      </trkpt>
      <trkpt lat="47.13126" lon="6.12796">
        <ele>399</ele>
        <time>2026-05-24T07:52:45Z</time>
      </trkpt>
      <trkpt lat="47.13129" lon="6.12799">
        <ele>399.2</ele>
        <time>2026-05-24T07:52:46Z</time>
      </trkpt>
      <trkpt lat="47.13132" lon="6.12801">
        <ele>399.2</ele>
        <time>2026-05-24T07:52:47Z</time>
      </trkpt>
      <trkpt lat="47.13135" lon="6.12803">
        <ele>399.4</ele>
        <time>2026-05-24T07:52:48Z</time>
      </trkpt>
      <trkpt lat="47.13138" lon="6.12805">
        <ele>399.4</ele>
        <time>2026-05-24T07:52:49Z</time>
      </trkpt>
      <trkpt lat="47.13141" lon="6.12806">
        <ele>399.6</ele>
        <time>2026-05-24T07:52:50Z</time>
      </trkpt>
      <trkpt lat="47.13143" lon="6.12808">
        <ele>399.6</ele>
        <time>2026-05-24T07:52:51Z</time>
      </trkpt>
      <trkpt lat="47.13146" lon="6.1281">
        <ele>399.8</ele>
        <time>2026-05-24T07:52:52Z</time>
      </trkpt>
      <trkpt lat="47.13148" lon="6.12811">
        <ele>400</ele>
        <time>2026-05-24T07:52:53Z</time>
      </trkpt>
      <trkpt lat="47.13154" lon="6.12815">
        <ele>400.2</ele>
        <time>2026-05-24T07:52:54Z</time>
      </trkpt>
      <trkpt lat="47.13154" lon="6.12815">
        <ele>400.2</ele>
        <time>2026-05-24T07:52:55Z</time>
      </trkpt>
      <trkpt lat="47.13157" lon="6.12817">
        <ele>400.2</ele>
        <time>2026-05-24T07:52:56Z</time>
      </trkpt>
      <trkpt lat="47.1316" lon="6.1282">
        <ele>400.4</ele>
        <time>2026-05-24T07:52:57Z</time>
      </trkpt>
      <trkpt lat="47.13163" lon="6.12825">
        <ele>400.2</ele>
        <time>2026-05-24T07:52:58Z</time>
      </trkpt>
      <trkpt lat="47.13166" lon="6.12829">
        <ele>400.6</ele>
        <time>2026-05-24T07:52:59Z</time>
      </trkpt>
      <trkpt lat="47.1317" lon="6.12833">
        <ele>400.6</ele>
        <time>2026-05-24T07:53:00Z</time>
      </trkpt>
      <trkpt lat="47.13174" lon="6.12837">
        <ele>400.8</ele>
        <time>2026-05-24T07:53:01Z</time>
      </trkpt>
      <trkpt lat="47.13177" lon="6.12842">
        <ele>401</ele>
        <time>2026-05-24T07:53:02Z</time>
      </trkpt>
      <trkpt lat="47.13181" lon="6.12845">
        <ele>401.2</ele>
        <time>2026-05-24T07:53:03Z</time>
      </trkpt>
      <trkpt lat="47.13184" lon="6.12847">
        <ele>401.2</ele>
        <time>2026-05-24T07:53:04Z</time>
      </trkpt>
      <trkpt lat="47.13186" lon="6.12849">
        <ele>401.4</ele>
        <time>2026-05-24T07:53:05Z</time>
      </trkpt>
      <trkpt lat="47.13189" lon="6.12851">
        <ele>401.6</ele>
        <time>2026-05-24T07:53:06Z</time>
      </trkpt>
      <trkpt lat="47.1319" lon="6.12854">
        <ele>401.8</ele>
        <time>2026-05-24T07:53:07Z</time>
      </trkpt>
      <trkpt lat="47.13192" lon="6.12857">
        <ele>401.8</ele>
        <time>2026-05-24T07:53:08Z</time>
      </trkpt>
      <trkpt lat="47.13194" lon="6.12859">
        <ele>401.8</ele>
        <time>2026-05-24T07:53:09Z</time>
      </trkpt>
      <trkpt lat="47.13198" lon="6.12861">
        <ele>402</ele>
        <time>2026-05-24T07:53:10Z</time>
      </trkpt>
      <trkpt lat="47.132" lon="6.12864">
        <ele>402</ele>
        <time>2026-05-24T07:53:11Z</time>
      </trkpt>
      <trkpt lat="47.13203" lon="6.12866">
        <ele>402.2</ele>
        <time>2026-05-24T07:53:12Z</time>
      </trkpt>
      <trkpt lat="47.13207" lon="6.12867">
        <ele>402.2</ele>
        <time>2026-05-24T07:53:13Z</time>
      </trkpt>
      <trkpt lat="47.1321" lon="6.12869">
        <ele>402.2</ele>
        <time>2026-05-24T07:53:14Z</time>
      </trkpt>
      <trkpt lat="47.13212" lon="6.12871">
        <ele>402.2</ele>
        <time>2026-05-24T07:53:15Z</time>
      </trkpt>
      <trkpt lat="47.13215" lon="6.12871">
        <ele>402.4</ele>
        <time>2026-05-24T07:53:16Z</time>
      </trkpt>
      <trkpt lat="47.13217" lon="6.12871">
        <ele>402.6</ele>
        <time>2026-05-24T07:53:17Z</time>
      </trkpt>
      <trkpt lat="47.13221" lon="6.12871">
        <ele>402.6</ele>
        <time>2026-05-24T07:53:18Z</time>
      </trkpt>
      <trkpt lat="47.13225" lon="6.12871">
        <ele>402.4</ele>
        <time>2026-05-24T07:53:19Z</time>
      </trkpt>
      <trkpt lat="47.13228" lon="6.12871">
        <ele>402.6</ele>
        <time>2026-05-24T07:53:20Z</time>
      </trkpt>
      <trkpt lat="47.13232" lon="6.12871">
        <ele>402.6</ele>
        <time>2026-05-24T07:53:21Z</time>
      </trkpt>
      <trkpt lat="47.13235" lon="6.12872">
        <ele>402.6</ele>
        <time>2026-05-24T07:53:22Z</time>
      </trkpt>
      <trkpt lat="47.13239" lon="6.12873">
        <ele>402.8</ele>
        <time>2026-05-24T07:53:23Z</time>
      </trkpt>
      <trkpt lat="47.13243" lon="6.12874">
        <ele>402.8</ele>
        <time>2026-05-24T07:53:24Z</time>
      </trkpt>
      <trkpt lat="47.13248" lon="6.12874">
        <ele>402.8</ele>
        <time>2026-05-24T07:53:25Z</time>
      </trkpt>
      <trkpt lat="47.13252" lon="6.12875">
        <ele>403</ele>
        <time>2026-05-24T07:53:26Z</time>
      </trkpt>
      <trkpt lat="47.13255" lon="6.12875">
        <ele>403</ele>
        <time>2026-05-24T07:53:27Z</time>
      </trkpt>
      <trkpt lat="47.13259" lon="6.12876">
        <ele>403.4</ele>
        <time>2026-05-24T07:53:28Z</time>
      </trkpt>
      <trkpt lat="47.13262" lon="6.12876">
        <ele>403.2</ele>
        <time>2026-05-24T07:53:29Z</time>
      </trkpt>
      <trkpt lat="47.13266" lon="6.12876">
        <ele>403.4</ele>
        <time>2026-05-24T07:53:30Z</time>
      </trkpt>
      <trkpt lat="47.1327" lon="6.12876">
        <ele>403.6</ele>
        <time>2026-05-24T07:53:31Z</time>
      </trkpt>
      <trkpt lat="47.13275" lon="6.12878">
        <ele>403.6</ele>
        <time>2026-05-24T07:53:32Z</time>
      </trkpt>
      <trkpt lat="47.13278" lon="6.12879">
        <ele>403.6</ele>
        <time>2026-05-24T07:53:33Z</time>
      </trkpt>
      <trkpt lat="47.13282" lon="6.12882">
        <ele>403.8</ele>
        <time>2026-05-24T07:53:34Z</time>
      </trkpt>
      <trkpt lat="47.13287" lon="6.12884">
        <ele>403.8</ele>
        <time>2026-05-24T07:53:35Z</time>
      </trkpt>
      <trkpt lat="47.1329" lon="6.12886">
        <ele>404</ele>
        <time>2026-05-24T07:53:36Z</time>
      </trkpt>
      <trkpt lat="47.13293" lon="6.12889">
        <ele>403.8</ele>
        <time>2026-05-24T07:53:37Z</time>
      </trkpt>
      <trkpt lat="47.13296" lon="6.1289">
        <ele>404</ele>
        <time>2026-05-24T07:53:38Z</time>
      </trkpt>
      <trkpt lat="47.13298" lon="6.12892">
        <ele>404.2</ele>
        <time>2026-05-24T07:53:39Z</time>
      </trkpt>
      <trkpt lat="47.13299" lon="6.12897">
        <ele>404.2</ele>
        <time>2026-05-24T07:53:40Z</time>
      </trkpt>
      <trkpt lat="47.13301" lon="6.12898">
        <ele>404.2</ele>
        <time>2026-05-24T07:53:41Z</time>
      </trkpt>
      <trkpt lat="47.13304" lon="6.12901">
        <ele>404.2</ele>
        <time>2026-05-24T07:53:42Z</time>
      </trkpt>
      <trkpt lat="47.13306" lon="6.12904">
        <ele>404.2</ele>
        <time>2026-05-24T07:53:43Z</time>
      </trkpt>
      <trkpt lat="47.1331" lon="6.12909">
        <ele>404.4</ele>
        <time>2026-05-24T07:53:44Z</time>
      </trkpt>
      <trkpt lat="47.13314" lon="6.12913">
        <ele>404.4</ele>
        <time>2026-05-24T07:53:45Z</time>
      </trkpt>
      <trkpt lat="47.13318" lon="6.12916">
        <ele>404.6</ele>
        <time>2026-05-24T07:53:46Z</time>
      </trkpt>
      <trkpt lat="47.13323" lon="6.12923">
        <ele>404.8</ele>
        <time>2026-05-24T07:53:47Z</time>
      </trkpt>
      <trkpt lat="47.13327" lon="6.12926">
        <ele>405</ele>
        <time>2026-05-24T07:53:48Z</time>
      </trkpt>
      <trkpt lat="47.13331" lon="6.12931">
        <ele>405</ele>
        <time>2026-05-24T07:53:49Z</time>
      </trkpt>
      <trkpt lat="47.13335" lon="6.12934">
        <ele>405.2</ele>
        <time>2026-05-24T07:53:50Z</time>
      </trkpt>
      <trkpt lat="47.13339" lon="6.12939">
        <ele>405.2</ele>
        <time>2026-05-24T07:53:51Z</time>
      </trkpt>
      <trkpt lat="47.13343" lon="6.12944">
        <ele>405.4</ele>
        <time>2026-05-24T07:53:52Z</time>
      </trkpt>
      <trkpt lat="47.13346" lon="6.12946">
        <ele>405.6</ele>
        <time>2026-05-24T07:53:53Z</time>
      </trkpt>
      <trkpt lat="47.13348" lon="6.12949">
        <ele>405.6</ele>
        <time>2026-05-24T07:53:54Z</time>
      </trkpt>
      <trkpt lat="47.1335" lon="6.12953">
        <ele>405.8</ele>
        <time>2026-05-24T07:53:55Z</time>
      </trkpt>
      <trkpt lat="47.13352" lon="6.12955">
        <ele>405.8</ele>
        <time>2026-05-24T07:53:56Z</time>
      </trkpt>
      <trkpt lat="47.13353" lon="6.12958">
        <ele>406</ele>
        <time>2026-05-24T07:53:57Z</time>
      </trkpt>
      <trkpt lat="47.13355" lon="6.1296">
        <ele>406.2</ele>
        <time>2026-05-24T07:53:58Z</time>
      </trkpt>
      <trkpt lat="47.13357" lon="6.12961">
        <ele>406.2</ele>
        <time>2026-05-24T07:53:59Z</time>
      </trkpt>
      <trkpt lat="47.13358" lon="6.12963">
        <ele>406.4</ele>
        <time>2026-05-24T07:54:00Z</time>
      </trkpt>
      <trkpt lat="47.13359" lon="6.12965">
        <ele>406.8</ele>
        <time>2026-05-24T07:54:01Z</time>
      </trkpt>
      <trkpt lat="47.13361" lon="6.12968">
        <ele>406.8</ele>
        <time>2026-05-24T07:54:02Z</time>
      </trkpt>
      <trkpt lat="47.13363" lon="6.1297">
        <ele>406.8</ele>
        <time>2026-05-24T07:54:03Z</time>
      </trkpt>
      <trkpt lat="47.13365" lon="6.12973">
        <ele>406.8</ele>
        <time>2026-05-24T07:54:04Z</time>
      </trkpt>
      <trkpt lat="47.13368" lon="6.12976">
        <ele>406.8</ele>
        <time>2026-05-24T07:54:05Z</time>
      </trkpt>
      <trkpt lat="47.13371" lon="6.12979">
        <ele>407</ele>
        <time>2026-05-24T07:54:06Z</time>
      </trkpt>
      <trkpt lat="47.13374" lon="6.12981">
        <ele>407</ele>
        <time>2026-05-24T07:54:07Z</time>
      </trkpt>
      <trkpt lat="47.13377" lon="6.12983">
        <ele>407.2</ele>
        <time>2026-05-24T07:54:08Z</time>
      </trkpt>
      <trkpt lat="47.13379" lon="6.12985">
        <ele>407.4</ele>
        <time>2026-05-24T07:54:09Z</time>
      </trkpt>
      <trkpt lat="47.13382" lon="6.12987">
        <ele>407.6</ele>
        <time>2026-05-24T07:54:10Z</time>
      </trkpt>
      <trkpt lat="47.13384" lon="6.12989">
        <ele>407.8</ele>
        <time>2026-05-24T07:54:11Z</time>
      </trkpt>
      <trkpt lat="47.13386" lon="6.12991">
        <ele>407.8</ele>
        <time>2026-05-24T07:54:12Z</time>
      </trkpt>
      <trkpt lat="47.13388" lon="6.12993">
        <ele>407.8</ele>
        <time>2026-05-24T07:54:13Z</time>
      </trkpt>
      <trkpt lat="47.13391" lon="6.12994">
        <ele>407.8</ele>
        <time>2026-05-24T07:54:14Z</time>
      </trkpt>
      <trkpt lat="47.13392" lon="6.12996">
        <ele>408</ele>
        <time>2026-05-24T07:54:15Z</time>
      </trkpt>
      <trkpt lat="47.13394" lon="6.12999">
        <ele>408</ele>
        <time>2026-05-24T07:54:16Z</time>
      </trkpt>
      <trkpt lat="47.13396" lon="6.13002">
        <ele>408.2</ele>
        <time>2026-05-24T07:54:17Z</time>
      </trkpt>
      <trkpt lat="47.13397" lon="6.13004">
        <ele>408.2</ele>
        <time>2026-05-24T07:54:18Z</time>
      </trkpt>
      <trkpt lat="47.13398" lon="6.13005">
        <ele>408.4</ele>
        <time>2026-05-24T07:54:19Z</time>
      </trkpt>
      <trkpt lat="47.13399" lon="6.13006">
        <ele>408.2</ele>
        <time>2026-05-24T07:54:20Z</time>
      </trkpt>
      <trkpt lat="47.13399" lon="6.13007">
        <ele>408.4</ele>
        <time>2026-05-24T07:54:21Z</time>
      </trkpt>
      <trkpt lat="47.134" lon="6.13008">
        <ele>408.4</ele>
        <time>2026-05-24T07:54:22Z</time>
      </trkpt>
      <trkpt lat="47.134" lon="6.13008">
        <ele>408.6</ele>
        <time>2026-05-24T07:54:23Z</time>
      </trkpt>
      <trkpt lat="47.13401" lon="6.1301">
        <ele>408.6</ele>
        <time>2026-05-24T07:54:24Z</time>
      </trkpt>
      <trkpt lat="47.13403" lon="6.13013">
        <ele>408.6</ele>
        <time>2026-05-24T07:54:25Z</time>
      </trkpt>
      <trkpt lat="47.13404" lon="6.13016">
        <ele>408.6</ele>
        <time>2026-05-24T07:54:26Z</time>
      </trkpt>
      <trkpt lat="47.13406" lon="6.13019">
        <ele>408.8</ele>
        <time>2026-05-24T07:54:27Z</time>
      </trkpt>
      <trkpt lat="47.13407" lon="6.13023">
        <ele>408.8</ele>
        <time>2026-05-24T07:54:28Z</time>
      </trkpt>
      <trkpt lat="47.13409" lon="6.13027">
        <ele>408.6</ele>
        <time>2026-05-24T07:54:29Z</time>
      </trkpt>
      <trkpt lat="47.13411" lon="6.13032">
        <ele>408.8</ele>
        <time>2026-05-24T07:54:30Z</time>
      </trkpt>
      <trkpt lat="47.13413" lon="6.13037">
        <ele>408.8</ele>
        <time>2026-05-24T07:54:31Z</time>
      </trkpt>
      <trkpt lat="47.13414" lon="6.13042">
        <ele>408.8</ele>
        <time>2026-05-24T07:54:32Z</time>
      </trkpt>
      <trkpt lat="47.13416" lon="6.13047">
        <ele>408.8</ele>
        <time>2026-05-24T07:54:33Z</time>
      </trkpt>
      <trkpt lat="47.13417" lon="6.13051">
        <ele>408.8</ele>
        <time>2026-05-24T07:54:34Z</time>
      </trkpt>
      <trkpt lat="47.13419" lon="6.13055">
        <ele>409</ele>
        <time>2026-05-24T07:54:35Z</time>
      </trkpt>
      <trkpt lat="47.1342" lon="6.13059">
        <ele>409</ele>
        <time>2026-05-24T07:54:36Z</time>
      </trkpt>
      <trkpt lat="47.13422" lon="6.13063">
        <ele>409</ele>
        <time>2026-05-24T07:54:37Z</time>
      </trkpt>
      <trkpt lat="47.13425" lon="6.13067">
        <ele>409</ele>
        <time>2026-05-24T07:54:38Z</time>
      </trkpt>
      <trkpt lat="47.13427" lon="6.13071">
        <ele>409</ele>
        <time>2026-05-24T07:54:39Z</time>
      </trkpt>
      <trkpt lat="47.13429" lon="6.13075">
        <ele>409</ele>
        <time>2026-05-24T07:54:40Z</time>
      </trkpt>
      <trkpt lat="47.1343" lon="6.1308">
        <ele>409</ele>
        <time>2026-05-24T07:54:41Z</time>
      </trkpt>
      <trkpt lat="47.13431" lon="6.13086">
        <ele>409.2</ele>
        <time>2026-05-24T07:54:42Z</time>
      </trkpt>
      <trkpt lat="47.13432" lon="6.13091">
        <ele>409.2</ele>
        <time>2026-05-24T07:54:43Z</time>
      </trkpt>
      <trkpt lat="47.13434" lon="6.13096">
        <ele>409.4</ele>
        <time>2026-05-24T07:54:44Z</time>
      </trkpt>
      <trkpt lat="47.13436" lon="6.13102">
        <ele>409.6</ele>
        <time>2026-05-24T07:54:45Z</time>
      </trkpt>
      <trkpt lat="47.13438" lon="6.13107">
        <ele>409.6</ele>
        <time>2026-05-24T07:54:46Z</time>
      </trkpt>
      <trkpt lat="47.13439" lon="6.13112">
        <ele>409.6</ele>
        <time>2026-05-24T07:54:47Z</time>
      </trkpt>
      <trkpt lat="47.13442" lon="6.13117">
        <ele>409.6</ele>
        <time>2026-05-24T07:54:48Z</time>
      </trkpt>
      <trkpt lat="47.13443" lon="6.13122">
        <ele>409.8</ele>
        <time>2026-05-24T07:54:49Z</time>
      </trkpt>
      <trkpt lat="47.13445" lon="6.13127">
        <ele>410</ele>
        <time>2026-05-24T07:54:50Z</time>
      </trkpt>
      <trkpt lat="47.13447" lon="6.13131">
        <ele>409.8</ele>
        <time>2026-05-24T07:54:51Z</time>
      </trkpt>
      <trkpt lat="47.13449" lon="6.13136">
        <ele>410</ele>
        <time>2026-05-24T07:54:52Z</time>
      </trkpt>
      <trkpt lat="47.13451" lon="6.13141">
        <ele>410.2</ele>
        <time>2026-05-24T07:54:53Z</time>
      </trkpt>
      <trkpt lat="47.13453" lon="6.13145">
        <ele>410.4</ele>
        <time>2026-05-24T07:54:54Z</time>
      </trkpt>
      <trkpt lat="47.13455" lon="6.1315">
        <ele>410.4</ele>
        <time>2026-05-24T07:54:55Z</time>
      </trkpt>
      <trkpt lat="47.13458" lon="6.13154">
        <ele>410.4</ele>
        <time>2026-05-24T07:54:56Z</time>
      </trkpt>
      <trkpt lat="47.1346" lon="6.13158">
        <ele>410.6</ele>
        <time>2026-05-24T07:54:57Z</time>
      </trkpt>
      <trkpt lat="47.13462" lon="6.13163">
        <ele>410.8</ele>
        <time>2026-05-24T07:54:58Z</time>
      </trkpt>
      <trkpt lat="47.13464" lon="6.13167">
        <ele>410.8</ele>
        <time>2026-05-24T07:54:59Z</time>
      </trkpt>
      <trkpt lat="47.13466" lon="6.13172">
        <ele>411</ele>
        <time>2026-05-24T07:55:00Z</time>
      </trkpt>
      <trkpt lat="47.13469" lon="6.13176">
        <ele>411.2</ele>
        <time>2026-05-24T07:55:01Z</time>
      </trkpt>
      <trkpt lat="47.13472" lon="6.13179">
        <ele>411.2</ele>
        <time>2026-05-24T07:55:02Z</time>
      </trkpt>
      <trkpt lat="47.13474" lon="6.13183">
        <ele>411.6</ele>
        <time>2026-05-24T07:55:03Z</time>
      </trkpt>
      <trkpt lat="47.13477" lon="6.13186">
        <ele>411.6</ele>
        <time>2026-05-24T07:55:04Z</time>
      </trkpt>
      <trkpt lat="47.1348" lon="6.1319">
        <ele>411.8</ele>
        <time>2026-05-24T07:55:05Z</time>
      </trkpt>
      <trkpt lat="47.13482" lon="6.13194">
        <ele>411.8</ele>
        <time>2026-05-24T07:55:06Z</time>
      </trkpt>
      <trkpt lat="47.13484" lon="6.13197">
        <ele>411.8</ele>
        <time>2026-05-24T07:55:07Z</time>
      </trkpt>
      <trkpt lat="47.13486" lon="6.13201">
        <ele>411.8</ele>
        <time>2026-05-24T07:55:08Z</time>
      </trkpt>
      <trkpt lat="47.13488" lon="6.13205">
        <ele>412</ele>
        <time>2026-05-24T07:55:09Z</time>
      </trkpt>
      <trkpt lat="47.1349" lon="6.13209">
        <ele>412</ele>
        <time>2026-05-24T07:55:10Z</time>
      </trkpt>
      <trkpt lat="47.13493" lon="6.13213">
        <ele>412.2</ele>
        <time>2026-05-24T07:55:11Z</time>
      </trkpt>
      <trkpt lat="47.13496" lon="6.13218">
        <ele>412.2</ele>
        <time>2026-05-24T07:55:12Z</time>
      </trkpt>
      <trkpt lat="47.135" lon="6.13221">
        <ele>412.4</ele>
        <time>2026-05-24T07:55:13Z</time>
      </trkpt>
      <trkpt lat="47.13503" lon="6.13226">
        <ele>412.4</ele>
        <time>2026-05-24T07:55:14Z</time>
      </trkpt>
      <trkpt lat="47.13506" lon="6.13229">
        <ele>412.8</ele>
        <time>2026-05-24T07:55:15Z</time>
      </trkpt>
      <trkpt lat="47.13508" lon="6.13233">
        <ele>412.8</ele>
        <time>2026-05-24T07:55:16Z</time>
      </trkpt>
      <trkpt lat="47.1351" lon="6.13239">
        <ele>413</ele>
        <time>2026-05-24T07:55:17Z</time>
      </trkpt>
      <trkpt lat="47.13513" lon="6.13244">
        <ele>413.2</ele>
        <time>2026-05-24T07:55:18Z</time>
      </trkpt>
      <trkpt lat="47.13518" lon="6.13254">
        <ele>413.4</ele>
        <time>2026-05-24T07:55:19Z</time>
      </trkpt>
      <trkpt lat="47.13518" lon="6.13254">
        <ele>413.6</ele>
        <time>2026-05-24T07:55:20Z</time>
      </trkpt>
      <trkpt lat="47.13521" lon="6.1326">
        <ele>413.4</ele>
        <time>2026-05-24T07:55:21Z</time>
      </trkpt>
      <trkpt lat="47.13524" lon="6.13265">
        <ele>413.6</ele>
        <time>2026-05-24T07:55:22Z</time>
      </trkpt>
      <trkpt lat="47.13527" lon="6.13271">
        <ele>413.6</ele>
        <time>2026-05-24T07:55:23Z</time>
      </trkpt>
      <trkpt lat="47.1353" lon="6.13276">
        <ele>413.6</ele>
        <time>2026-05-24T07:55:24Z</time>
      </trkpt>
      <trkpt lat="47.13532" lon="6.13281">
        <ele>413.8</ele>
        <time>2026-05-24T07:55:25Z</time>
      </trkpt>
      <trkpt lat="47.13536" lon="6.13286">
        <ele>414</ele>
        <time>2026-05-24T07:55:26Z</time>
      </trkpt>
      <trkpt lat="47.13538" lon="6.13291">
        <ele>414.2</ele>
        <time>2026-05-24T07:55:27Z</time>
      </trkpt>
      <trkpt lat="47.1354" lon="6.13297">
        <ele>414.2</ele>
        <time>2026-05-24T07:55:28Z</time>
      </trkpt>
      <trkpt lat="47.13543" lon="6.13301">
        <ele>414.4</ele>
        <time>2026-05-24T07:55:29Z</time>
      </trkpt>
      <trkpt lat="47.13546" lon="6.13307">
        <ele>414.4</ele>
        <time>2026-05-24T07:55:30Z</time>
      </trkpt>
      <trkpt lat="47.13548" lon="6.13313">
        <ele>414.4</ele>
        <time>2026-05-24T07:55:31Z</time>
      </trkpt>
      <trkpt lat="47.13551" lon="6.13319">
        <ele>414.4</ele>
        <time>2026-05-24T07:55:32Z</time>
      </trkpt>
      <trkpt lat="47.13554" lon="6.13325">
        <ele>414.6</ele>
        <time>2026-05-24T07:55:33Z</time>
      </trkpt>
      <trkpt lat="47.13556" lon="6.13332">
        <ele>414.6</ele>
        <time>2026-05-24T07:55:34Z</time>
      </trkpt>
      <trkpt lat="47.13558" lon="6.13338">
        <ele>414.6</ele>
        <time>2026-05-24T07:55:35Z</time>
      </trkpt>
      <trkpt lat="47.1356" lon="6.13344">
        <ele>414.8</ele>
        <time>2026-05-24T07:55:36Z</time>
      </trkpt>
      <trkpt lat="47.13562" lon="6.13351">
        <ele>414.8</ele>
        <time>2026-05-24T07:55:37Z</time>
      </trkpt>
      <trkpt lat="47.13565" lon="6.13356">
        <ele>415</ele>
        <time>2026-05-24T07:55:38Z</time>
      </trkpt>
      <trkpt lat="47.13567" lon="6.13362">
        <ele>415.2</ele>
        <time>2026-05-24T07:55:39Z</time>
      </trkpt>
      <trkpt lat="47.13569" lon="6.13369">
        <ele>415.4</ele>
        <time>2026-05-24T07:55:40Z</time>
      </trkpt>
      <trkpt lat="47.13571" lon="6.13375">
        <ele>415.4</ele>
        <time>2026-05-24T07:55:41Z</time>
      </trkpt>
      <trkpt lat="47.13573" lon="6.13382">
        <ele>415.6</ele>
        <time>2026-05-24T07:55:42Z</time>
      </trkpt>
      <trkpt lat="47.13574" lon="6.13389">
        <ele>415.6</ele>
        <time>2026-05-24T07:55:43Z</time>
      </trkpt>
      <trkpt lat="47.13577" lon="6.13396">
        <ele>415.8</ele>
        <time>2026-05-24T07:55:44Z</time>
      </trkpt>
      <trkpt lat="47.13578" lon="6.13402">
        <ele>416</ele>
        <time>2026-05-24T07:55:45Z</time>
      </trkpt>
      <trkpt lat="47.13579" lon="6.13408">
        <ele>416</ele>
        <time>2026-05-24T07:55:46Z</time>
      </trkpt>
      <trkpt lat="47.13581" lon="6.13414">
        <ele>416</ele>
        <time>2026-05-24T07:55:47Z</time>
      </trkpt>
      <trkpt lat="47.13582" lon="6.1342">
        <ele>416.4</ele>
        <time>2026-05-24T07:55:48Z</time>
      </trkpt>
      <trkpt lat="47.13583" lon="6.13426">
        <ele>416.6</ele>
        <time>2026-05-24T07:55:49Z</time>
      </trkpt>
      <trkpt lat="47.13585" lon="6.13432">
        <ele>416.6</ele>
        <time>2026-05-24T07:55:50Z</time>
      </trkpt>
      <trkpt lat="47.13585" lon="6.13439">
        <ele>416.8</ele>
        <time>2026-05-24T07:55:51Z</time>
      </trkpt>
      <trkpt lat="47.13586" lon="6.13445">
        <ele>416.8</ele>
        <time>2026-05-24T07:55:52Z</time>
      </trkpt>
      <trkpt lat="47.13587" lon="6.13451">
        <ele>416.8</ele>
        <time>2026-05-24T07:55:53Z</time>
      </trkpt>
      <trkpt lat="47.13587" lon="6.13457">
        <ele>417</ele>
        <time>2026-05-24T07:55:54Z</time>
      </trkpt>
      <trkpt lat="47.13588" lon="6.13463">
        <ele>417.2</ele>
        <time>2026-05-24T07:55:55Z</time>
      </trkpt>
      <trkpt lat="47.13588" lon="6.13469">
        <ele>417.6</ele>
        <time>2026-05-24T07:55:56Z</time>
      </trkpt>
      <trkpt lat="47.13589" lon="6.13475">
        <ele>417.6</ele>
        <time>2026-05-24T07:55:57Z</time>
      </trkpt>
      <trkpt lat="47.1359" lon="6.13481">
        <ele>417.8</ele>
        <time>2026-05-24T07:55:58Z</time>
      </trkpt>
      <trkpt lat="47.1359" lon="6.13486">
        <ele>417.8</ele>
        <time>2026-05-24T07:55:59Z</time>
      </trkpt>
      <trkpt lat="47.13591" lon="6.13491">
        <ele>418</ele>
        <time>2026-05-24T07:56:00Z</time>
      </trkpt>
      <trkpt lat="47.13591" lon="6.13497">
        <ele>418</ele>
        <time>2026-05-24T07:56:01Z</time>
      </trkpt>
      <trkpt lat="47.13592" lon="6.13502">
        <ele>418</ele>
        <time>2026-05-24T07:56:02Z</time>
      </trkpt>
      <trkpt lat="47.13592" lon="6.13507">
        <ele>418</ele>
        <time>2026-05-24T07:56:03Z</time>
      </trkpt>
      <trkpt lat="47.13593" lon="6.13513">
        <ele>418.2</ele>
        <time>2026-05-24T07:56:04Z</time>
      </trkpt>
      <trkpt lat="47.13594" lon="6.13518">
        <ele>418.2</ele>
        <time>2026-05-24T07:56:05Z</time>
      </trkpt>
      <trkpt lat="47.13594" lon="6.13523">
        <ele>418.4</ele>
        <time>2026-05-24T07:56:06Z</time>
      </trkpt>
      <trkpt lat="47.13595" lon="6.13529">
        <ele>418.4</ele>
        <time>2026-05-24T07:56:07Z</time>
      </trkpt>
      <trkpt lat="47.13596" lon="6.13535">
        <ele>418.8</ele>
        <time>2026-05-24T07:56:08Z</time>
      </trkpt>
      <trkpt lat="47.13598" lon="6.13541">
        <ele>418.6</ele>
        <time>2026-05-24T07:56:09Z</time>
      </trkpt>
      <trkpt lat="47.13599" lon="6.13547">
        <ele>418.8</ele>
        <time>2026-05-24T07:56:10Z</time>
      </trkpt>
      <trkpt lat="47.13601" lon="6.13554">
        <ele>418.8</ele>
        <time>2026-05-24T07:56:11Z</time>
      </trkpt>
      <trkpt lat="47.13603" lon="6.13559">
        <ele>419</ele>
        <time>2026-05-24T07:56:12Z</time>
      </trkpt>
      <trkpt lat="47.13604" lon="6.13565">
        <ele>419.2</ele>
        <time>2026-05-24T07:56:13Z</time>
      </trkpt>
      <trkpt lat="47.13605" lon="6.13571">
        <ele>419.2</ele>
        <time>2026-05-24T07:56:14Z</time>
      </trkpt>
      <trkpt lat="47.13606" lon="6.13578">
        <ele>419.2</ele>
        <time>2026-05-24T07:56:15Z</time>
      </trkpt>
      <trkpt lat="47.13606" lon="6.13584">
        <ele>419.4</ele>
        <time>2026-05-24T07:56:16Z</time>
      </trkpt>
      <trkpt lat="47.13607" lon="6.1359">
        <ele>419.4</ele>
        <time>2026-05-24T07:56:17Z</time>
      </trkpt>
      <trkpt lat="47.13607" lon="6.13596">
        <ele>419.6</ele>
        <time>2026-05-24T07:56:18Z</time>
      </trkpt>
      <trkpt lat="47.13608" lon="6.13602">
        <ele>419.8</ele>
        <time>2026-05-24T07:56:19Z</time>
      </trkpt>
      <trkpt lat="47.13608" lon="6.13608">
        <ele>419.8</ele>
        <time>2026-05-24T07:56:20Z</time>
      </trkpt>
      <trkpt lat="47.13608" lon="6.13615">
        <ele>420</ele>
        <time>2026-05-24T07:56:21Z</time>
      </trkpt>
      <trkpt lat="47.13609" lon="6.13621">
        <ele>420</ele>
        <time>2026-05-24T07:56:22Z</time>
      </trkpt>
      <trkpt lat="47.13609" lon="6.13627">
        <ele>420.2</ele>
        <time>2026-05-24T07:56:23Z</time>
      </trkpt>
      <trkpt lat="47.13609" lon="6.13633">
        <ele>420.4</ele>
        <time>2026-05-24T07:56:24Z</time>
      </trkpt>
      <trkpt lat="47.1361" lon="6.13639">
        <ele>420.4</ele>
        <time>2026-05-24T07:56:25Z</time>
      </trkpt>
      <trkpt lat="47.13611" lon="6.13651">
        <ele>420.4</ele>
        <time>2026-05-24T07:56:26Z</time>
      </trkpt>
      <trkpt lat="47.13611" lon="6.13651">
        <ele>420.4</ele>
        <time>2026-05-24T07:56:27Z</time>
      </trkpt>
      <trkpt lat="47.13611" lon="6.13657">
        <ele>420.8</ele>
        <time>2026-05-24T07:56:28Z</time>
      </trkpt>
      <trkpt lat="47.13612" lon="6.13663">
        <ele>420.6</ele>
        <time>2026-05-24T07:56:29Z</time>
      </trkpt>
      <trkpt lat="47.13613" lon="6.13676">
        <ele>420.6</ele>
        <time>2026-05-24T07:56:30Z</time>
      </trkpt>
      <trkpt lat="47.13613" lon="6.13676">
        <ele>420.8</ele>
        <time>2026-05-24T07:56:31Z</time>
      </trkpt>
      <trkpt lat="47.13613" lon="6.13682">
        <ele>421</ele>
        <time>2026-05-24T07:56:32Z</time>
      </trkpt>
      <trkpt lat="47.13614" lon="6.13689">
        <ele>421.2</ele>
        <time>2026-05-24T07:56:33Z</time>
      </trkpt>
      <trkpt lat="47.13615" lon="6.13696">
        <ele>421.2</ele>
        <time>2026-05-24T07:56:34Z</time>
      </trkpt>
      <trkpt lat="47.13616" lon="6.13702">
        <ele>421.6</ele>
        <time>2026-05-24T07:56:35Z</time>
      </trkpt>
      <trkpt lat="47.13617" lon="6.13708">
        <ele>421.6</ele>
        <time>2026-05-24T07:56:36Z</time>
      </trkpt>
      <trkpt lat="47.13617" lon="6.13713">
        <ele>421.6</ele>
        <time>2026-05-24T07:56:37Z</time>
      </trkpt>
      <trkpt lat="47.13618" lon="6.13719">
        <ele>421.8</ele>
        <time>2026-05-24T07:56:38Z</time>
      </trkpt>
      <trkpt lat="47.13619" lon="6.13725">
        <ele>421.8</ele>
        <time>2026-05-24T07:56:39Z</time>
      </trkpt>
      <trkpt lat="47.1362" lon="6.13731">
        <ele>421.8</ele>
        <time>2026-05-24T07:56:40Z</time>
      </trkpt>
      <trkpt lat="47.13621" lon="6.13737">
        <ele>422.2</ele>
        <time>2026-05-24T07:56:41Z</time>
      </trkpt>
      <trkpt lat="47.13622" lon="6.13742">
        <ele>422</ele>
        <time>2026-05-24T07:56:42Z</time>
      </trkpt>
      <trkpt lat="47.13623" lon="6.13747">
        <ele>422.2</ele>
        <time>2026-05-24T07:56:43Z</time>
      </trkpt>
      <trkpt lat="47.13624" lon="6.13752">
        <ele>422.2</ele>
        <time>2026-05-24T07:56:44Z</time>
      </trkpt>
      <trkpt lat="47.13627" lon="6.13758">
        <ele>422.4</ele>
        <time>2026-05-24T07:56:45Z</time>
      </trkpt>
      <trkpt lat="47.13629" lon="6.13764">
        <ele>422.4</ele>
        <time>2026-05-24T07:56:46Z</time>
      </trkpt>
      <trkpt lat="47.13631" lon="6.13769">
        <ele>422.8</ele>
        <time>2026-05-24T07:56:47Z</time>
      </trkpt>
      <trkpt lat="47.13634" lon="6.13774">
        <ele>422.8</ele>
        <time>2026-05-24T07:56:48Z</time>
      </trkpt>
      <trkpt lat="47.13636" lon="6.1378">
        <ele>423</ele>
        <time>2026-05-24T07:56:49Z</time>
      </trkpt>
      <trkpt lat="47.13639" lon="6.13784">
        <ele>423.2</ele>
        <time>2026-05-24T07:56:50Z</time>
      </trkpt>
      <trkpt lat="47.13641" lon="6.13789">
        <ele>423.2</ele>
        <time>2026-05-24T07:56:51Z</time>
      </trkpt>
      <trkpt lat="47.13643" lon="6.13793">
        <ele>423.4</ele>
        <time>2026-05-24T07:56:52Z</time>
      </trkpt>
      <trkpt lat="47.13645" lon="6.13798">
        <ele>423.6</ele>
        <time>2026-05-24T07:56:53Z</time>
      </trkpt>
      <trkpt lat="47.13647" lon="6.13803">
        <ele>423.6</ele>
        <time>2026-05-24T07:56:54Z</time>
      </trkpt>
      <trkpt lat="47.13649" lon="6.13808">
        <ele>423.8</ele>
        <time>2026-05-24T07:56:55Z</time>
      </trkpt>
      <trkpt lat="47.13651" lon="6.13812">
        <ele>423.8</ele>
        <time>2026-05-24T07:56:56Z</time>
      </trkpt>
      <trkpt lat="47.13652" lon="6.13817">
        <ele>424.2</ele>
        <time>2026-05-24T07:56:57Z</time>
      </trkpt>
      <trkpt lat="47.13654" lon="6.13821">
        <ele>424.2</ele>
        <time>2026-05-24T07:56:58Z</time>
      </trkpt>
      <trkpt lat="47.13656" lon="6.13826">
        <ele>424.2</ele>
        <time>2026-05-24T07:56:59Z</time>
      </trkpt>
      <trkpt lat="47.13659" lon="6.1383">
        <ele>424.4</ele>
        <time>2026-05-24T07:57:00Z</time>
      </trkpt>
      <trkpt lat="47.13662" lon="6.13835">
        <ele>424.4</ele>
        <time>2026-05-24T07:57:01Z</time>
      </trkpt>
      <trkpt lat="47.13664" lon="6.13839">
        <ele>424.4</ele>
        <time>2026-05-24T07:57:02Z</time>
      </trkpt>
      <trkpt lat="47.13667" lon="6.13844">
        <ele>424.4</ele>
        <time>2026-05-24T07:57:03Z</time>
      </trkpt>
      <trkpt lat="47.13668" lon="6.1385">
        <ele>424.6</ele>
        <time>2026-05-24T07:57:04Z</time>
      </trkpt>
      <trkpt lat="47.1367" lon="6.13856">
        <ele>424.6</ele>
        <time>2026-05-24T07:57:05Z</time>
      </trkpt>
      <trkpt lat="47.13672" lon="6.13861">
        <ele>424.6</ele>
        <time>2026-05-24T07:57:06Z</time>
      </trkpt>
      <trkpt lat="47.13674" lon="6.13867">
        <ele>424.8</ele>
        <time>2026-05-24T07:57:07Z</time>
      </trkpt>
      <trkpt lat="47.13675" lon="6.13872">
        <ele>425</ele>
        <time>2026-05-24T07:57:08Z</time>
      </trkpt>
      <trkpt lat="47.13677" lon="6.13877">
        <ele>425</ele>
        <time>2026-05-24T07:57:09Z</time>
      </trkpt>
      <trkpt lat="47.13678" lon="6.13883">
        <ele>425.2</ele>
        <time>2026-05-24T07:57:10Z</time>
      </trkpt>
      <trkpt lat="47.13681" lon="6.13894">
        <ele>425.4</ele>
        <time>2026-05-24T07:57:11Z</time>
      </trkpt>
      <trkpt lat="47.13681" lon="6.13894">
        <ele>425.4</ele>
        <time>2026-05-24T07:57:12Z</time>
      </trkpt>
      <trkpt lat="47.13683" lon="6.13901">
        <ele>425.6</ele>
        <time>2026-05-24T07:57:13Z</time>
      </trkpt>
      <trkpt lat="47.13684" lon="6.13907">
        <ele>425.6</ele>
        <time>2026-05-24T07:57:14Z</time>
      </trkpt>
      <trkpt lat="47.13686" lon="6.13912">
        <ele>426</ele>
        <time>2026-05-24T07:57:15Z</time>
      </trkpt>
      <trkpt lat="47.13688" lon="6.13918">
        <ele>426</ele>
        <time>2026-05-24T07:57:16Z</time>
      </trkpt>
      <trkpt lat="47.13689" lon="6.13924">
        <ele>426.2</ele>
        <time>2026-05-24T07:57:17Z</time>
      </trkpt>
      <trkpt lat="47.13691" lon="6.1393">
        <ele>426.4</ele>
        <time>2026-05-24T07:57:18Z</time>
      </trkpt>
      <trkpt lat="47.13692" lon="6.13935">
        <ele>426.6</ele>
        <time>2026-05-24T07:57:19Z</time>
      </trkpt>
      <trkpt lat="47.13693" lon="6.13941">
        <ele>426.6</ele>
        <time>2026-05-24T07:57:20Z</time>
      </trkpt>
      <trkpt lat="47.13694" lon="6.13947">
        <ele>426.6</ele>
        <time>2026-05-24T07:57:21Z</time>
      </trkpt>
      <trkpt lat="47.13694" lon="6.13953">
        <ele>426.8</ele>
        <time>2026-05-24T07:57:22Z</time>
      </trkpt>
      <trkpt lat="47.13695" lon="6.13958">
        <ele>426.8</ele>
        <time>2026-05-24T07:57:23Z</time>
      </trkpt>
      <trkpt lat="47.13696" lon="6.13965">
        <ele>427</ele>
        <time>2026-05-24T07:57:24Z</time>
      </trkpt>
      <trkpt lat="47.13697" lon="6.13972">
        <ele>427.2</ele>
        <time>2026-05-24T07:57:25Z</time>
      </trkpt>
      <trkpt lat="47.13697" lon="6.13979">
        <ele>427.2</ele>
        <time>2026-05-24T07:57:26Z</time>
      </trkpt>
      <trkpt lat="47.13698" lon="6.13985">
        <ele>427.4</ele>
        <time>2026-05-24T07:57:27Z</time>
      </trkpt>
      <trkpt lat="47.13699" lon="6.1399">
        <ele>427.4</ele>
        <time>2026-05-24T07:57:28Z</time>
      </trkpt>
      <trkpt lat="47.137" lon="6.13995">
        <ele>427.4</ele>
        <time>2026-05-24T07:57:29Z</time>
      </trkpt>
      <trkpt lat="47.13701" lon="6.14001">
        <ele>427.6</ele>
        <time>2026-05-24T07:57:30Z</time>
      </trkpt>
      <trkpt lat="47.13702" lon="6.14006">
        <ele>427.6</ele>
        <time>2026-05-24T07:57:31Z</time>
      </trkpt>
      <trkpt lat="47.13702" lon="6.14011">
        <ele>427.8</ele>
        <time>2026-05-24T07:57:32Z</time>
      </trkpt>
      <trkpt lat="47.13702" lon="6.14016">
        <ele>428</ele>
        <time>2026-05-24T07:57:33Z</time>
      </trkpt>
      <trkpt lat="47.13703" lon="6.14022">
        <ele>428</ele>
        <time>2026-05-24T07:57:34Z</time>
      </trkpt>
      <trkpt lat="47.13702" lon="6.14028">
        <ele>428.2</ele>
        <time>2026-05-24T07:57:35Z</time>
      </trkpt>
      <trkpt lat="47.13701" lon="6.14034">
        <ele>428</ele>
        <time>2026-05-24T07:57:36Z</time>
      </trkpt>
      <trkpt lat="47.13701" lon="6.14046">
        <ele>428.2</ele>
        <time>2026-05-24T07:57:37Z</time>
      </trkpt>
      <trkpt lat="47.13701" lon="6.14046">
        <ele>428.4</ele>
        <time>2026-05-24T07:57:38Z</time>
      </trkpt>
      <trkpt lat="47.13701" lon="6.14052">
        <ele>428.4</ele>
        <time>2026-05-24T07:57:39Z</time>
      </trkpt>
      <trkpt lat="47.13702" lon="6.14059">
        <ele>428.6</ele>
        <time>2026-05-24T07:57:40Z</time>
      </trkpt>
      <trkpt lat="47.13703" lon="6.14064">
        <ele>428.6</ele>
        <time>2026-05-24T07:57:41Z</time>
      </trkpt>
      <trkpt lat="47.13703" lon="6.1407">
        <ele>428.6</ele>
        <time>2026-05-24T07:57:42Z</time>
      </trkpt>
      <trkpt lat="47.13703" lon="6.14076">
        <ele>428.6</ele>
        <time>2026-05-24T07:57:43Z</time>
      </trkpt>
      <trkpt lat="47.13704" lon="6.1408">
        <ele>428.8</ele>
        <time>2026-05-24T07:57:44Z</time>
      </trkpt>
      <trkpt lat="47.13704" lon="6.14085">
        <ele>428.8</ele>
        <time>2026-05-24T07:57:45Z</time>
      </trkpt>
      <trkpt lat="47.13705" lon="6.14091">
        <ele>429</ele>
        <time>2026-05-24T07:57:46Z</time>
      </trkpt>
      <trkpt lat="47.13705" lon="6.14096">
        <ele>429</ele>
        <time>2026-05-24T07:57:47Z</time>
      </trkpt>
      <trkpt lat="47.13705" lon="6.14102">
        <ele>429.2</ele>
        <time>2026-05-24T07:57:48Z</time>
      </trkpt>
      <trkpt lat="47.13704" lon="6.14108">
        <ele>429.2</ele>
        <time>2026-05-24T07:57:49Z</time>
      </trkpt>
      <trkpt lat="47.13703" lon="6.14114">
        <ele>429.4</ele>
        <time>2026-05-24T07:57:50Z</time>
      </trkpt>
      <trkpt lat="47.13702" lon="6.1412">
        <ele>429.4</ele>
        <time>2026-05-24T07:57:51Z</time>
      </trkpt>
      <trkpt lat="47.13702" lon="6.14126">
        <ele>429.6</ele>
        <time>2026-05-24T07:57:52Z</time>
      </trkpt>
      <trkpt lat="47.13702" lon="6.14132">
        <ele>429.8</ele>
        <time>2026-05-24T07:57:53Z</time>
      </trkpt>
      <trkpt lat="47.13701" lon="6.14139">
        <ele>430</ele>
        <time>2026-05-24T07:57:54Z</time>
      </trkpt>
      <trkpt lat="47.13701" lon="6.14145">
        <ele>430</ele>
        <time>2026-05-24T07:57:55Z</time>
      </trkpt>
      <trkpt lat="47.13701" lon="6.14151">
        <ele>430.2</ele>
        <time>2026-05-24T07:57:56Z</time>
      </trkpt>
      <trkpt lat="47.13701" lon="6.14157">
        <ele>430.4</ele>
        <time>2026-05-24T07:57:57Z</time>
      </trkpt>
      <trkpt lat="47.137" lon="6.1417">
        <ele>430.4</ele>
        <time>2026-05-24T07:57:58Z</time>
      </trkpt>
      <trkpt lat="47.137" lon="6.1417">
        <ele>430.8</ele>
        <time>2026-05-24T07:57:59Z</time>
      </trkpt>
      <trkpt lat="47.137" lon="6.14177">
        <ele>431</ele>
        <time>2026-05-24T07:58:00Z</time>
      </trkpt>
      <trkpt lat="47.13699" lon="6.14183">
        <ele>431.2</ele>
        <time>2026-05-24T07:58:01Z</time>
      </trkpt>
      <trkpt lat="47.13698" lon="6.1419">
        <ele>431.2</ele>
        <time>2026-05-24T07:58:02Z</time>
      </trkpt>
      <trkpt lat="47.13697" lon="6.14197">
        <ele>431.2</ele>
        <time>2026-05-24T07:58:03Z</time>
      </trkpt>
      <trkpt lat="47.13695" lon="6.14203">
        <ele>431.4</ele>
        <time>2026-05-24T07:58:04Z</time>
      </trkpt>
      <trkpt lat="47.13694" lon="6.1421">
        <ele>431.4</ele>
        <time>2026-05-24T07:58:05Z</time>
      </trkpt>
      <trkpt lat="47.13693" lon="6.14218">
        <ele>431.4</ele>
        <time>2026-05-24T07:58:06Z</time>
      </trkpt>
      <trkpt lat="47.13692" lon="6.14224">
        <ele>431.6</ele>
        <time>2026-05-24T07:58:07Z</time>
      </trkpt>
      <trkpt lat="47.13691" lon="6.14232">
        <ele>431.8</ele>
        <time>2026-05-24T07:58:08Z</time>
      </trkpt>
      <trkpt lat="47.1369" lon="6.14239">
        <ele>431.8</ele>
        <time>2026-05-24T07:58:09Z</time>
      </trkpt>
      <trkpt lat="47.13689" lon="6.14245">
        <ele>432</ele>
        <time>2026-05-24T07:58:10Z</time>
      </trkpt>
      <trkpt lat="47.13688" lon="6.14251">
        <ele>432.2</ele>
        <time>2026-05-24T07:58:11Z</time>
      </trkpt>
      <trkpt lat="47.13687" lon="6.14258">
        <ele>432.2</ele>
        <time>2026-05-24T07:58:12Z</time>
      </trkpt>
      <trkpt lat="47.13686" lon="6.14264">
        <ele>432.2</ele>
        <time>2026-05-24T07:58:13Z</time>
      </trkpt>
      <trkpt lat="47.13684" lon="6.14269">
        <ele>432.4</ele>
        <time>2026-05-24T07:58:14Z</time>
      </trkpt>
      <trkpt lat="47.13683" lon="6.14276">
        <ele>432.6</ele>
        <time>2026-05-24T07:58:15Z</time>
      </trkpt>
      <trkpt lat="47.13681" lon="6.14282">
        <ele>432.6</ele>
        <time>2026-05-24T07:58:16Z</time>
      </trkpt>
      <trkpt lat="47.13678" lon="6.14287">
        <ele>432.6</ele>
        <time>2026-05-24T07:58:17Z</time>
      </trkpt>
      <trkpt lat="47.13675" lon="6.14292">
        <ele>432.8</ele>
        <time>2026-05-24T07:58:18Z</time>
      </trkpt>
      <trkpt lat="47.13673" lon="6.14298">
        <ele>432.8</ele>
        <time>2026-05-24T07:58:19Z</time>
      </trkpt>
      <trkpt lat="47.13671" lon="6.14304">
        <ele>433</ele>
        <time>2026-05-24T07:58:20Z</time>
      </trkpt>
      <trkpt lat="47.13668" lon="6.1431">
        <ele>433</ele>
        <time>2026-05-24T07:58:21Z</time>
      </trkpt>
      <trkpt lat="47.13666" lon="6.14316">
        <ele>433.2</ele>
        <time>2026-05-24T07:58:22Z</time>
      </trkpt>
      <trkpt lat="47.13664" lon="6.14322">
        <ele>433.4</ele>
        <time>2026-05-24T07:58:23Z</time>
      </trkpt>
      <trkpt lat="47.13662" lon="6.14328">
        <ele>433.6</ele>
        <time>2026-05-24T07:58:24Z</time>
      </trkpt>
      <trkpt lat="47.13658" lon="6.14339">
        <ele>433.8</ele>
        <time>2026-05-24T07:58:25Z</time>
      </trkpt>
      <trkpt lat="47.13658" lon="6.14339">
        <ele>434.2</ele>
        <time>2026-05-24T07:58:26Z</time>
      </trkpt>
      <trkpt lat="47.13656" lon="6.14345">
        <ele>434.2</ele>
        <time>2026-05-24T07:58:27Z</time>
      </trkpt>
      <trkpt lat="47.13654" lon="6.1435">
        <ele>434.2</ele>
        <time>2026-05-24T07:58:28Z</time>
      </trkpt>
      <trkpt lat="47.13651" lon="6.14356">
        <ele>434.4</ele>
        <time>2026-05-24T07:58:29Z</time>
      </trkpt>
      <trkpt lat="47.13649" lon="6.14362">
        <ele>434.6</ele>
        <time>2026-05-24T07:58:30Z</time>
      </trkpt>
      <trkpt lat="47.13647" lon="6.14367">
        <ele>434.6</ele>
        <time>2026-05-24T07:58:31Z</time>
      </trkpt>
      <trkpt lat="47.13645" lon="6.14372">
        <ele>434.8</ele>
        <time>2026-05-24T07:58:32Z</time>
      </trkpt>
      <trkpt lat="47.13643" lon="6.14378">
        <ele>434.8</ele>
        <time>2026-05-24T07:58:33Z</time>
      </trkpt>
      <trkpt lat="47.13641" lon="6.14383">
        <ele>434.8</ele>
        <time>2026-05-24T07:58:34Z</time>
      </trkpt>
      <trkpt lat="47.13639" lon="6.14388">
        <ele>434.8</ele>
        <time>2026-05-24T07:58:35Z</time>
      </trkpt>
      <trkpt lat="47.13637" lon="6.14394">
        <ele>435.2</ele>
        <time>2026-05-24T07:58:36Z</time>
      </trkpt>
      <trkpt lat="47.13636" lon="6.14399">
        <ele>435.2</ele>
        <time>2026-05-24T07:58:37Z</time>
      </trkpt>
      <trkpt lat="47.13635" lon="6.14405">
        <ele>435.2</ele>
        <time>2026-05-24T07:58:38Z</time>
      </trkpt>
      <trkpt lat="47.13634" lon="6.1441">
        <ele>435.4</ele>
        <time>2026-05-24T07:58:39Z</time>
      </trkpt>
      <trkpt lat="47.13632" lon="6.14415">
        <ele>435.6</ele>
        <time>2026-05-24T07:58:40Z</time>
      </trkpt>
      <trkpt lat="47.13629" lon="6.14424">
        <ele>435.6</ele>
        <time>2026-05-24T07:58:41Z</time>
      </trkpt>
      <trkpt lat="47.13629" lon="6.14424">
        <ele>435.8</ele>
        <time>2026-05-24T07:58:42Z</time>
      </trkpt>
      <trkpt lat="47.13628" lon="6.14428">
        <ele>436</ele>
        <time>2026-05-24T07:58:43Z</time>
      </trkpt>
      <trkpt lat="47.13627" lon="6.14432">
        <ele>436.2</ele>
        <time>2026-05-24T07:58:44Z</time>
      </trkpt>
      <trkpt lat="47.13627" lon="6.14436">
        <ele>436.2</ele>
        <time>2026-05-24T07:58:45Z</time>
      </trkpt>
      <trkpt lat="47.13626" lon="6.14439">
        <ele>436.2</ele>
        <time>2026-05-24T07:58:46Z</time>
      </trkpt>
      <trkpt lat="47.13625" lon="6.14442">
        <ele>436.4</ele>
        <time>2026-05-24T07:58:47Z</time>
      </trkpt>
      <trkpt lat="47.13624" lon="6.14445">
        <ele>436.6</ele>
        <time>2026-05-24T07:58:48Z</time>
      </trkpt>
      <trkpt lat="47.13623" lon="6.14448">
        <ele>436.6</ele>
        <time>2026-05-24T07:58:49Z</time>
      </trkpt>
      <trkpt lat="47.13623" lon="6.14452">
        <ele>436.8</ele>
        <time>2026-05-24T07:58:50Z</time>
      </trkpt>
      <trkpt lat="47.13623" lon="6.14457">
        <ele>436.8</ele>
        <time>2026-05-24T07:58:51Z</time>
      </trkpt>
      <trkpt lat="47.13622" lon="6.14461">
        <ele>436.8</ele>
        <time>2026-05-24T07:58:52Z</time>
      </trkpt>
      <trkpt lat="47.13622" lon="6.14466">
        <ele>436.8</ele>
        <time>2026-05-24T07:58:53Z</time>
      </trkpt>
      <trkpt lat="47.13621" lon="6.14471">
        <ele>437</ele>
        <time>2026-05-24T07:58:54Z</time>
      </trkpt>
      <trkpt lat="47.13621" lon="6.14476">
        <ele>437.2</ele>
        <time>2026-05-24T07:58:55Z</time>
      </trkpt>
      <trkpt lat="47.1362" lon="6.14482">
        <ele>437</ele>
        <time>2026-05-24T07:58:56Z</time>
      </trkpt>
      <trkpt lat="47.13619" lon="6.14487">
        <ele>437</ele>
        <time>2026-05-24T07:58:57Z</time>
      </trkpt>
      <trkpt lat="47.13618" lon="6.14493">
        <ele>437.2</ele>
        <time>2026-05-24T07:58:58Z</time>
      </trkpt>
      <trkpt lat="47.13618" lon="6.14499">
        <ele>437.4</ele>
        <time>2026-05-24T07:58:59Z</time>
      </trkpt>
      <trkpt lat="47.13617" lon="6.14505">
        <ele>437.6</ele>
        <time>2026-05-24T07:59:00Z</time>
      </trkpt>
      <trkpt lat="47.13616" lon="6.1451">
        <ele>437.8</ele>
        <time>2026-05-24T07:59:01Z</time>
      </trkpt>
      <trkpt lat="47.13615" lon="6.14516">
        <ele>437.8</ele>
        <time>2026-05-24T07:59:02Z</time>
      </trkpt>
      <trkpt lat="47.13614" lon="6.14522">
        <ele>437.8</ele>
        <time>2026-05-24T07:59:03Z</time>
      </trkpt>
      <trkpt lat="47.13613" lon="6.14528">
        <ele>438</ele>
        <time>2026-05-24T07:59:04Z</time>
      </trkpt>
      <trkpt lat="47.13612" lon="6.14535">
        <ele>438</ele>
        <time>2026-05-24T07:59:05Z</time>
      </trkpt>
      <trkpt lat="47.13611" lon="6.14541">
        <ele>438.2</ele>
        <time>2026-05-24T07:59:06Z</time>
      </trkpt>
      <trkpt lat="47.1361" lon="6.14549">
        <ele>438.4</ele>
        <time>2026-05-24T07:59:07Z</time>
      </trkpt>
      <trkpt lat="47.1361" lon="6.14556">
        <ele>438.4</ele>
        <time>2026-05-24T07:59:08Z</time>
      </trkpt>
      <trkpt lat="47.13609" lon="6.14562">
        <ele>438.4</ele>
        <time>2026-05-24T07:59:09Z</time>
      </trkpt>
      <trkpt lat="47.13609" lon="6.14567">
        <ele>438.6</ele>
        <time>2026-05-24T07:59:10Z</time>
      </trkpt>
      <trkpt lat="47.13609" lon="6.14573">
        <ele>438.6</ele>
        <time>2026-05-24T07:59:11Z</time>
      </trkpt>
      <trkpt lat="47.13608" lon="6.14579">
        <ele>438.6</ele>
        <time>2026-05-24T07:59:12Z</time>
      </trkpt>
      <trkpt lat="47.13608" lon="6.14586">
        <ele>438.6</ele>
        <time>2026-05-24T07:59:13Z</time>
      </trkpt>
      <trkpt lat="47.13606" lon="6.146">
        <ele>438.8</ele>
        <time>2026-05-24T07:59:14Z</time>
      </trkpt>
      <trkpt lat="47.13605" lon="6.14607">
        <ele>439</ele>
        <time>2026-05-24T07:59:15Z</time>
      </trkpt>
      <trkpt lat="47.13605" lon="6.14614">
        <ele>439</ele>
        <time>2026-05-24T07:59:16Z</time>
      </trkpt>
      <trkpt lat="47.13605" lon="6.14614">
        <ele>439.2</ele>
        <time>2026-05-24T07:59:17Z</time>
      </trkpt>
      <trkpt lat="47.13606" lon="6.14629">
        <ele>439.2</ele>
        <time>2026-05-24T07:59:18Z</time>
      </trkpt>
      <trkpt lat="47.13606" lon="6.14636">
        <ele>439.4</ele>
        <time>2026-05-24T07:59:19Z</time>
      </trkpt>
      <trkpt lat="47.13607" lon="6.14644">
        <ele>439.4</ele>
        <time>2026-05-24T07:59:20Z</time>
      </trkpt>
      <trkpt lat="47.13607" lon="6.14651">
        <ele>439.6</ele>
        <time>2026-05-24T07:59:21Z</time>
      </trkpt>
      <trkpt lat="47.13607" lon="6.14658">
        <ele>439.6</ele>
        <time>2026-05-24T07:59:22Z</time>
      </trkpt>
      <trkpt lat="47.13607" lon="6.14665">
        <ele>439.8</ele>
        <time>2026-05-24T07:59:23Z</time>
      </trkpt>
      <trkpt lat="47.13607" lon="6.14672">
        <ele>439.8</ele>
        <time>2026-05-24T07:59:24Z</time>
      </trkpt>
      <trkpt lat="47.13607" lon="6.14679">
        <ele>440</ele>
        <time>2026-05-24T07:59:25Z</time>
      </trkpt>
      <trkpt lat="47.13607" lon="6.14686">
        <ele>440</ele>
        <time>2026-05-24T07:59:26Z</time>
      </trkpt>
      <trkpt lat="47.13606" lon="6.14693">
        <ele>440.4</ele>
        <time>2026-05-24T07:59:27Z</time>
      </trkpt>
      <trkpt lat="47.13606" lon="6.14699">
        <ele>440.2</ele>
        <time>2026-05-24T07:59:28Z</time>
      </trkpt>
      <trkpt lat="47.13606" lon="6.14706">
        <ele>440.4</ele>
        <time>2026-05-24T07:59:29Z</time>
      </trkpt>
      <trkpt lat="47.13605" lon="6.14712">
        <ele>440.8</ele>
        <time>2026-05-24T07:59:30Z</time>
      </trkpt>
      <trkpt lat="47.13605" lon="6.14719">
        <ele>440.8</ele>
        <time>2026-05-24T07:59:31Z</time>
      </trkpt>
      <trkpt lat="47.13605" lon="6.14719">
        <ele>440.8</ele>
        <time>2026-05-24T07:59:32Z</time>
      </trkpt>
      <trkpt lat="47.13605" lon="6.14725">
        <ele>440.8</ele>
        <time>2026-05-24T07:59:33Z</time>
      </trkpt>
      <trkpt lat="47.13604" lon="6.14731">
        <ele>441</ele>
        <time>2026-05-24T07:59:34Z</time>
      </trkpt>
      <trkpt lat="47.13603" lon="6.14737">
        <ele>441</ele>
        <time>2026-05-24T07:59:35Z</time>
      </trkpt>
      <trkpt lat="47.13601" lon="6.14743">
        <ele>441.2</ele>
        <time>2026-05-24T07:59:36Z</time>
      </trkpt>
      <trkpt lat="47.136" lon="6.14749">
        <ele>441.2</ele>
        <time>2026-05-24T07:59:37Z</time>
      </trkpt>
      <trkpt lat="47.13599" lon="6.14754">
        <ele>441.4</ele>
        <time>2026-05-24T07:59:38Z</time>
      </trkpt>
      <trkpt lat="47.13598" lon="6.14759">
        <ele>441.4</ele>
        <time>2026-05-24T07:59:39Z</time>
      </trkpt>
      <trkpt lat="47.13597" lon="6.14764">
        <ele>441.4</ele>
        <time>2026-05-24T07:59:40Z</time>
      </trkpt>
      <trkpt lat="47.13596" lon="6.14769">
        <ele>441.6</ele>
        <time>2026-05-24T07:59:41Z</time>
      </trkpt>
      <trkpt lat="47.13595" lon="6.14774">
        <ele>441.8</ele>
        <time>2026-05-24T07:59:42Z</time>
      </trkpt>
      <trkpt lat="47.13594" lon="6.14778">
        <ele>442</ele>
        <time>2026-05-24T07:59:43Z</time>
      </trkpt>
      <trkpt lat="47.13593" lon="6.14783">
        <ele>442</ele>
        <time>2026-05-24T07:59:44Z</time>
      </trkpt>
      <trkpt lat="47.13592" lon="6.14792">
        <ele>442.2</ele>
        <time>2026-05-24T07:59:45Z</time>
      </trkpt>
      <trkpt lat="47.13591" lon="6.14796">
        <ele>442.2</ele>
        <time>2026-05-24T07:59:46Z</time>
      </trkpt>
      <trkpt lat="47.1359" lon="6.148">
        <ele>442.4</ele>
        <time>2026-05-24T07:59:47Z</time>
      </trkpt>
      <trkpt lat="47.1359" lon="6.14803">
        <ele>442.4</ele>
        <time>2026-05-24T07:59:48Z</time>
      </trkpt>
      <trkpt lat="47.1359" lon="6.14806">
        <ele>442.4</ele>
        <time>2026-05-24T07:59:49Z</time>
      </trkpt>
      <trkpt lat="47.1359" lon="6.14809">
        <ele>442.6</ele>
        <time>2026-05-24T07:59:50Z</time>
      </trkpt>
      <trkpt lat="47.1359" lon="6.14813">
        <ele>443</ele>
        <time>2026-05-24T07:59:51Z</time>
      </trkpt>
      <trkpt lat="47.1359" lon="6.14817">
        <ele>443</ele>
        <time>2026-05-24T07:59:52Z</time>
      </trkpt>
      <trkpt lat="47.1359" lon="6.14821">
        <ele>443.2</ele>
        <time>2026-05-24T07:59:53Z</time>
      </trkpt>
      <trkpt lat="47.13638" lon="6.15074">
        <ele>447.4</ele>
        <time>2026-05-24T08:00:33Z</time>
      </trkpt>
      <trkpt lat="47.13645" lon="6.15075">
        <ele>447.8</ele>
        <time>2026-05-24T08:00:34Z</time>
      </trkpt>
      <trkpt lat="47.13648" lon="6.15083">
        <ele>447.8</ele>
        <time>2026-05-24T08:00:35Z</time>
      </trkpt>
      <trkpt lat="47.1364" lon="6.15105">
        <ele>448</ele>
        <time>2026-05-24T08:00:36Z</time>
      </trkpt>
      <trkpt lat="47.1364" lon="6.15105">
        <ele>448</ele>
        <time>2026-05-24T08:00:37Z</time>
      </trkpt>
      <trkpt lat="47.13647" lon="6.15109">
        <ele>448</ele>
        <time>2026-05-24T08:00:38Z</time>
      </trkpt>
      <trkpt lat="47.13648" lon="6.15117">
        <ele>448.2</ele>
        <time>2026-05-24T08:00:39Z</time>
      </trkpt>
      <trkpt lat="47.13653" lon="6.15114">
        <ele>448.2</ele>
        <time>2026-05-24T08:00:40Z</time>
      </trkpt>
      <trkpt lat="47.13656" lon="6.15117">
        <ele>448.2</ele>
        <time>2026-05-24T08:00:41Z</time>
      </trkpt>
      <trkpt lat="47.13658" lon="6.15122">
        <ele>448.2</ele>
        <time>2026-05-24T08:00:42Z</time>
      </trkpt>
      <trkpt lat="47.13661" lon="6.15127">
        <ele>448.4</ele>
        <time>2026-05-24T08:00:43Z</time>
      </trkpt>
      <trkpt lat="47.13663" lon="6.15134">
        <ele>448.6</ele>
        <time>2026-05-24T08:00:44Z</time>
      </trkpt>
      <trkpt lat="47.13665" lon="6.15141">
        <ele>448.6</ele>
        <time>2026-05-24T08:00:45Z</time>
      </trkpt>
      <trkpt lat="47.13667" lon="6.15147">
        <ele>448.6</ele>
        <time>2026-05-24T08:00:46Z</time>
      </trkpt>
      <trkpt lat="47.13669" lon="6.15151">
        <ele>448.8</ele>
        <time>2026-05-24T08:00:47Z</time>
      </trkpt>
      <trkpt lat="47.13674" lon="6.15159">
        <ele>448.8</ele>
        <time>2026-05-24T08:00:48Z</time>
      </trkpt>
      <trkpt lat="47.13677" lon="6.15164">
        <ele>448.8</ele>
        <time>2026-05-24T08:00:49Z</time>
      </trkpt>
      <trkpt lat="47.13681" lon="6.15168">
        <ele>449</ele>
        <time>2026-05-24T08:00:50Z</time>
      </trkpt>
      <trkpt lat="47.13681" lon="6.15168">
        <ele>449.2</ele>
        <time>2026-05-24T08:00:51Z</time>
      </trkpt>
      <trkpt lat="47.13684" lon="6.15171">
        <ele>449.2</ele>
        <time>2026-05-24T08:00:52Z</time>
      </trkpt>
      <trkpt lat="47.13686" lon="6.15178">
        <ele>449.4</ele>
        <time>2026-05-24T08:00:53Z</time>
      </trkpt>
      <trkpt lat="47.13689" lon="6.15182">
        <ele>449.4</ele>
        <time>2026-05-24T08:00:54Z</time>
      </trkpt>
      <trkpt lat="47.13692" lon="6.15186">
        <ele>449.6</ele>
        <time>2026-05-24T08:00:55Z</time>
      </trkpt>
      <trkpt lat="47.13694" lon="6.15191">
        <ele>449.6</ele>
        <time>2026-05-24T08:00:56Z</time>
      </trkpt>
      <trkpt lat="47.13696" lon="6.15195">
        <ele>449.8</ele>
        <time>2026-05-24T08:00:57Z</time>
      </trkpt>
      <trkpt lat="47.13699" lon="6.152">
        <ele>449.8</ele>
        <time>2026-05-24T08:00:58Z</time>
      </trkpt>
      <trkpt lat="47.13701" lon="6.15205">
        <ele>450</ele>
        <time>2026-05-24T08:00:59Z</time>
      </trkpt>
      <trkpt lat="47.13703" lon="6.15211">
        <ele>450.2</ele>
        <time>2026-05-24T08:01:00Z</time>
      </trkpt>
      <trkpt lat="47.13705" lon="6.15216">
        <ele>450.2</ele>
        <time>2026-05-24T08:01:01Z</time>
      </trkpt>
      <trkpt lat="47.13707" lon="6.15221">
        <ele>450.2</ele>
        <time>2026-05-24T08:01:02Z</time>
      </trkpt>
      <trkpt lat="47.13709" lon="6.15226">
        <ele>450.6</ele>
        <time>2026-05-24T08:01:03Z</time>
      </trkpt>
      <trkpt lat="47.13711" lon="6.15231">
        <ele>450.6</ele>
        <time>2026-05-24T08:01:04Z</time>
      </trkpt>
      <trkpt lat="47.13713" lon="6.15236">
        <ele>451</ele>
        <time>2026-05-24T08:01:05Z</time>
      </trkpt>
      <trkpt lat="47.13714" lon="6.1524">
        <ele>451</ele>
        <time>2026-05-24T08:01:06Z</time>
      </trkpt>
      <trkpt lat="47.13716" lon="6.15245">
        <ele>451.2</ele>
        <time>2026-05-24T08:01:07Z</time>
      </trkpt>
      <trkpt lat="47.13718" lon="6.15249">
        <ele>451</ele>
        <time>2026-05-24T08:01:08Z</time>
      </trkpt>
      <trkpt lat="47.1372" lon="6.15254">
        <ele>451.2</ele>
        <time>2026-05-24T08:01:09Z</time>
      </trkpt>
      <trkpt lat="47.13722" lon="6.15258">
        <ele>451.4</ele>
        <time>2026-05-24T08:01:10Z</time>
      </trkpt>
      <trkpt lat="47.13723" lon="6.15263">
        <ele>451.4</ele>
        <time>2026-05-24T08:01:11Z</time>
      </trkpt>
      <trkpt lat="47.13725" lon="6.15268">
        <ele>451.6</ele>
        <time>2026-05-24T08:01:12Z</time>
      </trkpt>
      <trkpt lat="47.13726" lon="6.15273">
        <ele>451.6</ele>
        <time>2026-05-24T08:01:13Z</time>
      </trkpt>
      <trkpt lat="47.13727" lon="6.15278">
        <ele>451.8</ele>
        <time>2026-05-24T08:01:14Z</time>
      </trkpt>
      <trkpt lat="47.13729" lon="6.15283">
        <ele>452</ele>
        <time>2026-05-24T08:01:15Z</time>
      </trkpt>
      <trkpt lat="47.13729" lon="6.15288">
        <ele>452</ele>
        <time>2026-05-24T08:01:16Z</time>
      </trkpt>
      <trkpt lat="47.1373" lon="6.15294">
        <ele>452</ele>
        <time>2026-05-24T08:01:17Z</time>
      </trkpt>
      <trkpt lat="47.13731" lon="6.15299">
        <ele>452.2</ele>
        <time>2026-05-24T08:01:18Z</time>
      </trkpt>
      <trkpt lat="47.13732" lon="6.15305">
        <ele>452.4</ele>
        <time>2026-05-24T08:01:19Z</time>
      </trkpt>
      <trkpt lat="47.13734" lon="6.15316">
        <ele>452.4</ele>
        <time>2026-05-24T08:01:20Z</time>
      </trkpt>
      <trkpt lat="47.13734" lon="6.15316">
        <ele>452.4</ele>
        <time>2026-05-24T08:01:21Z</time>
      </trkpt>
      <trkpt lat="47.13736" lon="6.15322">
        <ele>452.8</ele>
        <time>2026-05-24T08:01:22Z</time>
      </trkpt>
      <trkpt lat="47.13738" lon="6.15328">
        <ele>452.8</ele>
        <time>2026-05-24T08:01:23Z</time>
      </trkpt>
      <trkpt lat="47.13739" lon="6.15334">
        <ele>452.8</ele>
        <time>2026-05-24T08:01:24Z</time>
      </trkpt>
      <trkpt lat="47.1374" lon="6.15339">
        <ele>452.8</ele>
        <time>2026-05-24T08:01:25Z</time>
      </trkpt>
      <trkpt lat="47.13742" lon="6.15349">
        <ele>453.2</ele>
        <time>2026-05-24T08:01:26Z</time>
      </trkpt>
      <trkpt lat="47.13742" lon="6.15349">
        <ele>453.2</ele>
        <time>2026-05-24T08:01:27Z</time>
      </trkpt>
      <trkpt lat="47.13744" lon="6.15354">
        <ele>453.4</ele>
        <time>2026-05-24T08:01:28Z</time>
      </trkpt>
      <trkpt lat="47.13747" lon="6.15365">
        <ele>453.6</ele>
        <time>2026-05-24T08:01:29Z</time>
      </trkpt>
      <trkpt lat="47.13748" lon="6.15371">
        <ele>453.6</ele>
        <time>2026-05-24T08:01:30Z</time>
      </trkpt>
      <trkpt lat="47.1375" lon="6.15376">
        <ele>453.8</ele>
        <time>2026-05-24T08:01:31Z</time>
      </trkpt>
      <trkpt lat="47.1375" lon="6.15376">
        <ele>453.8</ele>
        <time>2026-05-24T08:01:32Z</time>
      </trkpt>
      <trkpt lat="47.13752" lon="6.15382">
        <ele>454</ele>
        <time>2026-05-24T08:01:33Z</time>
      </trkpt>
      <trkpt lat="47.13753" lon="6.15387">
        <ele>454</ele>
        <time>2026-05-24T08:01:34Z</time>
      </trkpt>
      <trkpt lat="47.13754" lon="6.15393">
        <ele>454.2</ele>
        <time>2026-05-24T08:01:35Z</time>
      </trkpt>
      <trkpt lat="47.13756" lon="6.15397">
        <ele>454.4</ele>
        <time>2026-05-24T08:01:36Z</time>
      </trkpt>
      <trkpt lat="47.13758" lon="6.15402">
        <ele>454.4</ele>
        <time>2026-05-24T08:01:37Z</time>
      </trkpt>
      <trkpt lat="47.13759" lon="6.15406">
        <ele>454.6</ele>
        <time>2026-05-24T08:01:38Z</time>
      </trkpt>
      <trkpt lat="47.13761" lon="6.1541">
        <ele>454.6</ele>
        <time>2026-05-24T08:01:39Z</time>
      </trkpt>
      <trkpt lat="47.13763" lon="6.15415">
        <ele>454.6</ele>
        <time>2026-05-24T08:01:40Z</time>
      </trkpt>
      <trkpt lat="47.13763" lon="6.1542">
        <ele>454.8</ele>
        <time>2026-05-24T08:01:41Z</time>
      </trkpt>
      <trkpt lat="47.13765" lon="6.15431">
        <ele>455</ele>
        <time>2026-05-24T08:01:42Z</time>
      </trkpt>
      <trkpt lat="47.13766" lon="6.15437">
        <ele>455.2</ele>
        <time>2026-05-24T08:01:43Z</time>
      </trkpt>
      <trkpt lat="47.13767" lon="6.15443">
        <ele>455.4</ele>
        <time>2026-05-24T08:01:44Z</time>
      </trkpt>
      <trkpt lat="47.13769" lon="6.15449">
        <ele>455.4</ele>
        <time>2026-05-24T08:01:45Z</time>
      </trkpt>
      <trkpt lat="47.1377" lon="6.15455">
        <ele>455.6</ele>
        <time>2026-05-24T08:01:46Z</time>
      </trkpt>
      <trkpt lat="47.13772" lon="6.1546">
        <ele>455.8</ele>
        <time>2026-05-24T08:01:47Z</time>
      </trkpt>
      <trkpt lat="47.13774" lon="6.15466">
        <ele>455.8</ele>
        <time>2026-05-24T08:01:48Z</time>
      </trkpt>
      <trkpt lat="47.13774" lon="6.15466">
        <ele>455.8</ele>
        <time>2026-05-24T08:01:49Z</time>
      </trkpt>
      <trkpt lat="47.13776" lon="6.15472">
        <ele>456</ele>
        <time>2026-05-24T08:01:50Z</time>
      </trkpt>
      <trkpt lat="47.13777" lon="6.15477">
        <ele>456</ele>
        <time>2026-05-24T08:01:51Z</time>
      </trkpt>
      <trkpt lat="47.13779" lon="6.15482">
        <ele>456.2</ele>
        <time>2026-05-24T08:01:52Z</time>
      </trkpt>
      <trkpt lat="47.1378" lon="6.15487">
        <ele>456.4</ele>
        <time>2026-05-24T08:01:53Z</time>
      </trkpt>
      <trkpt lat="47.13782" lon="6.15492">
        <ele>456.6</ele>
        <time>2026-05-24T08:01:54Z</time>
      </trkpt>
      <trkpt lat="47.13784" lon="6.15497">
        <ele>456.6</ele>
        <time>2026-05-24T08:01:55Z</time>
      </trkpt>
      <trkpt lat="47.13785" lon="6.15502">
        <ele>456.8</ele>
        <time>2026-05-24T08:01:56Z</time>
      </trkpt>
      <trkpt lat="47.13787" lon="6.15507">
        <ele>456.8</ele>
        <time>2026-05-24T08:01:57Z</time>
      </trkpt>
      <trkpt lat="47.13789" lon="6.15512">
        <ele>456.8</ele>
        <time>2026-05-24T08:01:58Z</time>
      </trkpt>
      <trkpt lat="47.13791" lon="6.15517">
        <ele>457.2</ele>
        <time>2026-05-24T08:01:59Z</time>
      </trkpt>
      <trkpt lat="47.13793" lon="6.15522">
        <ele>457.2</ele>
        <time>2026-05-24T08:02:00Z</time>
      </trkpt>
      <trkpt lat="47.13795" lon="6.15527">
        <ele>457.2</ele>
        <time>2026-05-24T08:02:01Z</time>
      </trkpt>
      <trkpt lat="47.13797" lon="6.15532">
        <ele>457.4</ele>
        <time>2026-05-24T08:02:02Z</time>
      </trkpt>
      <trkpt lat="47.13799" lon="6.15536">
        <ele>457.4</ele>
        <time>2026-05-24T08:02:03Z</time>
      </trkpt>
      <trkpt lat="47.13801" lon="6.15541">
        <ele>457.6</ele>
        <time>2026-05-24T08:02:04Z</time>
      </trkpt>
      <trkpt lat="47.13805" lon="6.15551">
        <ele>457.6</ele>
        <time>2026-05-24T08:02:05Z</time>
      </trkpt>
      <trkpt lat="47.13807" lon="6.15556">
        <ele>457.8</ele>
        <time>2026-05-24T08:02:06Z</time>
      </trkpt>
      <trkpt lat="47.1381" lon="6.1556">
        <ele>457.8</ele>
        <time>2026-05-24T08:02:07Z</time>
      </trkpt>
      <trkpt lat="47.13812" lon="6.15565">
        <ele>458</ele>
        <time>2026-05-24T08:02:08Z</time>
      </trkpt>
      <trkpt lat="47.13815" lon="6.15569">
        <ele>458.2</ele>
        <time>2026-05-24T08:02:09Z</time>
      </trkpt>
      <trkpt lat="47.13815" lon="6.15569">
        <ele>458.2</ele>
        <time>2026-05-24T08:02:10Z</time>
      </trkpt>
      <trkpt lat="47.13821" lon="6.15578">
        <ele>458.4</ele>
        <time>2026-05-24T08:02:11Z</time>
      </trkpt>
      <trkpt lat="47.13823" lon="6.15582">
        <ele>458.4</ele>
        <time>2026-05-24T08:02:12Z</time>
      </trkpt>
      <trkpt lat="47.13826" lon="6.15587">
        <ele>458.4</ele>
        <time>2026-05-24T08:02:13Z</time>
      </trkpt>
      <trkpt lat="47.13829" lon="6.15591">
        <ele>458.6</ele>
        <time>2026-05-24T08:02:14Z</time>
      </trkpt>
      <trkpt lat="47.13833" lon="6.15594">
        <ele>458.6</ele>
        <time>2026-05-24T08:02:15Z</time>
      </trkpt>
      <trkpt lat="47.13836" lon="6.15599">
        <ele>458.8</ele>
        <time>2026-05-24T08:02:16Z</time>
      </trkpt>
      <trkpt lat="47.13839" lon="6.15602">
        <ele>458.8</ele>
        <time>2026-05-24T08:02:17Z</time>
      </trkpt>
      <trkpt lat="47.13842" lon="6.15606">
        <ele>458.8</ele>
        <time>2026-05-24T08:02:18Z</time>
      </trkpt>
      <trkpt lat="47.13845" lon="6.1561">
        <ele>459</ele>
        <time>2026-05-24T08:02:19Z</time>
      </trkpt>
      <trkpt lat="47.13849" lon="6.15613">
        <ele>459.2</ele>
        <time>2026-05-24T08:02:20Z</time>
      </trkpt>
      <trkpt lat="47.13852" lon="6.15616">
        <ele>459.2</ele>
        <time>2026-05-24T08:02:21Z</time>
      </trkpt>
      <trkpt lat="47.13855" lon="6.1562">
        <ele>459.4</ele>
        <time>2026-05-24T08:02:22Z</time>
      </trkpt>
      <trkpt lat="47.13858" lon="6.15623">
        <ele>459.6</ele>
        <time>2026-05-24T08:02:23Z</time>
      </trkpt>
      <trkpt lat="47.13862" lon="6.15626">
        <ele>459.8</ele>
        <time>2026-05-24T08:02:24Z</time>
      </trkpt>
      <trkpt lat="47.13862" lon="6.15626">
        <ele>459.8</ele>
        <time>2026-05-24T08:02:25Z</time>
      </trkpt>
      <trkpt lat="47.13868" lon="6.15632">
        <ele>459.8</ele>
        <time>2026-05-24T08:02:26Z</time>
      </trkpt>
      <trkpt lat="47.13871" lon="6.15635">
        <ele>459.8</ele>
        <time>2026-05-24T08:02:27Z</time>
      </trkpt>
      <trkpt lat="47.13871" lon="6.15635">
        <ele>459.8</ele>
        <time>2026-05-24T08:02:28Z</time>
      </trkpt>
      <trkpt lat="47.13877" lon="6.15644">
        <ele>460</ele>
        <time>2026-05-24T08:02:29Z</time>
      </trkpt>
      <trkpt lat="47.1388" lon="6.15649">
        <ele>460</ele>
        <time>2026-05-24T08:02:30Z</time>
      </trkpt>
      <trkpt lat="47.1388" lon="6.15649">
        <ele>460.2</ele>
        <time>2026-05-24T08:02:31Z</time>
      </trkpt>
      <trkpt lat="47.13883" lon="6.15652">
        <ele>460.2</ele>
        <time>2026-05-24T08:02:32Z</time>
      </trkpt>
      <trkpt lat="47.13887" lon="6.15656">
        <ele>460.2</ele>
        <time>2026-05-24T08:02:33Z</time>
      </trkpt>
      <trkpt lat="47.13889" lon="6.1566">
        <ele>460.6</ele>
        <time>2026-05-24T08:02:34Z</time>
      </trkpt>
      <trkpt lat="47.13892" lon="6.15663">
        <ele>460.4</ele>
        <time>2026-05-24T08:02:35Z</time>
      </trkpt>
      <trkpt lat="47.13895" lon="6.15666">
        <ele>460.6</ele>
        <time>2026-05-24T08:02:36Z</time>
      </trkpt>
      <trkpt lat="47.13898" lon="6.1567">
        <ele>460.6</ele>
        <time>2026-05-24T08:02:37Z</time>
      </trkpt>
      <trkpt lat="47.139" lon="6.15674">
        <ele>460.6</ele>
        <time>2026-05-24T08:02:38Z</time>
      </trkpt>
      <trkpt lat="47.13903" lon="6.15678">
        <ele>460.6</ele>
        <time>2026-05-24T08:02:39Z</time>
      </trkpt>
      <trkpt lat="47.13906" lon="6.15681">
        <ele>460.8</ele>
        <time>2026-05-24T08:02:40Z</time>
      </trkpt>
      <trkpt lat="47.13912" lon="6.15689">
        <ele>460.8</ele>
        <time>2026-05-24T08:02:41Z</time>
      </trkpt>
      <trkpt lat="47.13916" lon="6.15693">
        <ele>460.8</ele>
        <time>2026-05-24T08:02:42Z</time>
      </trkpt>
      <trkpt lat="47.13919" lon="6.15697">
        <ele>461.2</ele>
        <time>2026-05-24T08:02:43Z</time>
      </trkpt>
      <trkpt lat="47.13923" lon="6.157">
        <ele>461.2</ele>
        <time>2026-05-24T08:02:44Z</time>
      </trkpt>
      <trkpt lat="47.13926" lon="6.15704">
        <ele>461.4</ele>
        <time>2026-05-24T08:02:45Z</time>
      </trkpt>
      <trkpt lat="47.1393" lon="6.15708">
        <ele>461.4</ele>
        <time>2026-05-24T08:02:46Z</time>
      </trkpt>
      <trkpt lat="47.13933" lon="6.15711">
        <ele>461.8</ele>
        <time>2026-05-24T08:02:47Z</time>
      </trkpt>
      <trkpt lat="47.13937" lon="6.15715">
        <ele>461.8</ele>
        <time>2026-05-24T08:02:48Z</time>
      </trkpt>
      <trkpt lat="47.1394" lon="6.1572">
        <ele>462</ele>
        <time>2026-05-24T08:02:49Z</time>
      </trkpt>
      <trkpt lat="47.13942" lon="6.15726">
        <ele>462</ele>
        <time>2026-05-24T08:02:50Z</time>
      </trkpt>
      <trkpt lat="47.13945" lon="6.1573">
        <ele>462</ele>
        <time>2026-05-24T08:02:51Z</time>
      </trkpt>
      <trkpt lat="47.13948" lon="6.15734">
        <ele>462.4</ele>
        <time>2026-05-24T08:02:52Z</time>
      </trkpt>
      <trkpt lat="47.13951" lon="6.15738">
        <ele>462.4</ele>
        <time>2026-05-24T08:02:53Z</time>
      </trkpt>
      <trkpt lat="47.13954" lon="6.15743">
        <ele>462.6</ele>
        <time>2026-05-24T08:02:54Z</time>
      </trkpt>
      <trkpt lat="47.13957" lon="6.15747">
        <ele>462.6</ele>
        <time>2026-05-24T08:02:55Z</time>
      </trkpt>
      <trkpt lat="47.1396" lon="6.15752">
        <ele>462.6</ele>
        <time>2026-05-24T08:02:56Z</time>
      </trkpt>
      <trkpt lat="47.13962" lon="6.15757">
        <ele>463</ele>
        <time>2026-05-24T08:02:57Z</time>
      </trkpt>
      <trkpt lat="47.13962" lon="6.15757">
        <ele>462.8</ele>
        <time>2026-05-24T08:02:58Z</time>
      </trkpt>
      <trkpt lat="47.13965" lon="6.15761">
        <ele>463.2</ele>
        <time>2026-05-24T08:02:59Z</time>
      </trkpt>
      <trkpt lat="47.1397" lon="6.15771">
        <ele>463.4</ele>
        <time>2026-05-24T08:03:00Z</time>
      </trkpt>
      <trkpt lat="47.13973" lon="6.15776">
        <ele>463.6</ele>
        <time>2026-05-24T08:03:01Z</time>
      </trkpt>
      <trkpt lat="47.13973" lon="6.15776">
        <ele>463.8</ele>
        <time>2026-05-24T08:03:02Z</time>
      </trkpt>
      <trkpt lat="47.13975" lon="6.15782">
        <ele>463.8</ele>
        <time>2026-05-24T08:03:03Z</time>
      </trkpt>
      <trkpt lat="47.13978" lon="6.15787">
        <ele>464</ele>
        <time>2026-05-24T08:03:04Z</time>
      </trkpt>
      <trkpt lat="47.1398" lon="6.15792">
        <ele>464</ele>
        <time>2026-05-24T08:03:05Z</time>
      </trkpt>
      <trkpt lat="47.13983" lon="6.15797">
        <ele>464</ele>
        <time>2026-05-24T08:03:06Z</time>
      </trkpt>
      <trkpt lat="47.13985" lon="6.15802">
        <ele>464.4</ele>
        <time>2026-05-24T08:03:07Z</time>
      </trkpt>
      <trkpt lat="47.13987" lon="6.15807">
        <ele>464.6</ele>
        <time>2026-05-24T08:03:08Z</time>
      </trkpt>
      <trkpt lat="47.1399" lon="6.15812">
        <ele>464.8</ele>
        <time>2026-05-24T08:03:09Z</time>
      </trkpt>
      <trkpt lat="47.13991" lon="6.15817">
        <ele>465</ele>
        <time>2026-05-24T08:03:10Z</time>
      </trkpt>
      <trkpt lat="47.13993" lon="6.15823">
        <ele>464.8</ele>
        <time>2026-05-24T08:03:11Z</time>
      </trkpt>
      <trkpt lat="47.13995" lon="6.15828">
        <ele>465</ele>
        <time>2026-05-24T08:03:12Z</time>
      </trkpt>
      <trkpt lat="47.13997" lon="6.15833">
        <ele>465</ele>
        <time>2026-05-24T08:03:13Z</time>
      </trkpt>
      <trkpt lat="47.13998" lon="6.15839">
        <ele>465.4</ele>
        <time>2026-05-24T08:03:14Z</time>
      </trkpt>
      <trkpt lat="47.14" lon="6.15844">
        <ele>465.4</ele>
        <time>2026-05-24T08:03:15Z</time>
      </trkpt>
      <trkpt lat="47.14002" lon="6.1585">
        <ele>465.8</ele>
        <time>2026-05-24T08:03:16Z</time>
      </trkpt>
      <trkpt lat="47.14003" lon="6.15855">
        <ele>465.8</ele>
        <time>2026-05-24T08:03:17Z</time>
      </trkpt>
      <trkpt lat="47.14004" lon="6.1586">
        <ele>466</ele>
        <time>2026-05-24T08:03:18Z</time>
      </trkpt>
      <trkpt lat="47.14006" lon="6.15866">
        <ele>466</ele>
        <time>2026-05-24T08:03:19Z</time>
      </trkpt>
      <trkpt lat="47.14008" lon="6.15871">
        <ele>466</ele>
        <time>2026-05-24T08:03:20Z</time>
      </trkpt>
      <trkpt lat="47.1401" lon="6.15876">
        <ele>466.2</ele>
        <time>2026-05-24T08:03:21Z</time>
      </trkpt>
      <trkpt lat="47.14012" lon="6.15881">
        <ele>466.2</ele>
        <time>2026-05-24T08:03:22Z</time>
      </trkpt>
      <trkpt lat="47.14014" lon="6.15886">
        <ele>466.4</ele>
        <time>2026-05-24T08:03:23Z</time>
      </trkpt>
      <trkpt lat="47.14015" lon="6.15892">
        <ele>466.4</ele>
        <time>2026-05-24T08:03:24Z</time>
      </trkpt>
      <trkpt lat="47.14016" lon="6.15898">
        <ele>466.6</ele>
        <time>2026-05-24T08:03:25Z</time>
      </trkpt>
      <trkpt lat="47.14017" lon="6.15905">
        <ele>466.6</ele>
        <time>2026-05-24T08:03:26Z</time>
      </trkpt>
      <trkpt lat="47.14018" lon="6.15912">
        <ele>466.8</ele>
        <time>2026-05-24T08:03:27Z</time>
      </trkpt>
      <trkpt lat="47.14019" lon="6.15918">
        <ele>466.8</ele>
        <time>2026-05-24T08:03:28Z</time>
      </trkpt>
      <trkpt lat="47.14019" lon="6.15925">
        <ele>467</ele>
        <time>2026-05-24T08:03:29Z</time>
      </trkpt>
      <trkpt lat="47.1402" lon="6.15932">
        <ele>467</ele>
        <time>2026-05-24T08:03:30Z</time>
      </trkpt>
      <trkpt lat="47.14021" lon="6.15938">
        <ele>467.2</ele>
        <time>2026-05-24T08:03:31Z</time>
      </trkpt>
      <trkpt lat="47.14023" lon="6.15944">
        <ele>467.2</ele>
        <time>2026-05-24T08:03:32Z</time>
      </trkpt>
      <trkpt lat="47.14025" lon="6.15948">
        <ele>467.2</ele>
        <time>2026-05-24T08:03:33Z</time>
      </trkpt>
      <trkpt lat="47.14027" lon="6.15953">
        <ele>467.4</ele>
        <time>2026-05-24T08:03:34Z</time>
      </trkpt>
      <trkpt lat="47.14028" lon="6.15958">
        <ele>467.4</ele>
        <time>2026-05-24T08:03:35Z</time>
      </trkpt>
      <trkpt lat="47.14029" lon="6.15964">
        <ele>467.6</ele>
        <time>2026-05-24T08:03:36Z</time>
      </trkpt>
      <trkpt lat="47.14029" lon="6.15969">
        <ele>467.6</ele>
        <time>2026-05-24T08:03:37Z</time>
      </trkpt>
      <trkpt lat="47.1403" lon="6.15975">
        <ele>467.6</ele>
        <time>2026-05-24T08:03:38Z</time>
      </trkpt>
      <trkpt lat="47.14031" lon="6.1598">
        <ele>467.8</ele>
        <time>2026-05-24T08:03:39Z</time>
      </trkpt>
      <trkpt lat="47.14033" lon="6.15986">
        <ele>467.8</ele>
        <time>2026-05-24T08:03:40Z</time>
      </trkpt>
      <trkpt lat="47.14037" lon="6.15997">
        <ele>468.2</ele>
        <time>2026-05-24T08:03:41Z</time>
      </trkpt>
      <trkpt lat="47.14037" lon="6.15997">
        <ele>468.4</ele>
        <time>2026-05-24T08:03:42Z</time>
      </trkpt>
      <trkpt lat="47.1404" lon="6.16003">
        <ele>468.6</ele>
        <time>2026-05-24T08:03:43Z</time>
      </trkpt>
      <trkpt lat="47.14043" lon="6.16008">
        <ele>468.6</ele>
        <time>2026-05-24T08:03:44Z</time>
      </trkpt>
      <trkpt lat="47.14045" lon="6.16013">
        <ele>468.6</ele>
        <time>2026-05-24T08:03:45Z</time>
      </trkpt>
      <trkpt lat="47.14051" lon="6.16024">
        <ele>469</ele>
        <time>2026-05-24T08:03:46Z</time>
      </trkpt>
      <trkpt lat="47.14053" lon="6.16031">
        <ele>469</ele>
        <time>2026-05-24T08:03:47Z</time>
      </trkpt>
      <trkpt lat="47.14056" lon="6.16037">
        <ele>469</ele>
        <time>2026-05-24T08:03:48Z</time>
      </trkpt>
      <trkpt lat="47.14059" lon="6.16042">
        <ele>469.2</ele>
        <time>2026-05-24T08:03:49Z</time>
      </trkpt>
      <trkpt lat="47.14062" lon="6.16048">
        <ele>469.4</ele>
        <time>2026-05-24T08:03:50Z</time>
      </trkpt>
      <trkpt lat="47.14062" lon="6.16048">
        <ele>469.2</ele>
        <time>2026-05-24T08:03:51Z</time>
      </trkpt>
      <trkpt lat="47.14067" lon="6.16058">
        <ele>469.6</ele>
        <time>2026-05-24T08:03:52Z</time>
      </trkpt>
      <trkpt lat="47.1407" lon="6.16063">
        <ele>469.6</ele>
        <time>2026-05-24T08:03:53Z</time>
      </trkpt>
      <trkpt lat="47.14074" lon="6.16068">
        <ele>469.6</ele>
        <time>2026-05-24T08:03:54Z</time>
      </trkpt>
      <trkpt lat="47.14077" lon="6.16073">
        <ele>469.8</ele>
        <time>2026-05-24T08:03:55Z</time>
      </trkpt>
      <trkpt lat="47.1408" lon="6.16078">
        <ele>469.6</ele>
        <time>2026-05-24T08:03:56Z</time>
      </trkpt>
      <trkpt lat="47.14082" lon="6.16082">
        <ele>470</ele>
        <time>2026-05-24T08:03:57Z</time>
      </trkpt>
      <trkpt lat="47.14085" lon="6.16086">
        <ele>470</ele>
        <time>2026-05-24T08:03:58Z</time>
      </trkpt>
      <trkpt lat="47.14088" lon="6.1609">
        <ele>470.2</ele>
        <time>2026-05-24T08:03:59Z</time>
      </trkpt>
      <trkpt lat="47.14092" lon="6.16094">
        <ele>470.2</ele>
        <time>2026-05-24T08:04:00Z</time>
      </trkpt>
      <trkpt lat="47.14094" lon="6.16099">
        <ele>470.4</ele>
        <time>2026-05-24T08:04:01Z</time>
      </trkpt>
      <trkpt lat="47.14097" lon="6.16103">
        <ele>470.4</ele>
        <time>2026-05-24T08:04:02Z</time>
      </trkpt>
      <trkpt lat="47.141" lon="6.16107">
        <ele>470.4</ele>
        <time>2026-05-24T08:04:03Z</time>
      </trkpt>
      <trkpt lat="47.14103" lon="6.1611">
        <ele>470.4</ele>
        <time>2026-05-24T08:04:04Z</time>
      </trkpt>
      <trkpt lat="47.14107" lon="6.16114">
        <ele>470.8</ele>
        <time>2026-05-24T08:04:05Z</time>
      </trkpt>
      <trkpt lat="47.1411" lon="6.16117">
        <ele>471</ele>
        <time>2026-05-24T08:04:06Z</time>
      </trkpt>
      <trkpt lat="47.14114" lon="6.1612">
        <ele>471.2</ele>
        <time>2026-05-24T08:04:07Z</time>
      </trkpt>
      <trkpt lat="47.14118" lon="6.16124">
        <ele>471.2</ele>
        <time>2026-05-24T08:04:08Z</time>
      </trkpt>
      <trkpt lat="47.14121" lon="6.16127">
        <ele>471.2</ele>
        <time>2026-05-24T08:04:09Z</time>
      </trkpt>
      <trkpt lat="47.14124" lon="6.16132">
        <ele>471.6</ele>
        <time>2026-05-24T08:04:10Z</time>
      </trkpt>
      <trkpt lat="47.14124" lon="6.16132">
        <ele>471.8</ele>
        <time>2026-05-24T08:04:11Z</time>
      </trkpt>
      <trkpt lat="47.14127" lon="6.16138">
        <ele>471.8</ele>
        <time>2026-05-24T08:04:12Z</time>
      </trkpt>
      <trkpt lat="47.14129" lon="6.16143">
        <ele>471.8</ele>
        <time>2026-05-24T08:04:13Z</time>
      </trkpt>
      <trkpt lat="47.14132" lon="6.16147">
        <ele>471.8</ele>
        <time>2026-05-24T08:04:14Z</time>
      </trkpt>
      <trkpt lat="47.14136" lon="6.1615">
        <ele>472</ele>
        <time>2026-05-24T08:04:15Z</time>
      </trkpt>
      <trkpt lat="47.14142" lon="6.16158">
        <ele>472</ele>
        <time>2026-05-24T08:04:16Z</time>
      </trkpt>
      <trkpt lat="47.14146" lon="6.16162">
        <ele>472</ele>
        <time>2026-05-24T08:04:17Z</time>
      </trkpt>
      <trkpt lat="47.14149" lon="6.16166">
        <ele>472</ele>
        <time>2026-05-24T08:04:18Z</time>
      </trkpt>
      <trkpt lat="47.14152" lon="6.1617">
        <ele>472.2</ele>
        <time>2026-05-24T08:04:19Z</time>
      </trkpt>
      <trkpt lat="47.14155" lon="6.16173">
        <ele>472.2</ele>
        <time>2026-05-24T08:04:20Z</time>
      </trkpt>
      <trkpt lat="47.14159" lon="6.16177">
        <ele>472.4</ele>
        <time>2026-05-24T08:04:21Z</time>
      </trkpt>
      <trkpt lat="47.14162" lon="6.16181">
        <ele>472.4</ele>
        <time>2026-05-24T08:04:22Z</time>
      </trkpt>
      <trkpt lat="47.14165" lon="6.16185">
        <ele>472.4</ele>
        <time>2026-05-24T08:04:23Z</time>
      </trkpt>
      <trkpt lat="47.14168" lon="6.16189">
        <ele>472.4</ele>
        <time>2026-05-24T08:04:24Z</time>
      </trkpt>
      <trkpt lat="47.14172" lon="6.16193">
        <ele>472.8</ele>
        <time>2026-05-24T08:04:25Z</time>
      </trkpt>
      <trkpt lat="47.14175" lon="6.16197">
        <ele>473</ele>
        <time>2026-05-24T08:04:26Z</time>
      </trkpt>
      <trkpt lat="47.14178" lon="6.16201">
        <ele>473</ele>
        <time>2026-05-24T08:04:27Z</time>
      </trkpt>
      <trkpt lat="47.14182" lon="6.16205">
        <ele>473.2</ele>
        <time>2026-05-24T08:04:28Z</time>
      </trkpt>
      <trkpt lat="47.14185" lon="6.16209">
        <ele>473.4</ele>
        <time>2026-05-24T08:04:29Z</time>
      </trkpt>
      <trkpt lat="47.14188" lon="6.16214">
        <ele>473.6</ele>
        <time>2026-05-24T08:04:30Z</time>
      </trkpt>
      <trkpt lat="47.1419" lon="6.16219">
        <ele>473.8</ele>
        <time>2026-05-24T08:04:31Z</time>
      </trkpt>
      <trkpt lat="47.14193" lon="6.16225">
        <ele>474</ele>
        <time>2026-05-24T08:04:32Z</time>
      </trkpt>
      <trkpt lat="47.14195" lon="6.1623">
        <ele>474</ele>
        <time>2026-05-24T08:04:33Z</time>
      </trkpt>
      <trkpt lat="47.14198" lon="6.16235">
        <ele>474.4</ele>
        <time>2026-05-24T08:04:34Z</time>
      </trkpt>
      <trkpt lat="47.142" lon="6.1624">
        <ele>474.6</ele>
        <time>2026-05-24T08:04:35Z</time>
      </trkpt>
      <trkpt lat="47.14203" lon="6.16244">
        <ele>474.6</ele>
        <time>2026-05-24T08:04:36Z</time>
      </trkpt>
      <trkpt lat="47.14206" lon="6.16249">
        <ele>474.8</ele>
        <time>2026-05-24T08:04:37Z</time>
      </trkpt>
      <trkpt lat="47.14208" lon="6.16254">
        <ele>475</ele>
        <time>2026-05-24T08:04:38Z</time>
      </trkpt>
      <trkpt lat="47.14211" lon="6.16258">
        <ele>475.2</ele>
        <time>2026-05-24T08:04:39Z</time>
      </trkpt>
      <trkpt lat="47.14212" lon="6.16263">
        <ele>475.2</ele>
        <time>2026-05-24T08:04:40Z</time>
      </trkpt>
      <trkpt lat="47.14212" lon="6.16263">
        <ele>475.4</ele>
        <time>2026-05-24T08:04:41Z</time>
      </trkpt>
      <trkpt lat="47.14214" lon="6.16268">
        <ele>475.6</ele>
        <time>2026-05-24T08:04:42Z</time>
      </trkpt>
      <trkpt lat="47.14217" lon="6.16272">
        <ele>475.6</ele>
        <time>2026-05-24T08:04:43Z</time>
      </trkpt>
      <trkpt lat="47.1422" lon="6.16275">
        <ele>475.6</ele>
        <time>2026-05-24T08:04:44Z</time>
      </trkpt>
      <trkpt lat="47.14222" lon="6.16277">
        <ele>475.8</ele>
        <time>2026-05-24T08:04:45Z</time>
      </trkpt>
      <trkpt lat="47.14226" lon="6.1628">
        <ele>476</ele>
        <time>2026-05-24T08:04:46Z</time>
      </trkpt>
      <trkpt lat="47.14227" lon="6.1628">
        <ele>476</ele>
        <time>2026-05-24T08:04:47Z</time>
      </trkpt>
      <trkpt lat="47.14228" lon="6.1628">
        <ele>476</ele>
        <time>2026-05-24T08:04:48Z</time>
      </trkpt>
      <trkpt lat="47.14229" lon="6.16281">
        <ele>476.2</ele>
        <time>2026-05-24T08:04:49Z</time>
      </trkpt>
      <trkpt lat="47.14229" lon="6.16281">
        <ele>476.2</ele>
        <time>2026-05-24T08:04:50Z</time>
      </trkpt>
      <trkpt lat="47.14229" lon="6.16282">
        <ele>476.4</ele>
        <time>2026-05-24T08:04:51Z</time>
      </trkpt>
      <trkpt lat="47.1423" lon="6.16282">
        <ele>476.2</ele>
        <time>2026-05-24T08:04:52Z</time>
      </trkpt>
      <trkpt lat="47.14232" lon="6.16283">
        <ele>476.2</ele>
        <time>2026-05-24T08:04:53Z</time>
      </trkpt>
      <trkpt lat="47.14232" lon="6.16283">
        <ele>476.4</ele>
        <time>2026-05-24T08:04:54Z</time>
      </trkpt>
      <trkpt lat="47.14233" lon="6.16283">
        <ele>476.4</ele>
        <time>2026-05-24T08:04:55Z</time>
      </trkpt>
      <trkpt lat="47.14233" lon="6.16283">
        <ele>476.2</ele>
        <time>2026-05-24T08:04:56Z</time>
      </trkpt>
      <trkpt lat="47.14233" lon="6.16283">
        <ele>476.4</ele>
        <time>2026-05-24T08:04:57Z</time>
      </trkpt>
      <trkpt lat="47.14233" lon="6.16283">
        <ele>476.2</ele>
        <time>2026-05-24T08:04:58Z</time>
      </trkpt>
      <trkpt lat="47.14235" lon="6.16284">
        <ele>476.6</ele>
        <time>2026-05-24T08:05:05Z</time>
      </trkpt>
      <trkpt lat="47.14235" lon="6.16284">
        <ele>476.4</ele>
        <time>2026-05-24T08:05:06Z</time>
      </trkpt>
      <trkpt lat="47.14234" lon="6.16284">
        <ele>476.4</ele>
        <time>2026-05-24T08:05:07Z</time>
      </trkpt>
      <trkpt lat="47.14219" lon="6.1629">
        <ele>476.8</ele>
        <time>2026-05-24T08:07:04Z</time>
      </trkpt>
      <trkpt lat="47.14218" lon="6.16289">
        <ele>476.8</ele>
        <time>2026-05-24T08:07:05Z</time>
      </trkpt>
      <trkpt lat="47.14216" lon="6.16287">
        <ele>476.8</ele>
        <time>2026-05-24T08:07:06Z</time>
      </trkpt>
      <trkpt lat="47.14215" lon="6.16285">
        <ele>477</ele>
        <time>2026-05-24T08:07:07Z</time>
      </trkpt>
      <trkpt lat="47.14213" lon="6.16283">
        <ele>477.2</ele>
        <time>2026-05-24T08:07:08Z</time>
      </trkpt>
      <trkpt lat="47.14211" lon="6.1628">
        <ele>477.2</ele>
        <time>2026-05-24T08:07:09Z</time>
      </trkpt>
      <trkpt lat="47.14209" lon="6.16276">
        <ele>477.4</ele>
        <time>2026-05-24T08:07:10Z</time>
      </trkpt>
      <trkpt lat="47.14207" lon="6.16273">
        <ele>477.4</ele>
        <time>2026-05-24T08:07:11Z</time>
      </trkpt>
      <trkpt lat="47.14205" lon="6.1627">
        <ele>477.4</ele>
        <time>2026-05-24T08:07:12Z</time>
      </trkpt>
      <trkpt lat="47.14203" lon="6.16267">
        <ele>477.4</ele>
        <time>2026-05-24T08:07:13Z</time>
      </trkpt>
      <trkpt lat="47.14201" lon="6.16265">
        <ele>477.6</ele>
        <time>2026-05-24T08:07:14Z</time>
      </trkpt>
      <trkpt lat="47.14199" lon="6.16262">
        <ele>477.8</ele>
        <time>2026-05-24T08:07:15Z</time>
      </trkpt>
      <trkpt lat="47.14199" lon="6.16262">
        <ele>477.8</ele>
        <time>2026-05-24T08:07:16Z</time>
      </trkpt>
      <trkpt lat="47.14198" lon="6.16261">
        <ele>478.2</ele>
        <time>2026-05-24T08:07:17Z</time>
      </trkpt>
      <trkpt lat="47.14196" lon="6.16259">
        <ele>478.2</ele>
        <time>2026-05-24T08:07:18Z</time>
      </trkpt>
      <trkpt lat="47.14195" lon="6.16257">
        <ele>478.2</ele>
        <time>2026-05-24T08:07:19Z</time>
      </trkpt>
      <trkpt lat="47.14194" lon="6.16256">
        <ele>478.6</ele>
        <time>2026-05-24T08:07:20Z</time>
      </trkpt>
      <trkpt lat="47.14193" lon="6.16253">
        <ele>478.6</ele>
        <time>2026-05-24T08:07:21Z</time>
      </trkpt>
      <trkpt lat="47.14192" lon="6.16251">
        <ele>478.6</ele>
        <time>2026-05-24T08:07:22Z</time>
      </trkpt>
      <trkpt lat="47.14192" lon="6.16251">
        <ele>478.8</ele>
        <time>2026-05-24T08:07:23Z</time>
      </trkpt>
      <trkpt lat="47.14192" lon="6.16249">
        <ele>479.2</ele>
        <time>2026-05-24T08:07:24Z</time>
      </trkpt>
      <trkpt lat="47.14194" lon="6.16249">
        <ele>479</ele>
        <time>2026-05-24T08:07:25Z</time>
      </trkpt>
      <trkpt lat="47.14195" lon="6.16248">
        <ele>479.4</ele>
        <time>2026-05-24T08:07:26Z</time>
      </trkpt>
      <trkpt lat="47.14195" lon="6.16248">
        <ele>479.6</ele>
        <time>2026-05-24T08:07:27Z</time>
      </trkpt>
      <trkpt lat="47.14195" lon="6.16248">
        <ele>479.8</ele>
        <time>2026-05-24T08:07:28Z</time>
      </trkpt>
      <trkpt lat="47.14195" lon="6.16249">
        <ele>480.2</ele>
        <time>2026-05-24T08:07:29Z</time>
      </trkpt>
      <trkpt lat="47.14195" lon="6.16248">
        <ele>480.2</ele>
        <time>2026-05-24T08:07:30Z</time>
      </trkpt>
      <trkpt lat="47.14193" lon="6.16246">
        <ele>480.6</ele>
        <time>2026-05-24T08:07:31Z</time>
      </trkpt>
      <trkpt lat="47.14191" lon="6.16246">
        <ele>481</ele>
        <time>2026-05-24T08:07:32Z</time>
      </trkpt>
      <trkpt lat="47.14189" lon="6.16246">
        <ele>481.2</ele>
        <time>2026-05-24T08:07:33Z</time>
      </trkpt>
      <trkpt lat="47.14188" lon="6.16245">
        <ele>481.4</ele>
        <time>2026-05-24T08:07:34Z</time>
      </trkpt>
      <trkpt lat="47.14185" lon="6.16244">
        <ele>481.6</ele>
        <time>2026-05-24T08:07:35Z</time>
      </trkpt>
      <trkpt lat="47.14183" lon="6.16243">
        <ele>482</ele>
        <time>2026-05-24T08:07:36Z</time>
      </trkpt>
      <trkpt lat="47.14181" lon="6.16243">
        <ele>482.4</ele>
        <time>2026-05-24T08:07:37Z</time>
      </trkpt>
      <trkpt lat="47.14176" lon="6.16239">
        <ele>482.4</ele>
        <time>2026-05-24T08:07:38Z</time>
      </trkpt>
      <trkpt lat="47.14174" lon="6.16236">
        <ele>482.6</ele>
        <time>2026-05-24T08:07:39Z</time>
      </trkpt>
      <trkpt lat="47.14172" lon="6.16234">
        <ele>482.8</ele>
        <time>2026-05-24T08:07:40Z</time>
      </trkpt>
      <trkpt lat="47.14172" lon="6.16232">
        <ele>483.2</ele>
        <time>2026-05-24T08:07:41Z</time>
      </trkpt>
      <trkpt lat="47.14169" lon="6.16235">
        <ele>483.2</ele>
        <time>2026-05-24T08:07:42Z</time>
      </trkpt>
      <trkpt lat="47.14166" lon="6.16235">
        <ele>483.6</ele>
        <time>2026-05-24T08:07:43Z</time>
      </trkpt>
      <trkpt lat="47.14163" lon="6.16234">
        <ele>483.6</ele>
        <time>2026-05-24T08:07:44Z</time>
      </trkpt>
      <trkpt lat="47.14163" lon="6.16234">
        <ele>484</ele>
        <time>2026-05-24T08:07:45Z</time>
      </trkpt>
      <trkpt lat="47.14161" lon="6.16232">
        <ele>484</ele>
        <time>2026-05-24T08:07:46Z</time>
      </trkpt>
      <trkpt lat="47.14159" lon="6.16232">
        <ele>484.2</ele>
        <time>2026-05-24T08:07:47Z</time>
      </trkpt>
      <trkpt lat="47.14153" lon="6.1623">
        <ele>484.2</ele>
        <time>2026-05-24T08:07:48Z</time>
      </trkpt>
      <trkpt lat="47.14151" lon="6.1623">
        <ele>484.4</ele>
        <time>2026-05-24T08:07:49Z</time>
      </trkpt>
      <trkpt lat="47.14149" lon="6.1623">
        <ele>484.6</ele>
        <time>2026-05-24T08:07:50Z</time>
      </trkpt>
      <trkpt lat="47.14146" lon="6.16229">
        <ele>484.8</ele>
        <time>2026-05-24T08:07:51Z</time>
      </trkpt>
      <trkpt lat="47.14143" lon="6.16229">
        <ele>484.6</ele>
        <time>2026-05-24T08:07:52Z</time>
      </trkpt>
      <trkpt lat="47.1414" lon="6.16229">
        <ele>485</ele>
        <time>2026-05-24T08:07:53Z</time>
      </trkpt>
      <trkpt lat="47.14137" lon="6.16228">
        <ele>485</ele>
        <time>2026-05-24T08:07:54Z</time>
      </trkpt>
      <trkpt lat="47.14134" lon="6.16227">
        <ele>485</ele>
        <time>2026-05-24T08:07:55Z</time>
      </trkpt>
      <trkpt lat="47.14134" lon="6.16227">
        <ele>485</ele>
        <time>2026-05-24T08:07:56Z</time>
      </trkpt>
      <trkpt lat="47.14131" lon="6.16225">
        <ele>485</ele>
        <time>2026-05-24T08:07:57Z</time>
      </trkpt>
      <trkpt lat="47.14128" lon="6.16224">
        <ele>485.2</ele>
        <time>2026-05-24T08:07:58Z</time>
      </trkpt>
      <trkpt lat="47.14124" lon="6.16223">
        <ele>485.2</ele>
        <time>2026-05-24T08:07:59Z</time>
      </trkpt>
      <trkpt lat="47.14121" lon="6.16224">
        <ele>485.2</ele>
        <time>2026-05-24T08:08:00Z</time>
      </trkpt>
      <trkpt lat="47.14115" lon="6.16226">
        <ele>485.2</ele>
        <time>2026-05-24T08:08:01Z</time>
      </trkpt>
      <trkpt lat="47.14115" lon="6.16226">
        <ele>485.2</ele>
        <time>2026-05-24T08:08:02Z</time>
      </trkpt>
      <trkpt lat="47.14111" lon="6.16228">
        <ele>485.4</ele>
        <time>2026-05-24T08:08:03Z</time>
      </trkpt>
      <trkpt lat="47.1411" lon="6.16229">
        <ele>485.4</ele>
        <time>2026-05-24T08:08:04Z</time>
      </trkpt>
      <trkpt lat="47.14109" lon="6.16231">
        <ele>485.6</ele>
        <time>2026-05-24T08:08:05Z</time>
      </trkpt>
      <trkpt lat="47.14108" lon="6.16233">
        <ele>485.6</ele>
        <time>2026-05-24T08:08:06Z</time>
      </trkpt>
      <trkpt lat="47.14106" lon="6.16234">
        <ele>485.6</ele>
        <time>2026-05-24T08:08:07Z</time>
      </trkpt>
      <trkpt lat="47.14104" lon="6.16236">
        <ele>485.8</ele>
        <time>2026-05-24T08:08:08Z</time>
      </trkpt>
      <trkpt lat="47.14103" lon="6.16238">
        <ele>485.8</ele>
        <time>2026-05-24T08:08:09Z</time>
      </trkpt>
      <trkpt lat="47.14102" lon="6.1624">
        <ele>486.2</ele>
        <time>2026-05-24T08:08:10Z</time>
      </trkpt>
      <trkpt lat="47.14102" lon="6.16242">
        <ele>486.6</ele>
        <time>2026-05-24T08:08:11Z</time>
      </trkpt>
      <trkpt lat="47.14103" lon="6.16245">
        <ele>486.8</ele>
        <time>2026-05-24T08:08:12Z</time>
      </trkpt>
      <trkpt lat="47.14103" lon="6.16247">
        <ele>487</ele>
        <time>2026-05-24T08:08:13Z</time>
      </trkpt>
      <trkpt lat="47.14104" lon="6.1625">
        <ele>487.2</ele>
        <time>2026-05-24T08:08:14Z</time>
      </trkpt>
      <trkpt lat="47.14104" lon="6.16253">
        <ele>487.4</ele>
        <time>2026-05-24T08:08:15Z</time>
      </trkpt>
      <trkpt lat="47.14105" lon="6.16256">
        <ele>487.6</ele>
        <time>2026-05-24T08:08:16Z</time>
      </trkpt>
      <trkpt lat="47.14105" lon="6.16256">
        <ele>487.8</ele>
        <time>2026-05-24T08:08:17Z</time>
      </trkpt>
      <trkpt lat="47.14105" lon="6.16258">
        <ele>488</ele>
        <time>2026-05-24T08:08:18Z</time>
      </trkpt>
      <trkpt lat="47.14105" lon="6.16262">
        <ele>488</ele>
        <time>2026-05-24T08:08:19Z</time>
      </trkpt>
      <trkpt lat="47.14106" lon="6.16268">
        <ele>488.2</ele>
        <time>2026-05-24T08:08:20Z</time>
      </trkpt>
      <trkpt lat="47.14106" lon="6.16268">
        <ele>488.4</ele>
        <time>2026-05-24T08:08:21Z</time>
      </trkpt>
      <trkpt lat="47.14106" lon="6.16271">
        <ele>488.6</ele>
        <time>2026-05-24T08:08:22Z</time>
      </trkpt>
      <trkpt lat="47.14106" lon="6.16273">
        <ele>488.6</ele>
        <time>2026-05-24T08:08:23Z</time>
      </trkpt>
      <trkpt lat="47.14106" lon="6.16278">
        <ele>488.6</ele>
        <time>2026-05-24T08:08:24Z</time>
      </trkpt>
      <trkpt lat="47.14106" lon="6.1628">
        <ele>488.6</ele>
        <time>2026-05-24T08:08:25Z</time>
      </trkpt>
      <trkpt lat="47.14105" lon="6.16283">
        <ele>488.6</ele>
        <time>2026-05-24T08:08:26Z</time>
      </trkpt>
      <trkpt lat="47.14105" lon="6.16285">
        <ele>488.8</ele>
        <time>2026-05-24T08:08:27Z</time>
      </trkpt>
      <trkpt lat="47.14105" lon="6.16287">
        <ele>489</ele>
        <time>2026-05-24T08:08:28Z</time>
      </trkpt>
      <trkpt lat="47.14105" lon="6.16289">
        <ele>489</ele>
        <time>2026-05-24T08:08:29Z</time>
      </trkpt>
      <trkpt lat="47.14105" lon="6.16289">
        <ele>489.4</ele>
        <time>2026-05-24T08:08:30Z</time>
      </trkpt>
      <trkpt lat="47.14106" lon="6.16291">
        <ele>489.6</ele>
        <time>2026-05-24T08:08:31Z</time>
      </trkpt>
      <trkpt lat="47.14106" lon="6.16293">
        <ele>489.8</ele>
        <time>2026-05-24T08:08:32Z</time>
      </trkpt>
      <trkpt lat="47.14106" lon="6.16296">
        <ele>489.8</ele>
        <time>2026-05-24T08:08:33Z</time>
      </trkpt>
      <trkpt lat="47.14106" lon="6.16297">
        <ele>489.8</ele>
        <time>2026-05-24T08:08:34Z</time>
      </trkpt>
      <trkpt lat="47.14106" lon="6.16299">
        <ele>490.2</ele>
        <time>2026-05-24T08:08:35Z</time>
      </trkpt>
      <trkpt lat="47.14106" lon="6.16301">
        <ele>490.6</ele>
        <time>2026-05-24T08:08:36Z</time>
      </trkpt>
      <trkpt lat="47.14105" lon="6.16303">
        <ele>490.8</ele>
        <time>2026-05-24T08:08:37Z</time>
      </trkpt>
      <trkpt lat="47.14105" lon="6.16304">
        <ele>491.2</ele>
        <time>2026-05-24T08:08:38Z</time>
      </trkpt>
      <trkpt lat="47.14104" lon="6.16306">
        <ele>491.2</ele>
        <time>2026-05-24T08:08:39Z</time>
      </trkpt>
      <trkpt lat="47.14104" lon="6.16308">
        <ele>491.6</ele>
        <time>2026-05-24T08:08:40Z</time>
      </trkpt>
      <trkpt lat="47.14102" lon="6.16312">
        <ele>492</ele>
        <time>2026-05-24T08:08:41Z</time>
      </trkpt>
      <trkpt lat="47.14102" lon="6.16312">
        <ele>492.4</ele>
        <time>2026-05-24T08:08:42Z</time>
      </trkpt>
      <trkpt lat="47.14102" lon="6.16314">
        <ele>492.8</ele>
        <time>2026-05-24T08:08:43Z</time>
      </trkpt>
      <trkpt lat="47.14098" lon="6.16316">
        <ele>492.8</ele>
        <time>2026-05-24T08:08:44Z</time>
      </trkpt>
      <trkpt lat="47.14097" lon="6.16318">
        <ele>492.8</ele>
        <time>2026-05-24T08:08:45Z</time>
      </trkpt>
      <trkpt lat="47.14097" lon="6.1632">
        <ele>493.2</ele>
        <time>2026-05-24T08:08:46Z</time>
      </trkpt>
      <trkpt lat="47.14096" lon="6.16322">
        <ele>493.4</ele>
        <time>2026-05-24T08:08:47Z</time>
      </trkpt>
      <trkpt lat="47.14095" lon="6.16324">
        <ele>493.6</ele>
        <time>2026-05-24T08:08:48Z</time>
      </trkpt>
      <trkpt lat="47.14094" lon="6.16325">
        <ele>493.8</ele>
        <time>2026-05-24T08:08:49Z</time>
      </trkpt>
      <trkpt lat="47.14093" lon="6.16327">
        <ele>494.2</ele>
        <time>2026-05-24T08:08:50Z</time>
      </trkpt>
      <trkpt lat="47.14093" lon="6.16327">
        <ele>494.6</ele>
        <time>2026-05-24T08:08:51Z</time>
      </trkpt>
      <trkpt lat="47.14091" lon="6.16331">
        <ele>494.8</ele>
        <time>2026-05-24T08:08:52Z</time>
      </trkpt>
      <trkpt lat="47.14091" lon="6.16332">
        <ele>495</ele>
        <time>2026-05-24T08:08:53Z</time>
      </trkpt>
      <trkpt lat="47.1409" lon="6.16334">
        <ele>495.2</ele>
        <time>2026-05-24T08:08:54Z</time>
      </trkpt>
      <trkpt lat="47.14089" lon="6.16336">
        <ele>495.2</ele>
        <time>2026-05-24T08:08:55Z</time>
      </trkpt>
      <trkpt lat="47.14088" lon="6.16338">
        <ele>495.8</ele>
        <time>2026-05-24T08:08:56Z</time>
      </trkpt>
      <trkpt lat="47.14087" lon="6.16339">
        <ele>496</ele>
        <time>2026-05-24T08:08:57Z</time>
      </trkpt>
      <trkpt lat="47.14087" lon="6.16341">
        <ele>496.2</ele>
        <time>2026-05-24T08:08:58Z</time>
      </trkpt>
      <trkpt lat="47.14086" lon="6.16342">
        <ele>496.6</ele>
        <time>2026-05-24T08:08:59Z</time>
      </trkpt>
      <trkpt lat="47.14085" lon="6.16343">
        <ele>496.6</ele>
        <time>2026-05-24T08:09:00Z</time>
      </trkpt>
      <trkpt lat="47.14084" lon="6.16345">
        <ele>496.8</ele>
        <time>2026-05-24T08:09:01Z</time>
      </trkpt>
      <trkpt lat="47.14084" lon="6.16345">
        <ele>496.8</ele>
        <time>2026-05-24T08:09:02Z</time>
      </trkpt>
      <trkpt lat="47.14083" lon="6.16346">
        <ele>497.2</ele>
        <time>2026-05-24T08:09:03Z</time>
      </trkpt>
      <trkpt lat="47.14082" lon="6.16347">
        <ele>497.2</ele>
        <time>2026-05-24T08:09:04Z</time>
      </trkpt>
      <trkpt lat="47.14081" lon="6.16349">
        <ele>497.4</ele>
        <time>2026-05-24T08:09:05Z</time>
      </trkpt>
      <trkpt lat="47.14081" lon="6.16351">
        <ele>497.8</ele>
        <time>2026-05-24T08:09:06Z</time>
      </trkpt>
      <trkpt lat="47.1408" lon="6.16352">
        <ele>497.8</ele>
        <time>2026-05-24T08:09:07Z</time>
      </trkpt>
      <trkpt lat="47.14079" lon="6.16353">
        <ele>497.8</ele>
        <time>2026-05-24T08:09:08Z</time>
      </trkpt>
      <trkpt lat="47.14078" lon="6.16354">
        <ele>498</ele>
        <time>2026-05-24T08:09:09Z</time>
      </trkpt>
      <trkpt lat="47.14077" lon="6.16356">
        <ele>498.2</ele>
        <time>2026-05-24T08:09:10Z</time>
      </trkpt>
      <trkpt lat="47.14075" lon="6.16359">
        <ele>498.4</ele>
        <time>2026-05-24T08:09:11Z</time>
      </trkpt>
      <trkpt lat="47.14074" lon="6.16361">
        <ele>498.6</ele>
        <time>2026-05-24T08:09:12Z</time>
      </trkpt>
      <trkpt lat="47.14073" lon="6.16363">
        <ele>498.8</ele>
        <time>2026-05-24T08:09:13Z</time>
      </trkpt>
      <trkpt lat="47.14072" lon="6.16364">
        <ele>498.8</ele>
        <time>2026-05-24T08:09:14Z</time>
      </trkpt>
      <trkpt lat="47.14071" lon="6.16366">
        <ele>499</ele>
        <time>2026-05-24T08:09:15Z</time>
      </trkpt>
      <trkpt lat="47.1407" lon="6.16367">
        <ele>499.2</ele>
        <time>2026-05-24T08:09:16Z</time>
      </trkpt>
      <trkpt lat="47.1407" lon="6.16368">
        <ele>499.2</ele>
        <time>2026-05-24T08:09:17Z</time>
      </trkpt>
      <trkpt lat="47.14069" lon="6.1637">
        <ele>499.4</ele>
        <time>2026-05-24T08:09:18Z</time>
      </trkpt>
      <trkpt lat="47.14068" lon="6.16371">
        <ele>499.6</ele>
        <time>2026-05-24T08:09:19Z</time>
      </trkpt>
      <trkpt lat="47.14066" lon="6.16372">
        <ele>500</ele>
        <time>2026-05-24T08:09:20Z</time>
      </trkpt>
      <trkpt lat="47.14065" lon="6.16374">
        <ele>500</ele>
        <time>2026-05-24T08:09:21Z</time>
      </trkpt>
      <trkpt lat="47.14064" lon="6.16376">
        <ele>500.2</ele>
        <time>2026-05-24T08:09:22Z</time>
      </trkpt>
      <trkpt lat="47.14063" lon="6.16379">
        <ele>500.6</ele>
        <time>2026-05-24T08:09:23Z</time>
      </trkpt>
      <trkpt lat="47.14062" lon="6.1638">
        <ele>500.6</ele>
        <time>2026-05-24T08:09:24Z</time>
      </trkpt>
      <trkpt lat="47.14061" lon="6.16382">
        <ele>501</ele>
        <time>2026-05-24T08:09:25Z</time>
      </trkpt>
      <trkpt lat="47.1406" lon="6.16384">
        <ele>501.2</ele>
        <time>2026-05-24T08:09:26Z</time>
      </trkpt>
      <trkpt lat="47.14059" lon="6.16386">
        <ele>501.2</ele>
        <time>2026-05-24T08:09:27Z</time>
      </trkpt>
      <trkpt lat="47.14057" lon="6.16388">
        <ele>501.8</ele>
        <time>2026-05-24T08:09:28Z</time>
      </trkpt>
      <trkpt lat="47.14056" lon="6.1639">
        <ele>501.8</ele>
        <time>2026-05-24T08:09:29Z</time>
      </trkpt>
      <trkpt lat="47.14055" lon="6.16391">
        <ele>501.8</ele>
        <time>2026-05-24T08:09:30Z</time>
      </trkpt>
      <trkpt lat="47.14054" lon="6.16393">
        <ele>502.2</ele>
        <time>2026-05-24T08:09:31Z</time>
      </trkpt>
      <trkpt lat="47.14054" lon="6.16393">
        <ele>502.2</ele>
        <time>2026-05-24T08:09:32Z</time>
      </trkpt>
      <trkpt lat="47.14053" lon="6.16395">
        <ele>502.2</ele>
        <time>2026-05-24T08:09:33Z</time>
      </trkpt>
      <trkpt lat="47.14052" lon="6.16396">
        <ele>502.4</ele>
        <time>2026-05-24T08:09:34Z</time>
      </trkpt>
      <trkpt lat="47.1405" lon="6.16398">
        <ele>502.6</ele>
        <time>2026-05-24T08:09:35Z</time>
      </trkpt>
      <trkpt lat="47.1405" lon="6.164">
        <ele>502.8</ele>
        <time>2026-05-24T08:09:36Z</time>
      </trkpt>
      <trkpt lat="47.1405" lon="6.16402">
        <ele>502.8</ele>
        <time>2026-05-24T08:09:37Z</time>
      </trkpt>
      <trkpt lat="47.1405" lon="6.16404">
        <ele>502.8</ele>
        <time>2026-05-24T08:09:38Z</time>
      </trkpt>
      <trkpt lat="47.14049" lon="6.16406">
        <ele>503</ele>
        <time>2026-05-24T08:09:39Z</time>
      </trkpt>
      <trkpt lat="47.14049" lon="6.16408">
        <ele>503.2</ele>
        <time>2026-05-24T08:09:40Z</time>
      </trkpt>
      <trkpt lat="47.14048" lon="6.16413">
        <ele>503.2</ele>
        <time>2026-05-24T08:09:41Z</time>
      </trkpt>
      <trkpt lat="47.14048" lon="6.16413">
        <ele>503.4</ele>
        <time>2026-05-24T08:09:42Z</time>
      </trkpt>
      <trkpt lat="47.14046" lon="6.16418">
        <ele>503.6</ele>
        <time>2026-05-24T08:09:43Z</time>
      </trkpt>
      <trkpt lat="47.14046" lon="6.16418">
        <ele>503.6</ele>
        <time>2026-05-24T08:09:44Z</time>
      </trkpt>
      <trkpt lat="47.14045" lon="6.1642">
        <ele>503.8</ele>
        <time>2026-05-24T08:09:45Z</time>
      </trkpt>
      <trkpt lat="47.14044" lon="6.16423">
        <ele>503.8</ele>
        <time>2026-05-24T08:09:46Z</time>
      </trkpt>
      <trkpt lat="47.14043" lon="6.16425">
        <ele>504</ele>
        <time>2026-05-24T08:09:47Z</time>
      </trkpt>
      <trkpt lat="47.14043" lon="6.16426">
        <ele>504</ele>
        <time>2026-05-24T08:09:48Z</time>
      </trkpt>
      <trkpt lat="47.14042" lon="6.16428">
        <ele>504.2</ele>
        <time>2026-05-24T08:09:49Z</time>
      </trkpt>
      <trkpt lat="47.14039" lon="6.16431">
        <ele>504.2</ele>
        <time>2026-05-24T08:09:50Z</time>
      </trkpt>
      <trkpt lat="47.14037" lon="6.16433">
        <ele>504.4</ele>
        <time>2026-05-24T08:09:51Z</time>
      </trkpt>
      <trkpt lat="47.14035" lon="6.16435">
        <ele>504.4</ele>
        <time>2026-05-24T08:09:52Z</time>
      </trkpt>
      <trkpt lat="47.14034" lon="6.16437">
        <ele>504.4</ele>
        <time>2026-05-24T08:09:53Z</time>
      </trkpt>
      <trkpt lat="47.14034" lon="6.16437">
        <ele>504.6</ele>
        <time>2026-05-24T08:09:54Z</time>
      </trkpt>
      <trkpt lat="47.14032" lon="6.16441">
        <ele>504.6</ele>
        <time>2026-05-24T08:09:55Z</time>
      </trkpt>
      <trkpt lat="47.14032" lon="6.16441">
        <ele>504.8</ele>
        <time>2026-05-24T08:09:56Z</time>
      </trkpt>
      <trkpt lat="47.14031" lon="6.16443">
        <ele>505</ele>
        <time>2026-05-24T08:09:57Z</time>
      </trkpt>
      <trkpt lat="47.14029" lon="6.16444">
        <ele>505</ele>
        <time>2026-05-24T08:09:58Z</time>
      </trkpt>
      <trkpt lat="47.14028" lon="6.16446">
        <ele>505.4</ele>
        <time>2026-05-24T08:09:59Z</time>
      </trkpt>
      <trkpt lat="47.14028" lon="6.16447">
        <ele>505.2</ele>
        <time>2026-05-24T08:10:00Z</time>
      </trkpt>
      <trkpt lat="47.14026" lon="6.16449">
        <ele>505.4</ele>
        <time>2026-05-24T08:10:01Z</time>
      </trkpt>
      <trkpt lat="47.14023" lon="6.1645">
        <ele>505.4</ele>
        <time>2026-05-24T08:10:02Z</time>
      </trkpt>
      <trkpt lat="47.14019" lon="6.16451">
        <ele>505.6</ele>
        <time>2026-05-24T08:10:03Z</time>
      </trkpt>
      <trkpt lat="47.14017" lon="6.16453">
        <ele>505.8</ele>
        <time>2026-05-24T08:10:04Z</time>
      </trkpt>
      <trkpt lat="47.14015" lon="6.16454">
        <ele>505.8</ele>
        <time>2026-05-24T08:10:05Z</time>
      </trkpt>
      <trkpt lat="47.14013" lon="6.16456">
        <ele>506.2</ele>
        <time>2026-05-24T08:10:06Z</time>
      </trkpt>
      <trkpt lat="47.14011" lon="6.16456">
        <ele>506.2</ele>
        <time>2026-05-24T08:10:07Z</time>
      </trkpt>
      <trkpt lat="47.14007" lon="6.16456">
        <ele>506.2</ele>
        <time>2026-05-24T08:10:08Z</time>
      </trkpt>
      <trkpt lat="47.14004" lon="6.16456">
        <ele>506.2</ele>
        <time>2026-05-24T08:10:09Z</time>
      </trkpt>
      <trkpt lat="47.14" lon="6.16455">
        <ele>506.2</ele>
        <time>2026-05-24T08:10:10Z</time>
      </trkpt>
      <trkpt lat="47.13998" lon="6.16457">
        <ele>506.6</ele>
        <time>2026-05-24T08:10:11Z</time>
      </trkpt>
      <trkpt lat="47.13997" lon="6.16459">
        <ele>506.8</ele>
        <time>2026-05-24T08:10:12Z</time>
      </trkpt>
      <trkpt lat="47.13996" lon="6.1646">
        <ele>507</ele>
        <time>2026-05-24T08:10:13Z</time>
      </trkpt>
      <trkpt lat="47.13995" lon="6.16462">
        <ele>507</ele>
        <time>2026-05-24T08:10:14Z</time>
      </trkpt>
      <trkpt lat="47.13993" lon="6.16464">
        <ele>507.2</ele>
        <time>2026-05-24T08:10:15Z</time>
      </trkpt>
      <trkpt lat="47.13992" lon="6.16465">
        <ele>507.6</ele>
        <time>2026-05-24T08:10:16Z</time>
      </trkpt>
      <trkpt lat="47.1399" lon="6.16467">
        <ele>507.8</ele>
        <time>2026-05-24T08:10:17Z</time>
      </trkpt>
      <trkpt lat="47.13989" lon="6.16469">
        <ele>508.2</ele>
        <time>2026-05-24T08:10:18Z</time>
      </trkpt>
      <trkpt lat="47.13987" lon="6.16471">
        <ele>508.2</ele>
        <time>2026-05-24T08:10:19Z</time>
      </trkpt>
      <trkpt lat="47.13985" lon="6.16473">
        <ele>508.6</ele>
        <time>2026-05-24T08:10:20Z</time>
      </trkpt>
      <trkpt lat="47.13984" lon="6.16475">
        <ele>508.6</ele>
        <time>2026-05-24T08:10:21Z</time>
      </trkpt>
      <trkpt lat="47.13982" lon="6.16477">
        <ele>508.8</ele>
        <time>2026-05-24T08:10:22Z</time>
      </trkpt>
      <trkpt lat="47.1398" lon="6.16479">
        <ele>509</ele>
        <time>2026-05-24T08:10:23Z</time>
      </trkpt>
      <trkpt lat="47.13978" lon="6.1648">
        <ele>509</ele>
        <time>2026-05-24T08:10:24Z</time>
      </trkpt>
      <trkpt lat="47.13977" lon="6.16483">
        <ele>509.2</ele>
        <time>2026-05-24T08:10:25Z</time>
      </trkpt>
      <trkpt lat="47.13977" lon="6.16483">
        <ele>509.4</ele>
        <time>2026-05-24T08:10:26Z</time>
      </trkpt>
      <trkpt lat="47.13975" lon="6.16485">
        <ele>509.4</ele>
        <time>2026-05-24T08:10:27Z</time>
      </trkpt>
      <trkpt lat="47.13973" lon="6.16486">
        <ele>509.8</ele>
        <time>2026-05-24T08:10:28Z</time>
      </trkpt>
      <trkpt lat="47.13971" lon="6.16489">
        <ele>509.6</ele>
        <time>2026-05-24T08:10:29Z</time>
      </trkpt>
      <trkpt lat="47.13969" lon="6.16491">
        <ele>509.8</ele>
        <time>2026-05-24T08:10:30Z</time>
      </trkpt>
      <trkpt lat="47.13967" lon="6.16493">
        <ele>509.8</ele>
        <time>2026-05-24T08:10:31Z</time>
      </trkpt>
      <trkpt lat="47.13964" lon="6.16495">
        <ele>509.8</ele>
        <time>2026-05-24T08:10:32Z</time>
      </trkpt>
      <trkpt lat="47.13962" lon="6.16496">
        <ele>510</ele>
        <time>2026-05-24T08:10:33Z</time>
      </trkpt>
      <trkpt lat="47.13959" lon="6.16498">
        <ele>510</ele>
        <time>2026-05-24T08:10:34Z</time>
      </trkpt>
      <trkpt lat="47.13956" lon="6.165">
        <ele>509.8</ele>
        <time>2026-05-24T08:10:35Z</time>
      </trkpt>
      <trkpt lat="47.13953" lon="6.16502">
        <ele>509.8</ele>
        <time>2026-05-24T08:10:36Z</time>
      </trkpt>
      <trkpt lat="47.13951" lon="6.16504">
        <ele>510</ele>
        <time>2026-05-24T08:10:37Z</time>
      </trkpt>
      <trkpt lat="47.13948" lon="6.16506">
        <ele>509.8</ele>
        <time>2026-05-24T08:10:38Z</time>
      </trkpt>
      <trkpt lat="47.13945" lon="6.16508">
        <ele>510</ele>
        <time>2026-05-24T08:10:39Z</time>
      </trkpt>
      <trkpt lat="47.13942" lon="6.16509">
        <ele>510.2</ele>
        <time>2026-05-24T08:10:40Z</time>
      </trkpt>
      <trkpt lat="47.1394" lon="6.16511">
        <ele>510.2</ele>
        <time>2026-05-24T08:10:41Z</time>
      </trkpt>
      <trkpt lat="47.13937" lon="6.16513">
        <ele>510.2</ele>
        <time>2026-05-24T08:10:42Z</time>
      </trkpt>
      <trkpt lat="47.13935" lon="6.16516">
        <ele>510.4</ele>
        <time>2026-05-24T08:10:43Z</time>
      </trkpt>
      <trkpt lat="47.13933" lon="6.16518">
        <ele>510.4</ele>
        <time>2026-05-24T08:10:44Z</time>
      </trkpt>
      <trkpt lat="47.13931" lon="6.16521">
        <ele>510.6</ele>
        <time>2026-05-24T08:10:45Z</time>
      </trkpt>
      <trkpt lat="47.13929" lon="6.16524">
        <ele>510.6</ele>
        <time>2026-05-24T08:10:46Z</time>
      </trkpt>
      <trkpt lat="47.13925" lon="6.16525">
        <ele>510.8</ele>
        <time>2026-05-24T08:10:47Z</time>
      </trkpt>
      <trkpt lat="47.1392" lon="6.16526">
        <ele>510.8</ele>
        <time>2026-05-24T08:10:48Z</time>
      </trkpt>
      <trkpt lat="47.13916" lon="6.16527">
        <ele>511</ele>
        <time>2026-05-24T08:10:49Z</time>
      </trkpt>
      <trkpt lat="47.13912" lon="6.16529">
        <ele>511</ele>
        <time>2026-05-24T08:10:50Z</time>
      </trkpt>
      <trkpt lat="47.13908" lon="6.1653">
        <ele>511.2</ele>
        <time>2026-05-24T08:10:51Z</time>
      </trkpt>
      <trkpt lat="47.13905" lon="6.16532">
        <ele>511.4</ele>
        <time>2026-05-24T08:10:52Z</time>
      </trkpt>
      <trkpt lat="47.13902" lon="6.16534">
        <ele>511.6</ele>
        <time>2026-05-24T08:10:53Z</time>
      </trkpt>
      <trkpt lat="47.139" lon="6.16537">
        <ele>511.8</ele>
        <time>2026-05-24T08:10:54Z</time>
      </trkpt>
      <trkpt lat="47.13898" lon="6.1654">
        <ele>512</ele>
        <time>2026-05-24T08:10:55Z</time>
      </trkpt>
      <trkpt lat="47.13898" lon="6.16544">
        <ele>512.4</ele>
        <time>2026-05-24T08:10:56Z</time>
      </trkpt>
      <trkpt lat="47.13897" lon="6.16548">
        <ele>512.6</ele>
        <time>2026-05-24T08:10:57Z</time>
      </trkpt>
      <trkpt lat="47.13897" lon="6.16552">
        <ele>512.6</ele>
        <time>2026-05-24T08:10:58Z</time>
      </trkpt>
      <trkpt lat="47.13897" lon="6.16556">
        <ele>512.8</ele>
        <time>2026-05-24T08:10:59Z</time>
      </trkpt>
      <trkpt lat="47.13898" lon="6.1656">
        <ele>513</ele>
        <time>2026-05-24T08:11:00Z</time>
      </trkpt>
      <trkpt lat="47.13898" lon="6.16564">
        <ele>513.2</ele>
        <time>2026-05-24T08:11:01Z</time>
      </trkpt>
      <trkpt lat="47.13898" lon="6.16569">
        <ele>513.6</ele>
        <time>2026-05-24T08:11:02Z</time>
      </trkpt>
      <trkpt lat="47.13897" lon="6.16573">
        <ele>514</ele>
        <time>2026-05-24T08:11:03Z</time>
      </trkpt>
      <trkpt lat="47.13897" lon="6.16578">
        <ele>514.4</ele>
        <time>2026-05-24T08:11:04Z</time>
      </trkpt>
      <trkpt lat="47.13898" lon="6.16583">
        <ele>514.6</ele>
        <time>2026-05-24T08:11:05Z</time>
      </trkpt>
      <trkpt lat="47.13899" lon="6.16588">
        <ele>515</ele>
        <time>2026-05-24T08:11:06Z</time>
      </trkpt>
      <trkpt lat="47.139" lon="6.16593">
        <ele>515.2</ele>
        <time>2026-05-24T08:11:07Z</time>
      </trkpt>
      <trkpt lat="47.139" lon="6.16598">
        <ele>515.4</ele>
        <time>2026-05-24T08:11:08Z</time>
      </trkpt>
      <trkpt lat="47.13903" lon="6.16603">
        <ele>516</ele>
        <time>2026-05-24T08:11:09Z</time>
      </trkpt>
      <trkpt lat="47.13902" lon="6.16607">
        <ele>516.2</ele>
        <time>2026-05-24T08:11:10Z</time>
      </trkpt>
      <trkpt lat="47.13902" lon="6.16611">
        <ele>516.4</ele>
        <time>2026-05-24T08:11:11Z</time>
      </trkpt>
      <trkpt lat="47.139" lon="6.16614">
        <ele>516.4</ele>
        <time>2026-05-24T08:11:12Z</time>
      </trkpt>
      <trkpt lat="47.139" lon="6.16618">
        <ele>516.6</ele>
        <time>2026-05-24T08:11:13Z</time>
      </trkpt>
      <trkpt lat="47.13899" lon="6.16621">
        <ele>517</ele>
        <time>2026-05-24T08:11:14Z</time>
      </trkpt>
      <trkpt lat="47.13898" lon="6.16624">
        <ele>517</ele>
        <time>2026-05-24T08:11:15Z</time>
      </trkpt>
      <trkpt lat="47.13896" lon="6.16626">
        <ele>517.2</ele>
        <time>2026-05-24T08:11:16Z</time>
      </trkpt>
      <trkpt lat="47.13892" lon="6.16628">
        <ele>517.6</ele>
        <time>2026-05-24T08:11:17Z</time>
      </trkpt>
      <trkpt lat="47.13888" lon="6.1663">
        <ele>518</ele>
        <time>2026-05-24T08:11:18Z</time>
      </trkpt>
      <trkpt lat="47.13885" lon="6.16633">
        <ele>518.4</ele>
        <time>2026-05-24T08:11:19Z</time>
      </trkpt>
      <trkpt lat="47.13883" lon="6.16637">
        <ele>518.4</ele>
        <time>2026-05-24T08:11:20Z</time>
      </trkpt>
      <trkpt lat="47.13882" lon="6.16641">
        <ele>518.4</ele>
        <time>2026-05-24T08:11:21Z</time>
      </trkpt>
      <trkpt lat="47.1388" lon="6.16645">
        <ele>519</ele>
        <time>2026-05-24T08:11:22Z</time>
      </trkpt>
      <trkpt lat="47.13879" lon="6.16649">
        <ele>519.4</ele>
        <time>2026-05-24T08:11:23Z</time>
      </trkpt>
      <trkpt lat="47.13878" lon="6.16652">
        <ele>519.4</ele>
        <time>2026-05-24T08:11:24Z</time>
      </trkpt>
      <trkpt lat="47.13877" lon="6.16655">
        <ele>519.8</ele>
        <time>2026-05-24T08:11:25Z</time>
      </trkpt>
      <trkpt lat="47.13874" lon="6.16659">
        <ele>520.2</ele>
        <time>2026-05-24T08:11:26Z</time>
      </trkpt>
      <trkpt lat="47.13872" lon="6.16662">
        <ele>520.6</ele>
        <time>2026-05-24T08:11:27Z</time>
      </trkpt>
      <trkpt lat="47.1387" lon="6.16666">
        <ele>521</ele>
        <time>2026-05-24T08:11:28Z</time>
      </trkpt>
      <trkpt lat="47.13868" lon="6.16669">
        <ele>521.4</ele>
        <time>2026-05-24T08:11:29Z</time>
      </trkpt>
      <trkpt lat="47.13866" lon="6.16673">
        <ele>521.8</ele>
        <time>2026-05-24T08:11:30Z</time>
      </trkpt>
      <trkpt lat="47.13863" lon="6.1668">
        <ele>522.2</ele>
        <time>2026-05-24T08:11:31Z</time>
      </trkpt>
      <trkpt lat="47.13863" lon="6.1668">
        <ele>522.4</ele>
        <time>2026-05-24T08:11:32Z</time>
      </trkpt>
      <trkpt lat="47.13861" lon="6.16683">
        <ele>522.6</ele>
        <time>2026-05-24T08:11:33Z</time>
      </trkpt>
      <trkpt lat="47.1386" lon="6.16686">
        <ele>523</ele>
        <time>2026-05-24T08:11:34Z</time>
      </trkpt>
      <trkpt lat="47.13859" lon="6.16689">
        <ele>523.4</ele>
        <time>2026-05-24T08:11:35Z</time>
      </trkpt>
      <trkpt lat="47.13857" lon="6.16692">
        <ele>523.8</ele>
        <time>2026-05-24T08:11:36Z</time>
      </trkpt>
      <trkpt lat="47.13855" lon="6.16695">
        <ele>524</ele>
        <time>2026-05-24T08:11:37Z</time>
      </trkpt>
      <trkpt lat="47.13853" lon="6.16698">
        <ele>524.6</ele>
        <time>2026-05-24T08:11:38Z</time>
      </trkpt>
      <trkpt lat="47.13851" lon="6.167">
        <ele>524.8</ele>
        <time>2026-05-24T08:11:39Z</time>
      </trkpt>
      <trkpt lat="47.13849" lon="6.16702">
        <ele>525.4</ele>
        <time>2026-05-24T08:11:40Z</time>
      </trkpt>
      <trkpt lat="47.13847" lon="6.16704">
        <ele>526</ele>
        <time>2026-05-24T08:11:41Z</time>
      </trkpt>
      <trkpt lat="47.13845" lon="6.16706">
        <ele>526</ele>
        <time>2026-05-24T08:11:42Z</time>
      </trkpt>
      <trkpt lat="47.13843" lon="6.16709">
        <ele>526.4</ele>
        <time>2026-05-24T08:11:43Z</time>
      </trkpt>
      <trkpt lat="47.1384" lon="6.16711">
        <ele>526.8</ele>
        <time>2026-05-24T08:11:44Z</time>
      </trkpt>
      <trkpt lat="47.13838" lon="6.16714">
        <ele>527</ele>
        <time>2026-05-24T08:11:45Z</time>
      </trkpt>
      <trkpt lat="47.13835" lon="6.16716">
        <ele>527.2</ele>
        <time>2026-05-24T08:11:46Z</time>
      </trkpt>
      <trkpt lat="47.13832" lon="6.16719">
        <ele>527.6</ele>
        <time>2026-05-24T08:11:47Z</time>
      </trkpt>
      <trkpt lat="47.13826" lon="6.16723">
        <ele>527.8</ele>
        <time>2026-05-24T08:11:48Z</time>
      </trkpt>
      <trkpt lat="47.13826" lon="6.16723">
        <ele>528</ele>
        <time>2026-05-24T08:11:49Z</time>
      </trkpt>
      <trkpt lat="47.13824" lon="6.16725">
        <ele>528.2</ele>
        <time>2026-05-24T08:11:50Z</time>
      </trkpt>
      <trkpt lat="47.13822" lon="6.16727">
        <ele>528.4</ele>
        <time>2026-05-24T08:11:51Z</time>
      </trkpt>
      <trkpt lat="47.1382" lon="6.16729">
        <ele>528.8</ele>
        <time>2026-05-24T08:11:52Z</time>
      </trkpt>
      <trkpt lat="47.13818" lon="6.16731">
        <ele>528.8</ele>
        <time>2026-05-24T08:11:53Z</time>
      </trkpt>
      <trkpt lat="47.13817" lon="6.16733">
        <ele>529.2</ele>
        <time>2026-05-24T08:11:54Z</time>
      </trkpt>
      <trkpt lat="47.13816" lon="6.16735">
        <ele>529.6</ele>
        <time>2026-05-24T08:11:55Z</time>
      </trkpt>
      <trkpt lat="47.13814" lon="6.16737">
        <ele>530</ele>
        <time>2026-05-24T08:11:56Z</time>
      </trkpt>
      <trkpt lat="47.13813" lon="6.16739">
        <ele>530.2</ele>
        <time>2026-05-24T08:11:57Z</time>
      </trkpt>
      <trkpt lat="47.13811" lon="6.16741">
        <ele>530.4</ele>
        <time>2026-05-24T08:11:58Z</time>
      </trkpt>
      <trkpt lat="47.13809" lon="6.16743">
        <ele>530.8</ele>
        <time>2026-05-24T08:11:59Z</time>
      </trkpt>
      <trkpt lat="47.13807" lon="6.16746">
        <ele>531.2</ele>
        <time>2026-05-24T08:12:00Z</time>
      </trkpt>
      <trkpt lat="47.13805" lon="6.16747">
        <ele>531.6</ele>
        <time>2026-05-24T08:12:01Z</time>
      </trkpt>
      <trkpt lat="47.13803" lon="6.16749">
        <ele>532</ele>
        <time>2026-05-24T08:12:02Z</time>
      </trkpt>
      <trkpt lat="47.138" lon="6.16751">
        <ele>532.2</ele>
        <time>2026-05-24T08:12:03Z</time>
      </trkpt>
      <trkpt lat="47.13798" lon="6.16754">
        <ele>532.2</ele>
        <time>2026-05-24T08:12:04Z</time>
      </trkpt>
      <trkpt lat="47.13795" lon="6.16757">
        <ele>532.6</ele>
        <time>2026-05-24T08:12:05Z</time>
      </trkpt>
      <trkpt lat="47.13793" lon="6.16759">
        <ele>533</ele>
        <time>2026-05-24T08:12:06Z</time>
      </trkpt>
      <trkpt lat="47.1379" lon="6.16761">
        <ele>533.4</ele>
        <time>2026-05-24T08:12:07Z</time>
      </trkpt>
      <trkpt lat="47.13788" lon="6.16764">
        <ele>533.6</ele>
        <time>2026-05-24T08:12:08Z</time>
      </trkpt>
      <trkpt lat="47.13785" lon="6.16766">
        <ele>534</ele>
        <time>2026-05-24T08:12:09Z</time>
      </trkpt>
      <trkpt lat="47.13783" lon="6.16767">
        <ele>534.4</ele>
        <time>2026-05-24T08:12:10Z</time>
      </trkpt>
      <trkpt lat="47.1378" lon="6.16769">
        <ele>534.6</ele>
        <time>2026-05-24T08:12:11Z</time>
      </trkpt>
      <trkpt lat="47.13779" lon="6.16772">
        <ele>534.8</ele>
        <time>2026-05-24T08:12:12Z</time>
      </trkpt>
      <trkpt lat="47.13777" lon="6.16775">
        <ele>535</ele>
        <time>2026-05-24T08:12:13Z</time>
      </trkpt>
      <trkpt lat="47.13775" lon="6.16778">
        <ele>535.2</ele>
        <time>2026-05-24T08:12:14Z</time>
      </trkpt>
      <trkpt lat="47.13772" lon="6.1678">
        <ele>535.6</ele>
        <time>2026-05-24T08:12:15Z</time>
      </trkpt>
      <trkpt lat="47.1377" lon="6.16783">
        <ele>535.8</ele>
        <time>2026-05-24T08:12:16Z</time>
      </trkpt>
      <trkpt lat="47.13768" lon="6.16785">
        <ele>536</ele>
        <time>2026-05-24T08:12:17Z</time>
      </trkpt>
      <trkpt lat="47.13766" lon="6.16787">
        <ele>536.4</ele>
        <time>2026-05-24T08:12:18Z</time>
      </trkpt>
      <trkpt lat="47.13764" lon="6.16789">
        <ele>536.6</ele>
        <time>2026-05-24T08:12:19Z</time>
      </trkpt>
      <trkpt lat="47.13763" lon="6.16791">
        <ele>537</ele>
        <time>2026-05-24T08:12:20Z</time>
      </trkpt>
      <trkpt lat="47.13761" lon="6.16792">
        <ele>537.2</ele>
        <time>2026-05-24T08:12:21Z</time>
      </trkpt>
      <trkpt lat="47.13759" lon="6.16794">
        <ele>537.4</ele>
        <time>2026-05-24T08:12:22Z</time>
      </trkpt>
      <trkpt lat="47.13757" lon="6.16794">
        <ele>537.6</ele>
        <time>2026-05-24T08:12:23Z</time>
      </trkpt>
      <trkpt lat="47.13755" lon="6.16795">
        <ele>537.8</ele>
        <time>2026-05-24T08:12:24Z</time>
      </trkpt>
      <trkpt lat="47.13753" lon="6.16794">
        <ele>538</ele>
        <time>2026-05-24T08:12:25Z</time>
      </trkpt>
      <trkpt lat="47.13751" lon="6.16794">
        <ele>538</ele>
        <time>2026-05-24T08:12:26Z</time>
      </trkpt>
      <trkpt lat="47.13748" lon="6.16794">
        <ele>538.4</ele>
        <time>2026-05-24T08:12:27Z</time>
      </trkpt>
      <trkpt lat="47.13744" lon="6.16793">
        <ele>538.6</ele>
        <time>2026-05-24T08:12:28Z</time>
      </trkpt>
      <trkpt lat="47.13741" lon="6.16793">
        <ele>539</ele>
        <time>2026-05-24T08:12:29Z</time>
      </trkpt>
      <trkpt lat="47.13739" lon="6.16793">
        <ele>539.2</ele>
        <time>2026-05-24T08:12:30Z</time>
      </trkpt>
      <trkpt lat="47.13737" lon="6.16794">
        <ele>539.6</ele>
        <time>2026-05-24T08:12:31Z</time>
      </trkpt>
      <trkpt lat="47.13737" lon="6.16794">
        <ele>539.8</ele>
        <time>2026-05-24T08:12:32Z</time>
      </trkpt>
      <trkpt lat="47.13735" lon="6.16795">
        <ele>540</ele>
        <time>2026-05-24T08:12:33Z</time>
      </trkpt>
      <trkpt lat="47.13733" lon="6.16795">
        <ele>540.2</ele>
        <time>2026-05-24T08:12:34Z</time>
      </trkpt>
      <trkpt lat="47.13732" lon="6.16796">
        <ele>540.4</ele>
        <time>2026-05-24T08:12:35Z</time>
      </trkpt>
      <trkpt lat="47.13731" lon="6.16797">
        <ele>540.6</ele>
        <time>2026-05-24T08:12:36Z</time>
      </trkpt>
      <trkpt lat="47.1373" lon="6.16797">
        <ele>540.6</ele>
        <time>2026-05-24T08:12:37Z</time>
      </trkpt>
      <trkpt lat="47.13729" lon="6.16798">
        <ele>540.6</ele>
        <time>2026-05-24T08:12:38Z</time>
      </trkpt>
      <trkpt lat="47.13728" lon="6.16798">
        <ele>540.8</ele>
        <time>2026-05-24T08:12:39Z</time>
      </trkpt>
      <trkpt lat="47.13726" lon="6.16797">
        <ele>540.8</ele>
        <time>2026-05-24T08:12:40Z</time>
      </trkpt>
      <trkpt lat="47.13724" lon="6.16797">
        <ele>540.8</ele>
        <time>2026-05-24T08:12:41Z</time>
      </trkpt>
      <trkpt lat="47.13722" lon="6.16796">
        <ele>540.8</ele>
        <time>2026-05-24T08:12:42Z</time>
      </trkpt>
      <trkpt lat="47.1372" lon="6.16795">
        <ele>540.8</ele>
        <time>2026-05-24T08:12:43Z</time>
      </trkpt>
      <trkpt lat="47.13718" lon="6.16794">
        <ele>540.6</ele>
        <time>2026-05-24T08:12:44Z</time>
      </trkpt>
      <trkpt lat="47.13716" lon="6.16792">
        <ele>540.8</ele>
        <time>2026-05-24T08:12:45Z</time>
      </trkpt>
      <trkpt lat="47.13712" lon="6.1679">
        <ele>540.6</ele>
        <time>2026-05-24T08:12:46Z</time>
      </trkpt>
      <trkpt lat="47.13712" lon="6.1679">
        <ele>540.4</ele>
        <time>2026-05-24T08:12:47Z</time>
      </trkpt>
      <trkpt lat="47.1371" lon="6.16789">
        <ele>540.4</ele>
        <time>2026-05-24T08:12:48Z</time>
      </trkpt>
      <trkpt lat="47.13708" lon="6.16788">
        <ele>540.4</ele>
        <time>2026-05-24T08:12:49Z</time>
      </trkpt>
      <trkpt lat="47.13705" lon="6.16788">
        <ele>540.2</ele>
        <time>2026-05-24T08:12:50Z</time>
      </trkpt>
      <trkpt lat="47.13703" lon="6.16787">
        <ele>540.2</ele>
        <time>2026-05-24T08:12:51Z</time>
      </trkpt>
      <trkpt lat="47.137" lon="6.16786">
        <ele>540.2</ele>
        <time>2026-05-24T08:12:52Z</time>
      </trkpt>
      <trkpt lat="47.13697" lon="6.16785">
        <ele>540</ele>
        <time>2026-05-24T08:12:53Z</time>
      </trkpt>
      <trkpt lat="47.13694" lon="6.16783">
        <ele>540</ele>
        <time>2026-05-24T08:12:54Z</time>
      </trkpt>
      <trkpt lat="47.1369" lon="6.16782">
        <ele>539.8</ele>
        <time>2026-05-24T08:12:55Z</time>
      </trkpt>
      <trkpt lat="47.13686" lon="6.16781">
        <ele>539.6</ele>
        <time>2026-05-24T08:12:56Z</time>
      </trkpt>
      <trkpt lat="47.13681" lon="6.16779">
        <ele>539.6</ele>
        <time>2026-05-24T08:12:57Z</time>
      </trkpt>
      <trkpt lat="47.13676" lon="6.16778">
        <ele>539.6</ele>
        <time>2026-05-24T08:12:58Z</time>
      </trkpt>
      <trkpt lat="47.13671" lon="6.16777">
        <ele>539.6</ele>
        <time>2026-05-24T08:12:59Z</time>
      </trkpt>
      <trkpt lat="47.13666" lon="6.16776">
        <ele>539.2</ele>
        <time>2026-05-24T08:13:00Z</time>
      </trkpt>
      <trkpt lat="47.13661" lon="6.16776">
        <ele>539.2</ele>
        <time>2026-05-24T08:13:01Z</time>
      </trkpt>
      <trkpt lat="47.13657" lon="6.16777">
        <ele>538.8</ele>
        <time>2026-05-24T08:13:02Z</time>
      </trkpt>
      <trkpt lat="47.13654" lon="6.16779">
        <ele>538.8</ele>
        <time>2026-05-24T08:13:03Z</time>
      </trkpt>
      <trkpt lat="47.13651" lon="6.1678">
        <ele>538.4</ele>
        <time>2026-05-24T08:13:04Z</time>
      </trkpt>
      <trkpt lat="47.13649" lon="6.16781">
        <ele>538</ele>
        <time>2026-05-24T08:13:05Z</time>
      </trkpt>
      <trkpt lat="47.13646" lon="6.16783">
        <ele>537.8</ele>
        <time>2026-05-24T08:13:06Z</time>
      </trkpt>
      <trkpt lat="47.13644" lon="6.16785">
        <ele>537.6</ele>
        <time>2026-05-24T08:13:07Z</time>
      </trkpt>
      <trkpt lat="47.13642" lon="6.16786">
        <ele>537.2</ele>
        <time>2026-05-24T08:13:08Z</time>
      </trkpt>
      <trkpt lat="47.13641" lon="6.16786">
        <ele>536.8</ele>
        <time>2026-05-24T08:13:09Z</time>
      </trkpt>
      <trkpt lat="47.1364" lon="6.16788">
        <ele>536.6</ele>
        <time>2026-05-24T08:13:10Z</time>
      </trkpt>
      <trkpt lat="47.1364" lon="6.16789">
        <ele>536.6</ele>
        <time>2026-05-24T08:13:11Z</time>
      </trkpt>
      <trkpt lat="47.13641" lon="6.1679">
        <ele>536.2</ele>
        <time>2026-05-24T08:13:12Z</time>
      </trkpt>
      <trkpt lat="47.13641" lon="6.16791">
        <ele>535.8</ele>
        <time>2026-05-24T08:13:13Z</time>
      </trkpt>
      <trkpt lat="47.13642" lon="6.16792">
        <ele>535.4</ele>
        <time>2026-05-24T08:13:14Z</time>
      </trkpt>
      <trkpt lat="47.13643" lon="6.16792">
        <ele>535.4</ele>
        <time>2026-05-24T08:13:15Z</time>
      </trkpt>
      <trkpt lat="47.13644" lon="6.16791">
        <ele>535</ele>
        <time>2026-05-24T08:13:16Z</time>
      </trkpt>
      <trkpt lat="47.13646" lon="6.16791">
        <ele>534.8</ele>
        <time>2026-05-24T08:13:17Z</time>
      </trkpt>
      <trkpt lat="47.13648" lon="6.1679">
        <ele>534.8</ele>
        <time>2026-05-24T08:13:18Z</time>
      </trkpt>
      <trkpt lat="47.1365" lon="6.1679">
        <ele>534.8</ele>
        <time>2026-05-24T08:13:19Z</time>
      </trkpt>
      <trkpt lat="47.13652" lon="6.16789">
        <ele>534.6</ele>
        <time>2026-05-24T08:13:20Z</time>
      </trkpt>
      <trkpt lat="47.13654" lon="6.16788">
        <ele>534.8</ele>
        <time>2026-05-24T08:13:21Z</time>
      </trkpt>
      <trkpt lat="47.13657" lon="6.16787">
        <ele>534.8</ele>
        <time>2026-05-24T08:13:22Z</time>
      </trkpt>
      <trkpt lat="47.1366" lon="6.16786">
        <ele>534.8</ele>
        <time>2026-05-24T08:13:23Z</time>
      </trkpt>
      <trkpt lat="47.13666" lon="6.16785">
        <ele>534.8</ele>
        <time>2026-05-24T08:13:24Z</time>
      </trkpt>
      <trkpt lat="47.13668" lon="6.16784">
        <ele>534.8</ele>
        <time>2026-05-24T08:13:25Z</time>
      </trkpt>
      <trkpt lat="47.13671" lon="6.16784">
        <ele>534.8</ele>
        <time>2026-05-24T08:13:26Z</time>
      </trkpt>
      <trkpt lat="47.13674" lon="6.16785">
        <ele>535</ele>
        <time>2026-05-24T08:13:27Z</time>
      </trkpt>
      <trkpt lat="47.13677" lon="6.16784">
        <ele>535.4</ele>
        <time>2026-05-24T08:13:28Z</time>
      </trkpt>
      <trkpt lat="47.13677" lon="6.16784">
        <ele>535.8</ele>
        <time>2026-05-24T08:13:29Z</time>
      </trkpt>
      <trkpt lat="47.1368" lon="6.16784">
        <ele>536.2</ele>
        <time>2026-05-24T08:13:30Z</time>
      </trkpt>
      <trkpt lat="47.13686" lon="6.16785">
        <ele>536.4</ele>
        <time>2026-05-24T08:13:31Z</time>
      </trkpt>
      <trkpt lat="47.13686" lon="6.16785">
        <ele>536.6</ele>
        <time>2026-05-24T08:13:32Z</time>
      </trkpt>
      <trkpt lat="47.13688" lon="6.16786">
        <ele>536.6</ele>
        <time>2026-05-24T08:13:33Z</time>
      </trkpt>
      <trkpt lat="47.13691" lon="6.16787">
        <ele>536.8</ele>
        <time>2026-05-24T08:13:34Z</time>
      </trkpt>
      <trkpt lat="47.13693" lon="6.16788">
        <ele>537.2</ele>
        <time>2026-05-24T08:13:35Z</time>
      </trkpt>
      <trkpt lat="47.13696" lon="6.16788">
        <ele>537.2</ele>
        <time>2026-05-24T08:13:36Z</time>
      </trkpt>
      <trkpt lat="47.13699" lon="6.16789">
        <ele>537.6</ele>
        <time>2026-05-24T08:13:37Z</time>
      </trkpt>
      <trkpt lat="47.13703" lon="6.16789">
        <ele>537.8</ele>
        <time>2026-05-24T08:13:38Z</time>
      </trkpt>
      <trkpt lat="47.13706" lon="6.1679">
        <ele>537.8</ele>
        <time>2026-05-24T08:13:39Z</time>
      </trkpt>
      <trkpt lat="47.13708" lon="6.1679">
        <ele>538.2</ele>
        <time>2026-05-24T08:13:40Z</time>
      </trkpt>
      <trkpt lat="47.13713" lon="6.16792">
        <ele>538.4</ele>
        <time>2026-05-24T08:13:41Z</time>
      </trkpt>
      <trkpt lat="47.13715" lon="6.16793">
        <ele>538.6</ele>
        <time>2026-05-24T08:13:42Z</time>
      </trkpt>
      <trkpt lat="47.13717" lon="6.16793">
        <ele>538.8</ele>
        <time>2026-05-24T08:13:43Z</time>
      </trkpt>
      <trkpt lat="47.13719" lon="6.16795">
        <ele>538.8</ele>
        <time>2026-05-24T08:13:44Z</time>
      </trkpt>
      <trkpt lat="47.13722" lon="6.16796">
        <ele>539</ele>
        <time>2026-05-24T08:13:45Z</time>
      </trkpt>
      <trkpt lat="47.13724" lon="6.16797">
        <ele>539.2</ele>
        <time>2026-05-24T08:13:46Z</time>
      </trkpt>
      <trkpt lat="47.13726" lon="6.16797">
        <ele>539.2</ele>
        <time>2026-05-24T08:13:47Z</time>
      </trkpt>
      <trkpt lat="47.13727" lon="6.16798">
        <ele>539.4</ele>
        <time>2026-05-24T08:13:48Z</time>
      </trkpt>
      <trkpt lat="47.13729" lon="6.16798">
        <ele>539.4</ele>
        <time>2026-05-24T08:13:49Z</time>
      </trkpt>
      <trkpt lat="47.13731" lon="6.16799">
        <ele>539.4</ele>
        <time>2026-05-24T08:13:50Z</time>
      </trkpt>
      <trkpt lat="47.13732" lon="6.16799">
        <ele>539.6</ele>
        <time>2026-05-24T08:13:51Z</time>
      </trkpt>
      <trkpt lat="47.13732" lon="6.16799">
        <ele>539.6</ele>
        <time>2026-05-24T08:13:52Z</time>
      </trkpt>
      <trkpt lat="47.13735" lon="6.16799">
        <ele>539.8</ele>
        <time>2026-05-24T08:13:53Z</time>
      </trkpt>
      <trkpt lat="47.13735" lon="6.168">
        <ele>540</ele>
        <time>2026-05-24T08:13:54Z</time>
      </trkpt>
      <trkpt lat="47.13736" lon="6.16801">
        <ele>540</ele>
        <time>2026-05-24T08:13:55Z</time>
      </trkpt>
      <trkpt lat="47.13737" lon="6.16801">
        <ele>540.2</ele>
        <time>2026-05-24T08:13:56Z</time>
      </trkpt>
      <trkpt lat="47.13737" lon="6.16801">
        <ele>540.4</ele>
        <time>2026-05-24T08:13:57Z</time>
      </trkpt>
      <trkpt lat="47.13737" lon="6.16801">
        <ele>540.4</ele>
        <time>2026-05-24T08:13:58Z</time>
      </trkpt>
      <trkpt lat="47.13737" lon="6.168">
        <ele>540.4</ele>
        <time>2026-05-24T08:13:59Z</time>
      </trkpt>
      <trkpt lat="47.13737" lon="6.168">
        <ele>540.6</ele>
        <time>2026-05-24T08:14:00Z</time>
      </trkpt>
      <trkpt lat="47.13733" lon="6.16816">
        <ele>541.2</ele>
        <time>2026-05-24T08:15:34Z</time>
      </trkpt>
      <trkpt lat="47.13733" lon="6.16819">
        <ele>541.2</ele>
        <time>2026-05-24T08:15:35Z</time>
      </trkpt>
      <trkpt lat="47.13734" lon="6.16821">
        <ele>541.2</ele>
        <time>2026-05-24T08:15:36Z</time>
      </trkpt>
      <trkpt lat="47.13735" lon="6.16824">
        <ele>541.2</ele>
        <time>2026-05-24T08:15:37Z</time>
      </trkpt>
      <trkpt lat="47.13736" lon="6.16827">
        <ele>541.2</ele>
        <time>2026-05-24T08:15:38Z</time>
      </trkpt>
      <trkpt lat="47.13737" lon="6.1683">
        <ele>541.2</ele>
        <time>2026-05-24T08:15:39Z</time>
      </trkpt>
      <trkpt lat="47.13738" lon="6.16833">
        <ele>541.2</ele>
        <time>2026-05-24T08:15:40Z</time>
      </trkpt>
      <trkpt lat="47.13738" lon="6.16837">
        <ele>541.2</ele>
        <time>2026-05-24T08:15:41Z</time>
      </trkpt>
      <trkpt lat="47.13738" lon="6.1684">
        <ele>541.2</ele>
        <time>2026-05-24T08:15:42Z</time>
      </trkpt>
      <trkpt lat="47.13739" lon="6.16844">
        <ele>541.2</ele>
        <time>2026-05-24T08:15:43Z</time>
      </trkpt>
      <trkpt lat="47.1374" lon="6.16848">
        <ele>541</ele>
        <time>2026-05-24T08:15:44Z</time>
      </trkpt>
      <trkpt lat="47.13741" lon="6.16851">
        <ele>541.2</ele>
        <time>2026-05-24T08:15:45Z</time>
      </trkpt>
      <trkpt lat="47.13742" lon="6.16855">
        <ele>541.2</ele>
        <time>2026-05-24T08:15:46Z</time>
      </trkpt>
      <trkpt lat="47.13744" lon="6.16864">
        <ele>541.2</ele>
        <time>2026-05-24T08:15:47Z</time>
      </trkpt>
      <trkpt lat="47.13745" lon="6.16869">
        <ele>541</ele>
        <time>2026-05-24T08:15:48Z</time>
      </trkpt>
      <trkpt lat="47.13745" lon="6.16869">
        <ele>541</ele>
        <time>2026-05-24T08:15:49Z</time>
      </trkpt>
      <trkpt lat="47.13746" lon="6.16873">
        <ele>541</ele>
        <time>2026-05-24T08:15:50Z</time>
      </trkpt>
      <trkpt lat="47.13747" lon="6.16878">
        <ele>540.8</ele>
        <time>2026-05-24T08:15:51Z</time>
      </trkpt>
      <trkpt lat="47.13748" lon="6.16883">
        <ele>541</ele>
        <time>2026-05-24T08:15:52Z</time>
      </trkpt>
      <trkpt lat="47.13749" lon="6.16888">
        <ele>541</ele>
        <time>2026-05-24T08:15:53Z</time>
      </trkpt>
      <trkpt lat="47.1375" lon="6.16893">
        <ele>541</ele>
        <time>2026-05-24T08:15:54Z</time>
      </trkpt>
      <trkpt lat="47.13751" lon="6.16898">
        <ele>541</ele>
        <time>2026-05-24T08:15:55Z</time>
      </trkpt>
      <trkpt lat="47.13753" lon="6.16902">
        <ele>540.8</ele>
        <time>2026-05-24T08:15:56Z</time>
      </trkpt>
      <trkpt lat="47.13754" lon="6.16907">
        <ele>541</ele>
        <time>2026-05-24T08:15:57Z</time>
      </trkpt>
      <trkpt lat="47.13755" lon="6.16911">
        <ele>540.8</ele>
        <time>2026-05-24T08:15:58Z</time>
      </trkpt>
      <trkpt lat="47.13756" lon="6.16916">
        <ele>540.8</ele>
        <time>2026-05-24T08:15:59Z</time>
      </trkpt>
      <trkpt lat="47.13758" lon="6.16921">
        <ele>541</ele>
        <time>2026-05-24T08:16:00Z</time>
      </trkpt>
      <trkpt lat="47.13759" lon="6.16925">
        <ele>541</ele>
        <time>2026-05-24T08:16:01Z</time>
      </trkpt>
      <trkpt lat="47.13761" lon="6.1693">
        <ele>540.8</ele>
        <time>2026-05-24T08:16:02Z</time>
      </trkpt>
      <trkpt lat="47.13762" lon="6.16936">
        <ele>540.8</ele>
        <time>2026-05-24T08:16:03Z</time>
      </trkpt>
      <trkpt lat="47.13763" lon="6.16941">
        <ele>540.8</ele>
        <time>2026-05-24T08:16:04Z</time>
      </trkpt>
      <trkpt lat="47.13765" lon="6.16946">
        <ele>540.8</ele>
        <time>2026-05-24T08:16:05Z</time>
      </trkpt>
      <trkpt lat="47.13766" lon="6.1695">
        <ele>540.8</ele>
        <time>2026-05-24T08:16:06Z</time>
      </trkpt>
      <trkpt lat="47.13768" lon="6.16954">
        <ele>540.8</ele>
        <time>2026-05-24T08:16:07Z</time>
      </trkpt>
      <trkpt lat="47.13769" lon="6.16957">
        <ele>540.8</ele>
        <time>2026-05-24T08:16:08Z</time>
      </trkpt>
      <trkpt lat="47.13769" lon="6.16959">
        <ele>540.6</ele>
        <time>2026-05-24T08:16:09Z</time>
      </trkpt>
      <trkpt lat="47.1377" lon="6.16962">
        <ele>540.8</ele>
        <time>2026-05-24T08:16:10Z</time>
      </trkpt>
      <trkpt lat="47.13771" lon="6.16969">
        <ele>540.6</ele>
        <time>2026-05-24T08:16:11Z</time>
      </trkpt>
      <trkpt lat="47.13771" lon="6.16972">
        <ele>540.8</ele>
        <time>2026-05-24T08:16:12Z</time>
      </trkpt>
      <trkpt lat="47.13772" lon="6.16976">
        <ele>540.8</ele>
        <time>2026-05-24T08:16:13Z</time>
      </trkpt>
      <trkpt lat="47.13773" lon="6.16979">
        <ele>540.8</ele>
        <time>2026-05-24T08:16:14Z</time>
      </trkpt>
      <trkpt lat="47.13774" lon="6.16983">
        <ele>540.8</ele>
        <time>2026-05-24T08:16:15Z</time>
      </trkpt>
      <trkpt lat="47.13774" lon="6.16983">
        <ele>540.8</ele>
        <time>2026-05-24T08:16:16Z</time>
      </trkpt>
      <trkpt lat="47.13774" lon="6.16986">
        <ele>540.6</ele>
        <time>2026-05-24T08:16:17Z</time>
      </trkpt>
      <trkpt lat="47.13775" lon="6.16989">
        <ele>540.6</ele>
        <time>2026-05-24T08:16:18Z</time>
      </trkpt>
      <trkpt lat="47.13776" lon="6.16993">
        <ele>540.6</ele>
        <time>2026-05-24T08:16:19Z</time>
      </trkpt>
      <trkpt lat="47.13776" lon="6.16996">
        <ele>540.6</ele>
        <time>2026-05-24T08:16:20Z</time>
      </trkpt>
      <trkpt lat="47.13777" lon="6.17">
        <ele>540.6</ele>
        <time>2026-05-24T08:16:21Z</time>
      </trkpt>
      <trkpt lat="47.13778" lon="6.17004">
        <ele>540.8</ele>
        <time>2026-05-24T08:16:22Z</time>
      </trkpt>
      <trkpt lat="47.13779" lon="6.17008">
        <ele>540.8</ele>
        <time>2026-05-24T08:16:23Z</time>
      </trkpt>
      <trkpt lat="47.13779" lon="6.17012">
        <ele>540.8</ele>
        <time>2026-05-24T08:16:24Z</time>
      </trkpt>
      <trkpt lat="47.13781" lon="6.17019">
        <ele>540.8</ele>
        <time>2026-05-24T08:16:25Z</time>
      </trkpt>
      <trkpt lat="47.13781" lon="6.17019">
        <ele>541</ele>
        <time>2026-05-24T08:16:26Z</time>
      </trkpt>
      <trkpt lat="47.13783" lon="6.17027">
        <ele>540.8</ele>
        <time>2026-05-24T08:16:27Z</time>
      </trkpt>
      <trkpt lat="47.13784" lon="6.17031">
        <ele>541</ele>
        <time>2026-05-24T08:16:28Z</time>
      </trkpt>
      <trkpt lat="47.13784" lon="6.17031">
        <ele>541</ele>
        <time>2026-05-24T08:16:29Z</time>
      </trkpt>
      <trkpt lat="47.13785" lon="6.17035">
        <ele>541.2</ele>
        <time>2026-05-24T08:16:30Z</time>
      </trkpt>
      <trkpt lat="47.13786" lon="6.17039">
        <ele>541.6</ele>
        <time>2026-05-24T08:16:31Z</time>
      </trkpt>
      <trkpt lat="47.13787" lon="6.17043">
        <ele>541.8</ele>
        <time>2026-05-24T08:16:32Z</time>
      </trkpt>
      <trkpt lat="47.13788" lon="6.17047">
        <ele>541.8</ele>
        <time>2026-05-24T08:16:33Z</time>
      </trkpt>
      <trkpt lat="47.13789" lon="6.17051">
        <ele>542</ele>
        <time>2026-05-24T08:16:34Z</time>
      </trkpt>
      <trkpt lat="47.1379" lon="6.17055">
        <ele>542.2</ele>
        <time>2026-05-24T08:16:35Z</time>
      </trkpt>
      <trkpt lat="47.13791" lon="6.17059">
        <ele>542.2</ele>
        <time>2026-05-24T08:16:36Z</time>
      </trkpt>
      <trkpt lat="47.13792" lon="6.17063">
        <ele>542.2</ele>
        <time>2026-05-24T08:16:37Z</time>
      </trkpt>
      <trkpt lat="47.13793" lon="6.17067">
        <ele>542.4</ele>
        <time>2026-05-24T08:16:38Z</time>
      </trkpt>
      <trkpt lat="47.13794" lon="6.17071">
        <ele>542.2</ele>
        <time>2026-05-24T08:16:39Z</time>
      </trkpt>
      <trkpt lat="47.13795" lon="6.17074">
        <ele>542.4</ele>
        <time>2026-05-24T08:16:40Z</time>
      </trkpt>
      <trkpt lat="47.13797" lon="6.17077">
        <ele>542.4</ele>
        <time>2026-05-24T08:16:41Z</time>
      </trkpt>
      <trkpt lat="47.13798" lon="6.17081">
        <ele>542.4</ele>
        <time>2026-05-24T08:16:42Z</time>
      </trkpt>
      <trkpt lat="47.13799" lon="6.17084">
        <ele>542.6</ele>
        <time>2026-05-24T08:16:43Z</time>
      </trkpt>
      <trkpt lat="47.138" lon="6.17088">
        <ele>542.6</ele>
        <time>2026-05-24T08:16:44Z</time>
      </trkpt>
      <trkpt lat="47.13801" lon="6.17092">
        <ele>543</ele>
        <time>2026-05-24T08:16:45Z</time>
      </trkpt>
      <trkpt lat="47.13801" lon="6.17095">
        <ele>543</ele>
        <time>2026-05-24T08:16:46Z</time>
      </trkpt>
      <trkpt lat="47.13802" lon="6.17099">
        <ele>543.2</ele>
        <time>2026-05-24T08:16:47Z</time>
      </trkpt>
      <trkpt lat="47.13803" lon="6.17103">
        <ele>543.4</ele>
        <time>2026-05-24T08:16:48Z</time>
      </trkpt>
      <trkpt lat="47.13803" lon="6.17106">
        <ele>543.4</ele>
        <time>2026-05-24T08:16:49Z</time>
      </trkpt>
      <trkpt lat="47.13804" lon="6.1711">
        <ele>543.4</ele>
        <time>2026-05-24T08:16:50Z</time>
      </trkpt>
      <trkpt lat="47.13804" lon="6.17113">
        <ele>543.4</ele>
        <time>2026-05-24T08:16:51Z</time>
      </trkpt>
      <trkpt lat="47.13805" lon="6.17117">
        <ele>543.6</ele>
        <time>2026-05-24T08:16:52Z</time>
      </trkpt>
      <trkpt lat="47.13805" lon="6.17121">
        <ele>543.6</ele>
        <time>2026-05-24T08:16:53Z</time>
      </trkpt>
      <trkpt lat="47.13807" lon="6.17128">
        <ele>543.6</ele>
        <time>2026-05-24T08:16:54Z</time>
      </trkpt>
      <trkpt lat="47.13808" lon="6.17132">
        <ele>543.6</ele>
        <time>2026-05-24T08:16:55Z</time>
      </trkpt>
      <trkpt lat="47.1381" lon="6.17135">
        <ele>543.6</ele>
        <time>2026-05-24T08:16:56Z</time>
      </trkpt>
      <trkpt lat="47.13812" lon="6.17137">
        <ele>543.6</ele>
        <time>2026-05-24T08:16:57Z</time>
      </trkpt>
      <trkpt lat="47.13815" lon="6.17139">
        <ele>543.6</ele>
        <time>2026-05-24T08:16:58Z</time>
      </trkpt>
      <trkpt lat="47.13818" lon="6.17139">
        <ele>543.6</ele>
        <time>2026-05-24T08:16:59Z</time>
      </trkpt>
      <trkpt lat="47.13818" lon="6.17139">
        <ele>543.6</ele>
        <time>2026-05-24T08:17:00Z</time>
      </trkpt>
      <trkpt lat="47.13824" lon="6.1714">
        <ele>543.6</ele>
        <time>2026-05-24T08:17:01Z</time>
      </trkpt>
      <trkpt lat="47.13824" lon="6.1714">
        <ele>543.6</ele>
        <time>2026-05-24T08:17:02Z</time>
      </trkpt>
      <trkpt lat="47.13827" lon="6.1714">
        <ele>543.6</ele>
        <time>2026-05-24T08:17:03Z</time>
      </trkpt>
      <trkpt lat="47.1383" lon="6.17139">
        <ele>543.6</ele>
        <time>2026-05-24T08:17:04Z</time>
      </trkpt>
      <trkpt lat="47.13834" lon="6.17139">
        <ele>543.6</ele>
        <time>2026-05-24T08:17:05Z</time>
      </trkpt>
      <trkpt lat="47.13837" lon="6.17139">
        <ele>543.8</ele>
        <time>2026-05-24T08:17:06Z</time>
      </trkpt>
      <trkpt lat="47.1384" lon="6.17138">
        <ele>543.8</ele>
        <time>2026-05-24T08:17:07Z</time>
      </trkpt>
      <trkpt lat="47.13843" lon="6.17139">
        <ele>543.8</ele>
        <time>2026-05-24T08:17:08Z</time>
      </trkpt>
      <trkpt lat="47.13847" lon="6.17139">
        <ele>543.8</ele>
        <time>2026-05-24T08:17:09Z</time>
      </trkpt>
      <trkpt lat="47.1385" lon="6.17139">
        <ele>543.6</ele>
        <time>2026-05-24T08:17:10Z</time>
      </trkpt>
      <trkpt lat="47.13853" lon="6.17139">
        <ele>543.6</ele>
        <time>2026-05-24T08:17:11Z</time>
      </trkpt>
      <trkpt lat="47.13857" lon="6.17139">
        <ele>543.6</ele>
        <time>2026-05-24T08:17:12Z</time>
      </trkpt>
      <trkpt lat="47.1386" lon="6.17139">
        <ele>543.8</ele>
        <time>2026-05-24T08:17:13Z</time>
      </trkpt>
      <trkpt lat="47.13864" lon="6.17139">
        <ele>543.8</ele>
        <time>2026-05-24T08:17:14Z</time>
      </trkpt>
      <trkpt lat="47.13873" lon="6.17141">
        <ele>543.6</ele>
        <time>2026-05-24T08:17:15Z</time>
      </trkpt>
      <trkpt lat="47.13878" lon="6.17143">
        <ele>543.6</ele>
        <time>2026-05-24T08:17:16Z</time>
      </trkpt>
      <trkpt lat="47.13883" lon="6.17145">
        <ele>543.8</ele>
        <time>2026-05-24T08:17:17Z</time>
      </trkpt>
      <trkpt lat="47.13888" lon="6.17148">
        <ele>543.6</ele>
        <time>2026-05-24T08:17:18Z</time>
      </trkpt>
      <trkpt lat="47.13893" lon="6.17151">
        <ele>543.6</ele>
        <time>2026-05-24T08:17:19Z</time>
      </trkpt>
      <trkpt lat="47.13898" lon="6.17154">
        <ele>543.6</ele>
        <time>2026-05-24T08:17:20Z</time>
      </trkpt>
      <trkpt lat="47.13902" lon="6.17157">
        <ele>543.4</ele>
        <time>2026-05-24T08:17:21Z</time>
      </trkpt>
      <trkpt lat="47.13907" lon="6.1716">
        <ele>543.2</ele>
        <time>2026-05-24T08:17:22Z</time>
      </trkpt>
      <trkpt lat="47.13911" lon="6.17163">
        <ele>543.2</ele>
        <time>2026-05-24T08:17:23Z</time>
      </trkpt>
      <trkpt lat="47.13915" lon="6.17165">
        <ele>543</ele>
        <time>2026-05-24T08:17:24Z</time>
      </trkpt>
      <trkpt lat="47.13915" lon="6.17165">
        <ele>542.8</ele>
        <time>2026-05-24T08:17:25Z</time>
      </trkpt>
      <trkpt lat="47.1392" lon="6.17168">
        <ele>542.6</ele>
        <time>2026-05-24T08:17:26Z</time>
      </trkpt>
      <trkpt lat="47.13924" lon="6.17171">
        <ele>542.4</ele>
        <time>2026-05-24T08:17:27Z</time>
      </trkpt>
      <trkpt lat="47.13928" lon="6.17174">
        <ele>542.2</ele>
        <time>2026-05-24T08:17:28Z</time>
      </trkpt>
      <trkpt lat="47.13932" lon="6.17177">
        <ele>542</ele>
        <time>2026-05-24T08:17:29Z</time>
      </trkpt>
      <trkpt lat="47.13937" lon="6.1718">
        <ele>542.2</ele>
        <time>2026-05-24T08:17:30Z</time>
      </trkpt>
      <trkpt lat="47.13941" lon="6.17183">
        <ele>542.2</ele>
        <time>2026-05-24T08:17:31Z</time>
      </trkpt>
      <trkpt lat="47.13946" lon="6.17187">
        <ele>542.2</ele>
        <time>2026-05-24T08:17:32Z</time>
      </trkpt>
      <trkpt lat="47.1395" lon="6.1719">
        <ele>542</ele>
        <time>2026-05-24T08:17:33Z</time>
      </trkpt>
      <trkpt lat="47.13955" lon="6.17192">
        <ele>542</ele>
        <time>2026-05-24T08:17:34Z</time>
      </trkpt>
      <trkpt lat="47.13959" lon="6.17195">
        <ele>542</ele>
        <time>2026-05-24T08:17:35Z</time>
      </trkpt>
      <trkpt lat="47.13964" lon="6.17197">
        <ele>541.8</ele>
        <time>2026-05-24T08:17:36Z</time>
      </trkpt>
      <trkpt lat="47.13968" lon="6.172">
        <ele>541.8</ele>
        <time>2026-05-24T08:17:37Z</time>
      </trkpt>
      <trkpt lat="47.13973" lon="6.17203">
        <ele>541.8</ele>
        <time>2026-05-24T08:17:38Z</time>
      </trkpt>
      <trkpt lat="47.13977" lon="6.17206">
        <ele>542</ele>
        <time>2026-05-24T08:17:39Z</time>
      </trkpt>
      <trkpt lat="47.13982" lon="6.17209">
        <ele>541.8</ele>
        <time>2026-05-24T08:17:40Z</time>
      </trkpt>
      <trkpt lat="47.13986" lon="6.17212">
        <ele>541.8</ele>
        <time>2026-05-24T08:17:41Z</time>
      </trkpt>
      <trkpt lat="47.13991" lon="6.17215">
        <ele>541.8</ele>
        <time>2026-05-24T08:17:42Z</time>
      </trkpt>
      <trkpt lat="47.13995" lon="6.17218">
        <ele>541.8</ele>
        <time>2026-05-24T08:17:43Z</time>
      </trkpt>
      <trkpt lat="47.14" lon="6.17222">
        <ele>541.6</ele>
        <time>2026-05-24T08:17:44Z</time>
      </trkpt>
      <trkpt lat="47.14004" lon="6.17225">
        <ele>541.8</ele>
        <time>2026-05-24T08:17:45Z</time>
      </trkpt>
      <trkpt lat="47.14012" lon="6.17234">
        <ele>541.6</ele>
        <time>2026-05-24T08:17:46Z</time>
      </trkpt>
      <trkpt lat="47.14012" lon="6.17234">
        <ele>541.6</ele>
        <time>2026-05-24T08:17:47Z</time>
      </trkpt>
      <trkpt lat="47.14015" lon="6.1724">
        <ele>541.6</ele>
        <time>2026-05-24T08:17:48Z</time>
      </trkpt>
      <trkpt lat="47.14018" lon="6.17246">
        <ele>541.6</ele>
        <time>2026-05-24T08:17:49Z</time>
      </trkpt>
      <trkpt lat="47.14021" lon="6.17253">
        <ele>541.6</ele>
        <time>2026-05-24T08:17:50Z</time>
      </trkpt>
      <trkpt lat="47.14023" lon="6.1726">
        <ele>541.4</ele>
        <time>2026-05-24T08:17:51Z</time>
      </trkpt>
      <trkpt lat="47.14025" lon="6.17268">
        <ele>541.2</ele>
        <time>2026-05-24T08:17:52Z</time>
      </trkpt>
      <trkpt lat="47.14028" lon="6.17276">
        <ele>541.2</ele>
        <time>2026-05-24T08:17:53Z</time>
      </trkpt>
      <trkpt lat="47.1403" lon="6.17283">
        <ele>541</ele>
        <time>2026-05-24T08:17:54Z</time>
      </trkpt>
      <trkpt lat="47.14032" lon="6.17291">
        <ele>541</ele>
        <time>2026-05-24T08:17:55Z</time>
      </trkpt>
      <trkpt lat="47.14034" lon="6.17299">
        <ele>540.8</ele>
        <time>2026-05-24T08:17:56Z</time>
      </trkpt>
      <trkpt lat="47.14036" lon="6.17307">
        <ele>540.6</ele>
        <time>2026-05-24T08:17:57Z</time>
      </trkpt>
      <trkpt lat="47.14038" lon="6.17316">
        <ele>540.4</ele>
        <time>2026-05-24T08:17:58Z</time>
      </trkpt>
      <trkpt lat="47.14039" lon="6.17325">
        <ele>540.2</ele>
        <time>2026-05-24T08:17:59Z</time>
      </trkpt>
      <trkpt lat="47.1404" lon="6.17335">
        <ele>540.2</ele>
        <time>2026-05-24T08:18:00Z</time>
      </trkpt>
      <trkpt lat="47.14042" lon="6.17344">
        <ele>540.2</ele>
        <time>2026-05-24T08:18:01Z</time>
      </trkpt>
      <trkpt lat="47.14043" lon="6.17354">
        <ele>540</ele>
        <time>2026-05-24T08:18:02Z</time>
      </trkpt>
      <trkpt lat="47.14044" lon="6.17364">
        <ele>540</ele>
        <time>2026-05-24T08:18:03Z</time>
      </trkpt>
      <trkpt lat="47.14045" lon="6.17374">
        <ele>539.8</ele>
        <time>2026-05-24T08:18:04Z</time>
      </trkpt>
      <trkpt lat="47.14046" lon="6.17384">
        <ele>539.6</ele>
        <time>2026-05-24T08:18:05Z</time>
      </trkpt>
      <trkpt lat="47.14046" lon="6.17395">
        <ele>539.2</ele>
        <time>2026-05-24T08:18:06Z</time>
      </trkpt>
      <trkpt lat="47.14047" lon="6.17406">
        <ele>539</ele>
        <time>2026-05-24T08:18:07Z</time>
      </trkpt>
      <trkpt lat="47.14048" lon="6.17416">
        <ele>538.8</ele>
        <time>2026-05-24T08:18:08Z</time>
      </trkpt>
      <trkpt lat="47.14049" lon="6.17427">
        <ele>538.6</ele>
        <time>2026-05-24T08:18:09Z</time>
      </trkpt>
      <trkpt lat="47.1405" lon="6.17437">
        <ele>538.2</ele>
        <time>2026-05-24T08:18:10Z</time>
      </trkpt>
      <trkpt lat="47.14052" lon="6.17447">
        <ele>538</ele>
        <time>2026-05-24T08:18:11Z</time>
      </trkpt>
      <trkpt lat="47.14054" lon="6.17456">
        <ele>537.6</ele>
        <time>2026-05-24T08:18:12Z</time>
      </trkpt>
      <trkpt lat="47.14057" lon="6.17465">
        <ele>537.4</ele>
        <time>2026-05-24T08:18:13Z</time>
      </trkpt>
      <trkpt lat="47.1406" lon="6.17474">
        <ele>537</ele>
        <time>2026-05-24T08:18:14Z</time>
      </trkpt>
      <trkpt lat="47.14064" lon="6.17482">
        <ele>537</ele>
        <time>2026-05-24T08:18:15Z</time>
      </trkpt>
      <trkpt lat="47.14067" lon="6.1749">
        <ele>536.8</ele>
        <time>2026-05-24T08:18:16Z</time>
      </trkpt>
      <trkpt lat="47.14071" lon="6.17498">
        <ele>536.6</ele>
        <time>2026-05-24T08:18:17Z</time>
      </trkpt>
      <trkpt lat="47.14074" lon="6.17506">
        <ele>536.6</ele>
        <time>2026-05-24T08:18:18Z</time>
      </trkpt>
      <trkpt lat="47.14076" lon="6.17513">
        <ele>536.6</ele>
        <time>2026-05-24T08:18:19Z</time>
      </trkpt>
      <trkpt lat="47.14079" lon="6.1752">
        <ele>536.6</ele>
        <time>2026-05-24T08:18:20Z</time>
      </trkpt>
      <trkpt lat="47.14082" lon="6.17527">
        <ele>536.4</ele>
        <time>2026-05-24T08:18:21Z</time>
      </trkpt>
      <trkpt lat="47.14085" lon="6.17534">
        <ele>536.4</ele>
        <time>2026-05-24T08:18:22Z</time>
      </trkpt>
      <trkpt lat="47.14087" lon="6.17541">
        <ele>536.4</ele>
        <time>2026-05-24T08:18:23Z</time>
      </trkpt>
      <trkpt lat="47.14089" lon="6.17548">
        <ele>536.4</ele>
        <time>2026-05-24T08:18:24Z</time>
      </trkpt>
      <trkpt lat="47.14092" lon="6.17555">
        <ele>536.4</ele>
        <time>2026-05-24T08:18:25Z</time>
      </trkpt>
      <trkpt lat="47.14095" lon="6.17562">
        <ele>536.4</ele>
        <time>2026-05-24T08:18:26Z</time>
      </trkpt>
      <trkpt lat="47.14098" lon="6.17569">
        <ele>536.4</ele>
        <time>2026-05-24T08:18:27Z</time>
      </trkpt>
      <trkpt lat="47.141" lon="6.17575">
        <ele>536.4</ele>
        <time>2026-05-24T08:18:28Z</time>
      </trkpt>
      <trkpt lat="47.14103" lon="6.17582">
        <ele>536.4</ele>
        <time>2026-05-24T08:18:29Z</time>
      </trkpt>
      <trkpt lat="47.14105" lon="6.17588">
        <ele>536.6</ele>
        <time>2026-05-24T08:18:30Z</time>
      </trkpt>
      <trkpt lat="47.14108" lon="6.17595">
        <ele>536.4</ele>
        <time>2026-05-24T08:18:31Z</time>
      </trkpt>
      <trkpt lat="47.1411" lon="6.17602">
        <ele>536.4</ele>
        <time>2026-05-24T08:18:32Z</time>
      </trkpt>
      <trkpt lat="47.14113" lon="6.17608">
        <ele>536.6</ele>
        <time>2026-05-24T08:18:33Z</time>
      </trkpt>
      <trkpt lat="47.14116" lon="6.17615">
        <ele>536.6</ele>
        <time>2026-05-24T08:18:34Z</time>
      </trkpt>
      <trkpt lat="47.14119" lon="6.17622">
        <ele>536.6</ele>
        <time>2026-05-24T08:18:35Z</time>
      </trkpt>
      <trkpt lat="47.14121" lon="6.17629">
        <ele>536.8</ele>
        <time>2026-05-24T08:18:36Z</time>
      </trkpt>
      <trkpt lat="47.14124" lon="6.17636">
        <ele>536.6</ele>
        <time>2026-05-24T08:18:37Z</time>
      </trkpt>
      <trkpt lat="47.14126" lon="6.17643">
        <ele>536.6</ele>
        <time>2026-05-24T08:18:38Z</time>
      </trkpt>
      <trkpt lat="47.14128" lon="6.1765">
        <ele>536.8</ele>
        <time>2026-05-24T08:18:39Z</time>
      </trkpt>
      <trkpt lat="47.14131" lon="6.17657">
        <ele>536.8</ele>
        <time>2026-05-24T08:18:40Z</time>
      </trkpt>
      <trkpt lat="47.14133" lon="6.17664">
        <ele>537</ele>
        <time>2026-05-24T08:18:41Z</time>
      </trkpt>
      <trkpt lat="47.14134" lon="6.17671">
        <ele>536.8</ele>
        <time>2026-05-24T08:18:42Z</time>
      </trkpt>
      <trkpt lat="47.14136" lon="6.17677">
        <ele>536.8</ele>
        <time>2026-05-24T08:18:43Z</time>
      </trkpt>
      <trkpt lat="47.14138" lon="6.17684">
        <ele>536.8</ele>
        <time>2026-05-24T08:18:44Z</time>
      </trkpt>
      <trkpt lat="47.1414" lon="6.17691">
        <ele>536.8</ele>
        <time>2026-05-24T08:18:45Z</time>
      </trkpt>
      <trkpt lat="47.14142" lon="6.17698">
        <ele>536.8</ele>
        <time>2026-05-24T08:18:46Z</time>
      </trkpt>
      <trkpt lat="47.14144" lon="6.17705">
        <ele>536.8</ele>
        <time>2026-05-24T08:18:47Z</time>
      </trkpt>
      <trkpt lat="47.14146" lon="6.17711">
        <ele>537</ele>
        <time>2026-05-24T08:18:48Z</time>
      </trkpt>
      <trkpt lat="47.14148" lon="6.17717">
        <ele>537</ele>
        <time>2026-05-24T08:18:49Z</time>
      </trkpt>
      <trkpt lat="47.1415" lon="6.17724">
        <ele>537</ele>
        <time>2026-05-24T08:18:50Z</time>
      </trkpt>
      <trkpt lat="47.14152" lon="6.1773">
        <ele>537</ele>
        <time>2026-05-24T08:18:51Z</time>
      </trkpt>
      <trkpt lat="47.14155" lon="6.17736">
        <ele>537</ele>
        <time>2026-05-24T08:18:52Z</time>
      </trkpt>
      <trkpt lat="47.14157" lon="6.17742">
        <ele>537</ele>
        <time>2026-05-24T08:18:53Z</time>
      </trkpt>
      <trkpt lat="47.14159" lon="6.17748">
        <ele>537</ele>
        <time>2026-05-24T08:18:54Z</time>
      </trkpt>
      <trkpt lat="47.14161" lon="6.17754">
        <ele>537.2</ele>
        <time>2026-05-24T08:18:55Z</time>
      </trkpt>
      <trkpt lat="47.14163" lon="6.1776">
        <ele>537</ele>
        <time>2026-05-24T08:18:56Z</time>
      </trkpt>
      <trkpt lat="47.14165" lon="6.17765">
        <ele>537</ele>
        <time>2026-05-24T08:18:57Z</time>
      </trkpt>
      <trkpt lat="47.14168" lon="6.17771">
        <ele>537</ele>
        <time>2026-05-24T08:18:58Z</time>
      </trkpt>
      <trkpt lat="47.1417" lon="6.17777">
        <ele>537.2</ele>
        <time>2026-05-24T08:18:59Z</time>
      </trkpt>
      <trkpt lat="47.14173" lon="6.17783">
        <ele>537.2</ele>
        <time>2026-05-24T08:19:00Z</time>
      </trkpt>
      <trkpt lat="47.14175" lon="6.17789">
        <ele>537.2</ele>
        <time>2026-05-24T08:19:01Z</time>
      </trkpt>
      <trkpt lat="47.14177" lon="6.17795">
        <ele>537</ele>
        <time>2026-05-24T08:19:02Z</time>
      </trkpt>
      <trkpt lat="47.14179" lon="6.17801">
        <ele>537</ele>
        <time>2026-05-24T08:19:03Z</time>
      </trkpt>
      <trkpt lat="47.14182" lon="6.17807">
        <ele>537</ele>
        <time>2026-05-24T08:19:04Z</time>
      </trkpt>
      <trkpt lat="47.14184" lon="6.17813">
        <ele>537</ele>
        <time>2026-05-24T08:19:05Z</time>
      </trkpt>
      <trkpt lat="47.14186" lon="6.17818">
        <ele>537.2</ele>
        <time>2026-05-24T08:19:06Z</time>
      </trkpt>
      <trkpt lat="47.14188" lon="6.17824">
        <ele>537.2</ele>
        <time>2026-05-24T08:19:07Z</time>
      </trkpt>
      <trkpt lat="47.1419" lon="6.1783">
        <ele>537.2</ele>
        <time>2026-05-24T08:19:08Z</time>
      </trkpt>
      <trkpt lat="47.14193" lon="6.17836">
        <ele>537.2</ele>
        <time>2026-05-24T08:19:09Z</time>
      </trkpt>
      <trkpt lat="47.14195" lon="6.17842">
        <ele>537.4</ele>
        <time>2026-05-24T08:19:10Z</time>
      </trkpt>
      <trkpt lat="47.14198" lon="6.17847">
        <ele>537.2</ele>
        <time>2026-05-24T08:19:11Z</time>
      </trkpt>
      <trkpt lat="47.142" lon="6.17853">
        <ele>537.4</ele>
        <time>2026-05-24T08:19:12Z</time>
      </trkpt>
      <trkpt lat="47.14202" lon="6.17859">
        <ele>537.4</ele>
        <time>2026-05-24T08:19:13Z</time>
      </trkpt>
      <trkpt lat="47.14205" lon="6.17864">
        <ele>537.6</ele>
        <time>2026-05-24T08:19:14Z</time>
      </trkpt>
      <trkpt lat="47.14207" lon="6.17869">
        <ele>537.6</ele>
        <time>2026-05-24T08:19:15Z</time>
      </trkpt>
      <trkpt lat="47.1421" lon="6.17874">
        <ele>537.8</ele>
        <time>2026-05-24T08:19:16Z</time>
      </trkpt>
      <trkpt lat="47.14213" lon="6.1788">
        <ele>537.8</ele>
        <time>2026-05-24T08:19:17Z</time>
      </trkpt>
      <trkpt lat="47.14216" lon="6.17885">
        <ele>537.8</ele>
        <time>2026-05-24T08:19:18Z</time>
      </trkpt>
      <trkpt lat="47.14218" lon="6.1789">
        <ele>537.8</ele>
        <time>2026-05-24T08:19:19Z</time>
      </trkpt>
      <trkpt lat="47.14221" lon="6.17895">
        <ele>538</ele>
        <time>2026-05-24T08:19:20Z</time>
      </trkpt>
      <trkpt lat="47.14223" lon="6.179">
        <ele>538</ele>
        <time>2026-05-24T08:19:21Z</time>
      </trkpt>
      <trkpt lat="47.14226" lon="6.17905">
        <ele>538</ele>
        <time>2026-05-24T08:19:22Z</time>
      </trkpt>
      <trkpt lat="47.14229" lon="6.1791">
        <ele>537.8</ele>
        <time>2026-05-24T08:19:23Z</time>
      </trkpt>
      <trkpt lat="47.14231" lon="6.17916">
        <ele>538</ele>
        <time>2026-05-24T08:19:24Z</time>
      </trkpt>
      <trkpt lat="47.14234" lon="6.17921">
        <ele>538</ele>
        <time>2026-05-24T08:19:25Z</time>
      </trkpt>
      <trkpt lat="47.14237" lon="6.17926">
        <ele>538.2</ele>
        <time>2026-05-24T08:19:26Z</time>
      </trkpt>
      <trkpt lat="47.14239" lon="6.17931">
        <ele>538.2</ele>
        <time>2026-05-24T08:19:27Z</time>
      </trkpt>
      <trkpt lat="47.14242" lon="6.17937">
        <ele>538.4</ele>
        <time>2026-05-24T08:19:28Z</time>
      </trkpt>
      <trkpt lat="47.14248" lon="6.17947">
        <ele>538.6</ele>
        <time>2026-05-24T08:19:29Z</time>
      </trkpt>
      <trkpt lat="47.1425" lon="6.17952">
        <ele>538.6</ele>
        <time>2026-05-24T08:19:30Z</time>
      </trkpt>
      <trkpt lat="47.14253" lon="6.17958">
        <ele>538.8</ele>
        <time>2026-05-24T08:19:31Z</time>
      </trkpt>
      <trkpt lat="47.14256" lon="6.17963">
        <ele>539</ele>
        <time>2026-05-24T08:19:32Z</time>
      </trkpt>
      <trkpt lat="47.14259" lon="6.17969">
        <ele>539</ele>
        <time>2026-05-24T08:19:33Z</time>
      </trkpt>
      <trkpt lat="47.14262" lon="6.17974">
        <ele>539</ele>
        <time>2026-05-24T08:19:34Z</time>
      </trkpt>
      <trkpt lat="47.14265" lon="6.1798">
        <ele>539</ele>
        <time>2026-05-24T08:19:35Z</time>
      </trkpt>
      <trkpt lat="47.14267" lon="6.17985">
        <ele>539</ele>
        <time>2026-05-24T08:19:36Z</time>
      </trkpt>
      <trkpt lat="47.1427" lon="6.1799">
        <ele>539.2</ele>
        <time>2026-05-24T08:19:37Z</time>
      </trkpt>
      <trkpt lat="47.14272" lon="6.17995">
        <ele>539.2</ele>
        <time>2026-05-24T08:19:38Z</time>
      </trkpt>
      <trkpt lat="47.14275" lon="6.18">
        <ele>539.4</ele>
        <time>2026-05-24T08:19:39Z</time>
      </trkpt>
      <trkpt lat="47.14278" lon="6.18005">
        <ele>539.4</ele>
        <time>2026-05-24T08:19:40Z</time>
      </trkpt>
      <trkpt lat="47.1428" lon="6.1801">
        <ele>539.4</ele>
        <time>2026-05-24T08:19:41Z</time>
      </trkpt>
      <trkpt lat="47.14283" lon="6.18015">
        <ele>539.4</ele>
        <time>2026-05-24T08:19:42Z</time>
      </trkpt>
      <trkpt lat="47.14285" lon="6.1802">
        <ele>539.4</ele>
        <time>2026-05-24T08:19:43Z</time>
      </trkpt>
      <trkpt lat="47.14288" lon="6.18024">
        <ele>539.4</ele>
        <time>2026-05-24T08:19:44Z</time>
      </trkpt>
      <trkpt lat="47.14291" lon="6.18029">
        <ele>539.6</ele>
        <time>2026-05-24T08:19:45Z</time>
      </trkpt>
      <trkpt lat="47.14291" lon="6.18029">
        <ele>539.8</ele>
        <time>2026-05-24T08:19:46Z</time>
      </trkpt>
      <trkpt lat="47.14293" lon="6.18034">
        <ele>539.8</ele>
        <time>2026-05-24T08:19:47Z</time>
      </trkpt>
      <trkpt lat="47.14296" lon="6.1804">
        <ele>540.2</ele>
        <time>2026-05-24T08:19:48Z</time>
      </trkpt>
      <trkpt lat="47.14299" lon="6.18045">
        <ele>540.2</ele>
        <time>2026-05-24T08:19:49Z</time>
      </trkpt>
      <trkpt lat="47.14301" lon="6.1805">
        <ele>540.2</ele>
        <time>2026-05-24T08:19:50Z</time>
      </trkpt>
      <trkpt lat="47.14304" lon="6.18055">
        <ele>540.4</ele>
        <time>2026-05-24T08:19:51Z</time>
      </trkpt>
      <trkpt lat="47.14307" lon="6.1806">
        <ele>540.6</ele>
        <time>2026-05-24T08:19:52Z</time>
      </trkpt>
      <trkpt lat="47.1431" lon="6.18065">
        <ele>540.8</ele>
        <time>2026-05-24T08:19:53Z</time>
      </trkpt>
      <trkpt lat="47.14312" lon="6.1807">
        <ele>540.8</ele>
        <time>2026-05-24T08:19:54Z</time>
      </trkpt>
      <trkpt lat="47.14315" lon="6.18075">
        <ele>541</ele>
        <time>2026-05-24T08:19:55Z</time>
      </trkpt>
      <trkpt lat="47.14317" lon="6.18081">
        <ele>541</ele>
        <time>2026-05-24T08:19:56Z</time>
      </trkpt>
      <trkpt lat="47.1432" lon="6.18087">
        <ele>541.2</ele>
        <time>2026-05-24T08:19:57Z</time>
      </trkpt>
      <trkpt lat="47.14321" lon="6.18093">
        <ele>541.4</ele>
        <time>2026-05-24T08:19:58Z</time>
      </trkpt>
      <trkpt lat="47.14322" lon="6.181">
        <ele>541.2</ele>
        <time>2026-05-24T08:19:59Z</time>
      </trkpt>
      <trkpt lat="47.14323" lon="6.18107">
        <ele>541.4</ele>
        <time>2026-05-24T08:20:00Z</time>
      </trkpt>
      <trkpt lat="47.14322" lon="6.18114">
        <ele>541.4</ele>
        <time>2026-05-24T08:20:01Z</time>
      </trkpt>
      <trkpt lat="47.14321" lon="6.18122">
        <ele>541.4</ele>
        <time>2026-05-24T08:20:02Z</time>
      </trkpt>
      <trkpt lat="47.14319" lon="6.1813">
        <ele>541.6</ele>
        <time>2026-05-24T08:20:03Z</time>
      </trkpt>
      <trkpt lat="47.14317" lon="6.18138">
        <ele>541.4</ele>
        <time>2026-05-24T08:20:04Z</time>
      </trkpt>
      <trkpt lat="47.14315" lon="6.18145">
        <ele>541.4</ele>
        <time>2026-05-24T08:20:05Z</time>
      </trkpt>
      <trkpt lat="47.14313" lon="6.18151">
        <ele>541.4</ele>
        <time>2026-05-24T08:20:06Z</time>
      </trkpt>
      <trkpt lat="47.14311" lon="6.18158">
        <ele>541.4</ele>
        <time>2026-05-24T08:20:07Z</time>
      </trkpt>
      <trkpt lat="47.14308" lon="6.18163">
        <ele>541.6</ele>
        <time>2026-05-24T08:20:08Z</time>
      </trkpt>
      <trkpt lat="47.14305" lon="6.18169">
        <ele>541.4</ele>
        <time>2026-05-24T08:20:09Z</time>
      </trkpt>
      <trkpt lat="47.14302" lon="6.18175">
        <ele>541.6</ele>
        <time>2026-05-24T08:20:10Z</time>
      </trkpt>
      <trkpt lat="47.14298" lon="6.1818">
        <ele>541.4</ele>
        <time>2026-05-24T08:20:11Z</time>
      </trkpt>
      <trkpt lat="47.14293" lon="6.18186">
        <ele>541.4</ele>
        <time>2026-05-24T08:20:12Z</time>
      </trkpt>
      <trkpt lat="47.14283" lon="6.18197">
        <ele>541.4</ele>
        <time>2026-05-24T08:20:13Z</time>
      </trkpt>
      <trkpt lat="47.14283" lon="6.18197">
        <ele>541.4</ele>
        <time>2026-05-24T08:20:14Z</time>
      </trkpt>
      <trkpt lat="47.14278" lon="6.18202">
        <ele>541.2</ele>
        <time>2026-05-24T08:20:15Z</time>
      </trkpt>
      <trkpt lat="47.14273" lon="6.18207">
        <ele>541</ele>
        <time>2026-05-24T08:20:16Z</time>
      </trkpt>
      <trkpt lat="47.14268" lon="6.18212">
        <ele>540.8</ele>
        <time>2026-05-24T08:20:17Z</time>
      </trkpt>
      <trkpt lat="47.14264" lon="6.18217">
        <ele>540.2</ele>
        <time>2026-05-24T08:20:18Z</time>
      </trkpt>
      <trkpt lat="47.1426" lon="6.18221">
        <ele>540</ele>
        <time>2026-05-24T08:20:19Z</time>
      </trkpt>
      <trkpt lat="47.14256" lon="6.18227">
        <ele>539.8</ele>
        <time>2026-05-24T08:20:20Z</time>
      </trkpt>
      <trkpt lat="47.14254" lon="6.18233">
        <ele>539.4</ele>
        <time>2026-05-24T08:20:21Z</time>
      </trkpt>
      <trkpt lat="47.14252" lon="6.18241">
        <ele>539</ele>
        <time>2026-05-24T08:20:22Z</time>
      </trkpt>
      <trkpt lat="47.14252" lon="6.18249">
        <ele>538.4</ele>
        <time>2026-05-24T08:20:23Z</time>
      </trkpt>
      <trkpt lat="47.14253" lon="6.18256">
        <ele>538.2</ele>
        <time>2026-05-24T08:20:24Z</time>
      </trkpt>
      <trkpt lat="47.14255" lon="6.18264">
        <ele>537.8</ele>
        <time>2026-05-24T08:20:25Z</time>
      </trkpt>
      <trkpt lat="47.14257" lon="6.18272">
        <ele>537.4</ele>
        <time>2026-05-24T08:20:26Z</time>
      </trkpt>
      <trkpt lat="47.1426" lon="6.18279">
        <ele>537</ele>
        <time>2026-05-24T08:20:27Z</time>
      </trkpt>
      <trkpt lat="47.14262" lon="6.18286">
        <ele>536.6</ele>
        <time>2026-05-24T08:20:28Z</time>
      </trkpt>
      <trkpt lat="47.14265" lon="6.18292">
        <ele>536.6</ele>
        <time>2026-05-24T08:20:29Z</time>
      </trkpt>
      <trkpt lat="47.14268" lon="6.18299">
        <ele>536.6</ele>
        <time>2026-05-24T08:20:30Z</time>
      </trkpt>
      <trkpt lat="47.1427" lon="6.18305">
        <ele>536.6</ele>
        <time>2026-05-24T08:20:31Z</time>
      </trkpt>
      <trkpt lat="47.14276" lon="6.18318">
        <ele>536.4</ele>
        <time>2026-05-24T08:20:32Z</time>
      </trkpt>
      <trkpt lat="47.14279" lon="6.18324">
        <ele>536.4</ele>
        <time>2026-05-24T08:20:33Z</time>
      </trkpt>
      <trkpt lat="47.14279" lon="6.18324">
        <ele>536.4</ele>
        <time>2026-05-24T08:20:34Z</time>
      </trkpt>
      <trkpt lat="47.14282" lon="6.18331">
        <ele>536.4</ele>
        <time>2026-05-24T08:20:35Z</time>
      </trkpt>
      <trkpt lat="47.14285" lon="6.18338">
        <ele>536.4</ele>
        <time>2026-05-24T08:20:36Z</time>
      </trkpt>
      <trkpt lat="47.14288" lon="6.18345">
        <ele>536.4</ele>
        <time>2026-05-24T08:20:37Z</time>
      </trkpt>
      <trkpt lat="47.14291" lon="6.18352">
        <ele>536.4</ele>
        <time>2026-05-24T08:20:38Z</time>
      </trkpt>
      <trkpt lat="47.14293" lon="6.18359">
        <ele>536.2</ele>
        <time>2026-05-24T08:20:39Z</time>
      </trkpt>
      <trkpt lat="47.14295" lon="6.18366">
        <ele>536.4</ele>
        <time>2026-05-24T08:20:40Z</time>
      </trkpt>
      <trkpt lat="47.14298" lon="6.18374">
        <ele>536.6</ele>
        <time>2026-05-24T08:20:41Z</time>
      </trkpt>
      <trkpt lat="47.14301" lon="6.18382">
        <ele>536.4</ele>
        <time>2026-05-24T08:20:42Z</time>
      </trkpt>
      <trkpt lat="47.14304" lon="6.18391">
        <ele>536.4</ele>
        <time>2026-05-24T08:20:43Z</time>
      </trkpt>
      <trkpt lat="47.14307" lon="6.184">
        <ele>536.4</ele>
        <time>2026-05-24T08:20:44Z</time>
      </trkpt>
      <trkpt lat="47.1431" lon="6.18409">
        <ele>536.4</ele>
        <time>2026-05-24T08:20:45Z</time>
      </trkpt>
      <trkpt lat="47.14312" lon="6.18419">
        <ele>536.4</ele>
        <time>2026-05-24T08:20:46Z</time>
      </trkpt>
      <trkpt lat="47.14314" lon="6.18429">
        <ele>536.2</ele>
        <time>2026-05-24T08:20:47Z</time>
      </trkpt>
      <trkpt lat="47.14316" lon="6.18439">
        <ele>536</ele>
        <time>2026-05-24T08:20:48Z</time>
      </trkpt>
      <trkpt lat="47.14318" lon="6.18448">
        <ele>535.6</ele>
        <time>2026-05-24T08:20:49Z</time>
      </trkpt>
      <trkpt lat="47.1432" lon="6.18457">
        <ele>535.2</ele>
        <time>2026-05-24T08:20:50Z</time>
      </trkpt>
      <trkpt lat="47.14322" lon="6.18465">
        <ele>535.2</ele>
        <time>2026-05-24T08:20:51Z</time>
      </trkpt>
      <trkpt lat="47.14324" lon="6.18473">
        <ele>534.6</ele>
        <time>2026-05-24T08:20:52Z</time>
      </trkpt>
      <trkpt lat="47.14325" lon="6.18479">
        <ele>534.6</ele>
        <time>2026-05-24T08:20:53Z</time>
      </trkpt>
      <trkpt lat="47.14326" lon="6.18485">
        <ele>534.4</ele>
        <time>2026-05-24T08:20:54Z</time>
      </trkpt>
      <trkpt lat="47.14327" lon="6.18492">
        <ele>534.6</ele>
        <time>2026-05-24T08:20:55Z</time>
      </trkpt>
      <trkpt lat="47.14329" lon="6.18497">
        <ele>534.4</ele>
        <time>2026-05-24T08:20:56Z</time>
      </trkpt>
      <trkpt lat="47.1433" lon="6.18503">
        <ele>534.4</ele>
        <time>2026-05-24T08:20:57Z</time>
      </trkpt>
      <trkpt lat="47.14332" lon="6.18509">
        <ele>534.4</ele>
        <time>2026-05-24T08:20:58Z</time>
      </trkpt>
      <trkpt lat="47.14334" lon="6.18514">
        <ele>534.4</ele>
        <time>2026-05-24T08:20:59Z</time>
      </trkpt>
      <trkpt lat="47.14337" lon="6.18519">
        <ele>534.4</ele>
        <time>2026-05-24T08:21:00Z</time>
      </trkpt>
      <trkpt lat="47.1434" lon="6.18523">
        <ele>534.8</ele>
        <time>2026-05-24T08:21:01Z</time>
      </trkpt>
      <trkpt lat="47.14342" lon="6.18528">
        <ele>534.8</ele>
        <time>2026-05-24T08:21:02Z</time>
      </trkpt>
      <trkpt lat="47.14345" lon="6.18532">
        <ele>535</ele>
        <time>2026-05-24T08:21:03Z</time>
      </trkpt>
      <trkpt lat="47.14348" lon="6.18536">
        <ele>535.2</ele>
        <time>2026-05-24T08:21:04Z</time>
      </trkpt>
      <trkpt lat="47.14351" lon="6.18541">
        <ele>535.6</ele>
        <time>2026-05-24T08:21:05Z</time>
      </trkpt>
      <trkpt lat="47.14356" lon="6.18549">
        <ele>535.6</ele>
        <time>2026-05-24T08:21:06Z</time>
      </trkpt>
      <trkpt lat="47.14356" lon="6.18549">
        <ele>536</ele>
        <time>2026-05-24T08:21:07Z</time>
      </trkpt>
      <trkpt lat="47.14359" lon="6.18553">
        <ele>536.4</ele>
        <time>2026-05-24T08:21:08Z</time>
      </trkpt>
      <trkpt lat="47.14362" lon="6.18558">
        <ele>536.6</ele>
        <time>2026-05-24T08:21:09Z</time>
      </trkpt>
      <trkpt lat="47.14364" lon="6.18562">
        <ele>536.8</ele>
        <time>2026-05-24T08:21:10Z</time>
      </trkpt>
      <trkpt lat="47.14367" lon="6.18566">
        <ele>537</ele>
        <time>2026-05-24T08:21:11Z</time>
      </trkpt>
      <trkpt lat="47.1437" lon="6.1857">
        <ele>537.2</ele>
        <time>2026-05-24T08:21:12Z</time>
      </trkpt>
      <trkpt lat="47.14372" lon="6.18574">
        <ele>537.2</ele>
        <time>2026-05-24T08:21:13Z</time>
      </trkpt>
      <trkpt lat="47.14377" lon="6.18582">
        <ele>537.2</ele>
        <time>2026-05-24T08:21:14Z</time>
      </trkpt>
      <trkpt lat="47.14377" lon="6.18582">
        <ele>537.8</ele>
        <time>2026-05-24T08:21:15Z</time>
      </trkpt>
      <trkpt lat="47.1438" lon="6.18586">
        <ele>537.8</ele>
        <time>2026-05-24T08:21:16Z</time>
      </trkpt>
      <trkpt lat="47.14382" lon="6.1859">
        <ele>538</ele>
        <time>2026-05-24T08:21:17Z</time>
      </trkpt>
      <trkpt lat="47.14385" lon="6.18594">
        <ele>538.4</ele>
        <time>2026-05-24T08:21:18Z</time>
      </trkpt>
      <trkpt lat="47.14387" lon="6.18597">
        <ele>538.6</ele>
        <time>2026-05-24T08:21:19Z</time>
      </trkpt>
      <trkpt lat="47.1439" lon="6.18601">
        <ele>538.8</ele>
        <time>2026-05-24T08:21:20Z</time>
      </trkpt>
      <trkpt lat="47.14392" lon="6.18605">
        <ele>538.8</ele>
        <time>2026-05-24T08:21:21Z</time>
      </trkpt>
      <trkpt lat="47.14395" lon="6.18608">
        <ele>538.8</ele>
        <time>2026-05-24T08:21:22Z</time>
      </trkpt>
      <trkpt lat="47.14397" lon="6.18612">
        <ele>539.2</ele>
        <time>2026-05-24T08:21:23Z</time>
      </trkpt>
      <trkpt lat="47.14399" lon="6.18616">
        <ele>539.6</ele>
        <time>2026-05-24T08:21:24Z</time>
      </trkpt>
      <trkpt lat="47.14401" lon="6.1862">
        <ele>539.8</ele>
        <time>2026-05-24T08:21:25Z</time>
      </trkpt>
      <trkpt lat="47.14403" lon="6.18624">
        <ele>540</ele>
        <time>2026-05-24T08:21:26Z</time>
      </trkpt>
      <trkpt lat="47.14406" lon="6.18628">
        <ele>540.4</ele>
        <time>2026-05-24T08:21:27Z</time>
      </trkpt>
      <trkpt lat="47.14408" lon="6.18632">
        <ele>540.4</ele>
        <time>2026-05-24T08:21:28Z</time>
      </trkpt>
      <trkpt lat="47.1441" lon="6.18636">
        <ele>540.8</ele>
        <time>2026-05-24T08:21:29Z</time>
      </trkpt>
      <trkpt lat="47.14414" lon="6.18644">
        <ele>541</ele>
        <time>2026-05-24T08:21:30Z</time>
      </trkpt>
      <trkpt lat="47.14416" lon="6.18649">
        <ele>541.2</ele>
        <time>2026-05-24T08:21:31Z</time>
      </trkpt>
      <trkpt lat="47.14416" lon="6.18649">
        <ele>541.4</ele>
        <time>2026-05-24T08:21:32Z</time>
      </trkpt>
      <trkpt lat="47.14418" lon="6.18653">
        <ele>541.6</ele>
        <time>2026-05-24T08:21:33Z</time>
      </trkpt>
      <trkpt lat="47.1442" lon="6.18657">
        <ele>541.6</ele>
        <time>2026-05-24T08:21:34Z</time>
      </trkpt>
      <trkpt lat="47.14421" lon="6.18662">
        <ele>541.8</ele>
        <time>2026-05-24T08:21:35Z</time>
      </trkpt>
      <trkpt lat="47.14423" lon="6.18666">
        <ele>541.8</ele>
        <time>2026-05-24T08:21:36Z</time>
      </trkpt>
      <trkpt lat="47.14425" lon="6.18671">
        <ele>542</ele>
        <time>2026-05-24T08:21:37Z</time>
      </trkpt>
      <trkpt lat="47.14427" lon="6.18675">
        <ele>542.4</ele>
        <time>2026-05-24T08:21:38Z</time>
      </trkpt>
      <trkpt lat="47.14429" lon="6.1868">
        <ele>542.4</ele>
        <time>2026-05-24T08:21:39Z</time>
      </trkpt>
      <trkpt lat="47.14431" lon="6.18684">
        <ele>542.6</ele>
        <time>2026-05-24T08:21:40Z</time>
      </trkpt>
      <trkpt lat="47.14435" lon="6.18693">
        <ele>542.8</ele>
        <time>2026-05-24T08:21:41Z</time>
      </trkpt>
      <trkpt lat="47.14435" lon="6.18693">
        <ele>542.8</ele>
        <time>2026-05-24T08:21:42Z</time>
      </trkpt>
      <trkpt lat="47.14437" lon="6.18697">
        <ele>543</ele>
        <time>2026-05-24T08:21:43Z</time>
      </trkpt>
      <trkpt lat="47.14439" lon="6.18701">
        <ele>543.4</ele>
        <time>2026-05-24T08:21:44Z</time>
      </trkpt>
      <trkpt lat="47.14441" lon="6.18705">
        <ele>543.4</ele>
        <time>2026-05-24T08:21:45Z</time>
      </trkpt>
      <trkpt lat="47.14443" lon="6.1871">
        <ele>543.6</ele>
        <time>2026-05-24T08:21:46Z</time>
      </trkpt>
      <trkpt lat="47.14445" lon="6.18714">
        <ele>543.8</ele>
        <time>2026-05-24T08:21:47Z</time>
      </trkpt>
      <trkpt lat="47.14447" lon="6.18718">
        <ele>544</ele>
        <time>2026-05-24T08:21:48Z</time>
      </trkpt>
      <trkpt lat="47.14449" lon="6.18723">
        <ele>544.2</ele>
        <time>2026-05-24T08:21:49Z</time>
      </trkpt>
      <trkpt lat="47.14451" lon="6.18727">
        <ele>544.4</ele>
        <time>2026-05-24T08:21:50Z</time>
      </trkpt>
      <trkpt lat="47.14453" lon="6.18732">
        <ele>544.6</ele>
        <time>2026-05-24T08:21:51Z</time>
      </trkpt>
      <trkpt lat="47.14455" lon="6.18737">
        <ele>544.8</ele>
        <time>2026-05-24T08:21:52Z</time>
      </trkpt>
      <trkpt lat="47.14457" lon="6.18742">
        <ele>544.8</ele>
        <time>2026-05-24T08:21:53Z</time>
      </trkpt>
      <trkpt lat="47.14459" lon="6.18746">
        <ele>545</ele>
        <time>2026-05-24T08:21:54Z</time>
      </trkpt>
      <trkpt lat="47.14461" lon="6.18751">
        <ele>545</ele>
        <time>2026-05-24T08:21:55Z</time>
      </trkpt>
      <trkpt lat="47.14463" lon="6.18755">
        <ele>545</ele>
        <time>2026-05-24T08:21:56Z</time>
      </trkpt>
      <trkpt lat="47.14465" lon="6.18759">
        <ele>545.2</ele>
        <time>2026-05-24T08:21:57Z</time>
      </trkpt>
      <trkpt lat="47.14467" lon="6.18763">
        <ele>545.2</ele>
        <time>2026-05-24T08:21:58Z</time>
      </trkpt>
      <trkpt lat="47.14469" lon="6.18768">
        <ele>545.4</ele>
        <time>2026-05-24T08:21:59Z</time>
      </trkpt>
      <trkpt lat="47.14471" lon="6.18772">
        <ele>545.4</ele>
        <time>2026-05-24T08:22:00Z</time>
      </trkpt>
      <trkpt lat="47.14474" lon="6.18777">
        <ele>545.8</ele>
        <time>2026-05-24T08:22:01Z</time>
      </trkpt>
      <trkpt lat="47.14476" lon="6.18781">
        <ele>545.8</ele>
        <time>2026-05-24T08:22:02Z</time>
      </trkpt>
      <trkpt lat="47.14478" lon="6.18786">
        <ele>545.8</ele>
        <time>2026-05-24T08:22:03Z</time>
      </trkpt>
      <trkpt lat="47.1448" lon="6.18791">
        <ele>545.8</ele>
        <time>2026-05-24T08:22:04Z</time>
      </trkpt>
      <trkpt lat="47.14482" lon="6.18796">
        <ele>546</ele>
        <time>2026-05-24T08:22:05Z</time>
      </trkpt>
      <trkpt lat="47.14484" lon="6.188">
        <ele>546.2</ele>
        <time>2026-05-24T08:22:06Z</time>
      </trkpt>
      <trkpt lat="47.14485" lon="6.18805">
        <ele>546.2</ele>
        <time>2026-05-24T08:22:07Z</time>
      </trkpt>
      <trkpt lat="47.14487" lon="6.1881">
        <ele>546.2</ele>
        <time>2026-05-24T08:22:08Z</time>
      </trkpt>
      <trkpt lat="47.14489" lon="6.18814">
        <ele>546.4</ele>
        <time>2026-05-24T08:22:09Z</time>
      </trkpt>
      <trkpt lat="47.14491" lon="6.18819">
        <ele>546.4</ele>
        <time>2026-05-24T08:22:10Z</time>
      </trkpt>
      <trkpt lat="47.14493" lon="6.18824">
        <ele>546.4</ele>
        <time>2026-05-24T08:22:11Z</time>
      </trkpt>
      <trkpt lat="47.14495" lon="6.18828">
        <ele>546.6</ele>
        <time>2026-05-24T08:22:12Z</time>
      </trkpt>
      <trkpt lat="47.14497" lon="6.18833">
        <ele>546.8</ele>
        <time>2026-05-24T08:22:13Z</time>
      </trkpt>
      <trkpt lat="47.14498" lon="6.18837">
        <ele>547</ele>
        <time>2026-05-24T08:22:14Z</time>
      </trkpt>
      <trkpt lat="47.145" lon="6.18842">
        <ele>547</ele>
        <time>2026-05-24T08:22:15Z</time>
      </trkpt>
      <trkpt lat="47.14502" lon="6.18846">
        <ele>547.2</ele>
        <time>2026-05-24T08:22:16Z</time>
      </trkpt>
      <trkpt lat="47.14504" lon="6.18851">
        <ele>547.4</ele>
        <time>2026-05-24T08:22:17Z</time>
      </trkpt>
      <trkpt lat="47.14506" lon="6.18855">
        <ele>547.2</ele>
        <time>2026-05-24T08:22:18Z</time>
      </trkpt>
      <trkpt lat="47.14507" lon="6.1886">
        <ele>547.4</ele>
        <time>2026-05-24T08:22:19Z</time>
      </trkpt>
      <trkpt lat="47.14511" lon="6.18869">
        <ele>547.4</ele>
        <time>2026-05-24T08:22:20Z</time>
      </trkpt>
      <trkpt lat="47.14511" lon="6.18869">
        <ele>547.4</ele>
        <time>2026-05-24T08:22:21Z</time>
      </trkpt>
      <trkpt lat="47.14513" lon="6.18874">
        <ele>547.4</ele>
        <time>2026-05-24T08:22:22Z</time>
      </trkpt>
      <trkpt lat="47.14515" lon="6.18878">
        <ele>547.6</ele>
        <time>2026-05-24T08:22:23Z</time>
      </trkpt>
      <trkpt lat="47.14517" lon="6.18883">
        <ele>547.8</ele>
        <time>2026-05-24T08:22:24Z</time>
      </trkpt>
      <trkpt lat="47.14519" lon="6.18888">
        <ele>548</ele>
        <time>2026-05-24T08:22:25Z</time>
      </trkpt>
      <trkpt lat="47.14521" lon="6.18893">
        <ele>548</ele>
        <time>2026-05-24T08:22:26Z</time>
      </trkpt>
      <trkpt lat="47.14522" lon="6.18898">
        <ele>548.2</ele>
        <time>2026-05-24T08:22:27Z</time>
      </trkpt>
      <trkpt lat="47.14525" lon="6.18903">
        <ele>548.2</ele>
        <time>2026-05-24T08:22:28Z</time>
      </trkpt>
      <trkpt lat="47.14527" lon="6.18908">
        <ele>548.4</ele>
        <time>2026-05-24T08:22:29Z</time>
      </trkpt>
      <trkpt lat="47.14529" lon="6.18913">
        <ele>548.4</ele>
        <time>2026-05-24T08:22:30Z</time>
      </trkpt>
      <trkpt lat="47.14531" lon="6.18918">
        <ele>548.6</ele>
        <time>2026-05-24T08:22:31Z</time>
      </trkpt>
      <trkpt lat="47.14534" lon="6.18923">
        <ele>548.6</ele>
        <time>2026-05-24T08:22:32Z</time>
      </trkpt>
      <trkpt lat="47.14536" lon="6.18928">
        <ele>548.8</ele>
        <time>2026-05-24T08:22:33Z</time>
      </trkpt>
      <trkpt lat="47.14538" lon="6.18933">
        <ele>549</ele>
        <time>2026-05-24T08:22:34Z</time>
      </trkpt>
      <trkpt lat="47.14539" lon="6.18938">
        <ele>549</ele>
        <time>2026-05-24T08:22:35Z</time>
      </trkpt>
      <trkpt lat="47.14541" lon="6.18943">
        <ele>549.2</ele>
        <time>2026-05-24T08:22:36Z</time>
      </trkpt>
      <trkpt lat="47.14543" lon="6.18949">
        <ele>549.2</ele>
        <time>2026-05-24T08:22:37Z</time>
      </trkpt>
      <trkpt lat="47.14545" lon="6.18954">
        <ele>549.2</ele>
        <time>2026-05-24T08:22:38Z</time>
      </trkpt>
      <trkpt lat="47.14547" lon="6.18959">
        <ele>549.4</ele>
        <time>2026-05-24T08:22:39Z</time>
      </trkpt>
      <trkpt lat="47.14549" lon="6.18965">
        <ele>549.4</ele>
        <time>2026-05-24T08:22:40Z</time>
      </trkpt>
      <trkpt lat="47.14551" lon="6.1897">
        <ele>549.4</ele>
        <time>2026-05-24T08:22:41Z</time>
      </trkpt>
      <trkpt lat="47.14555" lon="6.18982">
        <ele>549.4</ele>
        <time>2026-05-24T08:22:42Z</time>
      </trkpt>
      <trkpt lat="47.14557" lon="6.18987">
        <ele>549.4</ele>
        <time>2026-05-24T08:22:43Z</time>
      </trkpt>
      <trkpt lat="47.14559" lon="6.18993">
        <ele>549.4</ele>
        <time>2026-05-24T08:22:44Z</time>
      </trkpt>
      <trkpt lat="47.14559" lon="6.18993">
        <ele>549.6</ele>
        <time>2026-05-24T08:22:45Z</time>
      </trkpt>
      <trkpt lat="47.14561" lon="6.18998">
        <ele>549.4</ele>
        <time>2026-05-24T08:22:46Z</time>
      </trkpt>
      <trkpt lat="47.14563" lon="6.19004">
        <ele>549.6</ele>
        <time>2026-05-24T08:22:47Z</time>
      </trkpt>
      <trkpt lat="47.14564" lon="6.19009">
        <ele>549.6</ele>
        <time>2026-05-24T08:22:48Z</time>
      </trkpt>
      <trkpt lat="47.14566" lon="6.19015">
        <ele>549.6</ele>
        <time>2026-05-24T08:22:49Z</time>
      </trkpt>
      <trkpt lat="47.14567" lon="6.1902">
        <ele>549.4</ele>
        <time>2026-05-24T08:22:50Z</time>
      </trkpt>
      <trkpt lat="47.14569" lon="6.19026">
        <ele>549.4</ele>
        <time>2026-05-24T08:22:51Z</time>
      </trkpt>
      <trkpt lat="47.14571" lon="6.19031">
        <ele>549.4</ele>
        <time>2026-05-24T08:22:52Z</time>
      </trkpt>
      <trkpt lat="47.14573" lon="6.19038">
        <ele>549.2</ele>
        <time>2026-05-24T08:22:53Z</time>
      </trkpt>
      <trkpt lat="47.14576" lon="6.19044">
        <ele>549.2</ele>
        <time>2026-05-24T08:22:54Z</time>
      </trkpt>
      <trkpt lat="47.14579" lon="6.19051">
        <ele>549.2</ele>
        <time>2026-05-24T08:22:55Z</time>
      </trkpt>
      <trkpt lat="47.14581" lon="6.19058">
        <ele>549.2</ele>
        <time>2026-05-24T08:22:56Z</time>
      </trkpt>
      <trkpt lat="47.14584" lon="6.19064">
        <ele>549.2</ele>
        <time>2026-05-24T08:22:57Z</time>
      </trkpt>
      <trkpt lat="47.14585" lon="6.19069">
        <ele>549</ele>
        <time>2026-05-24T08:22:58Z</time>
      </trkpt>
      <trkpt lat="47.14587" lon="6.19073">
        <ele>548.8</ele>
        <time>2026-05-24T08:22:59Z</time>
      </trkpt>
      <trkpt lat="47.14588" lon="6.19076">
        <ele>548.6</ele>
        <time>2026-05-24T08:23:00Z</time>
      </trkpt>
      <trkpt lat="47.14588" lon="6.19078">
        <ele>548.8</ele>
        <time>2026-05-24T08:23:01Z</time>
      </trkpt>
      <trkpt lat="47.14589" lon="6.1908">
        <ele>548.6</ele>
        <time>2026-05-24T08:23:02Z</time>
      </trkpt>
      <trkpt lat="47.1459" lon="6.19081">
        <ele>548.6</ele>
        <time>2026-05-24T08:23:03Z</time>
      </trkpt>
      <trkpt lat="47.1459" lon="6.19081">
        <ele>548.8</ele>
        <time>2026-05-24T08:23:04Z</time>
      </trkpt>
      <trkpt lat="47.1459" lon="6.19082">
        <ele>548.8</ele>
        <time>2026-05-24T08:23:05Z</time>
      </trkpt>
      <trkpt lat="47.14591" lon="6.19083">
        <ele>548.6</ele>
        <time>2026-05-24T08:23:06Z</time>
      </trkpt>
      <trkpt lat="47.14591" lon="6.19083">
        <ele>548.6</ele>
        <time>2026-05-24T08:23:07Z</time>
      </trkpt>
      <trkpt lat="47.1459" lon="6.19083">
        <ele>548.6</ele>
        <time>2026-05-24T08:23:08Z</time>
      </trkpt>
      <trkpt lat="47.1459" lon="6.19082">
        <ele>548.6</ele>
        <time>2026-05-24T08:23:09Z</time>
      </trkpt>
      <trkpt lat="47.14603" lon="6.19091">
        <ele>548.6</ele>
        <time>2026-05-24T08:23:38Z</time>
      </trkpt>
      <trkpt lat="47.14605" lon="6.19091">
        <ele>548.8</ele>
        <time>2026-05-24T08:23:39Z</time>
      </trkpt>
      <trkpt lat="47.14608" lon="6.1909">
        <ele>548.6</ele>
        <time>2026-05-24T08:23:40Z</time>
      </trkpt>
      <trkpt lat="47.1461" lon="6.1909">
        <ele>548.6</ele>
        <time>2026-05-24T08:23:41Z</time>
      </trkpt>
      <trkpt lat="47.14614" lon="6.19089">
        <ele>548.8</ele>
        <time>2026-05-24T08:23:42Z</time>
      </trkpt>
      <trkpt lat="47.14617" lon="6.19089">
        <ele>548.6</ele>
        <time>2026-05-24T08:23:43Z</time>
      </trkpt>
      <trkpt lat="47.14624" lon="6.19087">
        <ele>548.8</ele>
        <time>2026-05-24T08:23:44Z</time>
      </trkpt>
      <trkpt lat="47.14624" lon="6.19087">
        <ele>548.6</ele>
        <time>2026-05-24T08:23:45Z</time>
      </trkpt>
      <trkpt lat="47.14628" lon="6.19087">
        <ele>548.6</ele>
        <time>2026-05-24T08:23:46Z</time>
      </trkpt>
      <trkpt lat="47.14631" lon="6.19086">
        <ele>548.6</ele>
        <time>2026-05-24T08:23:47Z</time>
      </trkpt>
      <trkpt lat="47.14639" lon="6.19084">
        <ele>548.6</ele>
        <time>2026-05-24T08:23:48Z</time>
      </trkpt>
      <trkpt lat="47.14639" lon="6.19084">
        <ele>548.4</ele>
        <time>2026-05-24T08:23:49Z</time>
      </trkpt>
      <trkpt lat="47.14642" lon="6.19083">
        <ele>548.4</ele>
        <time>2026-05-24T08:23:50Z</time>
      </trkpt>
      <trkpt lat="47.14646" lon="6.19082">
        <ele>548.2</ele>
        <time>2026-05-24T08:23:51Z</time>
      </trkpt>
      <trkpt lat="47.14653" lon="6.19081">
        <ele>548.2</ele>
        <time>2026-05-24T08:23:52Z</time>
      </trkpt>
      <trkpt lat="47.14653" lon="6.19081">
        <ele>548.2</ele>
        <time>2026-05-24T08:23:53Z</time>
      </trkpt>
      <trkpt lat="47.1466" lon="6.1908">
        <ele>548</ele>
        <time>2026-05-24T08:23:54Z</time>
      </trkpt>
      <trkpt lat="47.1466" lon="6.1908">
        <ele>547.8</ele>
        <time>2026-05-24T08:23:55Z</time>
      </trkpt>
      <trkpt lat="47.14663" lon="6.19079">
        <ele>547.6</ele>
        <time>2026-05-24T08:23:56Z</time>
      </trkpt>
      <trkpt lat="47.14666" lon="6.19079">
        <ele>547.6</ele>
        <time>2026-05-24T08:23:57Z</time>
      </trkpt>
      <trkpt lat="47.14669" lon="6.19078">
        <ele>547.6</ele>
        <time>2026-05-24T08:23:58Z</time>
      </trkpt>
      <trkpt lat="47.14675" lon="6.19075">
        <ele>547.6</ele>
        <time>2026-05-24T08:23:59Z</time>
      </trkpt>
      <trkpt lat="47.14675" lon="6.19075">
        <ele>547.6</ele>
        <time>2026-05-24T08:24:00Z</time>
      </trkpt>
      <trkpt lat="47.1468" lon="6.19073">
        <ele>547.6</ele>
        <time>2026-05-24T08:24:01Z</time>
      </trkpt>
      <trkpt lat="47.1468" lon="6.19073">
        <ele>547.6</ele>
        <time>2026-05-24T08:24:02Z</time>
      </trkpt>
      <trkpt lat="47.14683" lon="6.19073">
        <ele>547.6</ele>
        <time>2026-05-24T08:24:03Z</time>
      </trkpt>
      <trkpt lat="47.14689" lon="6.19073">
        <ele>547.6</ele>
        <time>2026-05-24T08:24:04Z</time>
      </trkpt>
      <trkpt lat="47.14689" lon="6.19073">
        <ele>547.6</ele>
        <time>2026-05-24T08:24:05Z</time>
      </trkpt>
      <trkpt lat="47.14693" lon="6.19074">
        <ele>547.6</ele>
        <time>2026-05-24T08:24:06Z</time>
      </trkpt>
      <trkpt lat="47.14693" lon="6.19074">
        <ele>547.8</ele>
        <time>2026-05-24T08:24:07Z</time>
      </trkpt>
      <trkpt lat="47.14695" lon="6.19074">
        <ele>548</ele>
        <time>2026-05-24T08:24:08Z</time>
      </trkpt>
      <trkpt lat="47.14697" lon="6.19075">
        <ele>548.2</ele>
        <time>2026-05-24T08:24:09Z</time>
      </trkpt>
      <trkpt lat="47.14699" lon="6.19075">
        <ele>548.2</ele>
        <time>2026-05-24T08:24:10Z</time>
      </trkpt>
      <trkpt lat="47.147" lon="6.19075">
        <ele>548.2</ele>
        <time>2026-05-24T08:24:11Z</time>
      </trkpt>
      <trkpt lat="47.14702" lon="6.19076">
        <ele>548.2</ele>
        <time>2026-05-24T08:24:12Z</time>
      </trkpt>
      <trkpt lat="47.14703" lon="6.19076">
        <ele>548.2</ele>
        <time>2026-05-24T08:24:13Z</time>
      </trkpt>
      <trkpt lat="47.14705" lon="6.19077">
        <ele>548.2</ele>
        <time>2026-05-24T08:24:14Z</time>
      </trkpt>
      <trkpt lat="47.14706" lon="6.19078">
        <ele>548.4</ele>
        <time>2026-05-24T08:24:15Z</time>
      </trkpt>
      <trkpt lat="47.14707" lon="6.19078">
        <ele>548.4</ele>
        <time>2026-05-24T08:24:16Z</time>
      </trkpt>
      <trkpt lat="47.14708" lon="6.19079">
        <ele>548.6</ele>
        <time>2026-05-24T08:24:17Z</time>
      </trkpt>
      <trkpt lat="47.14708" lon="6.19079">
        <ele>548.6</ele>
        <time>2026-05-24T08:24:18Z</time>
      </trkpt>
      <trkpt lat="47.14709" lon="6.1908">
        <ele>548.6</ele>
        <time>2026-05-24T08:24:19Z</time>
      </trkpt>
      <trkpt lat="47.14709" lon="6.1908">
        <ele>548.6</ele>
        <time>2026-05-24T08:24:20Z</time>
      </trkpt>
      <trkpt lat="47.1471" lon="6.1908">
        <ele>548.8</ele>
        <time>2026-05-24T08:24:21Z</time>
      </trkpt>
      <trkpt lat="47.1471" lon="6.1908">
        <ele>549</ele>
        <time>2026-05-24T08:24:22Z</time>
      </trkpt>
      <trkpt lat="47.1471" lon="6.19081">
        <ele>549</ele>
        <time>2026-05-24T08:24:23Z</time>
      </trkpt>
      <trkpt lat="47.1471" lon="6.19081">
        <ele>549</ele>
        <time>2026-05-24T08:24:24Z</time>
      </trkpt>
      <trkpt lat="47.1471" lon="6.1908">
        <ele>549.2</ele>
        <time>2026-05-24T08:24:25Z</time>
      </trkpt>
      <trkpt lat="47.1471" lon="6.1908">
        <ele>549.2</ele>
        <time>2026-05-24T08:24:26Z</time>
      </trkpt>
      <trkpt lat="47.1471" lon="6.1908">
        <ele>549.2</ele>
        <time>2026-05-24T08:24:27Z</time>
      </trkpt>
      <trkpt lat="47.14724" lon="6.19081">
        <ele>549.4</ele>
        <time>2026-05-24T08:24:50Z</time>
      </trkpt>
      <trkpt lat="47.14724" lon="6.19081">
        <ele>549.4</ele>
        <time>2026-05-24T08:24:51Z</time>
      </trkpt>
      <trkpt lat="47.14726" lon="6.19081">
        <ele>549.4</ele>
        <time>2026-05-24T08:24:52Z</time>
      </trkpt>
      <trkpt lat="47.1473" lon="6.19083">
        <ele>549.4</ele>
        <time>2026-05-24T08:24:53Z</time>
      </trkpt>
      <trkpt lat="47.1473" lon="6.19083">
        <ele>549.4</ele>
        <time>2026-05-24T08:24:54Z</time>
      </trkpt>
      <trkpt lat="47.14732" lon="6.19083">
        <ele>549.6</ele>
        <time>2026-05-24T08:24:55Z</time>
      </trkpt>
      <trkpt lat="47.14735" lon="6.19084">
        <ele>549.6</ele>
        <time>2026-05-24T08:24:56Z</time>
      </trkpt>
      <trkpt lat="47.14738" lon="6.19085">
        <ele>549.4</ele>
        <time>2026-05-24T08:24:57Z</time>
      </trkpt>
      <trkpt lat="47.14743" lon="6.19085">
        <ele>549.4</ele>
        <time>2026-05-24T08:24:58Z</time>
      </trkpt>
      <trkpt lat="47.14746" lon="6.19086">
        <ele>549.4</ele>
        <time>2026-05-24T08:24:59Z</time>
      </trkpt>
      <trkpt lat="47.14746" lon="6.19086">
        <ele>549.4</ele>
        <time>2026-05-24T08:25:00Z</time>
      </trkpt>
      <trkpt lat="47.14749" lon="6.19087">
        <ele>549.4</ele>
        <time>2026-05-24T08:25:01Z</time>
      </trkpt>
      <trkpt lat="47.14752" lon="6.19089">
        <ele>549.4</ele>
        <time>2026-05-24T08:25:02Z</time>
      </trkpt>
      <trkpt lat="47.14755" lon="6.19091">
        <ele>549.4</ele>
        <time>2026-05-24T08:25:03Z</time>
      </trkpt>
      <trkpt lat="47.14758" lon="6.19094">
        <ele>549.4</ele>
        <time>2026-05-24T08:25:04Z</time>
      </trkpt>
      <trkpt lat="47.1476" lon="6.19097">
        <ele>549.4</ele>
        <time>2026-05-24T08:25:05Z</time>
      </trkpt>
      <trkpt lat="47.14763" lon="6.19099">
        <ele>549.4</ele>
        <time>2026-05-24T08:25:06Z</time>
      </trkpt>
      <trkpt lat="47.14769" lon="6.19105">
        <ele>549.4</ele>
        <time>2026-05-24T08:25:07Z</time>
      </trkpt>
      <trkpt lat="47.14769" lon="6.19105">
        <ele>549.4</ele>
        <time>2026-05-24T08:25:08Z</time>
      </trkpt>
      <trkpt lat="47.14772" lon="6.19108">
        <ele>549.4</ele>
        <time>2026-05-24T08:25:09Z</time>
      </trkpt>
      <trkpt lat="47.14775" lon="6.1911">
        <ele>549.4</ele>
        <time>2026-05-24T08:25:10Z</time>
      </trkpt>
      <trkpt lat="47.14778" lon="6.19113">
        <ele>549.4</ele>
        <time>2026-05-24T08:25:11Z</time>
      </trkpt>
      <trkpt lat="47.14781" lon="6.19115">
        <ele>549.4</ele>
        <time>2026-05-24T08:25:12Z</time>
      </trkpt>
      <trkpt lat="47.14787" lon="6.19117">
        <ele>549.4</ele>
        <time>2026-05-24T08:25:13Z</time>
      </trkpt>
      <trkpt lat="47.14791" lon="6.19119">
        <ele>549.4</ele>
        <time>2026-05-24T08:25:14Z</time>
      </trkpt>
      <trkpt lat="47.14791" lon="6.19119">
        <ele>549.2</ele>
        <time>2026-05-24T08:25:15Z</time>
      </trkpt>
      <trkpt lat="47.14793" lon="6.19121">
        <ele>549.4</ele>
        <time>2026-05-24T08:25:16Z</time>
      </trkpt>
      <trkpt lat="47.14797" lon="6.19122">
        <ele>549.4</ele>
        <time>2026-05-24T08:25:17Z</time>
      </trkpt>
      <trkpt lat="47.148" lon="6.19123">
        <ele>549.4</ele>
        <time>2026-05-24T08:25:18Z</time>
      </trkpt>
      <trkpt lat="47.14808" lon="6.19124">
        <ele>549.4</ele>
        <time>2026-05-24T08:25:19Z</time>
      </trkpt>
      <trkpt lat="47.14808" lon="6.19124">
        <ele>549.4</ele>
        <time>2026-05-24T08:25:20Z</time>
      </trkpt>
      <trkpt lat="47.14812" lon="6.19124">
        <ele>549.6</ele>
        <time>2026-05-24T08:25:21Z</time>
      </trkpt>
      <trkpt lat="47.14815" lon="6.19124">
        <ele>549.6</ele>
        <time>2026-05-24T08:25:22Z</time>
      </trkpt>
      <trkpt lat="47.14819" lon="6.19123">
        <ele>549.6</ele>
        <time>2026-05-24T08:25:23Z</time>
      </trkpt>
      <trkpt lat="47.14823" lon="6.19123">
        <ele>549.8</ele>
        <time>2026-05-24T08:25:24Z</time>
      </trkpt>
      <trkpt lat="47.1483" lon="6.19124">
        <ele>549.8</ele>
        <time>2026-05-24T08:25:25Z</time>
      </trkpt>
      <trkpt lat="47.1483" lon="6.19124">
        <ele>549.8</ele>
        <time>2026-05-24T08:25:26Z</time>
      </trkpt>
      <trkpt lat="47.14833" lon="6.19125">
        <ele>549.8</ele>
        <time>2026-05-24T08:25:27Z</time>
      </trkpt>
      <trkpt lat="47.14837" lon="6.19126">
        <ele>549.8</ele>
        <time>2026-05-24T08:25:28Z</time>
      </trkpt>
      <trkpt lat="47.1484" lon="6.19127">
        <ele>550</ele>
        <time>2026-05-24T08:25:29Z</time>
      </trkpt>
      <trkpt lat="47.14842" lon="6.19128">
        <ele>550.2</ele>
        <time>2026-05-24T08:25:30Z</time>
      </trkpt>
      <trkpt lat="47.14845" lon="6.19128">
        <ele>550.2</ele>
        <time>2026-05-24T08:25:31Z</time>
      </trkpt>
      <trkpt lat="47.14847" lon="6.1913">
        <ele>550.2</ele>
        <time>2026-05-24T08:25:32Z</time>
      </trkpt>
      <trkpt lat="47.14851" lon="6.19131">
        <ele>550.2</ele>
        <time>2026-05-24T08:25:33Z</time>
      </trkpt>
      <trkpt lat="47.14854" lon="6.19133">
        <ele>550.4</ele>
        <time>2026-05-24T08:25:34Z</time>
      </trkpt>
      <trkpt lat="47.14858" lon="6.19134">
        <ele>550.6</ele>
        <time>2026-05-24T08:25:35Z</time>
      </trkpt>
      <trkpt lat="47.14862" lon="6.19136">
        <ele>550.6</ele>
        <time>2026-05-24T08:25:36Z</time>
      </trkpt>
      <trkpt lat="47.14867" lon="6.19138">
        <ele>550.8</ele>
        <time>2026-05-24T08:25:37Z</time>
      </trkpt>
      <trkpt lat="47.14871" lon="6.1914">
        <ele>550.8</ele>
        <time>2026-05-24T08:25:38Z</time>
      </trkpt>
      <trkpt lat="47.1488" lon="6.19144">
        <ele>550.8</ele>
        <time>2026-05-24T08:25:39Z</time>
      </trkpt>
      <trkpt lat="47.14883" lon="6.19145">
        <ele>550.8</ele>
        <time>2026-05-24T08:25:40Z</time>
      </trkpt>
      <trkpt lat="47.14887" lon="6.19145">
        <ele>550.8</ele>
        <time>2026-05-24T08:25:41Z</time>
      </trkpt>
      <trkpt lat="47.1489" lon="6.19146">
        <ele>550.8</ele>
        <time>2026-05-24T08:25:42Z</time>
      </trkpt>
      <trkpt lat="47.14893" lon="6.19146">
        <ele>551.2</ele>
        <time>2026-05-24T08:25:43Z</time>
      </trkpt>
      <trkpt lat="47.14897" lon="6.19147">
        <ele>551.2</ele>
        <time>2026-05-24T08:25:44Z</time>
      </trkpt>
      <trkpt lat="47.149" lon="6.19149">
        <ele>551.2</ele>
        <time>2026-05-24T08:25:45Z</time>
      </trkpt>
      <trkpt lat="47.14903" lon="6.19151">
        <ele>551.4</ele>
        <time>2026-05-24T08:25:46Z</time>
      </trkpt>
      <trkpt lat="47.14906" lon="6.19153">
        <ele>551.6</ele>
        <time>2026-05-24T08:25:47Z</time>
      </trkpt>
      <trkpt lat="47.14908" lon="6.19155">
        <ele>551.8</ele>
        <time>2026-05-24T08:25:48Z</time>
      </trkpt>
      <trkpt lat="47.14911" lon="6.19157">
        <ele>552</ele>
        <time>2026-05-24T08:25:49Z</time>
      </trkpt>
      <trkpt lat="47.14912" lon="6.19158">
        <ele>551.8</ele>
        <time>2026-05-24T08:25:50Z</time>
      </trkpt>
      <trkpt lat="47.14912" lon="6.19158">
        <ele>552</ele>
        <time>2026-05-24T08:25:51Z</time>
      </trkpt>
      <trkpt lat="47.14915" lon="6.19161">
        <ele>552</ele>
        <time>2026-05-24T08:25:52Z</time>
      </trkpt>
      <trkpt lat="47.14915" lon="6.19161">
        <ele>552.2</ele>
        <time>2026-05-24T08:25:53Z</time>
      </trkpt>
      <trkpt lat="47.14917" lon="6.19164">
        <ele>552.2</ele>
        <time>2026-05-24T08:25:54Z</time>
      </trkpt>
      <trkpt lat="47.14917" lon="6.19164">
        <ele>552.2</ele>
        <time>2026-05-24T08:25:55Z</time>
      </trkpt>
      <trkpt lat="47.14918" lon="6.19165">
        <ele>552.2</ele>
        <time>2026-05-24T08:25:56Z</time>
      </trkpt>
      <trkpt lat="47.14917" lon="6.19165">
        <ele>552.4</ele>
        <time>2026-05-24T08:25:57Z</time>
      </trkpt>
      <trkpt lat="47.14917" lon="6.19165">
        <ele>552.6</ele>
        <time>2026-05-24T08:25:58Z</time>
      </trkpt>
      <trkpt lat="47.1492" lon="6.19158">
        <ele>552.8</ele>
        <time>2026-05-24T08:26:41Z</time>
      </trkpt>
      <trkpt lat="47.14919" lon="6.19154">
        <ele>552.8</ele>
        <time>2026-05-24T08:26:42Z</time>
      </trkpt>
      <trkpt lat="47.1492" lon="6.1915">
        <ele>553</ele>
        <time>2026-05-24T08:26:43Z</time>
      </trkpt>
      <trkpt lat="47.1492" lon="6.19141">
        <ele>552.8</ele>
        <time>2026-05-24T08:26:44Z</time>
      </trkpt>
      <trkpt lat="47.1492" lon="6.19137">
        <ele>552.8</ele>
        <time>2026-05-24T08:26:45Z</time>
      </trkpt>
      <trkpt lat="47.1492" lon="6.19132">
        <ele>553</ele>
        <time>2026-05-24T08:26:46Z</time>
      </trkpt>
      <trkpt lat="47.1492" lon="6.19127">
        <ele>552.8</ele>
        <time>2026-05-24T08:26:47Z</time>
      </trkpt>
      <trkpt lat="47.1492" lon="6.19122">
        <ele>552.8</ele>
        <time>2026-05-24T08:26:48Z</time>
      </trkpt>
      <trkpt lat="47.1492" lon="6.19122">
        <ele>552.8</ele>
        <time>2026-05-24T08:26:49Z</time>
      </trkpt>
      <trkpt lat="47.14919" lon="6.19112">
        <ele>552.8</ele>
        <time>2026-05-24T08:26:50Z</time>
      </trkpt>
      <trkpt lat="47.14919" lon="6.19107">
        <ele>553</ele>
        <time>2026-05-24T08:26:51Z</time>
      </trkpt>
      <trkpt lat="47.14919" lon="6.19107">
        <ele>552.6</ele>
        <time>2026-05-24T08:26:52Z</time>
      </trkpt>
      <trkpt lat="47.14919" lon="6.19101">
        <ele>552.6</ele>
        <time>2026-05-24T08:26:53Z</time>
      </trkpt>
      <trkpt lat="47.1492" lon="6.19089">
        <ele>552.6</ele>
        <time>2026-05-24T08:26:54Z</time>
      </trkpt>
      <trkpt lat="47.1492" lon="6.19089">
        <ele>552.4</ele>
        <time>2026-05-24T08:26:55Z</time>
      </trkpt>
      <trkpt lat="47.14921" lon="6.19084">
        <ele>552.2</ele>
        <time>2026-05-24T08:26:56Z</time>
      </trkpt>
      <trkpt lat="47.14922" lon="6.19079">
        <ele>552</ele>
        <time>2026-05-24T08:26:57Z</time>
      </trkpt>
      <trkpt lat="47.14922" lon="6.19074">
        <ele>551.8</ele>
        <time>2026-05-24T08:26:58Z</time>
      </trkpt>
      <trkpt lat="47.14923" lon="6.19069">
        <ele>551.6</ele>
        <time>2026-05-24T08:26:59Z</time>
      </trkpt>
      <trkpt lat="47.14924" lon="6.19062">
        <ele>551.6</ele>
        <time>2026-05-24T08:27:00Z</time>
      </trkpt>
      <trkpt lat="47.14924" lon="6.19062">
        <ele>551.4</ele>
        <time>2026-05-24T08:27:01Z</time>
      </trkpt>
      <trkpt lat="47.14926" lon="6.19054">
        <ele>551.2</ele>
        <time>2026-05-24T08:27:02Z</time>
      </trkpt>
      <trkpt lat="47.14927" lon="6.1905">
        <ele>551.2</ele>
        <time>2026-05-24T08:27:03Z</time>
      </trkpt>
      <trkpt lat="47.14927" lon="6.19045">
        <ele>551</ele>
        <time>2026-05-24T08:27:04Z</time>
      </trkpt>
      <trkpt lat="47.14927" lon="6.1904">
        <ele>550.8</ele>
        <time>2026-05-24T08:27:05Z</time>
      </trkpt>
      <trkpt lat="47.14927" lon="6.19035">
        <ele>550.8</ele>
        <time>2026-05-24T08:27:06Z</time>
      </trkpt>
      <trkpt lat="47.14927" lon="6.19035">
        <ele>550.6</ele>
        <time>2026-05-24T08:27:07Z</time>
      </trkpt>
      <trkpt lat="47.14927" lon="6.19031">
        <ele>550.6</ele>
        <time>2026-05-24T08:27:08Z</time>
      </trkpt>
      <trkpt lat="47.14928" lon="6.19026">
        <ele>550.4</ele>
        <time>2026-05-24T08:27:09Z</time>
      </trkpt>
      <trkpt lat="47.14928" lon="6.19021">
        <ele>550.4</ele>
        <time>2026-05-24T08:27:10Z</time>
      </trkpt>
      <trkpt lat="47.1493" lon="6.1901">
        <ele>550.2</ele>
        <time>2026-05-24T08:27:11Z</time>
      </trkpt>
      <trkpt lat="47.1493" lon="6.19004">
        <ele>550.2</ele>
        <time>2026-05-24T08:27:12Z</time>
      </trkpt>
      <trkpt lat="47.1493" lon="6.19004">
        <ele>550</ele>
        <time>2026-05-24T08:27:13Z</time>
      </trkpt>
      <trkpt lat="47.1493" lon="6.18998">
        <ele>550</ele>
        <time>2026-05-24T08:27:14Z</time>
      </trkpt>
      <trkpt lat="47.14929" lon="6.18991">
        <ele>550</ele>
        <time>2026-05-24T08:27:15Z</time>
      </trkpt>
      <trkpt lat="47.14929" lon="6.18986">
        <ele>549.6</ele>
        <time>2026-05-24T08:27:16Z</time>
      </trkpt>
      <trkpt lat="47.14929" lon="6.18981">
        <ele>549.8</ele>
        <time>2026-05-24T08:27:17Z</time>
      </trkpt>
      <trkpt lat="47.14929" lon="6.18977">
        <ele>549.6</ele>
        <time>2026-05-24T08:27:18Z</time>
      </trkpt>
      <trkpt lat="47.1493" lon="6.18974">
        <ele>549.2</ele>
        <time>2026-05-24T08:27:19Z</time>
      </trkpt>
      <trkpt lat="47.14932" lon="6.18969">
        <ele>548.8</ele>
        <time>2026-05-24T08:27:20Z</time>
      </trkpt>
      <trkpt lat="47.14932" lon="6.18969">
        <ele>548.4</ele>
        <time>2026-05-24T08:27:21Z</time>
      </trkpt>
      <trkpt lat="47.14937" lon="6.18965">
        <ele>548</ele>
        <time>2026-05-24T08:27:22Z</time>
      </trkpt>
      <trkpt lat="47.14937" lon="6.18965">
        <ele>547.6</ele>
        <time>2026-05-24T08:27:23Z</time>
      </trkpt>
      <trkpt lat="47.14943" lon="6.18961">
        <ele>547.4</ele>
        <time>2026-05-24T08:27:24Z</time>
      </trkpt>
      <trkpt lat="47.14946" lon="6.1896">
        <ele>547.4</ele>
        <time>2026-05-24T08:27:25Z</time>
      </trkpt>
      <trkpt lat="47.1495" lon="6.1896">
        <ele>547</ele>
        <time>2026-05-24T08:27:26Z</time>
      </trkpt>
      <trkpt lat="47.1495" lon="6.1896">
        <ele>546.8</ele>
        <time>2026-05-24T08:27:27Z</time>
      </trkpt>
      <trkpt lat="47.14957" lon="6.18957">
        <ele>546.8</ele>
        <time>2026-05-24T08:27:28Z</time>
      </trkpt>
      <trkpt lat="47.1496" lon="6.18956">
        <ele>546.6</ele>
        <time>2026-05-24T08:27:29Z</time>
      </trkpt>
      <trkpt lat="47.14963" lon="6.18955">
        <ele>546.6</ele>
        <time>2026-05-24T08:27:30Z</time>
      </trkpt>
      <trkpt lat="47.14963" lon="6.18955">
        <ele>546.4</ele>
        <time>2026-05-24T08:27:31Z</time>
      </trkpt>
      <trkpt lat="47.14971" lon="6.18953">
        <ele>546.2</ele>
        <time>2026-05-24T08:27:32Z</time>
      </trkpt>
      <trkpt lat="47.14974" lon="6.18953">
        <ele>546</ele>
        <time>2026-05-24T08:27:33Z</time>
      </trkpt>
      <trkpt lat="47.14974" lon="6.18953">
        <ele>546.2</ele>
        <time>2026-05-24T08:27:34Z</time>
      </trkpt>
      <trkpt lat="47.14977" lon="6.18951">
        <ele>546.2</ele>
        <time>2026-05-24T08:27:35Z</time>
      </trkpt>
      <trkpt lat="47.14984" lon="6.18947">
        <ele>546</ele>
        <time>2026-05-24T08:27:36Z</time>
      </trkpt>
      <trkpt lat="47.14988" lon="6.18944">
        <ele>546</ele>
        <time>2026-05-24T08:27:37Z</time>
      </trkpt>
      <trkpt lat="47.14988" lon="6.18944">
        <ele>545.8</ele>
        <time>2026-05-24T08:27:38Z</time>
      </trkpt>
      <trkpt lat="47.14991" lon="6.18941">
        <ele>545.6</ele>
        <time>2026-05-24T08:27:39Z</time>
      </trkpt>
      <trkpt lat="47.14994" lon="6.18938">
        <ele>545.4</ele>
        <time>2026-05-24T08:27:40Z</time>
      </trkpt>
      <trkpt lat="47.14998" lon="6.18935">
        <ele>545.2</ele>
        <time>2026-05-24T08:27:41Z</time>
      </trkpt>
      <trkpt lat="47.15001" lon="6.18933">
        <ele>545.2</ele>
        <time>2026-05-24T08:27:42Z</time>
      </trkpt>
      <trkpt lat="47.15009" lon="6.18929">
        <ele>545</ele>
        <time>2026-05-24T08:27:43Z</time>
      </trkpt>
      <trkpt lat="47.15012" lon="6.18928">
        <ele>544.8</ele>
        <time>2026-05-24T08:27:44Z</time>
      </trkpt>
      <trkpt lat="47.15012" lon="6.18928">
        <ele>544.8</ele>
        <time>2026-05-24T08:27:45Z</time>
      </trkpt>
      <trkpt lat="47.15015" lon="6.18927">
        <ele>544.8</ele>
        <time>2026-05-24T08:27:46Z</time>
      </trkpt>
      <trkpt lat="47.15023" lon="6.18925">
        <ele>544.8</ele>
        <time>2026-05-24T08:27:47Z</time>
      </trkpt>
      <trkpt lat="47.15027" lon="6.18924">
        <ele>544.4</ele>
        <time>2026-05-24T08:27:48Z</time>
      </trkpt>
      <trkpt lat="47.15031" lon="6.18923">
        <ele>543.8</ele>
        <time>2026-05-24T08:27:49Z</time>
      </trkpt>
      <trkpt lat="47.15036" lon="6.18922">
        <ele>543.4</ele>
        <time>2026-05-24T08:27:50Z</time>
      </trkpt>
      <trkpt lat="47.15036" lon="6.18922">
        <ele>543.2</ele>
        <time>2026-05-24T08:27:51Z</time>
      </trkpt>
      <trkpt lat="47.15043" lon="6.18921">
        <ele>543</ele>
        <time>2026-05-24T08:27:52Z</time>
      </trkpt>
      <trkpt lat="47.15045" lon="6.18921">
        <ele>542.8</ele>
        <time>2026-05-24T08:27:53Z</time>
      </trkpt>
      <trkpt lat="47.15048" lon="6.1892">
        <ele>542.4</ele>
        <time>2026-05-24T08:27:54Z</time>
      </trkpt>
      <trkpt lat="47.1505" lon="6.18919">
        <ele>542.2</ele>
        <time>2026-05-24T08:27:55Z</time>
      </trkpt>
      <trkpt lat="47.1505" lon="6.18919">
        <ele>542</ele>
        <time>2026-05-24T08:27:56Z</time>
      </trkpt>
      <trkpt lat="47.15055" lon="6.1892">
        <ele>541.8</ele>
        <time>2026-05-24T08:27:57Z</time>
      </trkpt>
      <trkpt lat="47.15057" lon="6.18921">
        <ele>541.6</ele>
        <time>2026-05-24T08:27:58Z</time>
      </trkpt>
      <trkpt lat="47.15057" lon="6.18921">
        <ele>541.4</ele>
        <time>2026-05-24T08:27:59Z</time>
      </trkpt>
      <trkpt lat="47.15061" lon="6.18926">
        <ele>541.2</ele>
        <time>2026-05-24T08:28:00Z</time>
      </trkpt>
      <trkpt lat="47.15062" lon="6.18929">
        <ele>541</ele>
        <time>2026-05-24T08:28:01Z</time>
      </trkpt>
      <trkpt lat="47.15062" lon="6.18929">
        <ele>541</ele>
        <time>2026-05-24T08:28:02Z</time>
      </trkpt>
      <trkpt lat="47.15063" lon="6.18933">
        <ele>541</ele>
        <time>2026-05-24T08:28:03Z</time>
      </trkpt>
      <trkpt lat="47.15063" lon="6.18936">
        <ele>541</ele>
        <time>2026-05-24T08:28:04Z</time>
      </trkpt>
      <trkpt lat="47.15065" lon="6.1894">
        <ele>541</ele>
        <time>2026-05-24T08:28:05Z</time>
      </trkpt>
      <trkpt lat="47.15067" lon="6.18946">
        <ele>541</ele>
        <time>2026-05-24T08:28:06Z</time>
      </trkpt>
      <trkpt lat="47.15069" lon="6.18949">
        <ele>540.8</ele>
        <time>2026-05-24T08:28:07Z</time>
      </trkpt>
      <trkpt lat="47.1507" lon="6.18953">
        <ele>540.8</ele>
        <time>2026-05-24T08:28:08Z</time>
      </trkpt>
      <trkpt lat="47.1507" lon="6.18953">
        <ele>540.8</ele>
        <time>2026-05-24T08:28:09Z</time>
      </trkpt>
      <trkpt lat="47.15072" lon="6.18956">
        <ele>541</ele>
        <time>2026-05-24T08:28:10Z</time>
      </trkpt>
      <trkpt lat="47.15077" lon="6.1896">
        <ele>541</ele>
        <time>2026-05-24T08:28:11Z</time>
      </trkpt>
      <trkpt lat="47.1508" lon="6.18962">
        <ele>540.8</ele>
        <time>2026-05-24T08:28:12Z</time>
      </trkpt>
      <trkpt lat="47.1508" lon="6.18962">
        <ele>541</ele>
        <time>2026-05-24T08:28:13Z</time>
      </trkpt>
      <trkpt lat="47.15087" lon="6.18962">
        <ele>541</ele>
        <time>2026-05-24T08:28:14Z</time>
      </trkpt>
      <trkpt lat="47.1509" lon="6.18962">
        <ele>541.2</ele>
        <time>2026-05-24T08:28:15Z</time>
      </trkpt>
      <trkpt lat="47.15093" lon="6.1896">
        <ele>541.4</ele>
        <time>2026-05-24T08:28:16Z</time>
      </trkpt>
      <trkpt lat="47.15095" lon="6.18958">
        <ele>541.4</ele>
        <time>2026-05-24T08:28:17Z</time>
      </trkpt>
      <trkpt lat="47.15097" lon="6.18956">
        <ele>541.4</ele>
        <time>2026-05-24T08:28:18Z</time>
      </trkpt>
      <trkpt lat="47.15099" lon="6.18953">
        <ele>541.6</ele>
        <time>2026-05-24T08:28:19Z</time>
      </trkpt>
      <trkpt lat="47.15099" lon="6.18953">
        <ele>541.4</ele>
        <time>2026-05-24T08:28:20Z</time>
      </trkpt>
      <trkpt lat="47.15105" lon="6.18948">
        <ele>541.6</ele>
        <time>2026-05-24T08:28:21Z</time>
      </trkpt>
      <trkpt lat="47.15108" lon="6.18946">
        <ele>541.4</ele>
        <time>2026-05-24T08:28:22Z</time>
      </trkpt>
      <trkpt lat="47.15112" lon="6.18944">
        <ele>541.6</ele>
        <time>2026-05-24T08:28:23Z</time>
      </trkpt>
      <trkpt lat="47.15115" lon="6.18942">
        <ele>541.6</ele>
        <time>2026-05-24T08:28:24Z</time>
      </trkpt>
      <trkpt lat="47.15115" lon="6.18942">
        <ele>541.6</ele>
        <time>2026-05-24T08:28:25Z</time>
      </trkpt>
      <trkpt lat="47.15118" lon="6.18942">
        <ele>541.4</ele>
        <time>2026-05-24T08:28:26Z</time>
      </trkpt>
      <trkpt lat="47.15125" lon="6.18942">
        <ele>541</ele>
        <time>2026-05-24T08:28:27Z</time>
      </trkpt>
      <trkpt lat="47.15129" lon="6.18942">
        <ele>540.8</ele>
        <time>2026-05-24T08:28:28Z</time>
      </trkpt>
      <trkpt lat="47.15132" lon="6.18942">
        <ele>540.4</ele>
        <time>2026-05-24T08:28:29Z</time>
      </trkpt>
      <trkpt lat="47.15134" lon="6.18943">
        <ele>540.4</ele>
        <time>2026-05-24T08:28:30Z</time>
      </trkpt>
      <trkpt lat="47.15134" lon="6.18943">
        <ele>540.4</ele>
        <time>2026-05-24T08:28:31Z</time>
      </trkpt>
      <trkpt lat="47.15139" lon="6.18946">
        <ele>540</ele>
        <time>2026-05-24T08:28:32Z</time>
      </trkpt>
      <trkpt lat="47.15141" lon="6.18948">
        <ele>540</ele>
        <time>2026-05-24T08:28:33Z</time>
      </trkpt>
      <trkpt lat="47.15143" lon="6.1895">
        <ele>539.8</ele>
        <time>2026-05-24T08:28:34Z</time>
      </trkpt>
      <trkpt lat="47.15145" lon="6.18951">
        <ele>539.6</ele>
        <time>2026-05-24T08:28:35Z</time>
      </trkpt>
      <trkpt lat="47.15147" lon="6.18952">
        <ele>539.6</ele>
        <time>2026-05-24T08:28:36Z</time>
      </trkpt>
      <trkpt lat="47.15149" lon="6.18953">
        <ele>539.8</ele>
        <time>2026-05-24T08:28:37Z</time>
      </trkpt>
      <trkpt lat="47.15151" lon="6.18953">
        <ele>539.6</ele>
        <time>2026-05-24T08:28:38Z</time>
      </trkpt>
      <trkpt lat="47.15153" lon="6.18952">
        <ele>539.6</ele>
        <time>2026-05-24T08:28:39Z</time>
      </trkpt>
      <trkpt lat="47.15155" lon="6.18952">
        <ele>539.4</ele>
        <time>2026-05-24T08:28:40Z</time>
      </trkpt>
      <trkpt lat="47.15157" lon="6.18952">
        <ele>539.4</ele>
        <time>2026-05-24T08:28:41Z</time>
      </trkpt>
      <trkpt lat="47.1516" lon="6.18953">
        <ele>539.4</ele>
        <time>2026-05-24T08:28:42Z</time>
      </trkpt>
      <trkpt lat="47.15162" lon="6.18954">
        <ele>539.4</ele>
        <time>2026-05-24T08:28:43Z</time>
      </trkpt>
      <trkpt lat="47.15162" lon="6.18954">
        <ele>539.4</ele>
        <time>2026-05-24T08:28:44Z</time>
      </trkpt>
      <trkpt lat="47.15167" lon="6.18958">
        <ele>539.4</ele>
        <time>2026-05-24T08:28:45Z</time>
      </trkpt>
      <trkpt lat="47.15169" lon="6.1896">
        <ele>539.6</ele>
        <time>2026-05-24T08:28:46Z</time>
      </trkpt>
      <trkpt lat="47.15171" lon="6.18962">
        <ele>539.4</ele>
        <time>2026-05-24T08:28:47Z</time>
      </trkpt>
      <trkpt lat="47.15171" lon="6.18962">
        <ele>539.6</ele>
        <time>2026-05-24T08:28:48Z</time>
      </trkpt>
      <trkpt lat="47.15175" lon="6.18968">
        <ele>539.4</ele>
        <time>2026-05-24T08:28:49Z</time>
      </trkpt>
      <trkpt lat="47.15178" lon="6.18971">
        <ele>539.4</ele>
        <time>2026-05-24T08:28:50Z</time>
      </trkpt>
      <trkpt lat="47.1518" lon="6.18974">
        <ele>539.4</ele>
        <time>2026-05-24T08:28:51Z</time>
      </trkpt>
      <trkpt lat="47.15182" lon="6.18977">
        <ele>539.4</ele>
        <time>2026-05-24T08:28:52Z</time>
      </trkpt>
      <trkpt lat="47.15183" lon="6.18979">
        <ele>539.4</ele>
        <time>2026-05-24T08:28:53Z</time>
      </trkpt>
      <trkpt lat="47.15183" lon="6.18979">
        <ele>539.4</ele>
        <time>2026-05-24T08:28:54Z</time>
      </trkpt>
      <trkpt lat="47.15186" lon="6.18984">
        <ele>539.4</ele>
        <time>2026-05-24T08:28:55Z</time>
      </trkpt>
      <trkpt lat="47.15187" lon="6.18987">
        <ele>539.4</ele>
        <time>2026-05-24T08:28:56Z</time>
      </trkpt>
      <trkpt lat="47.15187" lon="6.18987">
        <ele>539.4</ele>
        <time>2026-05-24T08:28:57Z</time>
      </trkpt>
      <trkpt lat="47.15188" lon="6.18989">
        <ele>539.6</ele>
        <time>2026-05-24T08:28:58Z</time>
      </trkpt>
      <trkpt lat="47.15189" lon="6.18991">
        <ele>539.6</ele>
        <time>2026-05-24T08:28:59Z</time>
      </trkpt>
      <trkpt lat="47.15191" lon="6.18995">
        <ele>539.6</ele>
        <time>2026-05-24T08:29:00Z</time>
      </trkpt>
      <trkpt lat="47.15192" lon="6.18997">
        <ele>539.6</ele>
        <time>2026-05-24T08:29:01Z</time>
      </trkpt>
      <trkpt lat="47.15192" lon="6.18997">
        <ele>539.8</ele>
        <time>2026-05-24T08:29:02Z</time>
      </trkpt>
      <trkpt lat="47.15194" lon="6.19001">
        <ele>539.8</ele>
        <time>2026-05-24T08:29:03Z</time>
      </trkpt>
      <trkpt lat="47.15196" lon="6.19004">
        <ele>539.8</ele>
        <time>2026-05-24T08:29:04Z</time>
      </trkpt>
      <trkpt lat="47.15197" lon="6.19007">
        <ele>539.8</ele>
        <time>2026-05-24T08:29:05Z</time>
      </trkpt>
      <trkpt lat="47.15199" lon="6.1901">
        <ele>539.8</ele>
        <time>2026-05-24T08:29:06Z</time>
      </trkpt>
      <trkpt lat="47.15199" lon="6.1901">
        <ele>539.8</ele>
        <time>2026-05-24T08:29:07Z</time>
      </trkpt>
      <trkpt lat="47.15201" lon="6.19012">
        <ele>540</ele>
        <time>2026-05-24T08:29:08Z</time>
      </trkpt>
      <trkpt lat="47.15207" lon="6.19017">
        <ele>540</ele>
        <time>2026-05-24T08:29:09Z</time>
      </trkpt>
      <trkpt lat="47.15209" lon="6.19019">
        <ele>540</ele>
        <time>2026-05-24T08:29:10Z</time>
      </trkpt>
      <trkpt lat="47.15211" lon="6.1902">
        <ele>540</ele>
        <time>2026-05-24T08:29:11Z</time>
      </trkpt>
      <trkpt lat="47.15212" lon="6.19022">
        <ele>540.2</ele>
        <time>2026-05-24T08:29:12Z</time>
      </trkpt>
      <trkpt lat="47.15212" lon="6.19022">
        <ele>540.2</ele>
        <time>2026-05-24T08:29:13Z</time>
      </trkpt>
      <trkpt lat="47.15216" lon="6.19026">
        <ele>540.4</ele>
        <time>2026-05-24T08:29:14Z</time>
      </trkpt>
      <trkpt lat="47.15217" lon="6.19028">
        <ele>540.4</ele>
        <time>2026-05-24T08:29:15Z</time>
      </trkpt>
      <trkpt lat="47.1522" lon="6.19031">
        <ele>540.6</ele>
        <time>2026-05-24T08:29:16Z</time>
      </trkpt>
      <trkpt lat="47.15222" lon="6.19033">
        <ele>540.6</ele>
        <time>2026-05-24T08:29:17Z</time>
      </trkpt>
      <trkpt lat="47.15224" lon="6.19036">
        <ele>540.8</ele>
        <time>2026-05-24T08:29:18Z</time>
      </trkpt>
      <trkpt lat="47.15224" lon="6.19036">
        <ele>541</ele>
        <time>2026-05-24T08:29:19Z</time>
      </trkpt>
      <trkpt lat="47.15227" lon="6.19039">
        <ele>541</ele>
        <time>2026-05-24T08:29:20Z</time>
      </trkpt>
      <trkpt lat="47.15229" lon="6.19041">
        <ele>541</ele>
        <time>2026-05-24T08:29:21Z</time>
      </trkpt>
      <trkpt lat="47.15233" lon="6.19046">
        <ele>541.2</ele>
        <time>2026-05-24T08:29:22Z</time>
      </trkpt>
      <trkpt lat="47.15234" lon="6.19048">
        <ele>541</ele>
        <time>2026-05-24T08:29:23Z</time>
      </trkpt>
      <trkpt lat="47.15236" lon="6.1905">
        <ele>541.4</ele>
        <time>2026-05-24T08:29:24Z</time>
      </trkpt>
      <trkpt lat="47.15237" lon="6.19052">
        <ele>541.4</ele>
        <time>2026-05-24T08:29:25Z</time>
      </trkpt>
      <trkpt lat="47.15238" lon="6.19054">
        <ele>541.4</ele>
        <time>2026-05-24T08:29:26Z</time>
      </trkpt>
      <trkpt lat="47.15239" lon="6.19057">
        <ele>541.6</ele>
        <time>2026-05-24T08:29:27Z</time>
      </trkpt>
      <trkpt lat="47.1524" lon="6.19059">
        <ele>541.6</ele>
        <time>2026-05-24T08:29:28Z</time>
      </trkpt>
      <trkpt lat="47.15242" lon="6.19062">
        <ele>541.8</ele>
        <time>2026-05-24T08:29:29Z</time>
      </trkpt>
      <trkpt lat="47.15242" lon="6.19062">
        <ele>541.6</ele>
        <time>2026-05-24T08:29:30Z</time>
      </trkpt>
      <trkpt lat="47.15244" lon="6.19067">
        <ele>541.8</ele>
        <time>2026-05-24T08:29:31Z</time>
      </trkpt>
      <trkpt lat="47.15246" lon="6.1907">
        <ele>542</ele>
        <time>2026-05-24T08:29:32Z</time>
      </trkpt>
      <trkpt lat="47.15246" lon="6.1907">
        <ele>542</ele>
        <time>2026-05-24T08:29:33Z</time>
      </trkpt>
      <trkpt lat="47.1525" lon="6.19074">
        <ele>542.2</ele>
        <time>2026-05-24T08:29:34Z</time>
      </trkpt>
      <trkpt lat="47.1525" lon="6.19074">
        <ele>542.4</ele>
        <time>2026-05-24T08:29:35Z</time>
      </trkpt>
      <trkpt lat="47.15253" lon="6.19076">
        <ele>542.4</ele>
        <time>2026-05-24T08:29:36Z</time>
      </trkpt>
      <trkpt lat="47.15255" lon="6.19077">
        <ele>542.4</ele>
        <time>2026-05-24T08:29:37Z</time>
      </trkpt>
      <trkpt lat="47.15258" lon="6.19078">
        <ele>542.6</ele>
        <time>2026-05-24T08:29:38Z</time>
      </trkpt>
      <trkpt lat="47.1526" lon="6.19079">
        <ele>542.6</ele>
        <time>2026-05-24T08:29:39Z</time>
      </trkpt>
      <trkpt lat="47.15262" lon="6.19081">
        <ele>542.6</ele>
        <time>2026-05-24T08:29:40Z</time>
      </trkpt>
      <trkpt lat="47.15262" lon="6.19081">
        <ele>542.8</ele>
        <time>2026-05-24T08:29:41Z</time>
      </trkpt>
      <trkpt lat="47.15266" lon="6.19084">
        <ele>542.8</ele>
        <time>2026-05-24T08:29:42Z</time>
      </trkpt>
      <trkpt lat="47.15267" lon="6.19087">
        <ele>543</ele>
        <time>2026-05-24T08:29:43Z</time>
      </trkpt>
      <trkpt lat="47.15269" lon="6.19089">
        <ele>543</ele>
        <time>2026-05-24T08:29:44Z</time>
      </trkpt>
      <trkpt lat="47.15271" lon="6.19091">
        <ele>543.2</ele>
        <time>2026-05-24T08:29:45Z</time>
      </trkpt>
      <trkpt lat="47.15273" lon="6.19093">
        <ele>543.2</ele>
        <time>2026-05-24T08:29:46Z</time>
      </trkpt>
      <trkpt lat="47.15275" lon="6.19095">
        <ele>543</ele>
        <time>2026-05-24T08:29:47Z</time>
      </trkpt>
      <trkpt lat="47.15276" lon="6.19098">
        <ele>543.2</ele>
        <time>2026-05-24T08:29:48Z</time>
      </trkpt>
      <trkpt lat="47.15278" lon="6.191">
        <ele>543.2</ele>
        <time>2026-05-24T08:29:49Z</time>
      </trkpt>
      <trkpt lat="47.15278" lon="6.191">
        <ele>543.2</ele>
        <time>2026-05-24T08:29:50Z</time>
      </trkpt>
      <trkpt lat="47.15281" lon="6.19104">
        <ele>543.4</ele>
        <time>2026-05-24T08:29:51Z</time>
      </trkpt>
      <trkpt lat="47.15281" lon="6.19104">
        <ele>543.4</ele>
        <time>2026-05-24T08:29:52Z</time>
      </trkpt>
      <trkpt lat="47.15282" lon="6.19107">
        <ele>543.4</ele>
        <time>2026-05-24T08:29:53Z</time>
      </trkpt>
      <trkpt lat="47.15284" lon="6.1911">
        <ele>543.6</ele>
        <time>2026-05-24T08:29:54Z</time>
      </trkpt>
      <trkpt lat="47.15285" lon="6.19113">
        <ele>543.6</ele>
        <time>2026-05-24T08:29:55Z</time>
      </trkpt>
      <trkpt lat="47.15287" lon="6.19116">
        <ele>543.6</ele>
        <time>2026-05-24T08:29:56Z</time>
      </trkpt>
      <trkpt lat="47.15289" lon="6.1912">
        <ele>543.8</ele>
        <time>2026-05-24T08:29:57Z</time>
      </trkpt>
      <trkpt lat="47.1529" lon="6.19122">
        <ele>543.8</ele>
        <time>2026-05-24T08:29:58Z</time>
      </trkpt>
      <trkpt lat="47.1529" lon="6.19122">
        <ele>543.8</ele>
        <time>2026-05-24T08:29:59Z</time>
      </trkpt>
      <trkpt lat="47.15292" lon="6.19127">
        <ele>544</ele>
        <time>2026-05-24T08:30:00Z</time>
      </trkpt>
      <trkpt lat="47.15293" lon="6.1913">
        <ele>544</ele>
        <time>2026-05-24T08:30:01Z</time>
      </trkpt>
      <trkpt lat="47.15293" lon="6.1913">
        <ele>544.2</ele>
        <time>2026-05-24T08:30:02Z</time>
      </trkpt>
      <trkpt lat="47.15296" lon="6.19135">
        <ele>544</ele>
        <time>2026-05-24T08:30:03Z</time>
      </trkpt>
      <trkpt lat="47.15297" lon="6.19137">
        <ele>544.4</ele>
        <time>2026-05-24T08:30:04Z</time>
      </trkpt>
      <trkpt lat="47.15297" lon="6.19137">
        <ele>544.4</ele>
        <time>2026-05-24T08:30:05Z</time>
      </trkpt>
      <trkpt lat="47.153" lon="6.19141">
        <ele>544.4</ele>
        <time>2026-05-24T08:30:06Z</time>
      </trkpt>
      <trkpt lat="47.15302" lon="6.19142">
        <ele>544.4</ele>
        <time>2026-05-24T08:30:07Z</time>
      </trkpt>
      <trkpt lat="47.15302" lon="6.19142">
        <ele>544.4</ele>
        <time>2026-05-24T08:30:08Z</time>
      </trkpt>
      <trkpt lat="47.15305" lon="6.19145">
        <ele>544.6</ele>
        <time>2026-05-24T08:30:09Z</time>
      </trkpt>
      <trkpt lat="47.15307" lon="6.19146">
        <ele>544.6</ele>
        <time>2026-05-24T08:30:10Z</time>
      </trkpt>
      <trkpt lat="47.15309" lon="6.19148">
        <ele>544.6</ele>
        <time>2026-05-24T08:30:11Z</time>
      </trkpt>
      <trkpt lat="47.15311" lon="6.19149">
        <ele>544.8</ele>
        <time>2026-05-24T08:30:12Z</time>
      </trkpt>
      <trkpt lat="47.15313" lon="6.1915">
        <ele>545</ele>
        <time>2026-05-24T08:30:13Z</time>
      </trkpt>
      <trkpt lat="47.15314" lon="6.19151">
        <ele>545</ele>
        <time>2026-05-24T08:30:14Z</time>
      </trkpt>
      <trkpt lat="47.15316" lon="6.19152">
        <ele>545</ele>
        <time>2026-05-24T08:30:15Z</time>
      </trkpt>
      <trkpt lat="47.15318" lon="6.19153">
        <ele>545.2</ele>
        <time>2026-05-24T08:30:16Z</time>
      </trkpt>
      <trkpt lat="47.1532" lon="6.19153">
        <ele>545.2</ele>
        <time>2026-05-24T08:30:17Z</time>
      </trkpt>
      <trkpt lat="47.15322" lon="6.19154">
        <ele>545.2</ele>
        <time>2026-05-24T08:30:18Z</time>
      </trkpt>
      <trkpt lat="47.15323" lon="6.19154">
        <ele>545.4</ele>
        <time>2026-05-24T08:30:19Z</time>
      </trkpt>
      <trkpt lat="47.15325" lon="6.19155">
        <ele>545.2</ele>
        <time>2026-05-24T08:30:20Z</time>
      </trkpt>
      <trkpt lat="47.15327" lon="6.19156">
        <ele>545.2</ele>
        <time>2026-05-24T08:30:21Z</time>
      </trkpt>
      <trkpt lat="47.15328" lon="6.19156">
        <ele>545.2</ele>
        <time>2026-05-24T08:30:22Z</time>
      </trkpt>
      <trkpt lat="47.1533" lon="6.19157">
        <ele>545.2</ele>
        <time>2026-05-24T08:30:23Z</time>
      </trkpt>
      <trkpt lat="47.15331" lon="6.19158">
        <ele>545.4</ele>
        <time>2026-05-24T08:30:24Z</time>
      </trkpt>
      <trkpt lat="47.15332" lon="6.19158">
        <ele>545.4</ele>
        <time>2026-05-24T08:30:25Z</time>
      </trkpt>
      <trkpt lat="47.15333" lon="6.19157">
        <ele>545.4</ele>
        <time>2026-05-24T08:30:26Z</time>
      </trkpt>
      <trkpt lat="47.15334" lon="6.19156">
        <ele>545.4</ele>
        <time>2026-05-24T08:30:27Z</time>
      </trkpt>
      <trkpt lat="47.15335" lon="6.19154">
        <ele>545.4</ele>
        <time>2026-05-24T08:30:28Z</time>
      </trkpt>
      <trkpt lat="47.15336" lon="6.19152">
        <ele>545.6</ele>
        <time>2026-05-24T08:30:29Z</time>
      </trkpt>
      <trkpt lat="47.15337" lon="6.1915">
        <ele>545.4</ele>
        <time>2026-05-24T08:30:30Z</time>
      </trkpt>
      <trkpt lat="47.15337" lon="6.19148">
        <ele>545.4</ele>
        <time>2026-05-24T08:30:31Z</time>
      </trkpt>
      <trkpt lat="47.15337" lon="6.19146">
        <ele>545.6</ele>
        <time>2026-05-24T08:30:32Z</time>
      </trkpt>
      <trkpt lat="47.15337" lon="6.19144">
        <ele>545.6</ele>
        <time>2026-05-24T08:30:33Z</time>
      </trkpt>
      <trkpt lat="47.15337" lon="6.19144">
        <ele>545.4</ele>
        <time>2026-05-24T08:30:34Z</time>
      </trkpt>
      <trkpt lat="47.15337" lon="6.1913">
        <ele>545</ele>
        <time>2026-05-24T08:31:17Z</time>
      </trkpt>
      <trkpt lat="47.15338" lon="6.19126">
        <ele>544.8</ele>
        <time>2026-05-24T08:31:18Z</time>
      </trkpt>
      <trkpt lat="47.15338" lon="6.19121">
        <ele>545</ele>
        <time>2026-05-24T08:31:19Z</time>
      </trkpt>
      <trkpt lat="47.15339" lon="6.19116">
        <ele>545</ele>
        <time>2026-05-24T08:31:20Z</time>
      </trkpt>
      <trkpt lat="47.15339" lon="6.19116">
        <ele>544.8</ele>
        <time>2026-05-24T08:31:21Z</time>
      </trkpt>
      <trkpt lat="47.1534" lon="6.19107">
        <ele>544.8</ele>
        <time>2026-05-24T08:31:22Z</time>
      </trkpt>
      <trkpt lat="47.15341" lon="6.19101">
        <ele>545</ele>
        <time>2026-05-24T08:31:23Z</time>
      </trkpt>
      <trkpt lat="47.15341" lon="6.19096">
        <ele>545</ele>
        <time>2026-05-24T08:31:24Z</time>
      </trkpt>
      <trkpt lat="47.15341" lon="6.1909">
        <ele>544.8</ele>
        <time>2026-05-24T08:31:25Z</time>
      </trkpt>
      <trkpt lat="47.15342" lon="6.19084">
        <ele>545</ele>
        <time>2026-05-24T08:31:26Z</time>
      </trkpt>
      <trkpt lat="47.15342" lon="6.19084">
        <ele>544.8</ele>
        <time>2026-05-24T08:31:27Z</time>
      </trkpt>
      <trkpt lat="47.15343" lon="6.19071">
        <ele>544.6</ele>
        <time>2026-05-24T08:31:28Z</time>
      </trkpt>
      <trkpt lat="47.15343" lon="6.19071">
        <ele>544.4</ele>
        <time>2026-05-24T08:31:29Z</time>
      </trkpt>
      <trkpt lat="47.15343" lon="6.19064">
        <ele>544.2</ele>
        <time>2026-05-24T08:31:30Z</time>
      </trkpt>
      <trkpt lat="47.15343" lon="6.19048">
        <ele>544.2</ele>
        <time>2026-05-24T08:31:31Z</time>
      </trkpt>
      <trkpt lat="47.15343" lon="6.1904">
        <ele>544.2</ele>
        <time>2026-05-24T08:31:32Z</time>
      </trkpt>
      <trkpt lat="47.15342" lon="6.19031">
        <ele>544</ele>
        <time>2026-05-24T08:31:33Z</time>
      </trkpt>
      <trkpt lat="47.15342" lon="6.19022">
        <ele>543.8</ele>
        <time>2026-05-24T08:31:34Z</time>
      </trkpt>
      <trkpt lat="47.15342" lon="6.19013">
        <ele>543.8</ele>
        <time>2026-05-24T08:31:35Z</time>
      </trkpt>
      <trkpt lat="47.15341" lon="6.19004">
        <ele>543.4</ele>
        <time>2026-05-24T08:31:36Z</time>
      </trkpt>
      <trkpt lat="47.15341" lon="6.18996">
        <ele>543.2</ele>
        <time>2026-05-24T08:31:37Z</time>
      </trkpt>
      <trkpt lat="47.1534" lon="6.18987">
        <ele>543.2</ele>
        <time>2026-05-24T08:31:38Z</time>
      </trkpt>
      <trkpt lat="47.1534" lon="6.18979">
        <ele>543</ele>
        <time>2026-05-24T08:31:39Z</time>
      </trkpt>
      <trkpt lat="47.15339" lon="6.1897">
        <ele>542.8</ele>
        <time>2026-05-24T08:31:40Z</time>
      </trkpt>
      <trkpt lat="47.15338" lon="6.18962">
        <ele>542.4</ele>
        <time>2026-05-24T08:31:41Z</time>
      </trkpt>
      <trkpt lat="47.15338" lon="6.18953">
        <ele>542.4</ele>
        <time>2026-05-24T08:31:42Z</time>
      </trkpt>
      <trkpt lat="47.15337" lon="6.18945">
        <ele>542</ele>
        <time>2026-05-24T08:31:43Z</time>
      </trkpt>
      <trkpt lat="47.15337" lon="6.18937">
        <ele>541.2</ele>
        <time>2026-05-24T08:31:44Z</time>
      </trkpt>
      <trkpt lat="47.15336" lon="6.18929">
        <ele>540.8</ele>
        <time>2026-05-24T08:31:45Z</time>
      </trkpt>
      <trkpt lat="47.15336" lon="6.18929">
        <ele>540.4</ele>
        <time>2026-05-24T08:31:46Z</time>
      </trkpt>
      <trkpt lat="47.15335" lon="6.18912">
        <ele>539.6</ele>
        <time>2026-05-24T08:31:47Z</time>
      </trkpt>
      <trkpt lat="47.15335" lon="6.18903">
        <ele>539.4</ele>
        <time>2026-05-24T08:31:48Z</time>
      </trkpt>
      <trkpt lat="47.15334" lon="6.18895">
        <ele>539</ele>
        <time>2026-05-24T08:31:49Z</time>
      </trkpt>
      <trkpt lat="47.15334" lon="6.18895">
        <ele>538.8</ele>
        <time>2026-05-24T08:31:50Z</time>
      </trkpt>
      <trkpt lat="47.15334" lon="6.18886">
        <ele>538.4</ele>
        <time>2026-05-24T08:31:51Z</time>
      </trkpt>
      <trkpt lat="47.15334" lon="6.18877">
        <ele>538.2</ele>
        <time>2026-05-24T08:31:52Z</time>
      </trkpt>
      <trkpt lat="47.15333" lon="6.1886">
        <ele>537.8</ele>
        <time>2026-05-24T08:31:53Z</time>
      </trkpt>
      <trkpt lat="47.15332" lon="6.18852">
        <ele>537.4</ele>
        <time>2026-05-24T08:31:54Z</time>
      </trkpt>
      <trkpt lat="47.1533" lon="6.18843">
        <ele>537</ele>
        <time>2026-05-24T08:31:55Z</time>
      </trkpt>
      <trkpt lat="47.1533" lon="6.18843">
        <ele>536.8</ele>
        <time>2026-05-24T08:31:56Z</time>
      </trkpt>
      <trkpt lat="47.15329" lon="6.18835">
        <ele>536.6</ele>
        <time>2026-05-24T08:31:57Z</time>
      </trkpt>
      <trkpt lat="47.15328" lon="6.18828">
        <ele>536.6</ele>
        <time>2026-05-24T08:31:58Z</time>
      </trkpt>
      <trkpt lat="47.15325" lon="6.18815">
        <ele>536.2</ele>
        <time>2026-05-24T08:31:59Z</time>
      </trkpt>
      <trkpt lat="47.15324" lon="6.18809">
        <ele>536</ele>
        <time>2026-05-24T08:32:00Z</time>
      </trkpt>
      <trkpt lat="47.15324" lon="6.18804">
        <ele>535.6</ele>
        <time>2026-05-24T08:32:01Z</time>
      </trkpt>
      <trkpt lat="47.15323" lon="6.18799">
        <ele>535</ele>
        <time>2026-05-24T08:32:02Z</time>
      </trkpt>
      <trkpt lat="47.15322" lon="6.18794">
        <ele>534.6</ele>
        <time>2026-05-24T08:32:03Z</time>
      </trkpt>
      <trkpt lat="47.15322" lon="6.18789">
        <ele>534.4</ele>
        <time>2026-05-24T08:32:04Z</time>
      </trkpt>
      <trkpt lat="47.15322" lon="6.18783">
        <ele>534.4</ele>
        <time>2026-05-24T08:32:05Z</time>
      </trkpt>
      <trkpt lat="47.15323" lon="6.18777">
        <ele>534</ele>
        <time>2026-05-24T08:32:06Z</time>
      </trkpt>
      <trkpt lat="47.15324" lon="6.1877">
        <ele>533.8</ele>
        <time>2026-05-24T08:32:07Z</time>
      </trkpt>
      <trkpt lat="47.15325" lon="6.18764">
        <ele>533.6</ele>
        <time>2026-05-24T08:32:08Z</time>
      </trkpt>
      <trkpt lat="47.15325" lon="6.18757">
        <ele>533.6</ele>
        <time>2026-05-24T08:32:09Z</time>
      </trkpt>
      <trkpt lat="47.15325" lon="6.1875">
        <ele>533.8</ele>
        <time>2026-05-24T08:32:10Z</time>
      </trkpt>
      <trkpt lat="47.15325" lon="6.18743">
        <ele>533.6</ele>
        <time>2026-05-24T08:32:11Z</time>
      </trkpt>
      <trkpt lat="47.15325" lon="6.18736">
        <ele>533.6</ele>
        <time>2026-05-24T08:32:12Z</time>
      </trkpt>
      <trkpt lat="47.15326" lon="6.18729">
        <ele>533.4</ele>
        <time>2026-05-24T08:32:13Z</time>
      </trkpt>
      <trkpt lat="47.15327" lon="6.18722">
        <ele>533.6</ele>
        <time>2026-05-24T08:32:14Z</time>
      </trkpt>
      <trkpt lat="47.15329" lon="6.18716">
        <ele>533.6</ele>
        <time>2026-05-24T08:32:15Z</time>
      </trkpt>
      <trkpt lat="47.15329" lon="6.18716">
        <ele>533.6</ele>
        <time>2026-05-24T08:32:16Z</time>
      </trkpt>
      <trkpt lat="47.15332" lon="6.18705">
        <ele>533.4</ele>
        <time>2026-05-24T08:32:17Z</time>
      </trkpt>
      <trkpt lat="47.15332" lon="6.18705">
        <ele>533.6</ele>
        <time>2026-05-24T08:32:18Z</time>
      </trkpt>
      <trkpt lat="47.15334" lon="6.18693">
        <ele>533.8</ele>
        <time>2026-05-24T08:32:19Z</time>
      </trkpt>
      <trkpt lat="47.15334" lon="6.18693">
        <ele>533.6</ele>
        <time>2026-05-24T08:32:20Z</time>
      </trkpt>
      <trkpt lat="47.15336" lon="6.18681">
        <ele>533.8</ele>
        <time>2026-05-24T08:32:21Z</time>
      </trkpt>
      <trkpt lat="47.15336" lon="6.18681">
        <ele>533.8</ele>
        <time>2026-05-24T08:32:22Z</time>
      </trkpt>
      <trkpt lat="47.15337" lon="6.1867">
        <ele>534</ele>
        <time>2026-05-24T08:32:23Z</time>
      </trkpt>
      <trkpt lat="47.15337" lon="6.1867">
        <ele>534.2</ele>
        <time>2026-05-24T08:32:24Z</time>
      </trkpt>
      <trkpt lat="47.15337" lon="6.18664">
        <ele>534.4</ele>
        <time>2026-05-24T08:32:25Z</time>
      </trkpt>
      <trkpt lat="47.15337" lon="6.18654">
        <ele>534.4</ele>
        <time>2026-05-24T08:32:26Z</time>
      </trkpt>
      <trkpt lat="47.15337" lon="6.18654">
        <ele>534.4</ele>
        <time>2026-05-24T08:32:27Z</time>
      </trkpt>
      <trkpt lat="47.15339" lon="6.18645">
        <ele>534.8</ele>
        <time>2026-05-24T08:32:28Z</time>
      </trkpt>
      <trkpt lat="47.15341" lon="6.18641">
        <ele>535</ele>
        <time>2026-05-24T08:32:29Z</time>
      </trkpt>
      <trkpt lat="47.15342" lon="6.18637">
        <ele>535.2</ele>
        <time>2026-05-24T08:32:30Z</time>
      </trkpt>
      <trkpt lat="47.15343" lon="6.18633">
        <ele>535.4</ele>
        <time>2026-05-24T08:32:31Z</time>
      </trkpt>
      <trkpt lat="47.15343" lon="6.18633">
        <ele>535.6</ele>
        <time>2026-05-24T08:32:32Z</time>
      </trkpt>
      <trkpt lat="47.15346" lon="6.18624">
        <ele>536</ele>
        <time>2026-05-24T08:32:33Z</time>
      </trkpt>
      <trkpt lat="47.15347" lon="6.1862">
        <ele>536</ele>
        <time>2026-05-24T08:32:34Z</time>
      </trkpt>
      <trkpt lat="47.15348" lon="6.18616">
        <ele>536.4</ele>
        <time>2026-05-24T08:32:35Z</time>
      </trkpt>
      <trkpt lat="47.15349" lon="6.18611">
        <ele>536.6</ele>
        <time>2026-05-24T08:32:36Z</time>
      </trkpt>
      <trkpt lat="47.1535" lon="6.18607">
        <ele>536.8</ele>
        <time>2026-05-24T08:32:37Z</time>
      </trkpt>
      <trkpt lat="47.1535" lon="6.18607">
        <ele>537</ele>
        <time>2026-05-24T08:32:38Z</time>
      </trkpt>
      <trkpt lat="47.15351" lon="6.18597">
        <ele>537.4</ele>
        <time>2026-05-24T08:32:39Z</time>
      </trkpt>
      <trkpt lat="47.15353" lon="6.18594">
        <ele>537.6</ele>
        <time>2026-05-24T08:32:40Z</time>
      </trkpt>
      <trkpt lat="47.15353" lon="6.18591">
        <ele>538.2</ele>
        <time>2026-05-24T08:32:41Z</time>
      </trkpt>
      <trkpt lat="47.15354" lon="6.18588">
        <ele>538.4</ele>
        <time>2026-05-24T08:32:42Z</time>
      </trkpt>
      <trkpt lat="47.15355" lon="6.18585">
        <ele>538.6</ele>
        <time>2026-05-24T08:32:43Z</time>
      </trkpt>
      <trkpt lat="47.15355" lon="6.18581">
        <ele>538.8</ele>
        <time>2026-05-24T08:32:44Z</time>
      </trkpt>
      <trkpt lat="47.15356" lon="6.18578">
        <ele>539</ele>
        <time>2026-05-24T08:32:45Z</time>
      </trkpt>
      <trkpt lat="47.15357" lon="6.18575">
        <ele>539.6</ele>
        <time>2026-05-24T08:32:46Z</time>
      </trkpt>
      <trkpt lat="47.15358" lon="6.18572">
        <ele>539.8</ele>
        <time>2026-05-24T08:32:47Z</time>
      </trkpt>
      <trkpt lat="47.15359" lon="6.18568">
        <ele>539.8</ele>
        <time>2026-05-24T08:32:48Z</time>
      </trkpt>
      <trkpt lat="47.1536" lon="6.18565">
        <ele>540.2</ele>
        <time>2026-05-24T08:32:49Z</time>
      </trkpt>
      <trkpt lat="47.15361" lon="6.18562">
        <ele>540.4</ele>
        <time>2026-05-24T08:32:50Z</time>
      </trkpt>
      <trkpt lat="47.15362" lon="6.18559">
        <ele>540.6</ele>
        <time>2026-05-24T08:32:51Z</time>
      </trkpt>
      <trkpt lat="47.15363" lon="6.18556">
        <ele>541.2</ele>
        <time>2026-05-24T08:32:52Z</time>
      </trkpt>
      <trkpt lat="47.15364" lon="6.18552">
        <ele>541.6</ele>
        <time>2026-05-24T08:32:53Z</time>
      </trkpt>
      <trkpt lat="47.15364" lon="6.18546">
        <ele>541.8</ele>
        <time>2026-05-24T08:32:54Z</time>
      </trkpt>
      <trkpt lat="47.15364" lon="6.1854">
        <ele>541.8</ele>
        <time>2026-05-24T08:32:55Z</time>
      </trkpt>
      <trkpt lat="47.15363" lon="6.18534">
        <ele>542</ele>
        <time>2026-05-24T08:32:56Z</time>
      </trkpt>
      <trkpt lat="47.15363" lon="6.18529">
        <ele>542.4</ele>
        <time>2026-05-24T08:32:57Z</time>
      </trkpt>
      <trkpt lat="47.15364" lon="6.18525">
        <ele>542.6</ele>
        <time>2026-05-24T08:32:58Z</time>
      </trkpt>
      <trkpt lat="47.15364" lon="6.18521">
        <ele>542.8</ele>
        <time>2026-05-24T08:32:59Z</time>
      </trkpt>
      <trkpt lat="47.15365" lon="6.18516">
        <ele>542.8</ele>
        <time>2026-05-24T08:33:00Z</time>
      </trkpt>
      <trkpt lat="47.15365" lon="6.1851">
        <ele>543</ele>
        <time>2026-05-24T08:33:01Z</time>
      </trkpt>
      <trkpt lat="47.15366" lon="6.18506">
        <ele>543.2</ele>
        <time>2026-05-24T08:33:02Z</time>
      </trkpt>
      <trkpt lat="47.15366" lon="6.18502">
        <ele>543.4</ele>
        <time>2026-05-24T08:33:03Z</time>
      </trkpt>
      <trkpt lat="47.15368" lon="6.18498">
        <ele>543.4</ele>
        <time>2026-05-24T08:33:04Z</time>
      </trkpt>
      <trkpt lat="47.15369" lon="6.18494">
        <ele>543.6</ele>
        <time>2026-05-24T08:33:05Z</time>
      </trkpt>
      <trkpt lat="47.15371" lon="6.18491">
        <ele>543.8</ele>
        <time>2026-05-24T08:33:06Z</time>
      </trkpt>
      <trkpt lat="47.15372" lon="6.18488">
        <ele>543.8</ele>
        <time>2026-05-24T08:33:07Z</time>
      </trkpt>
      <trkpt lat="47.15374" lon="6.18486">
        <ele>543.8</ele>
        <time>2026-05-24T08:33:08Z</time>
      </trkpt>
      <trkpt lat="47.15376" lon="6.18484">
        <ele>543.8</ele>
        <time>2026-05-24T08:33:09Z</time>
      </trkpt>
      <trkpt lat="47.15378" lon="6.18482">
        <ele>543.8</ele>
        <time>2026-05-24T08:33:10Z</time>
      </trkpt>
      <trkpt lat="47.15379" lon="6.18479">
        <ele>543.8</ele>
        <time>2026-05-24T08:33:11Z</time>
      </trkpt>
      <trkpt lat="47.15381" lon="6.18477">
        <ele>544</ele>
        <time>2026-05-24T08:33:12Z</time>
      </trkpt>
      <trkpt lat="47.15383" lon="6.18474">
        <ele>544</ele>
        <time>2026-05-24T08:33:13Z</time>
      </trkpt>
      <trkpt lat="47.15386" lon="6.18471">
        <ele>544</ele>
        <time>2026-05-24T08:33:14Z</time>
      </trkpt>
      <trkpt lat="47.15388" lon="6.18469">
        <ele>544</ele>
        <time>2026-05-24T08:33:15Z</time>
      </trkpt>
      <trkpt lat="47.1539" lon="6.18466">
        <ele>544</ele>
        <time>2026-05-24T08:33:16Z</time>
      </trkpt>
      <trkpt lat="47.15392" lon="6.18462">
        <ele>544</ele>
        <time>2026-05-24T08:33:17Z</time>
      </trkpt>
      <trkpt lat="47.15394" lon="6.18458">
        <ele>544</ele>
        <time>2026-05-24T08:33:18Z</time>
      </trkpt>
      <trkpt lat="47.15396" lon="6.18454">
        <ele>544</ele>
        <time>2026-05-24T08:33:19Z</time>
      </trkpt>
      <trkpt lat="47.15397" lon="6.1845">
        <ele>544</ele>
        <time>2026-05-24T08:33:20Z</time>
      </trkpt>
      <trkpt lat="47.15397" lon="6.1845">
        <ele>544</ele>
        <time>2026-05-24T08:33:21Z</time>
      </trkpt>
      <trkpt lat="47.154" lon="6.1844">
        <ele>543.8</ele>
        <time>2026-05-24T08:33:22Z</time>
      </trkpt>
      <trkpt lat="47.15402" lon="6.18434">
        <ele>543.8</ele>
        <time>2026-05-24T08:33:23Z</time>
      </trkpt>
      <trkpt lat="47.15404" lon="6.18426">
        <ele>544</ele>
        <time>2026-05-24T08:33:24Z</time>
      </trkpt>
      <trkpt lat="47.15406" lon="6.18418">
        <ele>543.8</ele>
        <time>2026-05-24T08:33:25Z</time>
      </trkpt>
      <trkpt lat="47.15409" lon="6.18409">
        <ele>543.6</ele>
        <time>2026-05-24T08:33:26Z</time>
      </trkpt>
      <trkpt lat="47.15411" lon="6.18401">
        <ele>543.6</ele>
        <time>2026-05-24T08:33:27Z</time>
      </trkpt>
      <trkpt lat="47.15415" lon="6.18391">
        <ele>543.6</ele>
        <time>2026-05-24T08:33:28Z</time>
      </trkpt>
      <trkpt lat="47.15418" lon="6.18381">
        <ele>543.4</ele>
        <time>2026-05-24T08:33:29Z</time>
      </trkpt>
      <trkpt lat="47.1542" lon="6.18371">
        <ele>543</ele>
        <time>2026-05-24T08:33:30Z</time>
      </trkpt>
      <trkpt lat="47.15423" lon="6.18361">
        <ele>542.6</ele>
        <time>2026-05-24T08:33:31Z</time>
      </trkpt>
      <trkpt lat="47.15426" lon="6.18352">
        <ele>542.6</ele>
        <time>2026-05-24T08:33:32Z</time>
      </trkpt>
      <trkpt lat="47.15429" lon="6.18343">
        <ele>542</ele>
        <time>2026-05-24T08:33:33Z</time>
      </trkpt>
      <trkpt lat="47.15431" lon="6.18334">
        <ele>541.2</ele>
        <time>2026-05-24T08:33:34Z</time>
      </trkpt>
      <trkpt lat="47.15434" lon="6.18325">
        <ele>540.8</ele>
        <time>2026-05-24T08:33:35Z</time>
      </trkpt>
      <trkpt lat="47.15436" lon="6.18316">
        <ele>540.4</ele>
        <time>2026-05-24T08:33:36Z</time>
      </trkpt>
      <trkpt lat="47.15439" lon="6.18307">
        <ele>540.2</ele>
        <time>2026-05-24T08:33:37Z</time>
      </trkpt>
      <trkpt lat="47.15442" lon="6.18299">
        <ele>540</ele>
        <time>2026-05-24T08:33:38Z</time>
      </trkpt>
      <trkpt lat="47.15445" lon="6.18289">
        <ele>539</ele>
        <time>2026-05-24T08:33:39Z</time>
      </trkpt>
      <trkpt lat="47.15447" lon="6.1828">
        <ele>538.4</ele>
        <time>2026-05-24T08:33:40Z</time>
      </trkpt>
      <trkpt lat="47.1545" lon="6.18271">
        <ele>537.4</ele>
        <time>2026-05-24T08:33:41Z</time>
      </trkpt>
      <trkpt lat="47.15452" lon="6.18262">
        <ele>536.6</ele>
        <time>2026-05-24T08:33:42Z</time>
      </trkpt>
      <trkpt lat="47.15455" lon="6.18253">
        <ele>536</ele>
        <time>2026-05-24T08:33:43Z</time>
      </trkpt>
      <trkpt lat="47.15456" lon="6.18243">
        <ele>535.6</ele>
        <time>2026-05-24T08:33:44Z</time>
      </trkpt>
      <trkpt lat="47.15458" lon="6.18233">
        <ele>535.4</ele>
        <time>2026-05-24T08:33:45Z</time>
      </trkpt>
      <trkpt lat="47.1546" lon="6.18224">
        <ele>534.2</ele>
        <time>2026-05-24T08:33:46Z</time>
      </trkpt>
      <trkpt lat="47.15462" lon="6.18216">
        <ele>533.2</ele>
        <time>2026-05-24T08:33:47Z</time>
      </trkpt>
      <trkpt lat="47.15465" lon="6.18207">
        <ele>532.6</ele>
        <time>2026-05-24T08:33:48Z</time>
      </trkpt>
      <trkpt lat="47.15467" lon="6.182">
        <ele>532.2</ele>
        <time>2026-05-24T08:33:49Z</time>
      </trkpt>
      <trkpt lat="47.1547" lon="6.18192">
        <ele>531</ele>
        <time>2026-05-24T08:33:50Z</time>
      </trkpt>
      <trkpt lat="47.15472" lon="6.18185">
        <ele>530.4</ele>
        <time>2026-05-24T08:33:51Z</time>
      </trkpt>
      <trkpt lat="47.15475" lon="6.18178">
        <ele>529.4</ele>
        <time>2026-05-24T08:33:52Z</time>
      </trkpt>
      <trkpt lat="47.15477" lon="6.18172">
        <ele>528.4</ele>
        <time>2026-05-24T08:33:53Z</time>
      </trkpt>
      <trkpt lat="47.15479" lon="6.18165">
        <ele>528.4</ele>
        <time>2026-05-24T08:33:54Z</time>
      </trkpt>
      <trkpt lat="47.1548" lon="6.18157">
        <ele>527.4</ele>
        <time>2026-05-24T08:33:55Z</time>
      </trkpt>
      <trkpt lat="47.15481" lon="6.18149">
        <ele>527</ele>
        <time>2026-05-24T08:33:56Z</time>
      </trkpt>
      <trkpt lat="47.15481" lon="6.18139">
        <ele>526.4</ele>
        <time>2026-05-24T08:33:57Z</time>
      </trkpt>
      <trkpt lat="47.15481" lon="6.18128">
        <ele>525.4</ele>
        <time>2026-05-24T08:33:58Z</time>
      </trkpt>
      <trkpt lat="47.15481" lon="6.18117">
        <ele>524.6</ele>
        <time>2026-05-24T08:33:59Z</time>
      </trkpt>
      <trkpt lat="47.15483" lon="6.18107">
        <ele>523.6</ele>
        <time>2026-05-24T08:34:00Z</time>
      </trkpt>
      <trkpt lat="47.15484" lon="6.18096">
        <ele>522.8</ele>
        <time>2026-05-24T08:34:01Z</time>
      </trkpt>
      <trkpt lat="47.15485" lon="6.18086">
        <ele>522</ele>
        <time>2026-05-24T08:34:02Z</time>
      </trkpt>
      <trkpt lat="47.15485" lon="6.18074">
        <ele>521.4</ele>
        <time>2026-05-24T08:34:03Z</time>
      </trkpt>
      <trkpt lat="47.15486" lon="6.18064">
        <ele>520.8</ele>
        <time>2026-05-24T08:34:04Z</time>
      </trkpt>
      <trkpt lat="47.15487" lon="6.18053">
        <ele>520.2</ele>
        <time>2026-05-24T08:34:05Z</time>
      </trkpt>
      <trkpt lat="47.15488" lon="6.18041">
        <ele>519.2</ele>
        <time>2026-05-24T08:34:06Z</time>
      </trkpt>
      <trkpt lat="47.15489" lon="6.1803">
        <ele>518.4</ele>
        <time>2026-05-24T08:34:07Z</time>
      </trkpt>
      <trkpt lat="47.15489" lon="6.1802">
        <ele>518</ele>
        <time>2026-05-24T08:34:08Z</time>
      </trkpt>
      <trkpt lat="47.15489" lon="6.18009">
        <ele>517.8</ele>
        <time>2026-05-24T08:34:09Z</time>
      </trkpt>
      <trkpt lat="47.1549" lon="6.18">
        <ele>517.6</ele>
        <time>2026-05-24T08:34:10Z</time>
      </trkpt>
      <trkpt lat="47.15491" lon="6.17991">
        <ele>517.6</ele>
        <time>2026-05-24T08:34:11Z</time>
      </trkpt>
      <trkpt lat="47.15491" lon="6.17983">
        <ele>517.6</ele>
        <time>2026-05-24T08:34:12Z</time>
      </trkpt>
      <trkpt lat="47.15491" lon="6.17973">
        <ele>517.6</ele>
        <time>2026-05-24T08:34:13Z</time>
      </trkpt>
      <trkpt lat="47.15491" lon="6.17965">
        <ele>517.6</ele>
        <time>2026-05-24T08:34:14Z</time>
      </trkpt>
      <trkpt lat="47.15491" lon="6.17956">
        <ele>517.8</ele>
        <time>2026-05-24T08:34:15Z</time>
      </trkpt>
      <trkpt lat="47.15492" lon="6.17947">
        <ele>517.8</ele>
        <time>2026-05-24T08:34:16Z</time>
      </trkpt>
      <trkpt lat="47.15494" lon="6.17939">
        <ele>517.6</ele>
        <time>2026-05-24T08:34:17Z</time>
      </trkpt>
      <trkpt lat="47.15496" lon="6.17931">
        <ele>517.8</ele>
        <time>2026-05-24T08:34:18Z</time>
      </trkpt>
      <trkpt lat="47.15498" lon="6.17923">
        <ele>517.8</ele>
        <time>2026-05-24T08:34:19Z</time>
      </trkpt>
      <trkpt lat="47.15501" lon="6.17916">
        <ele>518.2</ele>
        <time>2026-05-24T08:34:20Z</time>
      </trkpt>
      <trkpt lat="47.15504" lon="6.1791">
        <ele>518.4</ele>
        <time>2026-05-24T08:34:21Z</time>
      </trkpt>
      <trkpt lat="47.15507" lon="6.17903">
        <ele>518.6</ele>
        <time>2026-05-24T08:34:22Z</time>
      </trkpt>
      <trkpt lat="47.1551" lon="6.17896">
        <ele>518.8</ele>
        <time>2026-05-24T08:34:23Z</time>
      </trkpt>
      <trkpt lat="47.15512" lon="6.17889">
        <ele>519</ele>
        <time>2026-05-24T08:34:24Z</time>
      </trkpt>
      <trkpt lat="47.15514" lon="6.17882">
        <ele>519.2</ele>
        <time>2026-05-24T08:34:25Z</time>
      </trkpt>
      <trkpt lat="47.15516" lon="6.17877">
        <ele>519.4</ele>
        <time>2026-05-24T08:34:26Z</time>
      </trkpt>
      <trkpt lat="47.15517" lon="6.17871">
        <ele>519.6</ele>
        <time>2026-05-24T08:34:27Z</time>
      </trkpt>
      <trkpt lat="47.15519" lon="6.17866">
        <ele>520.2</ele>
        <time>2026-05-24T08:34:28Z</time>
      </trkpt>
      <trkpt lat="47.15521" lon="6.1786">
        <ele>520.6</ele>
        <time>2026-05-24T08:34:29Z</time>
      </trkpt>
      <trkpt lat="47.15523" lon="6.17854">
        <ele>521</ele>
        <time>2026-05-24T08:34:30Z</time>
      </trkpt>
      <trkpt lat="47.15525" lon="6.17848">
        <ele>521.4</ele>
        <time>2026-05-24T08:34:31Z</time>
      </trkpt>
      <trkpt lat="47.15527" lon="6.17843">
        <ele>521.6</ele>
        <time>2026-05-24T08:34:32Z</time>
      </trkpt>
      <trkpt lat="47.15529" lon="6.17837">
        <ele>522</ele>
        <time>2026-05-24T08:34:33Z</time>
      </trkpt>
      <trkpt lat="47.15532" lon="6.17831">
        <ele>522</ele>
        <time>2026-05-24T08:34:34Z</time>
      </trkpt>
      <trkpt lat="47.15536" lon="6.17824">
        <ele>522</ele>
        <time>2026-05-24T08:34:35Z</time>
      </trkpt>
      <trkpt lat="47.15539" lon="6.17817">
        <ele>522.2</ele>
        <time>2026-05-24T08:34:36Z</time>
      </trkpt>
      <trkpt lat="47.15542" lon="6.17809">
        <ele>522</ele>
        <time>2026-05-24T08:34:37Z</time>
      </trkpt>
      <trkpt lat="47.15545" lon="6.178">
        <ele>522</ele>
        <time>2026-05-24T08:34:38Z</time>
      </trkpt>
      <trkpt lat="47.15548" lon="6.17792">
        <ele>522</ele>
        <time>2026-05-24T08:34:39Z</time>
      </trkpt>
      <trkpt lat="47.1555" lon="6.17783">
        <ele>522</ele>
        <time>2026-05-24T08:34:40Z</time>
      </trkpt>
      <trkpt lat="47.15551" lon="6.17775">
        <ele>522</ele>
        <time>2026-05-24T08:34:41Z</time>
      </trkpt>
      <trkpt lat="47.15552" lon="6.17765">
        <ele>521.6</ele>
        <time>2026-05-24T08:34:42Z</time>
      </trkpt>
      <trkpt lat="47.15551" lon="6.17755">
        <ele>521.2</ele>
        <time>2026-05-24T08:34:43Z</time>
      </trkpt>
      <trkpt lat="47.15551" lon="6.17745">
        <ele>520.6</ele>
        <time>2026-05-24T08:34:44Z</time>
      </trkpt>
      <trkpt lat="47.15551" lon="6.17745">
        <ele>520.4</ele>
        <time>2026-05-24T08:34:45Z</time>
      </trkpt>
      <trkpt lat="47.1555" lon="6.17721">
        <ele>519.6</ele>
        <time>2026-05-24T08:34:46Z</time>
      </trkpt>
      <trkpt lat="47.1555" lon="6.17707">
        <ele>519</ele>
        <time>2026-05-24T08:34:47Z</time>
      </trkpt>
      <trkpt lat="47.15551" lon="6.17693">
        <ele>518.6</ele>
        <time>2026-05-24T08:34:48Z</time>
      </trkpt>
      <trkpt lat="47.15553" lon="6.17679">
        <ele>518</ele>
        <time>2026-05-24T08:34:49Z</time>
      </trkpt>
      <trkpt lat="47.15554" lon="6.17665">
        <ele>517.8</ele>
        <time>2026-05-24T08:34:50Z</time>
      </trkpt>
      <trkpt lat="47.15557" lon="6.17652">
        <ele>517</ele>
        <time>2026-05-24T08:34:51Z</time>
      </trkpt>
      <trkpt lat="47.15559" lon="6.17639">
        <ele>516.2</ele>
        <time>2026-05-24T08:34:52Z</time>
      </trkpt>
      <trkpt lat="47.15561" lon="6.17628">
        <ele>515.4</ele>
        <time>2026-05-24T08:34:53Z</time>
      </trkpt>
      <trkpt lat="47.15563" lon="6.17619">
        <ele>514.6</ele>
        <time>2026-05-24T08:34:54Z</time>
      </trkpt>
      <trkpt lat="47.15566" lon="6.17612">
        <ele>513.6</ele>
        <time>2026-05-24T08:34:55Z</time>
      </trkpt>
      <trkpt lat="47.15569" lon="6.17606">
        <ele>513</ele>
        <time>2026-05-24T08:34:56Z</time>
      </trkpt>
      <trkpt lat="47.15571" lon="6.17601">
        <ele>512</ele>
        <time>2026-05-24T08:34:57Z</time>
      </trkpt>
      <trkpt lat="47.15574" lon="6.17597">
        <ele>511.2</ele>
        <time>2026-05-24T08:34:58Z</time>
      </trkpt>
      <trkpt lat="47.15576" lon="6.17594">
        <ele>510.8</ele>
        <time>2026-05-24T08:34:59Z</time>
      </trkpt>
      <trkpt lat="47.15578" lon="6.17592">
        <ele>510.8</ele>
        <time>2026-05-24T08:35:00Z</time>
      </trkpt>
      <trkpt lat="47.1558" lon="6.17592">
        <ele>510.6</ele>
        <time>2026-05-24T08:35:01Z</time>
      </trkpt>
      <trkpt lat="47.15583" lon="6.17592">
        <ele>510.4</ele>
        <time>2026-05-24T08:35:02Z</time>
      </trkpt>
      <trkpt lat="47.15586" lon="6.17595">
        <ele>510.4</ele>
        <time>2026-05-24T08:35:03Z</time>
      </trkpt>
      <trkpt lat="47.15588" lon="6.17597">
        <ele>510.4</ele>
        <time>2026-05-24T08:35:04Z</time>
      </trkpt>
      <trkpt lat="47.1559" lon="6.176">
        <ele>510.4</ele>
        <time>2026-05-24T08:35:05Z</time>
      </trkpt>
      <trkpt lat="47.15593" lon="6.17604">
        <ele>510.4</ele>
        <time>2026-05-24T08:35:06Z</time>
      </trkpt>
      <trkpt lat="47.15595" lon="6.17608">
        <ele>510.4</ele>
        <time>2026-05-24T08:35:07Z</time>
      </trkpt>
      <trkpt lat="47.15597" lon="6.17612">
        <ele>510.4</ele>
        <time>2026-05-24T08:35:08Z</time>
      </trkpt>
      <trkpt lat="47.156" lon="6.17617">
        <ele>510.4</ele>
        <time>2026-05-24T08:35:09Z</time>
      </trkpt>
      <trkpt lat="47.15603" lon="6.17622">
        <ele>510.4</ele>
        <time>2026-05-24T08:35:10Z</time>
      </trkpt>
      <trkpt lat="47.15605" lon="6.17627">
        <ele>510.4</ele>
        <time>2026-05-24T08:35:11Z</time>
      </trkpt>
      <trkpt lat="47.15608" lon="6.17632">
        <ele>510.4</ele>
        <time>2026-05-24T08:35:12Z</time>
      </trkpt>
      <trkpt lat="47.1561" lon="6.17637">
        <ele>510.4</ele>
        <time>2026-05-24T08:35:13Z</time>
      </trkpt>
      <trkpt lat="47.15613" lon="6.17642">
        <ele>510.4</ele>
        <time>2026-05-24T08:35:14Z</time>
      </trkpt>
      <trkpt lat="47.15615" lon="6.17647">
        <ele>510.6</ele>
        <time>2026-05-24T08:35:15Z</time>
      </trkpt>
      <trkpt lat="47.15617" lon="6.17651">
        <ele>510.6</ele>
        <time>2026-05-24T08:35:16Z</time>
      </trkpt>
      <trkpt lat="47.15619" lon="6.17654">
        <ele>510.4</ele>
        <time>2026-05-24T08:35:17Z</time>
      </trkpt>
      <trkpt lat="47.1562" lon="6.17656">
        <ele>510.6</ele>
        <time>2026-05-24T08:35:18Z</time>
      </trkpt>
      <trkpt lat="47.15621" lon="6.17658">
        <ele>510.6</ele>
        <time>2026-05-24T08:35:19Z</time>
      </trkpt>
      <trkpt lat="47.15622" lon="6.1766">
        <ele>510.4</ele>
        <time>2026-05-24T08:35:20Z</time>
      </trkpt>
      <trkpt lat="47.15622" lon="6.1766">
        <ele>510.4</ele>
        <time>2026-05-24T08:35:21Z</time>
      </trkpt>
      <trkpt lat="47.15621" lon="6.17661">
        <ele>510.6</ele>
        <time>2026-05-24T08:35:22Z</time>
      </trkpt>
      <trkpt lat="47.15621" lon="6.1766">
        <ele>510.6</ele>
        <time>2026-05-24T08:35:23Z</time>
      </trkpt>
      <trkpt lat="47.15627" lon="6.17671">
        <ele>510.8</ele>
        <time>2026-05-24T08:36:06Z</time>
      </trkpt>
      <trkpt lat="47.15628" lon="6.17674">
        <ele>510.8</ele>
        <time>2026-05-24T08:36:07Z</time>
      </trkpt>
      <trkpt lat="47.1563" lon="6.17676">
        <ele>510.8</ele>
        <time>2026-05-24T08:36:08Z</time>
      </trkpt>
      <trkpt lat="47.15632" lon="6.17679">
        <ele>510.8</ele>
        <time>2026-05-24T08:36:09Z</time>
      </trkpt>
      <trkpt lat="47.15634" lon="6.17682">
        <ele>510.8</ele>
        <time>2026-05-24T08:36:10Z</time>
      </trkpt>
      <trkpt lat="47.15636" lon="6.17685">
        <ele>510.8</ele>
        <time>2026-05-24T08:36:11Z</time>
      </trkpt>
      <trkpt lat="47.15637" lon="6.17688">
        <ele>511</ele>
        <time>2026-05-24T08:36:12Z</time>
      </trkpt>
      <trkpt lat="47.15639" lon="6.17692">
        <ele>510.8</ele>
        <time>2026-05-24T08:36:13Z</time>
      </trkpt>
      <trkpt lat="47.15641" lon="6.17695">
        <ele>510.8</ele>
        <time>2026-05-24T08:36:14Z</time>
      </trkpt>
      <trkpt lat="47.15643" lon="6.17699">
        <ele>511</ele>
        <time>2026-05-24T08:36:15Z</time>
      </trkpt>
      <trkpt lat="47.15645" lon="6.17702">
        <ele>511</ele>
        <time>2026-05-24T08:36:16Z</time>
      </trkpt>
      <trkpt lat="47.15647" lon="6.17706">
        <ele>511</ele>
        <time>2026-05-24T08:36:17Z</time>
      </trkpt>
      <trkpt lat="47.1565" lon="6.17709">
        <ele>511.2</ele>
        <time>2026-05-24T08:36:18Z</time>
      </trkpt>
      <trkpt lat="47.15652" lon="6.17713">
        <ele>511.2</ele>
        <time>2026-05-24T08:36:19Z</time>
      </trkpt>
      <trkpt lat="47.15654" lon="6.17716">
        <ele>511.2</ele>
        <time>2026-05-24T08:36:20Z</time>
      </trkpt>
      <trkpt lat="47.15657" lon="6.1772">
        <ele>511.2</ele>
        <time>2026-05-24T08:36:21Z</time>
      </trkpt>
      <trkpt lat="47.15659" lon="6.17724">
        <ele>511.4</ele>
        <time>2026-05-24T08:36:22Z</time>
      </trkpt>
      <trkpt lat="47.15661" lon="6.17728">
        <ele>511.4</ele>
        <time>2026-05-24T08:36:23Z</time>
      </trkpt>
      <trkpt lat="47.15664" lon="6.17732">
        <ele>511.4</ele>
        <time>2026-05-24T08:36:24Z</time>
      </trkpt>
      <trkpt lat="47.15667" lon="6.17736">
        <ele>511.4</ele>
        <time>2026-05-24T08:36:25Z</time>
      </trkpt>
      <trkpt lat="47.1567" lon="6.1774">
        <ele>511.6</ele>
        <time>2026-05-24T08:36:26Z</time>
      </trkpt>
      <trkpt lat="47.15673" lon="6.17744">
        <ele>511.4</ele>
        <time>2026-05-24T08:36:27Z</time>
      </trkpt>
      <trkpt lat="47.15676" lon="6.17748">
        <ele>511.6</ele>
        <time>2026-05-24T08:36:28Z</time>
      </trkpt>
      <trkpt lat="47.15679" lon="6.17752">
        <ele>511.8</ele>
        <time>2026-05-24T08:36:29Z</time>
      </trkpt>
      <trkpt lat="47.15682" lon="6.17756">
        <ele>512</ele>
        <time>2026-05-24T08:36:30Z</time>
      </trkpt>
      <trkpt lat="47.15685" lon="6.1776">
        <ele>512</ele>
        <time>2026-05-24T08:36:31Z</time>
      </trkpt>
      <trkpt lat="47.15688" lon="6.17764">
        <ele>512.2</ele>
        <time>2026-05-24T08:36:32Z</time>
      </trkpt>
      <trkpt lat="47.15691" lon="6.17768">
        <ele>512.2</ele>
        <time>2026-05-24T08:36:33Z</time>
      </trkpt>
      <trkpt lat="47.15695" lon="6.17772">
        <ele>512.2</ele>
        <time>2026-05-24T08:36:34Z</time>
      </trkpt>
      <trkpt lat="47.15698" lon="6.17776">
        <ele>512</ele>
        <time>2026-05-24T08:36:35Z</time>
      </trkpt>
      <trkpt lat="47.15702" lon="6.1778">
        <ele>512.2</ele>
        <time>2026-05-24T08:36:36Z</time>
      </trkpt>
      <trkpt lat="47.15705" lon="6.17784">
        <ele>512.4</ele>
        <time>2026-05-24T08:36:37Z</time>
      </trkpt>
      <trkpt lat="47.15709" lon="6.17788">
        <ele>512.4</ele>
        <time>2026-05-24T08:36:38Z</time>
      </trkpt>
      <trkpt lat="47.15713" lon="6.17792">
        <ele>512.6</ele>
        <time>2026-05-24T08:36:39Z</time>
      </trkpt>
      <trkpt lat="47.15717" lon="6.17796">
        <ele>512.4</ele>
        <time>2026-05-24T08:36:40Z</time>
      </trkpt>
      <trkpt lat="47.15721" lon="6.178">
        <ele>512.4</ele>
        <time>2026-05-24T08:36:41Z</time>
      </trkpt>
      <trkpt lat="47.15724" lon="6.17804">
        <ele>512.6</ele>
        <time>2026-05-24T08:36:42Z</time>
      </trkpt>
      <trkpt lat="47.15728" lon="6.17808">
        <ele>512.6</ele>
        <time>2026-05-24T08:36:43Z</time>
      </trkpt>
      <trkpt lat="47.15732" lon="6.17812">
        <ele>512.8</ele>
        <time>2026-05-24T08:36:44Z</time>
      </trkpt>
      <trkpt lat="47.15735" lon="6.17817">
        <ele>512.8</ele>
        <time>2026-05-24T08:36:45Z</time>
      </trkpt>
      <trkpt lat="47.15739" lon="6.1782">
        <ele>512.8</ele>
        <time>2026-05-24T08:36:46Z</time>
      </trkpt>
      <trkpt lat="47.15743" lon="6.17823">
        <ele>512.8</ele>
        <time>2026-05-24T08:36:47Z</time>
      </trkpt>
      <trkpt lat="47.15747" lon="6.17827">
        <ele>512.8</ele>
        <time>2026-05-24T08:36:48Z</time>
      </trkpt>
      <trkpt lat="47.1575" lon="6.1783">
        <ele>512.8</ele>
        <time>2026-05-24T08:36:49Z</time>
      </trkpt>
      <trkpt lat="47.1575" lon="6.1783">
        <ele>513</ele>
        <time>2026-05-24T08:36:50Z</time>
      </trkpt>
      <trkpt lat="47.15758" lon="6.17836">
        <ele>512.8</ele>
        <time>2026-05-24T08:36:51Z</time>
      </trkpt>
      <trkpt lat="47.15762" lon="6.17839">
        <ele>513</ele>
        <time>2026-05-24T08:36:52Z</time>
      </trkpt>
      <trkpt lat="47.15767" lon="6.17842">
        <ele>513.2</ele>
        <time>2026-05-24T08:36:53Z</time>
      </trkpt>
      <trkpt lat="47.15771" lon="6.17845">
        <ele>513</ele>
        <time>2026-05-24T08:36:54Z</time>
      </trkpt>
      <trkpt lat="47.15775" lon="6.17848">
        <ele>513</ele>
        <time>2026-05-24T08:36:55Z</time>
      </trkpt>
      <trkpt lat="47.15778" lon="6.17851">
        <ele>513</ele>
        <time>2026-05-24T08:36:56Z</time>
      </trkpt>
      <trkpt lat="47.15782" lon="6.17854">
        <ele>513</ele>
        <time>2026-05-24T08:36:57Z</time>
      </trkpt>
      <trkpt lat="47.15786" lon="6.17856">
        <ele>513</ele>
        <time>2026-05-24T08:36:58Z</time>
      </trkpt>
      <trkpt lat="47.1579" lon="6.17859">
        <ele>513.2</ele>
        <time>2026-05-24T08:36:59Z</time>
      </trkpt>
      <trkpt lat="47.15794" lon="6.17861">
        <ele>513</ele>
        <time>2026-05-24T08:37:00Z</time>
      </trkpt>
      <trkpt lat="47.15798" lon="6.17864">
        <ele>513.2</ele>
        <time>2026-05-24T08:37:01Z</time>
      </trkpt>
      <trkpt lat="47.15802" lon="6.17868">
        <ele>513.2</ele>
        <time>2026-05-24T08:37:02Z</time>
      </trkpt>
      <trkpt lat="47.15807" lon="6.17871">
        <ele>513.2</ele>
        <time>2026-05-24T08:37:03Z</time>
      </trkpt>
      <trkpt lat="47.15811" lon="6.17874">
        <ele>513.4</ele>
        <time>2026-05-24T08:37:04Z</time>
      </trkpt>
      <trkpt lat="47.15815" lon="6.17877">
        <ele>513.4</ele>
        <time>2026-05-24T08:37:05Z</time>
      </trkpt>
      <trkpt lat="47.15819" lon="6.1788">
        <ele>513.4</ele>
        <time>2026-05-24T08:37:06Z</time>
      </trkpt>
      <trkpt lat="47.15824" lon="6.17883">
        <ele>513.4</ele>
        <time>2026-05-24T08:37:07Z</time>
      </trkpt>
      <trkpt lat="47.15828" lon="6.17886">
        <ele>513.4</ele>
        <time>2026-05-24T08:37:08Z</time>
      </trkpt>
      <trkpt lat="47.15832" lon="6.17889">
        <ele>513.4</ele>
        <time>2026-05-24T08:37:09Z</time>
      </trkpt>
      <trkpt lat="47.15836" lon="6.17892">
        <ele>513.6</ele>
        <time>2026-05-24T08:37:10Z</time>
      </trkpt>
      <trkpt lat="47.1584" lon="6.17895">
        <ele>513.8</ele>
        <time>2026-05-24T08:37:11Z</time>
      </trkpt>
      <trkpt lat="47.15844" lon="6.17898">
        <ele>513.8</ele>
        <time>2026-05-24T08:37:12Z</time>
      </trkpt>
      <trkpt lat="47.15848" lon="6.17901">
        <ele>514</ele>
        <time>2026-05-24T08:37:13Z</time>
      </trkpt>
      <trkpt lat="47.15852" lon="6.17904">
        <ele>514</ele>
        <time>2026-05-24T08:37:14Z</time>
      </trkpt>
      <trkpt lat="47.15856" lon="6.17907">
        <ele>514</ele>
        <time>2026-05-24T08:37:15Z</time>
      </trkpt>
      <trkpt lat="47.1586" lon="6.1791">
        <ele>514</ele>
        <time>2026-05-24T08:37:16Z</time>
      </trkpt>
      <trkpt lat="47.15863" lon="6.17914">
        <ele>514</ele>
        <time>2026-05-24T08:37:17Z</time>
      </trkpt>
      <trkpt lat="47.15867" lon="6.17916">
        <ele>514.2</ele>
        <time>2026-05-24T08:37:18Z</time>
      </trkpt>
      <trkpt lat="47.15871" lon="6.17919">
        <ele>514.4</ele>
        <time>2026-05-24T08:37:19Z</time>
      </trkpt>
      <trkpt lat="47.15875" lon="6.17922">
        <ele>514.2</ele>
        <time>2026-05-24T08:37:20Z</time>
      </trkpt>
      <trkpt lat="47.15879" lon="6.17925">
        <ele>514.2</ele>
        <time>2026-05-24T08:37:21Z</time>
      </trkpt>
      <trkpt lat="47.15883" lon="6.17928">
        <ele>514.4</ele>
        <time>2026-05-24T08:37:22Z</time>
      </trkpt>
      <trkpt lat="47.15887" lon="6.17931">
        <ele>514.4</ele>
        <time>2026-05-24T08:37:23Z</time>
      </trkpt>
      <trkpt lat="47.15891" lon="6.17934">
        <ele>514.6</ele>
        <time>2026-05-24T08:37:24Z</time>
      </trkpt>
      <trkpt lat="47.15895" lon="6.17937">
        <ele>514.4</ele>
        <time>2026-05-24T08:37:25Z</time>
      </trkpt>
      <trkpt lat="47.15899" lon="6.17941">
        <ele>514.6</ele>
        <time>2026-05-24T08:37:26Z</time>
      </trkpt>
      <trkpt lat="47.15903" lon="6.17944">
        <ele>514.6</ele>
        <time>2026-05-24T08:37:27Z</time>
      </trkpt>
      <trkpt lat="47.15907" lon="6.17947">
        <ele>514.6</ele>
        <time>2026-05-24T08:37:28Z</time>
      </trkpt>
      <trkpt lat="47.15911" lon="6.17951">
        <ele>514.6</ele>
        <time>2026-05-24T08:37:29Z</time>
      </trkpt>
      <trkpt lat="47.15915" lon="6.17954">
        <ele>514.6</ele>
        <time>2026-05-24T08:37:30Z</time>
      </trkpt>
      <trkpt lat="47.15919" lon="6.17957">
        <ele>514.6</ele>
        <time>2026-05-24T08:37:31Z</time>
      </trkpt>
      <trkpt lat="47.15924" lon="6.17961">
        <ele>514.6</ele>
        <time>2026-05-24T08:37:32Z</time>
      </trkpt>
      <trkpt lat="47.15928" lon="6.17964">
        <ele>514.6</ele>
        <time>2026-05-24T08:37:33Z</time>
      </trkpt>
      <trkpt lat="47.15932" lon="6.17967">
        <ele>514.6</ele>
        <time>2026-05-24T08:37:34Z</time>
      </trkpt>
      <trkpt lat="47.15936" lon="6.1797">
        <ele>514.6</ele>
        <time>2026-05-24T08:37:35Z</time>
      </trkpt>
      <trkpt lat="47.15939" lon="6.17973">
        <ele>514.8</ele>
        <time>2026-05-24T08:37:36Z</time>
      </trkpt>
      <trkpt lat="47.15943" lon="6.17977">
        <ele>514.6</ele>
        <time>2026-05-24T08:37:37Z</time>
      </trkpt>
      <trkpt lat="47.15947" lon="6.1798">
        <ele>514.8</ele>
        <time>2026-05-24T08:37:38Z</time>
      </trkpt>
      <trkpt lat="47.15951" lon="6.17982">
        <ele>514.6</ele>
        <time>2026-05-24T08:37:39Z</time>
      </trkpt>
      <trkpt lat="47.15955" lon="6.17985">
        <ele>514.6</ele>
        <time>2026-05-24T08:37:40Z</time>
      </trkpt>
      <trkpt lat="47.15958" lon="6.17988">
        <ele>514.6</ele>
        <time>2026-05-24T08:37:41Z</time>
      </trkpt>
      <trkpt lat="47.15962" lon="6.17991">
        <ele>514.8</ele>
        <time>2026-05-24T08:37:42Z</time>
      </trkpt>
      <trkpt lat="47.15966" lon="6.17993">
        <ele>514.8</ele>
        <time>2026-05-24T08:37:43Z</time>
      </trkpt>
      <trkpt lat="47.15969" lon="6.17996">
        <ele>514.6</ele>
        <time>2026-05-24T08:37:44Z</time>
      </trkpt>
      <trkpt lat="47.15973" lon="6.17999">
        <ele>514.6</ele>
        <time>2026-05-24T08:37:45Z</time>
      </trkpt>
      <trkpt lat="47.15977" lon="6.18002">
        <ele>514.6</ele>
        <time>2026-05-24T08:37:46Z</time>
      </trkpt>
      <trkpt lat="47.15981" lon="6.18005">
        <ele>514.8</ele>
        <time>2026-05-24T08:37:47Z</time>
      </trkpt>
      <trkpt lat="47.15984" lon="6.18008">
        <ele>514.8</ele>
        <time>2026-05-24T08:37:48Z</time>
      </trkpt>
      <trkpt lat="47.15988" lon="6.18011">
        <ele>514.8</ele>
        <time>2026-05-24T08:37:49Z</time>
      </trkpt>
      <trkpt lat="47.15992" lon="6.18014">
        <ele>514.6</ele>
        <time>2026-05-24T08:37:50Z</time>
      </trkpt>
      <trkpt lat="47.15997" lon="6.18018">
        <ele>514.8</ele>
        <time>2026-05-24T08:37:51Z</time>
      </trkpt>
      <trkpt lat="47.16001" lon="6.18021">
        <ele>514.8</ele>
        <time>2026-05-24T08:37:52Z</time>
      </trkpt>
      <trkpt lat="47.16005" lon="6.18025">
        <ele>514.8</ele>
        <time>2026-05-24T08:37:53Z</time>
      </trkpt>
      <trkpt lat="47.1601" lon="6.18028">
        <ele>514.8</ele>
        <time>2026-05-24T08:37:54Z</time>
      </trkpt>
      <trkpt lat="47.16014" lon="6.18031">
        <ele>514.6</ele>
        <time>2026-05-24T08:37:55Z</time>
      </trkpt>
      <trkpt lat="47.16018" lon="6.18034">
        <ele>514.6</ele>
        <time>2026-05-24T08:37:56Z</time>
      </trkpt>
      <trkpt lat="47.16022" lon="6.18037">
        <ele>514.6</ele>
        <time>2026-05-24T08:37:57Z</time>
      </trkpt>
      <trkpt lat="47.16026" lon="6.18039">
        <ele>514.8</ele>
        <time>2026-05-24T08:37:58Z</time>
      </trkpt>
      <trkpt lat="47.16029" lon="6.18042">
        <ele>514.6</ele>
        <time>2026-05-24T08:37:59Z</time>
      </trkpt>
      <trkpt lat="47.16032" lon="6.18044">
        <ele>514.8</ele>
        <time>2026-05-24T08:38:00Z</time>
      </trkpt>
      <trkpt lat="47.16034" lon="6.18045">
        <ele>514.6</ele>
        <time>2026-05-24T08:38:01Z</time>
      </trkpt>
      <trkpt lat="47.16035" lon="6.18047">
        <ele>514.8</ele>
        <time>2026-05-24T08:38:02Z</time>
      </trkpt>
      <trkpt lat="47.16036" lon="6.18048">
        <ele>514.6</ele>
        <time>2026-05-24T08:38:03Z</time>
      </trkpt>
      <trkpt lat="47.16037" lon="6.18049">
        <ele>514.6</ele>
        <time>2026-05-24T08:38:04Z</time>
      </trkpt>
      <trkpt lat="47.16038" lon="6.18049">
        <ele>514.6</ele>
        <time>2026-05-24T08:38:05Z</time>
      </trkpt>
      <trkpt lat="47.16039" lon="6.18049">
        <ele>514.6</ele>
        <time>2026-05-24T08:38:06Z</time>
      </trkpt>
      <trkpt lat="47.1604" lon="6.18049">
        <ele>514.6</ele>
        <time>2026-05-24T08:38:07Z</time>
      </trkpt>
      <trkpt lat="47.16041" lon="6.18048">
        <ele>514.6</ele>
        <time>2026-05-24T08:38:08Z</time>
      </trkpt>
      <trkpt lat="47.16042" lon="6.18047">
        <ele>514.4</ele>
        <time>2026-05-24T08:38:09Z</time>
      </trkpt>
      <trkpt lat="47.16042" lon="6.18047">
        <ele>514.4</ele>
        <time>2026-05-24T08:38:10Z</time>
      </trkpt>
      <trkpt lat="47.16042" lon="6.18045">
        <ele>514.4</ele>
        <time>2026-05-24T08:38:11Z</time>
      </trkpt>
      <trkpt lat="47.16042" lon="6.18044">
        <ele>514.4</ele>
        <time>2026-05-24T08:38:12Z</time>
      </trkpt>
      <trkpt lat="47.16043" lon="6.18042">
        <ele>514.4</ele>
        <time>2026-05-24T08:38:13Z</time>
      </trkpt>
      <trkpt lat="47.16043" lon="6.1804">
        <ele>514.4</ele>
        <time>2026-05-24T08:38:14Z</time>
      </trkpt>
      <trkpt lat="47.16043" lon="6.18038">
        <ele>514.6</ele>
        <time>2026-05-24T08:38:15Z</time>
      </trkpt>
      <trkpt lat="47.16043" lon="6.18035">
        <ele>514.4</ele>
        <time>2026-05-24T08:38:16Z</time>
      </trkpt>
      <trkpt lat="47.16043" lon="6.18032">
        <ele>514.6</ele>
        <time>2026-05-24T08:38:17Z</time>
      </trkpt>
      <trkpt lat="47.16043" lon="6.18028">
        <ele>514.4</ele>
        <time>2026-05-24T08:38:18Z</time>
      </trkpt>
      <trkpt lat="47.16043" lon="6.18024">
        <ele>514.4</ele>
        <time>2026-05-24T08:38:19Z</time>
      </trkpt>
      <trkpt lat="47.16044" lon="6.1802">
        <ele>514.4</ele>
        <time>2026-05-24T08:38:20Z</time>
      </trkpt>
      <trkpt lat="47.16044" lon="6.18017">
        <ele>514.4</ele>
        <time>2026-05-24T08:38:21Z</time>
      </trkpt>
      <trkpt lat="47.16045" lon="6.18014">
        <ele>514.6</ele>
        <time>2026-05-24T08:38:22Z</time>
      </trkpt>
      <trkpt lat="47.16045" lon="6.18011">
        <ele>514.6</ele>
        <time>2026-05-24T08:38:23Z</time>
      </trkpt>
      <trkpt lat="47.16046" lon="6.18008">
        <ele>514.6</ele>
        <time>2026-05-24T08:38:24Z</time>
      </trkpt>
      <trkpt lat="47.16048" lon="6.18005">
        <ele>514.6</ele>
        <time>2026-05-24T08:38:25Z</time>
      </trkpt>
      <trkpt lat="47.16048" lon="6.18003">
        <ele>514.6</ele>
        <time>2026-05-24T08:38:26Z</time>
      </trkpt>
      <trkpt lat="47.16048" lon="6.17999">
        <ele>514.6</ele>
        <time>2026-05-24T08:38:27Z</time>
      </trkpt>
      <trkpt lat="47.16049" lon="6.17997">
        <ele>514.8</ele>
        <time>2026-05-24T08:38:28Z</time>
      </trkpt>
      <trkpt lat="47.1605" lon="6.17994">
        <ele>515.2</ele>
        <time>2026-05-24T08:38:29Z</time>
      </trkpt>
      <trkpt lat="47.16051" lon="6.17991">
        <ele>515.4</ele>
        <time>2026-05-24T08:38:30Z</time>
      </trkpt>
      <trkpt lat="47.16053" lon="6.17988">
        <ele>515.8</ele>
        <time>2026-05-24T08:38:31Z</time>
      </trkpt>
      <trkpt lat="47.16054" lon="6.17985">
        <ele>516.4</ele>
        <time>2026-05-24T08:38:32Z</time>
      </trkpt>
      <trkpt lat="47.16055" lon="6.17982">
        <ele>516.4</ele>
        <time>2026-05-24T08:38:33Z</time>
      </trkpt>
      <trkpt lat="47.16056" lon="6.17978">
        <ele>516.8</ele>
        <time>2026-05-24T08:38:34Z</time>
      </trkpt>
      <trkpt lat="47.16057" lon="6.17975">
        <ele>517</ele>
        <time>2026-05-24T08:38:35Z</time>
      </trkpt>
      <trkpt lat="47.16057" lon="6.17972">
        <ele>517</ele>
        <time>2026-05-24T08:38:36Z</time>
      </trkpt>
      <trkpt lat="47.16058" lon="6.1797">
        <ele>517.4</ele>
        <time>2026-05-24T08:38:37Z</time>
      </trkpt>
      <trkpt lat="47.1606" lon="6.17967">
        <ele>517.4</ele>
        <time>2026-05-24T08:38:38Z</time>
      </trkpt>
      <trkpt lat="47.16061" lon="6.17964">
        <ele>517.6</ele>
        <time>2026-05-24T08:38:39Z</time>
      </trkpt>
      <trkpt lat="47.16063" lon="6.1796">
        <ele>517.6</ele>
        <time>2026-05-24T08:38:40Z</time>
      </trkpt>
      <trkpt lat="47.16064" lon="6.17958">
        <ele>517.8</ele>
        <time>2026-05-24T08:38:41Z</time>
      </trkpt>
      <trkpt lat="47.16065" lon="6.17955">
        <ele>517.8</ele>
        <time>2026-05-24T08:38:42Z</time>
      </trkpt>
      <trkpt lat="47.16067" lon="6.17953">
        <ele>517.8</ele>
        <time>2026-05-24T08:38:43Z</time>
      </trkpt>
      <trkpt lat="47.16068" lon="6.17951">
        <ele>517.8</ele>
        <time>2026-05-24T08:38:44Z</time>
      </trkpt>
      <trkpt lat="47.16068" lon="6.17949">
        <ele>518</ele>
        <time>2026-05-24T08:38:45Z</time>
      </trkpt>
      <trkpt lat="47.16069" lon="6.17947">
        <ele>517.8</ele>
        <time>2026-05-24T08:38:46Z</time>
      </trkpt>
      <trkpt lat="47.16071" lon="6.17945">
        <ele>518</ele>
        <time>2026-05-24T08:38:47Z</time>
      </trkpt>
      <trkpt lat="47.16073" lon="6.17942">
        <ele>518</ele>
        <time>2026-05-24T08:38:48Z</time>
      </trkpt>
      <trkpt lat="47.16073" lon="6.1794">
        <ele>518</ele>
        <time>2026-05-24T08:38:49Z</time>
      </trkpt>
      <trkpt lat="47.16075" lon="6.17936">
        <ele>518.2</ele>
        <time>2026-05-24T08:38:50Z</time>
      </trkpt>
      <trkpt lat="47.16076" lon="6.17933">
        <ele>518.4</ele>
        <time>2026-05-24T08:38:51Z</time>
      </trkpt>
      <trkpt lat="47.16078" lon="6.1793">
        <ele>519</ele>
        <time>2026-05-24T08:38:52Z</time>
      </trkpt>
      <trkpt lat="47.1608" lon="6.17927">
        <ele>519.2</ele>
        <time>2026-05-24T08:38:53Z</time>
      </trkpt>
      <trkpt lat="47.16082" lon="6.17922">
        <ele>519.4</ele>
        <time>2026-05-24T08:38:54Z</time>
      </trkpt>
      <trkpt lat="47.16083" lon="6.1792">
        <ele>519.4</ele>
        <time>2026-05-24T08:38:55Z</time>
      </trkpt>
      <trkpt lat="47.16085" lon="6.17916">
        <ele>519.4</ele>
        <time>2026-05-24T08:38:56Z</time>
      </trkpt>
      <trkpt lat="47.16086" lon="6.17914">
        <ele>519.8</ele>
        <time>2026-05-24T08:38:57Z</time>
      </trkpt>
      <trkpt lat="47.16088" lon="6.17911">
        <ele>520</ele>
        <time>2026-05-24T08:38:58Z</time>
      </trkpt>
      <trkpt lat="47.16089" lon="6.17909">
        <ele>520.2</ele>
        <time>2026-05-24T08:38:59Z</time>
      </trkpt>
      <trkpt lat="47.1609" lon="6.17906">
        <ele>520.6</ele>
        <time>2026-05-24T08:39:00Z</time>
      </trkpt>
      <trkpt lat="47.16092" lon="6.17904">
        <ele>521</ele>
        <time>2026-05-24T08:39:01Z</time>
      </trkpt>
      <trkpt lat="47.16093" lon="6.17902">
        <ele>521</ele>
        <time>2026-05-24T08:39:02Z</time>
      </trkpt>
      <trkpt lat="47.16094" lon="6.179">
        <ele>521.4</ele>
        <time>2026-05-24T08:39:03Z</time>
      </trkpt>
      <trkpt lat="47.16095" lon="6.17897">
        <ele>521.6</ele>
        <time>2026-05-24T08:39:04Z</time>
      </trkpt>
      <trkpt lat="47.16096" lon="6.17893">
        <ele>521.8</ele>
        <time>2026-05-24T08:39:05Z</time>
      </trkpt>
      <trkpt lat="47.16098" lon="6.1789">
        <ele>522</ele>
        <time>2026-05-24T08:39:06Z</time>
      </trkpt>
      <trkpt lat="47.161" lon="6.17887">
        <ele>522.2</ele>
        <time>2026-05-24T08:39:07Z</time>
      </trkpt>
      <trkpt lat="47.16102" lon="6.17885">
        <ele>522.4</ele>
        <time>2026-05-24T08:39:08Z</time>
      </trkpt>
      <trkpt lat="47.16103" lon="6.17884">
        <ele>522.6</ele>
        <time>2026-05-24T08:39:09Z</time>
      </trkpt>
      <trkpt lat="47.16105" lon="6.17882">
        <ele>523</ele>
        <time>2026-05-24T08:39:10Z</time>
      </trkpt>
      <trkpt lat="47.16106" lon="6.1788">
        <ele>523.4</ele>
        <time>2026-05-24T08:39:11Z</time>
      </trkpt>
      <trkpt lat="47.16108" lon="6.17878">
        <ele>523.6</ele>
        <time>2026-05-24T08:39:12Z</time>
      </trkpt>
      <trkpt lat="47.16109" lon="6.17876">
        <ele>524</ele>
        <time>2026-05-24T08:39:13Z</time>
      </trkpt>
      <trkpt lat="47.16111" lon="6.17874">
        <ele>524.2</ele>
        <time>2026-05-24T08:39:14Z</time>
      </trkpt>
      <trkpt lat="47.16113" lon="6.17872">
        <ele>524.4</ele>
        <time>2026-05-24T08:39:15Z</time>
      </trkpt>
      <trkpt lat="47.16115" lon="6.17869">
        <ele>524.8</ele>
        <time>2026-05-24T08:39:16Z</time>
      </trkpt>
      <trkpt lat="47.16116" lon="6.17866">
        <ele>524.8</ele>
        <time>2026-05-24T08:39:17Z</time>
      </trkpt>
      <trkpt lat="47.16118" lon="6.17863">
        <ele>524.8</ele>
        <time>2026-05-24T08:39:18Z</time>
      </trkpt>
      <trkpt lat="47.1612" lon="6.17862">
        <ele>524.8</ele>
        <time>2026-05-24T08:39:19Z</time>
      </trkpt>
      <trkpt lat="47.16121" lon="6.17859">
        <ele>525.2</ele>
        <time>2026-05-24T08:39:20Z</time>
      </trkpt>
      <trkpt lat="47.16123" lon="6.17856">
        <ele>525.6</ele>
        <time>2026-05-24T08:39:21Z</time>
      </trkpt>
      <trkpt lat="47.16125" lon="6.17854">
        <ele>525.8</ele>
        <time>2026-05-24T08:39:22Z</time>
      </trkpt>
      <trkpt lat="47.16126" lon="6.17852">
        <ele>526</ele>
        <time>2026-05-24T08:39:23Z</time>
      </trkpt>
      <trkpt lat="47.16128" lon="6.1785">
        <ele>526.2</ele>
        <time>2026-05-24T08:39:24Z</time>
      </trkpt>
      <trkpt lat="47.16129" lon="6.17849">
        <ele>526.4</ele>
        <time>2026-05-24T08:39:25Z</time>
      </trkpt>
      <trkpt lat="47.1613" lon="6.17847">
        <ele>526.4</ele>
        <time>2026-05-24T08:39:26Z</time>
      </trkpt>
      <trkpt lat="47.16131" lon="6.17845">
        <ele>526.6</ele>
        <time>2026-05-24T08:39:27Z</time>
      </trkpt>
      <trkpt lat="47.16132" lon="6.17844">
        <ele>526.8</ele>
        <time>2026-05-24T08:39:28Z</time>
      </trkpt>
      <trkpt lat="47.16133" lon="6.17841">
        <ele>527</ele>
        <time>2026-05-24T08:39:29Z</time>
      </trkpt>
      <trkpt lat="47.16136" lon="6.17838">
        <ele>527.2</ele>
        <time>2026-05-24T08:39:30Z</time>
      </trkpt>
      <trkpt lat="47.16138" lon="6.17834">
        <ele>527.4</ele>
        <time>2026-05-24T08:39:31Z</time>
      </trkpt>
      <trkpt lat="47.16139" lon="6.17831">
        <ele>527.2</ele>
        <time>2026-05-24T08:39:32Z</time>
      </trkpt>
      <trkpt lat="47.16141" lon="6.17828">
        <ele>527.4</ele>
        <time>2026-05-24T08:39:33Z</time>
      </trkpt>
      <trkpt lat="47.16142" lon="6.17825">
        <ele>527.4</ele>
        <time>2026-05-24T08:39:34Z</time>
      </trkpt>
      <trkpt lat="47.16143" lon="6.17821">
        <ele>527.2</ele>
        <time>2026-05-24T08:39:35Z</time>
      </trkpt>
      <trkpt lat="47.16145" lon="6.17818">
        <ele>527.4</ele>
        <time>2026-05-24T08:39:36Z</time>
      </trkpt>
      <trkpt lat="47.16145" lon="6.17815">
        <ele>527.4</ele>
        <time>2026-05-24T08:39:37Z</time>
      </trkpt>
      <trkpt lat="47.16146" lon="6.17812">
        <ele>527.4</ele>
        <time>2026-05-24T08:39:38Z</time>
      </trkpt>
      <trkpt lat="47.16147" lon="6.17809">
        <ele>527.6</ele>
        <time>2026-05-24T08:39:39Z</time>
      </trkpt>
      <trkpt lat="47.16148" lon="6.17806">
        <ele>527.6</ele>
        <time>2026-05-24T08:39:40Z</time>
      </trkpt>
      <trkpt lat="47.16149" lon="6.17804">
        <ele>527.6</ele>
        <time>2026-05-24T08:39:41Z</time>
      </trkpt>
      <trkpt lat="47.16151" lon="6.17802">
        <ele>527.6</ele>
        <time>2026-05-24T08:39:42Z</time>
      </trkpt>
      <trkpt lat="47.16153" lon="6.17799">
        <ele>527.6</ele>
        <time>2026-05-24T08:39:43Z</time>
      </trkpt>
      <trkpt lat="47.16154" lon="6.17797">
        <ele>527.8</ele>
        <time>2026-05-24T08:39:44Z</time>
      </trkpt>
      <trkpt lat="47.16156" lon="6.17795">
        <ele>527.8</ele>
        <time>2026-05-24T08:39:45Z</time>
      </trkpt>
      <trkpt lat="47.16156" lon="6.17792">
        <ele>527.8</ele>
        <time>2026-05-24T08:39:46Z</time>
      </trkpt>
      <trkpt lat="47.16157" lon="6.17788">
        <ele>527.8</ele>
        <time>2026-05-24T08:39:47Z</time>
      </trkpt>
      <trkpt lat="47.16159" lon="6.17785">
        <ele>527.8</ele>
        <time>2026-05-24T08:39:48Z</time>
      </trkpt>
      <trkpt lat="47.1616" lon="6.17783">
        <ele>528</ele>
        <time>2026-05-24T08:39:49Z</time>
      </trkpt>
      <trkpt lat="47.16161" lon="6.1778">
        <ele>527.8</ele>
        <time>2026-05-24T08:39:50Z</time>
      </trkpt>
      <trkpt lat="47.16162" lon="6.17777">
        <ele>528</ele>
        <time>2026-05-24T08:39:51Z</time>
      </trkpt>
      <trkpt lat="47.16164" lon="6.17775">
        <ele>528</ele>
        <time>2026-05-24T08:39:52Z</time>
      </trkpt>
      <trkpt lat="47.16166" lon="6.17772">
        <ele>528.2</ele>
        <time>2026-05-24T08:39:53Z</time>
      </trkpt>
      <trkpt lat="47.16167" lon="6.1777">
        <ele>528.2</ele>
        <time>2026-05-24T08:39:54Z</time>
      </trkpt>
      <trkpt lat="47.16168" lon="6.17767">
        <ele>528.2</ele>
        <time>2026-05-24T08:39:55Z</time>
      </trkpt>
      <trkpt lat="47.1617" lon="6.17763">
        <ele>528.6</ele>
        <time>2026-05-24T08:39:56Z</time>
      </trkpt>
      <trkpt lat="47.16172" lon="6.1776">
        <ele>528.6</ele>
        <time>2026-05-24T08:39:57Z</time>
      </trkpt>
      <trkpt lat="47.16174" lon="6.17758">
        <ele>528.8</ele>
        <time>2026-05-24T08:39:58Z</time>
      </trkpt>
      <trkpt lat="47.16176" lon="6.17756">
        <ele>528.8</ele>
        <time>2026-05-24T08:39:59Z</time>
      </trkpt>
      <trkpt lat="47.16177" lon="6.17752">
        <ele>529</ele>
        <time>2026-05-24T08:40:00Z</time>
      </trkpt>
      <trkpt lat="47.16179" lon="6.1775">
        <ele>529</ele>
        <time>2026-05-24T08:40:01Z</time>
      </trkpt>
      <trkpt lat="47.16181" lon="6.17747">
        <ele>529</ele>
        <time>2026-05-24T08:40:02Z</time>
      </trkpt>
      <trkpt lat="47.16182" lon="6.17745">
        <ele>529.2</ele>
        <time>2026-05-24T08:40:03Z</time>
      </trkpt>
      <trkpt lat="47.16184" lon="6.17742">
        <ele>529.2</ele>
        <time>2026-05-24T08:40:04Z</time>
      </trkpt>
      <trkpt lat="47.16186" lon="6.17739">
        <ele>529.6</ele>
        <time>2026-05-24T08:40:05Z</time>
      </trkpt>
      <trkpt lat="47.16187" lon="6.17737">
        <ele>529.6</ele>
        <time>2026-05-24T08:40:06Z</time>
      </trkpt>
      <trkpt lat="47.16189" lon="6.17734">
        <ele>529.8</ele>
        <time>2026-05-24T08:40:07Z</time>
      </trkpt>
      <trkpt lat="47.1619" lon="6.17731">
        <ele>530</ele>
        <time>2026-05-24T08:40:08Z</time>
      </trkpt>
      <trkpt lat="47.16192" lon="6.17728">
        <ele>530.2</ele>
        <time>2026-05-24T08:40:09Z</time>
      </trkpt>
      <trkpt lat="47.16194" lon="6.17725">
        <ele>530.4</ele>
        <time>2026-05-24T08:40:10Z</time>
      </trkpt>
      <trkpt lat="47.16196" lon="6.17723">
        <ele>530.6</ele>
        <time>2026-05-24T08:40:11Z</time>
      </trkpt>
      <trkpt lat="47.16197" lon="6.1772">
        <ele>530.6</ele>
        <time>2026-05-24T08:40:12Z</time>
      </trkpt>
      <trkpt lat="47.16199" lon="6.17718">
        <ele>530.6</ele>
        <time>2026-05-24T08:40:13Z</time>
      </trkpt>
      <trkpt lat="47.16201" lon="6.17715">
        <ele>530.8</ele>
        <time>2026-05-24T08:40:14Z</time>
      </trkpt>
      <trkpt lat="47.16202" lon="6.17713">
        <ele>530.8</ele>
        <time>2026-05-24T08:40:15Z</time>
      </trkpt>
      <trkpt lat="47.16204" lon="6.17711">
        <ele>531</ele>
        <time>2026-05-24T08:40:16Z</time>
      </trkpt>
      <trkpt lat="47.16205" lon="6.17709">
        <ele>531</ele>
        <time>2026-05-24T08:40:17Z</time>
      </trkpt>
      <trkpt lat="47.16207" lon="6.17706">
        <ele>531</ele>
        <time>2026-05-24T08:40:18Z</time>
      </trkpt>
      <trkpt lat="47.16209" lon="6.17703">
        <ele>531.2</ele>
        <time>2026-05-24T08:40:19Z</time>
      </trkpt>
      <trkpt lat="47.16211" lon="6.177">
        <ele>531.2</ele>
        <time>2026-05-24T08:40:20Z</time>
      </trkpt>
      <trkpt lat="47.16212" lon="6.17697">
        <ele>531</ele>
        <time>2026-05-24T08:40:21Z</time>
      </trkpt>
      <trkpt lat="47.16214" lon="6.17694">
        <ele>531</ele>
        <time>2026-05-24T08:40:22Z</time>
      </trkpt>
      <trkpt lat="47.16216" lon="6.17691">
        <ele>531.2</ele>
        <time>2026-05-24T08:40:23Z</time>
      </trkpt>
      <trkpt lat="47.16217" lon="6.17687">
        <ele>531.2</ele>
        <time>2026-05-24T08:40:24Z</time>
      </trkpt>
      <trkpt lat="47.16219" lon="6.17684">
        <ele>531.2</ele>
        <time>2026-05-24T08:40:25Z</time>
      </trkpt>
      <trkpt lat="47.1622" lon="6.1768">
        <ele>531.2</ele>
        <time>2026-05-24T08:40:26Z</time>
      </trkpt>
      <trkpt lat="47.16222" lon="6.17676">
        <ele>531.2</ele>
        <time>2026-05-24T08:40:27Z</time>
      </trkpt>
      <trkpt lat="47.16224" lon="6.17673">
        <ele>531.2</ele>
        <time>2026-05-24T08:40:28Z</time>
      </trkpt>
      <trkpt lat="47.16225" lon="6.1767">
        <ele>531.2</ele>
        <time>2026-05-24T08:40:29Z</time>
      </trkpt>
      <trkpt lat="47.16227" lon="6.17668">
        <ele>531.2</ele>
        <time>2026-05-24T08:40:30Z</time>
      </trkpt>
      <trkpt lat="47.16228" lon="6.17665">
        <ele>531.2</ele>
        <time>2026-05-24T08:40:31Z</time>
      </trkpt>
      <trkpt lat="47.16229" lon="6.17661">
        <ele>531.2</ele>
        <time>2026-05-24T08:40:32Z</time>
      </trkpt>
      <trkpt lat="47.16231" lon="6.17659">
        <ele>531.2</ele>
        <time>2026-05-24T08:40:33Z</time>
      </trkpt>
      <trkpt lat="47.16232" lon="6.17657">
        <ele>531.2</ele>
        <time>2026-05-24T08:40:34Z</time>
      </trkpt>
      <trkpt lat="47.16232" lon="6.17655">
        <ele>531.2</ele>
        <time>2026-05-24T08:40:35Z</time>
      </trkpt>
      <trkpt lat="47.16233" lon="6.17653">
        <ele>531.2</ele>
        <time>2026-05-24T08:40:36Z</time>
      </trkpt>
      <trkpt lat="47.16236" lon="6.17651">
        <ele>531.2</ele>
        <time>2026-05-24T08:40:37Z</time>
      </trkpt>
      <trkpt lat="47.16238" lon="6.17651">
        <ele>531</ele>
        <time>2026-05-24T08:40:38Z</time>
      </trkpt>
      <trkpt lat="47.16229" lon="6.17632">
        <ele>530.8</ele>
        <time>2026-05-24T08:41:13Z</time>
      </trkpt>
      <trkpt lat="47.16228" lon="6.17631">
        <ele>530.8</ele>
        <time>2026-05-24T08:41:14Z</time>
      </trkpt>
      <trkpt lat="47.16225" lon="6.17629">
        <ele>530.8</ele>
        <time>2026-05-24T08:41:15Z</time>
      </trkpt>
      <trkpt lat="47.16223" lon="6.17627">
        <ele>530.8</ele>
        <time>2026-05-24T08:41:16Z</time>
      </trkpt>
      <trkpt lat="47.16221" lon="6.17624">
        <ele>530.6</ele>
        <time>2026-05-24T08:41:17Z</time>
      </trkpt>
      <trkpt lat="47.16219" lon="6.17622">
        <ele>530.6</ele>
        <time>2026-05-24T08:41:18Z</time>
      </trkpt>
      <trkpt lat="47.16216" lon="6.17619">
        <ele>530.4</ele>
        <time>2026-05-24T08:41:19Z</time>
      </trkpt>
      <trkpt lat="47.16213" lon="6.17617">
        <ele>530.2</ele>
        <time>2026-05-24T08:41:20Z</time>
      </trkpt>
      <trkpt lat="47.1621" lon="6.17613">
        <ele>530</ele>
        <time>2026-05-24T08:41:21Z</time>
      </trkpt>
      <trkpt lat="47.16207" lon="6.1761">
        <ele>529.8</ele>
        <time>2026-05-24T08:41:22Z</time>
      </trkpt>
      <trkpt lat="47.16204" lon="6.17607">
        <ele>529.8</ele>
        <time>2026-05-24T08:41:23Z</time>
      </trkpt>
      <trkpt lat="47.16202" lon="6.17602">
        <ele>529.6</ele>
        <time>2026-05-24T08:41:24Z</time>
      </trkpt>
      <trkpt lat="47.16198" lon="6.17598">
        <ele>529.4</ele>
        <time>2026-05-24T08:41:25Z</time>
      </trkpt>
      <trkpt lat="47.16193" lon="6.17592">
        <ele>529.2</ele>
        <time>2026-05-24T08:41:26Z</time>
      </trkpt>
      <trkpt lat="47.16188" lon="6.17579">
        <ele>529</ele>
        <time>2026-05-24T08:41:27Z</time>
      </trkpt>
      <trkpt lat="47.16182" lon="6.17571">
        <ele>529</ele>
        <time>2026-05-24T08:41:28Z</time>
      </trkpt>
      <trkpt lat="47.16177" lon="6.17562">
        <ele>528.8</ele>
        <time>2026-05-24T08:41:29Z</time>
      </trkpt>
      <trkpt lat="47.16172" lon="6.17555">
        <ele>528.4</ele>
        <time>2026-05-24T08:41:30Z</time>
      </trkpt>
      <trkpt lat="47.16166" lon="6.17547">
        <ele>528</ele>
        <time>2026-05-24T08:41:31Z</time>
      </trkpt>
      <trkpt lat="47.16157" lon="6.17536">
        <ele>527.6</ele>
        <time>2026-05-24T08:41:32Z</time>
      </trkpt>
      <trkpt lat="47.16151" lon="6.17528">
        <ele>527.2</ele>
        <time>2026-05-24T08:41:33Z</time>
      </trkpt>
      <trkpt lat="47.16141" lon="6.17516">
        <ele>527</ele>
        <time>2026-05-24T08:41:34Z</time>
      </trkpt>
      <trkpt lat="47.16135" lon="6.17508">
        <ele>526.6</ele>
        <time>2026-05-24T08:41:35Z</time>
      </trkpt>
      <trkpt lat="47.16128" lon="6.17501">
        <ele>526.4</ele>
        <time>2026-05-24T08:41:36Z</time>
      </trkpt>
      <trkpt lat="47.16121" lon="6.17492">
        <ele>526</ele>
        <time>2026-05-24T08:41:37Z</time>
      </trkpt>
      <trkpt lat="47.16112" lon="6.17482">
        <ele>526</ele>
        <time>2026-05-24T08:41:38Z</time>
      </trkpt>
      <trkpt lat="47.16106" lon="6.17475">
        <ele>525.6</ele>
        <time>2026-05-24T08:41:39Z</time>
      </trkpt>
      <trkpt lat="47.16101" lon="6.17468">
        <ele>525.4</ele>
        <time>2026-05-24T08:41:40Z</time>
      </trkpt>
      <trkpt lat="47.16095" lon="6.17462">
        <ele>525</ele>
        <time>2026-05-24T08:41:41Z</time>
      </trkpt>
      <trkpt lat="47.16089" lon="6.17456">
        <ele>524.6</ele>
        <time>2026-05-24T08:41:42Z</time>
      </trkpt>
      <trkpt lat="47.16084" lon="6.1745">
        <ele>524.4</ele>
        <time>2026-05-24T08:41:43Z</time>
      </trkpt>
      <trkpt lat="47.16079" lon="6.17444">
        <ele>524</ele>
        <time>2026-05-24T08:41:44Z</time>
      </trkpt>
      <trkpt lat="47.16073" lon="6.17437">
        <ele>523.6</ele>
        <time>2026-05-24T08:41:45Z</time>
      </trkpt>
      <trkpt lat="47.16067" lon="6.17432">
        <ele>523.4</ele>
        <time>2026-05-24T08:41:46Z</time>
      </trkpt>
      <trkpt lat="47.16061" lon="6.17425">
        <ele>523.2</ele>
        <time>2026-05-24T08:41:47Z</time>
      </trkpt>
      <trkpt lat="47.16056" lon="6.17419">
        <ele>523</ele>
        <time>2026-05-24T08:41:48Z</time>
      </trkpt>
      <trkpt lat="47.16051" lon="6.17413">
        <ele>522.4</ele>
        <time>2026-05-24T08:41:49Z</time>
      </trkpt>
      <trkpt lat="47.16045" lon="6.17405">
        <ele>522</ele>
        <time>2026-05-24T08:41:50Z</time>
      </trkpt>
      <trkpt lat="47.16041" lon="6.17396">
        <ele>521.8</ele>
        <time>2026-05-24T08:41:51Z</time>
      </trkpt>
      <trkpt lat="47.16037" lon="6.17388">
        <ele>521.2</ele>
        <time>2026-05-24T08:41:52Z</time>
      </trkpt>
      <trkpt lat="47.16036" lon="6.1738">
        <ele>520.6</ele>
        <time>2026-05-24T08:41:53Z</time>
      </trkpt>
      <trkpt lat="47.16034" lon="6.17371">
        <ele>520</ele>
        <time>2026-05-24T08:41:54Z</time>
      </trkpt>
      <trkpt lat="47.16034" lon="6.17364">
        <ele>520</ele>
        <time>2026-05-24T08:41:55Z</time>
      </trkpt>
      <trkpt lat="47.16033" lon="6.17356">
        <ele>519.6</ele>
        <time>2026-05-24T08:41:56Z</time>
      </trkpt>
      <trkpt lat="47.16032" lon="6.17349">
        <ele>519.6</ele>
        <time>2026-05-24T08:41:57Z</time>
      </trkpt>
      <trkpt lat="47.16032" lon="6.17343">
        <ele>519.6</ele>
        <time>2026-05-24T08:41:58Z</time>
      </trkpt>
      <trkpt lat="47.16031" lon="6.17338">
        <ele>519.6</ele>
        <time>2026-05-24T08:41:59Z</time>
      </trkpt>
      <trkpt lat="47.16031" lon="6.17332">
        <ele>519.6</ele>
        <time>2026-05-24T08:42:00Z</time>
      </trkpt>
      <trkpt lat="47.16032" lon="6.17326">
        <ele>519.6</ele>
        <time>2026-05-24T08:42:01Z</time>
      </trkpt>
      <trkpt lat="47.16033" lon="6.17319">
        <ele>519.6</ele>
        <time>2026-05-24T08:42:02Z</time>
      </trkpt>
      <trkpt lat="47.16035" lon="6.17314">
        <ele>519.4</ele>
        <time>2026-05-24T08:42:03Z</time>
      </trkpt>
      <trkpt lat="47.16037" lon="6.17308">
        <ele>519.4</ele>
        <time>2026-05-24T08:42:04Z</time>
      </trkpt>
      <trkpt lat="47.16038" lon="6.17303">
        <ele>519.6</ele>
        <time>2026-05-24T08:42:05Z</time>
      </trkpt>
      <trkpt lat="47.16039" lon="6.17298">
        <ele>519.6</ele>
        <time>2026-05-24T08:42:06Z</time>
      </trkpt>
      <trkpt lat="47.1604" lon="6.17294">
        <ele>519.6</ele>
        <time>2026-05-24T08:42:07Z</time>
      </trkpt>
      <trkpt lat="47.16042" lon="6.17288">
        <ele>519.8</ele>
        <time>2026-05-24T08:42:08Z</time>
      </trkpt>
      <trkpt lat="47.16043" lon="6.17284">
        <ele>520</ele>
        <time>2026-05-24T08:42:09Z</time>
      </trkpt>
      <trkpt lat="47.16044" lon="6.17279">
        <ele>520.4</ele>
        <time>2026-05-24T08:42:10Z</time>
      </trkpt>
      <trkpt lat="47.16045" lon="6.17273">
        <ele>520.6</ele>
        <time>2026-05-24T08:42:11Z</time>
      </trkpt>
      <trkpt lat="47.16045" lon="6.17268">
        <ele>521</ele>
        <time>2026-05-24T08:42:12Z</time>
      </trkpt>
      <trkpt lat="47.16045" lon="6.17262">
        <ele>521</ele>
        <time>2026-05-24T08:42:13Z</time>
      </trkpt>
      <trkpt lat="47.16045" lon="6.17257">
        <ele>521.4</ele>
        <time>2026-05-24T08:42:14Z</time>
      </trkpt>
      <trkpt lat="47.16045" lon="6.17253">
        <ele>521.6</ele>
        <time>2026-05-24T08:42:15Z</time>
      </trkpt>
      <trkpt lat="47.16046" lon="6.17248">
        <ele>522</ele>
        <time>2026-05-24T08:42:16Z</time>
      </trkpt>
      <trkpt lat="47.16046" lon="6.17244">
        <ele>522.6</ele>
        <time>2026-05-24T08:42:17Z</time>
      </trkpt>
      <trkpt lat="47.16047" lon="6.17239">
        <ele>522.8</ele>
        <time>2026-05-24T08:42:18Z</time>
      </trkpt>
      <trkpt lat="47.16047" lon="6.17235">
        <ele>523.2</ele>
        <time>2026-05-24T08:42:19Z</time>
      </trkpt>
      <trkpt lat="47.16048" lon="6.1723">
        <ele>523.4</ele>
        <time>2026-05-24T08:42:20Z</time>
      </trkpt>
      <trkpt lat="47.16048" lon="6.17226">
        <ele>523.8</ele>
        <time>2026-05-24T08:42:21Z</time>
      </trkpt>
      <trkpt lat="47.16049" lon="6.17221">
        <ele>523.8</ele>
        <time>2026-05-24T08:42:22Z</time>
      </trkpt>
      <trkpt lat="47.1605" lon="6.17217">
        <ele>524</ele>
        <time>2026-05-24T08:42:23Z</time>
      </trkpt>
      <trkpt lat="47.1605" lon="6.17212">
        <ele>524.4</ele>
        <time>2026-05-24T08:42:24Z</time>
      </trkpt>
      <trkpt lat="47.16051" lon="6.17208">
        <ele>524.6</ele>
        <time>2026-05-24T08:42:25Z</time>
      </trkpt>
      <trkpt lat="47.16052" lon="6.17204">
        <ele>524.8</ele>
        <time>2026-05-24T08:42:26Z</time>
      </trkpt>
      <trkpt lat="47.16053" lon="6.172">
        <ele>524.8</ele>
        <time>2026-05-24T08:42:27Z</time>
      </trkpt>
      <trkpt lat="47.16054" lon="6.17195">
        <ele>525</ele>
        <time>2026-05-24T08:42:28Z</time>
      </trkpt>
      <trkpt lat="47.16055" lon="6.1719">
        <ele>525.2</ele>
        <time>2026-05-24T08:42:29Z</time>
      </trkpt>
      <trkpt lat="47.16056" lon="6.17185">
        <ele>525.4</ele>
        <time>2026-05-24T08:42:30Z</time>
      </trkpt>
      <trkpt lat="47.16057" lon="6.17181">
        <ele>525.4</ele>
        <time>2026-05-24T08:42:31Z</time>
      </trkpt>
      <trkpt lat="47.16057" lon="6.17176">
        <ele>525.2</ele>
        <time>2026-05-24T08:42:32Z</time>
      </trkpt>
      <trkpt lat="47.16059" lon="6.17172">
        <ele>525.4</ele>
        <time>2026-05-24T08:42:33Z</time>
      </trkpt>
      <trkpt lat="47.1606" lon="6.17168">
        <ele>525.2</ele>
        <time>2026-05-24T08:42:34Z</time>
      </trkpt>
      <trkpt lat="47.16061" lon="6.17163">
        <ele>525.4</ele>
        <time>2026-05-24T08:42:35Z</time>
      </trkpt>
      <trkpt lat="47.16062" lon="6.17158">
        <ele>525.4</ele>
        <time>2026-05-24T08:42:36Z</time>
      </trkpt>
      <trkpt lat="47.16063" lon="6.17153">
        <ele>525.4</ele>
        <time>2026-05-24T08:42:37Z</time>
      </trkpt>
      <trkpt lat="47.16064" lon="6.17149">
        <ele>525.4</ele>
        <time>2026-05-24T08:42:38Z</time>
      </trkpt>
      <trkpt lat="47.16065" lon="6.17144">
        <ele>525.6</ele>
        <time>2026-05-24T08:42:39Z</time>
      </trkpt>
      <trkpt lat="47.16066" lon="6.17139">
        <ele>525.4</ele>
        <time>2026-05-24T08:42:40Z</time>
      </trkpt>
      <trkpt lat="47.16068" lon="6.17134">
        <ele>525.4</ele>
        <time>2026-05-24T08:42:41Z</time>
      </trkpt>
      <trkpt lat="47.16069" lon="6.17129">
        <ele>525.4</ele>
        <time>2026-05-24T08:42:42Z</time>
      </trkpt>
      <trkpt lat="47.1607" lon="6.17123">
        <ele>525.4</ele>
        <time>2026-05-24T08:42:43Z</time>
      </trkpt>
      <trkpt lat="47.16072" lon="6.17118">
        <ele>525.4</ele>
        <time>2026-05-24T08:42:44Z</time>
      </trkpt>
      <trkpt lat="47.16073" lon="6.17112">
        <ele>525.4</ele>
        <time>2026-05-24T08:42:45Z</time>
      </trkpt>
      <trkpt lat="47.16075" lon="6.17106">
        <ele>525.2</ele>
        <time>2026-05-24T08:42:46Z</time>
      </trkpt>
      <trkpt lat="47.16076" lon="6.171">
        <ele>525.4</ele>
        <time>2026-05-24T08:42:47Z</time>
      </trkpt>
      <trkpt lat="47.16077" lon="6.17094">
        <ele>525.2</ele>
        <time>2026-05-24T08:42:48Z</time>
      </trkpt>
      <trkpt lat="47.16079" lon="6.17089">
        <ele>525.2</ele>
        <time>2026-05-24T08:42:49Z</time>
      </trkpt>
      <trkpt lat="47.1608" lon="6.17083">
        <ele>525</ele>
        <time>2026-05-24T08:42:50Z</time>
      </trkpt>
      <trkpt lat="47.16082" lon="6.17077">
        <ele>525.2</ele>
        <time>2026-05-24T08:42:51Z</time>
      </trkpt>
      <trkpt lat="47.16083" lon="6.17072">
        <ele>525</ele>
        <time>2026-05-24T08:42:52Z</time>
      </trkpt>
      <trkpt lat="47.16084" lon="6.17067">
        <ele>525.2</ele>
        <time>2026-05-24T08:42:53Z</time>
      </trkpt>
      <trkpt lat="47.16085" lon="6.17063">
        <ele>525.2</ele>
        <time>2026-05-24T08:42:54Z</time>
      </trkpt>
      <trkpt lat="47.16086" lon="6.17058">
        <ele>525.2</ele>
        <time>2026-05-24T08:42:55Z</time>
      </trkpt>
      <trkpt lat="47.16087" lon="6.17054">
        <ele>525.2</ele>
        <time>2026-05-24T08:42:56Z</time>
      </trkpt>
      <trkpt lat="47.16088" lon="6.17049">
        <ele>525</ele>
        <time>2026-05-24T08:42:57Z</time>
      </trkpt>
      <trkpt lat="47.16089" lon="6.17045">
        <ele>525.2</ele>
        <time>2026-05-24T08:42:58Z</time>
      </trkpt>
      <trkpt lat="47.1609" lon="6.1704">
        <ele>525.2</ele>
        <time>2026-05-24T08:42:59Z</time>
      </trkpt>
      <trkpt lat="47.1609" lon="6.17035">
        <ele>525.2</ele>
        <time>2026-05-24T08:43:00Z</time>
      </trkpt>
      <trkpt lat="47.16091" lon="6.1703">
        <ele>525.2</ele>
        <time>2026-05-24T08:43:01Z</time>
      </trkpt>
      <trkpt lat="47.16091" lon="6.17026">
        <ele>525.4</ele>
        <time>2026-05-24T08:43:02Z</time>
      </trkpt>
      <trkpt lat="47.16092" lon="6.17021">
        <ele>525.6</ele>
        <time>2026-05-24T08:43:03Z</time>
      </trkpt>
      <trkpt lat="47.16093" lon="6.17016">
        <ele>525.8</ele>
        <time>2026-05-24T08:43:04Z</time>
      </trkpt>
      <trkpt lat="47.16095" lon="6.17011">
        <ele>526</ele>
        <time>2026-05-24T08:43:05Z</time>
      </trkpt>
      <trkpt lat="47.16096" lon="6.17007">
        <ele>526.2</ele>
        <time>2026-05-24T08:43:06Z</time>
      </trkpt>
      <trkpt lat="47.16097" lon="6.17002">
        <ele>526.2</ele>
        <time>2026-05-24T08:43:07Z</time>
      </trkpt>
      <trkpt lat="47.16098" lon="6.16997">
        <ele>526.4</ele>
        <time>2026-05-24T08:43:08Z</time>
      </trkpt>
      <trkpt lat="47.161" lon="6.16992">
        <ele>526.4</ele>
        <time>2026-05-24T08:43:09Z</time>
      </trkpt>
      <trkpt lat="47.16101" lon="6.16987">
        <ele>526.4</ele>
        <time>2026-05-24T08:43:10Z</time>
      </trkpt>
      <trkpt lat="47.16103" lon="6.16981">
        <ele>526.6</ele>
        <time>2026-05-24T08:43:11Z</time>
      </trkpt>
      <trkpt lat="47.16105" lon="6.16975">
        <ele>526.4</ele>
        <time>2026-05-24T08:43:12Z</time>
      </trkpt>
      <trkpt lat="47.16107" lon="6.16968">
        <ele>526.6</ele>
        <time>2026-05-24T08:43:13Z</time>
      </trkpt>
      <trkpt lat="47.16109" lon="6.16961">
        <ele>526.4</ele>
        <time>2026-05-24T08:43:14Z</time>
      </trkpt>
      <trkpt lat="47.16111" lon="6.16953">
        <ele>526.4</ele>
        <time>2026-05-24T08:43:15Z</time>
      </trkpt>
      <trkpt lat="47.16113" lon="6.16946">
        <ele>526.6</ele>
        <time>2026-05-24T08:43:16Z</time>
      </trkpt>
      <trkpt lat="47.16115" lon="6.16937">
        <ele>526.4</ele>
        <time>2026-05-24T08:43:17Z</time>
      </trkpt>
      <trkpt lat="47.16118" lon="6.16929">
        <ele>526.4</ele>
        <time>2026-05-24T08:43:18Z</time>
      </trkpt>
      <trkpt lat="47.16121" lon="6.1692">
        <ele>526</ele>
        <time>2026-05-24T08:43:19Z</time>
      </trkpt>
      <trkpt lat="47.16123" lon="6.16911">
        <ele>525.8</ele>
        <time>2026-05-24T08:43:20Z</time>
      </trkpt>
      <trkpt lat="47.16126" lon="6.16902">
        <ele>525.2</ele>
        <time>2026-05-24T08:43:21Z</time>
      </trkpt>
      <trkpt lat="47.16128" lon="6.16892">
        <ele>525.2</ele>
        <time>2026-05-24T08:43:22Z</time>
      </trkpt>
      <trkpt lat="47.16131" lon="6.16882">
        <ele>525</ele>
        <time>2026-05-24T08:43:23Z</time>
      </trkpt>
      <trkpt lat="47.16133" lon="6.16872">
        <ele>524.6</ele>
        <time>2026-05-24T08:43:24Z</time>
      </trkpt>
      <trkpt lat="47.16136" lon="6.16861">
        <ele>524.2</ele>
        <time>2026-05-24T08:43:25Z</time>
      </trkpt>
      <trkpt lat="47.16138" lon="6.16851">
        <ele>523.8</ele>
        <time>2026-05-24T08:43:26Z</time>
      </trkpt>
      <trkpt lat="47.1614" lon="6.16841">
        <ele>523.4</ele>
        <time>2026-05-24T08:43:27Z</time>
      </trkpt>
      <trkpt lat="47.16142" lon="6.16833">
        <ele>522.8</ele>
        <time>2026-05-24T08:43:28Z</time>
      </trkpt>
      <trkpt lat="47.16144" lon="6.16825">
        <ele>522.8</ele>
        <time>2026-05-24T08:43:29Z</time>
      </trkpt>
      <trkpt lat="47.16146" lon="6.16818">
        <ele>522.2</ele>
        <time>2026-05-24T08:43:30Z</time>
      </trkpt>
      <trkpt lat="47.16148" lon="6.16811">
        <ele>521.6</ele>
        <time>2026-05-24T08:43:31Z</time>
      </trkpt>
      <trkpt lat="47.1615" lon="6.16805">
        <ele>520.8</ele>
        <time>2026-05-24T08:43:32Z</time>
      </trkpt>
      <trkpt lat="47.16151" lon="6.16799">
        <ele>520.4</ele>
        <time>2026-05-24T08:43:33Z</time>
      </trkpt>
      <trkpt lat="47.16153" lon="6.16793">
        <ele>520.2</ele>
        <time>2026-05-24T08:43:34Z</time>
      </trkpt>
      <trkpt lat="47.16155" lon="6.16787">
        <ele>520</ele>
        <time>2026-05-24T08:43:35Z</time>
      </trkpt>
      <trkpt lat="47.16156" lon="6.16782">
        <ele>519.8</ele>
        <time>2026-05-24T08:43:36Z</time>
      </trkpt>
      <trkpt lat="47.16157" lon="6.16776">
        <ele>519.6</ele>
        <time>2026-05-24T08:43:37Z</time>
      </trkpt>
      <trkpt lat="47.16159" lon="6.1677">
        <ele>519.8</ele>
        <time>2026-05-24T08:43:38Z</time>
      </trkpt>
      <trkpt lat="47.16161" lon="6.16763">
        <ele>519.6</ele>
        <time>2026-05-24T08:43:39Z</time>
      </trkpt>
      <trkpt lat="47.16163" lon="6.16756">
        <ele>519.6</ele>
        <time>2026-05-24T08:43:40Z</time>
      </trkpt>
      <trkpt lat="47.16165" lon="6.16749">
        <ele>519.4</ele>
        <time>2026-05-24T08:43:41Z</time>
      </trkpt>
      <trkpt lat="47.16167" lon="6.16742">
        <ele>519.4</ele>
        <time>2026-05-24T08:43:42Z</time>
      </trkpt>
      <trkpt lat="47.16169" lon="6.16733">
        <ele>519.4</ele>
        <time>2026-05-24T08:43:43Z</time>
      </trkpt>
      <trkpt lat="47.16172" lon="6.16724">
        <ele>519.4</ele>
        <time>2026-05-24T08:43:44Z</time>
      </trkpt>
      <trkpt lat="47.16175" lon="6.16715">
        <ele>519.2</ele>
        <time>2026-05-24T08:43:45Z</time>
      </trkpt>
      <trkpt lat="47.16177" lon="6.16705">
        <ele>519</ele>
        <time>2026-05-24T08:43:46Z</time>
      </trkpt>
      <trkpt lat="47.1618" lon="6.16695">
        <ele>518.8</ele>
        <time>2026-05-24T08:43:47Z</time>
      </trkpt>
      <trkpt lat="47.16184" lon="6.16684">
        <ele>518.8</ele>
        <time>2026-05-24T08:43:48Z</time>
      </trkpt>
      <trkpt lat="47.16187" lon="6.16673">
        <ele>518.4</ele>
        <time>2026-05-24T08:43:49Z</time>
      </trkpt>
      <trkpt lat="47.1619" lon="6.16662">
        <ele>518.2</ele>
        <time>2026-05-24T08:43:50Z</time>
      </trkpt>
      <trkpt lat="47.16194" lon="6.16652">
        <ele>518.2</ele>
        <time>2026-05-24T08:43:51Z</time>
      </trkpt>
      <trkpt lat="47.16198" lon="6.16642">
        <ele>517.8</ele>
        <time>2026-05-24T08:43:52Z</time>
      </trkpt>
      <trkpt lat="47.16202" lon="6.16633">
        <ele>517.4</ele>
        <time>2026-05-24T08:43:53Z</time>
      </trkpt>
      <trkpt lat="47.16206" lon="6.16625">
        <ele>517</ele>
        <time>2026-05-24T08:43:54Z</time>
      </trkpt>
      <trkpt lat="47.1621" lon="6.16618">
        <ele>516.4</ele>
        <time>2026-05-24T08:43:55Z</time>
      </trkpt>
      <trkpt lat="47.16215" lon="6.16611">
        <ele>515.8</ele>
        <time>2026-05-24T08:43:56Z</time>
      </trkpt>
      <trkpt lat="47.16219" lon="6.16605">
        <ele>515.2</ele>
        <time>2026-05-24T08:43:57Z</time>
      </trkpt>
      <trkpt lat="47.16222" lon="6.166">
        <ele>515</ele>
        <time>2026-05-24T08:43:58Z</time>
      </trkpt>
      <trkpt lat="47.16226" lon="6.16594">
        <ele>514.8</ele>
        <time>2026-05-24T08:43:59Z</time>
      </trkpt>
      <trkpt lat="47.16229" lon="6.16589">
        <ele>514.8</ele>
        <time>2026-05-24T08:44:00Z</time>
      </trkpt>
      <trkpt lat="47.16232" lon="6.16584">
        <ele>514.6</ele>
        <time>2026-05-24T08:44:01Z</time>
      </trkpt>
      <trkpt lat="47.16235" lon="6.16579">
        <ele>514.6</ele>
        <time>2026-05-24T08:44:02Z</time>
      </trkpt>
      <trkpt lat="47.16237" lon="6.16573">
        <ele>514.6</ele>
        <time>2026-05-24T08:44:03Z</time>
      </trkpt>
      <trkpt lat="47.16239" lon="6.16567">
        <ele>514.6</ele>
        <time>2026-05-24T08:44:04Z</time>
      </trkpt>
      <trkpt lat="47.16241" lon="6.16562">
        <ele>514.8</ele>
        <time>2026-05-24T08:44:05Z</time>
      </trkpt>
      <trkpt lat="47.16242" lon="6.16556">
        <ele>514.6</ele>
        <time>2026-05-24T08:44:06Z</time>
      </trkpt>
      <trkpt lat="47.16244" lon="6.1655">
        <ele>514.8</ele>
        <time>2026-05-24T08:44:07Z</time>
      </trkpt>
      <trkpt lat="47.16245" lon="6.16544">
        <ele>514.8</ele>
        <time>2026-05-24T08:44:08Z</time>
      </trkpt>
      <trkpt lat="47.16246" lon="6.16538">
        <ele>514.8</ele>
        <time>2026-05-24T08:44:09Z</time>
      </trkpt>
      <trkpt lat="47.16247" lon="6.16533">
        <ele>514.8</ele>
        <time>2026-05-24T08:44:10Z</time>
      </trkpt>
      <trkpt lat="47.16248" lon="6.16527">
        <ele>515.2</ele>
        <time>2026-05-24T08:44:11Z</time>
      </trkpt>
      <trkpt lat="47.16248" lon="6.16521">
        <ele>515.4</ele>
        <time>2026-05-24T08:44:12Z</time>
      </trkpt>
      <trkpt lat="47.16249" lon="6.16516">
        <ele>515.4</ele>
        <time>2026-05-24T08:44:13Z</time>
      </trkpt>
      <trkpt lat="47.16249" lon="6.1651">
        <ele>515.6</ele>
        <time>2026-05-24T08:44:14Z</time>
      </trkpt>
      <trkpt lat="47.1625" lon="6.16504">
        <ele>515.8</ele>
        <time>2026-05-24T08:44:15Z</time>
      </trkpt>
      <trkpt lat="47.1625" lon="6.16498">
        <ele>515.8</ele>
        <time>2026-05-24T08:44:16Z</time>
      </trkpt>
      <trkpt lat="47.16251" lon="6.16492">
        <ele>516</ele>
        <time>2026-05-24T08:44:17Z</time>
      </trkpt>
      <trkpt lat="47.16251" lon="6.16487">
        <ele>516</ele>
        <time>2026-05-24T08:44:18Z</time>
      </trkpt>
      <trkpt lat="47.16252" lon="6.16481">
        <ele>516.4</ele>
        <time>2026-05-24T08:44:19Z</time>
      </trkpt>
      <trkpt lat="47.16253" lon="6.16475">
        <ele>516.4</ele>
        <time>2026-05-24T08:44:20Z</time>
      </trkpt>
      <trkpt lat="47.16254" lon="6.16469">
        <ele>516.8</ele>
        <time>2026-05-24T08:44:21Z</time>
      </trkpt>
      <trkpt lat="47.16254" lon="6.16464">
        <ele>517</ele>
        <time>2026-05-24T08:44:22Z</time>
      </trkpt>
      <trkpt lat="47.16255" lon="6.16459">
        <ele>517</ele>
        <time>2026-05-24T08:44:23Z</time>
      </trkpt>
      <trkpt lat="47.16256" lon="6.16453">
        <ele>517.2</ele>
        <time>2026-05-24T08:44:24Z</time>
      </trkpt>
      <trkpt lat="47.16257" lon="6.16448">
        <ele>517.4</ele>
        <time>2026-05-24T08:44:25Z</time>
      </trkpt>
      <trkpt lat="47.16258" lon="6.16442">
        <ele>517.4</ele>
        <time>2026-05-24T08:44:26Z</time>
      </trkpt>
      <trkpt lat="47.16259" lon="6.16437">
        <ele>517.6</ele>
        <time>2026-05-24T08:44:27Z</time>
      </trkpt>
      <trkpt lat="47.1626" lon="6.16431">
        <ele>517.8</ele>
        <time>2026-05-24T08:44:28Z</time>
      </trkpt>
      <trkpt lat="47.16262" lon="6.16426">
        <ele>518</ele>
        <time>2026-05-24T08:44:29Z</time>
      </trkpt>
      <trkpt lat="47.16264" lon="6.16421">
        <ele>518.2</ele>
        <time>2026-05-24T08:44:30Z</time>
      </trkpt>
      <trkpt lat="47.16265" lon="6.16416">
        <ele>518.4</ele>
        <time>2026-05-24T08:44:31Z</time>
      </trkpt>
      <trkpt lat="47.16267" lon="6.16411">
        <ele>518.8</ele>
        <time>2026-05-24T08:44:32Z</time>
      </trkpt>
      <trkpt lat="47.16269" lon="6.16406">
        <ele>519</ele>
        <time>2026-05-24T08:44:33Z</time>
      </trkpt>
      <trkpt lat="47.16272" lon="6.16401">
        <ele>519.2</ele>
        <time>2026-05-24T08:44:34Z</time>
      </trkpt>
      <trkpt lat="47.16274" lon="6.16397">
        <ele>519.2</ele>
        <time>2026-05-24T08:44:35Z</time>
      </trkpt>
      <trkpt lat="47.16276" lon="6.16392">
        <ele>519.4</ele>
        <time>2026-05-24T08:44:36Z</time>
      </trkpt>
      <trkpt lat="47.16278" lon="6.16388">
        <ele>519.4</ele>
        <time>2026-05-24T08:44:37Z</time>
      </trkpt>
      <trkpt lat="47.1628" lon="6.16383">
        <ele>519.6</ele>
        <time>2026-05-24T08:44:38Z</time>
      </trkpt>
      <trkpt lat="47.16282" lon="6.16379">
        <ele>519.8</ele>
        <time>2026-05-24T08:44:39Z</time>
      </trkpt>
      <trkpt lat="47.16284" lon="6.16375">
        <ele>519.8</ele>
        <time>2026-05-24T08:44:40Z</time>
      </trkpt>
      <trkpt lat="47.16286" lon="6.16371">
        <ele>520.2</ele>
        <time>2026-05-24T08:44:41Z</time>
      </trkpt>
      <trkpt lat="47.16288" lon="6.16367">
        <ele>520.4</ele>
        <time>2026-05-24T08:44:42Z</time>
      </trkpt>
      <trkpt lat="47.1629" lon="6.16362">
        <ele>520.6</ele>
        <time>2026-05-24T08:44:43Z</time>
      </trkpt>
      <trkpt lat="47.16292" lon="6.16358">
        <ele>520.8</ele>
        <time>2026-05-24T08:44:44Z</time>
      </trkpt>
      <trkpt lat="47.16294" lon="6.16355">
        <ele>521.2</ele>
        <time>2026-05-24T08:44:45Z</time>
      </trkpt>
      <trkpt lat="47.16296" lon="6.16351">
        <ele>521.2</ele>
        <time>2026-05-24T08:44:46Z</time>
      </trkpt>
      <trkpt lat="47.16298" lon="6.16347">
        <ele>521.4</ele>
        <time>2026-05-24T08:44:47Z</time>
      </trkpt>
      <trkpt lat="47.163" lon="6.16343">
        <ele>521.8</ele>
        <time>2026-05-24T08:44:48Z</time>
      </trkpt>
      <trkpt lat="47.16302" lon="6.16339">
        <ele>522.2</ele>
        <time>2026-05-24T08:44:49Z</time>
      </trkpt>
      <trkpt lat="47.16304" lon="6.16335">
        <ele>522.2</ele>
        <time>2026-05-24T08:44:50Z</time>
      </trkpt>
      <trkpt lat="47.16306" lon="6.16331">
        <ele>522.4</ele>
        <time>2026-05-24T08:44:51Z</time>
      </trkpt>
      <trkpt lat="47.16308" lon="6.16328">
        <ele>522.6</ele>
        <time>2026-05-24T08:44:52Z</time>
      </trkpt>
      <trkpt lat="47.1631" lon="6.16324">
        <ele>522.8</ele>
        <time>2026-05-24T08:44:53Z</time>
      </trkpt>
      <trkpt lat="47.16312" lon="6.1632">
        <ele>523.2</ele>
        <time>2026-05-24T08:44:54Z</time>
      </trkpt>
      <trkpt lat="47.16314" lon="6.16317">
        <ele>523.2</ele>
        <time>2026-05-24T08:44:55Z</time>
      </trkpt>
      <trkpt lat="47.16316" lon="6.16313">
        <ele>523.4</ele>
        <time>2026-05-24T08:44:56Z</time>
      </trkpt>
      <trkpt lat="47.16318" lon="6.16309">
        <ele>523.4</ele>
        <time>2026-05-24T08:44:57Z</time>
      </trkpt>
      <trkpt lat="47.1632" lon="6.16305">
        <ele>523.6</ele>
        <time>2026-05-24T08:44:58Z</time>
      </trkpt>
      <trkpt lat="47.16322" lon="6.16301">
        <ele>523.8</ele>
        <time>2026-05-24T08:44:59Z</time>
      </trkpt>
      <trkpt lat="47.16324" lon="6.16297">
        <ele>524</ele>
        <time>2026-05-24T08:45:00Z</time>
      </trkpt>
      <trkpt lat="47.16326" lon="6.16293">
        <ele>523.8</ele>
        <time>2026-05-24T08:45:01Z</time>
      </trkpt>
      <trkpt lat="47.16328" lon="6.16289">
        <ele>524</ele>
        <time>2026-05-24T08:45:02Z</time>
      </trkpt>
      <trkpt lat="47.1633" lon="6.16285">
        <ele>524</ele>
        <time>2026-05-24T08:45:03Z</time>
      </trkpt>
      <trkpt lat="47.16332" lon="6.16281">
        <ele>524.2</ele>
        <time>2026-05-24T08:45:04Z</time>
      </trkpt>
      <trkpt lat="47.16335" lon="6.16277">
        <ele>524.4</ele>
        <time>2026-05-24T08:45:05Z</time>
      </trkpt>
      <trkpt lat="47.16337" lon="6.16272">
        <ele>524.4</ele>
        <time>2026-05-24T08:45:06Z</time>
      </trkpt>
      <trkpt lat="47.16339" lon="6.16268">
        <ele>524.6</ele>
        <time>2026-05-24T08:45:07Z</time>
      </trkpt>
      <trkpt lat="47.16341" lon="6.16264">
        <ele>524.6</ele>
        <time>2026-05-24T08:45:08Z</time>
      </trkpt>
      <trkpt lat="47.16343" lon="6.1626">
        <ele>524.6</ele>
        <time>2026-05-24T08:45:09Z</time>
      </trkpt>
      <trkpt lat="47.16346" lon="6.16256">
        <ele>524.8</ele>
        <time>2026-05-24T08:45:10Z</time>
      </trkpt>
      <trkpt lat="47.16348" lon="6.16252">
        <ele>525</ele>
        <time>2026-05-24T08:45:11Z</time>
      </trkpt>
      <trkpt lat="47.1635" lon="6.16248">
        <ele>525</ele>
        <time>2026-05-24T08:45:12Z</time>
      </trkpt>
      <trkpt lat="47.16352" lon="6.16244">
        <ele>525.2</ele>
        <time>2026-05-24T08:45:13Z</time>
      </trkpt>
      <trkpt lat="47.16355" lon="6.16239">
        <ele>525</ele>
        <time>2026-05-24T08:45:14Z</time>
      </trkpt>
      <trkpt lat="47.16357" lon="6.16235">
        <ele>525.2</ele>
        <time>2026-05-24T08:45:15Z</time>
      </trkpt>
      <trkpt lat="47.1636" lon="6.16231">
        <ele>525.2</ele>
        <time>2026-05-24T08:45:16Z</time>
      </trkpt>
      <trkpt lat="47.16362" lon="6.16227">
        <ele>525.6</ele>
        <time>2026-05-24T08:45:17Z</time>
      </trkpt>
      <trkpt lat="47.16364" lon="6.16222">
        <ele>525.8</ele>
        <time>2026-05-24T08:45:18Z</time>
      </trkpt>
      <trkpt lat="47.16367" lon="6.16218">
        <ele>525.8</ele>
        <time>2026-05-24T08:45:19Z</time>
      </trkpt>
      <trkpt lat="47.16369" lon="6.16214">
        <ele>525.6</ele>
        <time>2026-05-24T08:45:20Z</time>
      </trkpt>
      <trkpt lat="47.16371" lon="6.1621">
        <ele>525.8</ele>
        <time>2026-05-24T08:45:21Z</time>
      </trkpt>
      <trkpt lat="47.16374" lon="6.16206">
        <ele>525.8</ele>
        <time>2026-05-24T08:45:22Z</time>
      </trkpt>
      <trkpt lat="47.16376" lon="6.16202">
        <ele>525.8</ele>
        <time>2026-05-24T08:45:23Z</time>
      </trkpt>
      <trkpt lat="47.16379" lon="6.16198">
        <ele>526</ele>
        <time>2026-05-24T08:45:24Z</time>
      </trkpt>
      <trkpt lat="47.16381" lon="6.16195">
        <ele>526</ele>
        <time>2026-05-24T08:45:25Z</time>
      </trkpt>
      <trkpt lat="47.16384" lon="6.16191">
        <ele>526.2</ele>
        <time>2026-05-24T08:45:26Z</time>
      </trkpt>
      <trkpt lat="47.16387" lon="6.16187">
        <ele>526.4</ele>
        <time>2026-05-24T08:45:27Z</time>
      </trkpt>
      <trkpt lat="47.16389" lon="6.16184">
        <ele>526.4</ele>
        <time>2026-05-24T08:45:28Z</time>
      </trkpt>
      <trkpt lat="47.16392" lon="6.1618">
        <ele>526.6</ele>
        <time>2026-05-24T08:45:29Z</time>
      </trkpt>
      <trkpt lat="47.16395" lon="6.16177">
        <ele>526.8</ele>
        <time>2026-05-24T08:45:30Z</time>
      </trkpt>
      <trkpt lat="47.16398" lon="6.16173">
        <ele>526.8</ele>
        <time>2026-05-24T08:45:31Z</time>
      </trkpt>
      <trkpt lat="47.16401" lon="6.16169">
        <ele>527</ele>
        <time>2026-05-24T08:45:32Z</time>
      </trkpt>
      <trkpt lat="47.16403" lon="6.16165">
        <ele>527.2</ele>
        <time>2026-05-24T08:45:33Z</time>
      </trkpt>
      <trkpt lat="47.16406" lon="6.16161">
        <ele>527.4</ele>
        <time>2026-05-24T08:45:34Z</time>
      </trkpt>
      <trkpt lat="47.16408" lon="6.16157">
        <ele>527.6</ele>
        <time>2026-05-24T08:45:35Z</time>
      </trkpt>
      <trkpt lat="47.1641" lon="6.16153">
        <ele>528.2</ele>
        <time>2026-05-24T08:45:36Z</time>
      </trkpt>
      <trkpt lat="47.16412" lon="6.16148">
        <ele>528.4</ele>
        <time>2026-05-24T08:45:37Z</time>
      </trkpt>
      <trkpt lat="47.16414" lon="6.16144">
        <ele>528.6</ele>
        <time>2026-05-24T08:45:38Z</time>
      </trkpt>
      <trkpt lat="47.16415" lon="6.16139">
        <ele>529</ele>
        <time>2026-05-24T08:45:39Z</time>
      </trkpt>
      <trkpt lat="47.16416" lon="6.16134">
        <ele>529.2</ele>
        <time>2026-05-24T08:45:40Z</time>
      </trkpt>
      <trkpt lat="47.16417" lon="6.16129">
        <ele>529.2</ele>
        <time>2026-05-24T08:45:41Z</time>
      </trkpt>
      <trkpt lat="47.16419" lon="6.16125">
        <ele>529.4</ele>
        <time>2026-05-24T08:45:42Z</time>
      </trkpt>
      <trkpt lat="47.1642" lon="6.1612">
        <ele>529.6</ele>
        <time>2026-05-24T08:45:43Z</time>
      </trkpt>
      <trkpt lat="47.16421" lon="6.16115">
        <ele>530</ele>
        <time>2026-05-24T08:45:44Z</time>
      </trkpt>
      <trkpt lat="47.16422" lon="6.1611">
        <ele>530.2</ele>
        <time>2026-05-24T08:45:45Z</time>
      </trkpt>
      <trkpt lat="47.16423" lon="6.16105">
        <ele>530.4</ele>
        <time>2026-05-24T08:45:46Z</time>
      </trkpt>
      <trkpt lat="47.16424" lon="6.161">
        <ele>531</ele>
        <time>2026-05-24T08:45:47Z</time>
      </trkpt>
      <trkpt lat="47.16426" lon="6.16095">
        <ele>531.4</ele>
        <time>2026-05-24T08:45:48Z</time>
      </trkpt>
      <trkpt lat="47.16427" lon="6.16091">
        <ele>531.4</ele>
        <time>2026-05-24T08:45:49Z</time>
      </trkpt>
      <trkpt lat="47.16429" lon="6.16086">
        <ele>531.6</ele>
        <time>2026-05-24T08:45:50Z</time>
      </trkpt>
      <trkpt lat="47.1643" lon="6.16082">
        <ele>531.6</ele>
        <time>2026-05-24T08:45:51Z</time>
      </trkpt>
      <trkpt lat="47.16432" lon="6.16078">
        <ele>532.2</ele>
        <time>2026-05-24T08:45:52Z</time>
      </trkpt>
      <trkpt lat="47.16434" lon="6.16073">
        <ele>532.2</ele>
        <time>2026-05-24T08:45:53Z</time>
      </trkpt>
      <trkpt lat="47.16436" lon="6.16069">
        <ele>532.6</ele>
        <time>2026-05-24T08:45:54Z</time>
      </trkpt>
      <trkpt lat="47.16438" lon="6.16065">
        <ele>532.8</ele>
        <time>2026-05-24T08:45:55Z</time>
      </trkpt>
      <trkpt lat="47.1644" lon="6.16062">
        <ele>533</ele>
        <time>2026-05-24T08:45:56Z</time>
      </trkpt>
      <trkpt lat="47.16443" lon="6.16058">
        <ele>533.6</ele>
        <time>2026-05-24T08:45:57Z</time>
      </trkpt>
      <trkpt lat="47.16445" lon="6.16054">
        <ele>533.8</ele>
        <time>2026-05-24T08:45:58Z</time>
      </trkpt>
      <trkpt lat="47.16447" lon="6.1605">
        <ele>534</ele>
        <time>2026-05-24T08:45:59Z</time>
      </trkpt>
      <trkpt lat="47.16449" lon="6.16046">
        <ele>534.2</ele>
        <time>2026-05-24T08:46:00Z</time>
      </trkpt>
      <trkpt lat="47.16451" lon="6.16041">
        <ele>534.6</ele>
        <time>2026-05-24T08:46:01Z</time>
      </trkpt>
      <trkpt lat="47.16453" lon="6.16037">
        <ele>534.8</ele>
        <time>2026-05-24T08:46:02Z</time>
      </trkpt>
      <trkpt lat="47.16455" lon="6.16032">
        <ele>534.8</ele>
        <time>2026-05-24T08:46:03Z</time>
      </trkpt>
      <trkpt lat="47.16457" lon="6.16027">
        <ele>535</ele>
        <time>2026-05-24T08:46:04Z</time>
      </trkpt>
      <trkpt lat="47.16459" lon="6.16022">
        <ele>535.2</ele>
        <time>2026-05-24T08:46:05Z</time>
      </trkpt>
      <trkpt lat="47.16461" lon="6.16016">
        <ele>535.2</ele>
        <time>2026-05-24T08:46:06Z</time>
      </trkpt>
      <trkpt lat="47.16463" lon="6.16011">
        <ele>535.6</ele>
        <time>2026-05-24T08:46:07Z</time>
      </trkpt>
      <trkpt lat="47.16465" lon="6.16006">
        <ele>535.8</ele>
        <time>2026-05-24T08:46:08Z</time>
      </trkpt>
      <trkpt lat="47.16467" lon="6.16001">
        <ele>536</ele>
        <time>2026-05-24T08:46:09Z</time>
      </trkpt>
      <trkpt lat="47.1647" lon="6.15996">
        <ele>536</ele>
        <time>2026-05-24T08:46:10Z</time>
      </trkpt>
      <trkpt lat="47.16472" lon="6.15992">
        <ele>536</ele>
        <time>2026-05-24T08:46:11Z</time>
      </trkpt>
      <trkpt lat="47.16475" lon="6.15986">
        <ele>536.2</ele>
        <time>2026-05-24T08:46:12Z</time>
      </trkpt>
      <trkpt lat="47.16477" lon="6.15981">
        <ele>536.2</ele>
        <time>2026-05-24T08:46:13Z</time>
      </trkpt>
      <trkpt lat="47.1648" lon="6.15976">
        <ele>536.2</ele>
        <time>2026-05-24T08:46:14Z</time>
      </trkpt>
      <trkpt lat="47.16482" lon="6.15971">
        <ele>536.4</ele>
        <time>2026-05-24T08:46:15Z</time>
      </trkpt>
      <trkpt lat="47.16485" lon="6.15966">
        <ele>536.6</ele>
        <time>2026-05-24T08:46:16Z</time>
      </trkpt>
      <trkpt lat="47.16488" lon="6.15962">
        <ele>536.6</ele>
        <time>2026-05-24T08:46:17Z</time>
      </trkpt>
      <trkpt lat="47.16492" lon="6.15957">
        <ele>536.6</ele>
        <time>2026-05-24T08:46:18Z</time>
      </trkpt>
      <trkpt lat="47.16495" lon="6.15953">
        <ele>536.6</ele>
        <time>2026-05-24T08:46:19Z</time>
      </trkpt>
      <trkpt lat="47.16498" lon="6.15949">
        <ele>536.6</ele>
        <time>2026-05-24T08:46:20Z</time>
      </trkpt>
      <trkpt lat="47.16501" lon="6.15946">
        <ele>536.6</ele>
        <time>2026-05-24T08:46:21Z</time>
      </trkpt>
      <trkpt lat="47.16504" lon="6.15942">
        <ele>536.6</ele>
        <time>2026-05-24T08:46:22Z</time>
      </trkpt>
      <trkpt lat="47.16507" lon="6.15938">
        <ele>536.6</ele>
        <time>2026-05-24T08:46:23Z</time>
      </trkpt>
      <trkpt lat="47.1651" lon="6.15934">
        <ele>536.6</ele>
        <time>2026-05-24T08:46:24Z</time>
      </trkpt>
      <trkpt lat="47.16513" lon="6.15931">
        <ele>536.6</ele>
        <time>2026-05-24T08:46:25Z</time>
      </trkpt>
      <trkpt lat="47.16516" lon="6.15927">
        <ele>536.8</ele>
        <time>2026-05-24T08:46:26Z</time>
      </trkpt>
      <trkpt lat="47.16519" lon="6.15923">
        <ele>536.8</ele>
        <time>2026-05-24T08:46:27Z</time>
      </trkpt>
      <trkpt lat="47.16522" lon="6.15919">
        <ele>536.8</ele>
        <time>2026-05-24T08:46:28Z</time>
      </trkpt>
      <trkpt lat="47.16525" lon="6.15915">
        <ele>536.8</ele>
        <time>2026-05-24T08:46:29Z</time>
      </trkpt>
      <trkpt lat="47.16528" lon="6.15911">
        <ele>536.8</ele>
        <time>2026-05-24T08:46:30Z</time>
      </trkpt>
      <trkpt lat="47.16531" lon="6.15907">
        <ele>536.8</ele>
        <time>2026-05-24T08:46:31Z</time>
      </trkpt>
      <trkpt lat="47.16533" lon="6.15903">
        <ele>536.8</ele>
        <time>2026-05-24T08:46:32Z</time>
      </trkpt>
      <trkpt lat="47.16536" lon="6.15899">
        <ele>537</ele>
        <time>2026-05-24T08:46:33Z</time>
      </trkpt>
      <trkpt lat="47.16539" lon="6.15895">
        <ele>537</ele>
        <time>2026-05-24T08:46:34Z</time>
      </trkpt>
      <trkpt lat="47.16542" lon="6.1589">
        <ele>537</ele>
        <time>2026-05-24T08:46:35Z</time>
      </trkpt>
      <trkpt lat="47.16545" lon="6.15886">
        <ele>537.2</ele>
        <time>2026-05-24T08:46:36Z</time>
      </trkpt>
      <trkpt lat="47.16547" lon="6.15881">
        <ele>537.2</ele>
        <time>2026-05-24T08:46:37Z</time>
      </trkpt>
      <trkpt lat="47.1655" lon="6.15877">
        <ele>537.2</ele>
        <time>2026-05-24T08:46:38Z</time>
      </trkpt>
      <trkpt lat="47.16552" lon="6.15873">
        <ele>537.2</ele>
        <time>2026-05-24T08:46:39Z</time>
      </trkpt>
      <trkpt lat="47.16555" lon="6.15868">
        <ele>537.2</ele>
        <time>2026-05-24T08:46:40Z</time>
      </trkpt>
      <trkpt lat="47.16557" lon="6.15864">
        <ele>537.2</ele>
        <time>2026-05-24T08:46:41Z</time>
      </trkpt>
      <trkpt lat="47.1656" lon="6.1586">
        <ele>537.4</ele>
        <time>2026-05-24T08:46:42Z</time>
      </trkpt>
      <trkpt lat="47.16562" lon="6.15856">
        <ele>537.6</ele>
        <time>2026-05-24T08:46:43Z</time>
      </trkpt>
      <trkpt lat="47.16565" lon="6.15852">
        <ele>538</ele>
        <time>2026-05-24T08:46:44Z</time>
      </trkpt>
      <trkpt lat="47.16567" lon="6.15847">
        <ele>538.2</ele>
        <time>2026-05-24T08:46:45Z</time>
      </trkpt>
      <trkpt lat="47.1657" lon="6.15843">
        <ele>538.4</ele>
        <time>2026-05-24T08:46:46Z</time>
      </trkpt>
      <trkpt lat="47.16572" lon="6.15839">
        <ele>538.6</ele>
        <time>2026-05-24T08:46:47Z</time>
      </trkpt>
      <trkpt lat="47.16575" lon="6.15835">
        <ele>538.6</ele>
        <time>2026-05-24T08:46:48Z</time>
      </trkpt>
      <trkpt lat="47.16577" lon="6.15831">
        <ele>538.8</ele>
        <time>2026-05-24T08:46:49Z</time>
      </trkpt>
      <trkpt lat="47.1658" lon="6.15827">
        <ele>539</ele>
        <time>2026-05-24T08:46:50Z</time>
      </trkpt>
      <trkpt lat="47.16582" lon="6.15823">
        <ele>539.2</ele>
        <time>2026-05-24T08:46:51Z</time>
      </trkpt>
      <trkpt lat="47.16584" lon="6.15819">
        <ele>539.4</ele>
        <time>2026-05-24T08:46:52Z</time>
      </trkpt>
      <trkpt lat="47.16587" lon="6.15815">
        <ele>539.6</ele>
        <time>2026-05-24T08:46:53Z</time>
      </trkpt>
      <trkpt lat="47.16589" lon="6.1581">
        <ele>539.6</ele>
        <time>2026-05-24T08:46:54Z</time>
      </trkpt>
      <trkpt lat="47.16591" lon="6.15806">
        <ele>539.6</ele>
        <time>2026-05-24T08:46:55Z</time>
      </trkpt>
      <trkpt lat="47.16593" lon="6.15801">
        <ele>539.8</ele>
        <time>2026-05-24T08:46:56Z</time>
      </trkpt>
      <trkpt lat="47.16595" lon="6.15796">
        <ele>540</ele>
        <time>2026-05-24T08:46:57Z</time>
      </trkpt>
      <trkpt lat="47.16597" lon="6.15791">
        <ele>540</ele>
        <time>2026-05-24T08:46:58Z</time>
      </trkpt>
      <trkpt lat="47.16599" lon="6.15786">
        <ele>540.2</ele>
        <time>2026-05-24T08:46:59Z</time>
      </trkpt>
      <trkpt lat="47.16601" lon="6.15781">
        <ele>540.2</ele>
        <time>2026-05-24T08:47:00Z</time>
      </trkpt>
      <trkpt lat="47.16603" lon="6.15777">
        <ele>540.2</ele>
        <time>2026-05-24T08:47:01Z</time>
      </trkpt>
      <trkpt lat="47.16605" lon="6.15772">
        <ele>540.4</ele>
        <time>2026-05-24T08:47:02Z</time>
      </trkpt>
      <trkpt lat="47.16607" lon="6.15768">
        <ele>540.6</ele>
        <time>2026-05-24T08:47:03Z</time>
      </trkpt>
      <trkpt lat="47.1661" lon="6.15763">
        <ele>540.6</ele>
        <time>2026-05-24T08:47:04Z</time>
      </trkpt>
      <trkpt lat="47.16613" lon="6.15759">
        <ele>540.8</ele>
        <time>2026-05-24T08:47:05Z</time>
      </trkpt>
      <trkpt lat="47.16615" lon="6.15752">
        <ele>540.8</ele>
        <time>2026-05-24T08:47:06Z</time>
      </trkpt>
      <trkpt lat="47.16617" lon="6.15746">
        <ele>540.8</ele>
        <time>2026-05-24T08:47:07Z</time>
      </trkpt>
      <trkpt lat="47.16619" lon="6.1574">
        <ele>540.8</ele>
        <time>2026-05-24T08:47:08Z</time>
      </trkpt>
      <trkpt lat="47.16622" lon="6.15733">
        <ele>540.6</ele>
        <time>2026-05-24T08:47:09Z</time>
      </trkpt>
      <trkpt lat="47.16626" lon="6.15727">
        <ele>540.6</ele>
        <time>2026-05-24T08:47:10Z</time>
      </trkpt>
      <trkpt lat="47.16629" lon="6.15721">
        <ele>540.8</ele>
        <time>2026-05-24T08:47:11Z</time>
      </trkpt>
      <trkpt lat="47.16633" lon="6.15716">
        <ele>540.6</ele>
        <time>2026-05-24T08:47:12Z</time>
      </trkpt>
      <trkpt lat="47.16637" lon="6.15712">
        <ele>540.8</ele>
        <time>2026-05-24T08:47:13Z</time>
      </trkpt>
      <trkpt lat="47.16642" lon="6.15708">
        <ele>540.8</ele>
        <time>2026-05-24T08:47:14Z</time>
      </trkpt>
      <trkpt lat="47.16648" lon="6.15704">
        <ele>540.6</ele>
        <time>2026-05-24T08:47:15Z</time>
      </trkpt>
      <trkpt lat="47.16653" lon="6.15702">
        <ele>540.6</ele>
        <time>2026-05-24T08:47:16Z</time>
      </trkpt>
      <trkpt lat="47.16659" lon="6.15699">
        <ele>540.4</ele>
        <time>2026-05-24T08:47:17Z</time>
      </trkpt>
      <trkpt lat="47.16665" lon="6.15697">
        <ele>540.2</ele>
        <time>2026-05-24T08:47:18Z</time>
      </trkpt>
      <trkpt lat="47.1667" lon="6.15695">
        <ele>540.2</ele>
        <time>2026-05-24T08:47:19Z</time>
      </trkpt>
      <trkpt lat="47.16675" lon="6.15692">
        <ele>540</ele>
        <time>2026-05-24T08:47:20Z</time>
      </trkpt>
      <trkpt lat="47.16681" lon="6.1569">
        <ele>540</ele>
        <time>2026-05-24T08:47:21Z</time>
      </trkpt>
      <trkpt lat="47.16686" lon="6.15688">
        <ele>539.8</ele>
        <time>2026-05-24T08:47:22Z</time>
      </trkpt>
      <trkpt lat="47.16691" lon="6.15686">
        <ele>539.8</ele>
        <time>2026-05-24T08:47:23Z</time>
      </trkpt>
      <trkpt lat="47.16697" lon="6.15685">
        <ele>539.6</ele>
        <time>2026-05-24T08:47:24Z</time>
      </trkpt>
      <trkpt lat="47.16702" lon="6.15683">
        <ele>539.4</ele>
        <time>2026-05-24T08:47:25Z</time>
      </trkpt>
      <trkpt lat="47.16707" lon="6.15681">
        <ele>539.2</ele>
        <time>2026-05-24T08:47:26Z</time>
      </trkpt>
      <trkpt lat="47.16712" lon="6.1568">
        <ele>539.2</ele>
        <time>2026-05-24T08:47:27Z</time>
      </trkpt>
      <trkpt lat="47.16717" lon="6.15678">
        <ele>539</ele>
        <time>2026-05-24T08:47:28Z</time>
      </trkpt>
      <trkpt lat="47.16722" lon="6.15676">
        <ele>539</ele>
        <time>2026-05-24T08:47:29Z</time>
      </trkpt>
      <trkpt lat="47.16728" lon="6.15673">
        <ele>539</ele>
        <time>2026-05-24T08:47:30Z</time>
      </trkpt>
      <trkpt lat="47.16733" lon="6.15671">
        <ele>539</ele>
        <time>2026-05-24T08:47:31Z</time>
      </trkpt>
      <trkpt lat="47.16738" lon="6.15669">
        <ele>539</ele>
        <time>2026-05-24T08:47:32Z</time>
      </trkpt>
      <trkpt lat="47.16743" lon="6.15666">
        <ele>539</ele>
        <time>2026-05-24T08:47:33Z</time>
      </trkpt>
      <trkpt lat="47.16748" lon="6.15664">
        <ele>539</ele>
        <time>2026-05-24T08:47:34Z</time>
      </trkpt>
      <trkpt lat="47.16753" lon="6.15661">
        <ele>539</ele>
        <time>2026-05-24T08:47:35Z</time>
      </trkpt>
      <trkpt lat="47.16759" lon="6.15658">
        <ele>538.6</ele>
        <time>2026-05-24T08:47:36Z</time>
      </trkpt>
      <trkpt lat="47.16764" lon="6.15655">
        <ele>538.8</ele>
        <time>2026-05-24T08:47:37Z</time>
      </trkpt>
      <trkpt lat="47.16769" lon="6.15653">
        <ele>538.8</ele>
        <time>2026-05-24T08:47:38Z</time>
      </trkpt>
      <trkpt lat="47.16774" lon="6.15651">
        <ele>538.6</ele>
        <time>2026-05-24T08:47:39Z</time>
      </trkpt>
      <trkpt lat="47.16779" lon="6.15648">
        <ele>538.6</ele>
        <time>2026-05-24T08:47:40Z</time>
      </trkpt>
      <trkpt lat="47.16785" lon="6.15646">
        <ele>538.6</ele>
        <time>2026-05-24T08:47:41Z</time>
      </trkpt>
      <trkpt lat="47.1679" lon="6.15643">
        <ele>538.6</ele>
        <time>2026-05-24T08:47:42Z</time>
      </trkpt>
      <trkpt lat="47.16795" lon="6.15641">
        <ele>538.6</ele>
        <time>2026-05-24T08:47:43Z</time>
      </trkpt>
      <trkpt lat="47.168" lon="6.15639">
        <ele>538.4</ele>
        <time>2026-05-24T08:47:44Z</time>
      </trkpt>
      <trkpt lat="47.16806" lon="6.15637">
        <ele>538.4</ele>
        <time>2026-05-24T08:47:45Z</time>
      </trkpt>
      <trkpt lat="47.16811" lon="6.15635">
        <ele>538.4</ele>
        <time>2026-05-24T08:47:46Z</time>
      </trkpt>
      <trkpt lat="47.16816" lon="6.15633">
        <ele>538.4</ele>
        <time>2026-05-24T08:47:47Z</time>
      </trkpt>
      <trkpt lat="47.16821" lon="6.15631">
        <ele>538.6</ele>
        <time>2026-05-24T08:47:48Z</time>
      </trkpt>
      <trkpt lat="47.16826" lon="6.1563">
        <ele>538.4</ele>
        <time>2026-05-24T08:47:49Z</time>
      </trkpt>
      <trkpt lat="47.16831" lon="6.15628">
        <ele>538.4</ele>
        <time>2026-05-24T08:47:50Z</time>
      </trkpt>
      <trkpt lat="47.16836" lon="6.15625">
        <ele>538.4</ele>
        <time>2026-05-24T08:47:51Z</time>
      </trkpt>
      <trkpt lat="47.1684" lon="6.15623">
        <ele>538.4</ele>
        <time>2026-05-24T08:47:52Z</time>
      </trkpt>
      <trkpt lat="47.16845" lon="6.15621">
        <ele>538.4</ele>
        <time>2026-05-24T08:47:53Z</time>
      </trkpt>
      <trkpt lat="47.1685" lon="6.15619">
        <ele>538.4</ele>
        <time>2026-05-24T08:47:54Z</time>
      </trkpt>
      <trkpt lat="47.16854" lon="6.15616">
        <ele>538.4</ele>
        <time>2026-05-24T08:47:55Z</time>
      </trkpt>
      <trkpt lat="47.16859" lon="6.15614">
        <ele>538.6</ele>
        <time>2026-05-24T08:47:56Z</time>
      </trkpt>
      <trkpt lat="47.16864" lon="6.15612">
        <ele>538.4</ele>
        <time>2026-05-24T08:47:57Z</time>
      </trkpt>
      <trkpt lat="47.16869" lon="6.1561">
        <ele>538.6</ele>
        <time>2026-05-24T08:47:58Z</time>
      </trkpt>
      <trkpt lat="47.16874" lon="6.15607">
        <ele>538.8</ele>
        <time>2026-05-24T08:47:59Z</time>
      </trkpt>
      <trkpt lat="47.16878" lon="6.15605">
        <ele>538.8</ele>
        <time>2026-05-24T08:48:00Z</time>
      </trkpt>
      <trkpt lat="47.16882" lon="6.15603">
        <ele>539</ele>
        <time>2026-05-24T08:48:01Z</time>
      </trkpt>
      <trkpt lat="47.16886" lon="6.15601">
        <ele>539.2</ele>
        <time>2026-05-24T08:48:02Z</time>
      </trkpt>
      <trkpt lat="47.16889" lon="6.156">
        <ele>539.2</ele>
        <time>2026-05-24T08:48:03Z</time>
      </trkpt>
      <trkpt lat="47.16892" lon="6.15598">
        <ele>539</ele>
        <time>2026-05-24T08:48:04Z</time>
      </trkpt>
      <trkpt lat="47.16894" lon="6.15596">
        <ele>539.2</ele>
        <time>2026-05-24T08:48:05Z</time>
      </trkpt>
      <trkpt lat="47.16896" lon="6.15595">
        <ele>539.2</ele>
        <time>2026-05-24T08:48:06Z</time>
      </trkpt>
      <trkpt lat="47.16897" lon="6.15595">
        <ele>539.2</ele>
        <time>2026-05-24T08:48:07Z</time>
      </trkpt>
      <trkpt lat="47.16898" lon="6.15594">
        <ele>539.4</ele>
        <time>2026-05-24T08:48:08Z</time>
      </trkpt>
      <trkpt lat="47.169" lon="6.15594">
        <ele>539.4</ele>
        <time>2026-05-24T08:48:09Z</time>
      </trkpt>
      <trkpt lat="47.169" lon="6.15594">
        <ele>539.4</ele>
        <time>2026-05-24T08:48:10Z</time>
      </trkpt>
      <trkpt lat="47.169" lon="6.15593">
        <ele>539.4</ele>
        <time>2026-05-24T08:48:11Z</time>
      </trkpt>
      <trkpt lat="47.16899" lon="6.15593">
        <ele>539.4</ele>
        <time>2026-05-24T08:48:12Z</time>
      </trkpt>
      <trkpt lat="47.16898" lon="6.15593">
        <ele>539.4</ele>
        <time>2026-05-24T08:48:13Z</time>
      </trkpt>
      <trkpt lat="47.16899" lon="6.15581">
        <ele>539.6</ele>
        <time>2026-05-24T08:49:42Z</time>
      </trkpt>
      <trkpt lat="47.16899" lon="6.15577">
        <ele>539.6</ele>
        <time>2026-05-24T08:49:43Z</time>
      </trkpt>
      <trkpt lat="47.169" lon="6.15573">
        <ele>539.4</ele>
        <time>2026-05-24T08:49:44Z</time>
      </trkpt>
      <trkpt lat="47.16901" lon="6.15568">
        <ele>539.4</ele>
        <time>2026-05-24T08:49:45Z</time>
      </trkpt>
      <trkpt lat="47.16902" lon="6.15562">
        <ele>539.6</ele>
        <time>2026-05-24T08:49:46Z</time>
      </trkpt>
      <trkpt lat="47.16903" lon="6.15556">
        <ele>539.6</ele>
        <time>2026-05-24T08:49:47Z</time>
      </trkpt>
      <trkpt lat="47.16904" lon="6.15549">
        <ele>539.6</ele>
        <time>2026-05-24T08:49:48Z</time>
      </trkpt>
      <trkpt lat="47.16905" lon="6.15541">
        <ele>539.6</ele>
        <time>2026-05-24T08:49:49Z</time>
      </trkpt>
      <trkpt lat="47.16905" lon="6.15534">
        <ele>539.6</ele>
        <time>2026-05-24T08:49:50Z</time>
      </trkpt>
      <trkpt lat="47.16906" lon="6.15527">
        <ele>539.6</ele>
        <time>2026-05-24T08:49:51Z</time>
      </trkpt>
      <trkpt lat="47.16907" lon="6.15521">
        <ele>539.6</ele>
        <time>2026-05-24T08:49:52Z</time>
      </trkpt>
      <trkpt lat="47.16908" lon="6.15514">
        <ele>539.6</ele>
        <time>2026-05-24T08:49:53Z</time>
      </trkpt>
      <trkpt lat="47.16908" lon="6.15508">
        <ele>539.6</ele>
        <time>2026-05-24T08:49:54Z</time>
      </trkpt>
      <trkpt lat="47.16908" lon="6.15502">
        <ele>539.6</ele>
        <time>2026-05-24T08:49:55Z</time>
      </trkpt>
      <trkpt lat="47.16908" lon="6.15496">
        <ele>539.8</ele>
        <time>2026-05-24T08:49:56Z</time>
      </trkpt>
      <trkpt lat="47.16908" lon="6.1549">
        <ele>540</ele>
        <time>2026-05-24T08:49:57Z</time>
      </trkpt>
      <trkpt lat="47.16908" lon="6.15484">
        <ele>540</ele>
        <time>2026-05-24T08:49:58Z</time>
      </trkpt>
      <trkpt lat="47.16908" lon="6.15478">
        <ele>540</ele>
        <time>2026-05-24T08:49:59Z</time>
      </trkpt>
      <trkpt lat="47.16907" lon="6.15472">
        <ele>540</ele>
        <time>2026-05-24T08:50:00Z</time>
      </trkpt>
      <trkpt lat="47.16905" lon="6.15466">
        <ele>540</ele>
        <time>2026-05-24T08:50:01Z</time>
      </trkpt>
      <trkpt lat="47.16903" lon="6.1546">
        <ele>540.2</ele>
        <time>2026-05-24T08:50:02Z</time>
      </trkpt>
      <trkpt lat="47.16901" lon="6.15454">
        <ele>540.2</ele>
        <time>2026-05-24T08:50:03Z</time>
      </trkpt>
      <trkpt lat="47.16899" lon="6.15448">
        <ele>540.2</ele>
        <time>2026-05-24T08:50:04Z</time>
      </trkpt>
      <trkpt lat="47.16897" lon="6.15442">
        <ele>540.2</ele>
        <time>2026-05-24T08:50:05Z</time>
      </trkpt>
      <trkpt lat="47.16896" lon="6.15436">
        <ele>540.2</ele>
        <time>2026-05-24T08:50:06Z</time>
      </trkpt>
      <trkpt lat="47.16894" lon="6.1543">
        <ele>540.2</ele>
        <time>2026-05-24T08:50:07Z</time>
      </trkpt>
      <trkpt lat="47.16892" lon="6.15424">
        <ele>540.4</ele>
        <time>2026-05-24T08:50:08Z</time>
      </trkpt>
      <trkpt lat="47.16891" lon="6.15418">
        <ele>540.6</ele>
        <time>2026-05-24T08:50:09Z</time>
      </trkpt>
      <trkpt lat="47.16889" lon="6.15412">
        <ele>540.6</ele>
        <time>2026-05-24T08:50:10Z</time>
      </trkpt>
      <trkpt lat="47.16887" lon="6.15406">
        <ele>540.8</ele>
        <time>2026-05-24T08:50:11Z</time>
      </trkpt>
      <trkpt lat="47.16885" lon="6.15401">
        <ele>540.8</ele>
        <time>2026-05-24T08:50:12Z</time>
      </trkpt>
      <trkpt lat="47.16884" lon="6.15395">
        <ele>540.8</ele>
        <time>2026-05-24T08:50:13Z</time>
      </trkpt>
      <trkpt lat="47.16882" lon="6.1539">
        <ele>540.8</ele>
        <time>2026-05-24T08:50:14Z</time>
      </trkpt>
      <trkpt lat="47.16881" lon="6.15385">
        <ele>541</ele>
        <time>2026-05-24T08:50:15Z</time>
      </trkpt>
      <trkpt lat="47.16879" lon="6.1538">
        <ele>541</ele>
        <time>2026-05-24T08:50:16Z</time>
      </trkpt>
      <trkpt lat="47.16878" lon="6.15375">
        <ele>541</ele>
        <time>2026-05-24T08:50:17Z</time>
      </trkpt>
      <trkpt lat="47.16876" lon="6.1537">
        <ele>541.2</ele>
        <time>2026-05-24T08:50:18Z</time>
      </trkpt>
      <trkpt lat="47.16875" lon="6.15366">
        <ele>541.4</ele>
        <time>2026-05-24T08:50:19Z</time>
      </trkpt>
      <trkpt lat="47.16873" lon="6.15361">
        <ele>541.6</ele>
        <time>2026-05-24T08:50:20Z</time>
      </trkpt>
      <trkpt lat="47.16873" lon="6.15356">
        <ele>541.6</ele>
        <time>2026-05-24T08:50:21Z</time>
      </trkpt>
      <trkpt lat="47.16872" lon="6.15351">
        <ele>541.6</ele>
        <time>2026-05-24T08:50:22Z</time>
      </trkpt>
      <trkpt lat="47.16871" lon="6.15346">
        <ele>541.8</ele>
        <time>2026-05-24T08:50:23Z</time>
      </trkpt>
      <trkpt lat="47.16871" lon="6.15341">
        <ele>542</ele>
        <time>2026-05-24T08:50:24Z</time>
      </trkpt>
      <trkpt lat="47.1687" lon="6.15336">
        <ele>542</ele>
        <time>2026-05-24T08:50:25Z</time>
      </trkpt>
      <trkpt lat="47.16869" lon="6.1533">
        <ele>542</ele>
        <time>2026-05-24T08:50:26Z</time>
      </trkpt>
      <trkpt lat="47.16869" lon="6.15325">
        <ele>542.2</ele>
        <time>2026-05-24T08:50:27Z</time>
      </trkpt>
      <trkpt lat="47.16869" lon="6.1532">
        <ele>542.2</ele>
        <time>2026-05-24T08:50:28Z</time>
      </trkpt>
      <trkpt lat="47.16869" lon="6.15315">
        <ele>542.6</ele>
        <time>2026-05-24T08:50:29Z</time>
      </trkpt>
      <trkpt lat="47.16869" lon="6.1531">
        <ele>542.6</ele>
        <time>2026-05-24T08:50:30Z</time>
      </trkpt>
      <trkpt lat="47.1687" lon="6.15305">
        <ele>542.8</ele>
        <time>2026-05-24T08:50:31Z</time>
      </trkpt>
      <trkpt lat="47.16871" lon="6.15302">
        <ele>543</ele>
        <time>2026-05-24T08:50:32Z</time>
      </trkpt>
      <trkpt lat="47.16873" lon="6.153">
        <ele>543.2</ele>
        <time>2026-05-24T08:50:33Z</time>
      </trkpt>
      <trkpt lat="47.16875" lon="6.153">
        <ele>543.2</ele>
        <time>2026-05-24T08:50:34Z</time>
      </trkpt>
      <trkpt lat="47.16877" lon="6.15302">
        <ele>543.4</ele>
        <time>2026-05-24T08:50:35Z</time>
      </trkpt>
      <trkpt lat="47.16879" lon="6.15305">
        <ele>543.4</ele>
        <time>2026-05-24T08:50:36Z</time>
      </trkpt>
      <trkpt lat="47.16881" lon="6.15309">
        <ele>543.4</ele>
        <time>2026-05-24T08:50:37Z</time>
      </trkpt>
      <trkpt lat="47.16882" lon="6.15313">
        <ele>543.4</ele>
        <time>2026-05-24T08:50:38Z</time>
      </trkpt>
      <trkpt lat="47.16884" lon="6.15318">
        <ele>543.4</ele>
        <time>2026-05-24T08:50:39Z</time>
      </trkpt>
      <trkpt lat="47.16886" lon="6.15323">
        <ele>543.6</ele>
        <time>2026-05-24T08:50:40Z</time>
      </trkpt>
      <trkpt lat="47.16888" lon="6.15328">
        <ele>543.6</ele>
        <time>2026-05-24T08:50:41Z</time>
      </trkpt>
      <trkpt lat="47.1689" lon="6.15333">
        <ele>544</ele>
        <time>2026-05-24T08:50:42Z</time>
      </trkpt>
      <trkpt lat="47.16892" lon="6.15338">
        <ele>543.8</ele>
        <time>2026-05-24T08:50:43Z</time>
      </trkpt>
      <trkpt lat="47.16894" lon="6.15343">
        <ele>543.8</ele>
        <time>2026-05-24T08:50:44Z</time>
      </trkpt>
      <trkpt lat="47.16897" lon="6.15349">
        <ele>544</ele>
        <time>2026-05-24T08:50:45Z</time>
      </trkpt>
      <trkpt lat="47.16899" lon="6.15354">
        <ele>544.2</ele>
        <time>2026-05-24T08:50:46Z</time>
      </trkpt>
      <trkpt lat="47.16902" lon="6.15359">
        <ele>544.2</ele>
        <time>2026-05-24T08:50:47Z</time>
      </trkpt>
      <trkpt lat="47.16905" lon="6.15364">
        <ele>544.2</ele>
        <time>2026-05-24T08:50:48Z</time>
      </trkpt>
      <trkpt lat="47.16908" lon="6.15369">
        <ele>544.4</ele>
        <time>2026-05-24T08:50:49Z</time>
      </trkpt>
      <trkpt lat="47.16912" lon="6.15374">
        <ele>544.6</ele>
        <time>2026-05-24T08:50:50Z</time>
      </trkpt>
      <trkpt lat="47.16915" lon="6.15379">
        <ele>544.4</ele>
        <time>2026-05-24T08:50:51Z</time>
      </trkpt>
      <trkpt lat="47.16918" lon="6.15384">
        <ele>544.6</ele>
        <time>2026-05-24T08:50:52Z</time>
      </trkpt>
      <trkpt lat="47.16922" lon="6.1539">
        <ele>544.4</ele>
        <time>2026-05-24T08:50:53Z</time>
      </trkpt>
      <trkpt lat="47.16925" lon="6.15397">
        <ele>544.4</ele>
        <time>2026-05-24T08:50:54Z</time>
      </trkpt>
      <trkpt lat="47.16928" lon="6.15403">
        <ele>544.6</ele>
        <time>2026-05-24T08:50:55Z</time>
      </trkpt>
      <trkpt lat="47.16932" lon="6.15409">
        <ele>544.8</ele>
        <time>2026-05-24T08:50:56Z</time>
      </trkpt>
      <trkpt lat="47.16935" lon="6.15416">
        <ele>544.6</ele>
        <time>2026-05-24T08:50:57Z</time>
      </trkpt>
      <trkpt lat="47.16938" lon="6.15422">
        <ele>544.6</ele>
        <time>2026-05-24T08:50:58Z</time>
      </trkpt>
      <trkpt lat="47.16941" lon="6.15428">
        <ele>544.6</ele>
        <time>2026-05-24T08:50:59Z</time>
      </trkpt>
      <trkpt lat="47.16944" lon="6.15435">
        <ele>544.4</ele>
        <time>2026-05-24T08:51:00Z</time>
      </trkpt>
      <trkpt lat="47.16947" lon="6.15441">
        <ele>544.6</ele>
        <time>2026-05-24T08:51:01Z</time>
      </trkpt>
      <trkpt lat="47.1695" lon="6.15447">
        <ele>544.6</ele>
        <time>2026-05-24T08:51:02Z</time>
      </trkpt>
      <trkpt lat="47.16953" lon="6.15454">
        <ele>544.6</ele>
        <time>2026-05-24T08:51:03Z</time>
      </trkpt>
      <trkpt lat="47.16955" lon="6.1546">
        <ele>544.4</ele>
        <time>2026-05-24T08:51:04Z</time>
      </trkpt>
      <trkpt lat="47.16958" lon="6.15467">
        <ele>544.6</ele>
        <time>2026-05-24T08:51:05Z</time>
      </trkpt>
      <trkpt lat="47.1696" lon="6.15473">
        <ele>544.4</ele>
        <time>2026-05-24T08:51:06Z</time>
      </trkpt>
      <trkpt lat="47.16962" lon="6.15478">
        <ele>544.6</ele>
        <time>2026-05-24T08:51:07Z</time>
      </trkpt>
      <trkpt lat="47.16964" lon="6.15484">
        <ele>544.4</ele>
        <time>2026-05-24T08:51:08Z</time>
      </trkpt>
      <trkpt lat="47.16966" lon="6.15488">
        <ele>544.4</ele>
        <time>2026-05-24T08:51:09Z</time>
      </trkpt>
      <trkpt lat="47.16968" lon="6.15493">
        <ele>544.4</ele>
        <time>2026-05-24T08:51:10Z</time>
      </trkpt>
      <trkpt lat="47.1697" lon="6.15497">
        <ele>544.2</ele>
        <time>2026-05-24T08:51:11Z</time>
      </trkpt>
      <trkpt lat="47.16971" lon="6.15502">
        <ele>544.4</ele>
        <time>2026-05-24T08:51:12Z</time>
      </trkpt>
      <trkpt lat="47.16973" lon="6.15506">
        <ele>544.4</ele>
        <time>2026-05-24T08:51:13Z</time>
      </trkpt>
      <trkpt lat="47.16975" lon="6.1551">
        <ele>544.4</ele>
        <time>2026-05-24T08:51:14Z</time>
      </trkpt>
      <trkpt lat="47.16977" lon="6.15515">
        <ele>544.4</ele>
        <time>2026-05-24T08:51:15Z</time>
      </trkpt>
      <trkpt lat="47.16979" lon="6.15519">
        <ele>544.4</ele>
        <time>2026-05-24T08:51:16Z</time>
      </trkpt>
      <trkpt lat="47.16982" lon="6.15524">
        <ele>544.4</ele>
        <time>2026-05-24T08:51:17Z</time>
      </trkpt>
      <trkpt lat="47.16984" lon="6.15529">
        <ele>544.4</ele>
        <time>2026-05-24T08:51:18Z</time>
      </trkpt>
      <trkpt lat="47.16986" lon="6.15535">
        <ele>544.4</ele>
        <time>2026-05-24T08:51:19Z</time>
      </trkpt>
      <trkpt lat="47.16988" lon="6.1554">
        <ele>544.4</ele>
        <time>2026-05-24T08:51:20Z</time>
      </trkpt>
      <trkpt lat="47.1699" lon="6.15545">
        <ele>544.4</ele>
        <time>2026-05-24T08:51:21Z</time>
      </trkpt>
      <trkpt lat="47.16993" lon="6.1555">
        <ele>544.6</ele>
        <time>2026-05-24T08:51:22Z</time>
      </trkpt>
      <trkpt lat="47.16995" lon="6.15555">
        <ele>544.6</ele>
        <time>2026-05-24T08:51:23Z</time>
      </trkpt>
      <trkpt lat="47.16997" lon="6.15561">
        <ele>544.6</ele>
        <time>2026-05-24T08:51:24Z</time>
      </trkpt>
      <trkpt lat="47.16999" lon="6.15566">
        <ele>544.6</ele>
        <time>2026-05-24T08:51:25Z</time>
      </trkpt>
      <trkpt lat="47.17002" lon="6.15571">
        <ele>544.8</ele>
        <time>2026-05-24T08:51:26Z</time>
      </trkpt>
      <trkpt lat="47.17004" lon="6.15577">
        <ele>544.8</ele>
        <time>2026-05-24T08:51:27Z</time>
      </trkpt>
      <trkpt lat="47.17007" lon="6.15582">
        <ele>544.8</ele>
        <time>2026-05-24T08:51:28Z</time>
      </trkpt>
      <trkpt lat="47.1701" lon="6.15587">
        <ele>544.8</ele>
        <time>2026-05-24T08:51:29Z</time>
      </trkpt>
      <trkpt lat="47.17014" lon="6.15592">
        <ele>544.8</ele>
        <time>2026-05-24T08:51:30Z</time>
      </trkpt>
      <trkpt lat="47.17017" lon="6.15596">
        <ele>544.8</ele>
        <time>2026-05-24T08:51:31Z</time>
      </trkpt>
      <trkpt lat="47.17021" lon="6.15599">
        <ele>545</ele>
        <time>2026-05-24T08:51:32Z</time>
      </trkpt>
      <trkpt lat="47.17025" lon="6.15601">
        <ele>545</ele>
        <time>2026-05-24T08:51:33Z</time>
      </trkpt>
      <trkpt lat="47.17029" lon="6.15603">
        <ele>545</ele>
        <time>2026-05-24T08:51:34Z</time>
      </trkpt>
      <trkpt lat="47.17032" lon="6.15603">
        <ele>545</ele>
        <time>2026-05-24T08:51:35Z</time>
      </trkpt>
      <trkpt lat="47.17035" lon="6.15602">
        <ele>545.2</ele>
        <time>2026-05-24T08:51:36Z</time>
      </trkpt>
      <trkpt lat="47.17038" lon="6.156">
        <ele>545.2</ele>
        <time>2026-05-24T08:51:37Z</time>
      </trkpt>
      <trkpt lat="47.17041" lon="6.15598">
        <ele>545.2</ele>
        <time>2026-05-24T08:51:38Z</time>
      </trkpt>
      <trkpt lat="47.17044" lon="6.15596">
        <ele>545.4</ele>
        <time>2026-05-24T08:51:39Z</time>
      </trkpt>
      <trkpt lat="47.17047" lon="6.15594">
        <ele>545.6</ele>
        <time>2026-05-24T08:51:40Z</time>
      </trkpt>
      <trkpt lat="47.1705" lon="6.15591">
        <ele>545.8</ele>
        <time>2026-05-24T08:51:41Z</time>
      </trkpt>
      <trkpt lat="47.17053" lon="6.15588">
        <ele>545.8</ele>
        <time>2026-05-24T08:51:42Z</time>
      </trkpt>
      <trkpt lat="47.17056" lon="6.15584">
        <ele>545.8</ele>
        <time>2026-05-24T08:51:43Z</time>
      </trkpt>
      <trkpt lat="47.17059" lon="6.1558">
        <ele>545.8</ele>
        <time>2026-05-24T08:51:44Z</time>
      </trkpt>
      <trkpt lat="47.17063" lon="6.15576">
        <ele>545.8</ele>
        <time>2026-05-24T08:51:45Z</time>
      </trkpt>
      <trkpt lat="47.17066" lon="6.15573">
        <ele>545.8</ele>
        <time>2026-05-24T08:51:46Z</time>
      </trkpt>
      <trkpt lat="47.17069" lon="6.15569">
        <ele>546</ele>
        <time>2026-05-24T08:51:47Z</time>
      </trkpt>
      <trkpt lat="47.17073" lon="6.15566">
        <ele>546</ele>
        <time>2026-05-24T08:51:48Z</time>
      </trkpt>
      <trkpt lat="47.17077" lon="6.15562">
        <ele>545.8</ele>
        <time>2026-05-24T08:51:49Z</time>
      </trkpt>
      <trkpt lat="47.17081" lon="6.15558">
        <ele>546</ele>
        <time>2026-05-24T08:51:50Z</time>
      </trkpt>
      <trkpt lat="47.17085" lon="6.15555">
        <ele>546</ele>
        <time>2026-05-24T08:51:51Z</time>
      </trkpt>
      <trkpt lat="47.17089" lon="6.15551">
        <ele>545.8</ele>
        <time>2026-05-24T08:51:52Z</time>
      </trkpt>
      <trkpt lat="47.17093" lon="6.15547">
        <ele>545.8</ele>
        <time>2026-05-24T08:51:53Z</time>
      </trkpt>
      <trkpt lat="47.17097" lon="6.15542">
        <ele>545.8</ele>
        <time>2026-05-24T08:51:54Z</time>
      </trkpt>
      <trkpt lat="47.17102" lon="6.15536">
        <ele>545.8</ele>
        <time>2026-05-24T08:51:55Z</time>
      </trkpt>
      <trkpt lat="47.17106" lon="6.1553">
        <ele>545.8</ele>
        <time>2026-05-24T08:51:56Z</time>
      </trkpt>
      <trkpt lat="47.17111" lon="6.15525">
        <ele>545.8</ele>
        <time>2026-05-24T08:51:57Z</time>
      </trkpt>
      <trkpt lat="47.17115" lon="6.1552">
        <ele>545.8</ele>
        <time>2026-05-24T08:51:58Z</time>
      </trkpt>
      <trkpt lat="47.1712" lon="6.15514">
        <ele>545.6</ele>
        <time>2026-05-24T08:51:59Z</time>
      </trkpt>
      <trkpt lat="47.17125" lon="6.15509">
        <ele>545.6</ele>
        <time>2026-05-24T08:52:00Z</time>
      </trkpt>
      <trkpt lat="47.1713" lon="6.15504">
        <ele>545.6</ele>
        <time>2026-05-24T08:52:01Z</time>
      </trkpt>
      <trkpt lat="47.17136" lon="6.15499">
        <ele>545.6</ele>
        <time>2026-05-24T08:52:02Z</time>
      </trkpt>
      <trkpt lat="47.17141" lon="6.15493">
        <ele>545.6</ele>
        <time>2026-05-24T08:52:03Z</time>
      </trkpt>
      <trkpt lat="47.17146" lon="6.15487">
        <ele>545.4</ele>
        <time>2026-05-24T08:52:04Z</time>
      </trkpt>
      <trkpt lat="47.17152" lon="6.15481">
        <ele>545.4</ele>
        <time>2026-05-24T08:52:05Z</time>
      </trkpt>
      <trkpt lat="47.17158" lon="6.15475">
        <ele>545.6</ele>
        <time>2026-05-24T08:52:06Z</time>
      </trkpt>
      <trkpt lat="47.17164" lon="6.15468">
        <ele>545.2</ele>
        <time>2026-05-24T08:52:07Z</time>
      </trkpt>
      <trkpt lat="47.1717" lon="6.15462">
        <ele>545.2</ele>
        <time>2026-05-24T08:52:08Z</time>
      </trkpt>
      <trkpt lat="47.17176" lon="6.15456">
        <ele>545</ele>
        <time>2026-05-24T08:52:09Z</time>
      </trkpt>
      <trkpt lat="47.17183" lon="6.15449">
        <ele>544.8</ele>
        <time>2026-05-24T08:52:10Z</time>
      </trkpt>
      <trkpt lat="47.1719" lon="6.15442">
        <ele>544.6</ele>
        <time>2026-05-24T08:52:11Z</time>
      </trkpt>
      <trkpt lat="47.17197" lon="6.15435">
        <ele>544.4</ele>
        <time>2026-05-24T08:52:12Z</time>
      </trkpt>
      <trkpt lat="47.17204" lon="6.15428">
        <ele>544</ele>
        <time>2026-05-24T08:52:13Z</time>
      </trkpt>
      <trkpt lat="47.17212" lon="6.1542">
        <ele>543.6</ele>
        <time>2026-05-24T08:52:14Z</time>
      </trkpt>
      <trkpt lat="47.17219" lon="6.15413">
        <ele>543.2</ele>
        <time>2026-05-24T08:52:15Z</time>
      </trkpt>
      <trkpt lat="47.17227" lon="6.15407">
        <ele>542.8</ele>
        <time>2026-05-24T08:52:16Z</time>
      </trkpt>
      <trkpt lat="47.17234" lon="6.15403">
        <ele>542.6</ele>
        <time>2026-05-24T08:52:17Z</time>
      </trkpt>
      <trkpt lat="47.17241" lon="6.15402">
        <ele>542.2</ele>
        <time>2026-05-24T08:52:18Z</time>
      </trkpt>
      <trkpt lat="47.17248" lon="6.15402">
        <ele>541.4</ele>
        <time>2026-05-24T08:52:19Z</time>
      </trkpt>
      <trkpt lat="47.17253" lon="6.15404">
        <ele>540.4</ele>
        <time>2026-05-24T08:52:20Z</time>
      </trkpt>
      <trkpt lat="47.17259" lon="6.15408">
        <ele>540</ele>
        <time>2026-05-24T08:52:21Z</time>
      </trkpt>
      <trkpt lat="47.17264" lon="6.15412">
        <ele>538.8</ele>
        <time>2026-05-24T08:52:22Z</time>
      </trkpt>
      <trkpt lat="47.17268" lon="6.15415">
        <ele>538</ele>
        <time>2026-05-24T08:52:23Z</time>
      </trkpt>
      <trkpt lat="47.17273" lon="6.15418">
        <ele>537.8</ele>
        <time>2026-05-24T08:52:24Z</time>
      </trkpt>
      <trkpt lat="47.17278" lon="6.1542">
        <ele>537.6</ele>
        <time>2026-05-24T08:52:25Z</time>
      </trkpt>
      <trkpt lat="47.17282" lon="6.15423">
        <ele>537.4</ele>
        <time>2026-05-24T08:52:26Z</time>
      </trkpt>
      <trkpt lat="47.17287" lon="6.15425">
        <ele>537.6</ele>
        <time>2026-05-24T08:52:27Z</time>
      </trkpt>
      <trkpt lat="47.17291" lon="6.15426">
        <ele>537.6</ele>
        <time>2026-05-24T08:52:28Z</time>
      </trkpt>
      <trkpt lat="47.17295" lon="6.15427">
        <ele>537.6</ele>
        <time>2026-05-24T08:52:29Z</time>
      </trkpt>
      <trkpt lat="47.17299" lon="6.15428">
        <ele>537.6</ele>
        <time>2026-05-24T08:52:30Z</time>
      </trkpt>
      <trkpt lat="47.17302" lon="6.1543">
        <ele>537.4</ele>
        <time>2026-05-24T08:52:31Z</time>
      </trkpt>
      <trkpt lat="47.17306" lon="6.15431">
        <ele>537.4</ele>
        <time>2026-05-24T08:52:32Z</time>
      </trkpt>
      <trkpt lat="47.17309" lon="6.15433">
        <ele>537.4</ele>
        <time>2026-05-24T08:52:33Z</time>
      </trkpt>
      <trkpt lat="47.17312" lon="6.15435">
        <ele>537.4</ele>
        <time>2026-05-24T08:52:34Z</time>
      </trkpt>
      <trkpt lat="47.17314" lon="6.15436">
        <ele>537.8</ele>
        <time>2026-05-24T08:52:35Z</time>
      </trkpt>
      <trkpt lat="47.17317" lon="6.15438">
        <ele>538.2</ele>
        <time>2026-05-24T08:52:36Z</time>
      </trkpt>
      <trkpt lat="47.17319" lon="6.15439">
        <ele>538.6</ele>
        <time>2026-05-24T08:52:37Z</time>
      </trkpt>
      <trkpt lat="47.17322" lon="6.1544">
        <ele>538.8</ele>
        <time>2026-05-24T08:52:38Z</time>
      </trkpt>
      <trkpt lat="47.17324" lon="6.1544">
        <ele>539.2</ele>
        <time>2026-05-24T08:52:39Z</time>
      </trkpt>
      <trkpt lat="47.17326" lon="6.1544">
        <ele>539.6</ele>
        <time>2026-05-24T08:52:40Z</time>
      </trkpt>
      <trkpt lat="47.17329" lon="6.15439">
        <ele>540</ele>
        <time>2026-05-24T08:52:41Z</time>
      </trkpt>
      <trkpt lat="47.17331" lon="6.15438">
        <ele>540.4</ele>
        <time>2026-05-24T08:52:42Z</time>
      </trkpt>
      <trkpt lat="47.17334" lon="6.15438">
        <ele>540.8</ele>
        <time>2026-05-24T08:52:43Z</time>
      </trkpt>
      <trkpt lat="47.17336" lon="6.15437">
        <ele>541</ele>
        <time>2026-05-24T08:52:44Z</time>
      </trkpt>
      <trkpt lat="47.17338" lon="6.15437">
        <ele>541.4</ele>
        <time>2026-05-24T08:52:45Z</time>
      </trkpt>
      <trkpt lat="47.17339" lon="6.15437">
        <ele>541.8</ele>
        <time>2026-05-24T08:52:46Z</time>
      </trkpt>
      <trkpt lat="47.17341" lon="6.15437">
        <ele>542</ele>
        <time>2026-05-24T08:52:47Z</time>
      </trkpt>
      <trkpt lat="47.17343" lon="6.15436">
        <ele>542.4</ele>
        <time>2026-05-24T08:52:48Z</time>
      </trkpt>
      <trkpt lat="47.17345" lon="6.15436">
        <ele>543</ele>
        <time>2026-05-24T08:52:49Z</time>
      </trkpt>
      <trkpt lat="47.17347" lon="6.15437">
        <ele>543</ele>
        <time>2026-05-24T08:52:50Z</time>
      </trkpt>
      <trkpt lat="47.17349" lon="6.15437">
        <ele>543.4</ele>
        <time>2026-05-24T08:52:51Z</time>
      </trkpt>
      <trkpt lat="47.17352" lon="6.15438">
        <ele>543.8</ele>
        <time>2026-05-24T08:52:52Z</time>
      </trkpt>
      <trkpt lat="47.17355" lon="6.15438">
        <ele>544</ele>
        <time>2026-05-24T08:52:53Z</time>
      </trkpt>
      <trkpt lat="47.17358" lon="6.15437">
        <ele>544.2</ele>
        <time>2026-05-24T08:52:54Z</time>
      </trkpt>
      <trkpt lat="47.17361" lon="6.15437">
        <ele>544.6</ele>
        <time>2026-05-24T08:52:55Z</time>
      </trkpt>
      <trkpt lat="47.17364" lon="6.15436">
        <ele>544.8</ele>
        <time>2026-05-24T08:52:56Z</time>
      </trkpt>
      <trkpt lat="47.17367" lon="6.15435">
        <ele>545.2</ele>
        <time>2026-05-24T08:52:57Z</time>
      </trkpt>
      <trkpt lat="47.1737" lon="6.15435">
        <ele>545.6</ele>
        <time>2026-05-24T08:52:58Z</time>
      </trkpt>
      <trkpt lat="47.17373" lon="6.15434">
        <ele>545.8</ele>
        <time>2026-05-24T08:52:59Z</time>
      </trkpt>
      <trkpt lat="47.17375" lon="6.15434">
        <ele>546.2</ele>
        <time>2026-05-24T08:53:00Z</time>
      </trkpt>
      <trkpt lat="47.17377" lon="6.15433">
        <ele>546.4</ele>
        <time>2026-05-24T08:53:01Z</time>
      </trkpt>
      <trkpt lat="47.17379" lon="6.15432">
        <ele>546.4</ele>
        <time>2026-05-24T08:53:02Z</time>
      </trkpt>
      <trkpt lat="47.1738" lon="6.15431">
        <ele>546.6</ele>
        <time>2026-05-24T08:53:03Z</time>
      </trkpt>
      <trkpt lat="47.17382" lon="6.15428">
        <ele>546.6</ele>
        <time>2026-05-24T08:53:04Z</time>
      </trkpt>
      <trkpt lat="47.17383" lon="6.15426">
        <ele>546.8</ele>
        <time>2026-05-24T08:53:05Z</time>
      </trkpt>
      <trkpt lat="47.17384" lon="6.15425">
        <ele>547</ele>
        <time>2026-05-24T08:53:06Z</time>
      </trkpt>
      <trkpt lat="47.17386" lon="6.15423">
        <ele>547.2</ele>
        <time>2026-05-24T08:53:07Z</time>
      </trkpt>
      <trkpt lat="47.17389" lon="6.15421">
        <ele>547.2</ele>
        <time>2026-05-24T08:53:08Z</time>
      </trkpt>
      <trkpt lat="47.17391" lon="6.15419">
        <ele>547.8</ele>
        <time>2026-05-24T08:53:09Z</time>
      </trkpt>
      <trkpt lat="47.17393" lon="6.15418">
        <ele>548.2</ele>
        <time>2026-05-24T08:53:10Z</time>
      </trkpt>
      <trkpt lat="47.17395" lon="6.15418">
        <ele>548.6</ele>
        <time>2026-05-24T08:53:11Z</time>
      </trkpt>
      <trkpt lat="47.17396" lon="6.15419">
        <ele>548.6</ele>
        <time>2026-05-24T08:53:12Z</time>
      </trkpt>
      <trkpt lat="47.17397" lon="6.15421">
        <ele>549.2</ele>
        <time>2026-05-24T08:53:13Z</time>
      </trkpt>
      <trkpt lat="47.17399" lon="6.15424">
        <ele>549.6</ele>
        <time>2026-05-24T08:53:14Z</time>
      </trkpt>
      <trkpt lat="47.174" lon="6.15427">
        <ele>550</ele>
        <time>2026-05-24T08:53:15Z</time>
      </trkpt>
      <trkpt lat="47.17401" lon="6.1543">
        <ele>550.2</ele>
        <time>2026-05-24T08:53:16Z</time>
      </trkpt>
      <trkpt lat="47.17402" lon="6.15434">
        <ele>550.4</ele>
        <time>2026-05-24T08:53:17Z</time>
      </trkpt>
      <trkpt lat="47.17404" lon="6.15437">
        <ele>550.6</ele>
        <time>2026-05-24T08:53:18Z</time>
      </trkpt>
      <trkpt lat="47.17405" lon="6.1544">
        <ele>550.6</ele>
        <time>2026-05-24T08:53:19Z</time>
      </trkpt>
      <trkpt lat="47.17406" lon="6.15443">
        <ele>550.8</ele>
        <time>2026-05-24T08:53:20Z</time>
      </trkpt>
      <trkpt lat="47.17407" lon="6.15446">
        <ele>551.2</ele>
        <time>2026-05-24T08:53:21Z</time>
      </trkpt>
      <trkpt lat="47.17408" lon="6.1545">
        <ele>551</ele>
        <time>2026-05-24T08:53:22Z</time>
      </trkpt>
      <trkpt lat="47.17409" lon="6.15453">
        <ele>551.2</ele>
        <time>2026-05-24T08:53:23Z</time>
      </trkpt>
      <trkpt lat="47.1741" lon="6.15456">
        <ele>551.4</ele>
        <time>2026-05-24T08:53:24Z</time>
      </trkpt>
      <trkpt lat="47.17411" lon="6.15459">
        <ele>551.2</ele>
        <time>2026-05-24T08:53:25Z</time>
      </trkpt>
      <trkpt lat="47.17413" lon="6.1546">
        <ele>551.4</ele>
        <time>2026-05-24T08:53:26Z</time>
      </trkpt>
      <trkpt lat="47.17414" lon="6.15461">
        <ele>551.4</ele>
        <time>2026-05-24T08:53:27Z</time>
      </trkpt>
      <trkpt lat="47.17414" lon="6.15461">
        <ele>551.4</ele>
        <time>2026-05-24T08:53:28Z</time>
      </trkpt>
      <trkpt lat="47.17414" lon="6.15462">
        <ele>551.4</ele>
        <time>2026-05-24T08:53:29Z</time>
      </trkpt>
      <trkpt lat="47.17414" lon="6.15462">
        <ele>551.6</ele>
        <time>2026-05-24T08:53:30Z</time>
      </trkpt>
      <trkpt lat="47.17414" lon="6.15463">
        <ele>551.4</ele>
        <time>2026-05-24T08:53:31Z</time>
      </trkpt>
      <trkpt lat="47.17405" lon="6.1545">
        <ele>551.2</ele>
        <time>2026-05-24T08:55:14Z</time>
      </trkpt>
      <trkpt lat="47.17403" lon="6.15447">
        <ele>551</ele>
        <time>2026-05-24T08:55:15Z</time>
      </trkpt>
      <trkpt lat="47.17403" lon="6.15444">
        <ele>550.8</ele>
        <time>2026-05-24T08:55:16Z</time>
      </trkpt>
      <trkpt lat="47.17401" lon="6.15441">
        <ele>550.8</ele>
        <time>2026-05-24T08:55:17Z</time>
      </trkpt>
      <trkpt lat="47.17401" lon="6.15437">
        <ele>551</ele>
        <time>2026-05-24T08:55:18Z</time>
      </trkpt>
      <trkpt lat="47.174" lon="6.15434">
        <ele>550.8</ele>
        <time>2026-05-24T08:55:19Z</time>
      </trkpt>
      <trkpt lat="47.17399" lon="6.15432">
        <ele>550.8</ele>
        <time>2026-05-24T08:55:20Z</time>
      </trkpt>
      <trkpt lat="47.17398" lon="6.15428">
        <ele>550.8</ele>
        <time>2026-05-24T08:55:21Z</time>
      </trkpt>
      <trkpt lat="47.17396" lon="6.15424">
        <ele>550.6</ele>
        <time>2026-05-24T08:55:22Z</time>
      </trkpt>
      <trkpt lat="47.17395" lon="6.15421">
        <ele>550.6</ele>
        <time>2026-05-24T08:55:23Z</time>
      </trkpt>
      <trkpt lat="47.17394" lon="6.15417">
        <ele>550.6</ele>
        <time>2026-05-24T08:55:24Z</time>
      </trkpt>
      <trkpt lat="47.17392" lon="6.15413">
        <ele>550.4</ele>
        <time>2026-05-24T08:55:25Z</time>
      </trkpt>
      <trkpt lat="47.17391" lon="6.15409">
        <ele>550.4</ele>
        <time>2026-05-24T08:55:26Z</time>
      </trkpt>
      <trkpt lat="47.17389" lon="6.15405">
        <ele>550.4</ele>
        <time>2026-05-24T08:55:27Z</time>
      </trkpt>
      <trkpt lat="47.17386" lon="6.15401">
        <ele>550.4</ele>
        <time>2026-05-24T08:55:28Z</time>
      </trkpt>
      <trkpt lat="47.17384" lon="6.15397">
        <ele>550.4</ele>
        <time>2026-05-24T08:55:29Z</time>
      </trkpt>
      <trkpt lat="47.17382" lon="6.15392">
        <ele>550.2</ele>
        <time>2026-05-24T08:55:30Z</time>
      </trkpt>
      <trkpt lat="47.1738" lon="6.15388">
        <ele>550.4</ele>
        <time>2026-05-24T08:55:31Z</time>
      </trkpt>
      <trkpt lat="47.17377" lon="6.15384">
        <ele>550.2</ele>
        <time>2026-05-24T08:55:32Z</time>
      </trkpt>
      <trkpt lat="47.17374" lon="6.1538">
        <ele>550.2</ele>
        <time>2026-05-24T08:55:33Z</time>
      </trkpt>
      <trkpt lat="47.17371" lon="6.15376">
        <ele>550</ele>
        <time>2026-05-24T08:55:34Z</time>
      </trkpt>
      <trkpt lat="47.17368" lon="6.15372">
        <ele>550</ele>
        <time>2026-05-24T08:55:35Z</time>
      </trkpt>
      <trkpt lat="47.17364" lon="6.15368">
        <ele>549.6</ele>
        <time>2026-05-24T08:55:36Z</time>
      </trkpt>
      <trkpt lat="47.17361" lon="6.15364">
        <ele>549.6</ele>
        <time>2026-05-24T08:55:37Z</time>
      </trkpt>
      <trkpt lat="47.17358" lon="6.15361">
        <ele>549.4</ele>
        <time>2026-05-24T08:55:38Z</time>
      </trkpt>
      <trkpt lat="47.17355" lon="6.15357">
        <ele>549.4</ele>
        <time>2026-05-24T08:55:39Z</time>
      </trkpt>
      <trkpt lat="47.17352" lon="6.15352">
        <ele>549.2</ele>
        <time>2026-05-24T08:55:40Z</time>
      </trkpt>
      <trkpt lat="47.17349" lon="6.15348">
        <ele>549.2</ele>
        <time>2026-05-24T08:55:41Z</time>
      </trkpt>
      <trkpt lat="47.17346" lon="6.15344">
        <ele>549</ele>
        <time>2026-05-24T08:55:42Z</time>
      </trkpt>
      <trkpt lat="47.17344" lon="6.15339">
        <ele>548.8</ele>
        <time>2026-05-24T08:55:43Z</time>
      </trkpt>
      <trkpt lat="47.17341" lon="6.15334">
        <ele>548.6</ele>
        <time>2026-05-24T08:55:44Z</time>
      </trkpt>
      <trkpt lat="47.17338" lon="6.15329">
        <ele>548.4</ele>
        <time>2026-05-24T08:55:45Z</time>
      </trkpt>
      <trkpt lat="47.17335" lon="6.15324">
        <ele>548.2</ele>
        <time>2026-05-24T08:55:46Z</time>
      </trkpt>
      <trkpt lat="47.17331" lon="6.15318">
        <ele>548</ele>
        <time>2026-05-24T08:55:47Z</time>
      </trkpt>
      <trkpt lat="47.17328" lon="6.15312">
        <ele>548</ele>
        <time>2026-05-24T08:55:48Z</time>
      </trkpt>
      <trkpt lat="47.17324" lon="6.15306">
        <ele>548</ele>
        <time>2026-05-24T08:55:49Z</time>
      </trkpt>
      <trkpt lat="47.1732" lon="6.153">
        <ele>547.8</ele>
        <time>2026-05-24T08:55:50Z</time>
      </trkpt>
      <trkpt lat="47.17315" lon="6.15293">
        <ele>547.6</ele>
        <time>2026-05-24T08:55:51Z</time>
      </trkpt>
      <trkpt lat="47.1731" lon="6.15286">
        <ele>547.4</ele>
        <time>2026-05-24T08:55:52Z</time>
      </trkpt>
      <trkpt lat="47.17305" lon="6.15278">
        <ele>547.4</ele>
        <time>2026-05-24T08:55:53Z</time>
      </trkpt>
      <trkpt lat="47.173" lon="6.15271">
        <ele>547.2</ele>
        <time>2026-05-24T08:55:54Z</time>
      </trkpt>
      <trkpt lat="47.17294" lon="6.15263">
        <ele>547</ele>
        <time>2026-05-24T08:55:55Z</time>
      </trkpt>
      <trkpt lat="47.17289" lon="6.15256">
        <ele>547</ele>
        <time>2026-05-24T08:55:56Z</time>
      </trkpt>
      <trkpt lat="47.17284" lon="6.15248">
        <ele>546.8</ele>
        <time>2026-05-24T08:55:57Z</time>
      </trkpt>
      <trkpt lat="47.17279" lon="6.15239">
        <ele>546.6</ele>
        <time>2026-05-24T08:55:58Z</time>
      </trkpt>
      <trkpt lat="47.17274" lon="6.1523">
        <ele>546.4</ele>
        <time>2026-05-24T08:55:59Z</time>
      </trkpt>
      <trkpt lat="47.1727" lon="6.15221">
        <ele>546</ele>
        <time>2026-05-24T08:56:00Z</time>
      </trkpt>
      <trkpt lat="47.17264" lon="6.15213">
        <ele>545.8</ele>
        <time>2026-05-24T08:56:01Z</time>
      </trkpt>
      <trkpt lat="47.17259" lon="6.15206">
        <ele>545.8</ele>
        <time>2026-05-24T08:56:02Z</time>
      </trkpt>
      <trkpt lat="47.17254" lon="6.15197">
        <ele>545.4</ele>
        <time>2026-05-24T08:56:03Z</time>
      </trkpt>
      <trkpt lat="47.17249" lon="6.15189">
        <ele>545.2</ele>
        <time>2026-05-24T08:56:04Z</time>
      </trkpt>
      <trkpt lat="47.17245" lon="6.15181">
        <ele>544.8</ele>
        <time>2026-05-24T08:56:05Z</time>
      </trkpt>
      <trkpt lat="47.17239" lon="6.15171">
        <ele>544.8</ele>
        <time>2026-05-24T08:56:06Z</time>
      </trkpt>
      <trkpt lat="47.17234" lon="6.15162">
        <ele>544.6</ele>
        <time>2026-05-24T08:56:07Z</time>
      </trkpt>
      <trkpt lat="47.17229" lon="6.15152">
        <ele>544.4</ele>
        <time>2026-05-24T08:56:08Z</time>
      </trkpt>
      <trkpt lat="47.17224" lon="6.15142">
        <ele>544.4</ele>
        <time>2026-05-24T08:56:09Z</time>
      </trkpt>
      <trkpt lat="47.17221" lon="6.15132">
        <ele>544</ele>
        <time>2026-05-24T08:56:10Z</time>
      </trkpt>
      <trkpt lat="47.17216" lon="6.15122">
        <ele>544</ele>
        <time>2026-05-24T08:56:11Z</time>
      </trkpt>
      <trkpt lat="47.17212" lon="6.15112">
        <ele>544</ele>
        <time>2026-05-24T08:56:12Z</time>
      </trkpt>
      <trkpt lat="47.17208" lon="6.15102">
        <ele>543.8</ele>
        <time>2026-05-24T08:56:13Z</time>
      </trkpt>
      <trkpt lat="47.17204" lon="6.15092">
        <ele>543.4</ele>
        <time>2026-05-24T08:56:14Z</time>
      </trkpt>
      <trkpt lat="47.17199" lon="6.15082">
        <ele>543.2</ele>
        <time>2026-05-24T08:56:15Z</time>
      </trkpt>
      <trkpt lat="47.17195" lon="6.15072">
        <ele>543</ele>
        <time>2026-05-24T08:56:16Z</time>
      </trkpt>
      <trkpt lat="47.17191" lon="6.15063">
        <ele>542.4</ele>
        <time>2026-05-24T08:56:17Z</time>
      </trkpt>
      <trkpt lat="47.17187" lon="6.15054">
        <ele>542.4</ele>
        <time>2026-05-24T08:56:18Z</time>
      </trkpt>
      <trkpt lat="47.17183" lon="6.15045">
        <ele>542.2</ele>
        <time>2026-05-24T08:56:19Z</time>
      </trkpt>
      <trkpt lat="47.1718" lon="6.15036">
        <ele>542</ele>
        <time>2026-05-24T08:56:20Z</time>
      </trkpt>
      <trkpt lat="47.17176" lon="6.15027">
        <ele>542</ele>
        <time>2026-05-24T08:56:21Z</time>
      </trkpt>
      <trkpt lat="47.17173" lon="6.15019">
        <ele>541.8</ele>
        <time>2026-05-24T08:56:22Z</time>
      </trkpt>
      <trkpt lat="47.17169" lon="6.15011">
        <ele>541.6</ele>
        <time>2026-05-24T08:56:23Z</time>
      </trkpt>
      <trkpt lat="47.17165" lon="6.15003">
        <ele>541.4</ele>
        <time>2026-05-24T08:56:24Z</time>
      </trkpt>
      <trkpt lat="47.17161" lon="6.14995">
        <ele>541.2</ele>
        <time>2026-05-24T08:56:25Z</time>
      </trkpt>
      <trkpt lat="47.17157" lon="6.14987">
        <ele>541</ele>
        <time>2026-05-24T08:56:26Z</time>
      </trkpt>
      <trkpt lat="47.17153" lon="6.1498">
        <ele>540.8</ele>
        <time>2026-05-24T08:56:27Z</time>
      </trkpt>
      <trkpt lat="47.17149" lon="6.14973">
        <ele>540.8</ele>
        <time>2026-05-24T08:56:28Z</time>
      </trkpt>
      <trkpt lat="47.17144" lon="6.14965">
        <ele>540.6</ele>
        <time>2026-05-24T08:56:29Z</time>
      </trkpt>
      <trkpt lat="47.17139" lon="6.14957">
        <ele>540.4</ele>
        <time>2026-05-24T08:56:30Z</time>
      </trkpt>
      <trkpt lat="47.17134" lon="6.14949">
        <ele>540.4</ele>
        <time>2026-05-24T08:56:31Z</time>
      </trkpt>
      <trkpt lat="47.17128" lon="6.14942">
        <ele>540.4</ele>
        <time>2026-05-24T08:56:32Z</time>
      </trkpt>
      <trkpt lat="47.17122" lon="6.14934">
        <ele>540.4</ele>
        <time>2026-05-24T08:56:33Z</time>
      </trkpt>
      <trkpt lat="47.17117" lon="6.14927">
        <ele>540.2</ele>
        <time>2026-05-24T08:56:34Z</time>
      </trkpt>
      <trkpt lat="47.17111" lon="6.1492">
        <ele>540</ele>
        <time>2026-05-24T08:56:35Z</time>
      </trkpt>
      <trkpt lat="47.17105" lon="6.14912">
        <ele>539.8</ele>
        <time>2026-05-24T08:56:36Z</time>
      </trkpt>
      <trkpt lat="47.17099" lon="6.14905">
        <ele>539.6</ele>
        <time>2026-05-24T08:56:37Z</time>
      </trkpt>
      <trkpt lat="47.17093" lon="6.14899">
        <ele>539.4</ele>
        <time>2026-05-24T08:56:38Z</time>
      </trkpt>
      <trkpt lat="47.17086" lon="6.14892">
        <ele>539.2</ele>
        <time>2026-05-24T08:56:39Z</time>
      </trkpt>
      <trkpt lat="47.1708" lon="6.14885">
        <ele>538.8</ele>
        <time>2026-05-24T08:56:40Z</time>
      </trkpt>
      <trkpt lat="47.17074" lon="6.14879">
        <ele>538.6</ele>
        <time>2026-05-24T08:56:41Z</time>
      </trkpt>
      <trkpt lat="47.17067" lon="6.14872">
        <ele>538.2</ele>
        <time>2026-05-24T08:56:42Z</time>
      </trkpt>
      <trkpt lat="47.17061" lon="6.14865">
        <ele>538</ele>
        <time>2026-05-24T08:56:43Z</time>
      </trkpt>
      <trkpt lat="47.17055" lon="6.14858">
        <ele>537.8</ele>
        <time>2026-05-24T08:56:44Z</time>
      </trkpt>
      <trkpt lat="47.17049" lon="6.1485">
        <ele>537.4</ele>
        <time>2026-05-24T08:56:45Z</time>
      </trkpt>
      <trkpt lat="47.17044" lon="6.14842">
        <ele>537.2</ele>
        <time>2026-05-24T08:56:46Z</time>
      </trkpt>
      <trkpt lat="47.17039" lon="6.14833">
        <ele>536.8</ele>
        <time>2026-05-24T08:56:47Z</time>
      </trkpt>
      <trkpt lat="47.17035" lon="6.14824">
        <ele>536.6</ele>
        <time>2026-05-24T08:56:48Z</time>
      </trkpt>
      <trkpt lat="47.17032" lon="6.14815">
        <ele>536.4</ele>
        <time>2026-05-24T08:56:49Z</time>
      </trkpt>
      <trkpt lat="47.17029" lon="6.14807">
        <ele>536.2</ele>
        <time>2026-05-24T08:56:50Z</time>
      </trkpt>
      <trkpt lat="47.17027" lon="6.14799">
        <ele>536</ele>
        <time>2026-05-24T08:56:51Z</time>
      </trkpt>
      <trkpt lat="47.17026" lon="6.14793">
        <ele>535.6</ele>
        <time>2026-05-24T08:56:52Z</time>
      </trkpt>
      <trkpt lat="47.17025" lon="6.14787">
        <ele>535.4</ele>
        <time>2026-05-24T08:56:53Z</time>
      </trkpt>
      <trkpt lat="47.17024" lon="6.14783">
        <ele>535.2</ele>
        <time>2026-05-24T08:56:54Z</time>
      </trkpt>
      <trkpt lat="47.17023" lon="6.1478">
        <ele>535.2</ele>
        <time>2026-05-24T08:56:55Z</time>
      </trkpt>
      <trkpt lat="47.17023" lon="6.14778">
        <ele>535</ele>
        <time>2026-05-24T08:56:56Z</time>
      </trkpt>
      <trkpt lat="47.17023" lon="6.14777">
        <ele>534.4</ele>
        <time>2026-05-24T08:56:57Z</time>
      </trkpt>
      <trkpt lat="47.17023" lon="6.14776">
        <ele>534</ele>
        <time>2026-05-24T08:56:58Z</time>
      </trkpt>
      <trkpt lat="47.17023" lon="6.14776">
        <ele>533.6</ele>
        <time>2026-05-24T08:56:59Z</time>
      </trkpt>
      <trkpt lat="47.17024" lon="6.14776">
        <ele>533.2</ele>
        <time>2026-05-24T08:57:00Z</time>
      </trkpt>
      <trkpt lat="47.17025" lon="6.14775">
        <ele>533</ele>
        <time>2026-05-24T08:57:01Z</time>
      </trkpt>
      <trkpt lat="47.17026" lon="6.14775">
        <ele>532.4</ele>
        <time>2026-05-24T08:57:02Z</time>
      </trkpt>
      <trkpt lat="47.17028" lon="6.14776">
        <ele>532.2</ele>
        <time>2026-05-24T08:57:03Z</time>
      </trkpt>
      <trkpt lat="47.17031" lon="6.14777">
        <ele>532</ele>
        <time>2026-05-24T08:57:04Z</time>
      </trkpt>
      <trkpt lat="47.17033" lon="6.14778">
        <ele>531.8</ele>
        <time>2026-05-24T08:57:05Z</time>
      </trkpt>
      <trkpt lat="47.17037" lon="6.14779">
        <ele>531.4</ele>
        <time>2026-05-24T08:57:06Z</time>
      </trkpt>
      <trkpt lat="47.1704" lon="6.1478">
        <ele>531.4</ele>
        <time>2026-05-24T08:57:07Z</time>
      </trkpt>
      <trkpt lat="47.17044" lon="6.14782">
        <ele>531.4</ele>
        <time>2026-05-24T08:57:08Z</time>
      </trkpt>
      <trkpt lat="47.17047" lon="6.14783">
        <ele>531.4</ele>
        <time>2026-05-24T08:57:09Z</time>
      </trkpt>
      <trkpt lat="47.17051" lon="6.14785">
        <ele>531.4</ele>
        <time>2026-05-24T08:57:10Z</time>
      </trkpt>
      <trkpt lat="47.17055" lon="6.14787">
        <ele>531.4</ele>
        <time>2026-05-24T08:57:11Z</time>
      </trkpt>
      <trkpt lat="47.17059" lon="6.14789">
        <ele>531.4</ele>
        <time>2026-05-24T08:57:12Z</time>
      </trkpt>
      <trkpt lat="47.17063" lon="6.1479">
        <ele>531.4</ele>
        <time>2026-05-24T08:57:13Z</time>
      </trkpt>
      <trkpt lat="47.17067" lon="6.14792">
        <ele>531.4</ele>
        <time>2026-05-24T08:57:14Z</time>
      </trkpt>
      <trkpt lat="47.1707" lon="6.14794">
        <ele>531.2</ele>
        <time>2026-05-24T08:57:15Z</time>
      </trkpt>
      <trkpt lat="47.17074" lon="6.14796">
        <ele>531.4</ele>
        <time>2026-05-24T08:57:16Z</time>
      </trkpt>
      <trkpt lat="47.17078" lon="6.14798">
        <ele>531.4</ele>
        <time>2026-05-24T08:57:17Z</time>
      </trkpt>
      <trkpt lat="47.17082" lon="6.14801">
        <ele>531.4</ele>
        <time>2026-05-24T08:57:18Z</time>
      </trkpt>
      <trkpt lat="47.17085" lon="6.14803">
        <ele>531.2</ele>
        <time>2026-05-24T08:57:19Z</time>
      </trkpt>
      <trkpt lat="47.17089" lon="6.14805">
        <ele>531.4</ele>
        <time>2026-05-24T08:57:20Z</time>
      </trkpt>
      <trkpt lat="47.17092" lon="6.14809">
        <ele>531.2</ele>
        <time>2026-05-24T08:57:21Z</time>
      </trkpt>
      <trkpt lat="47.17096" lon="6.14812">
        <ele>531.4</ele>
        <time>2026-05-24T08:57:22Z</time>
      </trkpt>
      <trkpt lat="47.171" lon="6.14816">
        <ele>531.4</ele>
        <time>2026-05-24T08:57:23Z</time>
      </trkpt>
      <trkpt lat="47.17104" lon="6.14819">
        <ele>531.4</ele>
        <time>2026-05-24T08:57:24Z</time>
      </trkpt>
      <trkpt lat="47.17108" lon="6.14822">
        <ele>531.2</ele>
        <time>2026-05-24T08:57:25Z</time>
      </trkpt>
      <trkpt lat="47.17112" lon="6.14826">
        <ele>531.2</ele>
        <time>2026-05-24T08:57:26Z</time>
      </trkpt>
      <trkpt lat="47.17116" lon="6.14829">
        <ele>531.2</ele>
        <time>2026-05-24T08:57:27Z</time>
      </trkpt>
      <trkpt lat="47.1712" lon="6.14833">
        <ele>531.4</ele>
        <time>2026-05-24T08:57:28Z</time>
      </trkpt>
      <trkpt lat="47.17124" lon="6.14837">
        <ele>531.2</ele>
        <time>2026-05-24T08:57:29Z</time>
      </trkpt>
      <trkpt lat="47.17128" lon="6.14841">
        <ele>531</ele>
        <time>2026-05-24T08:57:30Z</time>
      </trkpt>
      <trkpt lat="47.17132" lon="6.14844">
        <ele>531.2</ele>
        <time>2026-05-24T08:57:31Z</time>
      </trkpt>
      <trkpt lat="47.17136" lon="6.14847">
        <ele>531.2</ele>
        <time>2026-05-24T08:57:32Z</time>
      </trkpt>
      <trkpt lat="47.17139" lon="6.1485">
        <ele>531</ele>
        <time>2026-05-24T08:57:33Z</time>
      </trkpt>
      <trkpt lat="47.17143" lon="6.14853">
        <ele>531</ele>
        <time>2026-05-24T08:57:34Z</time>
      </trkpt>
      <trkpt lat="47.17146" lon="6.14856">
        <ele>531</ele>
        <time>2026-05-24T08:57:35Z</time>
      </trkpt>
      <trkpt lat="47.1715" lon="6.14859">
        <ele>531</ele>
        <time>2026-05-24T08:57:36Z</time>
      </trkpt>
      <trkpt lat="47.17154" lon="6.14862">
        <ele>530.8</ele>
        <time>2026-05-24T08:57:37Z</time>
      </trkpt>
      <trkpt lat="47.17158" lon="6.14865">
        <ele>531</ele>
        <time>2026-05-24T08:57:38Z</time>
      </trkpt>
      <trkpt lat="47.17163" lon="6.14869">
        <ele>530.8</ele>
        <time>2026-05-24T08:57:39Z</time>
      </trkpt>
      <trkpt lat="47.17167" lon="6.14872">
        <ele>530.8</ele>
        <time>2026-05-24T08:57:40Z</time>
      </trkpt>
      <trkpt lat="47.17171" lon="6.14876">
        <ele>530.8</ele>
        <time>2026-05-24T08:57:41Z</time>
      </trkpt>
      <trkpt lat="47.17176" lon="6.1488">
        <ele>530.8</ele>
        <time>2026-05-24T08:57:42Z</time>
      </trkpt>
      <trkpt lat="47.17181" lon="6.14884">
        <ele>530.8</ele>
        <time>2026-05-24T08:57:43Z</time>
      </trkpt>
      <trkpt lat="47.17187" lon="6.14888">
        <ele>530.6</ele>
        <time>2026-05-24T08:57:44Z</time>
      </trkpt>
      <trkpt lat="47.17193" lon="6.14892">
        <ele>530.4</ele>
        <time>2026-05-24T08:57:45Z</time>
      </trkpt>
      <trkpt lat="47.17198" lon="6.14896">
        <ele>530.4</ele>
        <time>2026-05-24T08:57:46Z</time>
      </trkpt>
      <trkpt lat="47.17204" lon="6.149">
        <ele>530.4</ele>
        <time>2026-05-24T08:57:47Z</time>
      </trkpt>
      <trkpt lat="47.1721" lon="6.14903">
        <ele>530.4</ele>
        <time>2026-05-24T08:57:48Z</time>
      </trkpt>
      <trkpt lat="47.17215" lon="6.14906">
        <ele>530</ele>
        <time>2026-05-24T08:57:49Z</time>
      </trkpt>
      <trkpt lat="47.17221" lon="6.1491">
        <ele>529.8</ele>
        <time>2026-05-24T08:57:50Z</time>
      </trkpt>
      <trkpt lat="47.17227" lon="6.14913">
        <ele>529.6</ele>
        <time>2026-05-24T08:57:51Z</time>
      </trkpt>
      <trkpt lat="47.17234" lon="6.14916">
        <ele>529.4</ele>
        <time>2026-05-24T08:57:52Z</time>
      </trkpt>
      <trkpt lat="47.17239" lon="6.14918">
        <ele>529.2</ele>
        <time>2026-05-24T08:57:53Z</time>
      </trkpt>
      <trkpt lat="47.17245" lon="6.1492">
        <ele>529</ele>
        <time>2026-05-24T08:57:54Z</time>
      </trkpt>
      <trkpt lat="47.17252" lon="6.14922">
        <ele>528.8</ele>
        <time>2026-05-24T08:57:55Z</time>
      </trkpt>
      <trkpt lat="47.17259" lon="6.14924">
        <ele>528.8</ele>
        <time>2026-05-24T08:57:56Z</time>
      </trkpt>
      <trkpt lat="47.17267" lon="6.14925">
        <ele>528.6</ele>
        <time>2026-05-24T08:57:57Z</time>
      </trkpt>
      <trkpt lat="47.17275" lon="6.14925">
        <ele>528.4</ele>
        <time>2026-05-24T08:57:58Z</time>
      </trkpt>
      <trkpt lat="47.17282" lon="6.14925">
        <ele>528.4</ele>
        <time>2026-05-24T08:57:59Z</time>
      </trkpt>
      <trkpt lat="47.17289" lon="6.14925">
        <ele>528.2</ele>
        <time>2026-05-24T08:58:00Z</time>
      </trkpt>
      <trkpt lat="47.17297" lon="6.14924">
        <ele>528.2</ele>
        <time>2026-05-24T08:58:01Z</time>
      </trkpt>
      <trkpt lat="47.17304" lon="6.14924">
        <ele>528.2</ele>
        <time>2026-05-24T08:58:02Z</time>
      </trkpt>
      <trkpt lat="47.1731" lon="6.14924">
        <ele>528.2</ele>
        <time>2026-05-24T08:58:03Z</time>
      </trkpt>
      <trkpt lat="47.17316" lon="6.14924">
        <ele>528.4</ele>
        <time>2026-05-24T08:58:04Z</time>
      </trkpt>
      <trkpt lat="47.17321" lon="6.14925">
        <ele>528.2</ele>
        <time>2026-05-24T08:58:05Z</time>
      </trkpt>
      <trkpt lat="47.17326" lon="6.14927">
        <ele>528.2</ele>
        <time>2026-05-24T08:58:06Z</time>
      </trkpt>
      <trkpt lat="47.17331" lon="6.14928">
        <ele>528.4</ele>
        <time>2026-05-24T08:58:07Z</time>
      </trkpt>
      <trkpt lat="47.17335" lon="6.14929">
        <ele>528.2</ele>
        <time>2026-05-24T08:58:08Z</time>
      </trkpt>
      <trkpt lat="47.1734" lon="6.14931">
        <ele>528.2</ele>
        <time>2026-05-24T08:58:09Z</time>
      </trkpt>
      <trkpt lat="47.17344" lon="6.14932">
        <ele>528.2</ele>
        <time>2026-05-24T08:58:10Z</time>
      </trkpt>
      <trkpt lat="47.17348" lon="6.14933">
        <ele>528.2</ele>
        <time>2026-05-24T08:58:11Z</time>
      </trkpt>
      <trkpt lat="47.17352" lon="6.14934">
        <ele>528.4</ele>
        <time>2026-05-24T08:58:12Z</time>
      </trkpt>
      <trkpt lat="47.17355" lon="6.14935">
        <ele>528.8</ele>
        <time>2026-05-24T08:58:13Z</time>
      </trkpt>
      <trkpt lat="47.17358" lon="6.14937">
        <ele>529</ele>
        <time>2026-05-24T08:58:14Z</time>
      </trkpt>
      <trkpt lat="47.17362" lon="6.14939">
        <ele>529.4</ele>
        <time>2026-05-24T08:58:15Z</time>
      </trkpt>
      <trkpt lat="47.17365" lon="6.1494">
        <ele>529.4</ele>
        <time>2026-05-24T08:58:16Z</time>
      </trkpt>
      <trkpt lat="47.17368" lon="6.14942">
        <ele>529.8</ele>
        <time>2026-05-24T08:58:17Z</time>
      </trkpt>
      <trkpt lat="47.17371" lon="6.14942">
        <ele>530</ele>
        <time>2026-05-24T08:58:18Z</time>
      </trkpt>
      <trkpt lat="47.17374" lon="6.14943">
        <ele>530</ele>
        <time>2026-05-24T08:58:19Z</time>
      </trkpt>
      <trkpt lat="47.17376" lon="6.14943">
        <ele>530.4</ele>
        <time>2026-05-24T08:58:20Z</time>
      </trkpt>
      <trkpt lat="47.17379" lon="6.14943">
        <ele>530.6</ele>
        <time>2026-05-24T08:58:21Z</time>
      </trkpt>
      <trkpt lat="47.17382" lon="6.14942">
        <ele>530.8</ele>
        <time>2026-05-24T08:58:22Z</time>
      </trkpt>
      <trkpt lat="47.17384" lon="6.14942">
        <ele>531</ele>
        <time>2026-05-24T08:58:23Z</time>
      </trkpt>
      <trkpt lat="47.17385" lon="6.14941">
        <ele>531</ele>
        <time>2026-05-24T08:58:24Z</time>
      </trkpt>
      <trkpt lat="47.17387" lon="6.1494">
        <ele>531.2</ele>
        <time>2026-05-24T08:58:25Z</time>
      </trkpt>
      <trkpt lat="47.17389" lon="6.14939">
        <ele>531.2</ele>
        <time>2026-05-24T08:58:26Z</time>
      </trkpt>
      <trkpt lat="47.17391" lon="6.14938">
        <ele>531.6</ele>
        <time>2026-05-24T08:58:27Z</time>
      </trkpt>
      <trkpt lat="47.17393" lon="6.14936">
        <ele>531.8</ele>
        <time>2026-05-24T08:58:28Z</time>
      </trkpt>
      <trkpt lat="47.17395" lon="6.14934">
        <ele>532</ele>
        <time>2026-05-24T08:58:29Z</time>
      </trkpt>
      <trkpt lat="47.17396" lon="6.14932">
        <ele>532</ele>
        <time>2026-05-24T08:58:30Z</time>
      </trkpt>
      <trkpt lat="47.17398" lon="6.1493">
        <ele>532.2</ele>
        <time>2026-05-24T08:58:31Z</time>
      </trkpt>
      <trkpt lat="47.174" lon="6.14929">
        <ele>532.4</ele>
        <time>2026-05-24T08:58:32Z</time>
      </trkpt>
      <trkpt lat="47.17402" lon="6.14927">
        <ele>532.6</ele>
        <time>2026-05-24T08:58:33Z</time>
      </trkpt>
      <trkpt lat="47.17404" lon="6.14925">
        <ele>532.6</ele>
        <time>2026-05-24T08:58:34Z</time>
      </trkpt>
      <trkpt lat="47.17405" lon="6.14923">
        <ele>532.8</ele>
        <time>2026-05-24T08:58:35Z</time>
      </trkpt>
      <trkpt lat="47.17407" lon="6.14922">
        <ele>533</ele>
        <time>2026-05-24T08:58:36Z</time>
      </trkpt>
      <trkpt lat="47.17409" lon="6.14921">
        <ele>533.2</ele>
        <time>2026-05-24T08:58:37Z</time>
      </trkpt>
      <trkpt lat="47.1741" lon="6.1492">
        <ele>533.4</ele>
        <time>2026-05-24T08:58:38Z</time>
      </trkpt>
      <trkpt lat="47.17412" lon="6.14918">
        <ele>533.6</ele>
        <time>2026-05-24T08:58:39Z</time>
      </trkpt>
      <trkpt lat="47.17414" lon="6.14917">
        <ele>533.8</ele>
        <time>2026-05-24T08:58:40Z</time>
      </trkpt>
      <trkpt lat="47.17415" lon="6.14915">
        <ele>534</ele>
        <time>2026-05-24T08:58:41Z</time>
      </trkpt>
      <trkpt lat="47.17417" lon="6.14914">
        <ele>534.4</ele>
        <time>2026-05-24T08:58:42Z</time>
      </trkpt>
      <trkpt lat="47.17418" lon="6.14911">
        <ele>534.6</ele>
        <time>2026-05-24T08:58:43Z</time>
      </trkpt>
      <trkpt lat="47.1742" lon="6.14909">
        <ele>534.8</ele>
        <time>2026-05-24T08:58:44Z</time>
      </trkpt>
      <trkpt lat="47.17421" lon="6.14907">
        <ele>535.2</ele>
        <time>2026-05-24T08:58:45Z</time>
      </trkpt>
      <trkpt lat="47.17423" lon="6.14904">
        <ele>535.2</ele>
        <time>2026-05-24T08:58:46Z</time>
      </trkpt>
      <trkpt lat="47.17424" lon="6.14901">
        <ele>535.4</ele>
        <time>2026-05-24T08:58:47Z</time>
      </trkpt>
      <trkpt lat="47.17425" lon="6.14899">
        <ele>535.6</ele>
        <time>2026-05-24T08:58:48Z</time>
      </trkpt>
      <trkpt lat="47.17426" lon="6.14896">
        <ele>535.8</ele>
        <time>2026-05-24T08:58:49Z</time>
      </trkpt>
      <trkpt lat="47.17428" lon="6.14894">
        <ele>536</ele>
        <time>2026-05-24T08:58:50Z</time>
      </trkpt>
      <trkpt lat="47.17429" lon="6.14892">
        <ele>536</ele>
        <time>2026-05-24T08:58:51Z</time>
      </trkpt>
      <trkpt lat="47.17431" lon="6.14889">
        <ele>536.4</ele>
        <time>2026-05-24T08:58:52Z</time>
      </trkpt>
      <trkpt lat="47.17432" lon="6.14886">
        <ele>536.8</ele>
        <time>2026-05-24T08:58:53Z</time>
      </trkpt>
      <trkpt lat="47.17433" lon="6.14883">
        <ele>537</ele>
        <time>2026-05-24T08:58:54Z</time>
      </trkpt>
      <trkpt lat="47.17434" lon="6.1488">
        <ele>537.2</ele>
        <time>2026-05-24T08:58:55Z</time>
      </trkpt>
      <trkpt lat="47.17435" lon="6.14877">
        <ele>537.4</ele>
        <time>2026-05-24T08:58:56Z</time>
      </trkpt>
      <trkpt lat="47.17435" lon="6.14875">
        <ele>537.8</ele>
        <time>2026-05-24T08:58:57Z</time>
      </trkpt>
      <trkpt lat="47.17436" lon="6.14872">
        <ele>538.2</ele>
        <time>2026-05-24T08:58:58Z</time>
      </trkpt>
      <trkpt lat="47.17436" lon="6.1487">
        <ele>538.6</ele>
        <time>2026-05-24T08:58:59Z</time>
      </trkpt>
      <trkpt lat="47.17436" lon="6.14868">
        <ele>538.8</ele>
        <time>2026-05-24T08:59:00Z</time>
      </trkpt>
      <trkpt lat="47.17436" lon="6.14866">
        <ele>539</ele>
        <time>2026-05-24T08:59:01Z</time>
      </trkpt>
      <trkpt lat="47.17436" lon="6.14863">
        <ele>539.6</ele>
        <time>2026-05-24T08:59:02Z</time>
      </trkpt>
      <trkpt lat="47.17437" lon="6.14861">
        <ele>540</ele>
        <time>2026-05-24T08:59:03Z</time>
      </trkpt>
      <trkpt lat="47.17437" lon="6.14858">
        <ele>540.2</ele>
        <time>2026-05-24T08:59:04Z</time>
      </trkpt>
      <trkpt lat="47.17438" lon="6.14856">
        <ele>540.6</ele>
        <time>2026-05-24T08:59:05Z</time>
      </trkpt>
      <trkpt lat="47.17438" lon="6.14854">
        <ele>540.6</ele>
        <time>2026-05-24T08:59:06Z</time>
      </trkpt>
      <trkpt lat="47.17438" lon="6.14852">
        <ele>541</ele>
        <time>2026-05-24T08:59:07Z</time>
      </trkpt>
      <trkpt lat="47.17439" lon="6.14851">
        <ele>541.4</ele>
        <time>2026-05-24T08:59:08Z</time>
      </trkpt>
      <trkpt lat="47.17439" lon="6.1485">
        <ele>541.4</ele>
        <time>2026-05-24T08:59:09Z</time>
      </trkpt>
      <trkpt lat="47.1744" lon="6.14849">
        <ele>541.8</ele>
        <time>2026-05-24T08:59:10Z</time>
      </trkpt>
      <trkpt lat="47.17441" lon="6.14847">
        <ele>542</ele>
        <time>2026-05-24T08:59:11Z</time>
      </trkpt>
      <trkpt lat="47.17442" lon="6.14846">
        <ele>542.4</ele>
        <time>2026-05-24T08:59:12Z</time>
      </trkpt>
      <trkpt lat="47.17443" lon="6.14845">
        <ele>542.6</ele>
        <time>2026-05-24T08:59:13Z</time>
      </trkpt>
      <trkpt lat="47.17444" lon="6.14843">
        <ele>542.8</ele>
        <time>2026-05-24T08:59:14Z</time>
      </trkpt>
      <trkpt lat="47.17445" lon="6.14841">
        <ele>543</ele>
        <time>2026-05-24T08:59:15Z</time>
      </trkpt>
      <trkpt lat="47.17445" lon="6.14839">
        <ele>543.4</ele>
        <time>2026-05-24T08:59:16Z</time>
      </trkpt>
      <trkpt lat="47.17446" lon="6.14837">
        <ele>543.8</ele>
        <time>2026-05-24T08:59:17Z</time>
      </trkpt>
      <trkpt lat="47.17446" lon="6.14834">
        <ele>543.8</ele>
        <time>2026-05-24T08:59:18Z</time>
      </trkpt>
      <trkpt lat="47.17447" lon="6.14832">
        <ele>544.2</ele>
        <time>2026-05-24T08:59:19Z</time>
      </trkpt>
      <trkpt lat="47.17448" lon="6.14829">
        <ele>544.8</ele>
        <time>2026-05-24T08:59:20Z</time>
      </trkpt>
      <trkpt lat="47.17448" lon="6.14826">
        <ele>545</ele>
        <time>2026-05-24T08:59:21Z</time>
      </trkpt>
      <trkpt lat="47.17449" lon="6.14823">
        <ele>545.4</ele>
        <time>2026-05-24T08:59:22Z</time>
      </trkpt>
      <trkpt lat="47.17449" lon="6.14821">
        <ele>545.4</ele>
        <time>2026-05-24T08:59:23Z</time>
      </trkpt>
      <trkpt lat="47.1745" lon="6.14818">
        <ele>545.4</ele>
        <time>2026-05-24T08:59:24Z</time>
      </trkpt>
      <trkpt lat="47.17451" lon="6.14815">
        <ele>545.6</ele>
        <time>2026-05-24T08:59:25Z</time>
      </trkpt>
      <trkpt lat="47.17452" lon="6.14812">
        <ele>545.8</ele>
        <time>2026-05-24T08:59:26Z</time>
      </trkpt>
      <trkpt lat="47.17452" lon="6.14809">
        <ele>545.8</ele>
        <time>2026-05-24T08:59:27Z</time>
      </trkpt>
      <trkpt lat="47.17453" lon="6.14807">
        <ele>546</ele>
        <time>2026-05-24T08:59:28Z</time>
      </trkpt>
      <trkpt lat="47.17453" lon="6.14804">
        <ele>546</ele>
        <time>2026-05-24T08:59:29Z</time>
      </trkpt>
      <trkpt lat="47.17454" lon="6.148">
        <ele>546</ele>
        <time>2026-05-24T08:59:30Z</time>
      </trkpt>
      <trkpt lat="47.17455" lon="6.14797">
        <ele>546</ele>
        <time>2026-05-24T08:59:31Z</time>
      </trkpt>
      <trkpt lat="47.17455" lon="6.14792">
        <ele>546.2</ele>
        <time>2026-05-24T08:59:32Z</time>
      </trkpt>
      <trkpt lat="47.17456" lon="6.14788">
        <ele>546.2</ele>
        <time>2026-05-24T08:59:33Z</time>
      </trkpt>
      <trkpt lat="47.17456" lon="6.14783">
        <ele>546.4</ele>
        <time>2026-05-24T08:59:34Z</time>
      </trkpt>
      <trkpt lat="47.17456" lon="6.14778">
        <ele>546.2</ele>
        <time>2026-05-24T08:59:35Z</time>
      </trkpt>
      <trkpt lat="47.17457" lon="6.14772">
        <ele>546.4</ele>
        <time>2026-05-24T08:59:36Z</time>
      </trkpt>
      <trkpt lat="47.17457" lon="6.14767">
        <ele>546.6</ele>
        <time>2026-05-24T08:59:37Z</time>
      </trkpt>
      <trkpt lat="47.17458" lon="6.14763">
        <ele>546.6</ele>
        <time>2026-05-24T08:59:38Z</time>
      </trkpt>
      <trkpt lat="47.17458" lon="6.14758">
        <ele>546.6</ele>
        <time>2026-05-24T08:59:39Z</time>
      </trkpt>
      <trkpt lat="47.17459" lon="6.14754">
        <ele>546.6</ele>
        <time>2026-05-24T08:59:40Z</time>
      </trkpt>
      <trkpt lat="47.17459" lon="6.14749">
        <ele>546.8</ele>
        <time>2026-05-24T08:59:41Z</time>
      </trkpt>
      <trkpt lat="47.1746" lon="6.14745">
        <ele>546.8</ele>
        <time>2026-05-24T08:59:42Z</time>
      </trkpt>
      <trkpt lat="47.17461" lon="6.1474">
        <ele>546.8</ele>
        <time>2026-05-24T08:59:43Z</time>
      </trkpt>
      <trkpt lat="47.17461" lon="6.14735">
        <ele>546.8</ele>
        <time>2026-05-24T08:59:44Z</time>
      </trkpt>
      <trkpt lat="47.17462" lon="6.14731">
        <ele>547</ele>
        <time>2026-05-24T08:59:45Z</time>
      </trkpt>
      <trkpt lat="47.17463" lon="6.14727">
        <ele>547</ele>
        <time>2026-05-24T08:59:46Z</time>
      </trkpt>
      <trkpt lat="47.17463" lon="6.14724">
        <ele>547</ele>
        <time>2026-05-24T08:59:47Z</time>
      </trkpt>
      <trkpt lat="47.17463" lon="6.1472">
        <ele>547.2</ele>
        <time>2026-05-24T08:59:48Z</time>
      </trkpt>
      <trkpt lat="47.17464" lon="6.14716">
        <ele>547.4</ele>
        <time>2026-05-24T08:59:49Z</time>
      </trkpt>
      <trkpt lat="47.17464" lon="6.14713">
        <ele>547.2</ele>
        <time>2026-05-24T08:59:50Z</time>
      </trkpt>
      <trkpt lat="47.17464" lon="6.1471">
        <ele>547.2</ele>
        <time>2026-05-24T08:59:51Z</time>
      </trkpt>
      <trkpt lat="47.17464" lon="6.14707">
        <ele>547.2</ele>
        <time>2026-05-24T08:59:52Z</time>
      </trkpt>
      <trkpt lat="47.17463" lon="6.14704">
        <ele>547.2</ele>
        <time>2026-05-24T08:59:53Z</time>
      </trkpt>
      <trkpt lat="47.17463" lon="6.14701">
        <ele>547.4</ele>
        <time>2026-05-24T08:59:54Z</time>
      </trkpt>
      <trkpt lat="47.17462" lon="6.147">
        <ele>547.6</ele>
        <time>2026-05-24T08:59:55Z</time>
      </trkpt>
      <trkpt lat="47.17462" lon="6.14699">
        <ele>547.4</ele>
        <time>2026-05-24T08:59:56Z</time>
      </trkpt>
      <trkpt lat="47.17461" lon="6.14698">
        <ele>547.6</ele>
        <time>2026-05-24T08:59:57Z</time>
      </trkpt>
      <trkpt lat="47.1746" lon="6.14697">
        <ele>547.4</ele>
        <time>2026-05-24T08:59:58Z</time>
      </trkpt>
      <trkpt lat="47.1746" lon="6.14697">
        <ele>547.4</ele>
        <time>2026-05-24T08:59:59Z</time>
      </trkpt>
      <trkpt lat="47.1746" lon="6.14696">
        <ele>547.6</ele>
        <time>2026-05-24T09:00:00Z</time>
      </trkpt>
      <trkpt lat="47.17459" lon="6.14696">
        <ele>547.4</ele>
        <time>2026-05-24T09:00:01Z</time>
      </trkpt>
      <trkpt lat="47.17459" lon="6.14696">
        <ele>547.6</ele>
        <time>2026-05-24T09:00:02Z</time>
      </trkpt>
      <trkpt lat="47.17443" lon="6.14685">
        <ele>548.6</ele>
        <time>2026-05-24T09:03:02Z</time>
      </trkpt>
      <trkpt lat="47.17442" lon="6.14683">
        <ele>548.6</ele>
        <time>2026-05-24T09:03:03Z</time>
      </trkpt>
      <trkpt lat="47.1744" lon="6.1468">
        <ele>548.6</ele>
        <time>2026-05-24T09:03:04Z</time>
      </trkpt>
      <trkpt lat="47.17438" lon="6.14678">
        <ele>548.8</ele>
        <time>2026-05-24T09:03:05Z</time>
      </trkpt>
      <trkpt lat="47.17436" lon="6.14675">
        <ele>548.8</ele>
        <time>2026-05-24T09:03:06Z</time>
      </trkpt>
      <trkpt lat="47.17435" lon="6.14672">
        <ele>548.8</ele>
        <time>2026-05-24T09:03:07Z</time>
      </trkpt>
      <trkpt lat="47.17433" lon="6.1467">
        <ele>549</ele>
        <time>2026-05-24T09:03:08Z</time>
      </trkpt>
      <trkpt lat="47.17431" lon="6.14667">
        <ele>549</ele>
        <time>2026-05-24T09:03:09Z</time>
      </trkpt>
      <trkpt lat="47.1743" lon="6.14665">
        <ele>549.2</ele>
        <time>2026-05-24T09:03:10Z</time>
      </trkpt>
      <trkpt lat="47.17428" lon="6.14663">
        <ele>549.2</ele>
        <time>2026-05-24T09:03:11Z</time>
      </trkpt>
      <trkpt lat="47.17426" lon="6.14661">
        <ele>549.2</ele>
        <time>2026-05-24T09:03:12Z</time>
      </trkpt>
      <trkpt lat="47.17425" lon="6.14659">
        <ele>549.2</ele>
        <time>2026-05-24T09:03:13Z</time>
      </trkpt>
      <trkpt lat="47.17423" lon="6.14657">
        <ele>549.2</ele>
        <time>2026-05-24T09:03:14Z</time>
      </trkpt>
      <trkpt lat="47.17421" lon="6.14655">
        <ele>549.4</ele>
        <time>2026-05-24T09:03:15Z</time>
      </trkpt>
      <trkpt lat="47.17418" lon="6.14652">
        <ele>549.4</ele>
        <time>2026-05-24T09:03:16Z</time>
      </trkpt>
      <trkpt lat="47.17416" lon="6.1465">
        <ele>549.6</ele>
        <time>2026-05-24T09:03:17Z</time>
      </trkpt>
      <trkpt lat="47.17414" lon="6.14648">
        <ele>549.4</ele>
        <time>2026-05-24T09:03:18Z</time>
      </trkpt>
      <trkpt lat="47.17413" lon="6.14645">
        <ele>549.6</ele>
        <time>2026-05-24T09:03:19Z</time>
      </trkpt>
      <trkpt lat="47.17411" lon="6.14642">
        <ele>549.6</ele>
        <time>2026-05-24T09:03:20Z</time>
      </trkpt>
      <trkpt lat="47.17408" lon="6.14639">
        <ele>549.6</ele>
        <time>2026-05-24T09:03:21Z</time>
      </trkpt>
      <trkpt lat="47.17406" lon="6.14636">
        <ele>549.8</ele>
        <time>2026-05-24T09:03:22Z</time>
      </trkpt>
      <trkpt lat="47.17404" lon="6.14633">
        <ele>550</ele>
        <time>2026-05-24T09:03:23Z</time>
      </trkpt>
      <trkpt lat="47.17403" lon="6.14631">
        <ele>550.2</ele>
        <time>2026-05-24T09:03:24Z</time>
      </trkpt>
      <trkpt lat="47.17401" lon="6.14628">
        <ele>550.2</ele>
        <time>2026-05-24T09:03:25Z</time>
      </trkpt>
      <trkpt lat="47.17399" lon="6.14626">
        <ele>550.4</ele>
        <time>2026-05-24T09:03:26Z</time>
      </trkpt>
      <trkpt lat="47.17397" lon="6.14624">
        <ele>550.4</ele>
        <time>2026-05-24T09:03:27Z</time>
      </trkpt>
      <trkpt lat="47.17395" lon="6.14621">
        <ele>550.6</ele>
        <time>2026-05-24T09:03:28Z</time>
      </trkpt>
      <trkpt lat="47.17393" lon="6.14618">
        <ele>551</ele>
        <time>2026-05-24T09:03:29Z</time>
      </trkpt>
      <trkpt lat="47.17391" lon="6.14617">
        <ele>551</ele>
        <time>2026-05-24T09:03:30Z</time>
      </trkpt>
      <trkpt lat="47.17389" lon="6.14614">
        <ele>551.4</ele>
        <time>2026-05-24T09:03:31Z</time>
      </trkpt>
      <trkpt lat="47.17387" lon="6.14613">
        <ele>551.8</ele>
        <time>2026-05-24T09:03:32Z</time>
      </trkpt>
      <trkpt lat="47.17384" lon="6.14612">
        <ele>551.8</ele>
        <time>2026-05-24T09:03:33Z</time>
      </trkpt>
      <trkpt lat="47.17381" lon="6.14612">
        <ele>551.8</ele>
        <time>2026-05-24T09:03:34Z</time>
      </trkpt>
      <trkpt lat="47.17379" lon="6.14612">
        <ele>552</ele>
        <time>2026-05-24T09:03:35Z</time>
      </trkpt>
      <trkpt lat="47.17377" lon="6.14612">
        <ele>552.2</ele>
        <time>2026-05-24T09:03:36Z</time>
      </trkpt>
      <trkpt lat="47.17374" lon="6.14611">
        <ele>552.2</ele>
        <time>2026-05-24T09:03:37Z</time>
      </trkpt>
      <trkpt lat="47.17371" lon="6.1461">
        <ele>552</ele>
        <time>2026-05-24T09:03:38Z</time>
      </trkpt>
      <trkpt lat="47.17369" lon="6.14609">
        <ele>552.2</ele>
        <time>2026-05-24T09:03:39Z</time>
      </trkpt>
      <trkpt lat="47.17366" lon="6.14607">
        <ele>552.4</ele>
        <time>2026-05-24T09:03:40Z</time>
      </trkpt>
      <trkpt lat="47.17364" lon="6.14605">
        <ele>552.4</ele>
        <time>2026-05-24T09:03:41Z</time>
      </trkpt>
      <trkpt lat="47.17361" lon="6.14604">
        <ele>552.6</ele>
        <time>2026-05-24T09:03:42Z</time>
      </trkpt>
      <trkpt lat="47.17359" lon="6.14603">
        <ele>552.6</ele>
        <time>2026-05-24T09:03:43Z</time>
      </trkpt>
      <trkpt lat="47.17356" lon="6.14602">
        <ele>553</ele>
        <time>2026-05-24T09:03:44Z</time>
      </trkpt>
      <trkpt lat="47.17354" lon="6.146">
        <ele>553</ele>
        <time>2026-05-24T09:03:45Z</time>
      </trkpt>
      <trkpt lat="47.17352" lon="6.146">
        <ele>553</ele>
        <time>2026-05-24T09:03:46Z</time>
      </trkpt>
      <trkpt lat="47.17349" lon="6.14599">
        <ele>553.2</ele>
        <time>2026-05-24T09:03:47Z</time>
      </trkpt>
      <trkpt lat="47.17347" lon="6.14598">
        <ele>553.4</ele>
        <time>2026-05-24T09:03:48Z</time>
      </trkpt>
      <trkpt lat="47.17345" lon="6.14597">
        <ele>553.2</ele>
        <time>2026-05-24T09:03:49Z</time>
      </trkpt>
      <trkpt lat="47.17342" lon="6.14596">
        <ele>553.4</ele>
        <time>2026-05-24T09:03:50Z</time>
      </trkpt>
      <trkpt lat="47.1734" lon="6.14595">
        <ele>553.4</ele>
        <time>2026-05-24T09:03:51Z</time>
      </trkpt>
      <trkpt lat="47.17339" lon="6.14595">
        <ele>553.4</ele>
        <time>2026-05-24T09:03:52Z</time>
      </trkpt>
      <trkpt lat="47.17337" lon="6.14594">
        <ele>553.6</ele>
        <time>2026-05-24T09:03:53Z</time>
      </trkpt>
      <trkpt lat="47.17335" lon="6.14593">
        <ele>553.4</ele>
        <time>2026-05-24T09:03:54Z</time>
      </trkpt>
      <trkpt lat="47.17333" lon="6.14591">
        <ele>553.6</ele>
        <time>2026-05-24T09:03:55Z</time>
      </trkpt>
      <trkpt lat="47.17331" lon="6.1459">
        <ele>553.6</ele>
        <time>2026-05-24T09:03:56Z</time>
      </trkpt>
      <trkpt lat="47.17329" lon="6.14588">
        <ele>553.8</ele>
        <time>2026-05-24T09:03:57Z</time>
      </trkpt>
      <trkpt lat="47.17327" lon="6.14586">
        <ele>553.6</ele>
        <time>2026-05-24T09:03:58Z</time>
      </trkpt>
      <trkpt lat="47.17325" lon="6.14585">
        <ele>553.8</ele>
        <time>2026-05-24T09:03:59Z</time>
      </trkpt>
      <trkpt lat="47.17323" lon="6.14584">
        <ele>554</ele>
        <time>2026-05-24T09:04:00Z</time>
      </trkpt>
      <trkpt lat="47.17321" lon="6.14583">
        <ele>553.8</ele>
        <time>2026-05-24T09:04:01Z</time>
      </trkpt>
      <trkpt lat="47.17319" lon="6.14582">
        <ele>554</ele>
        <time>2026-05-24T09:04:02Z</time>
      </trkpt>
      <trkpt lat="47.17317" lon="6.14581">
        <ele>554</ele>
        <time>2026-05-24T09:04:03Z</time>
      </trkpt>
      <trkpt lat="47.17316" lon="6.14579">
        <ele>554</ele>
        <time>2026-05-24T09:04:04Z</time>
      </trkpt>
      <trkpt lat="47.17314" lon="6.14577">
        <ele>554</ele>
        <time>2026-05-24T09:04:05Z</time>
      </trkpt>
      <trkpt lat="47.17311" lon="6.14575">
        <ele>554</ele>
        <time>2026-05-24T09:04:06Z</time>
      </trkpt>
      <trkpt lat="47.17309" lon="6.14573">
        <ele>554.2</ele>
        <time>2026-05-24T09:04:07Z</time>
      </trkpt>
      <trkpt lat="47.17306" lon="6.14569">
        <ele>554</ele>
        <time>2026-05-24T09:04:08Z</time>
      </trkpt>
      <trkpt lat="47.17304" lon="6.14566">
        <ele>554</ele>
        <time>2026-05-24T09:04:09Z</time>
      </trkpt>
      <trkpt lat="47.17302" lon="6.14564">
        <ele>553.8</ele>
        <time>2026-05-24T09:04:10Z</time>
      </trkpt>
      <trkpt lat="47.17301" lon="6.1456">
        <ele>554</ele>
        <time>2026-05-24T09:04:11Z</time>
      </trkpt>
      <trkpt lat="47.17299" lon="6.14558">
        <ele>554</ele>
        <time>2026-05-24T09:04:12Z</time>
      </trkpt>
      <trkpt lat="47.17297" lon="6.14555">
        <ele>554</ele>
        <time>2026-05-24T09:04:13Z</time>
      </trkpt>
      <trkpt lat="47.17296" lon="6.14551">
        <ele>553.6</ele>
        <time>2026-05-24T09:04:14Z</time>
      </trkpt>
      <trkpt lat="47.17293" lon="6.14544">
        <ele>553.8</ele>
        <time>2026-05-24T09:04:15Z</time>
      </trkpt>
      <trkpt lat="47.1729" lon="6.14538">
        <ele>553.8</ele>
        <time>2026-05-24T09:04:16Z</time>
      </trkpt>
      <trkpt lat="47.17286" lon="6.14529">
        <ele>553.6</ele>
        <time>2026-05-24T09:04:17Z</time>
      </trkpt>
      <trkpt lat="47.17281" lon="6.1452">
        <ele>553.6</ele>
        <time>2026-05-24T09:04:18Z</time>
      </trkpt>
      <trkpt lat="47.17278" lon="6.14512">
        <ele>553.6</ele>
        <time>2026-05-24T09:04:19Z</time>
      </trkpt>
      <trkpt lat="47.17275" lon="6.14505">
        <ele>553.4</ele>
        <time>2026-05-24T09:04:20Z</time>
      </trkpt>
      <trkpt lat="47.17271" lon="6.14498">
        <ele>553.2</ele>
        <time>2026-05-24T09:04:21Z</time>
      </trkpt>
      <trkpt lat="47.17267" lon="6.14491">
        <ele>553</ele>
        <time>2026-05-24T09:04:22Z</time>
      </trkpt>
      <trkpt lat="47.17263" lon="6.14486">
        <ele>552.8</ele>
        <time>2026-05-24T09:04:23Z</time>
      </trkpt>
      <trkpt lat="47.17259" lon="6.14481">
        <ele>552.6</ele>
        <time>2026-05-24T09:04:24Z</time>
      </trkpt>
      <trkpt lat="47.17255" lon="6.14478">
        <ele>552</ele>
        <time>2026-05-24T09:04:25Z</time>
      </trkpt>
      <trkpt lat="47.17251" lon="6.14475">
        <ele>551.4</ele>
        <time>2026-05-24T09:04:26Z</time>
      </trkpt>
      <trkpt lat="47.17246" lon="6.1447">
        <ele>551.2</ele>
        <time>2026-05-24T09:04:27Z</time>
      </trkpt>
      <trkpt lat="47.17243" lon="6.14468">
        <ele>550.8</ele>
        <time>2026-05-24T09:04:28Z</time>
      </trkpt>
      <trkpt lat="47.17239" lon="6.14466">
        <ele>550</ele>
        <time>2026-05-24T09:04:29Z</time>
      </trkpt>
      <trkpt lat="47.17236" lon="6.14463">
        <ele>549.8</ele>
        <time>2026-05-24T09:04:30Z</time>
      </trkpt>
      <trkpt lat="47.17233" lon="6.14461">
        <ele>549.6</ele>
        <time>2026-05-24T09:04:31Z</time>
      </trkpt>
      <trkpt lat="47.1723" lon="6.14459">
        <ele>549.4</ele>
        <time>2026-05-24T09:04:32Z</time>
      </trkpt>
      <trkpt lat="47.17228" lon="6.14457">
        <ele>548.8</ele>
        <time>2026-05-24T09:04:33Z</time>
      </trkpt>
      <trkpt lat="47.17225" lon="6.14456">
        <ele>548.6</ele>
        <time>2026-05-24T09:04:34Z</time>
      </trkpt>
      <trkpt lat="47.17223" lon="6.14455">
        <ele>548.4</ele>
        <time>2026-05-24T09:04:35Z</time>
      </trkpt>
      <trkpt lat="47.17222" lon="6.14453">
        <ele>548.2</ele>
        <time>2026-05-24T09:04:36Z</time>
      </trkpt>
      <trkpt lat="47.17219" lon="6.14451">
        <ele>548.2</ele>
        <time>2026-05-24T09:04:37Z</time>
      </trkpt>
      <trkpt lat="47.17217" lon="6.14449">
        <ele>548.2</ele>
        <time>2026-05-24T09:04:38Z</time>
      </trkpt>
      <trkpt lat="47.17214" lon="6.14447">
        <ele>548.2</ele>
        <time>2026-05-24T09:04:39Z</time>
      </trkpt>
      <trkpt lat="47.17211" lon="6.14445">
        <ele>548.2</ele>
        <time>2026-05-24T09:04:40Z</time>
      </trkpt>
      <trkpt lat="47.17208" lon="6.14443">
        <ele>548</ele>
        <time>2026-05-24T09:04:41Z</time>
      </trkpt>
      <trkpt lat="47.17204" lon="6.14441">
        <ele>548.2</ele>
        <time>2026-05-24T09:04:42Z</time>
      </trkpt>
      <trkpt lat="47.172" lon="6.1444">
        <ele>548</ele>
        <time>2026-05-24T09:04:43Z</time>
      </trkpt>
      <trkpt lat="47.17196" lon="6.14438">
        <ele>548</ele>
        <time>2026-05-24T09:04:44Z</time>
      </trkpt>
      <trkpt lat="47.17192" lon="6.14435">
        <ele>548</ele>
        <time>2026-05-24T09:04:45Z</time>
      </trkpt>
      <trkpt lat="47.17189" lon="6.14432">
        <ele>548.2</ele>
        <time>2026-05-24T09:04:46Z</time>
      </trkpt>
      <trkpt lat="47.17185" lon="6.14429">
        <ele>548</ele>
        <time>2026-05-24T09:04:47Z</time>
      </trkpt>
      <trkpt lat="47.17183" lon="6.14427">
        <ele>548.2</ele>
        <time>2026-05-24T09:04:48Z</time>
      </trkpt>
      <trkpt lat="47.1718" lon="6.14424">
        <ele>548</ele>
        <time>2026-05-24T09:04:49Z</time>
      </trkpt>
      <trkpt lat="47.17178" lon="6.14421">
        <ele>548</ele>
        <time>2026-05-24T09:04:50Z</time>
      </trkpt>
      <trkpt lat="47.17176" lon="6.14418">
        <ele>548.2</ele>
        <time>2026-05-24T09:04:51Z</time>
      </trkpt>
      <trkpt lat="47.17174" lon="6.14416">
        <ele>548.2</ele>
        <time>2026-05-24T09:04:52Z</time>
      </trkpt>
      <trkpt lat="47.17171" lon="6.14412">
        <ele>548.2</ele>
        <time>2026-05-24T09:04:53Z</time>
      </trkpt>
      <trkpt lat="47.17168" lon="6.1441">
        <ele>548.2</ele>
        <time>2026-05-24T09:04:54Z</time>
      </trkpt>
      <trkpt lat="47.17166" lon="6.14408">
        <ele>548.4</ele>
        <time>2026-05-24T09:04:55Z</time>
      </trkpt>
      <trkpt lat="47.17163" lon="6.14406">
        <ele>548.4</ele>
        <time>2026-05-24T09:04:56Z</time>
      </trkpt>
      <trkpt lat="47.1716" lon="6.14404">
        <ele>548.2</ele>
        <time>2026-05-24T09:04:57Z</time>
      </trkpt>
      <trkpt lat="47.17158" lon="6.14401">
        <ele>548.2</ele>
        <time>2026-05-24T09:04:58Z</time>
      </trkpt>
      <trkpt lat="47.17156" lon="6.14397">
        <ele>548.4</ele>
        <time>2026-05-24T09:04:59Z</time>
      </trkpt>
      <trkpt lat="47.17154" lon="6.14395">
        <ele>548.4</ele>
        <time>2026-05-24T09:05:00Z</time>
      </trkpt>
      <trkpt lat="47.17151" lon="6.14391">
        <ele>548.4</ele>
        <time>2026-05-24T09:05:01Z</time>
      </trkpt>
      <trkpt lat="47.17147" lon="6.14388">
        <ele>548.4</ele>
        <time>2026-05-24T09:05:02Z</time>
      </trkpt>
      <trkpt lat="47.17143" lon="6.14386">
        <ele>548.4</ele>
        <time>2026-05-24T09:05:03Z</time>
      </trkpt>
      <trkpt lat="47.17139" lon="6.14384">
        <ele>548.4</ele>
        <time>2026-05-24T09:05:04Z</time>
      </trkpt>
      <trkpt lat="47.17134" lon="6.14381">
        <ele>548.4</ele>
        <time>2026-05-24T09:05:05Z</time>
      </trkpt>
      <trkpt lat="47.17129" lon="6.1438">
        <ele>548.4</ele>
        <time>2026-05-24T09:05:06Z</time>
      </trkpt>
      <trkpt lat="47.17124" lon="6.14379">
        <ele>548.4</ele>
        <time>2026-05-24T09:05:07Z</time>
      </trkpt>
      <trkpt lat="47.1712" lon="6.14378">
        <ele>548.4</ele>
        <time>2026-05-24T09:05:08Z</time>
      </trkpt>
      <trkpt lat="47.17115" lon="6.14378">
        <ele>548.6</ele>
        <time>2026-05-24T09:05:09Z</time>
      </trkpt>
      <trkpt lat="47.17111" lon="6.14377">
        <ele>548.4</ele>
        <time>2026-05-24T09:05:10Z</time>
      </trkpt>
      <trkpt lat="47.17107" lon="6.14377">
        <ele>548.4</ele>
        <time>2026-05-24T09:05:11Z</time>
      </trkpt>
      <trkpt lat="47.17104" lon="6.14376">
        <ele>548.2</ele>
        <time>2026-05-24T09:05:12Z</time>
      </trkpt>
      <trkpt lat="47.17101" lon="6.14375">
        <ele>548.4</ele>
        <time>2026-05-24T09:05:13Z</time>
      </trkpt>
      <trkpt lat="47.17097" lon="6.14374">
        <ele>548.2</ele>
        <time>2026-05-24T09:05:14Z</time>
      </trkpt>
      <trkpt lat="47.17094" lon="6.14373">
        <ele>548.4</ele>
        <time>2026-05-24T09:05:15Z</time>
      </trkpt>
      <trkpt lat="47.17092" lon="6.14371">
        <ele>548.2</ele>
        <time>2026-05-24T09:05:16Z</time>
      </trkpt>
      <trkpt lat="47.17089" lon="6.14368">
        <ele>548</ele>
        <time>2026-05-24T09:05:17Z</time>
      </trkpt>
      <trkpt lat="47.17086" lon="6.14366">
        <ele>547.8</ele>
        <time>2026-05-24T09:05:18Z</time>
      </trkpt>
      <trkpt lat="47.17084" lon="6.14364">
        <ele>547.8</ele>
        <time>2026-05-24T09:05:19Z</time>
      </trkpt>
      <trkpt lat="47.1708" lon="6.1436">
        <ele>547.8</ele>
        <time>2026-05-24T09:05:20Z</time>
      </trkpt>
      <trkpt lat="47.17076" lon="6.14357">
        <ele>547.6</ele>
        <time>2026-05-24T09:05:21Z</time>
      </trkpt>
      <trkpt lat="47.17071" lon="6.14352">
        <ele>547.6</ele>
        <time>2026-05-24T09:05:22Z</time>
      </trkpt>
      <trkpt lat="47.17067" lon="6.1435">
        <ele>547.6</ele>
        <time>2026-05-24T09:05:23Z</time>
      </trkpt>
      <trkpt lat="47.17063" lon="6.14346">
        <ele>547.4</ele>
        <time>2026-05-24T09:05:24Z</time>
      </trkpt>
      <trkpt lat="47.1706" lon="6.14344">
        <ele>547.4</ele>
        <time>2026-05-24T09:05:25Z</time>
      </trkpt>
      <trkpt lat="47.17057" lon="6.14342">
        <ele>547.2</ele>
        <time>2026-05-24T09:05:26Z</time>
      </trkpt>
      <trkpt lat="47.17053" lon="6.1434">
        <ele>547.4</ele>
        <time>2026-05-24T09:05:27Z</time>
      </trkpt>
      <trkpt lat="47.1705" lon="6.14338">
        <ele>547.2</ele>
        <time>2026-05-24T09:05:28Z</time>
      </trkpt>
      <trkpt lat="47.17046" lon="6.14336">
        <ele>547.2</ele>
        <time>2026-05-24T09:05:29Z</time>
      </trkpt>
      <trkpt lat="47.17042" lon="6.14334">
        <ele>547</ele>
        <time>2026-05-24T09:05:30Z</time>
      </trkpt>
      <trkpt lat="47.17038" lon="6.14331">
        <ele>547</ele>
        <time>2026-05-24T09:05:31Z</time>
      </trkpt>
      <trkpt lat="47.17034" lon="6.14329">
        <ele>547</ele>
        <time>2026-05-24T09:05:32Z</time>
      </trkpt>
      <trkpt lat="47.17029" lon="6.14325">
        <ele>546.8</ele>
        <time>2026-05-24T09:05:33Z</time>
      </trkpt>
      <trkpt lat="47.17025" lon="6.14323">
        <ele>546.8</ele>
        <time>2026-05-24T09:05:34Z</time>
      </trkpt>
      <trkpt lat="47.1702" lon="6.1432">
        <ele>546.8</ele>
        <time>2026-05-24T09:05:35Z</time>
      </trkpt>
      <trkpt lat="47.17016" lon="6.14317">
        <ele>546.6</ele>
        <time>2026-05-24T09:05:36Z</time>
      </trkpt>
      <trkpt lat="47.17012" lon="6.14313">
        <ele>546.6</ele>
        <time>2026-05-24T09:05:37Z</time>
      </trkpt>
      <trkpt lat="47.17007" lon="6.14309">
        <ele>546.6</ele>
        <time>2026-05-24T09:05:38Z</time>
      </trkpt>
      <trkpt lat="47.17003" lon="6.14306">
        <ele>546.4</ele>
        <time>2026-05-24T09:05:39Z</time>
      </trkpt>
      <trkpt lat="47.16999" lon="6.14303">
        <ele>546.2</ele>
        <time>2026-05-24T09:05:40Z</time>
      </trkpt>
      <trkpt lat="47.16994" lon="6.14299">
        <ele>546</ele>
        <time>2026-05-24T09:05:41Z</time>
      </trkpt>
      <trkpt lat="47.16989" lon="6.14295">
        <ele>546</ele>
        <time>2026-05-24T09:05:42Z</time>
      </trkpt>
      <trkpt lat="47.16984" lon="6.14291">
        <ele>545.8</ele>
        <time>2026-05-24T09:05:43Z</time>
      </trkpt>
      <trkpt lat="47.16977" lon="6.14286">
        <ele>545.6</ele>
        <time>2026-05-24T09:05:44Z</time>
      </trkpt>
      <trkpt lat="47.16971" lon="6.14281">
        <ele>545.6</ele>
        <time>2026-05-24T09:05:45Z</time>
      </trkpt>
      <trkpt lat="47.16965" lon="6.14278">
        <ele>545.2</ele>
        <time>2026-05-24T09:05:46Z</time>
      </trkpt>
      <trkpt lat="47.16958" lon="6.14275">
        <ele>545.2</ele>
        <time>2026-05-24T09:05:47Z</time>
      </trkpt>
      <trkpt lat="47.16952" lon="6.14272">
        <ele>544.8</ele>
        <time>2026-05-24T09:05:48Z</time>
      </trkpt>
      <trkpt lat="47.16947" lon="6.14269">
        <ele>544.8</ele>
        <time>2026-05-24T09:05:49Z</time>
      </trkpt>
      <trkpt lat="47.16942" lon="6.14265">
        <ele>544.6</ele>
        <time>2026-05-24T09:05:50Z</time>
      </trkpt>
      <trkpt lat="47.16938" lon="6.14261">
        <ele>543.6</ele>
        <time>2026-05-24T09:05:51Z</time>
      </trkpt>
      <trkpt lat="47.16934" lon="6.14258">
        <ele>543.2</ele>
        <time>2026-05-24T09:05:52Z</time>
      </trkpt>
      <trkpt lat="47.16929" lon="6.14255">
        <ele>542.8</ele>
        <time>2026-05-24T09:05:53Z</time>
      </trkpt>
      <trkpt lat="47.16925" lon="6.14252">
        <ele>542.4</ele>
        <time>2026-05-24T09:05:54Z</time>
      </trkpt>
      <trkpt lat="47.16921" lon="6.14248">
        <ele>541.8</ele>
        <time>2026-05-24T09:05:55Z</time>
      </trkpt>
      <trkpt lat="47.16918" lon="6.14243">
        <ele>541.2</ele>
        <time>2026-05-24T09:05:56Z</time>
      </trkpt>
      <trkpt lat="47.16914" lon="6.14238">
        <ele>540.6</ele>
        <time>2026-05-24T09:05:57Z</time>
      </trkpt>
      <trkpt lat="47.16912" lon="6.14232">
        <ele>540.2</ele>
        <time>2026-05-24T09:05:58Z</time>
      </trkpt>
      <trkpt lat="47.16909" lon="6.14226">
        <ele>539.6</ele>
        <time>2026-05-24T09:05:59Z</time>
      </trkpt>
      <trkpt lat="47.16908" lon="6.14219">
        <ele>539.2</ele>
        <time>2026-05-24T09:06:00Z</time>
      </trkpt>
      <trkpt lat="47.16907" lon="6.14211">
        <ele>539</ele>
        <time>2026-05-24T09:06:01Z</time>
      </trkpt>
      <trkpt lat="47.16906" lon="6.14205">
        <ele>538.8</ele>
        <time>2026-05-24T09:06:02Z</time>
      </trkpt>
      <trkpt lat="47.16905" lon="6.14197">
        <ele>538.6</ele>
        <time>2026-05-24T09:06:03Z</time>
      </trkpt>
      <trkpt lat="47.16904" lon="6.14191">
        <ele>538.6</ele>
        <time>2026-05-24T09:06:04Z</time>
      </trkpt>
      <trkpt lat="47.16904" lon="6.14184">
        <ele>538.4</ele>
        <time>2026-05-24T09:06:05Z</time>
      </trkpt>
      <trkpt lat="47.16904" lon="6.14178">
        <ele>538.6</ele>
        <time>2026-05-24T09:06:06Z</time>
      </trkpt>
      <trkpt lat="47.16903" lon="6.14173">
        <ele>538.4</ele>
        <time>2026-05-24T09:06:07Z</time>
      </trkpt>
      <trkpt lat="47.16902" lon="6.14167">
        <ele>538.4</ele>
        <time>2026-05-24T09:06:08Z</time>
      </trkpt>
      <trkpt lat="47.16902" lon="6.1416">
        <ele>538.4</ele>
        <time>2026-05-24T09:06:09Z</time>
      </trkpt>
      <trkpt lat="47.16901" lon="6.14154">
        <ele>538.4</ele>
        <time>2026-05-24T09:06:10Z</time>
      </trkpt>
      <trkpt lat="47.16901" lon="6.14148">
        <ele>538.4</ele>
        <time>2026-05-24T09:06:11Z</time>
      </trkpt>
      <trkpt lat="47.169" lon="6.14143">
        <ele>538.4</ele>
        <time>2026-05-24T09:06:12Z</time>
      </trkpt>
      <trkpt lat="47.16899" lon="6.14138">
        <ele>538.4</ele>
        <time>2026-05-24T09:06:13Z</time>
      </trkpt>
      <trkpt lat="47.16898" lon="6.14134">
        <ele>538.6</ele>
        <time>2026-05-24T09:06:14Z</time>
      </trkpt>
      <trkpt lat="47.16896" lon="6.1413">
        <ele>538.6</ele>
        <time>2026-05-24T09:06:15Z</time>
      </trkpt>
      <trkpt lat="47.16895" lon="6.14126">
        <ele>538.8</ele>
        <time>2026-05-24T09:06:16Z</time>
      </trkpt>
      <trkpt lat="47.16892" lon="6.14123">
        <ele>538.6</ele>
        <time>2026-05-24T09:06:17Z</time>
      </trkpt>
      <trkpt lat="47.16889" lon="6.1412">
        <ele>538.8</ele>
        <time>2026-05-24T09:06:18Z</time>
      </trkpt>
      <trkpt lat="47.16886" lon="6.14116">
        <ele>538.8</ele>
        <time>2026-05-24T09:06:19Z</time>
      </trkpt>
      <trkpt lat="47.16881" lon="6.14113">
        <ele>538.8</ele>
        <time>2026-05-24T09:06:20Z</time>
      </trkpt>
      <trkpt lat="47.16877" lon="6.1411">
        <ele>538.8</ele>
        <time>2026-05-24T09:06:21Z</time>
      </trkpt>
      <trkpt lat="47.16873" lon="6.14107">
        <ele>538.6</ele>
        <time>2026-05-24T09:06:22Z</time>
      </trkpt>
      <trkpt lat="47.16868" lon="6.14103">
        <ele>538.8</ele>
        <time>2026-05-24T09:06:23Z</time>
      </trkpt>
      <trkpt lat="47.16864" lon="6.141">
        <ele>538.8</ele>
        <time>2026-05-24T09:06:24Z</time>
      </trkpt>
      <trkpt lat="47.16859" lon="6.14095">
        <ele>538.8</ele>
        <time>2026-05-24T09:06:25Z</time>
      </trkpt>
      <trkpt lat="47.16854" lon="6.14092">
        <ele>538.8</ele>
        <time>2026-05-24T09:06:26Z</time>
      </trkpt>
      <trkpt lat="47.1685" lon="6.14087">
        <ele>538.8</ele>
        <time>2026-05-24T09:06:27Z</time>
      </trkpt>
      <trkpt lat="47.16845" lon="6.14082">
        <ele>538.4</ele>
        <time>2026-05-24T09:06:28Z</time>
      </trkpt>
      <trkpt lat="47.1684" lon="6.14077">
        <ele>538.2</ele>
        <time>2026-05-24T09:06:29Z</time>
      </trkpt>
      <trkpt lat="47.16836" lon="6.14073">
        <ele>538.2</ele>
        <time>2026-05-24T09:06:30Z</time>
      </trkpt>
      <trkpt lat="47.16832" lon="6.1407">
        <ele>538</ele>
        <time>2026-05-24T09:06:31Z</time>
      </trkpt>
      <trkpt lat="47.16828" lon="6.14067">
        <ele>537.6</ele>
        <time>2026-05-24T09:06:32Z</time>
      </trkpt>
      <trkpt lat="47.16825" lon="6.14065">
        <ele>537.4</ele>
        <time>2026-05-24T09:06:33Z</time>
      </trkpt>
      <trkpt lat="47.16823" lon="6.14062">
        <ele>537.2</ele>
        <time>2026-05-24T09:06:34Z</time>
      </trkpt>
      <trkpt lat="47.16821" lon="6.14059">
        <ele>537</ele>
        <time>2026-05-24T09:06:35Z</time>
      </trkpt>
      <trkpt lat="47.1682" lon="6.14056">
        <ele>536.6</ele>
        <time>2026-05-24T09:06:36Z</time>
      </trkpt>
      <trkpt lat="47.16819" lon="6.14053">
        <ele>536.4</ele>
        <time>2026-05-24T09:06:37Z</time>
      </trkpt>
      <trkpt lat="47.16818" lon="6.1405">
        <ele>535.8</ele>
        <time>2026-05-24T09:06:38Z</time>
      </trkpt>
      <trkpt lat="47.16817" lon="6.14047">
        <ele>535.2</ele>
        <time>2026-05-24T09:06:39Z</time>
      </trkpt>
      <trkpt lat="47.16816" lon="6.14045">
        <ele>535</ele>
        <time>2026-05-24T09:06:40Z</time>
      </trkpt>
      <trkpt lat="47.16816" lon="6.14044">
        <ele>534.4</ele>
        <time>2026-05-24T09:06:41Z</time>
      </trkpt>
      <trkpt lat="47.16816" lon="6.14043">
        <ele>534.2</ele>
        <time>2026-05-24T09:06:42Z</time>
      </trkpt>
      <trkpt lat="47.16816" lon="6.14043">
        <ele>534</ele>
        <time>2026-05-24T09:06:43Z</time>
      </trkpt>
      <trkpt lat="47.16813" lon="6.14022">
        <ele>533.8</ele>
        <time>2026-05-24T09:07:10Z</time>
      </trkpt>
      <trkpt lat="47.16812" lon="6.1402">
        <ele>533.8</ele>
        <time>2026-05-24T09:07:11Z</time>
      </trkpt>
      <trkpt lat="47.16811" lon="6.14018">
        <ele>533.8</ele>
        <time>2026-05-24T09:07:12Z</time>
      </trkpt>
      <trkpt lat="47.16811" lon="6.14016">
        <ele>533.8</ele>
        <time>2026-05-24T09:07:13Z</time>
      </trkpt>
      <trkpt lat="47.1681" lon="6.14013">
        <ele>533.8</ele>
        <time>2026-05-24T09:07:14Z</time>
      </trkpt>
      <trkpt lat="47.16809" lon="6.1401">
        <ele>533.8</ele>
        <time>2026-05-24T09:07:15Z</time>
      </trkpt>
      <trkpt lat="47.1681" lon="6.14008">
        <ele>533.8</ele>
        <time>2026-05-24T09:07:16Z</time>
      </trkpt>
      <trkpt lat="47.1681" lon="6.14006">
        <ele>533.6</ele>
        <time>2026-05-24T09:07:17Z</time>
      </trkpt>
      <trkpt lat="47.16811" lon="6.14004">
        <ele>533.4</ele>
        <time>2026-05-24T09:07:18Z</time>
      </trkpt>
      <trkpt lat="47.16812" lon="6.14002">
        <ele>533.6</ele>
        <time>2026-05-24T09:07:19Z</time>
      </trkpt>
      <trkpt lat="47.16812" lon="6.14">
        <ele>533.6</ele>
        <time>2026-05-24T09:07:20Z</time>
      </trkpt>
      <trkpt lat="47.16814" lon="6.13998">
        <ele>533.6</ele>
        <time>2026-05-24T09:07:21Z</time>
      </trkpt>
      <trkpt lat="47.16815" lon="6.13996">
        <ele>533.6</ele>
        <time>2026-05-24T09:07:22Z</time>
      </trkpt>
      <trkpt lat="47.16816" lon="6.13993">
        <ele>533.6</ele>
        <time>2026-05-24T09:07:23Z</time>
      </trkpt>
      <trkpt lat="47.16817" lon="6.13991">
        <ele>533.6</ele>
        <time>2026-05-24T09:07:24Z</time>
      </trkpt>
      <trkpt lat="47.16818" lon="6.13989">
        <ele>533.6</ele>
        <time>2026-05-24T09:07:25Z</time>
      </trkpt>
      <trkpt lat="47.1682" lon="6.13986">
        <ele>533.6</ele>
        <time>2026-05-24T09:07:26Z</time>
      </trkpt>
      <trkpt lat="47.16821" lon="6.13984">
        <ele>533.8</ele>
        <time>2026-05-24T09:07:27Z</time>
      </trkpt>
      <trkpt lat="47.16823" lon="6.13982">
        <ele>533.8</ele>
        <time>2026-05-24T09:07:28Z</time>
      </trkpt>
      <trkpt lat="47.16824" lon="6.1398">
        <ele>534</ele>
        <time>2026-05-24T09:07:29Z</time>
      </trkpt>
      <trkpt lat="47.16826" lon="6.13979">
        <ele>534.2</ele>
        <time>2026-05-24T09:07:30Z</time>
      </trkpt>
      <trkpt lat="47.16827" lon="6.13979">
        <ele>534.6</ele>
        <time>2026-05-24T09:07:31Z</time>
      </trkpt>
      <trkpt lat="47.16828" lon="6.13979">
        <ele>534.6</ele>
        <time>2026-05-24T09:07:32Z</time>
      </trkpt>
      <trkpt lat="47.1683" lon="6.13981">
        <ele>534.8</ele>
        <time>2026-05-24T09:07:33Z</time>
      </trkpt>
      <trkpt lat="47.16831" lon="6.13983">
        <ele>535</ele>
        <time>2026-05-24T09:07:34Z</time>
      </trkpt>
      <trkpt lat="47.16833" lon="6.13984">
        <ele>535.4</ele>
        <time>2026-05-24T09:07:35Z</time>
      </trkpt>
      <trkpt lat="47.16834" lon="6.13986">
        <ele>535.4</ele>
        <time>2026-05-24T09:07:36Z</time>
      </trkpt>
      <trkpt lat="47.16836" lon="6.13988">
        <ele>535.4</ele>
        <time>2026-05-24T09:07:37Z</time>
      </trkpt>
      <trkpt lat="47.16838" lon="6.1399">
        <ele>535.6</ele>
        <time>2026-05-24T09:07:38Z</time>
      </trkpt>
      <trkpt lat="47.1684" lon="6.13991">
        <ele>535.8</ele>
        <time>2026-05-24T09:07:39Z</time>
      </trkpt>
      <trkpt lat="47.16842" lon="6.13991">
        <ele>536</ele>
        <time>2026-05-24T09:07:40Z</time>
      </trkpt>
      <trkpt lat="47.16845" lon="6.13991">
        <ele>536.4</ele>
        <time>2026-05-24T09:07:41Z</time>
      </trkpt>
      <trkpt lat="47.16847" lon="6.13991">
        <ele>536.6</ele>
        <time>2026-05-24T09:07:42Z</time>
      </trkpt>
      <trkpt lat="47.16848" lon="6.13989">
        <ele>536.8</ele>
        <time>2026-05-24T09:07:43Z</time>
      </trkpt>
      <trkpt lat="47.1685" lon="6.13988">
        <ele>537</ele>
        <time>2026-05-24T09:07:44Z</time>
      </trkpt>
      <trkpt lat="47.16852" lon="6.13986">
        <ele>537.2</ele>
        <time>2026-05-24T09:07:45Z</time>
      </trkpt>
      <trkpt lat="47.16854" lon="6.13983">
        <ele>537.2</ele>
        <time>2026-05-24T09:07:46Z</time>
      </trkpt>
      <trkpt lat="47.16856" lon="6.13982">
        <ele>537.4</ele>
        <time>2026-05-24T09:07:47Z</time>
      </trkpt>
      <trkpt lat="47.16859" lon="6.13981">
        <ele>537.6</ele>
        <time>2026-05-24T09:07:48Z</time>
      </trkpt>
      <trkpt lat="47.1686" lon="6.1398">
        <ele>537.8</ele>
        <time>2026-05-24T09:07:49Z</time>
      </trkpt>
      <trkpt lat="47.16862" lon="6.13979">
        <ele>538.2</ele>
        <time>2026-05-24T09:07:50Z</time>
      </trkpt>
      <trkpt lat="47.16864" lon="6.13979">
        <ele>538.4</ele>
        <time>2026-05-24T09:07:51Z</time>
      </trkpt>
      <trkpt lat="47.16866" lon="6.1398">
        <ele>538.8</ele>
        <time>2026-05-24T09:07:52Z</time>
      </trkpt>
      <trkpt lat="47.16868" lon="6.13979">
        <ele>538.8</ele>
        <time>2026-05-24T09:07:53Z</time>
      </trkpt>
      <trkpt lat="47.1687" lon="6.13979">
        <ele>539</ele>
        <time>2026-05-24T09:07:54Z</time>
      </trkpt>
      <trkpt lat="47.16872" lon="6.13978">
        <ele>539.2</ele>
        <time>2026-05-24T09:07:55Z</time>
      </trkpt>
      <trkpt lat="47.16873" lon="6.13978">
        <ele>539.4</ele>
        <time>2026-05-24T09:07:56Z</time>
      </trkpt>
      <trkpt lat="47.16875" lon="6.13977">
        <ele>539.6</ele>
        <time>2026-05-24T09:07:57Z</time>
      </trkpt>
      <trkpt lat="47.16877" lon="6.13977">
        <ele>539.6</ele>
        <time>2026-05-24T09:07:58Z</time>
      </trkpt>
      <trkpt lat="47.16879" lon="6.13977">
        <ele>539.6</ele>
        <time>2026-05-24T09:07:59Z</time>
      </trkpt>
      <trkpt lat="47.16881" lon="6.13976">
        <ele>539.8</ele>
        <time>2026-05-24T09:08:00Z</time>
      </trkpt>
      <trkpt lat="47.16882" lon="6.13977">
        <ele>540.2</ele>
        <time>2026-05-24T09:08:01Z</time>
      </trkpt>
      <trkpt lat="47.16884" lon="6.13976">
        <ele>540.2</ele>
        <time>2026-05-24T09:08:02Z</time>
      </trkpt>
      <trkpt lat="47.16886" lon="6.13977">
        <ele>540.4</ele>
        <time>2026-05-24T09:08:03Z</time>
      </trkpt>
      <trkpt lat="47.16888" lon="6.13977">
        <ele>540.8</ele>
        <time>2026-05-24T09:08:04Z</time>
      </trkpt>
      <trkpt lat="47.16889" lon="6.13978">
        <ele>541</ele>
        <time>2026-05-24T09:08:05Z</time>
      </trkpt>
      <trkpt lat="47.16892" lon="6.13979">
        <ele>541.2</ele>
        <time>2026-05-24T09:08:06Z</time>
      </trkpt>
      <trkpt lat="47.16894" lon="6.13981">
        <ele>541.4</ele>
        <time>2026-05-24T09:08:07Z</time>
      </trkpt>
      <trkpt lat="47.16896" lon="6.13982">
        <ele>541.6</ele>
        <time>2026-05-24T09:08:08Z</time>
      </trkpt>
      <trkpt lat="47.16898" lon="6.13982">
        <ele>541.8</ele>
        <time>2026-05-24T09:08:09Z</time>
      </trkpt>
      <trkpt lat="47.169" lon="6.13983">
        <ele>542</ele>
        <time>2026-05-24T09:08:10Z</time>
      </trkpt>
      <trkpt lat="47.16902" lon="6.13984">
        <ele>542.2</ele>
        <time>2026-05-24T09:08:11Z</time>
      </trkpt>
      <trkpt lat="47.16905" lon="6.13986">
        <ele>542.2</ele>
        <time>2026-05-24T09:08:12Z</time>
      </trkpt>
      <trkpt lat="47.16907" lon="6.13986">
        <ele>542.2</ele>
        <time>2026-05-24T09:08:13Z</time>
      </trkpt>
      <trkpt lat="47.16908" lon="6.13987">
        <ele>542.6</ele>
        <time>2026-05-24T09:08:14Z</time>
      </trkpt>
      <trkpt lat="47.1691" lon="6.13988">
        <ele>542.8</ele>
        <time>2026-05-24T09:08:15Z</time>
      </trkpt>
      <trkpt lat="47.16912" lon="6.13988">
        <ele>543</ele>
        <time>2026-05-24T09:08:16Z</time>
      </trkpt>
      <trkpt lat="47.16915" lon="6.13989">
        <ele>543</ele>
        <time>2026-05-24T09:08:17Z</time>
      </trkpt>
      <trkpt lat="47.16917" lon="6.13989">
        <ele>543.2</ele>
        <time>2026-05-24T09:08:18Z</time>
      </trkpt>
      <trkpt lat="47.16919" lon="6.1399">
        <ele>543.2</ele>
        <time>2026-05-24T09:08:19Z</time>
      </trkpt>
      <trkpt lat="47.16921" lon="6.1399">
        <ele>543.4</ele>
        <time>2026-05-24T09:08:20Z</time>
      </trkpt>
      <trkpt lat="47.16923" lon="6.13989">
        <ele>543.4</ele>
        <time>2026-05-24T09:08:21Z</time>
      </trkpt>
      <trkpt lat="47.16925" lon="6.13989">
        <ele>543.4</ele>
        <time>2026-05-24T09:08:22Z</time>
      </trkpt>
      <trkpt lat="47.16927" lon="6.13989">
        <ele>543.6</ele>
        <time>2026-05-24T09:08:23Z</time>
      </trkpt>
      <trkpt lat="47.1693" lon="6.13988">
        <ele>543.8</ele>
        <time>2026-05-24T09:08:24Z</time>
      </trkpt>
      <trkpt lat="47.16932" lon="6.13988">
        <ele>543.8</ele>
        <time>2026-05-24T09:08:25Z</time>
      </trkpt>
      <trkpt lat="47.16934" lon="6.13988">
        <ele>544</ele>
        <time>2026-05-24T09:08:26Z</time>
      </trkpt>
      <trkpt lat="47.16937" lon="6.13987">
        <ele>544</ele>
        <time>2026-05-24T09:08:27Z</time>
      </trkpt>
      <trkpt lat="47.16939" lon="6.13986">
        <ele>544.4</ele>
        <time>2026-05-24T09:08:28Z</time>
      </trkpt>
      <trkpt lat="47.16941" lon="6.13986">
        <ele>544.2</ele>
        <time>2026-05-24T09:08:29Z</time>
      </trkpt>
      <trkpt lat="47.16943" lon="6.13985">
        <ele>544.4</ele>
        <time>2026-05-24T09:08:30Z</time>
      </trkpt>
      <trkpt lat="47.16945" lon="6.13984">
        <ele>544.4</ele>
        <time>2026-05-24T09:08:31Z</time>
      </trkpt>
      <trkpt lat="47.16947" lon="6.13983">
        <ele>544.6</ele>
        <time>2026-05-24T09:08:32Z</time>
      </trkpt>
      <trkpt lat="47.16949" lon="6.13981">
        <ele>544.8</ele>
        <time>2026-05-24T09:08:33Z</time>
      </trkpt>
      <trkpt lat="47.16951" lon="6.13978">
        <ele>544.8</ele>
        <time>2026-05-24T09:08:34Z</time>
      </trkpt>
      <trkpt lat="47.16953" lon="6.13976">
        <ele>545</ele>
        <time>2026-05-24T09:08:35Z</time>
      </trkpt>
      <trkpt lat="47.16955" lon="6.13973">
        <ele>545</ele>
        <time>2026-05-24T09:08:36Z</time>
      </trkpt>
      <trkpt lat="47.16956" lon="6.13971">
        <ele>545.4</ele>
        <time>2026-05-24T09:08:37Z</time>
      </trkpt>
      <trkpt lat="47.16958" lon="6.13968">
        <ele>545.2</ele>
        <time>2026-05-24T09:08:38Z</time>
      </trkpt>
      <trkpt lat="47.16959" lon="6.13966">
        <ele>545.6</ele>
        <time>2026-05-24T09:08:39Z</time>
      </trkpt>
      <trkpt lat="47.1696" lon="6.13964">
        <ele>545.6</ele>
        <time>2026-05-24T09:08:40Z</time>
      </trkpt>
      <trkpt lat="47.16962" lon="6.13962">
        <ele>545.8</ele>
        <time>2026-05-24T09:08:41Z</time>
      </trkpt>
      <trkpt lat="47.16963" lon="6.1396">
        <ele>546</ele>
        <time>2026-05-24T09:08:42Z</time>
      </trkpt>
      <trkpt lat="47.16964" lon="6.13958">
        <ele>546</ele>
        <time>2026-05-24T09:08:43Z</time>
      </trkpt>
      <trkpt lat="47.16965" lon="6.13956">
        <ele>546.4</ele>
        <time>2026-05-24T09:08:44Z</time>
      </trkpt>
      <trkpt lat="47.16966" lon="6.13954">
        <ele>546.6</ele>
        <time>2026-05-24T09:08:45Z</time>
      </trkpt>
      <trkpt lat="47.16968" lon="6.13953">
        <ele>546.8</ele>
        <time>2026-05-24T09:08:46Z</time>
      </trkpt>
      <trkpt lat="47.16969" lon="6.13951">
        <ele>547</ele>
        <time>2026-05-24T09:08:47Z</time>
      </trkpt>
      <trkpt lat="47.16971" lon="6.1395">
        <ele>547</ele>
        <time>2026-05-24T09:08:48Z</time>
      </trkpt>
      <trkpt lat="47.16972" lon="6.13949">
        <ele>547.2</ele>
        <time>2026-05-24T09:08:49Z</time>
      </trkpt>
      <trkpt lat="47.16973" lon="6.13948">
        <ele>547.6</ele>
        <time>2026-05-24T09:08:50Z</time>
      </trkpt>
      <trkpt lat="47.16974" lon="6.13947">
        <ele>547.8</ele>
        <time>2026-05-24T09:08:51Z</time>
      </trkpt>
      <trkpt lat="47.16976" lon="6.13946">
        <ele>548</ele>
        <time>2026-05-24T09:08:52Z</time>
      </trkpt>
      <trkpt lat="47.16977" lon="6.13945">
        <ele>548.2</ele>
        <time>2026-05-24T09:08:53Z</time>
      </trkpt>
      <trkpt lat="47.16979" lon="6.13945">
        <ele>548.6</ele>
        <time>2026-05-24T09:08:54Z</time>
      </trkpt>
      <trkpt lat="47.1698" lon="6.13944">
        <ele>548.8</ele>
        <time>2026-05-24T09:08:55Z</time>
      </trkpt>
      <trkpt lat="47.16982" lon="6.13944">
        <ele>549</ele>
        <time>2026-05-24T09:08:56Z</time>
      </trkpt>
      <trkpt lat="47.16983" lon="6.13944">
        <ele>549.2</ele>
        <time>2026-05-24T09:08:57Z</time>
      </trkpt>
      <trkpt lat="47.16985" lon="6.13943">
        <ele>549.4</ele>
        <time>2026-05-24T09:08:58Z</time>
      </trkpt>
      <trkpt lat="47.16987" lon="6.13943">
        <ele>549.4</ele>
        <time>2026-05-24T09:08:59Z</time>
      </trkpt>
      <trkpt lat="47.16988" lon="6.13942">
        <ele>549.6</ele>
        <time>2026-05-24T09:09:00Z</time>
      </trkpt>
      <trkpt lat="47.1699" lon="6.13942">
        <ele>549.8</ele>
        <time>2026-05-24T09:09:01Z</time>
      </trkpt>
      <trkpt lat="47.16991" lon="6.13941">
        <ele>550</ele>
        <time>2026-05-24T09:09:02Z</time>
      </trkpt>
      <trkpt lat="47.16992" lon="6.13939">
        <ele>550.2</ele>
        <time>2026-05-24T09:09:03Z</time>
      </trkpt>
      <trkpt lat="47.16994" lon="6.13938">
        <ele>550.6</ele>
        <time>2026-05-24T09:09:04Z</time>
      </trkpt>
      <trkpt lat="47.16995" lon="6.13936">
        <ele>550.6</ele>
        <time>2026-05-24T09:09:05Z</time>
      </trkpt>
      <trkpt lat="47.16996" lon="6.13934">
        <ele>550.6</ele>
        <time>2026-05-24T09:09:06Z</time>
      </trkpt>
      <trkpt lat="47.16998" lon="6.13934">
        <ele>550.8</ele>
        <time>2026-05-24T09:09:07Z</time>
      </trkpt>
      <trkpt lat="47.16999" lon="6.13932">
        <ele>550.8</ele>
        <time>2026-05-24T09:09:08Z</time>
      </trkpt>
      <trkpt lat="47.17001" lon="6.1393">
        <ele>551</ele>
        <time>2026-05-24T09:09:09Z</time>
      </trkpt>
      <trkpt lat="47.17003" lon="6.13928">
        <ele>551</ele>
        <time>2026-05-24T09:09:10Z</time>
      </trkpt>
      <trkpt lat="47.17004" lon="6.13925">
        <ele>551.2</ele>
        <time>2026-05-24T09:09:11Z</time>
      </trkpt>
      <trkpt lat="47.17005" lon="6.13923">
        <ele>551.2</ele>
        <time>2026-05-24T09:09:12Z</time>
      </trkpt>
      <trkpt lat="47.17006" lon="6.13921">
        <ele>551.2</ele>
        <time>2026-05-24T09:09:13Z</time>
      </trkpt>
      <trkpt lat="47.17007" lon="6.13919">
        <ele>551.4</ele>
        <time>2026-05-24T09:09:14Z</time>
      </trkpt>
      <trkpt lat="47.17009" lon="6.13917">
        <ele>551.6</ele>
        <time>2026-05-24T09:09:15Z</time>
      </trkpt>
      <trkpt lat="47.1701" lon="6.13916">
        <ele>551.6</ele>
        <time>2026-05-24T09:09:16Z</time>
      </trkpt>
      <trkpt lat="47.17012" lon="6.13913">
        <ele>551.8</ele>
        <time>2026-05-24T09:09:17Z</time>
      </trkpt>
      <trkpt lat="47.17014" lon="6.13911">
        <ele>552</ele>
        <time>2026-05-24T09:09:18Z</time>
      </trkpt>
      <trkpt lat="47.17016" lon="6.13908">
        <ele>552</ele>
        <time>2026-05-24T09:09:19Z</time>
      </trkpt>
      <trkpt lat="47.17018" lon="6.13905">
        <ele>552.2</ele>
        <time>2026-05-24T09:09:20Z</time>
      </trkpt>
      <trkpt lat="47.1702" lon="6.13902">
        <ele>552.2</ele>
        <time>2026-05-24T09:09:21Z</time>
      </trkpt>
      <trkpt lat="47.17022" lon="6.13898">
        <ele>552.2</ele>
        <time>2026-05-24T09:09:22Z</time>
      </trkpt>
      <trkpt lat="47.17024" lon="6.13895">
        <ele>552.4</ele>
        <time>2026-05-24T09:09:23Z</time>
      </trkpt>
      <trkpt lat="47.17025" lon="6.13892">
        <ele>552.6</ele>
        <time>2026-05-24T09:09:24Z</time>
      </trkpt>
      <trkpt lat="47.17027" lon="6.13889">
        <ele>552.6</ele>
        <time>2026-05-24T09:09:25Z</time>
      </trkpt>
      <trkpt lat="47.17029" lon="6.13886">
        <ele>552.6</ele>
        <time>2026-05-24T09:09:26Z</time>
      </trkpt>
      <trkpt lat="47.1703" lon="6.13882">
        <ele>552.6</ele>
        <time>2026-05-24T09:09:27Z</time>
      </trkpt>
      <trkpt lat="47.17032" lon="6.13879">
        <ele>552.6</ele>
        <time>2026-05-24T09:09:28Z</time>
      </trkpt>
      <trkpt lat="47.17033" lon="6.13875">
        <ele>552.6</ele>
        <time>2026-05-24T09:09:29Z</time>
      </trkpt>
      <trkpt lat="47.17034" lon="6.13872">
        <ele>552.6</ele>
        <time>2026-05-24T09:09:30Z</time>
      </trkpt>
      <trkpt lat="47.17033" lon="6.13868">
        <ele>552.6</ele>
        <time>2026-05-24T09:09:31Z</time>
      </trkpt>
      <trkpt lat="47.17033" lon="6.13865">
        <ele>552.8</ele>
        <time>2026-05-24T09:09:32Z</time>
      </trkpt>
      <trkpt lat="47.17032" lon="6.13861">
        <ele>552.8</ele>
        <time>2026-05-24T09:09:33Z</time>
      </trkpt>
      <trkpt lat="47.17032" lon="6.13856">
        <ele>552.8</ele>
        <time>2026-05-24T09:09:34Z</time>
      </trkpt>
      <trkpt lat="47.17033" lon="6.13851">
        <ele>552.8</ele>
        <time>2026-05-24T09:09:35Z</time>
      </trkpt>
      <trkpt lat="47.17033" lon="6.13847">
        <ele>553</ele>
        <time>2026-05-24T09:09:36Z</time>
      </trkpt>
      <trkpt lat="47.17034" lon="6.13843">
        <ele>553</ele>
        <time>2026-05-24T09:09:37Z</time>
      </trkpt>
      <trkpt lat="47.17035" lon="6.13837">
        <ele>553</ele>
        <time>2026-05-24T09:09:38Z</time>
      </trkpt>
      <trkpt lat="47.17036" lon="6.13833">
        <ele>553.2</ele>
        <time>2026-05-24T09:09:39Z</time>
      </trkpt>
      <trkpt lat="47.17037" lon="6.13828">
        <ele>553.2</ele>
        <time>2026-05-24T09:09:40Z</time>
      </trkpt>
      <trkpt lat="47.17039" lon="6.13823">
        <ele>553.4</ele>
        <time>2026-05-24T09:09:41Z</time>
      </trkpt>
      <trkpt lat="47.1704" lon="6.13819">
        <ele>553.4</ele>
        <time>2026-05-24T09:09:42Z</time>
      </trkpt>
      <trkpt lat="47.17041" lon="6.13815">
        <ele>553.4</ele>
        <time>2026-05-24T09:09:43Z</time>
      </trkpt>
      <trkpt lat="47.17042" lon="6.13811">
        <ele>553.4</ele>
        <time>2026-05-24T09:09:44Z</time>
      </trkpt>
      <trkpt lat="47.17044" lon="6.13806">
        <ele>553.6</ele>
        <time>2026-05-24T09:09:45Z</time>
      </trkpt>
      <trkpt lat="47.17045" lon="6.13802">
        <ele>553.6</ele>
        <time>2026-05-24T09:09:46Z</time>
      </trkpt>
      <trkpt lat="47.17047" lon="6.13797">
        <ele>553.8</ele>
        <time>2026-05-24T09:09:47Z</time>
      </trkpt>
      <trkpt lat="47.17048" lon="6.13793">
        <ele>553.8</ele>
        <time>2026-05-24T09:09:48Z</time>
      </trkpt>
      <trkpt lat="47.1705" lon="6.1379">
        <ele>554</ele>
        <time>2026-05-24T09:09:49Z</time>
      </trkpt>
      <trkpt lat="47.17051" lon="6.13785">
        <ele>554</ele>
        <time>2026-05-24T09:09:50Z</time>
      </trkpt>
      <trkpt lat="47.17051" lon="6.13781">
        <ele>554.2</ele>
        <time>2026-05-24T09:09:51Z</time>
      </trkpt>
      <trkpt lat="47.17052" lon="6.13775">
        <ele>554.2</ele>
        <time>2026-05-24T09:09:52Z</time>
      </trkpt>
      <trkpt lat="47.17053" lon="6.13769">
        <ele>554.4</ele>
        <time>2026-05-24T09:09:53Z</time>
      </trkpt>
      <trkpt lat="47.17056" lon="6.13764">
        <ele>554.4</ele>
        <time>2026-05-24T09:09:54Z</time>
      </trkpt>
      <trkpt lat="47.17058" lon="6.13758">
        <ele>554.2</ele>
        <time>2026-05-24T09:09:55Z</time>
      </trkpt>
      <trkpt lat="47.17061" lon="6.13753">
        <ele>554.2</ele>
        <time>2026-05-24T09:09:56Z</time>
      </trkpt>
      <trkpt lat="47.17063" lon="6.13748">
        <ele>554.2</ele>
        <time>2026-05-24T09:09:57Z</time>
      </trkpt>
      <trkpt lat="47.17065" lon="6.13743">
        <ele>554.4</ele>
        <time>2026-05-24T09:09:58Z</time>
      </trkpt>
      <trkpt lat="47.17067" lon="6.13737">
        <ele>554.2</ele>
        <time>2026-05-24T09:09:59Z</time>
      </trkpt>
      <trkpt lat="47.17068" lon="6.13733">
        <ele>554.2</ele>
        <time>2026-05-24T09:10:00Z</time>
      </trkpt>
      <trkpt lat="47.17068" lon="6.13729">
        <ele>554.2</ele>
        <time>2026-05-24T09:10:01Z</time>
      </trkpt>
      <trkpt lat="47.17067" lon="6.13726">
        <ele>554</ele>
        <time>2026-05-24T09:10:02Z</time>
      </trkpt>
      <trkpt lat="47.17065" lon="6.13724">
        <ele>553.8</ele>
        <time>2026-05-24T09:10:03Z</time>
      </trkpt>
      <trkpt lat="47.17063" lon="6.13721">
        <ele>553.4</ele>
        <time>2026-05-24T09:10:04Z</time>
      </trkpt>
      <trkpt lat="47.17061" lon="6.13718">
        <ele>553.4</ele>
        <time>2026-05-24T09:10:05Z</time>
      </trkpt>
      <trkpt lat="47.17058" lon="6.13716">
        <ele>553.2</ele>
        <time>2026-05-24T09:10:06Z</time>
      </trkpt>
      <trkpt lat="47.17054" lon="6.13714">
        <ele>553</ele>
        <time>2026-05-24T09:10:07Z</time>
      </trkpt>
      <trkpt lat="47.17051" lon="6.13711">
        <ele>552.6</ele>
        <time>2026-05-24T09:10:08Z</time>
      </trkpt>
      <trkpt lat="47.17048" lon="6.13709">
        <ele>552.6</ele>
        <time>2026-05-24T09:10:09Z</time>
      </trkpt>
      <trkpt lat="47.17045" lon="6.13705">
        <ele>552.4</ele>
        <time>2026-05-24T09:10:10Z</time>
      </trkpt>
      <trkpt lat="47.17041" lon="6.13703">
        <ele>552.4</ele>
        <time>2026-05-24T09:10:11Z</time>
      </trkpt>
      <trkpt lat="47.17036" lon="6.13701">
        <ele>552</ele>
        <time>2026-05-24T09:10:12Z</time>
      </trkpt>
      <trkpt lat="47.17031" lon="6.13698">
        <ele>551.8</ele>
        <time>2026-05-24T09:10:13Z</time>
      </trkpt>
      <trkpt lat="47.17026" lon="6.13697">
        <ele>551.4</ele>
        <time>2026-05-24T09:10:14Z</time>
      </trkpt>
      <trkpt lat="47.17023" lon="6.13694">
        <ele>551.2</ele>
        <time>2026-05-24T09:10:15Z</time>
      </trkpt>
      <trkpt lat="47.17019" lon="6.13692">
        <ele>550.6</ele>
        <time>2026-05-24T09:10:16Z</time>
      </trkpt>
      <trkpt lat="47.17016" lon="6.13688">
        <ele>550.4</ele>
        <time>2026-05-24T09:10:17Z</time>
      </trkpt>
      <trkpt lat="47.17012" lon="6.13684">
        <ele>550</ele>
        <time>2026-05-24T09:10:18Z</time>
      </trkpt>
      <trkpt lat="47.17009" lon="6.1368">
        <ele>549.8</ele>
        <time>2026-05-24T09:10:19Z</time>
      </trkpt>
      <trkpt lat="47.17006" lon="6.13676">
        <ele>549.8</ele>
        <time>2026-05-24T09:10:20Z</time>
      </trkpt>
      <trkpt lat="47.17002" lon="6.13675">
        <ele>549.2</ele>
        <time>2026-05-24T09:10:21Z</time>
      </trkpt>
      <trkpt lat="47.16998" lon="6.13673">
        <ele>548.8</ele>
        <time>2026-05-24T09:10:22Z</time>
      </trkpt>
      <trkpt lat="47.16995" lon="6.13671">
        <ele>548.2</ele>
        <time>2026-05-24T09:10:23Z</time>
      </trkpt>
      <trkpt lat="47.16991" lon="6.13669">
        <ele>547.6</ele>
        <time>2026-05-24T09:10:24Z</time>
      </trkpt>
      <trkpt lat="47.16986" lon="6.13668">
        <ele>547.2</ele>
        <time>2026-05-24T09:10:25Z</time>
      </trkpt>
      <trkpt lat="47.16982" lon="6.13665">
        <ele>546.8</ele>
        <time>2026-05-24T09:10:26Z</time>
      </trkpt>
      <trkpt lat="47.16978" lon="6.13664">
        <ele>546.6</ele>
        <time>2026-05-24T09:10:27Z</time>
      </trkpt>
      <trkpt lat="47.16974" lon="6.13664">
        <ele>546.4</ele>
        <time>2026-05-24T09:10:28Z</time>
      </trkpt>
      <trkpt lat="47.16971" lon="6.13663">
        <ele>546.4</ele>
        <time>2026-05-24T09:10:29Z</time>
      </trkpt>
      <trkpt lat="47.16968" lon="6.13663">
        <ele>546.2</ele>
        <time>2026-05-24T09:10:30Z</time>
      </trkpt>
      <trkpt lat="47.16965" lon="6.13663">
        <ele>546.2</ele>
        <time>2026-05-24T09:10:31Z</time>
      </trkpt>
      <trkpt lat="47.16962" lon="6.13663">
        <ele>546.2</ele>
        <time>2026-05-24T09:10:32Z</time>
      </trkpt>
      <trkpt lat="47.16959" lon="6.13661">
        <ele>546.2</ele>
        <time>2026-05-24T09:10:33Z</time>
      </trkpt>
      <trkpt lat="47.16955" lon="6.13659">
        <ele>546.2</ele>
        <time>2026-05-24T09:10:34Z</time>
      </trkpt>
      <trkpt lat="47.16951" lon="6.13655">
        <ele>546.2</ele>
        <time>2026-05-24T09:10:35Z</time>
      </trkpt>
      <trkpt lat="47.16946" lon="6.13653">
        <ele>546</ele>
        <time>2026-05-24T09:10:36Z</time>
      </trkpt>
      <trkpt lat="47.16941" lon="6.1365">
        <ele>546.2</ele>
        <time>2026-05-24T09:10:37Z</time>
      </trkpt>
      <trkpt lat="47.16937" lon="6.13649">
        <ele>546.2</ele>
        <time>2026-05-24T09:10:38Z</time>
      </trkpt>
      <trkpt lat="47.16934" lon="6.13647">
        <ele>546.2</ele>
        <time>2026-05-24T09:10:39Z</time>
      </trkpt>
      <trkpt lat="47.1693" lon="6.13643">
        <ele>546.2</ele>
        <time>2026-05-24T09:10:40Z</time>
      </trkpt>
      <trkpt lat="47.16926" lon="6.13643">
        <ele>546.2</ele>
        <time>2026-05-24T09:10:41Z</time>
      </trkpt>
      <trkpt lat="47.16922" lon="6.13642">
        <ele>546.2</ele>
        <time>2026-05-24T09:10:42Z</time>
      </trkpt>
      <trkpt lat="47.16918" lon="6.1364">
        <ele>546.2</ele>
        <time>2026-05-24T09:10:43Z</time>
      </trkpt>
      <trkpt lat="47.16915" lon="6.13639">
        <ele>546.2</ele>
        <time>2026-05-24T09:10:44Z</time>
      </trkpt>
      <trkpt lat="47.16911" lon="6.13639">
        <ele>546.2</ele>
        <time>2026-05-24T09:10:45Z</time>
      </trkpt>
      <trkpt lat="47.16909" lon="6.13637">
        <ele>546.2</ele>
        <time>2026-05-24T09:10:46Z</time>
      </trkpt>
      <trkpt lat="47.16906" lon="6.13637">
        <ele>546.2</ele>
        <time>2026-05-24T09:10:47Z</time>
      </trkpt>
      <trkpt lat="47.16903" lon="6.13637">
        <ele>546.2</ele>
        <time>2026-05-24T09:10:48Z</time>
      </trkpt>
      <trkpt lat="47.16899" lon="6.13634">
        <ele>546</ele>
        <time>2026-05-24T09:10:49Z</time>
      </trkpt>
      <trkpt lat="47.16897" lon="6.13634">
        <ele>546</ele>
        <time>2026-05-24T09:10:50Z</time>
      </trkpt>
      <trkpt lat="47.16894" lon="6.13631">
        <ele>546.2</ele>
        <time>2026-05-24T09:10:51Z</time>
      </trkpt>
      <trkpt lat="47.1689" lon="6.13629">
        <ele>546</ele>
        <time>2026-05-24T09:10:52Z</time>
      </trkpt>
      <trkpt lat="47.16885" lon="6.13626">
        <ele>546</ele>
        <time>2026-05-24T09:10:53Z</time>
      </trkpt>
      <trkpt lat="47.16882" lon="6.13624">
        <ele>546</ele>
        <time>2026-05-24T09:10:54Z</time>
      </trkpt>
      <trkpt lat="47.16879" lon="6.13617">
        <ele>546</ele>
        <time>2026-05-24T09:10:55Z</time>
      </trkpt>
      <trkpt lat="47.16877" lon="6.13613">
        <ele>546</ele>
        <time>2026-05-24T09:10:56Z</time>
      </trkpt>
      <trkpt lat="47.16873" lon="6.13608">
        <ele>545.8</ele>
        <time>2026-05-24T09:10:57Z</time>
      </trkpt>
      <trkpt lat="47.1687" lon="6.13606">
        <ele>545.8</ele>
        <time>2026-05-24T09:10:58Z</time>
      </trkpt>
      <trkpt lat="47.16867" lon="6.13601">
        <ele>545.6</ele>
        <time>2026-05-24T09:10:59Z</time>
      </trkpt>
      <trkpt lat="47.16863" lon="6.13598">
        <ele>545.8</ele>
        <time>2026-05-24T09:11:00Z</time>
      </trkpt>
      <trkpt lat="47.16859" lon="6.13596">
        <ele>545.4</ele>
        <time>2026-05-24T09:11:01Z</time>
      </trkpt>
      <trkpt lat="47.16854" lon="6.13593">
        <ele>545.4</ele>
        <time>2026-05-24T09:11:02Z</time>
      </trkpt>
      <trkpt lat="47.1685" lon="6.13593">
        <ele>545.4</ele>
        <time>2026-05-24T09:11:03Z</time>
      </trkpt>
      <trkpt lat="47.16847" lon="6.13584">
        <ele>545.2</ele>
        <time>2026-05-24T09:11:04Z</time>
      </trkpt>
      <trkpt lat="47.16842" lon="6.1358">
        <ele>545.2</ele>
        <time>2026-05-24T09:11:05Z</time>
      </trkpt>
      <trkpt lat="47.16839" lon="6.1357">
        <ele>545</ele>
        <time>2026-05-24T09:11:06Z</time>
      </trkpt>
      <trkpt lat="47.16835" lon="6.13564">
        <ele>544.8</ele>
        <time>2026-05-24T09:11:07Z</time>
      </trkpt>
      <trkpt lat="47.16832" lon="6.13558">
        <ele>544.6</ele>
        <time>2026-05-24T09:11:08Z</time>
      </trkpt>
      <trkpt lat="47.1683" lon="6.13549">
        <ele>544.4</ele>
        <time>2026-05-24T09:11:09Z</time>
      </trkpt>
      <trkpt lat="47.16829" lon="6.13539">
        <ele>544</ele>
        <time>2026-05-24T09:11:10Z</time>
      </trkpt>
      <trkpt lat="47.16827" lon="6.13528">
        <ele>544</ele>
        <time>2026-05-24T09:11:11Z</time>
      </trkpt>
      <trkpt lat="47.16827" lon="6.13518">
        <ele>543.8</ele>
        <time>2026-05-24T09:11:12Z</time>
      </trkpt>
      <trkpt lat="47.16828" lon="6.13508">
        <ele>543.2</ele>
        <time>2026-05-24T09:11:13Z</time>
      </trkpt>
      <trkpt lat="47.16829" lon="6.13504">
        <ele>542.8</ele>
        <time>2026-05-24T09:11:14Z</time>
      </trkpt>
      <trkpt lat="47.16831" lon="6.13502">
        <ele>542.6</ele>
        <time>2026-05-24T09:11:15Z</time>
      </trkpt>
      <trkpt lat="47.16833" lon="6.13501">
        <ele>542.2</ele>
        <time>2026-05-24T09:11:16Z</time>
      </trkpt>
      <trkpt lat="47.16836" lon="6.13496">
        <ele>541.8</ele>
        <time>2026-05-24T09:11:17Z</time>
      </trkpt>
      <trkpt lat="47.16841" lon="6.13493">
        <ele>541.8</ele>
        <time>2026-05-24T09:11:18Z</time>
      </trkpt>
      <trkpt lat="47.16846" lon="6.13488">
        <ele>541.6</ele>
        <time>2026-05-24T09:11:19Z</time>
      </trkpt>
      <trkpt lat="47.16851" lon="6.13489">
        <ele>541.4</ele>
        <time>2026-05-24T09:11:20Z</time>
      </trkpt>
      <trkpt lat="47.16856" lon="6.13485">
        <ele>541.2</ele>
        <time>2026-05-24T09:11:21Z</time>
      </trkpt>
      <trkpt lat="47.16863" lon="6.13485">
        <ele>540.8</ele>
        <time>2026-05-24T09:11:22Z</time>
      </trkpt>
      <trkpt lat="47.16869" lon="6.13482">
        <ele>540.6</ele>
        <time>2026-05-24T09:11:23Z</time>
      </trkpt>
      <trkpt lat="47.16878" lon="6.13475">
        <ele>540.4</ele>
        <time>2026-05-24T09:11:24Z</time>
      </trkpt>
      <trkpt lat="47.16886" lon="6.13468">
        <ele>540.2</ele>
        <time>2026-05-24T09:11:25Z</time>
      </trkpt>
      <trkpt lat="47.16894" lon="6.13456">
        <ele>540</ele>
        <time>2026-05-24T09:11:26Z</time>
      </trkpt>
      <trkpt lat="47.16903" lon="6.13444">
        <ele>539.8</ele>
        <time>2026-05-24T09:11:27Z</time>
      </trkpt>
      <trkpt lat="47.16912" lon="6.13434">
        <ele>539.4</ele>
        <time>2026-05-24T09:11:28Z</time>
      </trkpt>
      <trkpt lat="47.16919" lon="6.13424">
        <ele>539</ele>
        <time>2026-05-24T09:11:29Z</time>
      </trkpt>
      <trkpt lat="47.16924" lon="6.13415">
        <ele>538.8</ele>
        <time>2026-05-24T09:11:30Z</time>
      </trkpt>
      <trkpt lat="47.16925" lon="6.13404">
        <ele>538.6</ele>
        <time>2026-05-24T09:11:31Z</time>
      </trkpt>
      <trkpt lat="47.16925" lon="6.13394">
        <ele>538.6</ele>
        <time>2026-05-24T09:11:32Z</time>
      </trkpt>
      <trkpt lat="47.16924" lon="6.13385">
        <ele>538.6</ele>
        <time>2026-05-24T09:11:33Z</time>
      </trkpt>
      <trkpt lat="47.16922" lon="6.13375">
        <ele>538.6</ele>
        <time>2026-05-24T09:11:34Z</time>
      </trkpt>
      <trkpt lat="47.1692" lon="6.13365">
        <ele>538.6</ele>
        <time>2026-05-24T09:11:35Z</time>
      </trkpt>
      <trkpt lat="47.16917" lon="6.13356">
        <ele>538.6</ele>
        <time>2026-05-24T09:11:36Z</time>
      </trkpt>
      <trkpt lat="47.16914" lon="6.13348">
        <ele>538.4</ele>
        <time>2026-05-24T09:11:37Z</time>
      </trkpt>
      <trkpt lat="47.16911" lon="6.13341">
        <ele>538.6</ele>
        <time>2026-05-24T09:11:38Z</time>
      </trkpt>
      <trkpt lat="47.16908" lon="6.13334">
        <ele>538.6</ele>
        <time>2026-05-24T09:11:39Z</time>
      </trkpt>
      <trkpt lat="47.16906" lon="6.13328">
        <ele>538.6</ele>
        <time>2026-05-24T09:11:40Z</time>
      </trkpt>
      <trkpt lat="47.16903" lon="6.13323">
        <ele>539</ele>
        <time>2026-05-24T09:11:41Z</time>
      </trkpt>
      <trkpt lat="47.16902" lon="6.13316">
        <ele>539.6</ele>
        <time>2026-05-24T09:11:42Z</time>
      </trkpt>
      <trkpt lat="47.16901" lon="6.13308">
        <ele>540</ele>
        <time>2026-05-24T09:11:43Z</time>
      </trkpt>
      <trkpt lat="47.169" lon="6.13302">
        <ele>541</ele>
        <time>2026-05-24T09:11:44Z</time>
      </trkpt>
      <trkpt lat="47.16899" lon="6.13295">
        <ele>541.4</ele>
        <time>2026-05-24T09:11:45Z</time>
      </trkpt>
      <trkpt lat="47.16898" lon="6.13289">
        <ele>542</ele>
        <time>2026-05-24T09:11:46Z</time>
      </trkpt>
      <trkpt lat="47.16896" lon="6.13283">
        <ele>542.4</ele>
        <time>2026-05-24T09:11:47Z</time>
      </trkpt>
      <trkpt lat="47.16895" lon="6.13277">
        <ele>542.8</ele>
        <time>2026-05-24T09:11:48Z</time>
      </trkpt>
      <trkpt lat="47.16894" lon="6.13272">
        <ele>543.2</ele>
        <time>2026-05-24T09:11:49Z</time>
      </trkpt>
      <trkpt lat="47.16893" lon="6.13267">
        <ele>543.6</ele>
        <time>2026-05-24T09:11:50Z</time>
      </trkpt>
      <trkpt lat="47.16892" lon="6.13262">
        <ele>544</ele>
        <time>2026-05-24T09:11:51Z</time>
      </trkpt>
      <trkpt lat="47.1689" lon="6.13258">
        <ele>544.2</ele>
        <time>2026-05-24T09:11:52Z</time>
      </trkpt>
      <trkpt lat="47.1689" lon="6.13254">
        <ele>544.4</ele>
        <time>2026-05-24T09:11:53Z</time>
      </trkpt>
      <trkpt lat="47.16889" lon="6.13251">
        <ele>544.6</ele>
        <time>2026-05-24T09:11:54Z</time>
      </trkpt>
      <trkpt lat="47.16888" lon="6.13247">
        <ele>544.6</ele>
        <time>2026-05-24T09:11:55Z</time>
      </trkpt>
      <trkpt lat="47.16888" lon="6.13243">
        <ele>544.6</ele>
        <time>2026-05-24T09:11:56Z</time>
      </trkpt>
      <trkpt lat="47.16887" lon="6.13238">
        <ele>544.6</ele>
        <time>2026-05-24T09:11:57Z</time>
      </trkpt>
      <trkpt lat="47.16886" lon="6.13234">
        <ele>544.8</ele>
        <time>2026-05-24T09:11:58Z</time>
      </trkpt>
      <trkpt lat="47.16885" lon="6.13231">
        <ele>544.8</ele>
        <time>2026-05-24T09:11:59Z</time>
      </trkpt>
      <trkpt lat="47.16884" lon="6.13227">
        <ele>544.8</ele>
        <time>2026-05-24T09:12:00Z</time>
      </trkpt>
      <trkpt lat="47.16884" lon="6.13223">
        <ele>544.6</ele>
        <time>2026-05-24T09:12:01Z</time>
      </trkpt>
      <trkpt lat="47.16883" lon="6.1322">
        <ele>544.6</ele>
        <time>2026-05-24T09:12:02Z</time>
      </trkpt>
      <trkpt lat="47.16883" lon="6.13217">
        <ele>544.6</ele>
        <time>2026-05-24T09:12:03Z</time>
      </trkpt>
      <trkpt lat="47.16883" lon="6.13213">
        <ele>544.8</ele>
        <time>2026-05-24T09:12:04Z</time>
      </trkpt>
      <trkpt lat="47.16883" lon="6.1321">
        <ele>544.8</ele>
        <time>2026-05-24T09:12:05Z</time>
      </trkpt>
      <trkpt lat="47.16883" lon="6.13206">
        <ele>544.8</ele>
        <time>2026-05-24T09:12:06Z</time>
      </trkpt>
      <trkpt lat="47.16882" lon="6.13202">
        <ele>544.8</ele>
        <time>2026-05-24T09:12:07Z</time>
      </trkpt>
      <trkpt lat="47.16882" lon="6.13198">
        <ele>544.8</ele>
        <time>2026-05-24T09:12:08Z</time>
      </trkpt>
      <trkpt lat="47.16881" lon="6.13194">
        <ele>544.8</ele>
        <time>2026-05-24T09:12:09Z</time>
      </trkpt>
      <trkpt lat="47.16881" lon="6.13189">
        <ele>544.8</ele>
        <time>2026-05-24T09:12:10Z</time>
      </trkpt>
      <trkpt lat="47.16881" lon="6.13184">
        <ele>544.8</ele>
        <time>2026-05-24T09:12:11Z</time>
      </trkpt>
      <trkpt lat="47.16881" lon="6.13179">
        <ele>545</ele>
        <time>2026-05-24T09:12:12Z</time>
      </trkpt>
      <trkpt lat="47.1688" lon="6.13173">
        <ele>544.8</ele>
        <time>2026-05-24T09:12:13Z</time>
      </trkpt>
      <trkpt lat="47.1688" lon="6.13168">
        <ele>544.8</ele>
        <time>2026-05-24T09:12:14Z</time>
      </trkpt>
      <trkpt lat="47.1688" lon="6.13162">
        <ele>544.8</ele>
        <time>2026-05-24T09:12:15Z</time>
      </trkpt>
      <trkpt lat="47.16879" lon="6.13156">
        <ele>544.8</ele>
        <time>2026-05-24T09:12:16Z</time>
      </trkpt>
      <trkpt lat="47.16879" lon="6.1315">
        <ele>544.6</ele>
        <time>2026-05-24T09:12:17Z</time>
      </trkpt>
      <trkpt lat="47.16879" lon="6.13144">
        <ele>544.6</ele>
        <time>2026-05-24T09:12:18Z</time>
      </trkpt>
      <trkpt lat="47.16879" lon="6.13137">
        <ele>544.6</ele>
        <time>2026-05-24T09:12:19Z</time>
      </trkpt>
      <trkpt lat="47.16879" lon="6.1313">
        <ele>544.4</ele>
        <time>2026-05-24T09:12:20Z</time>
      </trkpt>
      <trkpt lat="47.16879" lon="6.13122">
        <ele>544.4</ele>
        <time>2026-05-24T09:12:21Z</time>
      </trkpt>
      <trkpt lat="47.16879" lon="6.13114">
        <ele>544.4</ele>
        <time>2026-05-24T09:12:22Z</time>
      </trkpt>
      <trkpt lat="47.1688" lon="6.13106">
        <ele>544.2</ele>
        <time>2026-05-24T09:12:23Z</time>
      </trkpt>
      <trkpt lat="47.16881" lon="6.13097">
        <ele>544.2</ele>
        <time>2026-05-24T09:12:24Z</time>
      </trkpt>
      <trkpt lat="47.16883" lon="6.13088">
        <ele>544.2</ele>
        <time>2026-05-24T09:12:25Z</time>
      </trkpt>
      <trkpt lat="47.16884" lon="6.13079">
        <ele>544</ele>
        <time>2026-05-24T09:12:26Z</time>
      </trkpt>
      <trkpt lat="47.16886" lon="6.1307">
        <ele>543.6</ele>
        <time>2026-05-24T09:12:27Z</time>
      </trkpt>
      <trkpt lat="47.16889" lon="6.13061">
        <ele>543.6</ele>
        <time>2026-05-24T09:12:28Z</time>
      </trkpt>
      <trkpt lat="47.16892" lon="6.13053">
        <ele>543.4</ele>
        <time>2026-05-24T09:12:29Z</time>
      </trkpt>
      <trkpt lat="47.16895" lon="6.13044">
        <ele>543.2</ele>
        <time>2026-05-24T09:12:30Z</time>
      </trkpt>
      <trkpt lat="47.16898" lon="6.13035">
        <ele>543</ele>
        <time>2026-05-24T09:12:31Z</time>
      </trkpt>
      <trkpt lat="47.16902" lon="6.13026">
        <ele>542.6</ele>
        <time>2026-05-24T09:12:32Z</time>
      </trkpt>
      <trkpt lat="47.16907" lon="6.13017">
        <ele>542.2</ele>
        <time>2026-05-24T09:12:33Z</time>
      </trkpt>
      <trkpt lat="47.16914" lon="6.13008">
        <ele>542</ele>
        <time>2026-05-24T09:12:34Z</time>
      </trkpt>
      <trkpt lat="47.1692" lon="6.12999">
        <ele>541.6</ele>
        <time>2026-05-24T09:12:35Z</time>
      </trkpt>
      <trkpt lat="47.16927" lon="6.12991">
        <ele>541.2</ele>
        <time>2026-05-24T09:12:36Z</time>
      </trkpt>
      <trkpt lat="47.16934" lon="6.12982">
        <ele>540.6</ele>
        <time>2026-05-24T09:12:37Z</time>
      </trkpt>
      <trkpt lat="47.16941" lon="6.12974">
        <ele>540.2</ele>
        <time>2026-05-24T09:12:38Z</time>
      </trkpt>
      <trkpt lat="47.16948" lon="6.12967">
        <ele>539.6</ele>
        <time>2026-05-24T09:12:39Z</time>
      </trkpt>
      <trkpt lat="47.16955" lon="6.1296">
        <ele>539</ele>
        <time>2026-05-24T09:12:40Z</time>
      </trkpt>
      <trkpt lat="47.16962" lon="6.12952">
        <ele>538.4</ele>
        <time>2026-05-24T09:12:41Z</time>
      </trkpt>
      <trkpt lat="47.16969" lon="6.12945">
        <ele>537.4</ele>
        <time>2026-05-24T09:12:42Z</time>
      </trkpt>
      <trkpt lat="47.16977" lon="6.12938">
        <ele>536.8</ele>
        <time>2026-05-24T09:12:43Z</time>
      </trkpt>
      <trkpt lat="47.16986" lon="6.12932">
        <ele>536</ele>
        <time>2026-05-24T09:12:44Z</time>
      </trkpt>
      <trkpt lat="47.16997" lon="6.12922">
        <ele>535.2</ele>
        <time>2026-05-24T09:12:45Z</time>
      </trkpt>
      <trkpt lat="47.17006" lon="6.12916">
        <ele>535.2</ele>
        <time>2026-05-24T09:12:46Z</time>
      </trkpt>
      <trkpt lat="47.17015" lon="6.1291">
        <ele>534.4</ele>
        <time>2026-05-24T09:12:47Z</time>
      </trkpt>
      <trkpt lat="47.17026" lon="6.12902">
        <ele>533.6</ele>
        <time>2026-05-24T09:12:48Z</time>
      </trkpt>
      <trkpt lat="47.17035" lon="6.12896">
        <ele>533</ele>
        <time>2026-05-24T09:12:49Z</time>
      </trkpt>
      <trkpt lat="47.17046" lon="6.12888">
        <ele>532.6</ele>
        <time>2026-05-24T09:12:50Z</time>
      </trkpt>
      <trkpt lat="47.17055" lon="6.12881">
        <ele>532</ele>
        <time>2026-05-24T09:12:51Z</time>
      </trkpt>
      <trkpt lat="47.17064" lon="6.12872">
        <ele>531.6</ele>
        <time>2026-05-24T09:12:52Z</time>
      </trkpt>
      <trkpt lat="47.17076" lon="6.12869">
        <ele>531.4</ele>
        <time>2026-05-24T09:12:53Z</time>
      </trkpt>
      <trkpt lat="47.17085" lon="6.12861">
        <ele>531</ele>
        <time>2026-05-24T09:12:54Z</time>
      </trkpt>
      <trkpt lat="47.17092" lon="6.12851">
        <ele>530.6</ele>
        <time>2026-05-24T09:12:55Z</time>
      </trkpt>
      <trkpt lat="47.17104" lon="6.12849">
        <ele>530.2</ele>
        <time>2026-05-24T09:12:56Z</time>
      </trkpt>
      <trkpt lat="47.17113" lon="6.12843">
        <ele>530</ele>
        <time>2026-05-24T09:12:57Z</time>
      </trkpt>
      <trkpt lat="47.17122" lon="6.12839">
        <ele>529.8</ele>
        <time>2026-05-24T09:12:58Z</time>
      </trkpt>
      <trkpt lat="47.17132" lon="6.12833">
        <ele>529.6</ele>
        <time>2026-05-24T09:12:59Z</time>
      </trkpt>
      <trkpt lat="47.17143" lon="6.12826">
        <ele>529.4</ele>
        <time>2026-05-24T09:13:00Z</time>
      </trkpt>
      <trkpt lat="47.17153" lon="6.12819">
        <ele>529</ele>
        <time>2026-05-24T09:13:01Z</time>
      </trkpt>
      <trkpt lat="47.17162" lon="6.12812">
        <ele>528.8</ele>
        <time>2026-05-24T09:13:02Z</time>
      </trkpt>
      <trkpt lat="47.17172" lon="6.12805">
        <ele>528.2</ele>
        <time>2026-05-24T09:13:03Z</time>
      </trkpt>
      <trkpt lat="47.17182" lon="6.12798">
        <ele>527.8</ele>
        <time>2026-05-24T09:13:04Z</time>
      </trkpt>
      <trkpt lat="47.17191" lon="6.1279">
        <ele>527.2</ele>
        <time>2026-05-24T09:13:05Z</time>
      </trkpt>
      <trkpt lat="47.17201" lon="6.12782">
        <ele>526.8</ele>
        <time>2026-05-24T09:13:06Z</time>
      </trkpt>
      <trkpt lat="47.17209" lon="6.12774">
        <ele>526.4</ele>
        <time>2026-05-24T09:13:07Z</time>
      </trkpt>
      <trkpt lat="47.17218" lon="6.12766">
        <ele>526.4</ele>
        <time>2026-05-24T09:13:08Z</time>
      </trkpt>
      <trkpt lat="47.17226" lon="6.12758">
        <ele>525.8</ele>
        <time>2026-05-24T09:13:09Z</time>
      </trkpt>
      <trkpt lat="47.17234" lon="6.1275">
        <ele>525.4</ele>
        <time>2026-05-24T09:13:10Z</time>
      </trkpt>
      <trkpt lat="47.17242" lon="6.12741">
        <ele>524.8</ele>
        <time>2026-05-24T09:13:11Z</time>
      </trkpt>
      <trkpt lat="47.17249" lon="6.1273">
        <ele>524.2</ele>
        <time>2026-05-24T09:13:12Z</time>
      </trkpt>
      <trkpt lat="47.17257" lon="6.12718">
        <ele>523.8</ele>
        <time>2026-05-24T09:13:13Z</time>
      </trkpt>
      <trkpt lat="47.17265" lon="6.12706">
        <ele>523.2</ele>
        <time>2026-05-24T09:13:14Z</time>
      </trkpt>
      <trkpt lat="47.17272" lon="6.12694">
        <ele>522.8</ele>
        <time>2026-05-24T09:13:15Z</time>
      </trkpt>
      <trkpt lat="47.1728" lon="6.12683">
        <ele>522.4</ele>
        <time>2026-05-24T09:13:16Z</time>
      </trkpt>
      <trkpt lat="47.17288" lon="6.12672">
        <ele>522.2</ele>
        <time>2026-05-24T09:13:17Z</time>
      </trkpt>
      <trkpt lat="47.17296" lon="6.12662">
        <ele>521.8</ele>
        <time>2026-05-24T09:13:18Z</time>
      </trkpt>
      <trkpt lat="47.17305" lon="6.12654">
        <ele>521.4</ele>
        <time>2026-05-24T09:13:19Z</time>
      </trkpt>
      <trkpt lat="47.17313" lon="6.12646">
        <ele>521</ele>
        <time>2026-05-24T09:13:20Z</time>
      </trkpt>
      <trkpt lat="47.17322" lon="6.12638">
        <ele>520.4</ele>
        <time>2026-05-24T09:13:21Z</time>
      </trkpt>
      <trkpt lat="47.17331" lon="6.1263">
        <ele>519.8</ele>
        <time>2026-05-24T09:13:22Z</time>
      </trkpt>
      <trkpt lat="47.17339" lon="6.12624">
        <ele>519.2</ele>
        <time>2026-05-24T09:13:23Z</time>
      </trkpt>
      <trkpt lat="47.17347" lon="6.12616">
        <ele>518.8</ele>
        <time>2026-05-24T09:13:24Z</time>
      </trkpt>
      <trkpt lat="47.17356" lon="6.12609">
        <ele>518.4</ele>
        <time>2026-05-24T09:13:25Z</time>
      </trkpt>
      <trkpt lat="47.17364" lon="6.12603">
        <ele>518</ele>
        <time>2026-05-24T09:13:26Z</time>
      </trkpt>
      <trkpt lat="47.17372" lon="6.12596">
        <ele>517.6</ele>
        <time>2026-05-24T09:13:27Z</time>
      </trkpt>
      <trkpt lat="47.1738" lon="6.1259">
        <ele>517.4</ele>
        <time>2026-05-24T09:13:28Z</time>
      </trkpt>
      <trkpt lat="47.17388" lon="6.12583">
        <ele>517</ele>
        <time>2026-05-24T09:13:29Z</time>
      </trkpt>
      <trkpt lat="47.17395" lon="6.12577">
        <ele>517</ele>
        <time>2026-05-24T09:13:30Z</time>
      </trkpt>
      <trkpt lat="47.17403" lon="6.12571">
        <ele>516.8</ele>
        <time>2026-05-24T09:13:31Z</time>
      </trkpt>
      <trkpt lat="47.1741" lon="6.12565">
        <ele>516.6</ele>
        <time>2026-05-24T09:13:32Z</time>
      </trkpt>
      <trkpt lat="47.17417" lon="6.1256">
        <ele>516.4</ele>
        <time>2026-05-24T09:13:33Z</time>
      </trkpt>
      <trkpt lat="47.17424" lon="6.12555">
        <ele>516.2</ele>
        <time>2026-05-24T09:13:34Z</time>
      </trkpt>
      <trkpt lat="47.17431" lon="6.12549">
        <ele>516</ele>
        <time>2026-05-24T09:13:35Z</time>
      </trkpt>
      <trkpt lat="47.17437" lon="6.12544">
        <ele>516</ele>
        <time>2026-05-24T09:13:36Z</time>
      </trkpt>
      <trkpt lat="47.17444" lon="6.12539">
        <ele>515.8</ele>
        <time>2026-05-24T09:13:37Z</time>
      </trkpt>
      <trkpt lat="47.1745" lon="6.12535">
        <ele>515.8</ele>
        <time>2026-05-24T09:13:38Z</time>
      </trkpt>
      <trkpt lat="47.17455" lon="6.12531">
        <ele>515.6</ele>
        <time>2026-05-24T09:13:39Z</time>
      </trkpt>
      <trkpt lat="47.17461" lon="6.12528">
        <ele>515.6</ele>
        <time>2026-05-24T09:13:40Z</time>
      </trkpt>
      <trkpt lat="47.17466" lon="6.12524">
        <ele>515.4</ele>
        <time>2026-05-24T09:13:41Z</time>
      </trkpt>
      <trkpt lat="47.1747" lon="6.1252">
        <ele>515.2</ele>
        <time>2026-05-24T09:13:42Z</time>
      </trkpt>
      <trkpt lat="47.17474" lon="6.12517">
        <ele>515.2</ele>
        <time>2026-05-24T09:13:43Z</time>
      </trkpt>
      <trkpt lat="47.17478" lon="6.12514">
        <ele>515.2</ele>
        <time>2026-05-24T09:13:44Z</time>
      </trkpt>
      <trkpt lat="47.1748" lon="6.12511">
        <ele>515</ele>
        <time>2026-05-24T09:13:45Z</time>
      </trkpt>
      <trkpt lat="47.17483" lon="6.12508">
        <ele>514.8</ele>
        <time>2026-05-24T09:13:46Z</time>
      </trkpt>
      <trkpt lat="47.17485" lon="6.12507">
        <ele>515</ele>
        <time>2026-05-24T09:13:47Z</time>
      </trkpt>
      <trkpt lat="47.17486" lon="6.12506">
        <ele>515</ele>
        <time>2026-05-24T09:13:48Z</time>
      </trkpt>
      <trkpt lat="47.17487" lon="6.12504">
        <ele>515</ele>
        <time>2026-05-24T09:13:49Z</time>
      </trkpt>
      <trkpt lat="47.17488" lon="6.12503">
        <ele>515</ele>
        <time>2026-05-24T09:13:50Z</time>
      </trkpt>
      <trkpt lat="47.1749" lon="6.12501">
        <ele>514.8</ele>
        <time>2026-05-24T09:13:51Z</time>
      </trkpt>
      <trkpt lat="47.17491" lon="6.125">
        <ele>514.8</ele>
        <time>2026-05-24T09:13:52Z</time>
      </trkpt>
      <trkpt lat="47.17493" lon="6.12498">
        <ele>514.8</ele>
        <time>2026-05-24T09:13:53Z</time>
      </trkpt>
      <trkpt lat="47.17495" lon="6.12496">
        <ele>514.8</ele>
        <time>2026-05-24T09:13:54Z</time>
      </trkpt>
      <trkpt lat="47.17498" lon="6.12493">
        <ele>514.8</ele>
        <time>2026-05-24T09:13:55Z</time>
      </trkpt>
      <trkpt lat="47.175" lon="6.12491">
        <ele>515</ele>
        <time>2026-05-24T09:13:56Z</time>
      </trkpt>
      <trkpt lat="47.17504" lon="6.12489">
        <ele>514.8</ele>
        <time>2026-05-24T09:13:57Z</time>
      </trkpt>
      <trkpt lat="47.17508" lon="6.12487">
        <ele>514.8</ele>
        <time>2026-05-24T09:13:58Z</time>
      </trkpt>
      <trkpt lat="47.17511" lon="6.12486">
        <ele>514.8</ele>
        <time>2026-05-24T09:13:59Z</time>
      </trkpt>
      <trkpt lat="47.17514" lon="6.12483">
        <ele>514.8</ele>
        <time>2026-05-24T09:14:00Z</time>
      </trkpt>
      <trkpt lat="47.17518" lon="6.1248">
        <ele>515</ele>
        <time>2026-05-24T09:14:01Z</time>
      </trkpt>
      <trkpt lat="47.17522" lon="6.12477">
        <ele>515</ele>
        <time>2026-05-24T09:14:02Z</time>
      </trkpt>
      <trkpt lat="47.17525" lon="6.12475">
        <ele>515.2</ele>
        <time>2026-05-24T09:14:03Z</time>
      </trkpt>
      <trkpt lat="47.17529" lon="6.12472">
        <ele>515.2</ele>
        <time>2026-05-24T09:14:04Z</time>
      </trkpt>
      <trkpt lat="47.17532" lon="6.1247">
        <ele>515.4</ele>
        <time>2026-05-24T09:14:05Z</time>
      </trkpt>
      <trkpt lat="47.17535" lon="6.12467">
        <ele>515.2</ele>
        <time>2026-05-24T09:14:06Z</time>
      </trkpt>
      <trkpt lat="47.17539" lon="6.12465">
        <ele>515.4</ele>
        <time>2026-05-24T09:14:07Z</time>
      </trkpt>
      <trkpt lat="47.17542" lon="6.12462">
        <ele>515.4</ele>
        <time>2026-05-24T09:14:08Z</time>
      </trkpt>
      <trkpt lat="47.17546" lon="6.12458">
        <ele>515.6</ele>
        <time>2026-05-24T09:14:09Z</time>
      </trkpt>
      <trkpt lat="47.1755" lon="6.12454">
        <ele>515.6</ele>
        <time>2026-05-24T09:14:10Z</time>
      </trkpt>
      <trkpt lat="47.17554" lon="6.1245">
        <ele>515.8</ele>
        <time>2026-05-24T09:14:11Z</time>
      </trkpt>
      <trkpt lat="47.17558" lon="6.12446">
        <ele>515.8</ele>
        <time>2026-05-24T09:14:12Z</time>
      </trkpt>
      <trkpt lat="47.17562" lon="6.12443">
        <ele>515.8</ele>
        <time>2026-05-24T09:14:13Z</time>
      </trkpt>
      <trkpt lat="47.17568" lon="6.12441">
        <ele>515.8</ele>
        <time>2026-05-24T09:14:14Z</time>
      </trkpt>
      <trkpt lat="47.17573" lon="6.12438">
        <ele>515.8</ele>
        <time>2026-05-24T09:14:15Z</time>
      </trkpt>
      <trkpt lat="47.17578" lon="6.12435">
        <ele>515.8</ele>
        <time>2026-05-24T09:14:16Z</time>
      </trkpt>
      <trkpt lat="47.17583" lon="6.12432">
        <ele>516</ele>
        <time>2026-05-24T09:14:17Z</time>
      </trkpt>
      <trkpt lat="47.17587" lon="6.12428">
        <ele>516</ele>
        <time>2026-05-24T09:14:18Z</time>
      </trkpt>
      <trkpt lat="47.17591" lon="6.12423">
        <ele>516.2</ele>
        <time>2026-05-24T09:14:19Z</time>
      </trkpt>
      <trkpt lat="47.17595" lon="6.12419">
        <ele>516.2</ele>
        <time>2026-05-24T09:14:20Z</time>
      </trkpt>
      <trkpt lat="47.17599" lon="6.12414">
        <ele>516.4</ele>
        <time>2026-05-24T09:14:21Z</time>
      </trkpt>
      <trkpt lat="47.17603" lon="6.12409">
        <ele>516.4</ele>
        <time>2026-05-24T09:14:22Z</time>
      </trkpt>
      <trkpt lat="47.17607" lon="6.12405">
        <ele>516.6</ele>
        <time>2026-05-24T09:14:23Z</time>
      </trkpt>
      <trkpt lat="47.17611" lon="6.124">
        <ele>516.8</ele>
        <time>2026-05-24T09:14:24Z</time>
      </trkpt>
      <trkpt lat="47.17614" lon="6.12394">
        <ele>517</ele>
        <time>2026-05-24T09:14:25Z</time>
      </trkpt>
      <trkpt lat="47.17617" lon="6.12389">
        <ele>516.8</ele>
        <time>2026-05-24T09:14:26Z</time>
      </trkpt>
      <trkpt lat="47.1762" lon="6.12383">
        <ele>516.8</ele>
        <time>2026-05-24T09:14:27Z</time>
      </trkpt>
      <trkpt lat="47.17623" lon="6.12377">
        <ele>517</ele>
        <time>2026-05-24T09:14:28Z</time>
      </trkpt>
      <trkpt lat="47.17626" lon="6.12371">
        <ele>517</ele>
        <time>2026-05-24T09:14:29Z</time>
      </trkpt>
      <trkpt lat="47.17629" lon="6.12365">
        <ele>517</ele>
        <time>2026-05-24T09:14:30Z</time>
      </trkpt>
      <trkpt lat="47.17632" lon="6.12359">
        <ele>517</ele>
        <time>2026-05-24T09:14:31Z</time>
      </trkpt>
      <trkpt lat="47.17636" lon="6.12353">
        <ele>517</ele>
        <time>2026-05-24T09:14:32Z</time>
      </trkpt>
      <trkpt lat="47.1764" lon="6.12348">
        <ele>517</ele>
        <time>2026-05-24T09:14:33Z</time>
      </trkpt>
      <trkpt lat="47.17644" lon="6.12342">
        <ele>517</ele>
        <time>2026-05-24T09:14:34Z</time>
      </trkpt>
      <trkpt lat="47.17648" lon="6.12337">
        <ele>517</ele>
        <time>2026-05-24T09:14:35Z</time>
      </trkpt>
      <trkpt lat="47.17652" lon="6.12331">
        <ele>517</ele>
        <time>2026-05-24T09:14:36Z</time>
      </trkpt>
      <trkpt lat="47.17656" lon="6.12326">
        <ele>516.8</ele>
        <time>2026-05-24T09:14:37Z</time>
      </trkpt>
      <trkpt lat="47.17661" lon="6.12321">
        <ele>516.8</ele>
        <time>2026-05-24T09:14:38Z</time>
      </trkpt>
      <trkpt lat="47.17665" lon="6.12316">
        <ele>516.8</ele>
        <time>2026-05-24T09:14:39Z</time>
      </trkpt>
      <trkpt lat="47.17669" lon="6.12311">
        <ele>516.6</ele>
        <time>2026-05-24T09:14:40Z</time>
      </trkpt>
      <trkpt lat="47.17674" lon="6.12306">
        <ele>516.8</ele>
        <time>2026-05-24T09:14:41Z</time>
      </trkpt>
      <trkpt lat="47.17678" lon="6.12301">
        <ele>516.6</ele>
        <time>2026-05-24T09:14:42Z</time>
      </trkpt>
      <trkpt lat="47.17682" lon="6.12297">
        <ele>516.6</ele>
        <time>2026-05-24T09:14:43Z</time>
      </trkpt>
      <trkpt lat="47.17686" lon="6.12292">
        <ele>516.4</ele>
        <time>2026-05-24T09:14:44Z</time>
      </trkpt>
      <trkpt lat="47.1769" lon="6.12286">
        <ele>516.4</ele>
        <time>2026-05-24T09:14:45Z</time>
      </trkpt>
      <trkpt lat="47.17693" lon="6.12281">
        <ele>516.4</ele>
        <time>2026-05-24T09:14:46Z</time>
      </trkpt>
      <trkpt lat="47.17695" lon="6.12275">
        <ele>516.6</ele>
        <time>2026-05-24T09:14:47Z</time>
      </trkpt>
      <trkpt lat="47.17697" lon="6.12269">
        <ele>516.4</ele>
        <time>2026-05-24T09:14:48Z</time>
      </trkpt>
      <trkpt lat="47.17697" lon="6.12262">
        <ele>516.2</ele>
        <time>2026-05-24T09:14:49Z</time>
      </trkpt>
      <trkpt lat="47.17696" lon="6.12255">
        <ele>516</ele>
        <time>2026-05-24T09:14:50Z</time>
      </trkpt>
      <trkpt lat="47.17695" lon="6.12249">
        <ele>515.8</ele>
        <time>2026-05-24T09:14:51Z</time>
      </trkpt>
      <trkpt lat="47.17693" lon="6.12242">
        <ele>515.8</ele>
        <time>2026-05-24T09:14:52Z</time>
      </trkpt>
      <trkpt lat="47.17691" lon="6.12236">
        <ele>515.8</ele>
        <time>2026-05-24T09:14:53Z</time>
      </trkpt>
      <trkpt lat="47.17689" lon="6.12229">
        <ele>515.6</ele>
        <time>2026-05-24T09:14:54Z</time>
      </trkpt>
      <trkpt lat="47.17686" lon="6.12223">
        <ele>515.4</ele>
        <time>2026-05-24T09:14:55Z</time>
      </trkpt>
      <trkpt lat="47.17683" lon="6.12216">
        <ele>515.2</ele>
        <time>2026-05-24T09:14:56Z</time>
      </trkpt>
      <trkpt lat="47.1768" lon="6.1221">
        <ele>515.4</ele>
        <time>2026-05-24T09:14:57Z</time>
      </trkpt>
      <trkpt lat="47.17677" lon="6.12203">
        <ele>514.8</ele>
        <time>2026-05-24T09:14:58Z</time>
      </trkpt>
      <trkpt lat="47.17674" lon="6.12195">
        <ele>514.8</ele>
        <time>2026-05-24T09:14:59Z</time>
      </trkpt>
      <trkpt lat="47.17672" lon="6.12188">
        <ele>514.4</ele>
        <time>2026-05-24T09:15:00Z</time>
      </trkpt>
      <trkpt lat="47.17669" lon="6.1218">
        <ele>514</ele>
        <time>2026-05-24T09:15:01Z</time>
      </trkpt>
      <trkpt lat="47.17666" lon="6.12172">
        <ele>513.8</ele>
        <time>2026-05-24T09:15:02Z</time>
      </trkpt>
      <trkpt lat="47.17663" lon="6.12163">
        <ele>513.4</ele>
        <time>2026-05-24T09:15:03Z</time>
      </trkpt>
      <trkpt lat="47.1766" lon="6.12154">
        <ele>513.4</ele>
        <time>2026-05-24T09:15:04Z</time>
      </trkpt>
      <trkpt lat="47.17656" lon="6.12145">
        <ele>513.2</ele>
        <time>2026-05-24T09:15:05Z</time>
      </trkpt>
      <trkpt lat="47.17653" lon="6.12136">
        <ele>512.6</ele>
        <time>2026-05-24T09:15:06Z</time>
      </trkpt>
      <trkpt lat="47.1765" lon="6.12126">
        <ele>512.4</ele>
        <time>2026-05-24T09:15:07Z</time>
      </trkpt>
      <trkpt lat="47.17646" lon="6.12117">
        <ele>512</ele>
        <time>2026-05-24T09:15:08Z</time>
      </trkpt>
      <trkpt lat="47.17643" lon="6.12108">
        <ele>511.4</ele>
        <time>2026-05-24T09:15:09Z</time>
      </trkpt>
      <trkpt lat="47.1764" lon="6.12099">
        <ele>511</ele>
        <time>2026-05-24T09:15:10Z</time>
      </trkpt>
      <trkpt lat="47.17638" lon="6.12089">
        <ele>510.6</ele>
        <time>2026-05-24T09:15:11Z</time>
      </trkpt>
      <trkpt lat="47.17635" lon="6.1208">
        <ele>510.4</ele>
        <time>2026-05-24T09:15:12Z</time>
      </trkpt>
      <trkpt lat="47.17634" lon="6.12071">
        <ele>509.8</ele>
        <time>2026-05-24T09:15:13Z</time>
      </trkpt>
      <trkpt lat="47.17633" lon="6.12062">
        <ele>509.2</ele>
        <time>2026-05-24T09:15:14Z</time>
      </trkpt>
      <trkpt lat="47.17634" lon="6.12052">
        <ele>509</ele>
        <time>2026-05-24T09:15:15Z</time>
      </trkpt>
      <trkpt lat="47.17635" lon="6.12042">
        <ele>508.6</ele>
        <time>2026-05-24T09:15:16Z</time>
      </trkpt>
      <trkpt lat="47.17638" lon="6.12031">
        <ele>507.8</ele>
        <time>2026-05-24T09:15:17Z</time>
      </trkpt>
      <trkpt lat="47.17641" lon="6.12022">
        <ele>507.2</ele>
        <time>2026-05-24T09:15:18Z</time>
      </trkpt>
      <trkpt lat="47.17645" lon="6.12012">
        <ele>506.8</ele>
        <time>2026-05-24T09:15:19Z</time>
      </trkpt>
      <trkpt lat="47.1765" lon="6.12005">
        <ele>506.2</ele>
        <time>2026-05-24T09:15:20Z</time>
      </trkpt>
      <trkpt lat="47.17654" lon="6.11998">
        <ele>506.2</ele>
        <time>2026-05-24T09:15:21Z</time>
      </trkpt>
      <trkpt lat="47.17659" lon="6.11992">
        <ele>505.2</ele>
        <time>2026-05-24T09:15:22Z</time>
      </trkpt>
      <trkpt lat="47.17665" lon="6.11985">
        <ele>504.8</ele>
        <time>2026-05-24T09:15:23Z</time>
      </trkpt>
      <trkpt lat="47.17671" lon="6.1198">
        <ele>503.8</ele>
        <time>2026-05-24T09:15:24Z</time>
      </trkpt>
      <trkpt lat="47.17677" lon="6.11974">
        <ele>503.6</ele>
        <time>2026-05-24T09:15:25Z</time>
      </trkpt>
      <trkpt lat="47.17683" lon="6.11968">
        <ele>502.4</ele>
        <time>2026-05-24T09:15:26Z</time>
      </trkpt>
      <trkpt lat="47.1769" lon="6.11963">
        <ele>501.4</ele>
        <time>2026-05-24T09:15:27Z</time>
      </trkpt>
      <trkpt lat="47.17697" lon="6.11957">
        <ele>500.4</ele>
        <time>2026-05-24T09:15:28Z</time>
      </trkpt>
      <trkpt lat="47.17705" lon="6.1195">
        <ele>499.8</ele>
        <time>2026-05-24T09:15:29Z</time>
      </trkpt>
      <trkpt lat="47.17712" lon="6.11945">
        <ele>499.4</ele>
        <time>2026-05-24T09:15:30Z</time>
      </trkpt>
      <trkpt lat="47.1772" lon="6.11939">
        <ele>498.6</ele>
        <time>2026-05-24T09:15:31Z</time>
      </trkpt>
      <trkpt lat="47.17728" lon="6.11932">
        <ele>497.8</ele>
        <time>2026-05-24T09:15:32Z</time>
      </trkpt>
      <trkpt lat="47.17737" lon="6.11926">
        <ele>497</ele>
        <time>2026-05-24T09:15:33Z</time>
      </trkpt>
      <trkpt lat="47.17744" lon="6.11922">
        <ele>496</ele>
        <time>2026-05-24T09:15:34Z</time>
      </trkpt>
      <trkpt lat="47.17751" lon="6.11918">
        <ele>495</ele>
        <time>2026-05-24T09:15:35Z</time>
      </trkpt>
      <trkpt lat="47.17757" lon="6.11914">
        <ele>493.8</ele>
        <time>2026-05-24T09:15:36Z</time>
      </trkpt>
      <trkpt lat="47.17762" lon="6.11911">
        <ele>492.6</ele>
        <time>2026-05-24T09:15:37Z</time>
      </trkpt>
      <trkpt lat="47.17766" lon="6.11906">
        <ele>491.8</ele>
        <time>2026-05-24T09:15:38Z</time>
      </trkpt>
      <trkpt lat="47.17767" lon="6.11899">
        <ele>490.8</ele>
        <time>2026-05-24T09:15:39Z</time>
      </trkpt>
      <trkpt lat="47.17767" lon="6.11892">
        <ele>489.8</ele>
        <time>2026-05-24T09:15:40Z</time>
      </trkpt>
      <trkpt lat="47.17766" lon="6.11883">
        <ele>489.2</ele>
        <time>2026-05-24T09:15:41Z</time>
      </trkpt>
      <trkpt lat="47.17764" lon="6.11874">
        <ele>489</ele>
        <time>2026-05-24T09:15:42Z</time>
      </trkpt>
      <trkpt lat="47.17762" lon="6.11865">
        <ele>489</ele>
        <time>2026-05-24T09:15:43Z</time>
      </trkpt>
      <trkpt lat="47.17758" lon="6.11856">
        <ele>488.8</ele>
        <time>2026-05-24T09:15:44Z</time>
      </trkpt>
      <trkpt lat="47.17754" lon="6.11846">
        <ele>488.6</ele>
        <time>2026-05-24T09:15:45Z</time>
      </trkpt>
      <trkpt lat="47.17749" lon="6.11837">
        <ele>488</ele>
        <time>2026-05-24T09:15:46Z</time>
      </trkpt>
      <trkpt lat="47.17744" lon="6.11827">
        <ele>487.8</ele>
        <time>2026-05-24T09:15:47Z</time>
      </trkpt>
      <trkpt lat="47.1774" lon="6.11817">
        <ele>487.2</ele>
        <time>2026-05-24T09:15:48Z</time>
      </trkpt>
      <trkpt lat="47.17735" lon="6.11805">
        <ele>486.8</ele>
        <time>2026-05-24T09:15:49Z</time>
      </trkpt>
      <trkpt lat="47.17732" lon="6.11792">
        <ele>486.2</ele>
        <time>2026-05-24T09:15:50Z</time>
      </trkpt>
      <trkpt lat="47.17729" lon="6.11779">
        <ele>485.4</ele>
        <time>2026-05-24T09:15:51Z</time>
      </trkpt>
      <trkpt lat="47.17726" lon="6.11765">
        <ele>485</ele>
        <time>2026-05-24T09:15:52Z</time>
      </trkpt>
      <trkpt lat="47.17723" lon="6.11751">
        <ele>484.4</ele>
        <time>2026-05-24T09:15:53Z</time>
      </trkpt>
      <trkpt lat="47.17721" lon="6.11736">
        <ele>483.6</ele>
        <time>2026-05-24T09:15:54Z</time>
      </trkpt>
      <trkpt lat="47.17718" lon="6.11721">
        <ele>482.8</ele>
        <time>2026-05-24T09:15:55Z</time>
      </trkpt>
      <trkpt lat="47.17716" lon="6.11707">
        <ele>482</ele>
        <time>2026-05-24T09:15:56Z</time>
      </trkpt>
      <trkpt lat="47.17713" lon="6.11692">
        <ele>481.2</ele>
        <time>2026-05-24T09:15:57Z</time>
      </trkpt>
      <trkpt lat="47.1771" lon="6.11677">
        <ele>480.2</ele>
        <time>2026-05-24T09:15:58Z</time>
      </trkpt>
      <trkpt lat="47.17707" lon="6.11661">
        <ele>479.8</ele>
        <time>2026-05-24T09:15:59Z</time>
      </trkpt>
      <trkpt lat="47.17704" lon="6.11645">
        <ele>479.4</ele>
        <time>2026-05-24T09:16:00Z</time>
      </trkpt>
      <trkpt lat="47.17701" lon="6.11629">
        <ele>479</ele>
        <time>2026-05-24T09:16:01Z</time>
      </trkpt>
      <trkpt lat="47.17699" lon="6.11613">
        <ele>478.4</ele>
        <time>2026-05-24T09:16:02Z</time>
      </trkpt>
      <trkpt lat="47.17696" lon="6.11596">
        <ele>477.6</ele>
        <time>2026-05-24T09:16:03Z</time>
      </trkpt>
      <trkpt lat="47.17694" lon="6.11578">
        <ele>476.6</ele>
        <time>2026-05-24T09:16:04Z</time>
      </trkpt>
      <trkpt lat="47.17693" lon="6.11561">
        <ele>476.6</ele>
        <time>2026-05-24T09:16:05Z</time>
      </trkpt>
      <trkpt lat="47.17691" lon="6.11544">
        <ele>476</ele>
        <time>2026-05-24T09:16:06Z</time>
      </trkpt>
      <trkpt lat="47.1769" lon="6.11526">
        <ele>475.4</ele>
        <time>2026-05-24T09:16:07Z</time>
      </trkpt>
      <trkpt lat="47.17689" lon="6.11508">
        <ele>474.6</ele>
        <time>2026-05-24T09:16:08Z</time>
      </trkpt>
      <trkpt lat="47.17689" lon="6.1149">
        <ele>474.4</ele>
        <time>2026-05-24T09:16:09Z</time>
      </trkpt>
      <trkpt lat="47.17689" lon="6.11473">
        <ele>473.4</ele>
        <time>2026-05-24T09:16:10Z</time>
      </trkpt>
      <trkpt lat="47.1769" lon="6.11457">
        <ele>472.4</ele>
        <time>2026-05-24T09:16:11Z</time>
      </trkpt>
      <trkpt lat="47.17692" lon="6.11443">
        <ele>471.8</ele>
        <time>2026-05-24T09:16:12Z</time>
      </trkpt>
      <trkpt lat="47.17696" lon="6.11429">
        <ele>470.8</ele>
        <time>2026-05-24T09:16:13Z</time>
      </trkpt>
      <trkpt lat="47.17701" lon="6.11415">
        <ele>469.6</ele>
        <time>2026-05-24T09:16:14Z</time>
      </trkpt>
      <trkpt lat="47.17706" lon="6.11401">
        <ele>468.8</ele>
        <time>2026-05-24T09:16:15Z</time>
      </trkpt>
      <trkpt lat="47.17711" lon="6.11387">
        <ele>468</ele>
        <time>2026-05-24T09:16:16Z</time>
      </trkpt>
      <trkpt lat="47.17715" lon="6.11373">
        <ele>467.2</ele>
        <time>2026-05-24T09:16:17Z</time>
      </trkpt>
      <trkpt lat="47.17719" lon="6.11358">
        <ele>465.8</ele>
        <time>2026-05-24T09:16:18Z</time>
      </trkpt>
      <trkpt lat="47.17723" lon="6.11344">
        <ele>464.4</ele>
        <time>2026-05-24T09:16:19Z</time>
      </trkpt>
      <trkpt lat="47.17727" lon="6.11329">
        <ele>463.2</ele>
        <time>2026-05-24T09:16:20Z</time>
      </trkpt>
      <trkpt lat="47.17729" lon="6.11313">
        <ele>462</ele>
        <time>2026-05-24T09:16:21Z</time>
      </trkpt>
      <trkpt lat="47.1773" lon="6.11297">
        <ele>461.2</ele>
        <time>2026-05-24T09:16:22Z</time>
      </trkpt>
      <trkpt lat="47.1773" lon="6.11282">
        <ele>460.8</ele>
        <time>2026-05-24T09:16:23Z</time>
      </trkpt>
      <trkpt lat="47.1773" lon="6.11266">
        <ele>460.4</ele>
        <time>2026-05-24T09:16:24Z</time>
      </trkpt>
      <trkpt lat="47.17732" lon="6.11251">
        <ele>460.2</ele>
        <time>2026-05-24T09:16:25Z</time>
      </trkpt>
      <trkpt lat="47.17734" lon="6.11236">
        <ele>459.6</ele>
        <time>2026-05-24T09:16:26Z</time>
      </trkpt>
      <trkpt lat="47.17736" lon="6.11221">
        <ele>459.6</ele>
        <time>2026-05-24T09:16:27Z</time>
      </trkpt>
      <trkpt lat="47.17738" lon="6.11207">
        <ele>458.6</ele>
        <time>2026-05-24T09:16:28Z</time>
      </trkpt>
      <trkpt lat="47.1774" lon="6.11194">
        <ele>457.8</ele>
        <time>2026-05-24T09:16:29Z</time>
      </trkpt>
      <trkpt lat="47.17742" lon="6.11182">
        <ele>457</ele>
        <time>2026-05-24T09:16:30Z</time>
      </trkpt>
      <trkpt lat="47.17744" lon="6.11172">
        <ele>456.2</ele>
        <time>2026-05-24T09:16:31Z</time>
      </trkpt>
      <trkpt lat="47.17745" lon="6.11165">
        <ele>455.2</ele>
        <time>2026-05-24T09:16:32Z</time>
      </trkpt>
      <trkpt lat="47.17746" lon="6.11162">
        <ele>454.4</ele>
        <time>2026-05-24T09:16:33Z</time>
      </trkpt>
      <trkpt lat="47.17747" lon="6.1116">
        <ele>453.8</ele>
        <time>2026-05-24T09:16:34Z</time>
      </trkpt>
      <trkpt lat="47.17747" lon="6.11158">
        <ele>453.2</ele>
        <time>2026-05-24T09:16:35Z</time>
      </trkpt>
      <trkpt lat="47.17748" lon="6.11158">
        <ele>452.8</ele>
        <time>2026-05-24T09:16:36Z</time>
      </trkpt>
      <trkpt lat="47.17747" lon="6.11158">
        <ele>453</ele>
        <time>2026-05-24T09:16:37Z</time>
      </trkpt>
      <trkpt lat="47.17747" lon="6.11158">
        <ele>452.6</ele>
        <time>2026-05-24T09:16:38Z</time>
      </trkpt>
      <trkpt lat="47.1775" lon="6.11149">
        <ele>452.8</ele>
        <time>2026-05-24T09:16:52Z</time>
      </trkpt>
      <trkpt lat="47.1775" lon="6.11144">
        <ele>452.8</ele>
        <time>2026-05-24T09:16:53Z</time>
      </trkpt>
      <trkpt lat="47.1775" lon="6.11139">
        <ele>452.6</ele>
        <time>2026-05-24T09:16:54Z</time>
      </trkpt>
      <trkpt lat="47.17751" lon="6.11133">
        <ele>452.8</ele>
        <time>2026-05-24T09:16:55Z</time>
      </trkpt>
      <trkpt lat="47.17752" lon="6.11127">
        <ele>452.8</ele>
        <time>2026-05-24T09:16:56Z</time>
      </trkpt>
      <trkpt lat="47.17753" lon="6.11119">
        <ele>452.8</ele>
        <time>2026-05-24T09:16:57Z</time>
      </trkpt>
      <trkpt lat="47.17754" lon="6.11112">
        <ele>452.8</ele>
        <time>2026-05-24T09:16:58Z</time>
      </trkpt>
      <trkpt lat="47.17756" lon="6.11104">
        <ele>452.8</ele>
        <time>2026-05-24T09:16:59Z</time>
      </trkpt>
      <trkpt lat="47.17757" lon="6.11096">
        <ele>452.6</ele>
        <time>2026-05-24T09:17:00Z</time>
      </trkpt>
      <trkpt lat="47.17758" lon="6.11089">
        <ele>452.8</ele>
        <time>2026-05-24T09:17:01Z</time>
      </trkpt>
      <trkpt lat="47.17759" lon="6.11081">
        <ele>452.6</ele>
        <time>2026-05-24T09:17:02Z</time>
      </trkpt>
      <trkpt lat="47.17761" lon="6.11074">
        <ele>452.6</ele>
        <time>2026-05-24T09:17:03Z</time>
      </trkpt>
      <trkpt lat="47.17762" lon="6.11067">
        <ele>452.4</ele>
        <time>2026-05-24T09:17:04Z</time>
      </trkpt>
      <trkpt lat="47.17764" lon="6.11059">
        <ele>452.4</ele>
        <time>2026-05-24T09:17:05Z</time>
      </trkpt>
      <trkpt lat="47.17765" lon="6.11051">
        <ele>452.2</ele>
        <time>2026-05-24T09:17:06Z</time>
      </trkpt>
      <trkpt lat="47.17765" lon="6.11044">
        <ele>451.8</ele>
        <time>2026-05-24T09:17:07Z</time>
      </trkpt>
      <trkpt lat="47.17767" lon="6.11035">
        <ele>451.6</ele>
        <time>2026-05-24T09:17:08Z</time>
      </trkpt>
      <trkpt lat="47.17767" lon="6.11027">
        <ele>451.4</ele>
        <time>2026-05-24T09:17:09Z</time>
      </trkpt>
      <trkpt lat="47.17768" lon="6.11018">
        <ele>451.2</ele>
        <time>2026-05-24T09:17:10Z</time>
      </trkpt>
      <trkpt lat="47.17769" lon="6.11009">
        <ele>451.2</ele>
        <time>2026-05-24T09:17:11Z</time>
      </trkpt>
      <trkpt lat="47.17769" lon="6.11">
        <ele>451</ele>
        <time>2026-05-24T09:17:12Z</time>
      </trkpt>
      <trkpt lat="47.17769" lon="6.10991">
        <ele>451</ele>
        <time>2026-05-24T09:17:13Z</time>
      </trkpt>
      <trkpt lat="47.17769" lon="6.10982">
        <ele>451</ele>
        <time>2026-05-24T09:17:14Z</time>
      </trkpt>
      <trkpt lat="47.1777" lon="6.10973">
        <ele>451</ele>
        <time>2026-05-24T09:17:15Z</time>
      </trkpt>
      <trkpt lat="47.1777" lon="6.10964">
        <ele>450.8</ele>
        <time>2026-05-24T09:17:16Z</time>
      </trkpt>
      <trkpt lat="47.1777" lon="6.10955">
        <ele>451</ele>
        <time>2026-05-24T09:17:17Z</time>
      </trkpt>
      <trkpt lat="47.1777" lon="6.10946">
        <ele>450.8</ele>
        <time>2026-05-24T09:17:18Z</time>
      </trkpt>
      <trkpt lat="47.17771" lon="6.10936">
        <ele>450.8</ele>
        <time>2026-05-24T09:17:19Z</time>
      </trkpt>
      <trkpt lat="47.17771" lon="6.10925">
        <ele>450.8</ele>
        <time>2026-05-24T09:17:20Z</time>
      </trkpt>
      <trkpt lat="47.17772" lon="6.10914">
        <ele>450.8</ele>
        <time>2026-05-24T09:17:21Z</time>
      </trkpt>
      <trkpt lat="47.17772" lon="6.10904">
        <ele>450.6</ele>
        <time>2026-05-24T09:17:22Z</time>
      </trkpt>
      <trkpt lat="47.17773" lon="6.10893">
        <ele>450.6</ele>
        <time>2026-05-24T09:17:23Z</time>
      </trkpt>
      <trkpt lat="47.17772" lon="6.10882">
        <ele>450.8</ele>
        <time>2026-05-24T09:17:24Z</time>
      </trkpt>
      <trkpt lat="47.17772" lon="6.10871">
        <ele>450.4</ele>
        <time>2026-05-24T09:17:25Z</time>
      </trkpt>
      <trkpt lat="47.17772" lon="6.1086">
        <ele>450.8</ele>
        <time>2026-05-24T09:17:26Z</time>
      </trkpt>
      <trkpt lat="47.17772" lon="6.10849">
        <ele>450.4</ele>
        <time>2026-05-24T09:17:27Z</time>
      </trkpt>
      <trkpt lat="47.17772" lon="6.10838">
        <ele>450.4</ele>
        <time>2026-05-24T09:17:28Z</time>
      </trkpt>
      <trkpt lat="47.17773" lon="6.10826">
        <ele>450</ele>
        <time>2026-05-24T09:17:29Z</time>
      </trkpt>
      <trkpt lat="47.17774" lon="6.10815">
        <ele>449.8</ele>
        <time>2026-05-24T09:17:30Z</time>
      </trkpt>
      <trkpt lat="47.17774" lon="6.10803">
        <ele>449.8</ele>
        <time>2026-05-24T09:17:31Z</time>
      </trkpt>
      <trkpt lat="47.17775" lon="6.10792">
        <ele>449.8</ele>
        <time>2026-05-24T09:17:32Z</time>
      </trkpt>
      <trkpt lat="47.17775" lon="6.10781">
        <ele>449.6</ele>
        <time>2026-05-24T09:17:33Z</time>
      </trkpt>
      <trkpt lat="47.17777" lon="6.10771">
        <ele>449.2</ele>
        <time>2026-05-24T09:17:34Z</time>
      </trkpt>
      <trkpt lat="47.17779" lon="6.10762">
        <ele>449.2</ele>
        <time>2026-05-24T09:17:35Z</time>
      </trkpt>
      <trkpt lat="47.17781" lon="6.10754">
        <ele>449</ele>
        <time>2026-05-24T09:17:36Z</time>
      </trkpt>
      <trkpt lat="47.17784" lon="6.10748">
        <ele>448.8</ele>
        <time>2026-05-24T09:17:37Z</time>
      </trkpt>
      <trkpt lat="47.17785" lon="6.10742">
        <ele>449</ele>
        <time>2026-05-24T09:17:38Z</time>
      </trkpt>
      <trkpt lat="47.17787" lon="6.10736">
        <ele>449</ele>
        <time>2026-05-24T09:17:39Z</time>
      </trkpt>
      <trkpt lat="47.1779" lon="6.10728">
        <ele>448.8</ele>
        <time>2026-05-24T09:17:40Z</time>
      </trkpt>
      <trkpt lat="47.17792" lon="6.1072">
        <ele>448.8</ele>
        <time>2026-05-24T09:17:41Z</time>
      </trkpt>
      <trkpt lat="47.17795" lon="6.10712">
        <ele>448.8</ele>
        <time>2026-05-24T09:17:42Z</time>
      </trkpt>
      <trkpt lat="47.17798" lon="6.10703">
        <ele>448.8</ele>
        <time>2026-05-24T09:17:43Z</time>
      </trkpt>
      <trkpt lat="47.17801" lon="6.10694">
        <ele>448.6</ele>
        <time>2026-05-24T09:17:44Z</time>
      </trkpt>
      <trkpt lat="47.17804" lon="6.10686">
        <ele>448.6</ele>
        <time>2026-05-24T09:17:45Z</time>
      </trkpt>
      <trkpt lat="47.17808" lon="6.10677">
        <ele>448.6</ele>
        <time>2026-05-24T09:17:46Z</time>
      </trkpt>
      <trkpt lat="47.17811" lon="6.10668">
        <ele>448.4</ele>
        <time>2026-05-24T09:17:47Z</time>
      </trkpt>
      <trkpt lat="47.17815" lon="6.1066">
        <ele>448.6</ele>
        <time>2026-05-24T09:17:48Z</time>
      </trkpt>
      <trkpt lat="47.17818" lon="6.10652">
        <ele>448.6</ele>
        <time>2026-05-24T09:17:49Z</time>
      </trkpt>
      <trkpt lat="47.17821" lon="6.10645">
        <ele>448.6</ele>
        <time>2026-05-24T09:17:50Z</time>
      </trkpt>
      <trkpt lat="47.17824" lon="6.10638">
        <ele>448.6</ele>
        <time>2026-05-24T09:17:51Z</time>
      </trkpt>
      <trkpt lat="47.17827" lon="6.10631">
        <ele>448.8</ele>
        <time>2026-05-24T09:17:52Z</time>
      </trkpt>
      <trkpt lat="47.1783" lon="6.10625">
        <ele>448.8</ele>
        <time>2026-05-24T09:17:53Z</time>
      </trkpt>
      <trkpt lat="47.17833" lon="6.1062">
        <ele>448.8</ele>
        <time>2026-05-24T09:17:54Z</time>
      </trkpt>
      <trkpt lat="47.17837" lon="6.10614">
        <ele>449</ele>
        <time>2026-05-24T09:17:55Z</time>
      </trkpt>
      <trkpt lat="47.17839" lon="6.10608">
        <ele>449.2</ele>
        <time>2026-05-24T09:17:56Z</time>
      </trkpt>
      <trkpt lat="47.17842" lon="6.10603">
        <ele>449.2</ele>
        <time>2026-05-24T09:17:57Z</time>
      </trkpt>
      <trkpt lat="47.17845" lon="6.10598">
        <ele>449.2</ele>
        <time>2026-05-24T09:17:58Z</time>
      </trkpt>
      <trkpt lat="47.17847" lon="6.10592">
        <ele>449.2</ele>
        <time>2026-05-24T09:17:59Z</time>
      </trkpt>
      <trkpt lat="47.17848" lon="6.10587">
        <ele>449.4</ele>
        <time>2026-05-24T09:18:00Z</time>
      </trkpt>
      <trkpt lat="47.17848" lon="6.10582">
        <ele>449.4</ele>
        <time>2026-05-24T09:18:01Z</time>
      </trkpt>
      <trkpt lat="47.17848" lon="6.1058">
        <ele>449.6</ele>
        <time>2026-05-24T09:18:02Z</time>
      </trkpt>
      <trkpt lat="47.17847" lon="6.10577">
        <ele>449.8</ele>
        <time>2026-05-24T09:18:03Z</time>
      </trkpt>
      <trkpt lat="47.17846" lon="6.10575">
        <ele>449.8</ele>
        <time>2026-05-24T09:18:04Z</time>
      </trkpt>
      <trkpt lat="47.17846" lon="6.10572">
        <ele>449.8</ele>
        <time>2026-05-24T09:18:05Z</time>
      </trkpt>
      <trkpt lat="47.17845" lon="6.10569">
        <ele>450.2</ele>
        <time>2026-05-24T09:18:06Z</time>
      </trkpt>
      <trkpt lat="47.17845" lon="6.10565">
        <ele>450.4</ele>
        <time>2026-05-24T09:18:07Z</time>
      </trkpt>
      <trkpt lat="47.17845" lon="6.10561">
        <ele>450.6</ele>
        <time>2026-05-24T09:18:08Z</time>
      </trkpt>
      <trkpt lat="47.17845" lon="6.10558">
        <ele>450.8</ele>
        <time>2026-05-24T09:18:09Z</time>
      </trkpt>
      <trkpt lat="47.17846" lon="6.10553">
        <ele>451.2</ele>
        <time>2026-05-24T09:18:10Z</time>
      </trkpt>
      <trkpt lat="47.17847" lon="6.1055">
        <ele>451.4</ele>
        <time>2026-05-24T09:18:11Z</time>
      </trkpt>
      <trkpt lat="47.17848" lon="6.10547">
        <ele>451.4</ele>
        <time>2026-05-24T09:18:12Z</time>
      </trkpt>
      <trkpt lat="47.17849" lon="6.10543">
        <ele>451.8</ele>
        <time>2026-05-24T09:18:13Z</time>
      </trkpt>
      <trkpt lat="47.1785" lon="6.1054">
        <ele>451.8</ele>
        <time>2026-05-24T09:18:14Z</time>
      </trkpt>
      <trkpt lat="47.17851" lon="6.10537">
        <ele>452</ele>
        <time>2026-05-24T09:18:15Z</time>
      </trkpt>
      <trkpt lat="47.17852" lon="6.10534">
        <ele>451.8</ele>
        <time>2026-05-24T09:18:16Z</time>
      </trkpt>
      <trkpt lat="47.17853" lon="6.10531">
        <ele>452.2</ele>
        <time>2026-05-24T09:18:17Z</time>
      </trkpt>
      <trkpt lat="47.17854" lon="6.10529">
        <ele>452.4</ele>
        <time>2026-05-24T09:18:18Z</time>
      </trkpt>
      <trkpt lat="47.17855" lon="6.10526">
        <ele>452.4</ele>
        <time>2026-05-24T09:18:19Z</time>
      </trkpt>
      <trkpt lat="47.17855" lon="6.10522">
        <ele>452.4</ele>
        <time>2026-05-24T09:18:20Z</time>
      </trkpt>
      <trkpt lat="47.17856" lon="6.10519">
        <ele>452.8</ele>
        <time>2026-05-24T09:18:21Z</time>
      </trkpt>
      <trkpt lat="47.17857" lon="6.10517">
        <ele>453</ele>
        <time>2026-05-24T09:18:22Z</time>
      </trkpt>
      <trkpt lat="47.17857" lon="6.10515">
        <ele>453</ele>
        <time>2026-05-24T09:18:23Z</time>
      </trkpt>
      <trkpt lat="47.17857" lon="6.10514">
        <ele>453</ele>
        <time>2026-05-24T09:18:24Z</time>
      </trkpt>
      <trkpt lat="47.17858" lon="6.10514">
        <ele>453.4</ele>
        <time>2026-05-24T09:18:25Z</time>
      </trkpt>
      <trkpt lat="47.17857" lon="6.10514">
        <ele>453.6</ele>
        <time>2026-05-24T09:18:26Z</time>
      </trkpt>
      <trkpt lat="47.17859" lon="6.10516">
        <ele>453.8</ele>
        <time>2026-05-24T09:18:28Z</time>
      </trkpt>
      <trkpt lat="47.17859" lon="6.10516">
        <ele>454</ele>
        <time>2026-05-24T09:18:29Z</time>
      </trkpt>
      <trkpt lat="47.17858" lon="6.10516">
        <ele>454.2</ele>
        <time>2026-05-24T09:18:30Z</time>
      </trkpt>
      <trkpt lat="47.17858" lon="6.10516">
        <ele>454.2</ele>
        <time>2026-05-24T09:18:31Z</time>
      </trkpt>
      <trkpt lat="47.17858" lon="6.10516">
        <ele>454.2</ele>
        <time>2026-05-24T09:18:32Z</time>
      </trkpt>
      <trkpt lat="47.17859" lon="6.10516">
        <ele>454.4</ele>
        <time>2026-05-24T09:18:33Z</time>
      </trkpt>
      <trkpt lat="47.17859" lon="6.10516">
        <ele>454.4</ele>
        <time>2026-05-24T09:18:34Z</time>
      </trkpt>
      <trkpt lat="47.17859" lon="6.10515">
        <ele>454.4</ele>
        <time>2026-05-24T09:18:35Z</time>
      </trkpt>
      <trkpt lat="47.17859" lon="6.10514">
        <ele>454.4</ele>
        <time>2026-05-24T09:18:36Z</time>
      </trkpt>
      <trkpt lat="47.17856" lon="6.10513">
        <ele>454.4</ele>
        <time>2026-05-24T09:21:48Z</time>
      </trkpt>
      <trkpt lat="47.17857" lon="6.10514">
        <ele>454.4</ele>
        <time>2026-05-24T09:21:49Z</time>
      </trkpt>
      <trkpt lat="47.17857" lon="6.10514">
        <ele>454.4</ele>
        <time>2026-05-24T09:21:50Z</time>
      </trkpt>
      <trkpt lat="47.17857" lon="6.10514">
        <ele>454.4</ele>
        <time>2026-05-24T09:21:51Z</time>
      </trkpt>
      <trkpt lat="47.17857" lon="6.10513">
        <ele>454.4</ele>
        <time>2026-05-24T09:21:52Z</time>
      </trkpt>
      <trkpt lat="47.17857" lon="6.10513">
        <ele>454.4</ele>
        <time>2026-05-24T09:21:53Z</time>
      </trkpt>
      <trkpt lat="47.17864" lon="6.10472">
        <ele>453.6</ele>
        <time>2026-05-24T09:27:58Z</time>
      </trkpt>
      <trkpt lat="47.17866" lon="6.10469">
        <ele>453.6</ele>
        <time>2026-05-24T09:27:59Z</time>
      </trkpt>
      <trkpt lat="47.17868" lon="6.10464">
        <ele>453.6</ele>
        <time>2026-05-24T09:28:00Z</time>
      </trkpt>
      <trkpt lat="47.17871" lon="6.1046">
        <ele>453.6</ele>
        <time>2026-05-24T09:28:01Z</time>
      </trkpt>
      <trkpt lat="47.17874" lon="6.10455">
        <ele>453.4</ele>
        <time>2026-05-24T09:28:02Z</time>
      </trkpt>
      <trkpt lat="47.17877" lon="6.10449">
        <ele>453.4</ele>
        <time>2026-05-24T09:28:03Z</time>
      </trkpt>
      <trkpt lat="47.1788" lon="6.10444">
        <ele>453.4</ele>
        <time>2026-05-24T09:28:04Z</time>
      </trkpt>
      <trkpt lat="47.17883" lon="6.10438">
        <ele>453.4</ele>
        <time>2026-05-24T09:28:05Z</time>
      </trkpt>
      <trkpt lat="47.17885" lon="6.10432">
        <ele>453.2</ele>
        <time>2026-05-24T09:28:06Z</time>
      </trkpt>
      <trkpt lat="47.17888" lon="6.10426">
        <ele>453.2</ele>
        <time>2026-05-24T09:28:07Z</time>
      </trkpt>
      <trkpt lat="47.17891" lon="6.1042">
        <ele>453.2</ele>
        <time>2026-05-24T09:28:08Z</time>
      </trkpt>
      <trkpt lat="47.17893" lon="6.10415">
        <ele>453</ele>
        <time>2026-05-24T09:28:09Z</time>
      </trkpt>
      <trkpt lat="47.17895" lon="6.1041">
        <ele>453</ele>
        <time>2026-05-24T09:28:10Z</time>
      </trkpt>
      <trkpt lat="47.17898" lon="6.10405">
        <ele>453</ele>
        <time>2026-05-24T09:28:11Z</time>
      </trkpt>
      <trkpt lat="47.179" lon="6.10399">
        <ele>452.8</ele>
        <time>2026-05-24T09:28:12Z</time>
      </trkpt>
      <trkpt lat="47.17903" lon="6.10394">
        <ele>453</ele>
        <time>2026-05-24T09:28:13Z</time>
      </trkpt>
      <trkpt lat="47.17906" lon="6.10388">
        <ele>453</ele>
        <time>2026-05-24T09:28:14Z</time>
      </trkpt>
      <trkpt lat="47.17909" lon="6.10381">
        <ele>452.8</ele>
        <time>2026-05-24T09:28:15Z</time>
      </trkpt>
      <trkpt lat="47.17912" lon="6.10375">
        <ele>452.8</ele>
        <time>2026-05-24T09:28:16Z</time>
      </trkpt>
      <trkpt lat="47.17915" lon="6.10368">
        <ele>452.8</ele>
        <time>2026-05-24T09:28:17Z</time>
      </trkpt>
      <trkpt lat="47.17919" lon="6.10362">
        <ele>452.6</ele>
        <time>2026-05-24T09:28:18Z</time>
      </trkpt>
      <trkpt lat="47.17922" lon="6.10356">
        <ele>452.6</ele>
        <time>2026-05-24T09:28:19Z</time>
      </trkpt>
      <trkpt lat="47.17925" lon="6.10349">
        <ele>452.6</ele>
        <time>2026-05-24T09:28:20Z</time>
      </trkpt>
      <trkpt lat="47.17928" lon="6.10343">
        <ele>452.6</ele>
        <time>2026-05-24T09:28:21Z</time>
      </trkpt>
      <trkpt lat="47.17931" lon="6.10336">
        <ele>452.6</ele>
        <time>2026-05-24T09:28:22Z</time>
      </trkpt>
      <trkpt lat="47.17934" lon="6.10328">
        <ele>452.6</ele>
        <time>2026-05-24T09:28:23Z</time>
      </trkpt>
      <trkpt lat="47.17937" lon="6.1032">
        <ele>452.4</ele>
        <time>2026-05-24T09:28:24Z</time>
      </trkpt>
      <trkpt lat="47.17939" lon="6.10312">
        <ele>452.4</ele>
        <time>2026-05-24T09:28:25Z</time>
      </trkpt>
      <trkpt lat="47.17941" lon="6.10304">
        <ele>452.6</ele>
        <time>2026-05-24T09:28:26Z</time>
      </trkpt>
      <trkpt lat="47.17944" lon="6.10297">
        <ele>452.6</ele>
        <time>2026-05-24T09:28:27Z</time>
      </trkpt>
      <trkpt lat="47.17947" lon="6.10289">
        <ele>452.4</ele>
        <time>2026-05-24T09:28:28Z</time>
      </trkpt>
      <trkpt lat="47.1795" lon="6.10283">
        <ele>452.2</ele>
        <time>2026-05-24T09:28:29Z</time>
      </trkpt>
      <trkpt lat="47.17953" lon="6.10277">
        <ele>452</ele>
        <time>2026-05-24T09:28:30Z</time>
      </trkpt>
      <trkpt lat="47.17955" lon="6.10272">
        <ele>451.8</ele>
        <time>2026-05-24T09:28:31Z</time>
      </trkpt>
      <trkpt lat="47.17959" lon="6.10267">
        <ele>451.8</ele>
        <time>2026-05-24T09:28:32Z</time>
      </trkpt>
      <trkpt lat="47.17962" lon="6.10263">
        <ele>451.8</ele>
        <time>2026-05-24T09:28:33Z</time>
      </trkpt>
      <trkpt lat="47.17965" lon="6.10258">
        <ele>451.8</ele>
        <time>2026-05-24T09:28:34Z</time>
      </trkpt>
      <trkpt lat="47.17968" lon="6.10254">
        <ele>451.8</ele>
        <time>2026-05-24T09:28:35Z</time>
      </trkpt>
      <trkpt lat="47.1797" lon="6.10251">
        <ele>451.8</ele>
        <time>2026-05-24T09:28:36Z</time>
      </trkpt>
      <trkpt lat="47.17973" lon="6.10248">
        <ele>451.6</ele>
        <time>2026-05-24T09:28:37Z</time>
      </trkpt>
      <trkpt lat="47.17977" lon="6.10245">
        <ele>451.8</ele>
        <time>2026-05-24T09:28:38Z</time>
      </trkpt>
      <trkpt lat="47.17981" lon="6.10241">
        <ele>451.8</ele>
        <time>2026-05-24T09:28:39Z</time>
      </trkpt>
      <trkpt lat="47.17984" lon="6.10237">
        <ele>452</ele>
        <time>2026-05-24T09:28:40Z</time>
      </trkpt>
      <trkpt lat="47.17988" lon="6.10234">
        <ele>452.4</ele>
        <time>2026-05-24T09:28:41Z</time>
      </trkpt>
      <trkpt lat="47.17992" lon="6.10231">
        <ele>453</ele>
        <time>2026-05-24T09:28:42Z</time>
      </trkpt>
      <trkpt lat="47.17996" lon="6.10229">
        <ele>453.4</ele>
        <time>2026-05-24T09:28:43Z</time>
      </trkpt>
      <trkpt lat="47.18" lon="6.10226">
        <ele>453.8</ele>
        <time>2026-05-24T09:28:44Z</time>
      </trkpt>
      <trkpt lat="47.18004" lon="6.10222">
        <ele>453.8</ele>
        <time>2026-05-24T09:28:45Z</time>
      </trkpt>
      <trkpt lat="47.18008" lon="6.10219">
        <ele>454.2</ele>
        <time>2026-05-24T09:28:46Z</time>
      </trkpt>
      <trkpt lat="47.1801" lon="6.10216">
        <ele>454.4</ele>
        <time>2026-05-24T09:28:47Z</time>
      </trkpt>
      <trkpt lat="47.18013" lon="6.10213">
        <ele>454.8</ele>
        <time>2026-05-24T09:28:48Z</time>
      </trkpt>
      <trkpt lat="47.18016" lon="6.1021">
        <ele>455.2</ele>
        <time>2026-05-24T09:28:49Z</time>
      </trkpt>
      <trkpt lat="47.18019" lon="6.10208">
        <ele>455.8</ele>
        <time>2026-05-24T09:28:50Z</time>
      </trkpt>
      <trkpt lat="47.18023" lon="6.10206">
        <ele>456</ele>
        <time>2026-05-24T09:28:51Z</time>
      </trkpt>
      <trkpt lat="47.18026" lon="6.10203">
        <ele>456.4</ele>
        <time>2026-05-24T09:28:52Z</time>
      </trkpt>
      <trkpt lat="47.1803" lon="6.10199">
        <ele>456.6</ele>
        <time>2026-05-24T09:28:53Z</time>
      </trkpt>
      <trkpt lat="47.18033" lon="6.10194">
        <ele>456.8</ele>
        <time>2026-05-24T09:28:54Z</time>
      </trkpt>
      <trkpt lat="47.18037" lon="6.1019">
        <ele>457</ele>
        <time>2026-05-24T09:28:55Z</time>
      </trkpt>
      <trkpt lat="47.18041" lon="6.10187">
        <ele>456.8</ele>
        <time>2026-05-24T09:28:56Z</time>
      </trkpt>
      <trkpt lat="47.18045" lon="6.10184">
        <ele>457</ele>
        <time>2026-05-24T09:28:57Z</time>
      </trkpt>
      <trkpt lat="47.18049" lon="6.10181">
        <ele>457</ele>
        <time>2026-05-24T09:28:58Z</time>
      </trkpt>
      <trkpt lat="47.18052" lon="6.10177">
        <ele>457</ele>
        <time>2026-05-24T09:28:59Z</time>
      </trkpt>
      <trkpt lat="47.18055" lon="6.10173">
        <ele>457</ele>
        <time>2026-05-24T09:29:00Z</time>
      </trkpt>
      <trkpt lat="47.18058" lon="6.10168">
        <ele>457</ele>
        <time>2026-05-24T09:29:01Z</time>
      </trkpt>
      <trkpt lat="47.18061" lon="6.10164">
        <ele>457</ele>
        <time>2026-05-24T09:29:02Z</time>
      </trkpt>
      <trkpt lat="47.18064" lon="6.1016">
        <ele>457.2</ele>
        <time>2026-05-24T09:29:03Z</time>
      </trkpt>
      <trkpt lat="47.18066" lon="6.10155">
        <ele>457.4</ele>
        <time>2026-05-24T09:29:04Z</time>
      </trkpt>
      <trkpt lat="47.18069" lon="6.1015">
        <ele>457.4</ele>
        <time>2026-05-24T09:29:05Z</time>
      </trkpt>
      <trkpt lat="47.18071" lon="6.10146">
        <ele>457.6</ele>
        <time>2026-05-24T09:29:06Z</time>
      </trkpt>
      <trkpt lat="47.18073" lon="6.1014">
        <ele>457.6</ele>
        <time>2026-05-24T09:29:07Z</time>
      </trkpt>
      <trkpt lat="47.18075" lon="6.10135">
        <ele>457.8</ele>
        <time>2026-05-24T09:29:08Z</time>
      </trkpt>
      <trkpt lat="47.18077" lon="6.10131">
        <ele>458</ele>
        <time>2026-05-24T09:29:09Z</time>
      </trkpt>
      <trkpt lat="47.18078" lon="6.10126">
        <ele>458.2</ele>
        <time>2026-05-24T09:29:10Z</time>
      </trkpt>
      <trkpt lat="47.1808" lon="6.10121">
        <ele>458.4</ele>
        <time>2026-05-24T09:29:11Z</time>
      </trkpt>
      <trkpt lat="47.18081" lon="6.10116">
        <ele>458.6</ele>
        <time>2026-05-24T09:29:12Z</time>
      </trkpt>
      <trkpt lat="47.18081" lon="6.10111">
        <ele>459</ele>
        <time>2026-05-24T09:29:13Z</time>
      </trkpt>
      <trkpt lat="47.1808" lon="6.10106">
        <ele>459.4</ele>
        <time>2026-05-24T09:29:14Z</time>
      </trkpt>
      <trkpt lat="47.18079" lon="6.101">
        <ele>459.6</ele>
        <time>2026-05-24T09:29:15Z</time>
      </trkpt>
      <trkpt lat="47.18077" lon="6.10095">
        <ele>459.8</ele>
        <time>2026-05-24T09:29:16Z</time>
      </trkpt>
      <trkpt lat="47.18076" lon="6.1009">
        <ele>460</ele>
        <time>2026-05-24T09:29:17Z</time>
      </trkpt>
      <trkpt lat="47.18076" lon="6.10086">
        <ele>460.2</ele>
        <time>2026-05-24T09:29:18Z</time>
      </trkpt>
      <trkpt lat="47.18075" lon="6.10083">
        <ele>460.6</ele>
        <time>2026-05-24T09:29:19Z</time>
      </trkpt>
      <trkpt lat="47.18073" lon="6.1008">
        <ele>460.8</ele>
        <time>2026-05-24T09:29:20Z</time>
      </trkpt>
      <trkpt lat="47.18071" lon="6.10077">
        <ele>461.2</ele>
        <time>2026-05-24T09:29:21Z</time>
      </trkpt>
      <trkpt lat="47.18069" lon="6.10074">
        <ele>461.4</ele>
        <time>2026-05-24T09:29:22Z</time>
      </trkpt>
      <trkpt lat="47.18066" lon="6.10072">
        <ele>461.4</ele>
        <time>2026-05-24T09:29:23Z</time>
      </trkpt>
      <trkpt lat="47.18064" lon="6.10068">
        <ele>461.6</ele>
        <time>2026-05-24T09:29:24Z</time>
      </trkpt>
      <trkpt lat="47.18063" lon="6.10064">
        <ele>461.6</ele>
        <time>2026-05-24T09:29:25Z</time>
      </trkpt>
      <trkpt lat="47.18061" lon="6.1006">
        <ele>461.8</ele>
        <time>2026-05-24T09:29:26Z</time>
      </trkpt>
      <trkpt lat="47.18059" lon="6.10054">
        <ele>461.6</ele>
        <time>2026-05-24T09:29:27Z</time>
      </trkpt>
      <trkpt lat="47.18057" lon="6.10049">
        <ele>461.8</ele>
        <time>2026-05-24T09:29:28Z</time>
      </trkpt>
      <trkpt lat="47.18055" lon="6.10043">
        <ele>461.8</ele>
        <time>2026-05-24T09:29:29Z</time>
      </trkpt>
      <trkpt lat="47.18054" lon="6.10037">
        <ele>461.6</ele>
        <time>2026-05-24T09:29:30Z</time>
      </trkpt>
      <trkpt lat="47.18053" lon="6.10031">
        <ele>461.8</ele>
        <time>2026-05-24T09:29:31Z</time>
      </trkpt>
      <trkpt lat="47.18054" lon="6.10025">
        <ele>461.8</ele>
        <time>2026-05-24T09:29:32Z</time>
      </trkpt>
      <trkpt lat="47.18055" lon="6.10019">
        <ele>461.8</ele>
        <time>2026-05-24T09:29:33Z</time>
      </trkpt>
      <trkpt lat="47.18057" lon="6.10013">
        <ele>461.8</ele>
        <time>2026-05-24T09:29:34Z</time>
      </trkpt>
      <trkpt lat="47.1806" lon="6.10008">
        <ele>461.8</ele>
        <time>2026-05-24T09:29:35Z</time>
      </trkpt>
      <trkpt lat="47.18063" lon="6.10003">
        <ele>461.8</ele>
        <time>2026-05-24T09:29:36Z</time>
      </trkpt>
      <trkpt lat="47.18068" lon="6.09997">
        <ele>461.8</ele>
        <time>2026-05-24T09:29:37Z</time>
      </trkpt>
      <trkpt lat="47.18072" lon="6.09993">
        <ele>462</ele>
        <time>2026-05-24T09:29:38Z</time>
      </trkpt>
      <trkpt lat="47.18076" lon="6.0999">
        <ele>461.8</ele>
        <time>2026-05-24T09:29:39Z</time>
      </trkpt>
      <trkpt lat="47.18079" lon="6.09989">
        <ele>461.8</ele>
        <time>2026-05-24T09:29:40Z</time>
      </trkpt>
      <trkpt lat="47.18081" lon="6.09989">
        <ele>461.8</ele>
        <time>2026-05-24T09:29:41Z</time>
      </trkpt>
      <trkpt lat="47.18084" lon="6.0999">
        <ele>461.8</ele>
        <time>2026-05-24T09:29:42Z</time>
      </trkpt>
      <trkpt lat="47.18086" lon="6.0999">
        <ele>461.8</ele>
        <time>2026-05-24T09:29:43Z</time>
      </trkpt>
      <trkpt lat="47.18088" lon="6.0999">
        <ele>461.8</ele>
        <time>2026-05-24T09:29:44Z</time>
      </trkpt>
      <trkpt lat="47.18091" lon="6.0999">
        <ele>462</ele>
        <time>2026-05-24T09:29:45Z</time>
      </trkpt>
      <trkpt lat="47.18094" lon="6.0999">
        <ele>462.2</ele>
        <time>2026-05-24T09:29:46Z</time>
      </trkpt>
      <trkpt lat="47.18096" lon="6.09991">
        <ele>462.6</ele>
        <time>2026-05-24T09:29:47Z</time>
      </trkpt>
      <trkpt lat="47.18099" lon="6.09991">
        <ele>462.8</ele>
        <time>2026-05-24T09:29:48Z</time>
      </trkpt>
      <trkpt lat="47.18102" lon="6.09991">
        <ele>463</ele>
        <time>2026-05-24T09:29:49Z</time>
      </trkpt>
      <trkpt lat="47.18106" lon="6.0999">
        <ele>463.4</ele>
        <time>2026-05-24T09:29:50Z</time>
      </trkpt>
      <trkpt lat="47.18109" lon="6.09989">
        <ele>463.4</ele>
        <time>2026-05-24T09:29:51Z</time>
      </trkpt>
      <trkpt lat="47.18112" lon="6.09989">
        <ele>463.6</ele>
        <time>2026-05-24T09:29:52Z</time>
      </trkpt>
      <trkpt lat="47.18114" lon="6.09987">
        <ele>463.8</ele>
        <time>2026-05-24T09:29:53Z</time>
      </trkpt>
      <trkpt lat="47.18116" lon="6.09985">
        <ele>464.2</ele>
        <time>2026-05-24T09:29:54Z</time>
      </trkpt>
      <trkpt lat="47.18117" lon="6.09983">
        <ele>464.6</ele>
        <time>2026-05-24T09:29:55Z</time>
      </trkpt>
      <trkpt lat="47.18119" lon="6.0998">
        <ele>464.8</ele>
        <time>2026-05-24T09:29:56Z</time>
      </trkpt>
      <trkpt lat="47.18121" lon="6.09977">
        <ele>465</ele>
        <time>2026-05-24T09:29:57Z</time>
      </trkpt>
      <trkpt lat="47.18123" lon="6.09974">
        <ele>465</ele>
        <time>2026-05-24T09:29:58Z</time>
      </trkpt>
      <trkpt lat="47.18124" lon="6.09971">
        <ele>465.2</ele>
        <time>2026-05-24T09:29:59Z</time>
      </trkpt>
      <trkpt lat="47.18125" lon="6.09968">
        <ele>465.2</ele>
        <time>2026-05-24T09:30:00Z</time>
      </trkpt>
      <trkpt lat="47.18126" lon="6.09964">
        <ele>465.4</ele>
        <time>2026-05-24T09:30:01Z</time>
      </trkpt>
      <trkpt lat="47.18127" lon="6.0996">
        <ele>465.6</ele>
        <time>2026-05-24T09:30:02Z</time>
      </trkpt>
      <trkpt lat="47.18127" lon="6.09956">
        <ele>465.6</ele>
        <time>2026-05-24T09:30:03Z</time>
      </trkpt>
      <trkpt lat="47.18127" lon="6.09952">
        <ele>466</ele>
        <time>2026-05-24T09:30:04Z</time>
      </trkpt>
      <trkpt lat="47.18127" lon="6.09948">
        <ele>466.4</ele>
        <time>2026-05-24T09:30:05Z</time>
      </trkpt>
      <trkpt lat="47.18127" lon="6.09944">
        <ele>466.8</ele>
        <time>2026-05-24T09:30:06Z</time>
      </trkpt>
      <trkpt lat="47.18127" lon="6.09941">
        <ele>467.2</ele>
        <time>2026-05-24T09:30:07Z</time>
      </trkpt>
      <trkpt lat="47.18127" lon="6.09937">
        <ele>467.4</ele>
        <time>2026-05-24T09:30:08Z</time>
      </trkpt>
      <trkpt lat="47.18126" lon="6.09934">
        <ele>467.8</ele>
        <time>2026-05-24T09:30:09Z</time>
      </trkpt>
      <trkpt lat="47.18126" lon="6.09932">
        <ele>468</ele>
        <time>2026-05-24T09:30:10Z</time>
      </trkpt>
      <trkpt lat="47.18126" lon="6.09928">
        <ele>468.2</ele>
        <time>2026-05-24T09:30:11Z</time>
      </trkpt>
      <trkpt lat="47.18124" lon="6.09924">
        <ele>468.2</ele>
        <time>2026-05-24T09:30:12Z</time>
      </trkpt>
      <trkpt lat="47.18124" lon="6.0992">
        <ele>468.4</ele>
        <time>2026-05-24T09:30:13Z</time>
      </trkpt>
      <trkpt lat="47.18123" lon="6.09916">
        <ele>468.4</ele>
        <time>2026-05-24T09:30:14Z</time>
      </trkpt>
      <trkpt lat="47.18122" lon="6.09913">
        <ele>468.6</ele>
        <time>2026-05-24T09:30:15Z</time>
      </trkpt>
      <trkpt lat="47.1812" lon="6.09909">
        <ele>468.8</ele>
        <time>2026-05-24T09:30:16Z</time>
      </trkpt>
      <trkpt lat="47.18119" lon="6.09906">
        <ele>469</ele>
        <time>2026-05-24T09:30:17Z</time>
      </trkpt>
      <trkpt lat="47.18118" lon="6.09903">
        <ele>469.2</ele>
        <time>2026-05-24T09:30:18Z</time>
      </trkpt>
      <trkpt lat="47.18117" lon="6.099">
        <ele>469.4</ele>
        <time>2026-05-24T09:30:19Z</time>
      </trkpt>
      <trkpt lat="47.18114" lon="6.09897">
        <ele>469.4</ele>
        <time>2026-05-24T09:30:20Z</time>
      </trkpt>
      <trkpt lat="47.1811" lon="6.09896">
        <ele>469.6</ele>
        <time>2026-05-24T09:30:21Z</time>
      </trkpt>
      <trkpt lat="47.18108" lon="6.09895">
        <ele>469.6</ele>
        <time>2026-05-24T09:30:22Z</time>
      </trkpt>
      <trkpt lat="47.18105" lon="6.09895">
        <ele>469.8</ele>
        <time>2026-05-24T09:30:23Z</time>
      </trkpt>
      <trkpt lat="47.18103" lon="6.09894">
        <ele>470</ele>
        <time>2026-05-24T09:30:24Z</time>
      </trkpt>
      <trkpt lat="47.181" lon="6.09894">
        <ele>469.8</ele>
        <time>2026-05-24T09:30:25Z</time>
      </trkpt>
      <trkpt lat="47.18097" lon="6.09894">
        <ele>470</ele>
        <time>2026-05-24T09:30:26Z</time>
      </trkpt>
      <trkpt lat="47.18094" lon="6.09894">
        <ele>470</ele>
        <time>2026-05-24T09:30:27Z</time>
      </trkpt>
      <trkpt lat="47.18092" lon="6.09894">
        <ele>470.2</ele>
        <time>2026-05-24T09:30:28Z</time>
      </trkpt>
      <trkpt lat="47.18089" lon="6.09894">
        <ele>470.2</ele>
        <time>2026-05-24T09:30:29Z</time>
      </trkpt>
      <trkpt lat="47.18086" lon="6.09894">
        <ele>470.4</ele>
        <time>2026-05-24T09:30:30Z</time>
      </trkpt>
      <trkpt lat="47.18084" lon="6.09894">
        <ele>470.4</ele>
        <time>2026-05-24T09:30:31Z</time>
      </trkpt>
      <trkpt lat="47.18081" lon="6.09893">
        <ele>470.4</ele>
        <time>2026-05-24T09:30:32Z</time>
      </trkpt>
      <trkpt lat="47.18078" lon="6.09893">
        <ele>470.2</ele>
        <time>2026-05-24T09:30:33Z</time>
      </trkpt>
      <trkpt lat="47.18075" lon="6.09892">
        <ele>470.4</ele>
        <time>2026-05-24T09:30:34Z</time>
      </trkpt>
      <trkpt lat="47.18071" lon="6.09892">
        <ele>470.4</ele>
        <time>2026-05-24T09:30:35Z</time>
      </trkpt>
      <trkpt lat="47.18068" lon="6.09891">
        <ele>470.4</ele>
        <time>2026-05-24T09:30:36Z</time>
      </trkpt>
      <trkpt lat="47.18066" lon="6.09891">
        <ele>470.4</ele>
        <time>2026-05-24T09:30:37Z</time>
      </trkpt>
      <trkpt lat="47.18064" lon="6.09889">
        <ele>470.2</ele>
        <time>2026-05-24T09:30:38Z</time>
      </trkpt>
      <trkpt lat="47.18061" lon="6.09887">
        <ele>470.4</ele>
        <time>2026-05-24T09:30:39Z</time>
      </trkpt>
      <trkpt lat="47.18057" lon="6.09885">
        <ele>470.2</ele>
        <time>2026-05-24T09:30:40Z</time>
      </trkpt>
      <trkpt lat="47.18054" lon="6.09883">
        <ele>470.2</ele>
        <time>2026-05-24T09:30:41Z</time>
      </trkpt>
      <trkpt lat="47.1805" lon="6.09881">
        <ele>470.2</ele>
        <time>2026-05-24T09:30:42Z</time>
      </trkpt>
      <trkpt lat="47.18048" lon="6.09878">
        <ele>470.2</ele>
        <time>2026-05-24T09:30:43Z</time>
      </trkpt>
      <trkpt lat="47.18044" lon="6.09875">
        <ele>470</ele>
        <time>2026-05-24T09:30:44Z</time>
      </trkpt>
      <trkpt lat="47.18041" lon="6.09871">
        <ele>469.8</ele>
        <time>2026-05-24T09:30:45Z</time>
      </trkpt>
      <trkpt lat="47.18038" lon="6.09868">
        <ele>469.8</ele>
        <time>2026-05-24T09:30:46Z</time>
      </trkpt>
      <trkpt lat="47.18034" lon="6.09864">
        <ele>469.8</ele>
        <time>2026-05-24T09:30:47Z</time>
      </trkpt>
      <trkpt lat="47.18031" lon="6.0986">
        <ele>469.4</ele>
        <time>2026-05-24T09:30:48Z</time>
      </trkpt>
      <trkpt lat="47.18028" lon="6.09855">
        <ele>469.2</ele>
        <time>2026-05-24T09:30:49Z</time>
      </trkpt>
      <trkpt lat="47.18027" lon="6.09849">
        <ele>469.2</ele>
        <time>2026-05-24T09:30:50Z</time>
      </trkpt>
      <trkpt lat="47.18024" lon="6.09842">
        <ele>469</ele>
        <time>2026-05-24T09:30:51Z</time>
      </trkpt>
      <trkpt lat="47.1802" lon="6.09836">
        <ele>468.8</ele>
        <time>2026-05-24T09:30:52Z</time>
      </trkpt>
      <trkpt lat="47.18016" lon="6.0983">
        <ele>468.6</ele>
        <time>2026-05-24T09:30:53Z</time>
      </trkpt>
      <trkpt lat="47.18012" lon="6.09825">
        <ele>468.6</ele>
        <time>2026-05-24T09:30:54Z</time>
      </trkpt>
      <trkpt lat="47.18009" lon="6.0982">
        <ele>468.4</ele>
        <time>2026-05-24T09:30:55Z</time>
      </trkpt>
      <trkpt lat="47.18004" lon="6.09816">
        <ele>468.4</ele>
        <time>2026-05-24T09:30:56Z</time>
      </trkpt>
      <trkpt lat="47.17999" lon="6.09812">
        <ele>468.4</ele>
        <time>2026-05-24T09:30:57Z</time>
      </trkpt>
      <trkpt lat="47.17994" lon="6.09808">
        <ele>468.4</ele>
        <time>2026-05-24T09:30:58Z</time>
      </trkpt>
      <trkpt lat="47.17989" lon="6.09804">
        <ele>468.2</ele>
        <time>2026-05-24T09:30:59Z</time>
      </trkpt>
      <trkpt lat="47.17982" lon="6.098">
        <ele>468.2</ele>
        <time>2026-05-24T09:31:00Z</time>
      </trkpt>
      <trkpt lat="47.17975" lon="6.09798">
        <ele>468.2</ele>
        <time>2026-05-24T09:31:01Z</time>
      </trkpt>
      <trkpt lat="47.17969" lon="6.09796">
        <ele>468.2</ele>
        <time>2026-05-24T09:31:02Z</time>
      </trkpt>
      <trkpt lat="47.17963" lon="6.09794">
        <ele>468.2</ele>
        <time>2026-05-24T09:31:03Z</time>
      </trkpt>
      <trkpt lat="47.17957" lon="6.09791">
        <ele>468</ele>
        <time>2026-05-24T09:31:04Z</time>
      </trkpt>
      <trkpt lat="47.17951" lon="6.0979">
        <ele>468</ele>
        <time>2026-05-24T09:31:05Z</time>
      </trkpt>
      <trkpt lat="47.17944" lon="6.09789">
        <ele>467.8</ele>
        <time>2026-05-24T09:31:06Z</time>
      </trkpt>
      <trkpt lat="47.17938" lon="6.09789">
        <ele>467.6</ele>
        <time>2026-05-24T09:31:07Z</time>
      </trkpt>
      <trkpt lat="47.17933" lon="6.09788">
        <ele>467.6</ele>
        <time>2026-05-24T09:31:08Z</time>
      </trkpt>
      <trkpt lat="47.17928" lon="6.09788">
        <ele>467.4</ele>
        <time>2026-05-24T09:31:09Z</time>
      </trkpt>
      <trkpt lat="47.17923" lon="6.09786">
        <ele>467.4</ele>
        <time>2026-05-24T09:31:10Z</time>
      </trkpt>
      <trkpt lat="47.17918" lon="6.09784">
        <ele>467.4</ele>
        <time>2026-05-24T09:31:11Z</time>
      </trkpt>
      <trkpt lat="47.17913" lon="6.09783">
        <ele>467.4</ele>
        <time>2026-05-24T09:31:12Z</time>
      </trkpt>
      <trkpt lat="47.17909" lon="6.09783">
        <ele>467.4</ele>
        <time>2026-05-24T09:31:13Z</time>
      </trkpt>
      <trkpt lat="47.17905" lon="6.09784">
        <ele>467.4</ele>
        <time>2026-05-24T09:31:14Z</time>
      </trkpt>
      <trkpt lat="47.17902" lon="6.09786">
        <ele>467.4</ele>
        <time>2026-05-24T09:31:15Z</time>
      </trkpt>
      <trkpt lat="47.17898" lon="6.09785">
        <ele>467.4</ele>
        <time>2026-05-24T09:31:16Z</time>
      </trkpt>
      <trkpt lat="47.17895" lon="6.09785">
        <ele>467.4</ele>
        <time>2026-05-24T09:31:17Z</time>
      </trkpt>
      <trkpt lat="47.17891" lon="6.09784">
        <ele>467.6</ele>
        <time>2026-05-24T09:31:18Z</time>
      </trkpt>
      <trkpt lat="47.17886" lon="6.09783">
        <ele>467.8</ele>
        <time>2026-05-24T09:31:19Z</time>
      </trkpt>
      <trkpt lat="47.17882" lon="6.09784">
        <ele>467.8</ele>
        <time>2026-05-24T09:31:20Z</time>
      </trkpt>
      <trkpt lat="47.17877" lon="6.09784">
        <ele>467.8</ele>
        <time>2026-05-24T09:31:21Z</time>
      </trkpt>
      <trkpt lat="47.17873" lon="6.09784">
        <ele>468</ele>
        <time>2026-05-24T09:31:22Z</time>
      </trkpt>
      <trkpt lat="47.17868" lon="6.09784">
        <ele>468</ele>
        <time>2026-05-24T09:31:23Z</time>
      </trkpt>
      <trkpt lat="47.17864" lon="6.09782">
        <ele>468</ele>
        <time>2026-05-24T09:31:24Z</time>
      </trkpt>
      <trkpt lat="47.17859" lon="6.0978">
        <ele>468</ele>
        <time>2026-05-24T09:31:25Z</time>
      </trkpt>
      <trkpt lat="47.17854" lon="6.09778">
        <ele>468.2</ele>
        <time>2026-05-24T09:31:26Z</time>
      </trkpt>
      <trkpt lat="47.1785" lon="6.09776">
        <ele>468.2</ele>
        <time>2026-05-24T09:31:27Z</time>
      </trkpt>
      <trkpt lat="47.17846" lon="6.09775">
        <ele>468.2</ele>
        <time>2026-05-24T09:31:28Z</time>
      </trkpt>
      <trkpt lat="47.1784" lon="6.09775">
        <ele>468.2</ele>
        <time>2026-05-24T09:31:29Z</time>
      </trkpt>
      <trkpt lat="47.17835" lon="6.09774">
        <ele>468.4</ele>
        <time>2026-05-24T09:31:30Z</time>
      </trkpt>
      <trkpt lat="47.17829" lon="6.09773">
        <ele>468.4</ele>
        <time>2026-05-24T09:31:31Z</time>
      </trkpt>
      <trkpt lat="47.17822" lon="6.09772">
        <ele>468.4</ele>
        <time>2026-05-24T09:31:32Z</time>
      </trkpt>
      <trkpt lat="47.17815" lon="6.09771">
        <ele>468.6</ele>
        <time>2026-05-24T09:31:33Z</time>
      </trkpt>
      <trkpt lat="47.17808" lon="6.09769">
        <ele>468.4</ele>
        <time>2026-05-24T09:31:34Z</time>
      </trkpt>
      <trkpt lat="47.17802" lon="6.09767">
        <ele>468.4</ele>
        <time>2026-05-24T09:31:35Z</time>
      </trkpt>
      <trkpt lat="47.17797" lon="6.09765">
        <ele>468.6</ele>
        <time>2026-05-24T09:31:36Z</time>
      </trkpt>
      <trkpt lat="47.17792" lon="6.09763">
        <ele>468.6</ele>
        <time>2026-05-24T09:31:37Z</time>
      </trkpt>
      <trkpt lat="47.17787" lon="6.09761">
        <ele>468.4</ele>
        <time>2026-05-24T09:31:38Z</time>
      </trkpt>
      <trkpt lat="47.17782" lon="6.09758">
        <ele>468.4</ele>
        <time>2026-05-24T09:31:39Z</time>
      </trkpt>
      <trkpt lat="47.17778" lon="6.09756">
        <ele>468.4</ele>
        <time>2026-05-24T09:31:40Z</time>
      </trkpt>
      <trkpt lat="47.17773" lon="6.09755">
        <ele>468.4</ele>
        <time>2026-05-24T09:31:41Z</time>
      </trkpt>
      <trkpt lat="47.17769" lon="6.09754">
        <ele>468.4</ele>
        <time>2026-05-24T09:31:42Z</time>
      </trkpt>
      <trkpt lat="47.17764" lon="6.09753">
        <ele>468.4</ele>
        <time>2026-05-24T09:31:43Z</time>
      </trkpt>
      <trkpt lat="47.17759" lon="6.09753">
        <ele>468.4</ele>
        <time>2026-05-24T09:31:44Z</time>
      </trkpt>
      <trkpt lat="47.17753" lon="6.09752">
        <ele>468.4</ele>
        <time>2026-05-24T09:31:45Z</time>
      </trkpt>
      <trkpt lat="47.17745" lon="6.0975">
        <ele>468.4</ele>
        <time>2026-05-24T09:31:46Z</time>
      </trkpt>
      <trkpt lat="47.17739" lon="6.0975">
        <ele>468.4</ele>
        <time>2026-05-24T09:31:47Z</time>
      </trkpt>
      <trkpt lat="47.17732" lon="6.0975">
        <ele>468.4</ele>
        <time>2026-05-24T09:31:48Z</time>
      </trkpt>
      <trkpt lat="47.17726" lon="6.09752">
        <ele>468.4</ele>
        <time>2026-05-24T09:31:49Z</time>
      </trkpt>
      <trkpt lat="47.17722" lon="6.09754">
        <ele>468.4</ele>
        <time>2026-05-24T09:31:50Z</time>
      </trkpt>
      <trkpt lat="47.17717" lon="6.09756">
        <ele>468.4</ele>
        <time>2026-05-24T09:31:51Z</time>
      </trkpt>
      <trkpt lat="47.17713" lon="6.09757">
        <ele>468.4</ele>
        <time>2026-05-24T09:31:52Z</time>
      </trkpt>
      <trkpt lat="47.17709" lon="6.09759">
        <ele>468.6</ele>
        <time>2026-05-24T09:31:53Z</time>
      </trkpt>
      <trkpt lat="47.17706" lon="6.09759">
        <ele>468.4</ele>
        <time>2026-05-24T09:31:54Z</time>
      </trkpt>
      <trkpt lat="47.17703" lon="6.09759">
        <ele>468.6</ele>
        <time>2026-05-24T09:31:55Z</time>
      </trkpt>
      <trkpt lat="47.17699" lon="6.09757">
        <ele>468.4</ele>
        <time>2026-05-24T09:31:56Z</time>
      </trkpt>
      <trkpt lat="47.17696" lon="6.09755">
        <ele>468.6</ele>
        <time>2026-05-24T09:31:57Z</time>
      </trkpt>
      <trkpt lat="47.17693" lon="6.09753">
        <ele>469</ele>
        <time>2026-05-24T09:31:58Z</time>
      </trkpt>
      <trkpt lat="47.17691" lon="6.0975">
        <ele>469.2</ele>
        <time>2026-05-24T09:31:59Z</time>
      </trkpt>
      <trkpt lat="47.17688" lon="6.09749">
        <ele>469.2</ele>
        <time>2026-05-24T09:32:00Z</time>
      </trkpt>
      <trkpt lat="47.17684" lon="6.09749">
        <ele>469.2</ele>
        <time>2026-05-24T09:32:01Z</time>
      </trkpt>
      <trkpt lat="47.1768" lon="6.0975">
        <ele>469.4</ele>
        <time>2026-05-24T09:32:02Z</time>
      </trkpt>
      <trkpt lat="47.17675" lon="6.0975">
        <ele>469.8</ele>
        <time>2026-05-24T09:32:03Z</time>
      </trkpt>
      <trkpt lat="47.17672" lon="6.09749">
        <ele>470</ele>
        <time>2026-05-24T09:32:04Z</time>
      </trkpt>
      <trkpt lat="47.17668" lon="6.09749">
        <ele>470</ele>
        <time>2026-05-24T09:32:05Z</time>
      </trkpt>
      <trkpt lat="47.17665" lon="6.0975">
        <ele>470.4</ele>
        <time>2026-05-24T09:32:06Z</time>
      </trkpt>
      <trkpt lat="47.17661" lon="6.09751">
        <ele>470.4</ele>
        <time>2026-05-24T09:32:07Z</time>
      </trkpt>
      <trkpt lat="47.17657" lon="6.0975">
        <ele>470.8</ele>
        <time>2026-05-24T09:32:08Z</time>
      </trkpt>
      <trkpt lat="47.17654" lon="6.09749">
        <ele>471</ele>
        <time>2026-05-24T09:32:09Z</time>
      </trkpt>
      <trkpt lat="47.1765" lon="6.09747">
        <ele>471.2</ele>
        <time>2026-05-24T09:32:10Z</time>
      </trkpt>
      <trkpt lat="47.17646" lon="6.09745">
        <ele>471.8</ele>
        <time>2026-05-24T09:32:11Z</time>
      </trkpt>
      <trkpt lat="47.17642" lon="6.09744">
        <ele>472</ele>
        <time>2026-05-24T09:32:12Z</time>
      </trkpt>
      <trkpt lat="47.17639" lon="6.09744">
        <ele>472.2</ele>
        <time>2026-05-24T09:32:13Z</time>
      </trkpt>
      <trkpt lat="47.17635" lon="6.09744">
        <ele>472.4</ele>
        <time>2026-05-24T09:32:14Z</time>
      </trkpt>
      <trkpt lat="47.17632" lon="6.09742">
        <ele>472.2</ele>
        <time>2026-05-24T09:32:15Z</time>
      </trkpt>
      <trkpt lat="47.17627" lon="6.09741">
        <ele>472.6</ele>
        <time>2026-05-24T09:32:16Z</time>
      </trkpt>
      <trkpt lat="47.17623" lon="6.0974">
        <ele>472.6</ele>
        <time>2026-05-24T09:32:17Z</time>
      </trkpt>
      <trkpt lat="47.17618" lon="6.0974">
        <ele>472.8</ele>
        <time>2026-05-24T09:32:18Z</time>
      </trkpt>
      <trkpt lat="47.17614" lon="6.09739">
        <ele>472.8</ele>
        <time>2026-05-24T09:32:19Z</time>
      </trkpt>
      <trkpt lat="47.1761" lon="6.09738">
        <ele>472.8</ele>
        <time>2026-05-24T09:32:20Z</time>
      </trkpt>
      <trkpt lat="47.17607" lon="6.09738">
        <ele>472.8</ele>
        <time>2026-05-24T09:32:21Z</time>
      </trkpt>
      <trkpt lat="47.17605" lon="6.09735">
        <ele>472.8</ele>
        <time>2026-05-24T09:32:22Z</time>
      </trkpt>
      <trkpt lat="47.17605" lon="6.09729">
        <ele>472.8</ele>
        <time>2026-05-24T09:32:23Z</time>
      </trkpt>
      <trkpt lat="47.17604" lon="6.09724">
        <ele>472.8</ele>
        <time>2026-05-24T09:32:24Z</time>
      </trkpt>
      <trkpt lat="47.17603" lon="6.0972">
        <ele>472.8</ele>
        <time>2026-05-24T09:32:25Z</time>
      </trkpt>
      <trkpt lat="47.17602" lon="6.09716">
        <ele>473</ele>
        <time>2026-05-24T09:32:26Z</time>
      </trkpt>
      <trkpt lat="47.17601" lon="6.09713">
        <ele>473</ele>
        <time>2026-05-24T09:32:27Z</time>
      </trkpt>
      <trkpt lat="47.176" lon="6.09711">
        <ele>473</ele>
        <time>2026-05-24T09:32:28Z</time>
      </trkpt>
      <trkpt lat="47.17598" lon="6.09708">
        <ele>473</ele>
        <time>2026-05-24T09:32:29Z</time>
      </trkpt>
      <trkpt lat="47.17594" lon="6.09705">
        <ele>472.8</ele>
        <time>2026-05-24T09:32:30Z</time>
      </trkpt>
      <trkpt lat="47.17592" lon="6.09704">
        <ele>473</ele>
        <time>2026-05-24T09:32:31Z</time>
      </trkpt>
      <trkpt lat="47.1759" lon="6.09701">
        <ele>473</ele>
        <time>2026-05-24T09:32:32Z</time>
      </trkpt>
      <trkpt lat="47.17585" lon="6.09698">
        <ele>473</ele>
        <time>2026-05-24T09:32:33Z</time>
      </trkpt>
      <trkpt lat="47.1758" lon="6.09695">
        <ele>473</ele>
        <time>2026-05-24T09:32:34Z</time>
      </trkpt>
      <trkpt lat="47.17578" lon="6.0969">
        <ele>473</ele>
        <time>2026-05-24T09:32:35Z</time>
      </trkpt>
      <trkpt lat="47.17577" lon="6.09685">
        <ele>473</ele>
        <time>2026-05-24T09:32:36Z</time>
      </trkpt>
      <trkpt lat="47.17575" lon="6.0968">
        <ele>473</ele>
        <time>2026-05-24T09:32:37Z</time>
      </trkpt>
      <trkpt lat="47.17573" lon="6.09673">
        <ele>473</ele>
        <time>2026-05-24T09:32:38Z</time>
      </trkpt>
      <trkpt lat="47.17571" lon="6.09668">
        <ele>473</ele>
        <time>2026-05-24T09:32:39Z</time>
      </trkpt>
      <trkpt lat="47.1757" lon="6.09664">
        <ele>473.2</ele>
        <time>2026-05-24T09:32:40Z</time>
      </trkpt>
      <trkpt lat="47.17571" lon="6.09661">
        <ele>473</ele>
        <time>2026-05-24T09:32:41Z</time>
      </trkpt>
      <trkpt lat="47.17572" lon="6.0966">
        <ele>473</ele>
        <time>2026-05-24T09:32:42Z</time>
      </trkpt>
      <trkpt lat="47.17572" lon="6.09658">
        <ele>473.2</ele>
        <time>2026-05-24T09:32:43Z</time>
      </trkpt>
      <trkpt lat="47.17573" lon="6.09657">
        <ele>473.2</ele>
        <time>2026-05-24T09:32:44Z</time>
      </trkpt>
      <trkpt lat="47.17573" lon="6.09655">
        <ele>473.2</ele>
        <time>2026-05-24T09:32:45Z</time>
      </trkpt>
      <trkpt lat="47.17574" lon="6.09652">
        <ele>473.2</ele>
        <time>2026-05-24T09:32:46Z</time>
      </trkpt>
      <trkpt lat="47.17574" lon="6.0965">
        <ele>473.2</ele>
        <time>2026-05-24T09:32:47Z</time>
      </trkpt>
      <trkpt lat="47.17574" lon="6.09648">
        <ele>473.4</ele>
        <time>2026-05-24T09:32:48Z</time>
      </trkpt>
      <trkpt lat="47.17575" lon="6.09647">
        <ele>473.4</ele>
        <time>2026-05-24T09:32:49Z</time>
      </trkpt>
      <trkpt lat="47.17575" lon="6.09644">
        <ele>473.6</ele>
        <time>2026-05-24T09:32:50Z</time>
      </trkpt>
      <trkpt lat="47.17575" lon="6.09641">
        <ele>473.6</ele>
        <time>2026-05-24T09:32:51Z</time>
      </trkpt>
      <trkpt lat="47.17574" lon="6.09638">
        <ele>473.8</ele>
        <time>2026-05-24T09:32:52Z</time>
      </trkpt>
      <trkpt lat="47.17573" lon="6.09636">
        <ele>473.8</ele>
        <time>2026-05-24T09:32:53Z</time>
      </trkpt>
      <trkpt lat="47.17572" lon="6.09635">
        <ele>474</ele>
        <time>2026-05-24T09:32:54Z</time>
      </trkpt>
      <trkpt lat="47.17571" lon="6.09633">
        <ele>474.2</ele>
        <time>2026-05-24T09:32:55Z</time>
      </trkpt>
      <trkpt lat="47.17571" lon="6.09631">
        <ele>474</ele>
        <time>2026-05-24T09:32:56Z</time>
      </trkpt>
      <trkpt lat="47.17571" lon="6.09628">
        <ele>474.2</ele>
        <time>2026-05-24T09:32:57Z</time>
      </trkpt>
      <trkpt lat="47.17571" lon="6.09626">
        <ele>474.2</ele>
        <time>2026-05-24T09:32:58Z</time>
      </trkpt>
      <trkpt lat="47.1757" lon="6.09625">
        <ele>474.2</ele>
        <time>2026-05-24T09:32:59Z</time>
      </trkpt>
      <trkpt lat="47.17568" lon="6.09623">
        <ele>474.2</ele>
        <time>2026-05-24T09:33:00Z</time>
      </trkpt>
      <trkpt lat="47.17567" lon="6.09622">
        <ele>474.4</ele>
        <time>2026-05-24T09:33:01Z</time>
      </trkpt>
      <trkpt lat="47.17566" lon="6.0962">
        <ele>474.2</ele>
        <time>2026-05-24T09:33:02Z</time>
      </trkpt>
      <trkpt lat="47.17565" lon="6.09618">
        <ele>474.2</ele>
        <time>2026-05-24T09:33:03Z</time>
      </trkpt>
      <trkpt lat="47.17563" lon="6.09615">
        <ele>474.2</ele>
        <time>2026-05-24T09:33:04Z</time>
      </trkpt>
      <trkpt lat="47.1756" lon="6.09613">
        <ele>474.2</ele>
        <time>2026-05-24T09:33:05Z</time>
      </trkpt>
      <trkpt lat="47.17559" lon="6.0961">
        <ele>474.2</ele>
        <time>2026-05-24T09:33:06Z</time>
      </trkpt>
      <trkpt lat="47.17557" lon="6.09606">
        <ele>474.4</ele>
        <time>2026-05-24T09:33:07Z</time>
      </trkpt>
      <trkpt lat="47.17555" lon="6.09602">
        <ele>474.2</ele>
        <time>2026-05-24T09:33:08Z</time>
      </trkpt>
      <trkpt lat="47.17554" lon="6.09599">
        <ele>474.4</ele>
        <time>2026-05-24T09:33:09Z</time>
      </trkpt>
      <trkpt lat="47.17552" lon="6.09596">
        <ele>474.4</ele>
        <time>2026-05-24T09:33:10Z</time>
      </trkpt>
      <trkpt lat="47.17551" lon="6.09592">
        <ele>474.4</ele>
        <time>2026-05-24T09:33:11Z</time>
      </trkpt>
      <trkpt lat="47.17549" lon="6.0959">
        <ele>474.2</ele>
        <time>2026-05-24T09:33:12Z</time>
      </trkpt>
      <trkpt lat="47.17548" lon="6.09587">
        <ele>474.4</ele>
        <time>2026-05-24T09:33:13Z</time>
      </trkpt>
      <trkpt lat="47.17545" lon="6.09582">
        <ele>474.4</ele>
        <time>2026-05-24T09:33:14Z</time>
      </trkpt>
      <trkpt lat="47.17542" lon="6.09578">
        <ele>474.4</ele>
        <time>2026-05-24T09:33:15Z</time>
      </trkpt>
      <trkpt lat="47.1754" lon="6.09575">
        <ele>474.4</ele>
        <time>2026-05-24T09:33:16Z</time>
      </trkpt>
      <trkpt lat="47.17538" lon="6.09572">
        <ele>474.2</ele>
        <time>2026-05-24T09:33:17Z</time>
      </trkpt>
      <trkpt lat="47.17535" lon="6.09569">
        <ele>474.4</ele>
        <time>2026-05-24T09:33:18Z</time>
      </trkpt>
      <trkpt lat="47.17533" lon="6.09567">
        <ele>474.4</ele>
        <time>2026-05-24T09:33:19Z</time>
      </trkpt>
      <trkpt lat="47.17531" lon="6.09564">
        <ele>474.4</ele>
        <time>2026-05-24T09:33:20Z</time>
      </trkpt>
      <trkpt lat="47.17529" lon="6.0956">
        <ele>474.4</ele>
        <time>2026-05-24T09:33:21Z</time>
      </trkpt>
      <trkpt lat="47.17527" lon="6.09557">
        <ele>474.4</ele>
        <time>2026-05-24T09:33:22Z</time>
      </trkpt>
      <trkpt lat="47.17526" lon="6.09552">
        <ele>474.2</ele>
        <time>2026-05-24T09:33:23Z</time>
      </trkpt>
      <trkpt lat="47.17523" lon="6.09546">
        <ele>474.4</ele>
        <time>2026-05-24T09:33:24Z</time>
      </trkpt>
      <trkpt lat="47.1752" lon="6.09542">
        <ele>474.4</ele>
        <time>2026-05-24T09:33:25Z</time>
      </trkpt>
      <trkpt lat="47.17516" lon="6.09536">
        <ele>474.2</ele>
        <time>2026-05-24T09:33:26Z</time>
      </trkpt>
      <trkpt lat="47.17513" lon="6.09532">
        <ele>474</ele>
        <time>2026-05-24T09:33:27Z</time>
      </trkpt>
      <trkpt lat="47.17509" lon="6.09526">
        <ele>474</ele>
        <time>2026-05-24T09:33:28Z</time>
      </trkpt>
      <trkpt lat="47.17505" lon="6.0952">
        <ele>474</ele>
        <time>2026-05-24T09:33:29Z</time>
      </trkpt>
      <trkpt lat="47.17501" lon="6.09517">
        <ele>474</ele>
        <time>2026-05-24T09:33:30Z</time>
      </trkpt>
      <trkpt lat="47.17498" lon="6.09514">
        <ele>473.8</ele>
        <time>2026-05-24T09:33:31Z</time>
      </trkpt>
      <trkpt lat="47.17496" lon="6.09509">
        <ele>473.6</ele>
        <time>2026-05-24T09:33:32Z</time>
      </trkpt>
      <trkpt lat="47.17493" lon="6.09505">
        <ele>473.6</ele>
        <time>2026-05-24T09:33:33Z</time>
      </trkpt>
      <trkpt lat="47.1749" lon="6.095">
        <ele>473.4</ele>
        <time>2026-05-24T09:33:34Z</time>
      </trkpt>
      <trkpt lat="47.17488" lon="6.09496">
        <ele>473.2</ele>
        <time>2026-05-24T09:33:35Z</time>
      </trkpt>
      <trkpt lat="47.17485" lon="6.09493">
        <ele>472.8</ele>
        <time>2026-05-24T09:33:36Z</time>
      </trkpt>
      <trkpt lat="47.17481" lon="6.0949">
        <ele>472.6</ele>
        <time>2026-05-24T09:33:37Z</time>
      </trkpt>
      <trkpt lat="47.17478" lon="6.09487">
        <ele>472.4</ele>
        <time>2026-05-24T09:33:38Z</time>
      </trkpt>
      <trkpt lat="47.17473" lon="6.09484">
        <ele>472.4</ele>
        <time>2026-05-24T09:33:39Z</time>
      </trkpt>
      <trkpt lat="47.17469" lon="6.09481">
        <ele>472.2</ele>
        <time>2026-05-24T09:33:40Z</time>
      </trkpt>
      <trkpt lat="47.17465" lon="6.09476">
        <ele>471.8</ele>
        <time>2026-05-24T09:33:41Z</time>
      </trkpt>
      <trkpt lat="47.17459" lon="6.09472">
        <ele>471.8</ele>
        <time>2026-05-24T09:33:42Z</time>
      </trkpt>
      <trkpt lat="47.17456" lon="6.0947">
        <ele>471.6</ele>
        <time>2026-05-24T09:33:43Z</time>
      </trkpt>
      <trkpt lat="47.17454" lon="6.09468">
        <ele>471.6</ele>
        <time>2026-05-24T09:33:44Z</time>
      </trkpt>
      <trkpt lat="47.17453" lon="6.09467">
        <ele>471.6</ele>
        <time>2026-05-24T09:33:45Z</time>
      </trkpt>
      <trkpt lat="47.17453" lon="6.09464">
        <ele>471.4</ele>
        <time>2026-05-24T09:33:46Z</time>
      </trkpt>
      <trkpt lat="47.17453" lon="6.0946">
        <ele>471.6</ele>
        <time>2026-05-24T09:33:47Z</time>
      </trkpt>
      <trkpt lat="47.17452" lon="6.09453">
        <ele>471.4</ele>
        <time>2026-05-24T09:33:48Z</time>
      </trkpt>
      <trkpt lat="47.1745" lon="6.09445">
        <ele>471.6</ele>
        <time>2026-05-24T09:33:49Z</time>
      </trkpt>
      <trkpt lat="47.17447" lon="6.09438">
        <ele>471.4</ele>
        <time>2026-05-24T09:33:50Z</time>
      </trkpt>
      <trkpt lat="47.17445" lon="6.09432">
        <ele>471.6</ele>
        <time>2026-05-24T09:33:51Z</time>
      </trkpt>
      <trkpt lat="47.17444" lon="6.09426">
        <ele>471.4</ele>
        <time>2026-05-24T09:33:52Z</time>
      </trkpt>
      <trkpt lat="47.17442" lon="6.09422">
        <ele>471.6</ele>
        <time>2026-05-24T09:33:53Z</time>
      </trkpt>
      <trkpt lat="47.1744" lon="6.09417">
        <ele>471.4</ele>
        <time>2026-05-24T09:33:54Z</time>
      </trkpt>
      <trkpt lat="47.17437" lon="6.09411">
        <ele>471.4</ele>
        <time>2026-05-24T09:33:55Z</time>
      </trkpt>
      <trkpt lat="47.17433" lon="6.09406">
        <ele>471.6</ele>
        <time>2026-05-24T09:33:56Z</time>
      </trkpt>
      <trkpt lat="47.17431" lon="6.09401">
        <ele>471.4</ele>
        <time>2026-05-24T09:33:57Z</time>
      </trkpt>
      <trkpt lat="47.17427" lon="6.09395">
        <ele>471.6</ele>
        <time>2026-05-24T09:33:58Z</time>
      </trkpt>
      <trkpt lat="47.17426" lon="6.0939">
        <ele>471.6</ele>
        <time>2026-05-24T09:33:59Z</time>
      </trkpt>
      <trkpt lat="47.17425" lon="6.09384">
        <ele>471.6</ele>
        <time>2026-05-24T09:34:00Z</time>
      </trkpt>
      <trkpt lat="47.17424" lon="6.09379">
        <ele>471.4</ele>
        <time>2026-05-24T09:34:01Z</time>
      </trkpt>
      <trkpt lat="47.17422" lon="6.09374">
        <ele>471.4</ele>
        <time>2026-05-24T09:34:02Z</time>
      </trkpt>
      <trkpt lat="47.1742" lon="6.09368">
        <ele>471.4</ele>
        <time>2026-05-24T09:34:03Z</time>
      </trkpt>
      <trkpt lat="47.17416" lon="6.09363">
        <ele>471.2</ele>
        <time>2026-05-24T09:34:04Z</time>
      </trkpt>
      <trkpt lat="47.17411" lon="6.09358">
        <ele>471.2</ele>
        <time>2026-05-24T09:34:05Z</time>
      </trkpt>
      <trkpt lat="47.17407" lon="6.09354">
        <ele>471.2</ele>
        <time>2026-05-24T09:34:06Z</time>
      </trkpt>
      <trkpt lat="47.17405" lon="6.0935">
        <ele>471.2</ele>
        <time>2026-05-24T09:34:07Z</time>
      </trkpt>
      <trkpt lat="47.17402" lon="6.09347">
        <ele>471</ele>
        <time>2026-05-24T09:34:08Z</time>
      </trkpt>
      <trkpt lat="47.174" lon="6.09344">
        <ele>470.8</ele>
        <time>2026-05-24T09:34:09Z</time>
      </trkpt>
      <trkpt lat="47.17398" lon="6.09341">
        <ele>470.8</ele>
        <time>2026-05-24T09:34:10Z</time>
      </trkpt>
      <trkpt lat="47.17396" lon="6.09337">
        <ele>470.8</ele>
        <time>2026-05-24T09:34:11Z</time>
      </trkpt>
      <trkpt lat="47.17394" lon="6.09331">
        <ele>470.8</ele>
        <time>2026-05-24T09:34:12Z</time>
      </trkpt>
      <trkpt lat="47.17392" lon="6.09327">
        <ele>470.8</ele>
        <time>2026-05-24T09:34:13Z</time>
      </trkpt>
      <trkpt lat="47.17392" lon="6.09323">
        <ele>470.6</ele>
        <time>2026-05-24T09:34:14Z</time>
      </trkpt>
      <trkpt lat="47.1739" lon="6.09318">
        <ele>470.6</ele>
        <time>2026-05-24T09:34:15Z</time>
      </trkpt>
      <trkpt lat="47.17389" lon="6.09313">
        <ele>470.6</ele>
        <time>2026-05-24T09:34:16Z</time>
      </trkpt>
      <trkpt lat="47.17388" lon="6.09309">
        <ele>470.6</ele>
        <time>2026-05-24T09:34:17Z</time>
      </trkpt>
      <trkpt lat="47.17386" lon="6.09306">
        <ele>470.6</ele>
        <time>2026-05-24T09:34:18Z</time>
      </trkpt>
      <trkpt lat="47.17384" lon="6.09302">
        <ele>470.8</ele>
        <time>2026-05-24T09:34:19Z</time>
      </trkpt>
      <trkpt lat="47.17381" lon="6.09298">
        <ele>470.6</ele>
        <time>2026-05-24T09:34:20Z</time>
      </trkpt>
      <trkpt lat="47.17379" lon="6.09294">
        <ele>470.6</ele>
        <time>2026-05-24T09:34:21Z</time>
      </trkpt>
      <trkpt lat="47.17377" lon="6.09289">
        <ele>470.6</ele>
        <time>2026-05-24T09:34:22Z</time>
      </trkpt>
      <trkpt lat="47.17374" lon="6.09285">
        <ele>470.6</ele>
        <time>2026-05-24T09:34:23Z</time>
      </trkpt>
      <trkpt lat="47.17373" lon="6.09283">
        <ele>470.6</ele>
        <time>2026-05-24T09:34:24Z</time>
      </trkpt>
      <trkpt lat="47.17371" lon="6.0928">
        <ele>470.4</ele>
        <time>2026-05-24T09:34:25Z</time>
      </trkpt>
      <trkpt lat="47.17369" lon="6.09278">
        <ele>470.6</ele>
        <time>2026-05-24T09:34:26Z</time>
      </trkpt>
      <trkpt lat="47.17368" lon="6.09276">
        <ele>470.6</ele>
        <time>2026-05-24T09:34:27Z</time>
      </trkpt>
      <trkpt lat="47.17366" lon="6.09275">
        <ele>470.4</ele>
        <time>2026-05-24T09:34:28Z</time>
      </trkpt>
      <trkpt lat="47.17365" lon="6.09274">
        <ele>470.6</ele>
        <time>2026-05-24T09:34:29Z</time>
      </trkpt>
      <trkpt lat="47.17364" lon="6.09274">
        <ele>470.6</ele>
        <time>2026-05-24T09:34:30Z</time>
      </trkpt>
      <trkpt lat="47.17363" lon="6.09273">
        <ele>470.4</ele>
        <time>2026-05-24T09:34:31Z</time>
      </trkpt>
      <trkpt lat="47.17363" lon="6.09273">
        <ele>470.4</ele>
        <time>2026-05-24T09:34:32Z</time>
      </trkpt>
      <trkpt lat="47.17341" lon="6.09255">
        <ele>470.6</ele>
        <time>2026-05-24T09:35:13Z</time>
      </trkpt>
      <trkpt lat="47.17339" lon="6.09253">
        <ele>470.4</ele>
        <time>2026-05-24T09:35:14Z</time>
      </trkpt>
      <trkpt lat="47.17336" lon="6.09252">
        <ele>470.4</ele>
        <time>2026-05-24T09:35:15Z</time>
      </trkpt>
      <trkpt lat="47.17333" lon="6.09251">
        <ele>470.6</ele>
        <time>2026-05-24T09:35:16Z</time>
      </trkpt>
      <trkpt lat="47.17331" lon="6.0925">
        <ele>470.4</ele>
        <time>2026-05-24T09:35:17Z</time>
      </trkpt>
      <trkpt lat="47.17329" lon="6.0925">
        <ele>470.4</ele>
        <time>2026-05-24T09:35:18Z</time>
      </trkpt>
      <trkpt lat="47.17326" lon="6.0925">
        <ele>470.4</ele>
        <time>2026-05-24T09:35:19Z</time>
      </trkpt>
      <trkpt lat="47.17324" lon="6.09249">
        <ele>470.4</ele>
        <time>2026-05-24T09:35:20Z</time>
      </trkpt>
      <trkpt lat="47.17322" lon="6.09249">
        <ele>470.6</ele>
        <time>2026-05-24T09:35:21Z</time>
      </trkpt>
      <trkpt lat="47.17321" lon="6.09249">
        <ele>470.6</ele>
        <time>2026-05-24T09:35:22Z</time>
      </trkpt>
      <trkpt lat="47.17319" lon="6.09249">
        <ele>470.6</ele>
        <time>2026-05-24T09:35:23Z</time>
      </trkpt>
      <trkpt lat="47.17318" lon="6.09249">
        <ele>470.6</ele>
        <time>2026-05-24T09:35:24Z</time>
      </trkpt>
      <trkpt lat="47.17317" lon="6.09249">
        <ele>470.6</ele>
        <time>2026-05-24T09:35:25Z</time>
      </trkpt>
      <trkpt lat="47.17317" lon="6.09249">
        <ele>470.6</ele>
        <time>2026-05-24T09:35:26Z</time>
      </trkpt>
      <trkpt lat="47.17316" lon="6.09249">
        <ele>470.8</ele>
        <time>2026-05-24T09:35:27Z</time>
      </trkpt>
      <trkpt lat="47.17315" lon="6.0925">
        <ele>470.8</ele>
        <time>2026-05-24T09:35:28Z</time>
      </trkpt>
      <trkpt lat="47.17315" lon="6.0925">
        <ele>470.8</ele>
        <time>2026-05-24T09:35:29Z</time>
      </trkpt>
      <trkpt lat="47.17314" lon="6.0925">
        <ele>470.6</ele>
        <time>2026-05-24T09:35:30Z</time>
      </trkpt>
      <trkpt lat="47.17313" lon="6.09249">
        <ele>470.8</ele>
        <time>2026-05-24T09:35:31Z</time>
      </trkpt>
      <trkpt lat="47.17312" lon="6.09249">
        <ele>470.6</ele>
        <time>2026-05-24T09:35:32Z</time>
      </trkpt>
      <trkpt lat="47.17312" lon="6.09249">
        <ele>470.8</ele>
        <time>2026-05-24T09:35:33Z</time>
      </trkpt>
      <trkpt lat="47.17312" lon="6.09248">
        <ele>470.6</ele>
        <time>2026-05-24T09:35:34Z</time>
      </trkpt>
      <trkpt lat="47.17311" lon="6.09249">
        <ele>470.8</ele>
        <time>2026-05-24T09:35:35Z</time>
      </trkpt>
      <trkpt lat="47.17302" lon="6.09231">
        <ele>470.8</ele>
        <time>2026-05-24T09:35:54Z</time>
      </trkpt>
      <trkpt lat="47.173" lon="6.09228">
        <ele>470.8</ele>
        <time>2026-05-24T09:35:55Z</time>
      </trkpt>
      <trkpt lat="47.17298" lon="6.09222">
        <ele>470.6</ele>
        <time>2026-05-24T09:35:56Z</time>
      </trkpt>
      <trkpt lat="47.17297" lon="6.09216">
        <ele>470.8</ele>
        <time>2026-05-24T09:35:57Z</time>
      </trkpt>
      <trkpt lat="47.17295" lon="6.09212">
        <ele>470.6</ele>
        <time>2026-05-24T09:35:58Z</time>
      </trkpt>
      <trkpt lat="47.17293" lon="6.09207">
        <ele>470.8</ele>
        <time>2026-05-24T09:35:59Z</time>
      </trkpt>
      <trkpt lat="47.17291" lon="6.09202">
        <ele>470.6</ele>
        <time>2026-05-24T09:36:00Z</time>
      </trkpt>
      <trkpt lat="47.17289" lon="6.09198">
        <ele>470.4</ele>
        <time>2026-05-24T09:36:01Z</time>
      </trkpt>
      <trkpt lat="47.17287" lon="6.09196">
        <ele>470.4</ele>
        <time>2026-05-24T09:36:02Z</time>
      </trkpt>
      <trkpt lat="47.17286" lon="6.09193">
        <ele>470.2</ele>
        <time>2026-05-24T09:36:03Z</time>
      </trkpt>
      <trkpt lat="47.17285" lon="6.09187">
        <ele>470.2</ele>
        <time>2026-05-24T09:36:04Z</time>
      </trkpt>
      <trkpt lat="47.17284" lon="6.0918">
        <ele>470.2</ele>
        <time>2026-05-24T09:36:05Z</time>
      </trkpt>
      <trkpt lat="47.17283" lon="6.09173">
        <ele>470</ele>
        <time>2026-05-24T09:36:06Z</time>
      </trkpt>
      <trkpt lat="47.17281" lon="6.09167">
        <ele>470</ele>
        <time>2026-05-24T09:36:07Z</time>
      </trkpt>
      <trkpt lat="47.17279" lon="6.09162">
        <ele>469.6</ele>
        <time>2026-05-24T09:36:08Z</time>
      </trkpt>
      <trkpt lat="47.17276" lon="6.09158">
        <ele>469.4</ele>
        <time>2026-05-24T09:36:09Z</time>
      </trkpt>
      <trkpt lat="47.17273" lon="6.09155">
        <ele>469.4</ele>
        <time>2026-05-24T09:36:10Z</time>
      </trkpt>
      <trkpt lat="47.17269" lon="6.09152">
        <ele>469.4</ele>
        <time>2026-05-24T09:36:11Z</time>
      </trkpt>
      <trkpt lat="47.17266" lon="6.09149">
        <ele>469.2</ele>
        <time>2026-05-24T09:36:12Z</time>
      </trkpt>
      <trkpt lat="47.17264" lon="6.09144">
        <ele>469.2</ele>
        <time>2026-05-24T09:36:13Z</time>
      </trkpt>
      <trkpt lat="47.1726" lon="6.09139">
        <ele>469</ele>
        <time>2026-05-24T09:36:14Z</time>
      </trkpt>
      <trkpt lat="47.17256" lon="6.09135">
        <ele>469</ele>
        <time>2026-05-24T09:36:15Z</time>
      </trkpt>
      <trkpt lat="47.17253" lon="6.0913">
        <ele>468.8</ele>
        <time>2026-05-24T09:36:16Z</time>
      </trkpt>
      <trkpt lat="47.1725" lon="6.09125">
        <ele>468.8</ele>
        <time>2026-05-24T09:36:17Z</time>
      </trkpt>
      <trkpt lat="47.17247" lon="6.09119">
        <ele>468.6</ele>
        <time>2026-05-24T09:36:18Z</time>
      </trkpt>
      <trkpt lat="47.17245" lon="6.09115">
        <ele>468.2</ele>
        <time>2026-05-24T09:36:19Z</time>
      </trkpt>
      <trkpt lat="47.17242" lon="6.09111">
        <ele>467.8</ele>
        <time>2026-05-24T09:36:20Z</time>
      </trkpt>
      <trkpt lat="47.17241" lon="6.09106">
        <ele>467.6</ele>
        <time>2026-05-24T09:36:21Z</time>
      </trkpt>
      <trkpt lat="47.17239" lon="6.09101">
        <ele>467.4</ele>
        <time>2026-05-24T09:36:22Z</time>
      </trkpt>
      <trkpt lat="47.17236" lon="6.09097">
        <ele>467.2</ele>
        <time>2026-05-24T09:36:23Z</time>
      </trkpt>
      <trkpt lat="47.17234" lon="6.09093">
        <ele>467</ele>
        <time>2026-05-24T09:36:24Z</time>
      </trkpt>
      <trkpt lat="47.17232" lon="6.09089">
        <ele>466.8</ele>
        <time>2026-05-24T09:36:25Z</time>
      </trkpt>
      <trkpt lat="47.1723" lon="6.09084">
        <ele>466.8</ele>
        <time>2026-05-24T09:36:26Z</time>
      </trkpt>
      <trkpt lat="47.17228" lon="6.0908">
        <ele>466.8</ele>
        <time>2026-05-24T09:36:27Z</time>
      </trkpt>
      <trkpt lat="47.17225" lon="6.09076">
        <ele>466.6</ele>
        <time>2026-05-24T09:36:28Z</time>
      </trkpt>
      <trkpt lat="47.17222" lon="6.09073">
        <ele>466.4</ele>
        <time>2026-05-24T09:36:29Z</time>
      </trkpt>
      <trkpt lat="47.17217" lon="6.09068">
        <ele>466.2</ele>
        <time>2026-05-24T09:36:30Z</time>
      </trkpt>
      <trkpt lat="47.17214" lon="6.09065">
        <ele>466.4</ele>
        <time>2026-05-24T09:36:31Z</time>
      </trkpt>
      <trkpt lat="47.17211" lon="6.09062">
        <ele>466.2</ele>
        <time>2026-05-24T09:36:32Z</time>
      </trkpt>
      <trkpt lat="47.17209" lon="6.09059">
        <ele>466.2</ele>
        <time>2026-05-24T09:36:33Z</time>
      </trkpt>
      <trkpt lat="47.17205" lon="6.09055">
        <ele>466.2</ele>
        <time>2026-05-24T09:36:34Z</time>
      </trkpt>
      <trkpt lat="47.17201" lon="6.0905">
        <ele>466.2</ele>
        <time>2026-05-24T09:36:35Z</time>
      </trkpt>
      <trkpt lat="47.17198" lon="6.09045">
        <ele>466.2</ele>
        <time>2026-05-24T09:36:36Z</time>
      </trkpt>
      <trkpt lat="47.17194" lon="6.09042">
        <ele>466.2</ele>
        <time>2026-05-24T09:36:37Z</time>
      </trkpt>
      <trkpt lat="47.17191" lon="6.0904">
        <ele>466</ele>
        <time>2026-05-24T09:36:38Z</time>
      </trkpt>
      <trkpt lat="47.17187" lon="6.09037">
        <ele>465.8</ele>
        <time>2026-05-24T09:36:39Z</time>
      </trkpt>
      <trkpt lat="47.17184" lon="6.09036">
        <ele>465.6</ele>
        <time>2026-05-24T09:36:40Z</time>
      </trkpt>
      <trkpt lat="47.17179" lon="6.09033">
        <ele>465.6</ele>
        <time>2026-05-24T09:36:41Z</time>
      </trkpt>
      <trkpt lat="47.17176" lon="6.09031">
        <ele>465.2</ele>
        <time>2026-05-24T09:36:42Z</time>
      </trkpt>
      <trkpt lat="47.17174" lon="6.09029">
        <ele>465</ele>
        <time>2026-05-24T09:36:43Z</time>
      </trkpt>
      <trkpt lat="47.1717" lon="6.09027">
        <ele>465</ele>
        <time>2026-05-24T09:36:44Z</time>
      </trkpt>
      <trkpt lat="47.17168" lon="6.09025">
        <ele>465</ele>
        <time>2026-05-24T09:36:45Z</time>
      </trkpt>
      <trkpt lat="47.17165" lon="6.09023">
        <ele>465</ele>
        <time>2026-05-24T09:36:46Z</time>
      </trkpt>
      <trkpt lat="47.17162" lon="6.09022">
        <ele>465</ele>
        <time>2026-05-24T09:36:47Z</time>
      </trkpt>
      <trkpt lat="47.17159" lon="6.0902">
        <ele>464.8</ele>
        <time>2026-05-24T09:36:48Z</time>
      </trkpt>
      <trkpt lat="47.17157" lon="6.09018">
        <ele>464.6</ele>
        <time>2026-05-24T09:36:49Z</time>
      </trkpt>
      <trkpt lat="47.17156" lon="6.09015">
        <ele>464.6</ele>
        <time>2026-05-24T09:36:50Z</time>
      </trkpt>
      <trkpt lat="47.17153" lon="6.09011">
        <ele>464.6</ele>
        <time>2026-05-24T09:36:51Z</time>
      </trkpt>
      <trkpt lat="47.17149" lon="6.09005">
        <ele>464.6</ele>
        <time>2026-05-24T09:36:52Z</time>
      </trkpt>
      <trkpt lat="47.17146" lon="6.09">
        <ele>464.6</ele>
        <time>2026-05-24T09:36:53Z</time>
      </trkpt>
      <trkpt lat="47.17143" lon="6.08995">
        <ele>464.6</ele>
        <time>2026-05-24T09:36:54Z</time>
      </trkpt>
      <trkpt lat="47.17138" lon="6.0899">
        <ele>464.6</ele>
        <time>2026-05-24T09:36:55Z</time>
      </trkpt>
      <trkpt lat="47.17135" lon="6.08984">
        <ele>464.4</ele>
        <time>2026-05-24T09:36:56Z</time>
      </trkpt>
      <trkpt lat="47.17131" lon="6.08976">
        <ele>464.4</ele>
        <time>2026-05-24T09:36:57Z</time>
      </trkpt>
      <trkpt lat="47.1713" lon="6.08968">
        <ele>464.4</ele>
        <time>2026-05-24T09:36:58Z</time>
      </trkpt>
      <trkpt lat="47.17129" lon="6.08961">
        <ele>464.4</ele>
        <time>2026-05-24T09:36:59Z</time>
      </trkpt>
      <trkpt lat="47.17129" lon="6.08954">
        <ele>464.2</ele>
        <time>2026-05-24T09:37:00Z</time>
      </trkpt>
      <trkpt lat="47.17131" lon="6.08948">
        <ele>464</ele>
        <time>2026-05-24T09:37:01Z</time>
      </trkpt>
      <trkpt lat="47.17132" lon="6.08941">
        <ele>463.8</ele>
        <time>2026-05-24T09:37:02Z</time>
      </trkpt>
      <trkpt lat="47.17131" lon="6.08936">
        <ele>463.8</ele>
        <time>2026-05-24T09:37:03Z</time>
      </trkpt>
      <trkpt lat="47.17129" lon="6.0893">
        <ele>463.8</ele>
        <time>2026-05-24T09:37:04Z</time>
      </trkpt>
      <trkpt lat="47.17126" lon="6.08925">
        <ele>463.8</ele>
        <time>2026-05-24T09:37:05Z</time>
      </trkpt>
      <trkpt lat="47.17124" lon="6.08921">
        <ele>463.6</ele>
        <time>2026-05-24T09:37:06Z</time>
      </trkpt>
      <trkpt lat="47.17121" lon="6.08917">
        <ele>463.4</ele>
        <time>2026-05-24T09:37:07Z</time>
      </trkpt>
      <trkpt lat="47.17118" lon="6.08914">
        <ele>463.4</ele>
        <time>2026-05-24T09:37:08Z</time>
      </trkpt>
      <trkpt lat="47.17116" lon="6.08913">
        <ele>463.4</ele>
        <time>2026-05-24T09:37:09Z</time>
      </trkpt>
      <trkpt lat="47.17113" lon="6.08911">
        <ele>463.4</ele>
        <time>2026-05-24T09:37:10Z</time>
      </trkpt>
      <trkpt lat="47.1711" lon="6.0891">
        <ele>463.4</ele>
        <time>2026-05-24T09:37:11Z</time>
      </trkpt>
      <trkpt lat="47.17108" lon="6.08909">
        <ele>463.4</ele>
        <time>2026-05-24T09:37:12Z</time>
      </trkpt>
      <trkpt lat="47.17106" lon="6.08907">
        <ele>463.4</ele>
        <time>2026-05-24T09:37:13Z</time>
      </trkpt>
      <trkpt lat="47.17103" lon="6.08904">
        <ele>463.4</ele>
        <time>2026-05-24T09:37:14Z</time>
      </trkpt>
      <trkpt lat="47.17097" lon="6.08901">
        <ele>463.4</ele>
        <time>2026-05-24T09:37:15Z</time>
      </trkpt>
      <trkpt lat="47.17095" lon="6.08898">
        <ele>463.4</ele>
        <time>2026-05-24T09:37:16Z</time>
      </trkpt>
      <trkpt lat="47.17092" lon="6.08896">
        <ele>463.4</ele>
        <time>2026-05-24T09:37:17Z</time>
      </trkpt>
      <trkpt lat="47.17086" lon="6.08893">
        <ele>463.4</ele>
        <time>2026-05-24T09:37:18Z</time>
      </trkpt>
      <trkpt lat="47.1708" lon="6.0889">
        <ele>463.6</ele>
        <time>2026-05-24T09:37:19Z</time>
      </trkpt>
      <trkpt lat="47.17077" lon="6.08888">
        <ele>463.4</ele>
        <time>2026-05-24T09:37:20Z</time>
      </trkpt>
      <trkpt lat="47.17073" lon="6.08885">
        <ele>463.4</ele>
        <time>2026-05-24T09:37:21Z</time>
      </trkpt>
      <trkpt lat="47.17067" lon="6.08883">
        <ele>463.4</ele>
        <time>2026-05-24T09:37:22Z</time>
      </trkpt>
      <trkpt lat="47.17063" lon="6.08882">
        <ele>463.6</ele>
        <time>2026-05-24T09:37:23Z</time>
      </trkpt>
      <trkpt lat="47.17058" lon="6.0888">
        <ele>463.4</ele>
        <time>2026-05-24T09:37:24Z</time>
      </trkpt>
      <trkpt lat="47.17055" lon="6.08877">
        <ele>463.6</ele>
        <time>2026-05-24T09:37:25Z</time>
      </trkpt>
      <trkpt lat="47.17052" lon="6.08874">
        <ele>463.2</ele>
        <time>2026-05-24T09:37:26Z</time>
      </trkpt>
      <trkpt lat="47.1705" lon="6.08873">
        <ele>463.2</ele>
        <time>2026-05-24T09:37:27Z</time>
      </trkpt>
      <trkpt lat="47.17049" lon="6.08872">
        <ele>463.2</ele>
        <time>2026-05-24T09:37:28Z</time>
      </trkpt>
      <trkpt lat="47.17047" lon="6.0887">
        <ele>463</ele>
        <time>2026-05-24T09:37:29Z</time>
      </trkpt>
      <trkpt lat="47.17046" lon="6.08869">
        <ele>463</ele>
        <time>2026-05-24T09:37:30Z</time>
      </trkpt>
      <trkpt lat="47.17045" lon="6.08869">
        <ele>463.2</ele>
        <time>2026-05-24T09:37:31Z</time>
      </trkpt>
      <trkpt lat="47.17044" lon="6.08869">
        <ele>463</ele>
        <time>2026-05-24T09:37:32Z</time>
      </trkpt>
      <trkpt lat="47.17048" lon="6.08864">
        <ele>462.8</ele>
        <time>2026-05-24T09:37:42Z</time>
      </trkpt>
      <trkpt lat="47.1705" lon="6.08864">
        <ele>462.8</ele>
        <time>2026-05-24T09:37:43Z</time>
      </trkpt>
      <trkpt lat="47.1705" lon="6.08864">
        <ele>462.6</ele>
        <time>2026-05-24T09:37:44Z</time>
      </trkpt>
      <trkpt lat="47.1705" lon="6.08863">
        <ele>462.6</ele>
        <time>2026-05-24T09:37:45Z</time>
      </trkpt>
      <trkpt lat="47.17034" lon="6.08861">
        <ele>462.4</ele>
        <time>2026-05-24T09:38:17Z</time>
      </trkpt>
      <trkpt lat="47.17032" lon="6.0886">
        <ele>462.4</ele>
        <time>2026-05-24T09:38:18Z</time>
      </trkpt>
      <trkpt lat="47.1703" lon="6.08859">
        <ele>462.4</ele>
        <time>2026-05-24T09:38:19Z</time>
      </trkpt>
      <trkpt lat="47.17027" lon="6.08858">
        <ele>462.2</ele>
        <time>2026-05-24T09:38:20Z</time>
      </trkpt>
      <trkpt lat="47.17024" lon="6.08857">
        <ele>462.2</ele>
        <time>2026-05-24T09:38:21Z</time>
      </trkpt>
      <trkpt lat="47.17022" lon="6.08854">
        <ele>462.2</ele>
        <time>2026-05-24T09:38:22Z</time>
      </trkpt>
      <trkpt lat="47.1702" lon="6.0885">
        <ele>462.4</ele>
        <time>2026-05-24T09:38:23Z</time>
      </trkpt>
      <trkpt lat="47.17018" lon="6.08847">
        <ele>462.2</ele>
        <time>2026-05-24T09:38:24Z</time>
      </trkpt>
      <trkpt lat="47.17016" lon="6.08843">
        <ele>462.4</ele>
        <time>2026-05-24T09:38:25Z</time>
      </trkpt>
      <trkpt lat="47.17014" lon="6.08839">
        <ele>462.4</ele>
        <time>2026-05-24T09:38:26Z</time>
      </trkpt>
      <trkpt lat="47.17012" lon="6.08834">
        <ele>462.4</ele>
        <time>2026-05-24T09:38:27Z</time>
      </trkpt>
      <trkpt lat="47.1701" lon="6.0883">
        <ele>462.2</ele>
        <time>2026-05-24T09:38:28Z</time>
      </trkpt>
      <trkpt lat="47.17008" lon="6.08826">
        <ele>462.4</ele>
        <time>2026-05-24T09:38:29Z</time>
      </trkpt>
      <trkpt lat="47.17006" lon="6.08821">
        <ele>462.4</ele>
        <time>2026-05-24T09:38:30Z</time>
      </trkpt>
      <trkpt lat="47.17004" lon="6.08817">
        <ele>462.4</ele>
        <time>2026-05-24T09:38:31Z</time>
      </trkpt>
      <trkpt lat="47.17001" lon="6.08813">
        <ele>462.6</ele>
        <time>2026-05-24T09:38:32Z</time>
      </trkpt>
      <trkpt lat="47.16999" lon="6.08809">
        <ele>462.4</ele>
        <time>2026-05-24T09:38:33Z</time>
      </trkpt>
      <trkpt lat="47.16996" lon="6.08806">
        <ele>462.6</ele>
        <time>2026-05-24T09:38:34Z</time>
      </trkpt>
      <trkpt lat="47.16993" lon="6.08804">
        <ele>462.6</ele>
        <time>2026-05-24T09:38:35Z</time>
      </trkpt>
      <trkpt lat="47.1699" lon="6.08802">
        <ele>462.6</ele>
        <time>2026-05-24T09:38:36Z</time>
      </trkpt>
      <trkpt lat="47.16987" lon="6.08799">
        <ele>462.6</ele>
        <time>2026-05-24T09:38:37Z</time>
      </trkpt>
      <trkpt lat="47.16984" lon="6.08797">
        <ele>462.6</ele>
        <time>2026-05-24T09:38:38Z</time>
      </trkpt>
      <trkpt lat="47.16981" lon="6.08796">
        <ele>462.6</ele>
        <time>2026-05-24T09:38:39Z</time>
      </trkpt>
      <trkpt lat="47.16978" lon="6.08794">
        <ele>462.6</ele>
        <time>2026-05-24T09:38:40Z</time>
      </trkpt>
      <trkpt lat="47.16974" lon="6.08792">
        <ele>462.8</ele>
        <time>2026-05-24T09:38:41Z</time>
      </trkpt>
      <trkpt lat="47.16971" lon="6.0879">
        <ele>463.2</ele>
        <time>2026-05-24T09:38:42Z</time>
      </trkpt>
      <trkpt lat="47.16967" lon="6.08789">
        <ele>463.6</ele>
        <time>2026-05-24T09:38:43Z</time>
      </trkpt>
      <trkpt lat="47.16964" lon="6.08788">
        <ele>463.6</ele>
        <time>2026-05-24T09:38:44Z</time>
      </trkpt>
      <trkpt lat="47.1696" lon="6.08785">
        <ele>464</ele>
        <time>2026-05-24T09:38:45Z</time>
      </trkpt>
      <trkpt lat="47.16957" lon="6.08782">
        <ele>464.4</ele>
        <time>2026-05-24T09:38:46Z</time>
      </trkpt>
      <trkpt lat="47.16955" lon="6.08777">
        <ele>464.6</ele>
        <time>2026-05-24T09:38:47Z</time>
      </trkpt>
      <trkpt lat="47.16954" lon="6.08772">
        <ele>464.8</ele>
        <time>2026-05-24T09:38:48Z</time>
      </trkpt>
      <trkpt lat="47.16955" lon="6.08767">
        <ele>464.8</ele>
        <time>2026-05-24T09:38:49Z</time>
      </trkpt>
      <trkpt lat="47.16957" lon="6.08762">
        <ele>465</ele>
        <time>2026-05-24T09:38:50Z</time>
      </trkpt>
      <trkpt lat="47.16958" lon="6.08757">
        <ele>465</ele>
        <time>2026-05-24T09:38:51Z</time>
      </trkpt>
      <trkpt lat="47.16959" lon="6.08753">
        <ele>465.2</ele>
        <time>2026-05-24T09:38:52Z</time>
      </trkpt>
      <trkpt lat="47.1696" lon="6.08748">
        <ele>465.4</ele>
        <time>2026-05-24T09:38:53Z</time>
      </trkpt>
      <trkpt lat="47.16961" lon="6.08744">
        <ele>465.4</ele>
        <time>2026-05-24T09:38:54Z</time>
      </trkpt>
      <trkpt lat="47.16963" lon="6.08739">
        <ele>465.6</ele>
        <time>2026-05-24T09:38:55Z</time>
      </trkpt>
      <trkpt lat="47.16964" lon="6.08735">
        <ele>465.6</ele>
        <time>2026-05-24T09:38:56Z</time>
      </trkpt>
      <trkpt lat="47.16965" lon="6.08731">
        <ele>465.6</ele>
        <time>2026-05-24T09:38:57Z</time>
      </trkpt>
      <trkpt lat="47.16966" lon="6.08727">
        <ele>465.8</ele>
        <time>2026-05-24T09:38:58Z</time>
      </trkpt>
      <trkpt lat="47.16967" lon="6.08722">
        <ele>466.2</ele>
        <time>2026-05-24T09:38:59Z</time>
      </trkpt>
      <trkpt lat="47.16968" lon="6.08717">
        <ele>466.4</ele>
        <time>2026-05-24T09:39:00Z</time>
      </trkpt>
      <trkpt lat="47.16969" lon="6.08712">
        <ele>466.6</ele>
        <time>2026-05-24T09:39:01Z</time>
      </trkpt>
      <trkpt lat="47.1697" lon="6.08707">
        <ele>466.6</ele>
        <time>2026-05-24T09:39:02Z</time>
      </trkpt>
      <trkpt lat="47.16971" lon="6.08703">
        <ele>466.8</ele>
        <time>2026-05-24T09:39:03Z</time>
      </trkpt>
      <trkpt lat="47.16971" lon="6.08699">
        <ele>467</ele>
        <time>2026-05-24T09:39:04Z</time>
      </trkpt>
      <trkpt lat="47.16972" lon="6.08695">
        <ele>467</ele>
        <time>2026-05-24T09:39:05Z</time>
      </trkpt>
      <trkpt lat="47.16974" lon="6.0869">
        <ele>467</ele>
        <time>2026-05-24T09:39:06Z</time>
      </trkpt>
      <trkpt lat="47.16975" lon="6.08684">
        <ele>467.4</ele>
        <time>2026-05-24T09:39:07Z</time>
      </trkpt>
      <trkpt lat="47.16977" lon="6.08678">
        <ele>467.4</ele>
        <time>2026-05-24T09:39:08Z</time>
      </trkpt>
      <trkpt lat="47.16978" lon="6.08673">
        <ele>467.6</ele>
        <time>2026-05-24T09:39:09Z</time>
      </trkpt>
      <trkpt lat="47.16978" lon="6.08668">
        <ele>467.6</ele>
        <time>2026-05-24T09:39:10Z</time>
      </trkpt>
      <trkpt lat="47.1698" lon="6.08664">
        <ele>467.6</ele>
        <time>2026-05-24T09:39:11Z</time>
      </trkpt>
      <trkpt lat="47.16981" lon="6.0866">
        <ele>467.8</ele>
        <time>2026-05-24T09:39:12Z</time>
      </trkpt>
      <trkpt lat="47.16983" lon="6.08656">
        <ele>468</ele>
        <time>2026-05-24T09:39:13Z</time>
      </trkpt>
      <trkpt lat="47.16985" lon="6.08652">
        <ele>468</ele>
        <time>2026-05-24T09:39:14Z</time>
      </trkpt>
      <trkpt lat="47.16987" lon="6.08648">
        <ele>468.2</ele>
        <time>2026-05-24T09:39:15Z</time>
      </trkpt>
      <trkpt lat="47.16988" lon="6.08644">
        <ele>468.4</ele>
        <time>2026-05-24T09:39:16Z</time>
      </trkpt>
      <trkpt lat="47.1699" lon="6.08641">
        <ele>468.4</ele>
        <time>2026-05-24T09:39:17Z</time>
      </trkpt>
      <trkpt lat="47.16992" lon="6.08636">
        <ele>468.4</ele>
        <time>2026-05-24T09:39:18Z</time>
      </trkpt>
      <trkpt lat="47.16994" lon="6.08632">
        <ele>468.4</ele>
        <time>2026-05-24T09:39:19Z</time>
      </trkpt>
      <trkpt lat="47.16996" lon="6.08627">
        <ele>468.6</ele>
        <time>2026-05-24T09:39:20Z</time>
      </trkpt>
      <trkpt lat="47.16997" lon="6.08623">
        <ele>468.8</ele>
        <time>2026-05-24T09:39:21Z</time>
      </trkpt>
      <trkpt lat="47.16999" lon="6.0862">
        <ele>469</ele>
        <time>2026-05-24T09:39:22Z</time>
      </trkpt>
      <trkpt lat="47.17001" lon="6.08618">
        <ele>469.2</ele>
        <time>2026-05-24T09:39:23Z</time>
      </trkpt>
      <trkpt lat="47.17003" lon="6.08615">
        <ele>469.2</ele>
        <time>2026-05-24T09:39:24Z</time>
      </trkpt>
      <trkpt lat="47.17004" lon="6.08611">
        <ele>469.4</ele>
        <time>2026-05-24T09:39:25Z</time>
      </trkpt>
      <trkpt lat="47.17005" lon="6.08607">
        <ele>469.6</ele>
        <time>2026-05-24T09:39:26Z</time>
      </trkpt>
      <trkpt lat="47.17006" lon="6.08603">
        <ele>469.8</ele>
        <time>2026-05-24T09:39:27Z</time>
      </trkpt>
      <trkpt lat="47.17007" lon="6.086">
        <ele>469.8</ele>
        <time>2026-05-24T09:39:28Z</time>
      </trkpt>
      <trkpt lat="47.17009" lon="6.08597">
        <ele>470</ele>
        <time>2026-05-24T09:39:29Z</time>
      </trkpt>
      <trkpt lat="47.1701" lon="6.08593">
        <ele>470.4</ele>
        <time>2026-05-24T09:39:30Z</time>
      </trkpt>
      <trkpt lat="47.17011" lon="6.08591">
        <ele>470.4</ele>
        <time>2026-05-24T09:39:31Z</time>
      </trkpt>
      <trkpt lat="47.17012" lon="6.08589">
        <ele>470.6</ele>
        <time>2026-05-24T09:39:32Z</time>
      </trkpt>
      <trkpt lat="47.17013" lon="6.08586">
        <ele>470.6</ele>
        <time>2026-05-24T09:39:33Z</time>
      </trkpt>
      <trkpt lat="47.17015" lon="6.08585">
        <ele>471</ele>
        <time>2026-05-24T09:39:34Z</time>
      </trkpt>
      <trkpt lat="47.17016" lon="6.08584">
        <ele>471</ele>
        <time>2026-05-24T09:39:35Z</time>
      </trkpt>
      <trkpt lat="47.17017" lon="6.08582">
        <ele>471.2</ele>
        <time>2026-05-24T09:39:36Z</time>
      </trkpt>
      <trkpt lat="47.17018" lon="6.0858">
        <ele>471.2</ele>
        <time>2026-05-24T09:39:37Z</time>
      </trkpt>
      <trkpt lat="47.1702" lon="6.08578">
        <ele>471.4</ele>
        <time>2026-05-24T09:39:38Z</time>
      </trkpt>
      <trkpt lat="47.17021" lon="6.08576">
        <ele>471.6</ele>
        <time>2026-05-24T09:39:39Z</time>
      </trkpt>
      <trkpt lat="47.17021" lon="6.08574">
        <ele>471.8</ele>
        <time>2026-05-24T09:39:40Z</time>
      </trkpt>
      <trkpt lat="47.17022" lon="6.08571">
        <ele>472</ele>
        <time>2026-05-24T09:39:41Z</time>
      </trkpt>
      <trkpt lat="47.17023" lon="6.08568">
        <ele>472</ele>
        <time>2026-05-24T09:39:42Z</time>
      </trkpt>
      <trkpt lat="47.17023" lon="6.08564">
        <ele>472</ele>
        <time>2026-05-24T09:39:43Z</time>
      </trkpt>
      <trkpt lat="47.17024" lon="6.0856">
        <ele>472</ele>
        <time>2026-05-24T09:39:44Z</time>
      </trkpt>
      <trkpt lat="47.17024" lon="6.08556">
        <ele>472</ele>
        <time>2026-05-24T09:39:45Z</time>
      </trkpt>
      <trkpt lat="47.17025" lon="6.08552">
        <ele>472</ele>
        <time>2026-05-24T09:39:46Z</time>
      </trkpt>
      <trkpt lat="47.17025" lon="6.08548">
        <ele>472</ele>
        <time>2026-05-24T09:39:47Z</time>
      </trkpt>
      <trkpt lat="47.17025" lon="6.08544">
        <ele>472</ele>
        <time>2026-05-24T09:39:48Z</time>
      </trkpt>
      <trkpt lat="47.17026" lon="6.0854">
        <ele>472</ele>
        <time>2026-05-24T09:39:49Z</time>
      </trkpt>
      <trkpt lat="47.17025" lon="6.08536">
        <ele>472.2</ele>
        <time>2026-05-24T09:39:50Z</time>
      </trkpt>
      <trkpt lat="47.17025" lon="6.08531">
        <ele>472</ele>
        <time>2026-05-24T09:39:51Z</time>
      </trkpt>
      <trkpt lat="47.17024" lon="6.08527">
        <ele>472</ele>
        <time>2026-05-24T09:39:52Z</time>
      </trkpt>
      <trkpt lat="47.17022" lon="6.08522">
        <ele>472</ele>
        <time>2026-05-24T09:39:53Z</time>
      </trkpt>
      <trkpt lat="47.17022" lon="6.08517">
        <ele>472</ele>
        <time>2026-05-24T09:39:54Z</time>
      </trkpt>
      <trkpt lat="47.17021" lon="6.08512">
        <ele>471.8</ele>
        <time>2026-05-24T09:39:55Z</time>
      </trkpt>
      <trkpt lat="47.1702" lon="6.08507">
        <ele>471.8</ele>
        <time>2026-05-24T09:39:56Z</time>
      </trkpt>
      <trkpt lat="47.17019" lon="6.08502">
        <ele>471.6</ele>
        <time>2026-05-24T09:39:57Z</time>
      </trkpt>
      <trkpt lat="47.17019" lon="6.08498">
        <ele>471.4</ele>
        <time>2026-05-24T09:39:58Z</time>
      </trkpt>
      <trkpt lat="47.1702" lon="6.08492">
        <ele>471.4</ele>
        <time>2026-05-24T09:39:59Z</time>
      </trkpt>
      <trkpt lat="47.1702" lon="6.08487">
        <ele>471.4</ele>
        <time>2026-05-24T09:40:00Z</time>
      </trkpt>
      <trkpt lat="47.1702" lon="6.08482">
        <ele>471.2</ele>
        <time>2026-05-24T09:40:01Z</time>
      </trkpt>
      <trkpt lat="47.17021" lon="6.08477">
        <ele>471</ele>
        <time>2026-05-24T09:40:02Z</time>
      </trkpt>
      <trkpt lat="47.17021" lon="6.08471">
        <ele>471</ele>
        <time>2026-05-24T09:40:03Z</time>
      </trkpt>
      <trkpt lat="47.17022" lon="6.08465">
        <ele>470.8</ele>
        <time>2026-05-24T09:40:04Z</time>
      </trkpt>
      <trkpt lat="47.17023" lon="6.08459">
        <ele>470.8</ele>
        <time>2026-05-24T09:40:05Z</time>
      </trkpt>
      <trkpt lat="47.17024" lon="6.08454">
        <ele>470.6</ele>
        <time>2026-05-24T09:40:06Z</time>
      </trkpt>
      <trkpt lat="47.17026" lon="6.08449">
        <ele>470.6</ele>
        <time>2026-05-24T09:40:07Z</time>
      </trkpt>
      <trkpt lat="47.17026" lon="6.08444">
        <ele>470.4</ele>
        <time>2026-05-24T09:40:08Z</time>
      </trkpt>
      <trkpt lat="47.17028" lon="6.08439">
        <ele>470.4</ele>
        <time>2026-05-24T09:40:09Z</time>
      </trkpt>
      <trkpt lat="47.17028" lon="6.08435">
        <ele>470.4</ele>
        <time>2026-05-24T09:40:10Z</time>
      </trkpt>
      <trkpt lat="47.17029" lon="6.0843">
        <ele>470.2</ele>
        <time>2026-05-24T09:40:11Z</time>
      </trkpt>
      <trkpt lat="47.17029" lon="6.08424">
        <ele>470.2</ele>
        <time>2026-05-24T09:40:12Z</time>
      </trkpt>
      <trkpt lat="47.1703" lon="6.08419">
        <ele>470.2</ele>
        <time>2026-05-24T09:40:13Z</time>
      </trkpt>
      <trkpt lat="47.17031" lon="6.08414">
        <ele>470</ele>
        <time>2026-05-24T09:40:14Z</time>
      </trkpt>
      <trkpt lat="47.17032" lon="6.08411">
        <ele>470.2</ele>
        <time>2026-05-24T09:40:15Z</time>
      </trkpt>
      <trkpt lat="47.17033" lon="6.08407">
        <ele>470</ele>
        <time>2026-05-24T09:40:16Z</time>
      </trkpt>
      <trkpt lat="47.17034" lon="6.08402">
        <ele>470.2</ele>
        <time>2026-05-24T09:40:17Z</time>
      </trkpt>
      <trkpt lat="47.17034" lon="6.08398">
        <ele>470.2</ele>
        <time>2026-05-24T09:40:18Z</time>
      </trkpt>
      <trkpt lat="47.17034" lon="6.08393">
        <ele>470</ele>
        <time>2026-05-24T09:40:19Z</time>
      </trkpt>
      <trkpt lat="47.17035" lon="6.08389">
        <ele>470.2</ele>
        <time>2026-05-24T09:40:20Z</time>
      </trkpt>
      <trkpt lat="47.17035" lon="6.08385">
        <ele>470.2</ele>
        <time>2026-05-24T09:40:21Z</time>
      </trkpt>
      <trkpt lat="47.17035" lon="6.08381">
        <ele>470.2</ele>
        <time>2026-05-24T09:40:22Z</time>
      </trkpt>
      <trkpt lat="47.17035" lon="6.08378">
        <ele>470.2</ele>
        <time>2026-05-24T09:40:23Z</time>
      </trkpt>
      <trkpt lat="47.17036" lon="6.08374">
        <ele>470.4</ele>
        <time>2026-05-24T09:40:24Z</time>
      </trkpt>
      <trkpt lat="47.17036" lon="6.0837">
        <ele>470.2</ele>
        <time>2026-05-24T09:40:25Z</time>
      </trkpt>
      <trkpt lat="47.17036" lon="6.08366">
        <ele>470.4</ele>
        <time>2026-05-24T09:40:26Z</time>
      </trkpt>
      <trkpt lat="47.17036" lon="6.08362">
        <ele>470.6</ele>
        <time>2026-05-24T09:40:27Z</time>
      </trkpt>
      <trkpt lat="47.17037" lon="6.08358">
        <ele>470.6</ele>
        <time>2026-05-24T09:40:28Z</time>
      </trkpt>
      <trkpt lat="47.17038" lon="6.08353">
        <ele>470.8</ele>
        <time>2026-05-24T09:40:29Z</time>
      </trkpt>
      <trkpt lat="47.17038" lon="6.08349">
        <ele>471.4</ele>
        <time>2026-05-24T09:40:30Z</time>
      </trkpt>
      <trkpt lat="47.17037" lon="6.08346">
        <ele>471.4</ele>
        <time>2026-05-24T09:40:31Z</time>
      </trkpt>
      <trkpt lat="47.17034" lon="6.08344">
        <ele>471.6</ele>
        <time>2026-05-24T09:40:32Z</time>
      </trkpt>
      <trkpt lat="47.17031" lon="6.08341">
        <ele>472</ele>
        <time>2026-05-24T09:40:33Z</time>
      </trkpt>
      <trkpt lat="47.17029" lon="6.08337">
        <ele>472.2</ele>
        <time>2026-05-24T09:40:34Z</time>
      </trkpt>
      <trkpt lat="47.17028" lon="6.08334">
        <ele>472.2</ele>
        <time>2026-05-24T09:40:35Z</time>
      </trkpt>
      <trkpt lat="47.17028" lon="6.08331">
        <ele>472.4</ele>
        <time>2026-05-24T09:40:36Z</time>
      </trkpt>
      <trkpt lat="47.17029" lon="6.08328">
        <ele>472.6</ele>
        <time>2026-05-24T09:40:37Z</time>
      </trkpt>
      <trkpt lat="47.17029" lon="6.08325">
        <ele>472.8</ele>
        <time>2026-05-24T09:40:38Z</time>
      </trkpt>
      <trkpt lat="47.17031" lon="6.08321">
        <ele>472.8</ele>
        <time>2026-05-24T09:40:39Z</time>
      </trkpt>
      <trkpt lat="47.17032" lon="6.08318">
        <ele>472.8</ele>
        <time>2026-05-24T09:40:40Z</time>
      </trkpt>
      <trkpt lat="47.17034" lon="6.08314">
        <ele>472.8</ele>
        <time>2026-05-24T09:40:41Z</time>
      </trkpt>
      <trkpt lat="47.17036" lon="6.08309">
        <ele>473</ele>
        <time>2026-05-24T09:40:42Z</time>
      </trkpt>
      <trkpt lat="47.17038" lon="6.08305">
        <ele>473</ele>
        <time>2026-05-24T09:40:43Z</time>
      </trkpt>
      <trkpt lat="47.17041" lon="6.08299">
        <ele>472.8</ele>
        <time>2026-05-24T09:40:44Z</time>
      </trkpt>
      <trkpt lat="47.17044" lon="6.08293">
        <ele>472.8</ele>
        <time>2026-05-24T09:40:45Z</time>
      </trkpt>
      <trkpt lat="47.17046" lon="6.08287">
        <ele>472.8</ele>
        <time>2026-05-24T09:40:46Z</time>
      </trkpt>
      <trkpt lat="47.17049" lon="6.0828">
        <ele>472.8</ele>
        <time>2026-05-24T09:40:47Z</time>
      </trkpt>
      <trkpt lat="47.17051" lon="6.08274">
        <ele>472.8</ele>
        <time>2026-05-24T09:40:48Z</time>
      </trkpt>
      <trkpt lat="47.17053" lon="6.08269">
        <ele>473</ele>
        <time>2026-05-24T09:40:49Z</time>
      </trkpt>
      <trkpt lat="47.17054" lon="6.08266">
        <ele>472.8</ele>
        <time>2026-05-24T09:40:50Z</time>
      </trkpt>
      <trkpt lat="47.17056" lon="6.08263">
        <ele>472.8</ele>
        <time>2026-05-24T09:40:51Z</time>
      </trkpt>
      <trkpt lat="47.17058" lon="6.08261">
        <ele>472.8</ele>
        <time>2026-05-24T09:40:52Z</time>
      </trkpt>
      <trkpt lat="47.17059" lon="6.08259">
        <ele>472.8</ele>
        <time>2026-05-24T09:40:53Z</time>
      </trkpt>
      <trkpt lat="47.1706" lon="6.08257">
        <ele>472.8</ele>
        <time>2026-05-24T09:40:54Z</time>
      </trkpt>
      <trkpt lat="47.17061" lon="6.08254">
        <ele>472.8</ele>
        <time>2026-05-24T09:40:55Z</time>
      </trkpt>
      <trkpt lat="47.17062" lon="6.08251">
        <ele>472.8</ele>
        <time>2026-05-24T09:40:56Z</time>
      </trkpt>
      <trkpt lat="47.17063" lon="6.08249">
        <ele>472.8</ele>
        <time>2026-05-24T09:40:57Z</time>
      </trkpt>
      <trkpt lat="47.17063" lon="6.08247">
        <ele>473</ele>
        <time>2026-05-24T09:40:58Z</time>
      </trkpt>
      <trkpt lat="47.17063" lon="6.08244">
        <ele>472.8</ele>
        <time>2026-05-24T09:40:59Z</time>
      </trkpt>
      <trkpt lat="47.17064" lon="6.08242">
        <ele>473</ele>
        <time>2026-05-24T09:41:00Z</time>
      </trkpt>
      <trkpt lat="47.17065" lon="6.08239">
        <ele>473</ele>
        <time>2026-05-24T09:41:01Z</time>
      </trkpt>
      <trkpt lat="47.17066" lon="6.08237">
        <ele>473.2</ele>
        <time>2026-05-24T09:41:02Z</time>
      </trkpt>
      <trkpt lat="47.17068" lon="6.08234">
        <ele>473.6</ele>
        <time>2026-05-24T09:41:03Z</time>
      </trkpt>
      <trkpt lat="47.17068" lon="6.08232">
        <ele>474</ele>
        <time>2026-05-24T09:41:04Z</time>
      </trkpt>
      <trkpt lat="47.17069" lon="6.0823">
        <ele>474.4</ele>
        <time>2026-05-24T09:41:05Z</time>
      </trkpt>
      <trkpt lat="47.17069" lon="6.08228">
        <ele>474.8</ele>
        <time>2026-05-24T09:41:06Z</time>
      </trkpt>
      <trkpt lat="47.1707" lon="6.08226">
        <ele>475.2</ele>
        <time>2026-05-24T09:41:07Z</time>
      </trkpt>
      <trkpt lat="47.1707" lon="6.08224">
        <ele>475.6</ele>
        <time>2026-05-24T09:41:08Z</time>
      </trkpt>
      <trkpt lat="47.17071" lon="6.08221">
        <ele>475.8</ele>
        <time>2026-05-24T09:41:09Z</time>
      </trkpt>
      <trkpt lat="47.17072" lon="6.08219">
        <ele>476.2</ele>
        <time>2026-05-24T09:41:10Z</time>
      </trkpt>
      <trkpt lat="47.17073" lon="6.08217">
        <ele>476.6</ele>
        <time>2026-05-24T09:41:11Z</time>
      </trkpt>
      <trkpt lat="47.17074" lon="6.08215">
        <ele>477</ele>
        <time>2026-05-24T09:41:12Z</time>
      </trkpt>
      <trkpt lat="47.17074" lon="6.08213">
        <ele>477.2</ele>
        <time>2026-05-24T09:41:13Z</time>
      </trkpt>
      <trkpt lat="47.17075" lon="6.08211">
        <ele>477.6</ele>
        <time>2026-05-24T09:41:14Z</time>
      </trkpt>
      <trkpt lat="47.17077" lon="6.08209">
        <ele>477.6</ele>
        <time>2026-05-24T09:41:15Z</time>
      </trkpt>
      <trkpt lat="47.17078" lon="6.08206">
        <ele>477.8</ele>
        <time>2026-05-24T09:41:16Z</time>
      </trkpt>
      <trkpt lat="47.17078" lon="6.08203">
        <ele>478</ele>
        <time>2026-05-24T09:41:17Z</time>
      </trkpt>
      <trkpt lat="47.17079" lon="6.082">
        <ele>478.2</ele>
        <time>2026-05-24T09:41:18Z</time>
      </trkpt>
      <trkpt lat="47.1708" lon="6.08198">
        <ele>478.6</ele>
        <time>2026-05-24T09:41:19Z</time>
      </trkpt>
      <trkpt lat="47.17081" lon="6.08195">
        <ele>478.8</ele>
        <time>2026-05-24T09:41:20Z</time>
      </trkpt>
      <trkpt lat="47.17081" lon="6.08193">
        <ele>479</ele>
        <time>2026-05-24T09:41:21Z</time>
      </trkpt>
      <trkpt lat="47.17082" lon="6.08191">
        <ele>479.4</ele>
        <time>2026-05-24T09:41:22Z</time>
      </trkpt>
      <trkpt lat="47.17083" lon="6.08188">
        <ele>479.6</ele>
        <time>2026-05-24T09:41:23Z</time>
      </trkpt>
      <trkpt lat="47.17084" lon="6.08185">
        <ele>479.8</ele>
        <time>2026-05-24T09:41:24Z</time>
      </trkpt>
      <trkpt lat="47.17085" lon="6.08182">
        <ele>480</ele>
        <time>2026-05-24T09:41:25Z</time>
      </trkpt>
      <trkpt lat="47.17087" lon="6.08179">
        <ele>480.2</ele>
        <time>2026-05-24T09:41:26Z</time>
      </trkpt>
      <trkpt lat="47.17088" lon="6.08176">
        <ele>480.2</ele>
        <time>2026-05-24T09:41:27Z</time>
      </trkpt>
      <trkpt lat="47.17089" lon="6.08173">
        <ele>480.6</ele>
        <time>2026-05-24T09:41:28Z</time>
      </trkpt>
      <trkpt lat="47.1709" lon="6.08171">
        <ele>480.8</ele>
        <time>2026-05-24T09:41:29Z</time>
      </trkpt>
      <trkpt lat="47.1709" lon="6.08169">
        <ele>481</ele>
        <time>2026-05-24T09:41:30Z</time>
      </trkpt>
      <trkpt lat="47.17092" lon="6.08166">
        <ele>481.2</ele>
        <time>2026-05-24T09:41:31Z</time>
      </trkpt>
      <trkpt lat="47.17094" lon="6.08164">
        <ele>481.4</ele>
        <time>2026-05-24T09:41:32Z</time>
      </trkpt>
      <trkpt lat="47.17096" lon="6.08162">
        <ele>481.8</ele>
        <time>2026-05-24T09:41:33Z</time>
      </trkpt>
      <trkpt lat="47.17098" lon="6.08159">
        <ele>482</ele>
        <time>2026-05-24T09:41:34Z</time>
      </trkpt>
      <trkpt lat="47.17099" lon="6.08156">
        <ele>482</ele>
        <time>2026-05-24T09:41:35Z</time>
      </trkpt>
      <trkpt lat="47.17101" lon="6.08153">
        <ele>482.2</ele>
        <time>2026-05-24T09:41:36Z</time>
      </trkpt>
      <trkpt lat="47.17102" lon="6.08151">
        <ele>482.2</ele>
        <time>2026-05-24T09:41:37Z</time>
      </trkpt>
      <trkpt lat="47.17104" lon="6.08148">
        <ele>482.2</ele>
        <time>2026-05-24T09:41:38Z</time>
      </trkpt>
      <trkpt lat="47.17106" lon="6.08146">
        <ele>482.6</ele>
        <time>2026-05-24T09:41:39Z</time>
      </trkpt>
      <trkpt lat="47.17109" lon="6.08144">
        <ele>482.8</ele>
        <time>2026-05-24T09:41:40Z</time>
      </trkpt>
      <trkpt lat="47.17111" lon="6.08141">
        <ele>482.8</ele>
        <time>2026-05-24T09:41:41Z</time>
      </trkpt>
      <trkpt lat="47.17112" lon="6.08139">
        <ele>482.8</ele>
        <time>2026-05-24T09:41:42Z</time>
      </trkpt>
      <trkpt lat="47.17114" lon="6.08136">
        <ele>482.8</ele>
        <time>2026-05-24T09:41:43Z</time>
      </trkpt>
      <trkpt lat="47.17116" lon="6.08134">
        <ele>482.8</ele>
        <time>2026-05-24T09:41:44Z</time>
      </trkpt>
      <trkpt lat="47.17117" lon="6.0813">
        <ele>483</ele>
        <time>2026-05-24T09:41:45Z</time>
      </trkpt>
      <trkpt lat="47.17119" lon="6.08127">
        <ele>482.8</ele>
        <time>2026-05-24T09:41:46Z</time>
      </trkpt>
      <trkpt lat="47.1712" lon="6.08124">
        <ele>482.8</ele>
        <time>2026-05-24T09:41:47Z</time>
      </trkpt>
      <trkpt lat="47.17122" lon="6.0812">
        <ele>483</ele>
        <time>2026-05-24T09:41:48Z</time>
      </trkpt>
      <trkpt lat="47.17124" lon="6.08117">
        <ele>483</ele>
        <time>2026-05-24T09:41:49Z</time>
      </trkpt>
      <trkpt lat="47.17125" lon="6.08114">
        <ele>483</ele>
        <time>2026-05-24T09:41:50Z</time>
      </trkpt>
      <trkpt lat="47.17127" lon="6.08111">
        <ele>483</ele>
        <time>2026-05-24T09:41:51Z</time>
      </trkpt>
      <trkpt lat="47.17128" lon="6.08108">
        <ele>483</ele>
        <time>2026-05-24T09:41:52Z</time>
      </trkpt>
      <trkpt lat="47.1713" lon="6.08104">
        <ele>483</ele>
        <time>2026-05-24T09:41:53Z</time>
      </trkpt>
      <trkpt lat="47.17132" lon="6.08101">
        <ele>483</ele>
        <time>2026-05-24T09:41:54Z</time>
      </trkpt>
      <trkpt lat="47.17135" lon="6.08099">
        <ele>483.2</ele>
        <time>2026-05-24T09:41:55Z</time>
      </trkpt>
      <trkpt lat="47.17137" lon="6.08096">
        <ele>483.4</ele>
        <time>2026-05-24T09:41:56Z</time>
      </trkpt>
      <trkpt lat="47.17139" lon="6.08092">
        <ele>483.2</ele>
        <time>2026-05-24T09:41:57Z</time>
      </trkpt>
      <trkpt lat="47.17141" lon="6.08087">
        <ele>483.4</ele>
        <time>2026-05-24T09:41:58Z</time>
      </trkpt>
      <trkpt lat="47.17142" lon="6.08083">
        <ele>483.4</ele>
        <time>2026-05-24T09:41:59Z</time>
      </trkpt>
      <trkpt lat="47.17144" lon="6.08078">
        <ele>483.4</ele>
        <time>2026-05-24T09:42:00Z</time>
      </trkpt>
      <trkpt lat="47.17146" lon="6.08073">
        <ele>483.4</ele>
        <time>2026-05-24T09:42:01Z</time>
      </trkpt>
      <trkpt lat="47.17148" lon="6.08068">
        <ele>483.4</ele>
        <time>2026-05-24T09:42:02Z</time>
      </trkpt>
      <trkpt lat="47.17151" lon="6.08064">
        <ele>483.4</ele>
        <time>2026-05-24T09:42:03Z</time>
      </trkpt>
      <trkpt lat="47.17153" lon="6.0806">
        <ele>483.6</ele>
        <time>2026-05-24T09:42:04Z</time>
      </trkpt>
      <trkpt lat="47.17156" lon="6.08056">
        <ele>483.4</ele>
        <time>2026-05-24T09:42:05Z</time>
      </trkpt>
      <trkpt lat="47.17158" lon="6.08053">
        <ele>483.4</ele>
        <time>2026-05-24T09:42:06Z</time>
      </trkpt>
      <trkpt lat="47.1716" lon="6.0805">
        <ele>483.6</ele>
        <time>2026-05-24T09:42:07Z</time>
      </trkpt>
      <trkpt lat="47.17162" lon="6.08048">
        <ele>483.6</ele>
        <time>2026-05-24T09:42:08Z</time>
      </trkpt>
      <trkpt lat="47.17164" lon="6.08045">
        <ele>483.6</ele>
        <time>2026-05-24T09:42:09Z</time>
      </trkpt>
      <trkpt lat="47.17165" lon="6.08041">
        <ele>483.6</ele>
        <time>2026-05-24T09:42:10Z</time>
      </trkpt>
      <trkpt lat="47.17167" lon="6.08037">
        <ele>483.6</ele>
        <time>2026-05-24T09:42:11Z</time>
      </trkpt>
      <trkpt lat="47.17169" lon="6.08032">
        <ele>483.4</ele>
        <time>2026-05-24T09:42:12Z</time>
      </trkpt>
      <trkpt lat="47.17172" lon="6.08028">
        <ele>483.4</ele>
        <time>2026-05-24T09:42:13Z</time>
      </trkpt>
      <trkpt lat="47.17174" lon="6.08023">
        <ele>483.4</ele>
        <time>2026-05-24T09:42:14Z</time>
      </trkpt>
      <trkpt lat="47.17177" lon="6.08019">
        <ele>483.6</ele>
        <time>2026-05-24T09:42:15Z</time>
      </trkpt>
      <trkpt lat="47.17179" lon="6.08014">
        <ele>483.4</ele>
        <time>2026-05-24T09:42:16Z</time>
      </trkpt>
      <trkpt lat="47.17182" lon="6.08009">
        <ele>483.4</ele>
        <time>2026-05-24T09:42:17Z</time>
      </trkpt>
      <trkpt lat="47.17184" lon="6.08003">
        <ele>483.6</ele>
        <time>2026-05-24T09:42:18Z</time>
      </trkpt>
      <trkpt lat="47.17187" lon="6.07995">
        <ele>483.2</ele>
        <time>2026-05-24T09:42:19Z</time>
      </trkpt>
      <trkpt lat="47.1719" lon="6.07988">
        <ele>483.2</ele>
        <time>2026-05-24T09:42:20Z</time>
      </trkpt>
      <trkpt lat="47.17193" lon="6.07983">
        <ele>483.2</ele>
        <time>2026-05-24T09:42:21Z</time>
      </trkpt>
      <trkpt lat="47.17195" lon="6.07979">
        <ele>483</ele>
        <time>2026-05-24T09:42:22Z</time>
      </trkpt>
      <trkpt lat="47.17196" lon="6.07975">
        <ele>482.8</ele>
        <time>2026-05-24T09:42:23Z</time>
      </trkpt>
      <trkpt lat="47.17196" lon="6.07972">
        <ele>482.8</ele>
        <time>2026-05-24T09:42:24Z</time>
      </trkpt>
      <trkpt lat="47.17195" lon="6.07969">
        <ele>482.6</ele>
        <time>2026-05-24T09:42:25Z</time>
      </trkpt>
      <trkpt lat="47.17195" lon="6.07965">
        <ele>482.6</ele>
        <time>2026-05-24T09:42:26Z</time>
      </trkpt>
      <trkpt lat="47.17197" lon="6.07961">
        <ele>482.2</ele>
        <time>2026-05-24T09:42:27Z</time>
      </trkpt>
      <trkpt lat="47.17199" lon="6.07957">
        <ele>482</ele>
        <time>2026-05-24T09:42:28Z</time>
      </trkpt>
      <trkpt lat="47.17202" lon="6.07954">
        <ele>481.6</ele>
        <time>2026-05-24T09:42:29Z</time>
      </trkpt>
      <trkpt lat="47.17205" lon="6.0795">
        <ele>481.4</ele>
        <time>2026-05-24T09:42:30Z</time>
      </trkpt>
      <trkpt lat="47.17208" lon="6.07945">
        <ele>481</ele>
        <time>2026-05-24T09:42:31Z</time>
      </trkpt>
      <trkpt lat="47.1721" lon="6.0794">
        <ele>480.8</ele>
        <time>2026-05-24T09:42:32Z</time>
      </trkpt>
      <trkpt lat="47.17214" lon="6.07936">
        <ele>480.2</ele>
        <time>2026-05-24T09:42:33Z</time>
      </trkpt>
      <trkpt lat="47.17217" lon="6.0793">
        <ele>479.8</ele>
        <time>2026-05-24T09:42:34Z</time>
      </trkpt>
      <trkpt lat="47.1722" lon="6.07925">
        <ele>479.8</ele>
        <time>2026-05-24T09:42:35Z</time>
      </trkpt>
      <trkpt lat="47.17224" lon="6.07921">
        <ele>479.6</ele>
        <time>2026-05-24T09:42:36Z</time>
      </trkpt>
      <trkpt lat="47.17227" lon="6.07916">
        <ele>479.6</ele>
        <time>2026-05-24T09:42:37Z</time>
      </trkpt>
      <trkpt lat="47.1723" lon="6.07912">
        <ele>479.4</ele>
        <time>2026-05-24T09:42:38Z</time>
      </trkpt>
      <trkpt lat="47.17233" lon="6.07908">
        <ele>479.6</ele>
        <time>2026-05-24T09:42:39Z</time>
      </trkpt>
      <trkpt lat="47.17236" lon="6.07904">
        <ele>479.6</ele>
        <time>2026-05-24T09:42:40Z</time>
      </trkpt>
      <trkpt lat="47.17239" lon="6.079">
        <ele>479.4</ele>
        <time>2026-05-24T09:42:41Z</time>
      </trkpt>
      <trkpt lat="47.17241" lon="6.07897">
        <ele>479.6</ele>
        <time>2026-05-24T09:42:42Z</time>
      </trkpt>
      <trkpt lat="47.17243" lon="6.07893">
        <ele>479.6</ele>
        <time>2026-05-24T09:42:43Z</time>
      </trkpt>
      <trkpt lat="47.17246" lon="6.07889">
        <ele>479.4</ele>
        <time>2026-05-24T09:42:44Z</time>
      </trkpt>
      <trkpt lat="47.17249" lon="6.07885">
        <ele>479.6</ele>
        <time>2026-05-24T09:42:45Z</time>
      </trkpt>
      <trkpt lat="47.17251" lon="6.0788">
        <ele>479.4</ele>
        <time>2026-05-24T09:42:46Z</time>
      </trkpt>
      <trkpt lat="47.17252" lon="6.07874">
        <ele>479.6</ele>
        <time>2026-05-24T09:42:47Z</time>
      </trkpt>
      <trkpt lat="47.17252" lon="6.07867">
        <ele>479.8</ele>
        <time>2026-05-24T09:42:48Z</time>
      </trkpt>
      <trkpt lat="47.17251" lon="6.07861">
        <ele>479.8</ele>
        <time>2026-05-24T09:42:49Z</time>
      </trkpt>
      <trkpt lat="47.17249" lon="6.07853">
        <ele>480</ele>
        <time>2026-05-24T09:42:50Z</time>
      </trkpt>
      <trkpt lat="47.17246" lon="6.07845">
        <ele>480</ele>
        <time>2026-05-24T09:42:51Z</time>
      </trkpt>
      <trkpt lat="47.17243" lon="6.07836">
        <ele>480.2</ele>
        <time>2026-05-24T09:42:52Z</time>
      </trkpt>
      <trkpt lat="47.17239" lon="6.07826">
        <ele>480.2</ele>
        <time>2026-05-24T09:42:53Z</time>
      </trkpt>
      <trkpt lat="47.17236" lon="6.07816">
        <ele>480.2</ele>
        <time>2026-05-24T09:42:54Z</time>
      </trkpt>
      <trkpt lat="47.17232" lon="6.07806">
        <ele>480.2</ele>
        <time>2026-05-24T09:42:55Z</time>
      </trkpt>
      <trkpt lat="47.17228" lon="6.07796">
        <ele>480.2</ele>
        <time>2026-05-24T09:42:56Z</time>
      </trkpt>
      <trkpt lat="47.17224" lon="6.07785">
        <ele>480.4</ele>
        <time>2026-05-24T09:42:57Z</time>
      </trkpt>
      <trkpt lat="47.17221" lon="6.07774">
        <ele>480.4</ele>
        <time>2026-05-24T09:42:58Z</time>
      </trkpt>
      <trkpt lat="47.17218" lon="6.07762">
        <ele>480.4</ele>
        <time>2026-05-24T09:42:59Z</time>
      </trkpt>
      <trkpt lat="47.17214" lon="6.0775">
        <ele>480</ele>
        <time>2026-05-24T09:43:00Z</time>
      </trkpt>
      <trkpt lat="47.17211" lon="6.07738">
        <ele>480</ele>
        <time>2026-05-24T09:43:01Z</time>
      </trkpt>
      <trkpt lat="47.17208" lon="6.07726">
        <ele>479.4</ele>
        <time>2026-05-24T09:43:02Z</time>
      </trkpt>
      <trkpt lat="47.17205" lon="6.07715">
        <ele>479</ele>
        <time>2026-05-24T09:43:03Z</time>
      </trkpt>
      <trkpt lat="47.17202" lon="6.07703">
        <ele>478.6</ele>
        <time>2026-05-24T09:43:04Z</time>
      </trkpt>
      <trkpt lat="47.17199" lon="6.07691">
        <ele>478.6</ele>
        <time>2026-05-24T09:43:05Z</time>
      </trkpt>
      <trkpt lat="47.17198" lon="6.07679">
        <ele>478</ele>
        <time>2026-05-24T09:43:06Z</time>
      </trkpt>
      <trkpt lat="47.17196" lon="6.07668">
        <ele>477.4</ele>
        <time>2026-05-24T09:43:07Z</time>
      </trkpt>
      <trkpt lat="47.17199" lon="6.07657">
        <ele>476.8</ele>
        <time>2026-05-24T09:43:08Z</time>
      </trkpt>
      <trkpt lat="47.17203" lon="6.07648">
        <ele>476.2</ele>
        <time>2026-05-24T09:43:09Z</time>
      </trkpt>
      <trkpt lat="47.17209" lon="6.07639">
        <ele>475.6</ele>
        <time>2026-05-24T09:43:10Z</time>
      </trkpt>
      <trkpt lat="47.17214" lon="6.07633">
        <ele>475.4</ele>
        <time>2026-05-24T09:43:11Z</time>
      </trkpt>
      <trkpt lat="47.1722" lon="6.07627">
        <ele>475.2</ele>
        <time>2026-05-24T09:43:12Z</time>
      </trkpt>
      <trkpt lat="47.17226" lon="6.07623">
        <ele>474.8</ele>
        <time>2026-05-24T09:43:13Z</time>
      </trkpt>
      <trkpt lat="47.17231" lon="6.07618">
        <ele>474.6</ele>
        <time>2026-05-24T09:43:14Z</time>
      </trkpt>
      <trkpt lat="47.17236" lon="6.07613">
        <ele>474.2</ele>
        <time>2026-05-24T09:43:15Z</time>
      </trkpt>
      <trkpt lat="47.1724" lon="6.07606">
        <ele>473.8</ele>
        <time>2026-05-24T09:43:16Z</time>
      </trkpt>
      <trkpt lat="47.17242" lon="6.07599">
        <ele>473.6</ele>
        <time>2026-05-24T09:43:17Z</time>
      </trkpt>
      <trkpt lat="47.17242" lon="6.07593">
        <ele>473.6</ele>
        <time>2026-05-24T09:43:18Z</time>
      </trkpt>
      <trkpt lat="47.17241" lon="6.07587">
        <ele>473.6</ele>
        <time>2026-05-24T09:43:19Z</time>
      </trkpt>
      <trkpt lat="47.17237" lon="6.07582">
        <ele>473.4</ele>
        <time>2026-05-24T09:43:20Z</time>
      </trkpt>
      <trkpt lat="47.17233" lon="6.07578">
        <ele>473.4</ele>
        <time>2026-05-24T09:43:21Z</time>
      </trkpt>
      <trkpt lat="47.17229" lon="6.07574">
        <ele>473.4</ele>
        <time>2026-05-24T09:43:22Z</time>
      </trkpt>
      <trkpt lat="47.17225" lon="6.07569">
        <ele>473.2</ele>
        <time>2026-05-24T09:43:23Z</time>
      </trkpt>
      <trkpt lat="47.17222" lon="6.07564">
        <ele>473.2</ele>
        <time>2026-05-24T09:43:24Z</time>
      </trkpt>
      <trkpt lat="47.17221" lon="6.07558">
        <ele>473</ele>
        <time>2026-05-24T09:43:25Z</time>
      </trkpt>
      <trkpt lat="47.17221" lon="6.07552">
        <ele>472.8</ele>
        <time>2026-05-24T09:43:26Z</time>
      </trkpt>
      <trkpt lat="47.17223" lon="6.07547">
        <ele>472.8</ele>
        <time>2026-05-24T09:43:27Z</time>
      </trkpt>
      <trkpt lat="47.17225" lon="6.07542">
        <ele>472.8</ele>
        <time>2026-05-24T09:43:28Z</time>
      </trkpt>
      <trkpt lat="47.17227" lon="6.07537">
        <ele>472.6</ele>
        <time>2026-05-24T09:43:29Z</time>
      </trkpt>
      <trkpt lat="47.1723" lon="6.07532">
        <ele>472.6</ele>
        <time>2026-05-24T09:43:30Z</time>
      </trkpt>
      <trkpt lat="47.17234" lon="6.07527">
        <ele>472.4</ele>
        <time>2026-05-24T09:43:31Z</time>
      </trkpt>
      <trkpt lat="47.17238" lon="6.07522">
        <ele>472.2</ele>
        <time>2026-05-24T09:43:32Z</time>
      </trkpt>
      <trkpt lat="47.17242" lon="6.07515">
        <ele>472</ele>
        <time>2026-05-24T09:43:33Z</time>
      </trkpt>
      <trkpt lat="47.17246" lon="6.07508">
        <ele>471.8</ele>
        <time>2026-05-24T09:43:34Z</time>
      </trkpt>
      <trkpt lat="47.1725" lon="6.075">
        <ele>471.6</ele>
        <time>2026-05-24T09:43:35Z</time>
      </trkpt>
      <trkpt lat="47.17254" lon="6.07492">
        <ele>471.2</ele>
        <time>2026-05-24T09:43:36Z</time>
      </trkpt>
      <trkpt lat="47.17257" lon="6.07484">
        <ele>471</ele>
        <time>2026-05-24T09:43:37Z</time>
      </trkpt>
      <trkpt lat="47.1726" lon="6.07476">
        <ele>470.6</ele>
        <time>2026-05-24T09:43:38Z</time>
      </trkpt>
      <trkpt lat="47.17262" lon="6.07467">
        <ele>470.4</ele>
        <time>2026-05-24T09:43:39Z</time>
      </trkpt>
      <trkpt lat="47.17264" lon="6.07459">
        <ele>469.8</ele>
        <time>2026-05-24T09:43:40Z</time>
      </trkpt>
      <trkpt lat="47.17266" lon="6.07452">
        <ele>469.2</ele>
        <time>2026-05-24T09:43:41Z</time>
      </trkpt>
      <trkpt lat="47.17268" lon="6.07445">
        <ele>469</ele>
        <time>2026-05-24T09:43:42Z</time>
      </trkpt>
      <trkpt lat="47.1727" lon="6.07438">
        <ele>468.4</ele>
        <time>2026-05-24T09:43:43Z</time>
      </trkpt>
      <trkpt lat="47.17272" lon="6.07432">
        <ele>468.2</ele>
        <time>2026-05-24T09:43:44Z</time>
      </trkpt>
      <trkpt lat="47.17274" lon="6.07426">
        <ele>468</ele>
        <time>2026-05-24T09:43:45Z</time>
      </trkpt>
      <trkpt lat="47.17276" lon="6.0742">
        <ele>467.8</ele>
        <time>2026-05-24T09:43:46Z</time>
      </trkpt>
      <trkpt lat="47.17278" lon="6.07414">
        <ele>467.8</ele>
        <time>2026-05-24T09:43:47Z</time>
      </trkpt>
      <trkpt lat="47.1728" lon="6.07409">
        <ele>467.6</ele>
        <time>2026-05-24T09:43:48Z</time>
      </trkpt>
      <trkpt lat="47.17281" lon="6.07403">
        <ele>467.6</ele>
        <time>2026-05-24T09:43:49Z</time>
      </trkpt>
      <trkpt lat="47.17283" lon="6.07399">
        <ele>467.6</ele>
        <time>2026-05-24T09:43:50Z</time>
      </trkpt>
      <trkpt lat="47.17285" lon="6.07394">
        <ele>467.4</ele>
        <time>2026-05-24T09:43:51Z</time>
      </trkpt>
      <trkpt lat="47.17287" lon="6.07389">
        <ele>467.4</ele>
        <time>2026-05-24T09:43:52Z</time>
      </trkpt>
      <trkpt lat="47.17289" lon="6.07383">
        <ele>467.4</ele>
        <time>2026-05-24T09:43:53Z</time>
      </trkpt>
      <trkpt lat="47.17291" lon="6.07377">
        <ele>467.4</ele>
        <time>2026-05-24T09:43:54Z</time>
      </trkpt>
      <trkpt lat="47.17293" lon="6.07371">
        <ele>467.2</ele>
        <time>2026-05-24T09:43:55Z</time>
      </trkpt>
      <trkpt lat="47.17295" lon="6.07363">
        <ele>467.2</ele>
        <time>2026-05-24T09:43:56Z</time>
      </trkpt>
      <trkpt lat="47.17296" lon="6.07357">
        <ele>467.2</ele>
        <time>2026-05-24T09:43:57Z</time>
      </trkpt>
      <trkpt lat="47.17297" lon="6.07349">
        <ele>467.2</ele>
        <time>2026-05-24T09:43:58Z</time>
      </trkpt>
      <trkpt lat="47.17299" lon="6.07341">
        <ele>467</ele>
        <time>2026-05-24T09:43:59Z</time>
      </trkpt>
      <trkpt lat="47.17301" lon="6.07334">
        <ele>466.8</ele>
        <time>2026-05-24T09:44:00Z</time>
      </trkpt>
      <trkpt lat="47.17304" lon="6.07328">
        <ele>466.8</ele>
        <time>2026-05-24T09:44:01Z</time>
      </trkpt>
      <trkpt lat="47.17307" lon="6.07321">
        <ele>466.8</ele>
        <time>2026-05-24T09:44:02Z</time>
      </trkpt>
      <trkpt lat="47.1731" lon="6.07315">
        <ele>466.8</ele>
        <time>2026-05-24T09:44:03Z</time>
      </trkpt>
      <trkpt lat="47.17313" lon="6.07309">
        <ele>466.6</ele>
        <time>2026-05-24T09:44:04Z</time>
      </trkpt>
      <trkpt lat="47.17316" lon="6.07302">
        <ele>466.6</ele>
        <time>2026-05-24T09:44:05Z</time>
      </trkpt>
      <trkpt lat="47.17319" lon="6.07295">
        <ele>466.6</ele>
        <time>2026-05-24T09:44:06Z</time>
      </trkpt>
      <trkpt lat="47.17323" lon="6.07289">
        <ele>466.6</ele>
        <time>2026-05-24T09:44:07Z</time>
      </trkpt>
      <trkpt lat="47.17326" lon="6.07282">
        <ele>466.2</ele>
        <time>2026-05-24T09:44:08Z</time>
      </trkpt>
      <trkpt lat="47.1733" lon="6.07275">
        <ele>466.2</ele>
        <time>2026-05-24T09:44:09Z</time>
      </trkpt>
      <trkpt lat="47.17334" lon="6.07268">
        <ele>465.4</ele>
        <time>2026-05-24T09:44:10Z</time>
      </trkpt>
      <trkpt lat="47.17339" lon="6.07261">
        <ele>464.8</ele>
        <time>2026-05-24T09:44:11Z</time>
      </trkpt>
      <trkpt lat="47.17344" lon="6.07254">
        <ele>464.8</ele>
        <time>2026-05-24T09:44:12Z</time>
      </trkpt>
      <trkpt lat="47.1735" lon="6.07248">
        <ele>464.6</ele>
        <time>2026-05-24T09:44:13Z</time>
      </trkpt>
      <trkpt lat="47.17357" lon="6.07243">
        <ele>464.4</ele>
        <time>2026-05-24T09:44:14Z</time>
      </trkpt>
      <trkpt lat="47.17362" lon="6.07239">
        <ele>464.2</ele>
        <time>2026-05-24T09:44:15Z</time>
      </trkpt>
      <trkpt lat="47.17369" lon="6.07235">
        <ele>464</ele>
        <time>2026-05-24T09:44:16Z</time>
      </trkpt>
      <trkpt lat="47.17376" lon="6.07232">
        <ele>463.8</ele>
        <time>2026-05-24T09:44:17Z</time>
      </trkpt>
      <trkpt lat="47.17383" lon="6.07228">
        <ele>463.4</ele>
        <time>2026-05-24T09:44:18Z</time>
      </trkpt>
      <trkpt lat="47.17391" lon="6.07221">
        <ele>463.2</ele>
        <time>2026-05-24T09:44:19Z</time>
      </trkpt>
      <trkpt lat="47.17399" lon="6.07216">
        <ele>462.6</ele>
        <time>2026-05-24T09:44:20Z</time>
      </trkpt>
      <trkpt lat="47.17406" lon="6.07212">
        <ele>461.8</ele>
        <time>2026-05-24T09:44:21Z</time>
      </trkpt>
      <trkpt lat="47.17413" lon="6.07208">
        <ele>461.4</ele>
        <time>2026-05-24T09:44:22Z</time>
      </trkpt>
      <trkpt lat="47.17418" lon="6.07204">
        <ele>461</ele>
        <time>2026-05-24T09:44:23Z</time>
      </trkpt>
      <trkpt lat="47.17423" lon="6.07201">
        <ele>460.4</ele>
        <time>2026-05-24T09:44:24Z</time>
      </trkpt>
      <trkpt lat="47.17426" lon="6.072">
        <ele>459.8</ele>
        <time>2026-05-24T09:44:25Z</time>
      </trkpt>
      <trkpt lat="47.17427" lon="6.07196">
        <ele>459.2</ele>
        <time>2026-05-24T09:44:26Z</time>
      </trkpt>
      <trkpt lat="47.17426" lon="6.07194">
        <ele>459</ele>
        <time>2026-05-24T09:44:27Z</time>
      </trkpt>
      <trkpt lat="47.17425" lon="6.07192">
        <ele>458.2</ele>
        <time>2026-05-24T09:44:28Z</time>
      </trkpt>
      <trkpt lat="47.17423" lon="6.07189">
        <ele>457.6</ele>
        <time>2026-05-24T09:44:29Z</time>
      </trkpt>
      <trkpt lat="47.17421" lon="6.07187">
        <ele>457.2</ele>
        <time>2026-05-24T09:44:30Z</time>
      </trkpt>
      <trkpt lat="47.1742" lon="6.07186">
        <ele>456.8</ele>
        <time>2026-05-24T09:44:31Z</time>
      </trkpt>
      <trkpt lat="47.17419" lon="6.07186">
        <ele>456.2</ele>
        <time>2026-05-24T09:44:32Z</time>
      </trkpt>
      <trkpt lat="47.17418" lon="6.07186">
        <ele>455.6</ele>
        <time>2026-05-24T09:44:33Z</time>
      </trkpt>
      <trkpt lat="47.17417" lon="6.07185">
        <ele>455.6</ele>
        <time>2026-05-24T09:44:34Z</time>
      </trkpt>
      <trkpt lat="47.17417" lon="6.07184">
        <ele>455.2</ele>
        <time>2026-05-24T09:44:35Z</time>
      </trkpt>
      <trkpt lat="47.17416" lon="6.07182">
        <ele>455</ele>
        <time>2026-05-24T09:44:36Z</time>
      </trkpt>
      <trkpt lat="47.17415" lon="6.07181">
        <ele>454.8</ele>
        <time>2026-05-24T09:44:37Z</time>
      </trkpt>
      <trkpt lat="47.17415" lon="6.0718">
        <ele>454.8</ele>
        <time>2026-05-24T09:44:38Z</time>
      </trkpt>
      <trkpt lat="47.17414" lon="6.07179">
        <ele>454.8</ele>
        <time>2026-05-24T09:44:39Z</time>
      </trkpt>
      <trkpt lat="47.17414" lon="6.07178">
        <ele>454.8</ele>
        <time>2026-05-24T09:44:40Z</time>
      </trkpt>
      <trkpt lat="47.17414" lon="6.07177">
        <ele>454.8</ele>
        <time>2026-05-24T09:44:41Z</time>
      </trkpt>
      <trkpt lat="47.1741" lon="6.07166">
        <ele>454.6</ele>
        <time>2026-05-24T09:46:01Z</time>
      </trkpt>
      <trkpt lat="47.17409" lon="6.07163">
        <ele>454.6</ele>
        <time>2026-05-24T09:46:02Z</time>
      </trkpt>
      <trkpt lat="47.17408" lon="6.0716">
        <ele>454.6</ele>
        <time>2026-05-24T09:46:03Z</time>
      </trkpt>
      <trkpt lat="47.17407" lon="6.07157">
        <ele>454.6</ele>
        <time>2026-05-24T09:46:04Z</time>
      </trkpt>
      <trkpt lat="47.17405" lon="6.07153">
        <ele>454.6</ele>
        <time>2026-05-24T09:46:05Z</time>
      </trkpt>
      <trkpt lat="47.17404" lon="6.0715">
        <ele>454.6</ele>
        <time>2026-05-24T09:46:06Z</time>
      </trkpt>
      <trkpt lat="47.17403" lon="6.07146">
        <ele>454.8</ele>
        <time>2026-05-24T09:46:07Z</time>
      </trkpt>
      <trkpt lat="47.17403" lon="6.07142">
        <ele>454.6</ele>
        <time>2026-05-24T09:46:08Z</time>
      </trkpt>
      <trkpt lat="47.17402" lon="6.07138">
        <ele>454.8</ele>
        <time>2026-05-24T09:46:09Z</time>
      </trkpt>
      <trkpt lat="47.17402" lon="6.07134">
        <ele>454.8</ele>
        <time>2026-05-24T09:46:10Z</time>
      </trkpt>
      <trkpt lat="47.17402" lon="6.0713">
        <ele>454.8</ele>
        <time>2026-05-24T09:46:11Z</time>
      </trkpt>
      <trkpt lat="47.17402" lon="6.07126">
        <ele>455</ele>
        <time>2026-05-24T09:46:12Z</time>
      </trkpt>
      <trkpt lat="47.17401" lon="6.07123">
        <ele>455</ele>
        <time>2026-05-24T09:46:13Z</time>
      </trkpt>
      <trkpt lat="47.174" lon="6.07119">
        <ele>455</ele>
        <time>2026-05-24T09:46:14Z</time>
      </trkpt>
      <trkpt lat="47.17399" lon="6.07116">
        <ele>455</ele>
        <time>2026-05-24T09:46:15Z</time>
      </trkpt>
      <trkpt lat="47.17399" lon="6.07114">
        <ele>455.2</ele>
        <time>2026-05-24T09:46:16Z</time>
      </trkpt>
      <trkpt lat="47.17399" lon="6.07112">
        <ele>455.2</ele>
        <time>2026-05-24T09:46:17Z</time>
      </trkpt>
      <trkpt lat="47.17399" lon="6.07111">
        <ele>455.2</ele>
        <time>2026-05-24T09:46:18Z</time>
      </trkpt>
      <trkpt lat="47.17399" lon="6.07107">
        <ele>455.2</ele>
        <time>2026-05-24T09:46:19Z</time>
      </trkpt>
      <trkpt lat="47.17399" lon="6.07104">
        <ele>455.2</ele>
        <time>2026-05-24T09:46:20Z</time>
      </trkpt>
      <trkpt lat="47.17398" lon="6.07102">
        <ele>455.4</ele>
        <time>2026-05-24T09:46:21Z</time>
      </trkpt>
      <trkpt lat="47.17396" lon="6.07099">
        <ele>455.2</ele>
        <time>2026-05-24T09:46:22Z</time>
      </trkpt>
      <trkpt lat="47.17396" lon="6.07096">
        <ele>455.4</ele>
        <time>2026-05-24T09:46:23Z</time>
      </trkpt>
      <trkpt lat="47.17395" lon="6.07093">
        <ele>455.4</ele>
        <time>2026-05-24T09:46:24Z</time>
      </trkpt>
      <trkpt lat="47.17394" lon="6.07091">
        <ele>455.6</ele>
        <time>2026-05-24T09:46:25Z</time>
      </trkpt>
      <trkpt lat="47.17393" lon="6.0709">
        <ele>455.4</ele>
        <time>2026-05-24T09:46:26Z</time>
      </trkpt>
      <trkpt lat="47.17392" lon="6.07088">
        <ele>455.4</ele>
        <time>2026-05-24T09:46:27Z</time>
      </trkpt>
      <trkpt lat="47.17391" lon="6.07087">
        <ele>455.4</ele>
        <time>2026-05-24T09:46:28Z</time>
      </trkpt>
      <trkpt lat="47.17389" lon="6.07086">
        <ele>455.4</ele>
        <time>2026-05-24T09:46:29Z</time>
      </trkpt>
      <trkpt lat="47.17388" lon="6.07085">
        <ele>455.6</ele>
        <time>2026-05-24T09:46:30Z</time>
      </trkpt>
      <trkpt lat="47.17386" lon="6.07083">
        <ele>455.6</ele>
        <time>2026-05-24T09:46:31Z</time>
      </trkpt>
      <trkpt lat="47.17385" lon="6.07081">
        <ele>455.4</ele>
        <time>2026-05-24T09:46:32Z</time>
      </trkpt>
      <trkpt lat="47.17384" lon="6.07078">
        <ele>455.6</ele>
        <time>2026-05-24T09:46:33Z</time>
      </trkpt>
      <trkpt lat="47.17382" lon="6.07077">
        <ele>455.6</ele>
        <time>2026-05-24T09:46:34Z</time>
      </trkpt>
      <trkpt lat="47.17382" lon="6.07075">
        <ele>455.8</ele>
        <time>2026-05-24T09:46:35Z</time>
      </trkpt>
      <trkpt lat="47.17381" lon="6.07073">
        <ele>455.8</ele>
        <time>2026-05-24T09:46:36Z</time>
      </trkpt>
      <trkpt lat="47.1738" lon="6.07071">
        <ele>455.8</ele>
        <time>2026-05-24T09:46:37Z</time>
      </trkpt>
      <trkpt lat="47.17378" lon="6.0707">
        <ele>455.8</ele>
        <time>2026-05-24T09:46:38Z</time>
      </trkpt>
      <trkpt lat="47.17376" lon="6.07067">
        <ele>455.8</ele>
        <time>2026-05-24T09:46:39Z</time>
      </trkpt>
      <trkpt lat="47.17375" lon="6.07065">
        <ele>455.8</ele>
        <time>2026-05-24T09:46:40Z</time>
      </trkpt>
      <trkpt lat="47.17373" lon="6.0706">
        <ele>455.8</ele>
        <time>2026-05-24T09:46:41Z</time>
      </trkpt>
      <trkpt lat="47.17371" lon="6.07056">
        <ele>456</ele>
        <time>2026-05-24T09:46:42Z</time>
      </trkpt>
      <trkpt lat="47.17369" lon="6.07051">
        <ele>456</ele>
        <time>2026-05-24T09:46:43Z</time>
      </trkpt>
      <trkpt lat="47.17368" lon="6.07046">
        <ele>456</ele>
        <time>2026-05-24T09:46:44Z</time>
      </trkpt>
      <trkpt lat="47.17368" lon="6.07041">
        <ele>456</ele>
        <time>2026-05-24T09:46:45Z</time>
      </trkpt>
      <trkpt lat="47.17367" lon="6.07037">
        <ele>455.8</ele>
        <time>2026-05-24T09:46:46Z</time>
      </trkpt>
      <trkpt lat="47.17367" lon="6.07033">
        <ele>456</ele>
        <time>2026-05-24T09:46:47Z</time>
      </trkpt>
      <trkpt lat="47.17367" lon="6.0703">
        <ele>455.8</ele>
        <time>2026-05-24T09:46:48Z</time>
      </trkpt>
      <trkpt lat="47.17366" lon="6.07026">
        <ele>456.2</ele>
        <time>2026-05-24T09:46:49Z</time>
      </trkpt>
      <trkpt lat="47.17365" lon="6.07024">
        <ele>456.2</ele>
        <time>2026-05-24T09:46:50Z</time>
      </trkpt>
      <trkpt lat="47.17364" lon="6.07022">
        <ele>456.2</ele>
        <time>2026-05-24T09:46:51Z</time>
      </trkpt>
      <trkpt lat="47.17363" lon="6.07019">
        <ele>456.2</ele>
        <time>2026-05-24T09:46:52Z</time>
      </trkpt>
      <trkpt lat="47.17362" lon="6.07017">
        <ele>456.2</ele>
        <time>2026-05-24T09:46:53Z</time>
      </trkpt>
      <trkpt lat="47.17361" lon="6.07015">
        <ele>456.4</ele>
        <time>2026-05-24T09:46:54Z</time>
      </trkpt>
      <trkpt lat="47.1736" lon="6.07013">
        <ele>456.6</ele>
        <time>2026-05-24T09:46:55Z</time>
      </trkpt>
      <trkpt lat="47.17358" lon="6.0701">
        <ele>457</ele>
        <time>2026-05-24T09:46:56Z</time>
      </trkpt>
      <trkpt lat="47.17356" lon="6.07008">
        <ele>457</ele>
        <time>2026-05-24T09:46:57Z</time>
      </trkpt>
      <trkpt lat="47.17354" lon="6.07005">
        <ele>457.4</ele>
        <time>2026-05-24T09:46:58Z</time>
      </trkpt>
      <trkpt lat="47.17352" lon="6.07002">
        <ele>457.6</ele>
        <time>2026-05-24T09:46:59Z</time>
      </trkpt>
      <trkpt lat="47.17351" lon="6.06999">
        <ele>458</ele>
        <time>2026-05-24T09:47:00Z</time>
      </trkpt>
      <trkpt lat="47.17349" lon="6.06994">
        <ele>458.4</ele>
        <time>2026-05-24T09:47:01Z</time>
      </trkpt>
      <trkpt lat="47.17348" lon="6.06989">
        <ele>458.8</ele>
        <time>2026-05-24T09:47:02Z</time>
      </trkpt>
      <trkpt lat="47.17347" lon="6.06984">
        <ele>458.8</ele>
        <time>2026-05-24T09:47:03Z</time>
      </trkpt>
      <trkpt lat="47.17345" lon="6.06979">
        <ele>459</ele>
        <time>2026-05-24T09:47:04Z</time>
      </trkpt>
      <trkpt lat="47.17344" lon="6.06973">
        <ele>459.2</ele>
        <time>2026-05-24T09:47:05Z</time>
      </trkpt>
      <trkpt lat="47.17342" lon="6.06968">
        <ele>459.2</ele>
        <time>2026-05-24T09:47:06Z</time>
      </trkpt>
      <trkpt lat="47.1734" lon="6.06961">
        <ele>459.2</ele>
        <time>2026-05-24T09:47:07Z</time>
      </trkpt>
      <trkpt lat="47.17339" lon="6.06955">
        <ele>459.4</ele>
        <time>2026-05-24T09:47:08Z</time>
      </trkpt>
      <trkpt lat="47.17338" lon="6.0695">
        <ele>459.2</ele>
        <time>2026-05-24T09:47:09Z</time>
      </trkpt>
      <trkpt lat="47.17337" lon="6.06943">
        <ele>459.4</ele>
        <time>2026-05-24T09:47:10Z</time>
      </trkpt>
      <trkpt lat="47.17335" lon="6.06937">
        <ele>459.4</ele>
        <time>2026-05-24T09:47:11Z</time>
      </trkpt>
      <trkpt lat="47.17334" lon="6.0693">
        <ele>459.4</ele>
        <time>2026-05-24T09:47:12Z</time>
      </trkpt>
      <trkpt lat="47.17332" lon="6.06924">
        <ele>459.4</ele>
        <time>2026-05-24T09:47:13Z</time>
      </trkpt>
      <trkpt lat="47.17331" lon="6.06919">
        <ele>459.6</ele>
        <time>2026-05-24T09:47:14Z</time>
      </trkpt>
      <trkpt lat="47.17329" lon="6.06914">
        <ele>459.4</ele>
        <time>2026-05-24T09:47:15Z</time>
      </trkpt>
      <trkpt lat="47.17327" lon="6.06909">
        <ele>459.6</ele>
        <time>2026-05-24T09:47:16Z</time>
      </trkpt>
      <trkpt lat="47.17326" lon="6.06904">
        <ele>459.4</ele>
        <time>2026-05-24T09:47:17Z</time>
      </trkpt>
      <trkpt lat="47.17324" lon="6.06898">
        <ele>459.4</ele>
        <time>2026-05-24T09:47:18Z</time>
      </trkpt>
      <trkpt lat="47.17324" lon="6.06894">
        <ele>459.2</ele>
        <time>2026-05-24T09:47:19Z</time>
      </trkpt>
      <trkpt lat="47.17324" lon="6.0689">
        <ele>459.2</ele>
        <time>2026-05-24T09:47:20Z</time>
      </trkpt>
      <trkpt lat="47.17324" lon="6.06886">
        <ele>459</ele>
        <time>2026-05-24T09:47:21Z</time>
      </trkpt>
      <trkpt lat="47.17322" lon="6.06882">
        <ele>459</ele>
        <time>2026-05-24T09:47:22Z</time>
      </trkpt>
      <trkpt lat="47.17321" lon="6.0688">
        <ele>458.8</ele>
        <time>2026-05-24T09:47:23Z</time>
      </trkpt>
      <trkpt lat="47.17321" lon="6.06879">
        <ele>458.8</ele>
        <time>2026-05-24T09:47:24Z</time>
      </trkpt>
      <trkpt lat="47.17321" lon="6.06877">
        <ele>458.8</ele>
        <time>2026-05-24T09:47:25Z</time>
      </trkpt>
      <trkpt lat="47.17321" lon="6.06876">
        <ele>458.4</ele>
        <time>2026-05-24T09:47:26Z</time>
      </trkpt>
      <trkpt lat="47.17321" lon="6.06875">
        <ele>458</ele>
        <time>2026-05-24T09:47:27Z</time>
      </trkpt>
      <trkpt lat="47.17322" lon="6.06873">
        <ele>457.6</ele>
        <time>2026-05-24T09:47:28Z</time>
      </trkpt>
      <trkpt lat="47.17321" lon="6.06872">
        <ele>457.2</ele>
        <time>2026-05-24T09:47:29Z</time>
      </trkpt>
      <trkpt lat="47.17321" lon="6.06871">
        <ele>457</ele>
        <time>2026-05-24T09:47:30Z</time>
      </trkpt>
      <trkpt lat="47.17321" lon="6.06868">
        <ele>456.8</ele>
        <time>2026-05-24T09:47:31Z</time>
      </trkpt>
      <trkpt lat="47.17322" lon="6.06866">
        <ele>456.8</ele>
        <time>2026-05-24T09:47:32Z</time>
      </trkpt>
      <trkpt lat="47.17322" lon="6.06863">
        <ele>456.6</ele>
        <time>2026-05-24T09:47:33Z</time>
      </trkpt>
      <trkpt lat="47.17322" lon="6.0686">
        <ele>456.6</ele>
        <time>2026-05-24T09:47:34Z</time>
      </trkpt>
      <trkpt lat="47.17322" lon="6.06856">
        <ele>456.6</ele>
        <time>2026-05-24T09:47:35Z</time>
      </trkpt>
      <trkpt lat="47.17321" lon="6.06853">
        <ele>456.4</ele>
        <time>2026-05-24T09:47:36Z</time>
      </trkpt>
      <trkpt lat="47.1732" lon="6.0685">
        <ele>456.4</ele>
        <time>2026-05-24T09:47:37Z</time>
      </trkpt>
      <trkpt lat="47.1732" lon="6.06847">
        <ele>456.4</ele>
        <time>2026-05-24T09:47:38Z</time>
      </trkpt>
      <trkpt lat="47.17319" lon="6.06843">
        <ele>456.2</ele>
        <time>2026-05-24T09:47:39Z</time>
      </trkpt>
      <trkpt lat="47.17318" lon="6.0684">
        <ele>456.4</ele>
        <time>2026-05-24T09:47:40Z</time>
      </trkpt>
      <trkpt lat="47.17316" lon="6.06838">
        <ele>456.4</ele>
        <time>2026-05-24T09:47:41Z</time>
      </trkpt>
      <trkpt lat="47.17315" lon="6.06836">
        <ele>456.2</ele>
        <time>2026-05-24T09:47:42Z</time>
      </trkpt>
      <trkpt lat="47.17313" lon="6.06834">
        <ele>456</ele>
        <time>2026-05-24T09:47:43Z</time>
      </trkpt>
      <trkpt lat="47.17311" lon="6.06832">
        <ele>456</ele>
        <time>2026-05-24T09:47:44Z</time>
      </trkpt>
      <trkpt lat="47.1731" lon="6.0683">
        <ele>456</ele>
        <time>2026-05-24T09:47:45Z</time>
      </trkpt>
      <trkpt lat="47.17309" lon="6.06827">
        <ele>455.8</ele>
        <time>2026-05-24T09:47:46Z</time>
      </trkpt>
      <trkpt lat="47.17308" lon="6.06825">
        <ele>455.6</ele>
        <time>2026-05-24T09:47:47Z</time>
      </trkpt>
      <trkpt lat="47.17306" lon="6.06822">
        <ele>455.6</ele>
        <time>2026-05-24T09:47:48Z</time>
      </trkpt>
      <trkpt lat="47.17305" lon="6.06818">
        <ele>455.6</ele>
        <time>2026-05-24T09:47:49Z</time>
      </trkpt>
      <trkpt lat="47.17303" lon="6.06814">
        <ele>455.6</ele>
        <time>2026-05-24T09:47:50Z</time>
      </trkpt>
      <trkpt lat="47.173" lon="6.0681">
        <ele>455.6</ele>
        <time>2026-05-24T09:47:51Z</time>
      </trkpt>
      <trkpt lat="47.17298" lon="6.06807">
        <ele>455.6</ele>
        <time>2026-05-24T09:47:52Z</time>
      </trkpt>
      <trkpt lat="47.17296" lon="6.06804">
        <ele>455.6</ele>
        <time>2026-05-24T09:47:53Z</time>
      </trkpt>
      <trkpt lat="47.17293" lon="6.06801">
        <ele>455.6</ele>
        <time>2026-05-24T09:47:54Z</time>
      </trkpt>
      <trkpt lat="47.17292" lon="6.06798">
        <ele>455.4</ele>
        <time>2026-05-24T09:47:55Z</time>
      </trkpt>
      <trkpt lat="47.1729" lon="6.06795">
        <ele>455.4</ele>
        <time>2026-05-24T09:47:56Z</time>
      </trkpt>
      <trkpt lat="47.17289" lon="6.06792">
        <ele>455.6</ele>
        <time>2026-05-24T09:47:57Z</time>
      </trkpt>
      <trkpt lat="47.17288" lon="6.0679">
        <ele>455.6</ele>
        <time>2026-05-24T09:47:58Z</time>
      </trkpt>
      <trkpt lat="47.17288" lon="6.06788">
        <ele>455.4</ele>
        <time>2026-05-24T09:47:59Z</time>
      </trkpt>
      <trkpt lat="47.17287" lon="6.06785">
        <ele>455.4</ele>
        <time>2026-05-24T09:48:00Z</time>
      </trkpt>
      <trkpt lat="47.17285" lon="6.06783">
        <ele>455.2</ele>
        <time>2026-05-24T09:48:01Z</time>
      </trkpt>
      <trkpt lat="47.17284" lon="6.06782">
        <ele>455</ele>
        <time>2026-05-24T09:48:02Z</time>
      </trkpt>
      <trkpt lat="47.17281" lon="6.0678">
        <ele>454.8</ele>
        <time>2026-05-24T09:48:03Z</time>
      </trkpt>
      <trkpt lat="47.17279" lon="6.0678">
        <ele>454.8</ele>
        <time>2026-05-24T09:48:04Z</time>
      </trkpt>
      <trkpt lat="47.17276" lon="6.06779">
        <ele>454.4</ele>
        <time>2026-05-24T09:48:05Z</time>
      </trkpt>
      <trkpt lat="47.17274" lon="6.06778">
        <ele>454.4</ele>
        <time>2026-05-24T09:48:06Z</time>
      </trkpt>
      <trkpt lat="47.17272" lon="6.06778">
        <ele>454.2</ele>
        <time>2026-05-24T09:48:07Z</time>
      </trkpt>
      <trkpt lat="47.17269" lon="6.06776">
        <ele>454</ele>
        <time>2026-05-24T09:48:08Z</time>
      </trkpt>
      <trkpt lat="47.17267" lon="6.06775">
        <ele>454</ele>
        <time>2026-05-24T09:48:09Z</time>
      </trkpt>
      <trkpt lat="47.17264" lon="6.06774">
        <ele>453.8</ele>
        <time>2026-05-24T09:48:10Z</time>
      </trkpt>
      <trkpt lat="47.17262" lon="6.06771">
        <ele>453.6</ele>
        <time>2026-05-24T09:48:11Z</time>
      </trkpt>
      <trkpt lat="47.17258" lon="6.06769">
        <ele>453.6</ele>
        <time>2026-05-24T09:48:12Z</time>
      </trkpt>
      <trkpt lat="47.17255" lon="6.06767">
        <ele>453.6</ele>
        <time>2026-05-24T09:48:13Z</time>
      </trkpt>
      <trkpt lat="47.17253" lon="6.06764">
        <ele>453.6</ele>
        <time>2026-05-24T09:48:14Z</time>
      </trkpt>
      <trkpt lat="47.1725" lon="6.0676">
        <ele>453.8</ele>
        <time>2026-05-24T09:48:15Z</time>
      </trkpt>
      <trkpt lat="47.17247" lon="6.06757">
        <ele>453.6</ele>
        <time>2026-05-24T09:48:16Z</time>
      </trkpt>
      <trkpt lat="47.17245" lon="6.06754">
        <ele>453.8</ele>
        <time>2026-05-24T09:48:17Z</time>
      </trkpt>
      <trkpt lat="47.17243" lon="6.06751">
        <ele>453.6</ele>
        <time>2026-05-24T09:48:18Z</time>
      </trkpt>
      <trkpt lat="47.17241" lon="6.06748">
        <ele>453.6</ele>
        <time>2026-05-24T09:48:19Z</time>
      </trkpt>
      <trkpt lat="47.17238" lon="6.06745">
        <ele>453.6</ele>
        <time>2026-05-24T09:48:20Z</time>
      </trkpt>
      <trkpt lat="47.17235" lon="6.0674">
        <ele>453.8</ele>
        <time>2026-05-24T09:48:21Z</time>
      </trkpt>
      <trkpt lat="47.17232" lon="6.06736">
        <ele>453.8</ele>
        <time>2026-05-24T09:48:22Z</time>
      </trkpt>
      <trkpt lat="47.1723" lon="6.0673">
        <ele>454</ele>
        <time>2026-05-24T09:48:23Z</time>
      </trkpt>
      <trkpt lat="47.17227" lon="6.06725">
        <ele>453.8</ele>
        <time>2026-05-24T09:48:24Z</time>
      </trkpt>
      <trkpt lat="47.17224" lon="6.06718">
        <ele>453.8</ele>
        <time>2026-05-24T09:48:25Z</time>
      </trkpt>
      <trkpt lat="47.17222" lon="6.06713">
        <ele>454</ele>
        <time>2026-05-24T09:48:26Z</time>
      </trkpt>
      <trkpt lat="47.1722" lon="6.06707">
        <ele>453.8</ele>
        <time>2026-05-24T09:48:27Z</time>
      </trkpt>
      <trkpt lat="47.17218" lon="6.067">
        <ele>453.8</ele>
        <time>2026-05-24T09:48:28Z</time>
      </trkpt>
      <trkpt lat="47.17216" lon="6.06692">
        <ele>453.8</ele>
        <time>2026-05-24T09:48:29Z</time>
      </trkpt>
      <trkpt lat="47.17216" lon="6.06687">
        <ele>454</ele>
        <time>2026-05-24T09:48:30Z</time>
      </trkpt>
      <trkpt lat="47.17214" lon="6.06681">
        <ele>454</ele>
        <time>2026-05-24T09:48:31Z</time>
      </trkpt>
      <trkpt lat="47.17213" lon="6.06676">
        <ele>454</ele>
        <time>2026-05-24T09:48:32Z</time>
      </trkpt>
      <trkpt lat="47.17213" lon="6.06672">
        <ele>454</ele>
        <time>2026-05-24T09:48:33Z</time>
      </trkpt>
      <trkpt lat="47.17211" lon="6.06667">
        <ele>454</ele>
        <time>2026-05-24T09:48:34Z</time>
      </trkpt>
      <trkpt lat="47.1721" lon="6.06662">
        <ele>454</ele>
        <time>2026-05-24T09:48:35Z</time>
      </trkpt>
      <trkpt lat="47.17208" lon="6.06657">
        <ele>454</ele>
        <time>2026-05-24T09:48:36Z</time>
      </trkpt>
      <trkpt lat="47.17206" lon="6.06651">
        <ele>454</ele>
        <time>2026-05-24T09:48:37Z</time>
      </trkpt>
      <trkpt lat="47.17204" lon="6.06646">
        <ele>454.2</ele>
        <time>2026-05-24T09:48:38Z</time>
      </trkpt>
      <trkpt lat="47.17203" lon="6.06641">
        <ele>454</ele>
        <time>2026-05-24T09:48:39Z</time>
      </trkpt>
      <trkpt lat="47.172" lon="6.06635">
        <ele>454</ele>
        <time>2026-05-24T09:48:40Z</time>
      </trkpt>
      <trkpt lat="47.17198" lon="6.06631">
        <ele>454</ele>
        <time>2026-05-24T09:48:41Z</time>
      </trkpt>
      <trkpt lat="47.17196" lon="6.06627">
        <ele>454.2</ele>
        <time>2026-05-24T09:48:42Z</time>
      </trkpt>
      <trkpt lat="47.17194" lon="6.06622">
        <ele>454.2</ele>
        <time>2026-05-24T09:48:43Z</time>
      </trkpt>
      <trkpt lat="47.17191" lon="6.06619">
        <ele>454.4</ele>
        <time>2026-05-24T09:48:44Z</time>
      </trkpt>
      <trkpt lat="47.17189" lon="6.06617">
        <ele>454.4</ele>
        <time>2026-05-24T09:48:45Z</time>
      </trkpt>
      <trkpt lat="47.17188" lon="6.06616">
        <ele>454.4</ele>
        <time>2026-05-24T09:48:46Z</time>
      </trkpt>
      <trkpt lat="47.17186" lon="6.06615">
        <ele>454.4</ele>
        <time>2026-05-24T09:48:47Z</time>
      </trkpt>
      <trkpt lat="47.17185" lon="6.06613">
        <ele>454.6</ele>
        <time>2026-05-24T09:48:48Z</time>
      </trkpt>
      <trkpt lat="47.17184" lon="6.06612">
        <ele>454.6</ele>
        <time>2026-05-24T09:48:49Z</time>
      </trkpt>
      <trkpt lat="47.17183" lon="6.0661">
        <ele>454.8</ele>
        <time>2026-05-24T09:48:50Z</time>
      </trkpt>
      <trkpt lat="47.17181" lon="6.06609">
        <ele>454.8</ele>
        <time>2026-05-24T09:48:51Z</time>
      </trkpt>
      <trkpt lat="47.17179" lon="6.06608">
        <ele>454.8</ele>
        <time>2026-05-24T09:48:52Z</time>
      </trkpt>
      <trkpt lat="47.17177" lon="6.06607">
        <ele>454.8</ele>
        <time>2026-05-24T09:48:53Z</time>
      </trkpt>
      <trkpt lat="47.17175" lon="6.06606">
        <ele>454.8</ele>
        <time>2026-05-24T09:48:54Z</time>
      </trkpt>
      <trkpt lat="47.17173" lon="6.06606">
        <ele>454.8</ele>
        <time>2026-05-24T09:48:55Z</time>
      </trkpt>
      <trkpt lat="47.1717" lon="6.06605">
        <ele>454.8</ele>
        <time>2026-05-24T09:48:56Z</time>
      </trkpt>
      <trkpt lat="47.17167" lon="6.06605">
        <ele>454.8</ele>
        <time>2026-05-24T09:48:57Z</time>
      </trkpt>
      <trkpt lat="47.17165" lon="6.06605">
        <ele>454.8</ele>
        <time>2026-05-24T09:48:58Z</time>
      </trkpt>
      <trkpt lat="47.17163" lon="6.06606">
        <ele>455</ele>
        <time>2026-05-24T09:48:59Z</time>
      </trkpt>
      <trkpt lat="47.17162" lon="6.06606">
        <ele>454.8</ele>
        <time>2026-05-24T09:49:00Z</time>
      </trkpt>
      <trkpt lat="47.1716" lon="6.06607">
        <ele>455</ele>
        <time>2026-05-24T09:49:01Z</time>
      </trkpt>
      <trkpt lat="47.17157" lon="6.06609">
        <ele>454.8</ele>
        <time>2026-05-24T09:49:02Z</time>
      </trkpt>
      <trkpt lat="47.17155" lon="6.06609">
        <ele>454.8</ele>
        <time>2026-05-24T09:49:03Z</time>
      </trkpt>
      <trkpt lat="47.17153" lon="6.0661">
        <ele>455</ele>
        <time>2026-05-24T09:49:04Z</time>
      </trkpt>
      <trkpt lat="47.17151" lon="6.0661">
        <ele>454.8</ele>
        <time>2026-05-24T09:49:05Z</time>
      </trkpt>
      <trkpt lat="47.17148" lon="6.0661">
        <ele>455</ele>
        <time>2026-05-24T09:49:06Z</time>
      </trkpt>
      <trkpt lat="47.17145" lon="6.06611">
        <ele>454.8</ele>
        <time>2026-05-24T09:49:07Z</time>
      </trkpt>
      <trkpt lat="47.17141" lon="6.06612">
        <ele>455</ele>
        <time>2026-05-24T09:49:08Z</time>
      </trkpt>
      <trkpt lat="47.17136" lon="6.06613">
        <ele>455</ele>
        <time>2026-05-24T09:49:09Z</time>
      </trkpt>
      <trkpt lat="47.17132" lon="6.06613">
        <ele>455</ele>
        <time>2026-05-24T09:49:10Z</time>
      </trkpt>
      <trkpt lat="47.17127" lon="6.06614">
        <ele>455</ele>
        <time>2026-05-24T09:49:11Z</time>
      </trkpt>
      <trkpt lat="47.17123" lon="6.06614">
        <ele>455</ele>
        <time>2026-05-24T09:49:12Z</time>
      </trkpt>
      <trkpt lat="47.1712" lon="6.06614">
        <ele>455.2</ele>
        <time>2026-05-24T09:49:13Z</time>
      </trkpt>
      <trkpt lat="47.17116" lon="6.06615">
        <ele>455.2</ele>
        <time>2026-05-24T09:49:14Z</time>
      </trkpt>
      <trkpt lat="47.17113" lon="6.06615">
        <ele>455.2</ele>
        <time>2026-05-24T09:49:15Z</time>
      </trkpt>
      <trkpt lat="47.17111" lon="6.06616">
        <ele>455.4</ele>
        <time>2026-05-24T09:49:16Z</time>
      </trkpt>
      <trkpt lat="47.17108" lon="6.06618">
        <ele>455.4</ele>
        <time>2026-05-24T09:49:17Z</time>
      </trkpt>
      <trkpt lat="47.17104" lon="6.06619">
        <ele>455.6</ele>
        <time>2026-05-24T09:49:18Z</time>
      </trkpt>
      <trkpt lat="47.17102" lon="6.0662">
        <ele>455.6</ele>
        <time>2026-05-24T09:49:19Z</time>
      </trkpt>
      <trkpt lat="47.17099" lon="6.0662">
        <ele>455.6</ele>
        <time>2026-05-24T09:49:20Z</time>
      </trkpt>
      <trkpt lat="47.17096" lon="6.06621">
        <ele>455.8</ele>
        <time>2026-05-24T09:49:21Z</time>
      </trkpt>
      <trkpt lat="47.17093" lon="6.06622">
        <ele>455.8</ele>
        <time>2026-05-24T09:49:22Z</time>
      </trkpt>
      <trkpt lat="47.1709" lon="6.06623">
        <ele>456</ele>
        <time>2026-05-24T09:49:23Z</time>
      </trkpt>
      <trkpt lat="47.17088" lon="6.06623">
        <ele>456.2</ele>
        <time>2026-05-24T09:49:24Z</time>
      </trkpt>
      <trkpt lat="47.17086" lon="6.06623">
        <ele>456.2</ele>
        <time>2026-05-24T09:49:25Z</time>
      </trkpt>
      <trkpt lat="47.17085" lon="6.06624">
        <ele>456.2</ele>
        <time>2026-05-24T09:49:26Z</time>
      </trkpt>
      <trkpt lat="47.17083" lon="6.06624">
        <ele>456.4</ele>
        <time>2026-05-24T09:49:27Z</time>
      </trkpt>
      <trkpt lat="47.17082" lon="6.06624">
        <ele>456.4</ele>
        <time>2026-05-24T09:49:28Z</time>
      </trkpt>
      <trkpt lat="47.1708" lon="6.06624">
        <ele>456.8</ele>
        <time>2026-05-24T09:49:29Z</time>
      </trkpt>
      <trkpt lat="47.17078" lon="6.06625">
        <ele>456.8</ele>
        <time>2026-05-24T09:49:30Z</time>
      </trkpt>
      <trkpt lat="47.17076" lon="6.06625">
        <ele>457</ele>
        <time>2026-05-24T09:49:31Z</time>
      </trkpt>
      <trkpt lat="47.17075" lon="6.06625">
        <ele>457</ele>
        <time>2026-05-24T09:49:32Z</time>
      </trkpt>
      <trkpt lat="47.17075" lon="6.06624">
        <ele>457.2</ele>
        <time>2026-05-24T09:49:33Z</time>
      </trkpt>
      <trkpt lat="47.17073" lon="6.06622">
        <ele>457.2</ele>
        <time>2026-05-24T09:49:34Z</time>
      </trkpt>
      <trkpt lat="47.17073" lon="6.0662">
        <ele>457.2</ele>
        <time>2026-05-24T09:49:35Z</time>
      </trkpt>
      <trkpt lat="47.17072" lon="6.0662">
        <ele>457.2</ele>
        <time>2026-05-24T09:49:36Z</time>
      </trkpt>
      <trkpt lat="47.1707" lon="6.0662">
        <ele>457.2</ele>
        <time>2026-05-24T09:49:37Z</time>
      </trkpt>
      <trkpt lat="47.17069" lon="6.0662">
        <ele>457.4</ele>
        <time>2026-05-24T09:49:38Z</time>
      </trkpt>
      <trkpt lat="47.17068" lon="6.06619">
        <ele>457.4</ele>
        <time>2026-05-24T09:49:39Z</time>
      </trkpt>
      <trkpt lat="47.17067" lon="6.06618">
        <ele>457.4</ele>
        <time>2026-05-24T09:49:40Z</time>
      </trkpt>
      <trkpt lat="47.17066" lon="6.06616">
        <ele>457.4</ele>
        <time>2026-05-24T09:49:41Z</time>
      </trkpt>
      <trkpt lat="47.17065" lon="6.06616">
        <ele>457.4</ele>
        <time>2026-05-24T09:49:42Z</time>
      </trkpt>
      <trkpt lat="47.17063" lon="6.06616">
        <ele>457.6</ele>
        <time>2026-05-24T09:49:43Z</time>
      </trkpt>
      <trkpt lat="47.17062" lon="6.06616">
        <ele>457.6</ele>
        <time>2026-05-24T09:49:44Z</time>
      </trkpt>
      <trkpt lat="47.17061" lon="6.06615">
        <ele>457.6</ele>
        <time>2026-05-24T09:49:45Z</time>
      </trkpt>
      <trkpt lat="47.1706" lon="6.06615">
        <ele>457.6</ele>
        <time>2026-05-24T09:49:46Z</time>
      </trkpt>
      <trkpt lat="47.17058" lon="6.06615">
        <ele>457.6</ele>
        <time>2026-05-24T09:49:47Z</time>
      </trkpt>
      <trkpt lat="47.17057" lon="6.06616">
        <ele>457.6</ele>
        <time>2026-05-24T09:49:48Z</time>
      </trkpt>
      <trkpt lat="47.17055" lon="6.06616">
        <ele>457.8</ele>
        <time>2026-05-24T09:49:49Z</time>
      </trkpt>
      <trkpt lat="47.17054" lon="6.06617">
        <ele>457.6</ele>
        <time>2026-05-24T09:49:50Z</time>
      </trkpt>
      <trkpt lat="47.17053" lon="6.06617">
        <ele>457.8</ele>
        <time>2026-05-24T09:49:51Z</time>
      </trkpt>
      <trkpt lat="47.17053" lon="6.06617">
        <ele>457.8</ele>
        <time>2026-05-24T09:49:52Z</time>
      </trkpt>
      <trkpt lat="47.17052" lon="6.06618">
        <ele>457.8</ele>
        <time>2026-05-24T09:49:53Z</time>
      </trkpt>
      <trkpt lat="47.17052" lon="6.06618">
        <ele>457.8</ele>
        <time>2026-05-24T09:49:54Z</time>
      </trkpt>
      <trkpt lat="47.17051" lon="6.06618">
        <ele>458</ele>
        <time>2026-05-24T09:49:55Z</time>
      </trkpt>
      <trkpt lat="47.17051" lon="6.06618">
        <ele>458</ele>
        <time>2026-05-24T09:49:56Z</time>
      </trkpt>
      <trkpt lat="47.17036" lon="6.06618">
        <ele>458.8</ele>
        <time>2026-05-24T09:50:09Z</time>
      </trkpt>
      <trkpt lat="47.17033" lon="6.06618">
        <ele>458.8</ele>
        <time>2026-05-24T09:50:10Z</time>
      </trkpt>
      <trkpt lat="47.17031" lon="6.06617">
        <ele>458.8</ele>
        <time>2026-05-24T09:50:11Z</time>
      </trkpt>
      <trkpt lat="47.17027" lon="6.06615">
        <ele>459</ele>
        <time>2026-05-24T09:50:12Z</time>
      </trkpt>
      <trkpt lat="47.17023" lon="6.06614">
        <ele>459.2</ele>
        <time>2026-05-24T09:50:13Z</time>
      </trkpt>
      <trkpt lat="47.1702" lon="6.06613">
        <ele>459.2</ele>
        <time>2026-05-24T09:50:14Z</time>
      </trkpt>
      <trkpt lat="47.17016" lon="6.06613">
        <ele>459.2</ele>
        <time>2026-05-24T09:50:15Z</time>
      </trkpt>
      <trkpt lat="47.17012" lon="6.06612">
        <ele>459.2</ele>
        <time>2026-05-24T09:50:16Z</time>
      </trkpt>
      <trkpt lat="47.17009" lon="6.0661">
        <ele>459.4</ele>
        <time>2026-05-24T09:50:17Z</time>
      </trkpt>
      <trkpt lat="47.17006" lon="6.06608">
        <ele>459.6</ele>
        <time>2026-05-24T09:50:18Z</time>
      </trkpt>
      <trkpt lat="47.17002" lon="6.06605">
        <ele>459.6</ele>
        <time>2026-05-24T09:50:19Z</time>
      </trkpt>
      <trkpt lat="47.16998" lon="6.06602">
        <ele>459.6</ele>
        <time>2026-05-24T09:50:20Z</time>
      </trkpt>
      <trkpt lat="47.16994" lon="6.06599">
        <ele>459.6</ele>
        <time>2026-05-24T09:50:21Z</time>
      </trkpt>
      <trkpt lat="47.1699" lon="6.06597">
        <ele>459.6</ele>
        <time>2026-05-24T09:50:22Z</time>
      </trkpt>
      <trkpt lat="47.16987" lon="6.06595">
        <ele>459.6</ele>
        <time>2026-05-24T09:50:23Z</time>
      </trkpt>
      <trkpt lat="47.16983" lon="6.06593">
        <ele>459.8</ele>
        <time>2026-05-24T09:50:24Z</time>
      </trkpt>
      <trkpt lat="47.16979" lon="6.06591">
        <ele>459.6</ele>
        <time>2026-05-24T09:50:25Z</time>
      </trkpt>
      <trkpt lat="47.16975" lon="6.06589">
        <ele>459.6</ele>
        <time>2026-05-24T09:50:26Z</time>
      </trkpt>
      <trkpt lat="47.16972" lon="6.06588">
        <ele>459.6</ele>
        <time>2026-05-24T09:50:27Z</time>
      </trkpt>
      <trkpt lat="47.16969" lon="6.06585">
        <ele>459.8</ele>
        <time>2026-05-24T09:50:28Z</time>
      </trkpt>
      <trkpt lat="47.16966" lon="6.06583">
        <ele>459.8</ele>
        <time>2026-05-24T09:50:29Z</time>
      </trkpt>
      <trkpt lat="47.16963" lon="6.06581">
        <ele>459.8</ele>
        <time>2026-05-24T09:50:30Z</time>
      </trkpt>
      <trkpt lat="47.16961" lon="6.06578">
        <ele>459.8</ele>
        <time>2026-05-24T09:50:31Z</time>
      </trkpt>
      <trkpt lat="47.16958" lon="6.06574">
        <ele>459.8</ele>
        <time>2026-05-24T09:50:32Z</time>
      </trkpt>
      <trkpt lat="47.16956" lon="6.0657">
        <ele>459.8</ele>
        <time>2026-05-24T09:50:33Z</time>
      </trkpt>
      <trkpt lat="47.16953" lon="6.06566">
        <ele>460</ele>
        <time>2026-05-24T09:50:34Z</time>
      </trkpt>
      <trkpt lat="47.16951" lon="6.06562">
        <ele>460</ele>
        <time>2026-05-24T09:50:35Z</time>
      </trkpt>
      <trkpt lat="47.16948" lon="6.06558">
        <ele>460</ele>
        <time>2026-05-24T09:50:36Z</time>
      </trkpt>
      <trkpt lat="47.16945" lon="6.06554">
        <ele>460.2</ele>
        <time>2026-05-24T09:50:37Z</time>
      </trkpt>
      <trkpt lat="47.16942" lon="6.06551">
        <ele>460.2</ele>
        <time>2026-05-24T09:50:38Z</time>
      </trkpt>
      <trkpt lat="47.16938" lon="6.06548">
        <ele>460.2</ele>
        <time>2026-05-24T09:50:39Z</time>
      </trkpt>
      <trkpt lat="47.16935" lon="6.06546">
        <ele>460.2</ele>
        <time>2026-05-24T09:50:40Z</time>
      </trkpt>
      <trkpt lat="47.16932" lon="6.06543">
        <ele>460.2</ele>
        <time>2026-05-24T09:50:41Z</time>
      </trkpt>
      <trkpt lat="47.16929" lon="6.06539">
        <ele>460.2</ele>
        <time>2026-05-24T09:50:42Z</time>
      </trkpt>
      <trkpt lat="47.16924" lon="6.06536">
        <ele>460.2</ele>
        <time>2026-05-24T09:50:43Z</time>
      </trkpt>
      <trkpt lat="47.16921" lon="6.06533">
        <ele>460.2</ele>
        <time>2026-05-24T09:50:44Z</time>
      </trkpt>
      <trkpt lat="47.16917" lon="6.0653">
        <ele>460.2</ele>
        <time>2026-05-24T09:50:45Z</time>
      </trkpt>
      <trkpt lat="47.16913" lon="6.06527">
        <ele>460.2</ele>
        <time>2026-05-24T09:50:46Z</time>
      </trkpt>
      <trkpt lat="47.1691" lon="6.06523">
        <ele>460.2</ele>
        <time>2026-05-24T09:50:47Z</time>
      </trkpt>
      <trkpt lat="47.16905" lon="6.06519">
        <ele>460</ele>
        <time>2026-05-24T09:50:48Z</time>
      </trkpt>
      <trkpt lat="47.16902" lon="6.06515">
        <ele>459.8</ele>
        <time>2026-05-24T09:50:49Z</time>
      </trkpt>
      <trkpt lat="47.16899" lon="6.0651">
        <ele>459.8</ele>
        <time>2026-05-24T09:50:50Z</time>
      </trkpt>
      <trkpt lat="47.16897" lon="6.06505">
        <ele>459.6</ele>
        <time>2026-05-24T09:50:51Z</time>
      </trkpt>
      <trkpt lat="47.16895" lon="6.06498">
        <ele>459.6</ele>
        <time>2026-05-24T09:50:52Z</time>
      </trkpt>
      <trkpt lat="47.16892" lon="6.06492">
        <ele>459.4</ele>
        <time>2026-05-24T09:50:53Z</time>
      </trkpt>
      <trkpt lat="47.16889" lon="6.06485">
        <ele>459.6</ele>
        <time>2026-05-24T09:50:54Z</time>
      </trkpt>
      <trkpt lat="47.16886" lon="6.06478">
        <ele>459.4</ele>
        <time>2026-05-24T09:50:55Z</time>
      </trkpt>
      <trkpt lat="47.16884" lon="6.06469">
        <ele>459.2</ele>
        <time>2026-05-24T09:50:56Z</time>
      </trkpt>
      <trkpt lat="47.16881" lon="6.0646">
        <ele>459.2</ele>
        <time>2026-05-24T09:50:57Z</time>
      </trkpt>
      <trkpt lat="47.16879" lon="6.06449">
        <ele>459</ele>
        <time>2026-05-24T09:50:58Z</time>
      </trkpt>
      <trkpt lat="47.16877" lon="6.06439">
        <ele>459</ele>
        <time>2026-05-24T09:50:59Z</time>
      </trkpt>
      <trkpt lat="47.16874" lon="6.06429">
        <ele>458.8</ele>
        <time>2026-05-24T09:51:00Z</time>
      </trkpt>
      <trkpt lat="47.16871" lon="6.06418">
        <ele>458.6</ele>
        <time>2026-05-24T09:51:01Z</time>
      </trkpt>
      <trkpt lat="47.16867" lon="6.06407">
        <ele>458</ele>
        <time>2026-05-24T09:51:02Z</time>
      </trkpt>
      <trkpt lat="47.16863" lon="6.06395">
        <ele>457.6</ele>
        <time>2026-05-24T09:51:03Z</time>
      </trkpt>
      <trkpt lat="47.1686" lon="6.06384">
        <ele>457.6</ele>
        <time>2026-05-24T09:51:04Z</time>
      </trkpt>
      <trkpt lat="47.16858" lon="6.06372">
        <ele>457.2</ele>
        <time>2026-05-24T09:51:05Z</time>
      </trkpt>
      <trkpt lat="47.16856" lon="6.0636">
        <ele>457</ele>
        <time>2026-05-24T09:51:06Z</time>
      </trkpt>
      <trkpt lat="47.16854" lon="6.0635">
        <ele>456.4</ele>
        <time>2026-05-24T09:51:07Z</time>
      </trkpt>
      <trkpt lat="47.16852" lon="6.06339">
        <ele>456</ele>
        <time>2026-05-24T09:51:08Z</time>
      </trkpt>
      <trkpt lat="47.16851" lon="6.06328">
        <ele>455.2</ele>
        <time>2026-05-24T09:51:09Z</time>
      </trkpt>
      <trkpt lat="47.16849" lon="6.06319">
        <ele>455</ele>
        <time>2026-05-24T09:51:10Z</time>
      </trkpt>
      <trkpt lat="47.16848" lon="6.0631">
        <ele>454.6</ele>
        <time>2026-05-24T09:51:11Z</time>
      </trkpt>
      <trkpt lat="47.16847" lon="6.063">
        <ele>454.2</ele>
        <time>2026-05-24T09:51:12Z</time>
      </trkpt>
      <trkpt lat="47.16845" lon="6.06292">
        <ele>453.6</ele>
        <time>2026-05-24T09:51:13Z</time>
      </trkpt>
      <trkpt lat="47.16842" lon="6.06283">
        <ele>453.2</ele>
        <time>2026-05-24T09:51:14Z</time>
      </trkpt>
      <trkpt lat="47.1684" lon="6.06274">
        <ele>453</ele>
        <time>2026-05-24T09:51:15Z</time>
      </trkpt>
      <trkpt lat="47.16837" lon="6.06266">
        <ele>452.8</ele>
        <time>2026-05-24T09:51:16Z</time>
      </trkpt>
      <trkpt lat="47.16835" lon="6.06256">
        <ele>452.4</ele>
        <time>2026-05-24T09:51:17Z</time>
      </trkpt>
      <trkpt lat="47.16834" lon="6.06247">
        <ele>452</ele>
        <time>2026-05-24T09:51:18Z</time>
      </trkpt>
      <trkpt lat="47.16832" lon="6.06239">
        <ele>451.6</ele>
        <time>2026-05-24T09:51:19Z</time>
      </trkpt>
      <trkpt lat="47.1683" lon="6.06231">
        <ele>450.8</ele>
        <time>2026-05-24T09:51:20Z</time>
      </trkpt>
      <trkpt lat="47.16828" lon="6.06225">
        <ele>450.6</ele>
        <time>2026-05-24T09:51:21Z</time>
      </trkpt>
      <trkpt lat="47.16826" lon="6.06219">
        <ele>450.4</ele>
        <time>2026-05-24T09:51:22Z</time>
      </trkpt>
      <trkpt lat="47.16824" lon="6.06215">
        <ele>450.2</ele>
        <time>2026-05-24T09:51:23Z</time>
      </trkpt>
      <trkpt lat="47.16822" lon="6.0621">
        <ele>449.8</ele>
        <time>2026-05-24T09:51:24Z</time>
      </trkpt>
      <trkpt lat="47.16821" lon="6.06206">
        <ele>449.4</ele>
        <time>2026-05-24T09:51:25Z</time>
      </trkpt>
      <trkpt lat="47.1682" lon="6.06202">
        <ele>449.4</ele>
        <time>2026-05-24T09:51:26Z</time>
      </trkpt>
      <trkpt lat="47.1682" lon="6.06198">
        <ele>449</ele>
        <time>2026-05-24T09:51:27Z</time>
      </trkpt>
      <trkpt lat="47.16819" lon="6.06192">
        <ele>448.6</ele>
        <time>2026-05-24T09:51:28Z</time>
      </trkpt>
      <trkpt lat="47.16819" lon="6.06185">
        <ele>448</ele>
        <time>2026-05-24T09:51:29Z</time>
      </trkpt>
      <trkpt lat="47.16818" lon="6.06177">
        <ele>447.4</ele>
        <time>2026-05-24T09:51:30Z</time>
      </trkpt>
      <trkpt lat="47.16817" lon="6.0617">
        <ele>447</ele>
        <time>2026-05-24T09:51:31Z</time>
      </trkpt>
      <trkpt lat="47.16815" lon="6.06163">
        <ele>446.6</ele>
        <time>2026-05-24T09:51:32Z</time>
      </trkpt>
      <trkpt lat="47.16814" lon="6.06154">
        <ele>446.4</ele>
        <time>2026-05-24T09:51:33Z</time>
      </trkpt>
      <trkpt lat="47.16814" lon="6.06145">
        <ele>446.2</ele>
        <time>2026-05-24T09:51:34Z</time>
      </trkpt>
      <trkpt lat="47.16813" lon="6.06134">
        <ele>445.8</ele>
        <time>2026-05-24T09:51:35Z</time>
      </trkpt>
      <trkpt lat="47.1681" lon="6.06124">
        <ele>445.6</ele>
        <time>2026-05-24T09:51:36Z</time>
      </trkpt>
      <trkpt lat="47.16809" lon="6.06114">
        <ele>445.2</ele>
        <time>2026-05-24T09:51:37Z</time>
      </trkpt>
      <trkpt lat="47.16808" lon="6.06102">
        <ele>445</ele>
        <time>2026-05-24T09:51:38Z</time>
      </trkpt>
      <trkpt lat="47.16806" lon="6.06091">
        <ele>444.6</ele>
        <time>2026-05-24T09:51:39Z</time>
      </trkpt>
      <trkpt lat="47.16804" lon="6.06079">
        <ele>444.2</ele>
        <time>2026-05-24T09:51:40Z</time>
      </trkpt>
      <trkpt lat="47.168" lon="6.06068">
        <ele>443.8</ele>
        <time>2026-05-24T09:51:41Z</time>
      </trkpt>
      <trkpt lat="47.16797" lon="6.06059">
        <ele>443.2</ele>
        <time>2026-05-24T09:51:42Z</time>
      </trkpt>
      <trkpt lat="47.16792" lon="6.06048">
        <ele>442.6</ele>
        <time>2026-05-24T09:51:43Z</time>
      </trkpt>
      <trkpt lat="47.16788" lon="6.06039">
        <ele>442.4</ele>
        <time>2026-05-24T09:51:44Z</time>
      </trkpt>
      <trkpt lat="47.16783" lon="6.06028">
        <ele>442</ele>
        <time>2026-05-24T09:51:45Z</time>
      </trkpt>
      <trkpt lat="47.16779" lon="6.06016">
        <ele>441.6</ele>
        <time>2026-05-24T09:51:46Z</time>
      </trkpt>
      <trkpt lat="47.16775" lon="6.06003">
        <ele>440.8</ele>
        <time>2026-05-24T09:51:47Z</time>
      </trkpt>
      <trkpt lat="47.1677" lon="6.05991">
        <ele>440.8</ele>
        <time>2026-05-24T09:51:48Z</time>
      </trkpt>
      <trkpt lat="47.16766" lon="6.05979">
        <ele>440.2</ele>
        <time>2026-05-24T09:51:49Z</time>
      </trkpt>
      <trkpt lat="47.16763" lon="6.05966">
        <ele>439.8</ele>
        <time>2026-05-24T09:51:50Z</time>
      </trkpt>
      <trkpt lat="47.16759" lon="6.05955">
        <ele>439.2</ele>
        <time>2026-05-24T09:51:51Z</time>
      </trkpt>
      <trkpt lat="47.16756" lon="6.05945">
        <ele>439</ele>
        <time>2026-05-24T09:51:52Z</time>
      </trkpt>
      <trkpt lat="47.16752" lon="6.05934">
        <ele>438.4</ele>
        <time>2026-05-24T09:51:53Z</time>
      </trkpt>
      <trkpt lat="47.16748" lon="6.05925">
        <ele>438</ele>
        <time>2026-05-24T09:51:54Z</time>
      </trkpt>
      <trkpt lat="47.16745" lon="6.05916">
        <ele>437.6</ele>
        <time>2026-05-24T09:51:55Z</time>
      </trkpt>
      <trkpt lat="47.16741" lon="6.05909">
        <ele>436.8</ele>
        <time>2026-05-24T09:51:56Z</time>
      </trkpt>
      <trkpt lat="47.16738" lon="6.05904">
        <ele>436.2</ele>
        <time>2026-05-24T09:51:57Z</time>
      </trkpt>
      <trkpt lat="47.16735" lon="6.05897">
        <ele>436</ele>
        <time>2026-05-24T09:51:58Z</time>
      </trkpt>
      <trkpt lat="47.16733" lon="6.0589">
        <ele>435.8</ele>
        <time>2026-05-24T09:51:59Z</time>
      </trkpt>
      <trkpt lat="47.1673" lon="6.05883">
        <ele>435.6</ele>
        <time>2026-05-24T09:52:00Z</time>
      </trkpt>
      <trkpt lat="47.16727" lon="6.05877">
        <ele>435.2</ele>
        <time>2026-05-24T09:52:01Z</time>
      </trkpt>
      <trkpt lat="47.16724" lon="6.05873">
        <ele>435</ele>
        <time>2026-05-24T09:52:02Z</time>
      </trkpt>
      <trkpt lat="47.16721" lon="6.05869">
        <ele>435</ele>
        <time>2026-05-24T09:52:03Z</time>
      </trkpt>
      <trkpt lat="47.16719" lon="6.05868">
        <ele>434.6</ele>
        <time>2026-05-24T09:52:04Z</time>
      </trkpt>
      <trkpt lat="47.16717" lon="6.05867">
        <ele>434.4</ele>
        <time>2026-05-24T09:52:05Z</time>
      </trkpt>
      <trkpt lat="47.16715" lon="6.05866">
        <ele>434</ele>
        <time>2026-05-24T09:52:06Z</time>
      </trkpt>
      <trkpt lat="47.16714" lon="6.05865">
        <ele>433.8</ele>
        <time>2026-05-24T09:52:07Z</time>
      </trkpt>
      <trkpt lat="47.16712" lon="6.05864">
        <ele>433.8</ele>
        <time>2026-05-24T09:52:08Z</time>
      </trkpt>
      <trkpt lat="47.16694" lon="6.0584">
        <ele>432.8</ele>
        <time>2026-05-24T09:52:37Z</time>
      </trkpt>
      <trkpt lat="47.16693" lon="6.05836">
        <ele>432.6</ele>
        <time>2026-05-24T09:52:38Z</time>
      </trkpt>
      <trkpt lat="47.16692" lon="6.05831">
        <ele>432.6</ele>
        <time>2026-05-24T09:52:39Z</time>
      </trkpt>
      <trkpt lat="47.1669" lon="6.05826">
        <ele>432.8</ele>
        <time>2026-05-24T09:52:40Z</time>
      </trkpt>
      <trkpt lat="47.16689" lon="6.05822">
        <ele>432.8</ele>
        <time>2026-05-24T09:52:41Z</time>
      </trkpt>
      <trkpt lat="47.16688" lon="6.05818">
        <ele>432.8</ele>
        <time>2026-05-24T09:52:42Z</time>
      </trkpt>
      <trkpt lat="47.16685" lon="6.05815">
        <ele>432.8</ele>
        <time>2026-05-24T09:52:43Z</time>
      </trkpt>
      <trkpt lat="47.16683" lon="6.05812">
        <ele>432.8</ele>
        <time>2026-05-24T09:52:44Z</time>
      </trkpt>
      <trkpt lat="47.16682" lon="6.05809">
        <ele>433</ele>
        <time>2026-05-24T09:52:45Z</time>
      </trkpt>
      <trkpt lat="47.16679" lon="6.05806">
        <ele>433</ele>
        <time>2026-05-24T09:52:46Z</time>
      </trkpt>
      <trkpt lat="47.16675" lon="6.05804">
        <ele>433</ele>
        <time>2026-05-24T09:52:47Z</time>
      </trkpt>
      <trkpt lat="47.16672" lon="6.05801">
        <ele>432.8</ele>
        <time>2026-05-24T09:52:48Z</time>
      </trkpt>
      <trkpt lat="47.16669" lon="6.05798">
        <ele>433</ele>
        <time>2026-05-24T09:52:49Z</time>
      </trkpt>
      <trkpt lat="47.16666" lon="6.05795">
        <ele>433</ele>
        <time>2026-05-24T09:52:50Z</time>
      </trkpt>
      <trkpt lat="47.16662" lon="6.05793">
        <ele>433.2</ele>
        <time>2026-05-24T09:52:51Z</time>
      </trkpt>
      <trkpt lat="47.16658" lon="6.05791">
        <ele>433.2</ele>
        <time>2026-05-24T09:52:52Z</time>
      </trkpt>
      <trkpt lat="47.16654" lon="6.0579">
        <ele>433.4</ele>
        <time>2026-05-24T09:52:53Z</time>
      </trkpt>
      <trkpt lat="47.16651" lon="6.05788">
        <ele>433.6</ele>
        <time>2026-05-24T09:52:54Z</time>
      </trkpt>
      <trkpt lat="47.16646" lon="6.05786">
        <ele>433.6</ele>
        <time>2026-05-24T09:52:55Z</time>
      </trkpt>
      <trkpt lat="47.16643" lon="6.05781">
        <ele>433.6</ele>
        <time>2026-05-24T09:52:56Z</time>
      </trkpt>
      <trkpt lat="47.16638" lon="6.05777">
        <ele>433.6</ele>
        <time>2026-05-24T09:52:57Z</time>
      </trkpt>
      <trkpt lat="47.16635" lon="6.05774">
        <ele>433.6</ele>
        <time>2026-05-24T09:52:58Z</time>
      </trkpt>
      <trkpt lat="47.16632" lon="6.0577">
        <ele>433.6</ele>
        <time>2026-05-24T09:52:59Z</time>
      </trkpt>
      <trkpt lat="47.1663" lon="6.05768">
        <ele>433.8</ele>
        <time>2026-05-24T09:53:00Z</time>
      </trkpt>
      <trkpt lat="47.16628" lon="6.05765">
        <ele>433.8</ele>
        <time>2026-05-24T09:53:01Z</time>
      </trkpt>
      <trkpt lat="47.16625" lon="6.05763">
        <ele>433.8</ele>
        <time>2026-05-24T09:53:02Z</time>
      </trkpt>
      <trkpt lat="47.16623" lon="6.05761">
        <ele>433.8</ele>
        <time>2026-05-24T09:53:03Z</time>
      </trkpt>
      <trkpt lat="47.1662" lon="6.05758">
        <ele>433.8</ele>
        <time>2026-05-24T09:53:04Z</time>
      </trkpt>
      <trkpt lat="47.16618" lon="6.05757">
        <ele>433.8</ele>
        <time>2026-05-24T09:53:05Z</time>
      </trkpt>
      <trkpt lat="47.16618" lon="6.05756">
        <ele>433.8</ele>
        <time>2026-05-24T09:53:06Z</time>
      </trkpt>
      <trkpt lat="47.16617" lon="6.05755">
        <ele>433.6</ele>
        <time>2026-05-24T09:53:07Z</time>
      </trkpt>
      <trkpt lat="47.16617" lon="6.05755">
        <ele>433.6</ele>
        <time>2026-05-24T09:53:08Z</time>
      </trkpt>
      <trkpt lat="47.16617" lon="6.05755">
        <ele>433.6</ele>
        <time>2026-05-24T09:53:09Z</time>
      </trkpt>
      <trkpt lat="47.16602" lon="6.0576">
        <ele>433.6</ele>
        <time>2026-05-24T09:53:22Z</time>
      </trkpt>
      <trkpt lat="47.166" lon="6.05762">
        <ele>433.6</ele>
        <time>2026-05-24T09:53:23Z</time>
      </trkpt>
      <trkpt lat="47.16599" lon="6.05764">
        <ele>433.6</ele>
        <time>2026-05-24T09:53:24Z</time>
      </trkpt>
      <trkpt lat="47.16597" lon="6.05765">
        <ele>433.6</ele>
        <time>2026-05-24T09:53:25Z</time>
      </trkpt>
      <trkpt lat="47.16595" lon="6.05766">
        <ele>433.8</ele>
        <time>2026-05-24T09:53:26Z</time>
      </trkpt>
      <trkpt lat="47.16593" lon="6.05767">
        <ele>433.8</ele>
        <time>2026-05-24T09:53:27Z</time>
      </trkpt>
      <trkpt lat="47.16591" lon="6.05769">
        <ele>433.8</ele>
        <time>2026-05-24T09:53:28Z</time>
      </trkpt>
      <trkpt lat="47.16589" lon="6.05771">
        <ele>434</ele>
        <time>2026-05-24T09:53:29Z</time>
      </trkpt>
      <trkpt lat="47.16587" lon="6.05773">
        <ele>434</ele>
        <time>2026-05-24T09:53:30Z</time>
      </trkpt>
      <trkpt lat="47.16585" lon="6.05775">
        <ele>434</ele>
        <time>2026-05-24T09:53:31Z</time>
      </trkpt>
      <trkpt lat="47.16583" lon="6.05777">
        <ele>434</ele>
        <time>2026-05-24T09:53:32Z</time>
      </trkpt>
      <trkpt lat="47.1658" lon="6.05778">
        <ele>434.2</ele>
        <time>2026-05-24T09:53:33Z</time>
      </trkpt>
      <trkpt lat="47.16579" lon="6.0578">
        <ele>434</ele>
        <time>2026-05-24T09:53:34Z</time>
      </trkpt>
      <trkpt lat="47.16576" lon="6.05783">
        <ele>434.2</ele>
        <time>2026-05-24T09:53:35Z</time>
      </trkpt>
      <trkpt lat="47.16574" lon="6.05785">
        <ele>434.2</ele>
        <time>2026-05-24T09:53:36Z</time>
      </trkpt>
      <trkpt lat="47.16572" lon="6.05785">
        <ele>434</ele>
        <time>2026-05-24T09:53:37Z</time>
      </trkpt>
      <trkpt lat="47.1657" lon="6.05786">
        <ele>434.2</ele>
        <time>2026-05-24T09:53:38Z</time>
      </trkpt>
      <trkpt lat="47.16568" lon="6.05788">
        <ele>434.2</ele>
        <time>2026-05-24T09:53:39Z</time>
      </trkpt>
      <trkpt lat="47.16567" lon="6.05791">
        <ele>434.4</ele>
        <time>2026-05-24T09:53:40Z</time>
      </trkpt>
      <trkpt lat="47.16565" lon="6.05793">
        <ele>434.2</ele>
        <time>2026-05-24T09:53:41Z</time>
      </trkpt>
      <trkpt lat="47.16563" lon="6.05795">
        <ele>434.4</ele>
        <time>2026-05-24T09:53:42Z</time>
      </trkpt>
      <trkpt lat="47.1656" lon="6.05798">
        <ele>434.4</ele>
        <time>2026-05-24T09:53:43Z</time>
      </trkpt>
      <trkpt lat="47.16557" lon="6.058">
        <ele>434.6</ele>
        <time>2026-05-24T09:53:44Z</time>
      </trkpt>
      <trkpt lat="47.16555" lon="6.05802">
        <ele>434.6</ele>
        <time>2026-05-24T09:53:45Z</time>
      </trkpt>
      <trkpt lat="47.16553" lon="6.05804">
        <ele>434.6</ele>
        <time>2026-05-24T09:53:46Z</time>
      </trkpt>
      <trkpt lat="47.1655" lon="6.05806">
        <ele>434.8</ele>
        <time>2026-05-24T09:53:47Z</time>
      </trkpt>
      <trkpt lat="47.16548" lon="6.05809">
        <ele>434.8</ele>
        <time>2026-05-24T09:53:48Z</time>
      </trkpt>
      <trkpt lat="47.16545" lon="6.0581">
        <ele>434.8</ele>
        <time>2026-05-24T09:53:49Z</time>
      </trkpt>
      <trkpt lat="47.16542" lon="6.05812">
        <ele>435</ele>
        <time>2026-05-24T09:53:50Z</time>
      </trkpt>
      <trkpt lat="47.16539" lon="6.05815">
        <ele>435.2</ele>
        <time>2026-05-24T09:53:51Z</time>
      </trkpt>
      <trkpt lat="47.16537" lon="6.05817">
        <ele>435.4</ele>
        <time>2026-05-24T09:53:52Z</time>
      </trkpt>
      <trkpt lat="47.16535" lon="6.05819">
        <ele>435.4</ele>
        <time>2026-05-24T09:53:53Z</time>
      </trkpt>
      <trkpt lat="47.16532" lon="6.05821">
        <ele>435.4</ele>
        <time>2026-05-24T09:53:54Z</time>
      </trkpt>
      <trkpt lat="47.16529" lon="6.05823">
        <ele>435.4</ele>
        <time>2026-05-24T09:53:55Z</time>
      </trkpt>
      <trkpt lat="47.16527" lon="6.05825">
        <ele>435.4</ele>
        <time>2026-05-24T09:53:56Z</time>
      </trkpt>
      <trkpt lat="47.16524" lon="6.05827">
        <ele>435.6</ele>
        <time>2026-05-24T09:53:57Z</time>
      </trkpt>
      <trkpt lat="47.16521" lon="6.05829">
        <ele>435.6</ele>
        <time>2026-05-24T09:53:58Z</time>
      </trkpt>
      <trkpt lat="47.16519" lon="6.05831">
        <ele>435.8</ele>
        <time>2026-05-24T09:53:59Z</time>
      </trkpt>
      <trkpt lat="47.16516" lon="6.05834">
        <ele>435.8</ele>
        <time>2026-05-24T09:54:00Z</time>
      </trkpt>
      <trkpt lat="47.16513" lon="6.05836">
        <ele>435.8</ele>
        <time>2026-05-24T09:54:01Z</time>
      </trkpt>
      <trkpt lat="47.1651" lon="6.05839">
        <ele>436</ele>
        <time>2026-05-24T09:54:02Z</time>
      </trkpt>
      <trkpt lat="47.16507" lon="6.05842">
        <ele>436.2</ele>
        <time>2026-05-24T09:54:03Z</time>
      </trkpt>
      <trkpt lat="47.16505" lon="6.05844">
        <ele>436</ele>
        <time>2026-05-24T09:54:04Z</time>
      </trkpt>
      <trkpt lat="47.16502" lon="6.05846">
        <ele>436</ele>
        <time>2026-05-24T09:54:05Z</time>
      </trkpt>
      <trkpt lat="47.165" lon="6.05847">
        <ele>436.2</ele>
        <time>2026-05-24T09:54:06Z</time>
      </trkpt>
      <trkpt lat="47.16497" lon="6.0585">
        <ele>436.4</ele>
        <time>2026-05-24T09:54:07Z</time>
      </trkpt>
      <trkpt lat="47.16494" lon="6.05853">
        <ele>436.4</ele>
        <time>2026-05-24T09:54:08Z</time>
      </trkpt>
      <trkpt lat="47.16491" lon="6.05856">
        <ele>436.4</ele>
        <time>2026-05-24T09:54:09Z</time>
      </trkpt>
      <trkpt lat="47.16488" lon="6.05859">
        <ele>436.4</ele>
        <time>2026-05-24T09:54:10Z</time>
      </trkpt>
      <trkpt lat="47.16485" lon="6.05862">
        <ele>436.6</ele>
        <time>2026-05-24T09:54:11Z</time>
      </trkpt>
      <trkpt lat="47.16481" lon="6.05865">
        <ele>436.8</ele>
        <time>2026-05-24T09:54:12Z</time>
      </trkpt>
      <trkpt lat="47.16478" lon="6.05868">
        <ele>437</ele>
        <time>2026-05-24T09:54:13Z</time>
      </trkpt>
      <trkpt lat="47.16475" lon="6.05872">
        <ele>437</ele>
        <time>2026-05-24T09:54:14Z</time>
      </trkpt>
      <trkpt lat="47.16471" lon="6.05876">
        <ele>437</ele>
        <time>2026-05-24T09:54:15Z</time>
      </trkpt>
      <trkpt lat="47.16466" lon="6.0588">
        <ele>437.2</ele>
        <time>2026-05-24T09:54:16Z</time>
      </trkpt>
      <trkpt lat="47.16462" lon="6.05884">
        <ele>437.2</ele>
        <time>2026-05-24T09:54:17Z</time>
      </trkpt>
      <trkpt lat="47.16459" lon="6.05888">
        <ele>437.4</ele>
        <time>2026-05-24T09:54:18Z</time>
      </trkpt>
      <trkpt lat="47.16456" lon="6.05891">
        <ele>437.4</ele>
        <time>2026-05-24T09:54:19Z</time>
      </trkpt>
      <trkpt lat="47.16453" lon="6.05895">
        <ele>437.6</ele>
        <time>2026-05-24T09:54:20Z</time>
      </trkpt>
      <trkpt lat="47.16449" lon="6.05898">
        <ele>437.6</ele>
        <time>2026-05-24T09:54:21Z</time>
      </trkpt>
      <trkpt lat="47.16444" lon="6.05901">
        <ele>437.6</ele>
        <time>2026-05-24T09:54:22Z</time>
      </trkpt>
      <trkpt lat="47.16441" lon="6.05904">
        <ele>437.6</ele>
        <time>2026-05-24T09:54:23Z</time>
      </trkpt>
      <trkpt lat="47.16438" lon="6.05907">
        <ele>437.6</ele>
        <time>2026-05-24T09:54:24Z</time>
      </trkpt>
      <trkpt lat="47.16434" lon="6.0591">
        <ele>437.8</ele>
        <time>2026-05-24T09:54:25Z</time>
      </trkpt>
      <trkpt lat="47.1643" lon="6.05914">
        <ele>437.8</ele>
        <time>2026-05-24T09:54:26Z</time>
      </trkpt>
      <trkpt lat="47.16426" lon="6.05917">
        <ele>437.8</ele>
        <time>2026-05-24T09:54:27Z</time>
      </trkpt>
      <trkpt lat="47.16423" lon="6.05921">
        <ele>437.8</ele>
        <time>2026-05-24T09:54:28Z</time>
      </trkpt>
      <trkpt lat="47.16418" lon="6.05924">
        <ele>437.8</ele>
        <time>2026-05-24T09:54:29Z</time>
      </trkpt>
      <trkpt lat="47.16414" lon="6.05928">
        <ele>438</ele>
        <time>2026-05-24T09:54:30Z</time>
      </trkpt>
      <trkpt lat="47.1641" lon="6.05931">
        <ele>437.8</ele>
        <time>2026-05-24T09:54:31Z</time>
      </trkpt>
      <trkpt lat="47.16406" lon="6.05935">
        <ele>438</ele>
        <time>2026-05-24T09:54:32Z</time>
      </trkpt>
      <trkpt lat="47.16403" lon="6.05938">
        <ele>438</ele>
        <time>2026-05-24T09:54:33Z</time>
      </trkpt>
      <trkpt lat="47.164" lon="6.05942">
        <ele>438</ele>
        <time>2026-05-24T09:54:34Z</time>
      </trkpt>
      <trkpt lat="47.16397" lon="6.05945">
        <ele>438.2</ele>
        <time>2026-05-24T09:54:35Z</time>
      </trkpt>
      <trkpt lat="47.16392" lon="6.05948">
        <ele>438.2</ele>
        <time>2026-05-24T09:54:36Z</time>
      </trkpt>
      <trkpt lat="47.16389" lon="6.05952">
        <ele>438.2</ele>
        <time>2026-05-24T09:54:37Z</time>
      </trkpt>
      <trkpt lat="47.16385" lon="6.05955">
        <ele>438.4</ele>
        <time>2026-05-24T09:54:38Z</time>
      </trkpt>
      <trkpt lat="47.16381" lon="6.05958">
        <ele>438.4</ele>
        <time>2026-05-24T09:54:39Z</time>
      </trkpt>
      <trkpt lat="47.16378" lon="6.05962">
        <ele>438.6</ele>
        <time>2026-05-24T09:54:40Z</time>
      </trkpt>
      <trkpt lat="47.16374" lon="6.05965">
        <ele>438.8</ele>
        <time>2026-05-24T09:54:41Z</time>
      </trkpt>
      <trkpt lat="47.1637" lon="6.05968">
        <ele>438.8</ele>
        <time>2026-05-24T09:54:42Z</time>
      </trkpt>
      <trkpt lat="47.16366" lon="6.05971">
        <ele>438.8</ele>
        <time>2026-05-24T09:54:43Z</time>
      </trkpt>
      <trkpt lat="47.16362" lon="6.05973">
        <ele>438.8</ele>
        <time>2026-05-24T09:54:44Z</time>
      </trkpt>
      <trkpt lat="47.16357" lon="6.05975">
        <ele>439</ele>
        <time>2026-05-24T09:54:45Z</time>
      </trkpt>
      <trkpt lat="47.16352" lon="6.05977">
        <ele>439.2</ele>
        <time>2026-05-24T09:54:46Z</time>
      </trkpt>
      <trkpt lat="47.16348" lon="6.05979">
        <ele>439.2</ele>
        <time>2026-05-24T09:54:47Z</time>
      </trkpt>
      <trkpt lat="47.16344" lon="6.05979">
        <ele>439.6</ele>
        <time>2026-05-24T09:54:48Z</time>
      </trkpt>
      <trkpt lat="47.1634" lon="6.0598">
        <ele>439.6</ele>
        <time>2026-05-24T09:54:49Z</time>
      </trkpt>
      <trkpt lat="47.16336" lon="6.0598">
        <ele>440</ele>
        <time>2026-05-24T09:54:50Z</time>
      </trkpt>
      <trkpt lat="47.16333" lon="6.05981">
        <ele>440</ele>
        <time>2026-05-24T09:54:51Z</time>
      </trkpt>
      <trkpt lat="47.1633" lon="6.05981">
        <ele>440.4</ele>
        <time>2026-05-24T09:54:52Z</time>
      </trkpt>
      <trkpt lat="47.16327" lon="6.05981">
        <ele>440.6</ele>
        <time>2026-05-24T09:54:53Z</time>
      </trkpt>
      <trkpt lat="47.16324" lon="6.05981">
        <ele>440.6</ele>
        <time>2026-05-24T09:54:54Z</time>
      </trkpt>
      <trkpt lat="47.1632" lon="6.05982">
        <ele>441</ele>
        <time>2026-05-24T09:54:55Z</time>
      </trkpt>
      <trkpt lat="47.16318" lon="6.05981">
        <ele>441.4</ele>
        <time>2026-05-24T09:54:56Z</time>
      </trkpt>
      <trkpt lat="47.16315" lon="6.05981">
        <ele>441.6</ele>
        <time>2026-05-24T09:54:57Z</time>
      </trkpt>
      <trkpt lat="47.16312" lon="6.05981">
        <ele>441.8</ele>
        <time>2026-05-24T09:54:58Z</time>
      </trkpt>
      <trkpt lat="47.16308" lon="6.05981">
        <ele>441.8</ele>
        <time>2026-05-24T09:54:59Z</time>
      </trkpt>
      <trkpt lat="47.16305" lon="6.0598">
        <ele>442</ele>
        <time>2026-05-24T09:55:00Z</time>
      </trkpt>
      <trkpt lat="47.16302" lon="6.05979">
        <ele>442.4</ele>
        <time>2026-05-24T09:55:01Z</time>
      </trkpt>
      <trkpt lat="47.163" lon="6.05979">
        <ele>442.6</ele>
        <time>2026-05-24T09:55:02Z</time>
      </trkpt>
      <trkpt lat="47.16297" lon="6.05979">
        <ele>443</ele>
        <time>2026-05-24T09:55:03Z</time>
      </trkpt>
      <trkpt lat="47.16295" lon="6.05979">
        <ele>443.2</ele>
        <time>2026-05-24T09:55:04Z</time>
      </trkpt>
      <trkpt lat="47.16292" lon="6.05979">
        <ele>443.4</ele>
        <time>2026-05-24T09:55:05Z</time>
      </trkpt>
      <trkpt lat="47.1629" lon="6.05979">
        <ele>443.6</ele>
        <time>2026-05-24T09:55:06Z</time>
      </trkpt>
      <trkpt lat="47.16287" lon="6.05979">
        <ele>443.8</ele>
        <time>2026-05-24T09:55:07Z</time>
      </trkpt>
      <trkpt lat="47.16285" lon="6.05979">
        <ele>444</ele>
        <time>2026-05-24T09:55:08Z</time>
      </trkpt>
      <trkpt lat="47.16283" lon="6.0598">
        <ele>444.2</ele>
        <time>2026-05-24T09:55:09Z</time>
      </trkpt>
      <trkpt lat="47.16281" lon="6.0598">
        <ele>444.4</ele>
        <time>2026-05-24T09:55:10Z</time>
      </trkpt>
      <trkpt lat="47.16279" lon="6.05981">
        <ele>444.6</ele>
        <time>2026-05-24T09:55:11Z</time>
      </trkpt>
      <trkpt lat="47.16276" lon="6.05982">
        <ele>444.8</ele>
        <time>2026-05-24T09:55:12Z</time>
      </trkpt>
      <trkpt lat="47.16273" lon="6.05984">
        <ele>445</ele>
        <time>2026-05-24T09:55:13Z</time>
      </trkpt>
      <trkpt lat="47.16269" lon="6.05986">
        <ele>445.2</ele>
        <time>2026-05-24T09:55:14Z</time>
      </trkpt>
      <trkpt lat="47.16267" lon="6.05988">
        <ele>445.4</ele>
        <time>2026-05-24T09:55:15Z</time>
      </trkpt>
      <trkpt lat="47.16263" lon="6.05989">
        <ele>445.6</ele>
        <time>2026-05-24T09:55:16Z</time>
      </trkpt>
      <trkpt lat="47.1626" lon="6.0599">
        <ele>446</ele>
        <time>2026-05-24T09:55:17Z</time>
      </trkpt>
      <trkpt lat="47.16257" lon="6.05991">
        <ele>446.4</ele>
        <time>2026-05-24T09:55:18Z</time>
      </trkpt>
      <trkpt lat="47.16255" lon="6.05992">
        <ele>446.6</ele>
        <time>2026-05-24T09:55:19Z</time>
      </trkpt>
      <trkpt lat="47.16252" lon="6.05993">
        <ele>446.8</ele>
        <time>2026-05-24T09:55:20Z</time>
      </trkpt>
      <trkpt lat="47.16249" lon="6.05995">
        <ele>446.8</ele>
        <time>2026-05-24T09:55:21Z</time>
      </trkpt>
      <trkpt lat="47.16246" lon="6.05996">
        <ele>447</ele>
        <time>2026-05-24T09:55:22Z</time>
      </trkpt>
      <trkpt lat="47.16243" lon="6.05998">
        <ele>447.2</ele>
        <time>2026-05-24T09:55:23Z</time>
      </trkpt>
      <trkpt lat="47.1624" lon="6.05999">
        <ele>447.2</ele>
        <time>2026-05-24T09:55:24Z</time>
      </trkpt>
      <trkpt lat="47.16237" lon="6.06">
        <ele>447.4</ele>
        <time>2026-05-24T09:55:25Z</time>
      </trkpt>
      <trkpt lat="47.16235" lon="6.06001">
        <ele>447.6</ele>
        <time>2026-05-24T09:55:26Z</time>
      </trkpt>
      <trkpt lat="47.16232" lon="6.06002">
        <ele>447.6</ele>
        <time>2026-05-24T09:55:27Z</time>
      </trkpt>
      <trkpt lat="47.16231" lon="6.06002">
        <ele>447.8</ele>
        <time>2026-05-24T09:55:28Z</time>
      </trkpt>
      <trkpt lat="47.16229" lon="6.06003">
        <ele>448.2</ele>
        <time>2026-05-24T09:55:29Z</time>
      </trkpt>
      <trkpt lat="47.16226" lon="6.06003">
        <ele>448.4</ele>
        <time>2026-05-24T09:55:30Z</time>
      </trkpt>
      <trkpt lat="47.16223" lon="6.06003">
        <ele>448.6</ele>
        <time>2026-05-24T09:55:31Z</time>
      </trkpt>
      <trkpt lat="47.1622" lon="6.06004">
        <ele>448.6</ele>
        <time>2026-05-24T09:55:32Z</time>
      </trkpt>
      <trkpt lat="47.16216" lon="6.06005">
        <ele>448.8</ele>
        <time>2026-05-24T09:55:33Z</time>
      </trkpt>
      <trkpt lat="47.16212" lon="6.06007">
        <ele>449</ele>
        <time>2026-05-24T09:55:34Z</time>
      </trkpt>
      <trkpt lat="47.16209" lon="6.06008">
        <ele>449.2</ele>
        <time>2026-05-24T09:55:35Z</time>
      </trkpt>
      <trkpt lat="47.16205" lon="6.06009">
        <ele>449.2</ele>
        <time>2026-05-24T09:55:36Z</time>
      </trkpt>
      <trkpt lat="47.16202" lon="6.0601">
        <ele>449.4</ele>
        <time>2026-05-24T09:55:37Z</time>
      </trkpt>
      <trkpt lat="47.16197" lon="6.06012">
        <ele>449.6</ele>
        <time>2026-05-24T09:55:38Z</time>
      </trkpt>
      <trkpt lat="47.16193" lon="6.06013">
        <ele>449.6</ele>
        <time>2026-05-24T09:55:39Z</time>
      </trkpt>
      <trkpt lat="47.16188" lon="6.06015">
        <ele>449.8</ele>
        <time>2026-05-24T09:55:40Z</time>
      </trkpt>
      <trkpt lat="47.16185" lon="6.06016">
        <ele>450</ele>
        <time>2026-05-24T09:55:41Z</time>
      </trkpt>
      <trkpt lat="47.16181" lon="6.06017">
        <ele>450.2</ele>
        <time>2026-05-24T09:55:42Z</time>
      </trkpt>
      <trkpt lat="47.16177" lon="6.06019">
        <ele>450.4</ele>
        <time>2026-05-24T09:55:43Z</time>
      </trkpt>
      <trkpt lat="47.16174" lon="6.06021">
        <ele>450.4</ele>
        <time>2026-05-24T09:55:44Z</time>
      </trkpt>
      <trkpt lat="47.16172" lon="6.06024">
        <ele>450.6</ele>
        <time>2026-05-24T09:55:45Z</time>
      </trkpt>
      <trkpt lat="47.16169" lon="6.06026">
        <ele>450.6</ele>
        <time>2026-05-24T09:55:46Z</time>
      </trkpt>
      <trkpt lat="47.16167" lon="6.06029">
        <ele>451</ele>
        <time>2026-05-24T09:55:47Z</time>
      </trkpt>
      <trkpt lat="47.16165" lon="6.06031">
        <ele>451.4</ele>
        <time>2026-05-24T09:55:48Z</time>
      </trkpt>
      <trkpt lat="47.16163" lon="6.06034">
        <ele>451.6</ele>
        <time>2026-05-24T09:55:49Z</time>
      </trkpt>
      <trkpt lat="47.16162" lon="6.06035">
        <ele>451.8</ele>
        <time>2026-05-24T09:55:50Z</time>
      </trkpt>
      <trkpt lat="47.16161" lon="6.06037">
        <ele>452</ele>
        <time>2026-05-24T09:55:51Z</time>
      </trkpt>
      <trkpt lat="47.16159" lon="6.06039">
        <ele>452.2</ele>
        <time>2026-05-24T09:55:52Z</time>
      </trkpt>
      <trkpt lat="47.16158" lon="6.0604">
        <ele>452.8</ele>
        <time>2026-05-24T09:55:53Z</time>
      </trkpt>
      <trkpt lat="47.16157" lon="6.06042">
        <ele>453</ele>
        <time>2026-05-24T09:55:54Z</time>
      </trkpt>
      <trkpt lat="47.16156" lon="6.06043">
        <ele>453.2</ele>
        <time>2026-05-24T09:55:55Z</time>
      </trkpt>
      <trkpt lat="47.16154" lon="6.06044">
        <ele>453.4</ele>
        <time>2026-05-24T09:55:56Z</time>
      </trkpt>
      <trkpt lat="47.16154" lon="6.06043">
        <ele>453.6</ele>
        <time>2026-05-24T09:55:57Z</time>
      </trkpt>
      <trkpt lat="47.16153" lon="6.06042">
        <ele>453.6</ele>
        <time>2026-05-24T09:55:58Z</time>
      </trkpt>
      <trkpt lat="47.16152" lon="6.06039">
        <ele>453.8</ele>
        <time>2026-05-24T09:55:59Z</time>
      </trkpt>
      <trkpt lat="47.16152" lon="6.06037">
        <ele>453.8</ele>
        <time>2026-05-24T09:56:00Z</time>
      </trkpt>
      <trkpt lat="47.16151" lon="6.06034">
        <ele>453.8</ele>
        <time>2026-05-24T09:56:01Z</time>
      </trkpt>
      <trkpt lat="47.16151" lon="6.06032">
        <ele>454</ele>
        <time>2026-05-24T09:56:02Z</time>
      </trkpt>
      <trkpt lat="47.1615" lon="6.06029">
        <ele>454</ele>
        <time>2026-05-24T09:56:03Z</time>
      </trkpt>
      <trkpt lat="47.16149" lon="6.06027">
        <ele>454.2</ele>
        <time>2026-05-24T09:56:04Z</time>
      </trkpt>
      <trkpt lat="47.16148" lon="6.06025">
        <ele>454.2</ele>
        <time>2026-05-24T09:56:05Z</time>
      </trkpt>
      <trkpt lat="47.16147" lon="6.06022">
        <ele>454.2</ele>
        <time>2026-05-24T09:56:06Z</time>
      </trkpt>
      <trkpt lat="47.16146" lon="6.0602">
        <ele>454.4</ele>
        <time>2026-05-24T09:56:07Z</time>
      </trkpt>
      <trkpt lat="47.16146" lon="6.06018">
        <ele>454.4</ele>
        <time>2026-05-24T09:56:08Z</time>
      </trkpt>
      <trkpt lat="47.16144" lon="6.06016">
        <ele>454.4</ele>
        <time>2026-05-24T09:56:09Z</time>
      </trkpt>
      <trkpt lat="47.16143" lon="6.06013">
        <ele>454.6</ele>
        <time>2026-05-24T09:56:10Z</time>
      </trkpt>
      <trkpt lat="47.16142" lon="6.06011">
        <ele>454.8</ele>
        <time>2026-05-24T09:56:11Z</time>
      </trkpt>
      <trkpt lat="47.1614" lon="6.06009">
        <ele>454.8</ele>
        <time>2026-05-24T09:56:12Z</time>
      </trkpt>
      <trkpt lat="47.16138" lon="6.06007">
        <ele>454.6</ele>
        <time>2026-05-24T09:56:13Z</time>
      </trkpt>
      <trkpt lat="47.16136" lon="6.06005">
        <ele>454.6</ele>
        <time>2026-05-24T09:56:14Z</time>
      </trkpt>
      <trkpt lat="47.16135" lon="6.06003">
        <ele>454.8</ele>
        <time>2026-05-24T09:56:15Z</time>
      </trkpt>
      <trkpt lat="47.16133" lon="6.06001">
        <ele>454.8</ele>
        <time>2026-05-24T09:56:16Z</time>
      </trkpt>
      <trkpt lat="47.16132" lon="6.05999">
        <ele>454.8</ele>
        <time>2026-05-24T09:56:17Z</time>
      </trkpt>
      <trkpt lat="47.16131" lon="6.05995">
        <ele>454.8</ele>
        <time>2026-05-24T09:56:18Z</time>
      </trkpt>
      <trkpt lat="47.16129" lon="6.05993">
        <ele>454.8</ele>
        <time>2026-05-24T09:56:19Z</time>
      </trkpt>
      <trkpt lat="47.16127" lon="6.0599">
        <ele>454.8</ele>
        <time>2026-05-24T09:56:20Z</time>
      </trkpt>
      <trkpt lat="47.16125" lon="6.05987">
        <ele>454.8</ele>
        <time>2026-05-24T09:56:21Z</time>
      </trkpt>
      <trkpt lat="47.16124" lon="6.05985">
        <ele>454.6</ele>
        <time>2026-05-24T09:56:22Z</time>
      </trkpt>
      <trkpt lat="47.16123" lon="6.05981">
        <ele>454.6</ele>
        <time>2026-05-24T09:56:23Z</time>
      </trkpt>
      <trkpt lat="47.16121" lon="6.05978">
        <ele>454.6</ele>
        <time>2026-05-24T09:56:24Z</time>
      </trkpt>
      <trkpt lat="47.16119" lon="6.05975">
        <ele>454.6</ele>
        <time>2026-05-24T09:56:25Z</time>
      </trkpt>
      <trkpt lat="47.16117" lon="6.05972">
        <ele>454.6</ele>
        <time>2026-05-24T09:56:26Z</time>
      </trkpt>
      <trkpt lat="47.16115" lon="6.05969">
        <ele>454.6</ele>
        <time>2026-05-24T09:56:27Z</time>
      </trkpt>
      <trkpt lat="47.16113" lon="6.05965">
        <ele>454.6</ele>
        <time>2026-05-24T09:56:28Z</time>
      </trkpt>
      <trkpt lat="47.16111" lon="6.05961">
        <ele>454.6</ele>
        <time>2026-05-24T09:56:29Z</time>
      </trkpt>
      <trkpt lat="47.16109" lon="6.05957">
        <ele>454.6</ele>
        <time>2026-05-24T09:56:30Z</time>
      </trkpt>
      <trkpt lat="47.16108" lon="6.05953">
        <ele>454.6</ele>
        <time>2026-05-24T09:56:31Z</time>
      </trkpt>
      <trkpt lat="47.16107" lon="6.05949">
        <ele>454.6</ele>
        <time>2026-05-24T09:56:32Z</time>
      </trkpt>
      <trkpt lat="47.16105" lon="6.05945">
        <ele>454.6</ele>
        <time>2026-05-24T09:56:33Z</time>
      </trkpt>
      <trkpt lat="47.16104" lon="6.05941">
        <ele>454.6</ele>
        <time>2026-05-24T09:56:34Z</time>
      </trkpt>
      <trkpt lat="47.16103" lon="6.05936">
        <ele>454.4</ele>
        <time>2026-05-24T09:56:35Z</time>
      </trkpt>
      <trkpt lat="47.16101" lon="6.05932">
        <ele>454.6</ele>
        <time>2026-05-24T09:56:36Z</time>
      </trkpt>
      <trkpt lat="47.161" lon="6.05928">
        <ele>454.6</ele>
        <time>2026-05-24T09:56:37Z</time>
      </trkpt>
      <trkpt lat="47.16098" lon="6.05923">
        <ele>454.6</ele>
        <time>2026-05-24T09:56:38Z</time>
      </trkpt>
      <trkpt lat="47.16097" lon="6.05918">
        <ele>454.6</ele>
        <time>2026-05-24T09:56:39Z</time>
      </trkpt>
      <trkpt lat="47.16096" lon="6.05914">
        <ele>454.6</ele>
        <time>2026-05-24T09:56:40Z</time>
      </trkpt>
      <trkpt lat="47.16095" lon="6.05911">
        <ele>454.6</ele>
        <time>2026-05-24T09:56:41Z</time>
      </trkpt>
      <trkpt lat="47.16094" lon="6.05907">
        <ele>454.6</ele>
        <time>2026-05-24T09:56:42Z</time>
      </trkpt>
      <trkpt lat="47.16092" lon="6.05904">
        <ele>454.6</ele>
        <time>2026-05-24T09:56:43Z</time>
      </trkpt>
      <trkpt lat="47.1609" lon="6.05901">
        <ele>454.8</ele>
        <time>2026-05-24T09:56:44Z</time>
      </trkpt>
      <trkpt lat="47.16088" lon="6.05898">
        <ele>454.6</ele>
        <time>2026-05-24T09:56:45Z</time>
      </trkpt>
      <trkpt lat="47.16086" lon="6.05895">
        <ele>454.6</ele>
        <time>2026-05-24T09:56:46Z</time>
      </trkpt>
      <trkpt lat="47.16084" lon="6.05892">
        <ele>454.8</ele>
        <time>2026-05-24T09:56:47Z</time>
      </trkpt>
      <trkpt lat="47.16082" lon="6.05887">
        <ele>454.8</ele>
        <time>2026-05-24T09:56:48Z</time>
      </trkpt>
      <trkpt lat="47.1608" lon="6.05883">
        <ele>454.8</ele>
        <time>2026-05-24T09:56:49Z</time>
      </trkpt>
      <trkpt lat="47.16078" lon="6.05879">
        <ele>454.8</ele>
        <time>2026-05-24T09:56:50Z</time>
      </trkpt>
      <trkpt lat="47.16075" lon="6.05875">
        <ele>454.8</ele>
        <time>2026-05-24T09:56:51Z</time>
      </trkpt>
      <trkpt lat="47.16072" lon="6.0587">
        <ele>455</ele>
        <time>2026-05-24T09:56:52Z</time>
      </trkpt>
      <trkpt lat="47.16069" lon="6.05866">
        <ele>455</ele>
        <time>2026-05-24T09:56:53Z</time>
      </trkpt>
      <trkpt lat="47.16067" lon="6.05862">
        <ele>455.2</ele>
        <time>2026-05-24T09:56:54Z</time>
      </trkpt>
      <trkpt lat="47.16065" lon="6.05857">
        <ele>455.2</ele>
        <time>2026-05-24T09:56:55Z</time>
      </trkpt>
      <trkpt lat="47.16063" lon="6.05852">
        <ele>455.4</ele>
        <time>2026-05-24T09:56:56Z</time>
      </trkpt>
      <trkpt lat="47.1606" lon="6.05847">
        <ele>455.4</ele>
        <time>2026-05-24T09:56:57Z</time>
      </trkpt>
      <trkpt lat="47.16057" lon="6.05842">
        <ele>455.4</ele>
        <time>2026-05-24T09:56:58Z</time>
      </trkpt>
      <trkpt lat="47.16055" lon="6.05837">
        <ele>455.4</ele>
        <time>2026-05-24T09:56:59Z</time>
      </trkpt>
      <trkpt lat="47.16053" lon="6.05831">
        <ele>455.4</ele>
        <time>2026-05-24T09:57:00Z</time>
      </trkpt>
      <trkpt lat="47.16051" lon="6.05826">
        <ele>455.4</ele>
        <time>2026-05-24T09:57:01Z</time>
      </trkpt>
      <trkpt lat="47.16049" lon="6.05821">
        <ele>455.2</ele>
        <time>2026-05-24T09:57:02Z</time>
      </trkpt>
      <trkpt lat="47.16046" lon="6.05817">
        <ele>455.2</ele>
        <time>2026-05-24T09:57:03Z</time>
      </trkpt>
      <trkpt lat="47.16044" lon="6.05813">
        <ele>455.2</ele>
        <time>2026-05-24T09:57:04Z</time>
      </trkpt>
      <trkpt lat="47.16042" lon="6.05808">
        <ele>455.4</ele>
        <time>2026-05-24T09:57:05Z</time>
      </trkpt>
      <trkpt lat="47.1604" lon="6.05803">
        <ele>455.2</ele>
        <time>2026-05-24T09:57:06Z</time>
      </trkpt>
      <trkpt lat="47.16037" lon="6.05798">
        <ele>455.2</ele>
        <time>2026-05-24T09:57:07Z</time>
      </trkpt>
      <trkpt lat="47.16035" lon="6.05793">
        <ele>455</ele>
        <time>2026-05-24T09:57:08Z</time>
      </trkpt>
      <trkpt lat="47.16034" lon="6.05787">
        <ele>455</ele>
        <time>2026-05-24T09:57:09Z</time>
      </trkpt>
      <trkpt lat="47.16032" lon="6.05782">
        <ele>455</ele>
        <time>2026-05-24T09:57:10Z</time>
      </trkpt>
      <trkpt lat="47.16029" lon="6.05777">
        <ele>454.8</ele>
        <time>2026-05-24T09:57:11Z</time>
      </trkpt>
      <trkpt lat="47.16026" lon="6.05772">
        <ele>454.8</ele>
        <time>2026-05-24T09:57:12Z</time>
      </trkpt>
      <trkpt lat="47.16022" lon="6.05767">
        <ele>454.8</ele>
        <time>2026-05-24T09:57:13Z</time>
      </trkpt>
      <trkpt lat="47.1602" lon="6.05761">
        <ele>454.8</ele>
        <time>2026-05-24T09:57:14Z</time>
      </trkpt>
      <trkpt lat="47.16017" lon="6.05754">
        <ele>454.6</ele>
        <time>2026-05-24T09:57:15Z</time>
      </trkpt>
      <trkpt lat="47.16016" lon="6.05746">
        <ele>454.6</ele>
        <time>2026-05-24T09:57:16Z</time>
      </trkpt>
      <trkpt lat="47.16015" lon="6.05739">
        <ele>454.8</ele>
        <time>2026-05-24T09:57:17Z</time>
      </trkpt>
      <trkpt lat="47.16015" lon="6.05732">
        <ele>454.6</ele>
        <time>2026-05-24T09:57:18Z</time>
      </trkpt>
      <trkpt lat="47.16017" lon="6.05727">
        <ele>454.2</ele>
        <time>2026-05-24T09:57:19Z</time>
      </trkpt>
      <trkpt lat="47.16019" lon="6.05723">
        <ele>454</ele>
        <time>2026-05-24T09:57:20Z</time>
      </trkpt>
      <trkpt lat="47.16021" lon="6.05719">
        <ele>453.8</ele>
        <time>2026-05-24T09:57:21Z</time>
      </trkpt>
      <trkpt lat="47.16023" lon="6.05716">
        <ele>453.8</ele>
        <time>2026-05-24T09:57:22Z</time>
      </trkpt>
      <trkpt lat="47.16025" lon="6.05711">
        <ele>453.6</ele>
        <time>2026-05-24T09:57:23Z</time>
      </trkpt>
      <trkpt lat="47.16027" lon="6.05706">
        <ele>453.4</ele>
        <time>2026-05-24T09:57:24Z</time>
      </trkpt>
      <trkpt lat="47.16028" lon="6.057">
        <ele>453.2</ele>
        <time>2026-05-24T09:57:25Z</time>
      </trkpt>
      <trkpt lat="47.16028" lon="6.05695">
        <ele>453</ele>
        <time>2026-05-24T09:57:26Z</time>
      </trkpt>
      <trkpt lat="47.16028" lon="6.0569">
        <ele>452.6</ele>
        <time>2026-05-24T09:57:27Z</time>
      </trkpt>
      <trkpt lat="47.1603" lon="6.05684">
        <ele>452.6</ele>
        <time>2026-05-24T09:57:28Z</time>
      </trkpt>
      <trkpt lat="47.16031" lon="6.05679">
        <ele>452.6</ele>
        <time>2026-05-24T09:57:29Z</time>
      </trkpt>
      <trkpt lat="47.16033" lon="6.05675">
        <ele>452.4</ele>
        <time>2026-05-24T09:57:30Z</time>
      </trkpt>
      <trkpt lat="47.16036" lon="6.05671">
        <ele>452.4</ele>
        <time>2026-05-24T09:57:31Z</time>
      </trkpt>
      <trkpt lat="47.16038" lon="6.05667">
        <ele>452.2</ele>
        <time>2026-05-24T09:57:32Z</time>
      </trkpt>
      <trkpt lat="47.1604" lon="6.05664">
        <ele>452</ele>
        <time>2026-05-24T09:57:33Z</time>
      </trkpt>
      <trkpt lat="47.16042" lon="6.05661">
        <ele>452</ele>
        <time>2026-05-24T09:57:34Z</time>
      </trkpt>
      <trkpt lat="47.16045" lon="6.05657">
        <ele>452</ele>
        <time>2026-05-24T09:57:35Z</time>
      </trkpt>
      <trkpt lat="47.16048" lon="6.05653">
        <ele>451.8</ele>
        <time>2026-05-24T09:57:36Z</time>
      </trkpt>
      <trkpt lat="47.16051" lon="6.0565">
        <ele>452</ele>
        <time>2026-05-24T09:57:37Z</time>
      </trkpt>
      <trkpt lat="47.16054" lon="6.05646">
        <ele>451.6</ele>
        <time>2026-05-24T09:57:38Z</time>
      </trkpt>
      <trkpt lat="47.16057" lon="6.05642">
        <ele>451.6</ele>
        <time>2026-05-24T09:57:39Z</time>
      </trkpt>
      <trkpt lat="47.1606" lon="6.05638">
        <ele>451.4</ele>
        <time>2026-05-24T09:57:40Z</time>
      </trkpt>
      <trkpt lat="47.16062" lon="6.05634">
        <ele>451.2</ele>
        <time>2026-05-24T09:57:41Z</time>
      </trkpt>
      <trkpt lat="47.16065" lon="6.05631">
        <ele>451.2</ele>
        <time>2026-05-24T09:57:42Z</time>
      </trkpt>
      <trkpt lat="47.16067" lon="6.05627">
        <ele>451</ele>
        <time>2026-05-24T09:57:43Z</time>
      </trkpt>
      <trkpt lat="47.16069" lon="6.05622">
        <ele>450.8</ele>
        <time>2026-05-24T09:57:44Z</time>
      </trkpt>
      <trkpt lat="47.16073" lon="6.05619">
        <ele>450.8</ele>
        <time>2026-05-24T09:57:45Z</time>
      </trkpt>
      <trkpt lat="47.16076" lon="6.05616">
        <ele>450.8</ele>
        <time>2026-05-24T09:57:46Z</time>
      </trkpt>
      <trkpt lat="47.16078" lon="6.05615">
        <ele>450.8</ele>
        <time>2026-05-24T09:57:47Z</time>
      </trkpt>
      <trkpt lat="47.16081" lon="6.05614">
        <ele>450.4</ele>
        <time>2026-05-24T09:57:48Z</time>
      </trkpt>
      <trkpt lat="47.16085" lon="6.05614">
        <ele>450.4</ele>
        <time>2026-05-24T09:57:49Z</time>
      </trkpt>
      <trkpt lat="47.16089" lon="6.05613">
        <ele>450.4</ele>
        <time>2026-05-24T09:57:50Z</time>
      </trkpt>
      <trkpt lat="47.16093" lon="6.05612">
        <ele>450.4</ele>
        <time>2026-05-24T09:57:51Z</time>
      </trkpt>
      <trkpt lat="47.16097" lon="6.0561">
        <ele>450.2</ele>
        <time>2026-05-24T09:57:52Z</time>
      </trkpt>
      <trkpt lat="47.16101" lon="6.05609">
        <ele>450.2</ele>
        <time>2026-05-24T09:57:53Z</time>
      </trkpt>
      <trkpt lat="47.16105" lon="6.05608">
        <ele>450.2</ele>
        <time>2026-05-24T09:57:54Z</time>
      </trkpt>
      <trkpt lat="47.16109" lon="6.05608">
        <ele>450.4</ele>
        <time>2026-05-24T09:57:55Z</time>
      </trkpt>
      <trkpt lat="47.16114" lon="6.05607">
        <ele>450.4</ele>
        <time>2026-05-24T09:57:56Z</time>
      </trkpt>
      <trkpt lat="47.16118" lon="6.05607">
        <ele>450.2</ele>
        <time>2026-05-24T09:57:57Z</time>
      </trkpt>
      <trkpt lat="47.16122" lon="6.05605">
        <ele>450.2</ele>
        <time>2026-05-24T09:57:58Z</time>
      </trkpt>
      <trkpt lat="47.16125" lon="6.05602">
        <ele>450.2</ele>
        <time>2026-05-24T09:57:59Z</time>
      </trkpt>
      <trkpt lat="47.16128" lon="6.05599">
        <ele>450</ele>
        <time>2026-05-24T09:58:00Z</time>
      </trkpt>
      <trkpt lat="47.16132" lon="6.05597">
        <ele>449.8</ele>
        <time>2026-05-24T09:58:01Z</time>
      </trkpt>
      <trkpt lat="47.16135" lon="6.05595">
        <ele>449.8</ele>
        <time>2026-05-24T09:58:02Z</time>
      </trkpt>
      <trkpt lat="47.16139" lon="6.05594">
        <ele>449.4</ele>
        <time>2026-05-24T09:58:03Z</time>
      </trkpt>
      <trkpt lat="47.16144" lon="6.05594">
        <ele>448.8</ele>
        <time>2026-05-24T09:58:04Z</time>
      </trkpt>
      <trkpt lat="47.16147" lon="6.05593">
        <ele>448.4</ele>
        <time>2026-05-24T09:58:05Z</time>
      </trkpt>
      <trkpt lat="47.16151" lon="6.05592">
        <ele>448</ele>
        <time>2026-05-24T09:58:06Z</time>
      </trkpt>
      <trkpt lat="47.16154" lon="6.05592">
        <ele>447.4</ele>
        <time>2026-05-24T09:58:07Z</time>
      </trkpt>
      <trkpt lat="47.16157" lon="6.0559">
        <ele>446.8</ele>
        <time>2026-05-24T09:58:08Z</time>
      </trkpt>
      <trkpt lat="47.16162" lon="6.0559">
        <ele>446.6</ele>
        <time>2026-05-24T09:58:09Z</time>
      </trkpt>
      <trkpt lat="47.16167" lon="6.0559">
        <ele>446.2</ele>
        <time>2026-05-24T09:58:10Z</time>
      </trkpt>
      <trkpt lat="47.16173" lon="6.05591">
        <ele>445.8</ele>
        <time>2026-05-24T09:58:11Z</time>
      </trkpt>
      <trkpt lat="47.1618" lon="6.0559">
        <ele>445.4</ele>
        <time>2026-05-24T09:58:12Z</time>
      </trkpt>
      <trkpt lat="47.16185" lon="6.05591">
        <ele>445</ele>
        <time>2026-05-24T09:58:13Z</time>
      </trkpt>
      <trkpt lat="47.1619" lon="6.05589">
        <ele>444.4</ele>
        <time>2026-05-24T09:58:14Z</time>
      </trkpt>
      <trkpt lat="47.16195" lon="6.05587">
        <ele>443.8</ele>
        <time>2026-05-24T09:58:15Z</time>
      </trkpt>
      <trkpt lat="47.16198" lon="6.05582">
        <ele>443.2</ele>
        <time>2026-05-24T09:58:16Z</time>
      </trkpt>
      <trkpt lat="47.16202" lon="6.05578">
        <ele>442.6</ele>
        <time>2026-05-24T09:58:17Z</time>
      </trkpt>
      <trkpt lat="47.16206" lon="6.05573">
        <ele>442.4</ele>
        <time>2026-05-24T09:58:18Z</time>
      </trkpt>
      <trkpt lat="47.1621" lon="6.05569">
        <ele>442.4</ele>
        <time>2026-05-24T09:58:19Z</time>
      </trkpt>
      <trkpt lat="47.16214" lon="6.05565">
        <ele>442</ele>
        <time>2026-05-24T09:58:20Z</time>
      </trkpt>
      <trkpt lat="47.16219" lon="6.05563">
        <ele>441.8</ele>
        <time>2026-05-24T09:58:21Z</time>
      </trkpt>
      <trkpt lat="47.16225" lon="6.0556">
        <ele>441.2</ele>
        <time>2026-05-24T09:58:22Z</time>
      </trkpt>
      <trkpt lat="47.16229" lon="6.05558">
        <ele>441</ele>
        <time>2026-05-24T09:58:23Z</time>
      </trkpt>
      <trkpt lat="47.16234" lon="6.05556">
        <ele>440.6</ele>
        <time>2026-05-24T09:58:24Z</time>
      </trkpt>
      <trkpt lat="47.16239" lon="6.05555">
        <ele>440.4</ele>
        <time>2026-05-24T09:58:25Z</time>
      </trkpt>
      <trkpt lat="47.16244" lon="6.05552">
        <ele>440</ele>
        <time>2026-05-24T09:58:26Z</time>
      </trkpt>
      <trkpt lat="47.1625" lon="6.0555">
        <ele>439.6</ele>
        <time>2026-05-24T09:58:27Z</time>
      </trkpt>
      <trkpt lat="47.16256" lon="6.05547">
        <ele>438.8</ele>
        <time>2026-05-24T09:58:28Z</time>
      </trkpt>
      <trkpt lat="47.16261" lon="6.05545">
        <ele>438.4</ele>
        <time>2026-05-24T09:58:29Z</time>
      </trkpt>
      <trkpt lat="47.16265" lon="6.05543">
        <ele>438</ele>
        <time>2026-05-24T09:58:30Z</time>
      </trkpt>
      <trkpt lat="47.16269" lon="6.05541">
        <ele>437.4</ele>
        <time>2026-05-24T09:58:31Z</time>
      </trkpt>
      <trkpt lat="47.16272" lon="6.05539">
        <ele>437</ele>
        <time>2026-05-24T09:58:32Z</time>
      </trkpt>
      <trkpt lat="47.16275" lon="6.05536">
        <ele>436.8</ele>
        <time>2026-05-24T09:58:33Z</time>
      </trkpt>
      <trkpt lat="47.16276" lon="6.05531">
        <ele>436.4</ele>
        <time>2026-05-24T09:58:34Z</time>
      </trkpt>
      <trkpt lat="47.16277" lon="6.05526">
        <ele>436.2</ele>
        <time>2026-05-24T09:58:35Z</time>
      </trkpt>
      <trkpt lat="47.16278" lon="6.0552">
        <ele>436</ele>
        <time>2026-05-24T09:58:36Z</time>
      </trkpt>
      <trkpt lat="47.16279" lon="6.05514">
        <ele>435.6</ele>
        <time>2026-05-24T09:58:37Z</time>
      </trkpt>
      <trkpt lat="47.16279" lon="6.05506">
        <ele>435.2</ele>
        <time>2026-05-24T09:58:38Z</time>
      </trkpt>
      <trkpt lat="47.16279" lon="6.05499">
        <ele>434.6</ele>
        <time>2026-05-24T09:58:39Z</time>
      </trkpt>
      <trkpt lat="47.1628" lon="6.05492">
        <ele>434.4</ele>
        <time>2026-05-24T09:58:40Z</time>
      </trkpt>
      <trkpt lat="47.16281" lon="6.05485">
        <ele>434.4</ele>
        <time>2026-05-24T09:58:41Z</time>
      </trkpt>
      <trkpt lat="47.16283" lon="6.05477">
        <ele>434.4</ele>
        <time>2026-05-24T09:58:42Z</time>
      </trkpt>
      <trkpt lat="47.16284" lon="6.05469">
        <ele>434.2</ele>
        <time>2026-05-24T09:58:43Z</time>
      </trkpt>
      <trkpt lat="47.16284" lon="6.05462">
        <ele>433.8</ele>
        <time>2026-05-24T09:58:44Z</time>
      </trkpt>
      <trkpt lat="47.16286" lon="6.05455">
        <ele>433.6</ele>
        <time>2026-05-24T09:58:45Z</time>
      </trkpt>
      <trkpt lat="47.16289" lon="6.05448">
        <ele>433.8</ele>
        <time>2026-05-24T09:58:46Z</time>
      </trkpt>
      <trkpt lat="47.16292" lon="6.05441">
        <ele>433.6</ele>
        <time>2026-05-24T09:58:47Z</time>
      </trkpt>
      <trkpt lat="47.16296" lon="6.05436">
        <ele>433.6</ele>
        <time>2026-05-24T09:58:48Z</time>
      </trkpt>
      <trkpt lat="47.16299" lon="6.05431">
        <ele>433.6</ele>
        <time>2026-05-24T09:58:49Z</time>
      </trkpt>
      <trkpt lat="47.16304" lon="6.05425">
        <ele>433.6</ele>
        <time>2026-05-24T09:58:50Z</time>
      </trkpt>
      <trkpt lat="47.16309" lon="6.05419">
        <ele>433.4</ele>
        <time>2026-05-24T09:58:51Z</time>
      </trkpt>
      <trkpt lat="47.16314" lon="6.05413">
        <ele>433.4</ele>
        <time>2026-05-24T09:58:52Z</time>
      </trkpt>
      <trkpt lat="47.16319" lon="6.05408">
        <ele>433.4</ele>
        <time>2026-05-24T09:58:53Z</time>
      </trkpt>
      <trkpt lat="47.16325" lon="6.05404">
        <ele>433.2</ele>
        <time>2026-05-24T09:58:54Z</time>
      </trkpt>
      <trkpt lat="47.16331" lon="6.054">
        <ele>433.2</ele>
        <time>2026-05-24T09:58:55Z</time>
      </trkpt>
      <trkpt lat="47.16337" lon="6.05397">
        <ele>433</ele>
        <time>2026-05-24T09:58:56Z</time>
      </trkpt>
      <trkpt lat="47.16342" lon="6.05395">
        <ele>433</ele>
        <time>2026-05-24T09:58:57Z</time>
      </trkpt>
      <trkpt lat="47.16348" lon="6.05392">
        <ele>433</ele>
        <time>2026-05-24T09:58:58Z</time>
      </trkpt>
      <trkpt lat="47.16353" lon="6.05388">
        <ele>433</ele>
        <time>2026-05-24T09:58:59Z</time>
      </trkpt>
      <trkpt lat="47.16358" lon="6.05382">
        <ele>433</ele>
        <time>2026-05-24T09:59:00Z</time>
      </trkpt>
      <trkpt lat="47.16363" lon="6.05376">
        <ele>432.8</ele>
        <time>2026-05-24T09:59:01Z</time>
      </trkpt>
      <trkpt lat="47.16368" lon="6.0537">
        <ele>432.4</ele>
        <time>2026-05-24T09:59:02Z</time>
      </trkpt>
      <trkpt lat="47.16373" lon="6.05362">
        <ele>432.4</ele>
        <time>2026-05-24T09:59:03Z</time>
      </trkpt>
      <trkpt lat="47.16379" lon="6.05354">
        <ele>431.6</ele>
        <time>2026-05-24T09:59:04Z</time>
      </trkpt>
      <trkpt lat="47.16385" lon="6.05347">
        <ele>431.2</ele>
        <time>2026-05-24T09:59:05Z</time>
      </trkpt>
      <trkpt lat="47.16389" lon="6.0534">
        <ele>430.8</ele>
        <time>2026-05-24T09:59:06Z</time>
      </trkpt>
      <trkpt lat="47.16394" lon="6.05333">
        <ele>430.8</ele>
        <time>2026-05-24T09:59:07Z</time>
      </trkpt>
      <trkpt lat="47.16398" lon="6.05327">
        <ele>430.6</ele>
        <time>2026-05-24T09:59:08Z</time>
      </trkpt>
      <trkpt lat="47.16404" lon="6.05321">
        <ele>430.4</ele>
        <time>2026-05-24T09:59:09Z</time>
      </trkpt>
      <trkpt lat="47.16409" lon="6.05316">
        <ele>430.4</ele>
        <time>2026-05-24T09:59:10Z</time>
      </trkpt>
      <trkpt lat="47.16415" lon="6.05308">
        <ele>430.4</ele>
        <time>2026-05-24T09:59:11Z</time>
      </trkpt>
      <trkpt lat="47.1642" lon="6.05301">
        <ele>430.4</ele>
        <time>2026-05-24T09:59:12Z</time>
      </trkpt>
      <trkpt lat="47.16424" lon="6.05292">
        <ele>430.4</ele>
        <time>2026-05-24T09:59:13Z</time>
      </trkpt>
      <trkpt lat="47.16429" lon="6.05283">
        <ele>430.2</ele>
        <time>2026-05-24T09:59:14Z</time>
      </trkpt>
      <trkpt lat="47.16433" lon="6.05274">
        <ele>430</ele>
        <time>2026-05-24T09:59:15Z</time>
      </trkpt>
      <trkpt lat="47.16438" lon="6.05266">
        <ele>430</ele>
        <time>2026-05-24T09:59:16Z</time>
      </trkpt>
      <trkpt lat="47.16442" lon="6.05257">
        <ele>429.8</ele>
        <time>2026-05-24T09:59:17Z</time>
      </trkpt>
      <trkpt lat="47.16447" lon="6.05248">
        <ele>429.8</ele>
        <time>2026-05-24T09:59:18Z</time>
      </trkpt>
      <trkpt lat="47.16451" lon="6.05238">
        <ele>430</ele>
        <time>2026-05-24T09:59:19Z</time>
      </trkpt>
      <trkpt lat="47.16455" lon="6.05228">
        <ele>429.8</ele>
        <time>2026-05-24T09:59:20Z</time>
      </trkpt>
      <trkpt lat="47.16457" lon="6.05218">
        <ele>430</ele>
        <time>2026-05-24T09:59:21Z</time>
      </trkpt>
      <trkpt lat="47.16461" lon="6.05208">
        <ele>429.8</ele>
        <time>2026-05-24T09:59:22Z</time>
      </trkpt>
      <trkpt lat="47.16464" lon="6.05199">
        <ele>429.8</ele>
        <time>2026-05-24T09:59:23Z</time>
      </trkpt>
      <trkpt lat="47.16467" lon="6.05191">
        <ele>429.4</ele>
        <time>2026-05-24T09:59:24Z</time>
      </trkpt>
      <trkpt lat="47.16468" lon="6.05183">
        <ele>429.4</ele>
        <time>2026-05-24T09:59:25Z</time>
      </trkpt>
      <trkpt lat="47.16471" lon="6.05176">
        <ele>429.2</ele>
        <time>2026-05-24T09:59:26Z</time>
      </trkpt>
      <trkpt lat="47.16474" lon="6.05171">
        <ele>428.8</ele>
        <time>2026-05-24T09:59:27Z</time>
      </trkpt>
      <trkpt lat="47.16476" lon="6.0517">
        <ele>428.8</ele>
        <time>2026-05-24T09:59:28Z</time>
      </trkpt>
      <trkpt lat="47.16478" lon="6.05168">
        <ele>428.8</ele>
        <time>2026-05-24T09:59:29Z</time>
      </trkpt>
      <trkpt lat="47.16479" lon="6.05166">
        <ele>428.6</ele>
        <time>2026-05-24T09:59:30Z</time>
      </trkpt>
      <trkpt lat="47.16479" lon="6.05164">
        <ele>428.6</ele>
        <time>2026-05-24T09:59:31Z</time>
      </trkpt>
      <trkpt lat="47.16479" lon="6.05162">
        <ele>428.4</ele>
        <time>2026-05-24T09:59:32Z</time>
      </trkpt>
      <trkpt lat="47.16478" lon="6.05162">
        <ele>428.4</ele>
        <time>2026-05-24T09:59:33Z</time>
      </trkpt>
      <trkpt lat="47.16477" lon="6.05161">
        <ele>428.4</ele>
        <time>2026-05-24T09:59:34Z</time>
      </trkpt>
      <trkpt lat="47.16476" lon="6.05161">
        <ele>428.2</ele>
        <time>2026-05-24T09:59:35Z</time>
      </trkpt>
      <trkpt lat="47.16476" lon="6.05161">
        <ele>428.2</ele>
        <time>2026-05-24T09:59:36Z</time>
      </trkpt>
      <trkpt lat="47.16476" lon="6.05162">
        <ele>428</ele>
        <time>2026-05-24T09:59:37Z</time>
      </trkpt>
      <trkpt lat="47.16483" lon="6.05171">
        <ele>428</ele>
        <time>2026-05-24T10:00:42Z</time>
      </trkpt>
      <trkpt lat="47.16485" lon="6.05174">
        <ele>428</ele>
        <time>2026-05-24T10:00:43Z</time>
      </trkpt>
      <trkpt lat="47.16487" lon="6.05178">
        <ele>428</ele>
        <time>2026-05-24T10:00:44Z</time>
      </trkpt>
      <trkpt lat="47.16488" lon="6.05181">
        <ele>428</ele>
        <time>2026-05-24T10:00:45Z</time>
      </trkpt>
      <trkpt lat="47.1649" lon="6.05184">
        <ele>428.2</ele>
        <time>2026-05-24T10:00:46Z</time>
      </trkpt>
      <trkpt lat="47.16492" lon="6.05187">
        <ele>428.2</ele>
        <time>2026-05-24T10:00:47Z</time>
      </trkpt>
      <trkpt lat="47.16493" lon="6.05189">
        <ele>428.2</ele>
        <time>2026-05-24T10:00:48Z</time>
      </trkpt>
      <trkpt lat="47.16495" lon="6.05189">
        <ele>428.2</ele>
        <time>2026-05-24T10:00:49Z</time>
      </trkpt>
    </trkseg>
  </trk>
</gpx>